<?xml version="1.0" encoding="UTF-8" standalone="no" ?>
<gpx xmlns="http://www.topografix.com/GPX/1/1" xmlns:xsi="http://www.w3.org/2001/XMLSchema-instance" xsi:schemaLocation="http://www.topografix.com/GPX/1/1 http://www.topografix.com/GPX/1/1/gpx.xsd" version="1.1" creator="VisuGPX - https://www.visugpx.com">
  <metadata>
    <name>O-SO-Route de Nantes Rouans Pré Berthelot Chauvé Pont du Clion Pornic Les Moutiers La Fradouillère Arthon Chéméré St Hilaire de Chaléons St Pazane St Mars Coutais Bouaye</name>
    <desc><![CDATA[O-SO-Route de Nantes Rouans Pré Berthelot Chauvé Pont du Clion Pornic Les Moutiers La Fradouillère Arthon Chéméré St Hilaire de Chaléons St Pazane St Mars Coutais Bouaye]]></desc>
  </metadata>
  <trk>
    <name><![CDATA[2022-08-20 10:03 GMT+2]]></name>
    <trkseg>
      <trkpt lat="47.16758" lon="-1.62653">
        <ele>41</ele>
        <time>2022-08-20T08:03:31.300Z</time>
      </trkpt>
      <trkpt lat="47.16782" lon="-1.62647">
        <ele>54</ele>
        <time>2022-08-20T08:03:33Z</time>
      </trkpt>
      <trkpt lat="47.16777" lon="-1.62647">
        <ele>64</ele>
        <time>2022-08-20T08:05:34Z</time>
      </trkpt>
      <trkpt lat="47.16778" lon="-1.62661">
        <ele>74</ele>
        <time>2022-08-20T08:06:27Z</time>
      </trkpt>
      <trkpt lat="47.16776" lon="-1.62677">
        <ele>75</ele>
        <time>2022-08-20T08:06:32Z</time>
      </trkpt>
      <trkpt lat="47.16767" lon="-1.62681">
        <ele>74</ele>
        <time>2022-08-20T08:06:34Z</time>
      </trkpt>
      <trkpt lat="47.16757" lon="-1.62676">
        <ele>73</ele>
        <time>2022-08-20T08:06:36Z</time>
      </trkpt>
      <trkpt lat="47.16745" lon="-1.62679">
        <ele>73</ele>
        <time>2022-08-20T08:06:38Z</time>
      </trkpt>
      <trkpt lat="47.16733" lon="-1.62687">
        <ele>72</ele>
        <time>2022-08-20T08:06:40Z</time>
      </trkpt>
      <trkpt lat="47.16723" lon="-1.62693">
        <ele>72</ele>
        <time>2022-08-20T08:06:42Z</time>
      </trkpt>
      <trkpt lat="47.16716" lon="-1.62705">
        <ele>72</ele>
        <time>2022-08-20T08:06:44Z</time>
      </trkpt>
      <trkpt lat="47.1672" lon="-1.62721">
        <ele>72</ele>
        <time>2022-08-20T08:06:46Z</time>
      </trkpt>
      <trkpt lat="47.16727" lon="-1.62734">
        <ele>72</ele>
        <time>2022-08-20T08:06:48Z</time>
      </trkpt>
      <trkpt lat="47.16735" lon="-1.62747">
        <ele>72</ele>
        <time>2022-08-20T08:06:50Z</time>
      </trkpt>
      <trkpt lat="47.16744" lon="-1.6276">
        <ele>73</ele>
        <time>2022-08-20T08:06:52Z</time>
      </trkpt>
      <trkpt lat="47.16755" lon="-1.62771">
        <ele>74</ele>
        <time>2022-08-20T08:06:54Z</time>
      </trkpt>
      <trkpt lat="47.16766" lon="-1.62781">
        <ele>74</ele>
        <time>2022-08-20T08:06:56Z</time>
      </trkpt>
      <trkpt lat="47.16777" lon="-1.62791">
        <ele>74</ele>
        <time>2022-08-20T08:06:58Z</time>
      </trkpt>
      <trkpt lat="47.16788" lon="-1.62801">
        <ele>74</ele>
        <time>2022-08-20T08:07:00Z</time>
      </trkpt>
      <trkpt lat="47.16798" lon="-1.62811">
        <ele>74</ele>
        <time>2022-08-20T08:07:02Z</time>
      </trkpt>
      <trkpt lat="47.16809" lon="-1.6282">
        <ele>74</ele>
        <time>2022-08-20T08:07:04Z</time>
      </trkpt>
      <trkpt lat="47.16819" lon="-1.6283">
        <ele>75</ele>
        <time>2022-08-20T08:07:06Z</time>
      </trkpt>
      <trkpt lat="47.16829" lon="-1.6284">
        <ele>75</ele>
        <time>2022-08-20T08:07:08Z</time>
      </trkpt>
      <trkpt lat="47.16839" lon="-1.6285">
        <ele>75</ele>
        <time>2022-08-20T08:07:10Z</time>
      </trkpt>
      <trkpt lat="47.16848" lon="-1.62859">
        <ele>76</ele>
        <time>2022-08-20T08:07:12Z</time>
      </trkpt>
      <trkpt lat="47.16857" lon="-1.62868">
        <ele>77</ele>
        <time>2022-08-20T08:07:14Z</time>
      </trkpt>
      <trkpt lat="47.16866" lon="-1.62878">
        <ele>77</ele>
        <time>2022-08-20T08:07:16Z</time>
      </trkpt>
      <trkpt lat="47.16874" lon="-1.6289">
        <ele>77</ele>
        <time>2022-08-20T08:07:18Z</time>
      </trkpt>
      <trkpt lat="47.1688" lon="-1.62905">
        <ele>77</ele>
        <time>2022-08-20T08:07:20Z</time>
      </trkpt>
      <trkpt lat="47.16885" lon="-1.6292">
        <ele>77</ele>
        <time>2022-08-20T08:07:22Z</time>
      </trkpt>
      <trkpt lat="47.16888" lon="-1.62937">
        <ele>77</ele>
        <time>2022-08-20T08:07:24Z</time>
      </trkpt>
      <trkpt lat="47.1689" lon="-1.62954">
        <ele>78</ele>
        <time>2022-08-20T08:07:26Z</time>
      </trkpt>
      <trkpt lat="47.16891" lon="-1.62971">
        <ele>78</ele>
        <time>2022-08-20T08:07:28Z</time>
      </trkpt>
      <trkpt lat="47.16889" lon="-1.62989">
        <ele>78</ele>
        <time>2022-08-20T08:07:30Z</time>
      </trkpt>
      <trkpt lat="47.16887" lon="-1.63006">
        <ele>78</ele>
        <time>2022-08-20T08:07:32Z</time>
      </trkpt>
      <trkpt lat="47.16885" lon="-1.63022">
        <ele>78</ele>
        <time>2022-08-20T08:07:34Z</time>
      </trkpt>
      <trkpt lat="47.16884" lon="-1.6304">
        <ele>78</ele>
        <time>2022-08-20T08:07:36Z</time>
      </trkpt>
      <trkpt lat="47.16884" lon="-1.63058">
        <ele>77</ele>
        <time>2022-08-20T08:07:38Z</time>
      </trkpt>
      <trkpt lat="47.16886" lon="-1.63075">
        <ele>77</ele>
        <time>2022-08-20T08:07:40Z</time>
      </trkpt>
      <trkpt lat="47.16888" lon="-1.63092">
        <ele>78</ele>
        <time>2022-08-20T08:07:42Z</time>
      </trkpt>
      <trkpt lat="47.16891" lon="-1.63109">
        <ele>78</ele>
        <time>2022-08-20T08:07:44Z</time>
      </trkpt>
      <trkpt lat="47.16895" lon="-1.63125">
        <ele>78</ele>
        <time>2022-08-20T08:07:46Z</time>
      </trkpt>
      <trkpt lat="47.169" lon="-1.6314">
        <ele>78</ele>
        <time>2022-08-20T08:07:48Z</time>
      </trkpt>
      <trkpt lat="47.16905" lon="-1.63156">
        <ele>78</ele>
        <time>2022-08-20T08:07:50Z</time>
      </trkpt>
      <trkpt lat="47.16911" lon="-1.63171">
        <ele>78</ele>
        <time>2022-08-20T08:07:52Z</time>
      </trkpt>
      <trkpt lat="47.16917" lon="-1.63186">
        <ele>79</ele>
        <time>2022-08-20T08:07:54Z</time>
      </trkpt>
      <trkpt lat="47.16925" lon="-1.63199">
        <ele>79</ele>
        <time>2022-08-20T08:07:56Z</time>
      </trkpt>
      <trkpt lat="47.16933" lon="-1.63211">
        <ele>79</ele>
        <time>2022-08-20T08:07:58Z</time>
      </trkpt>
      <trkpt lat="47.16941" lon="-1.63222">
        <ele>79</ele>
        <time>2022-08-20T08:08:00Z</time>
      </trkpt>
      <trkpt lat="47.16949" lon="-1.63233">
        <ele>79</ele>
        <time>2022-08-20T08:08:02Z</time>
      </trkpt>
      <trkpt lat="47.16957" lon="-1.63242">
        <ele>79</ele>
        <time>2022-08-20T08:08:04Z</time>
      </trkpt>
      <trkpt lat="47.16966" lon="-1.63253">
        <ele>79</ele>
        <time>2022-08-20T08:08:07Z</time>
      </trkpt>
      <trkpt lat="47.16962" lon="-1.63269">
        <ele>79</ele>
        <time>2022-08-20T08:08:10Z</time>
      </trkpt>
      <trkpt lat="47.16955" lon="-1.63281">
        <ele>80</ele>
        <time>2022-08-20T08:08:12Z</time>
      </trkpt>
      <trkpt lat="47.16947" lon="-1.63294">
        <ele>80</ele>
        <time>2022-08-20T08:08:14Z</time>
      </trkpt>
      <trkpt lat="47.16938" lon="-1.63307">
        <ele>80</ele>
        <time>2022-08-20T08:08:16Z</time>
      </trkpt>
      <trkpt lat="47.1693" lon="-1.6332">
        <ele>80</ele>
        <time>2022-08-20T08:08:18Z</time>
      </trkpt>
      <trkpt lat="47.16922" lon="-1.63332">
        <ele>81</ele>
        <time>2022-08-20T08:08:20Z</time>
      </trkpt>
      <trkpt lat="47.16913" lon="-1.63345">
        <ele>81</ele>
        <time>2022-08-20T08:08:22Z</time>
      </trkpt>
      <trkpt lat="47.16904" lon="-1.63358">
        <ele>82</ele>
        <time>2022-08-20T08:08:24Z</time>
      </trkpt>
      <trkpt lat="47.16896" lon="-1.63371">
        <ele>82</ele>
        <time>2022-08-20T08:08:26Z</time>
      </trkpt>
      <trkpt lat="47.16888" lon="-1.63384">
        <ele>83</ele>
        <time>2022-08-20T08:08:28Z</time>
      </trkpt>
      <trkpt lat="47.1688" lon="-1.63398">
        <ele>83</ele>
        <time>2022-08-20T08:08:30Z</time>
      </trkpt>
      <trkpt lat="47.16872" lon="-1.63411">
        <ele>83</ele>
        <time>2022-08-20T08:08:32Z</time>
      </trkpt>
      <trkpt lat="47.16864" lon="-1.63426">
        <ele>83</ele>
        <time>2022-08-20T08:08:34Z</time>
      </trkpt>
      <trkpt lat="47.16856" lon="-1.63438">
        <ele>83</ele>
        <time>2022-08-20T08:08:36Z</time>
      </trkpt>
      <trkpt lat="47.16849" lon="-1.63452">
        <ele>83</ele>
        <time>2022-08-20T08:08:38Z</time>
      </trkpt>
      <trkpt lat="47.16841" lon="-1.63465">
        <ele>83</ele>
        <time>2022-08-20T08:08:40Z</time>
      </trkpt>
      <trkpt lat="47.16833" lon="-1.63479">
        <ele>83</ele>
        <time>2022-08-20T08:08:42Z</time>
      </trkpt>
      <trkpt lat="47.16825" lon="-1.63492">
        <ele>83</ele>
        <time>2022-08-20T08:08:44Z</time>
      </trkpt>
      <trkpt lat="47.16817" lon="-1.63506">
        <ele>83</ele>
        <time>2022-08-20T08:08:46Z</time>
      </trkpt>
      <trkpt lat="47.16809" lon="-1.63519">
        <ele>82</ele>
        <time>2022-08-20T08:08:48Z</time>
      </trkpt>
      <trkpt lat="47.168" lon="-1.63533">
        <ele>82</ele>
        <time>2022-08-20T08:08:50Z</time>
      </trkpt>
      <trkpt lat="47.16792" lon="-1.63546">
        <ele>82</ele>
        <time>2022-08-20T08:08:52Z</time>
      </trkpt>
      <trkpt lat="47.16785" lon="-1.6356">
        <ele>82</ele>
        <time>2022-08-20T08:08:54Z</time>
      </trkpt>
      <trkpt lat="47.16777" lon="-1.63574">
        <ele>82</ele>
        <time>2022-08-20T08:08:56Z</time>
      </trkpt>
      <trkpt lat="47.16769" lon="-1.63588">
        <ele>82</ele>
        <time>2022-08-20T08:08:58Z</time>
      </trkpt>
      <trkpt lat="47.16761" lon="-1.63601">
        <ele>82</ele>
        <time>2022-08-20T08:09:00Z</time>
      </trkpt>
      <trkpt lat="47.16754" lon="-1.63615">
        <ele>82</ele>
        <time>2022-08-20T08:09:02Z</time>
      </trkpt>
      <trkpt lat="47.16746" lon="-1.63626">
        <ele>83</ele>
        <time>2022-08-20T08:09:04Z</time>
      </trkpt>
      <trkpt lat="47.16742" lon="-1.63641">
        <ele>83</ele>
        <time>2022-08-20T08:09:06Z</time>
      </trkpt>
      <trkpt lat="47.16749" lon="-1.63652">
        <ele>82</ele>
        <time>2022-08-20T08:09:08Z</time>
      </trkpt>
      <trkpt lat="47.16761" lon="-1.63654">
        <ele>82</ele>
        <time>2022-08-20T08:09:10Z</time>
      </trkpt>
      <trkpt lat="47.16779" lon="-1.6366">
        <ele>82</ele>
        <time>2022-08-20T08:09:13Z</time>
      </trkpt>
      <trkpt lat="47.16791" lon="-1.63664">
        <ele>82</ele>
        <time>2022-08-20T08:09:15Z</time>
      </trkpt>
      <trkpt lat="47.16803" lon="-1.63668">
        <ele>82</ele>
        <time>2022-08-20T08:09:17Z</time>
      </trkpt>
      <trkpt lat="47.16815" lon="-1.63672">
        <ele>82</ele>
        <time>2022-08-20T08:09:19Z</time>
      </trkpt>
      <trkpt lat="47.16827" lon="-1.63676">
        <ele>82</ele>
        <time>2022-08-20T08:09:21Z</time>
      </trkpt>
      <trkpt lat="47.16839" lon="-1.63681">
        <ele>82</ele>
        <time>2022-08-20T08:09:23Z</time>
      </trkpt>
      <trkpt lat="47.16852" lon="-1.63685">
        <ele>82</ele>
        <time>2022-08-20T08:09:25Z</time>
      </trkpt>
      <trkpt lat="47.1687" lon="-1.63692">
        <ele>82</ele>
        <time>2022-08-20T08:09:28Z</time>
      </trkpt>
      <trkpt lat="47.16882" lon="-1.63696">
        <ele>82</ele>
        <time>2022-08-20T08:09:30Z</time>
      </trkpt>
      <trkpt lat="47.16894" lon="-1.63701">
        <ele>82</ele>
        <time>2022-08-20T08:09:32Z</time>
      </trkpt>
      <trkpt lat="47.16913" lon="-1.63708">
        <ele>82</ele>
        <time>2022-08-20T08:09:35Z</time>
      </trkpt>
      <trkpt lat="47.16925" lon="-1.63713">
        <ele>82</ele>
        <time>2022-08-20T08:09:37Z</time>
      </trkpt>
      <trkpt lat="47.16938" lon="-1.63718">
        <ele>82</ele>
        <time>2022-08-20T08:09:39Z</time>
      </trkpt>
      <trkpt lat="47.1695" lon="-1.63723">
        <ele>83</ele>
        <time>2022-08-20T08:09:41Z</time>
      </trkpt>
      <trkpt lat="47.16968" lon="-1.63729">
        <ele>84</ele>
        <time>2022-08-20T08:09:44Z</time>
      </trkpt>
      <trkpt lat="47.16981" lon="-1.63734">
        <ele>84</ele>
        <time>2022-08-20T08:09:46Z</time>
      </trkpt>
      <trkpt lat="47.16993" lon="-1.63738">
        <ele>85</ele>
        <time>2022-08-20T08:09:48Z</time>
      </trkpt>
      <trkpt lat="47.17012" lon="-1.63745">
        <ele>85</ele>
        <time>2022-08-20T08:09:51Z</time>
      </trkpt>
      <trkpt lat="47.17025" lon="-1.63749">
        <ele>85</ele>
        <time>2022-08-20T08:09:53Z</time>
      </trkpt>
      <trkpt lat="47.17043" lon="-1.63758">
        <ele>86</ele>
        <time>2022-08-20T08:09:56Z</time>
      </trkpt>
      <trkpt lat="47.17058" lon="-1.63775">
        <ele>86</ele>
        <time>2022-08-20T08:09:59Z</time>
      </trkpt>
      <trkpt lat="47.17065" lon="-1.63791">
        <ele>85</ele>
        <time>2022-08-20T08:10:01Z</time>
      </trkpt>
      <trkpt lat="47.17073" lon="-1.63817">
        <ele>84</ele>
        <time>2022-08-20T08:10:04Z</time>
      </trkpt>
      <trkpt lat="47.17078" lon="-1.63834">
        <ele>84</ele>
        <time>2022-08-20T08:10:06Z</time>
      </trkpt>
      <trkpt lat="47.17084" lon="-1.63851">
        <ele>83</ele>
        <time>2022-08-20T08:10:08Z</time>
      </trkpt>
      <trkpt lat="47.17089" lon="-1.63868">
        <ele>83</ele>
        <time>2022-08-20T08:10:10Z</time>
      </trkpt>
      <trkpt lat="47.17096" lon="-1.63885">
        <ele>83</ele>
        <time>2022-08-20T08:10:12Z</time>
      </trkpt>
      <trkpt lat="47.17102" lon="-1.63901">
        <ele>83</ele>
        <time>2022-08-20T08:10:14Z</time>
      </trkpt>
      <trkpt lat="47.17108" lon="-1.63916">
        <ele>83</ele>
        <time>2022-08-20T08:10:16Z</time>
      </trkpt>
      <trkpt lat="47.17113" lon="-1.63931">
        <ele>83</ele>
        <time>2022-08-20T08:10:18Z</time>
      </trkpt>
      <trkpt lat="47.17121" lon="-1.63941">
        <ele>83</ele>
        <time>2022-08-20T08:10:20Z</time>
      </trkpt>
      <trkpt lat="47.1713" lon="-1.63944">
        <ele>83</ele>
        <time>2022-08-20T08:10:23Z</time>
      </trkpt>
      <trkpt lat="47.17137" lon="-1.63954">
        <ele>84</ele>
        <time>2022-08-20T08:10:32Z</time>
      </trkpt>
      <trkpt lat="47.17137" lon="-1.63968">
        <ele>83</ele>
        <time>2022-08-20T08:10:34Z</time>
      </trkpt>
      <trkpt lat="47.17137" lon="-1.63985">
        <ele>82</ele>
        <time>2022-08-20T08:10:36Z</time>
      </trkpt>
      <trkpt lat="47.17135" lon="-1.64003">
        <ele>82</ele>
        <time>2022-08-20T08:10:38Z</time>
      </trkpt>
      <trkpt lat="47.17132" lon="-1.64022">
        <ele>82</ele>
        <time>2022-08-20T08:10:40Z</time>
      </trkpt>
      <trkpt lat="47.1713" lon="-1.64041">
        <ele>82</ele>
        <time>2022-08-20T08:10:42Z</time>
      </trkpt>
      <trkpt lat="47.17128" lon="-1.64061">
        <ele>82</ele>
        <time>2022-08-20T08:10:44Z</time>
      </trkpt>
      <trkpt lat="47.17126" lon="-1.64081">
        <ele>82</ele>
        <time>2022-08-20T08:10:46Z</time>
      </trkpt>
      <trkpt lat="47.17124" lon="-1.64101">
        <ele>82</ele>
        <time>2022-08-20T08:10:48Z</time>
      </trkpt>
      <trkpt lat="47.17122" lon="-1.6412">
        <ele>82</ele>
        <time>2022-08-20T08:10:50Z</time>
      </trkpt>
      <trkpt lat="47.1712" lon="-1.64139">
        <ele>82</ele>
        <time>2022-08-20T08:10:52Z</time>
      </trkpt>
      <trkpt lat="47.17119" lon="-1.64159">
        <ele>82</ele>
        <time>2022-08-20T08:10:54Z</time>
      </trkpt>
      <trkpt lat="47.17116" lon="-1.64179">
        <ele>82</ele>
        <time>2022-08-20T08:10:56Z</time>
      </trkpt>
      <trkpt lat="47.17115" lon="-1.64198">
        <ele>82</ele>
        <time>2022-08-20T08:10:58Z</time>
      </trkpt>
      <trkpt lat="47.17113" lon="-1.64218">
        <ele>82</ele>
        <time>2022-08-20T08:11:00Z</time>
      </trkpt>
      <trkpt lat="47.1711" lon="-1.64238">
        <ele>82</ele>
        <time>2022-08-20T08:11:02Z</time>
      </trkpt>
      <trkpt lat="47.17108" lon="-1.64258">
        <ele>82</ele>
        <time>2022-08-20T08:11:04Z</time>
      </trkpt>
      <trkpt lat="47.17106" lon="-1.64278">
        <ele>82</ele>
        <time>2022-08-20T08:11:06Z</time>
      </trkpt>
      <trkpt lat="47.17104" lon="-1.64297">
        <ele>82</ele>
        <time>2022-08-20T08:11:08Z</time>
      </trkpt>
      <trkpt lat="47.17101" lon="-1.64317">
        <ele>82</ele>
        <time>2022-08-20T08:11:10Z</time>
      </trkpt>
      <trkpt lat="47.17099" lon="-1.64337">
        <ele>82</ele>
        <time>2022-08-20T08:11:12Z</time>
      </trkpt>
      <trkpt lat="47.17097" lon="-1.64356">
        <ele>82</ele>
        <time>2022-08-20T08:11:14Z</time>
      </trkpt>
      <trkpt lat="47.17095" lon="-1.64376">
        <ele>82</ele>
        <time>2022-08-20T08:11:16Z</time>
      </trkpt>
      <trkpt lat="47.17093" lon="-1.64396">
        <ele>82</ele>
        <time>2022-08-20T08:11:18Z</time>
      </trkpt>
      <trkpt lat="47.17092" lon="-1.64416">
        <ele>83</ele>
        <time>2022-08-20T08:11:20Z</time>
      </trkpt>
      <trkpt lat="47.17091" lon="-1.64436">
        <ele>83</ele>
        <time>2022-08-20T08:11:22Z</time>
      </trkpt>
      <trkpt lat="47.17089" lon="-1.64456">
        <ele>84</ele>
        <time>2022-08-20T08:11:24Z</time>
      </trkpt>
      <trkpt lat="47.17088" lon="-1.64477">
        <ele>84</ele>
        <time>2022-08-20T08:11:26Z</time>
      </trkpt>
      <trkpt lat="47.17087" lon="-1.64498">
        <ele>83</ele>
        <time>2022-08-20T08:11:28Z</time>
      </trkpt>
      <trkpt lat="47.17086" lon="-1.64519">
        <ele>83</ele>
        <time>2022-08-20T08:11:30Z</time>
      </trkpt>
      <trkpt lat="47.17086" lon="-1.64539">
        <ele>84</ele>
        <time>2022-08-20T08:11:32Z</time>
      </trkpt>
      <trkpt lat="47.17085" lon="-1.6456">
        <ele>83</ele>
        <time>2022-08-20T08:11:34Z</time>
      </trkpt>
      <trkpt lat="47.17084" lon="-1.64581">
        <ele>83</ele>
        <time>2022-08-20T08:11:36Z</time>
      </trkpt>
      <trkpt lat="47.17084" lon="-1.64601">
        <ele>83</ele>
        <time>2022-08-20T08:11:38Z</time>
      </trkpt>
      <trkpt lat="47.17084" lon="-1.64622">
        <ele>83</ele>
        <time>2022-08-20T08:11:40Z</time>
      </trkpt>
      <trkpt lat="47.17084" lon="-1.64643">
        <ele>83</ele>
        <time>2022-08-20T08:11:42Z</time>
      </trkpt>
      <trkpt lat="47.17084" lon="-1.64664">
        <ele>83</ele>
        <time>2022-08-20T08:11:44Z</time>
      </trkpt>
      <trkpt lat="47.17085" lon="-1.64684">
        <ele>83</ele>
        <time>2022-08-20T08:11:46Z</time>
      </trkpt>
      <trkpt lat="47.17085" lon="-1.64704">
        <ele>82</ele>
        <time>2022-08-20T08:11:48Z</time>
      </trkpt>
      <trkpt lat="47.17085" lon="-1.64725">
        <ele>82</ele>
        <time>2022-08-20T08:11:50Z</time>
      </trkpt>
      <trkpt lat="47.17087" lon="-1.64744">
        <ele>83</ele>
        <time>2022-08-20T08:11:52Z</time>
      </trkpt>
      <trkpt lat="47.17088" lon="-1.64762">
        <ele>83</ele>
        <time>2022-08-20T08:11:54Z</time>
      </trkpt>
      <trkpt lat="47.17089" lon="-1.64782">
        <ele>83</ele>
        <time>2022-08-20T08:11:56Z</time>
      </trkpt>
      <trkpt lat="47.1709" lon="-1.64801">
        <ele>83</ele>
        <time>2022-08-20T08:11:58Z</time>
      </trkpt>
      <trkpt lat="47.17091" lon="-1.64823">
        <ele>84</ele>
        <time>2022-08-20T08:12:00Z</time>
      </trkpt>
      <trkpt lat="47.17092" lon="-1.64844">
        <ele>83</ele>
        <time>2022-08-20T08:12:02Z</time>
      </trkpt>
      <trkpt lat="47.17094" lon="-1.64865">
        <ele>83</ele>
        <time>2022-08-20T08:12:04Z</time>
      </trkpt>
      <trkpt lat="47.17096" lon="-1.64886">
        <ele>83</ele>
        <time>2022-08-20T08:12:06Z</time>
      </trkpt>
      <trkpt lat="47.17097" lon="-1.64907">
        <ele>82</ele>
        <time>2022-08-20T08:12:08Z</time>
      </trkpt>
      <trkpt lat="47.17099" lon="-1.64927">
        <ele>82</ele>
        <time>2022-08-20T08:12:10Z</time>
      </trkpt>
      <trkpt lat="47.171" lon="-1.64947">
        <ele>81</ele>
        <time>2022-08-20T08:12:12Z</time>
      </trkpt>
      <trkpt lat="47.17101" lon="-1.64968">
        <ele>81</ele>
        <time>2022-08-20T08:12:14Z</time>
      </trkpt>
      <trkpt lat="47.17103" lon="-1.64988">
        <ele>81</ele>
        <time>2022-08-20T08:12:16Z</time>
      </trkpt>
      <trkpt lat="47.17105" lon="-1.65008">
        <ele>81</ele>
        <time>2022-08-20T08:12:18Z</time>
      </trkpt>
      <trkpt lat="47.17106" lon="-1.65028">
        <ele>82</ele>
        <time>2022-08-20T08:12:20Z</time>
      </trkpt>
      <trkpt lat="47.17108" lon="-1.65047">
        <ele>82</ele>
        <time>2022-08-20T08:12:22Z</time>
      </trkpt>
      <trkpt lat="47.17109" lon="-1.65067">
        <ele>82</ele>
        <time>2022-08-20T08:12:24Z</time>
      </trkpt>
      <trkpt lat="47.1711" lon="-1.65086">
        <ele>82</ele>
        <time>2022-08-20T08:12:26Z</time>
      </trkpt>
      <trkpt lat="47.17111" lon="-1.65106">
        <ele>82</ele>
        <time>2022-08-20T08:12:28Z</time>
      </trkpt>
      <trkpt lat="47.17113" lon="-1.65125">
        <ele>82</ele>
        <time>2022-08-20T08:12:30Z</time>
      </trkpt>
      <trkpt lat="47.17114" lon="-1.65145">
        <ele>81</ele>
        <time>2022-08-20T08:12:32Z</time>
      </trkpt>
      <trkpt lat="47.17116" lon="-1.65164">
        <ele>82</ele>
        <time>2022-08-20T08:12:34Z</time>
      </trkpt>
      <trkpt lat="47.17117" lon="-1.65183">
        <ele>82</ele>
        <time>2022-08-20T08:12:36Z</time>
      </trkpt>
      <trkpt lat="47.17119" lon="-1.65201">
        <ele>82</ele>
        <time>2022-08-20T08:12:38Z</time>
      </trkpt>
      <trkpt lat="47.17121" lon="-1.65219">
        <ele>82</ele>
        <time>2022-08-20T08:12:40Z</time>
      </trkpt>
      <trkpt lat="47.17122" lon="-1.65236">
        <ele>82</ele>
        <time>2022-08-20T08:12:42Z</time>
      </trkpt>
      <trkpt lat="47.17122" lon="-1.65253">
        <ele>83</ele>
        <time>2022-08-20T08:12:44Z</time>
      </trkpt>
      <trkpt lat="47.17125" lon="-1.65269">
        <ele>83</ele>
        <time>2022-08-20T08:12:46Z</time>
      </trkpt>
      <trkpt lat="47.17131" lon="-1.65285">
        <ele>83</ele>
        <time>2022-08-20T08:12:48Z</time>
      </trkpt>
      <trkpt lat="47.17135" lon="-1.65301">
        <ele>83</ele>
        <time>2022-08-20T08:12:50Z</time>
      </trkpt>
      <trkpt lat="47.17134" lon="-1.65319">
        <ele>84</ele>
        <time>2022-08-20T08:12:52Z</time>
      </trkpt>
      <trkpt lat="47.17127" lon="-1.65334">
        <ele>84</ele>
        <time>2022-08-20T08:12:54Z</time>
      </trkpt>
      <trkpt lat="47.17119" lon="-1.65348">
        <ele>84</ele>
        <time>2022-08-20T08:12:56Z</time>
      </trkpt>
      <trkpt lat="47.17115" lon="-1.65365">
        <ele>85</ele>
        <time>2022-08-20T08:12:58Z</time>
      </trkpt>
      <trkpt lat="47.17116" lon="-1.65383">
        <ele>85</ele>
        <time>2022-08-20T08:13:00Z</time>
      </trkpt>
      <trkpt lat="47.17116" lon="-1.65401">
        <ele>85</ele>
        <time>2022-08-20T08:13:02Z</time>
      </trkpt>
      <trkpt lat="47.17117" lon="-1.65418">
        <ele>85</ele>
        <time>2022-08-20T08:13:04Z</time>
      </trkpt>
      <trkpt lat="47.17118" lon="-1.65434">
        <ele>85</ele>
        <time>2022-08-20T08:13:06Z</time>
      </trkpt>
      <trkpt lat="47.17118" lon="-1.6545">
        <ele>85</ele>
        <time>2022-08-20T08:13:08Z</time>
      </trkpt>
      <trkpt lat="47.17117" lon="-1.65465">
        <ele>86</ele>
        <time>2022-08-20T08:13:10Z</time>
      </trkpt>
      <trkpt lat="47.17115" lon="-1.65481">
        <ele>86</ele>
        <time>2022-08-20T08:13:12Z</time>
      </trkpt>
      <trkpt lat="47.17112" lon="-1.65496">
        <ele>86</ele>
        <time>2022-08-20T08:13:14Z</time>
      </trkpt>
      <trkpt lat="47.17109" lon="-1.65511">
        <ele>87</ele>
        <time>2022-08-20T08:13:16Z</time>
      </trkpt>
      <trkpt lat="47.17104" lon="-1.65525">
        <ele>87</ele>
        <time>2022-08-20T08:13:18Z</time>
      </trkpt>
      <trkpt lat="47.17098" lon="-1.65539">
        <ele>88</ele>
        <time>2022-08-20T08:13:20Z</time>
      </trkpt>
      <trkpt lat="47.17092" lon="-1.65553">
        <ele>88</ele>
        <time>2022-08-20T08:13:22Z</time>
      </trkpt>
      <trkpt lat="47.17085" lon="-1.65565">
        <ele>88</ele>
        <time>2022-08-20T08:13:24Z</time>
      </trkpt>
      <trkpt lat="47.17078" lon="-1.65577">
        <ele>89</ele>
        <time>2022-08-20T08:13:26Z</time>
      </trkpt>
      <trkpt lat="47.17071" lon="-1.65589">
        <ele>89</ele>
        <time>2022-08-20T08:13:28Z</time>
      </trkpt>
      <trkpt lat="47.17064" lon="-1.65602">
        <ele>89</ele>
        <time>2022-08-20T08:13:30Z</time>
      </trkpt>
      <trkpt lat="47.17057" lon="-1.65615">
        <ele>89</ele>
        <time>2022-08-20T08:13:32Z</time>
      </trkpt>
      <trkpt lat="47.17049" lon="-1.65629">
        <ele>88</ele>
        <time>2022-08-20T08:13:34Z</time>
      </trkpt>
      <trkpt lat="47.1704" lon="-1.65643">
        <ele>88</ele>
        <time>2022-08-20T08:13:36Z</time>
      </trkpt>
      <trkpt lat="47.17032" lon="-1.65659">
        <ele>87</ele>
        <time>2022-08-20T08:13:38Z</time>
      </trkpt>
      <trkpt lat="47.17023" lon="-1.65676">
        <ele>87</ele>
        <time>2022-08-20T08:13:40Z</time>
      </trkpt>
      <trkpt lat="47.17015" lon="-1.65693">
        <ele>86</ele>
        <time>2022-08-20T08:13:42Z</time>
      </trkpt>
      <trkpt lat="47.17008" lon="-1.65712">
        <ele>86</ele>
        <time>2022-08-20T08:13:44Z</time>
      </trkpt>
      <trkpt lat="47.17004" lon="-1.65731">
        <ele>86</ele>
        <time>2022-08-20T08:13:46Z</time>
      </trkpt>
      <trkpt lat="47.17001" lon="-1.65751">
        <ele>85</ele>
        <time>2022-08-20T08:13:48Z</time>
      </trkpt>
      <trkpt lat="47.16993" lon="-1.65766">
        <ele>84</ele>
        <time>2022-08-20T08:13:50Z</time>
      </trkpt>
      <trkpt lat="47.16981" lon="-1.65774">
        <ele>84</ele>
        <time>2022-08-20T08:13:52Z</time>
      </trkpt>
      <trkpt lat="47.16968" lon="-1.65783">
        <ele>84</ele>
        <time>2022-08-20T08:13:54Z</time>
      </trkpt>
      <trkpt lat="47.16957" lon="-1.65796">
        <ele>84</ele>
        <time>2022-08-20T08:13:56Z</time>
      </trkpt>
      <trkpt lat="47.16949" lon="-1.65813">
        <ele>83</ele>
        <time>2022-08-20T08:13:58Z</time>
      </trkpt>
      <trkpt lat="47.1694" lon="-1.6583">
        <ele>83</ele>
        <time>2022-08-20T08:14:00Z</time>
      </trkpt>
      <trkpt lat="47.16931" lon="-1.65847">
        <ele>83</ele>
        <time>2022-08-20T08:14:02Z</time>
      </trkpt>
      <trkpt lat="47.16923" lon="-1.65863">
        <ele>82</ele>
        <time>2022-08-20T08:14:04Z</time>
      </trkpt>
      <trkpt lat="47.16915" lon="-1.6588">
        <ele>82</ele>
        <time>2022-08-20T08:14:06Z</time>
      </trkpt>
      <trkpt lat="47.16906" lon="-1.65898">
        <ele>82</ele>
        <time>2022-08-20T08:14:08Z</time>
      </trkpt>
      <trkpt lat="47.16898" lon="-1.65915">
        <ele>81</ele>
        <time>2022-08-20T08:14:10Z</time>
      </trkpt>
      <trkpt lat="47.1689" lon="-1.65933">
        <ele>81</ele>
        <time>2022-08-20T08:14:12Z</time>
      </trkpt>
      <trkpt lat="47.16882" lon="-1.6595">
        <ele>81</ele>
        <time>2022-08-20T08:14:14Z</time>
      </trkpt>
      <trkpt lat="47.16874" lon="-1.65968">
        <ele>81</ele>
        <time>2022-08-20T08:14:16Z</time>
      </trkpt>
      <trkpt lat="47.16867" lon="-1.65987">
        <ele>81</ele>
        <time>2022-08-20T08:14:18Z</time>
      </trkpt>
      <trkpt lat="47.16861" lon="-1.66007">
        <ele>80</ele>
        <time>2022-08-20T08:14:20Z</time>
      </trkpt>
      <trkpt lat="47.16856" lon="-1.66026">
        <ele>81</ele>
        <time>2022-08-20T08:14:22Z</time>
      </trkpt>
      <trkpt lat="47.16852" lon="-1.66045">
        <ele>81</ele>
        <time>2022-08-20T08:14:24Z</time>
      </trkpt>
      <trkpt lat="47.16849" lon="-1.66065">
        <ele>81</ele>
        <time>2022-08-20T08:14:26Z</time>
      </trkpt>
      <trkpt lat="47.16846" lon="-1.66084">
        <ele>81</ele>
        <time>2022-08-20T08:14:28Z</time>
      </trkpt>
      <trkpt lat="47.16844" lon="-1.66104">
        <ele>81</ele>
        <time>2022-08-20T08:14:30Z</time>
      </trkpt>
      <trkpt lat="47.16843" lon="-1.66124">
        <ele>81</ele>
        <time>2022-08-20T08:14:32Z</time>
      </trkpt>
      <trkpt lat="47.16843" lon="-1.66144">
        <ele>80</ele>
        <time>2022-08-20T08:14:34Z</time>
      </trkpt>
      <trkpt lat="47.16844" lon="-1.66165">
        <ele>80</ele>
        <time>2022-08-20T08:14:36Z</time>
      </trkpt>
      <trkpt lat="47.16845" lon="-1.66185">
        <ele>80</ele>
        <time>2022-08-20T08:14:38Z</time>
      </trkpt>
      <trkpt lat="47.16846" lon="-1.66205">
        <ele>80</ele>
        <time>2022-08-20T08:14:40Z</time>
      </trkpt>
      <trkpt lat="47.16847" lon="-1.66225">
        <ele>81</ele>
        <time>2022-08-20T08:14:42Z</time>
      </trkpt>
      <trkpt lat="47.16849" lon="-1.66245">
        <ele>81</ele>
        <time>2022-08-20T08:14:44Z</time>
      </trkpt>
      <trkpt lat="47.1685" lon="-1.66264">
        <ele>81</ele>
        <time>2022-08-20T08:14:46Z</time>
      </trkpt>
      <trkpt lat="47.16852" lon="-1.66283">
        <ele>81</ele>
        <time>2022-08-20T08:14:48Z</time>
      </trkpt>
      <trkpt lat="47.16853" lon="-1.66302">
        <ele>82</ele>
        <time>2022-08-20T08:14:50Z</time>
      </trkpt>
      <trkpt lat="47.16854" lon="-1.66322">
        <ele>82</ele>
        <time>2022-08-20T08:14:52Z</time>
      </trkpt>
      <trkpt lat="47.16856" lon="-1.66341">
        <ele>82</ele>
        <time>2022-08-20T08:14:54Z</time>
      </trkpt>
      <trkpt lat="47.16858" lon="-1.66361">
        <ele>82</ele>
        <time>2022-08-20T08:14:56Z</time>
      </trkpt>
      <trkpt lat="47.1686" lon="-1.6638">
        <ele>81</ele>
        <time>2022-08-20T08:14:58Z</time>
      </trkpt>
      <trkpt lat="47.16862" lon="-1.66401">
        <ele>81</ele>
        <time>2022-08-20T08:15:00Z</time>
      </trkpt>
      <trkpt lat="47.16864" lon="-1.6642">
        <ele>81</ele>
        <time>2022-08-20T08:15:02Z</time>
      </trkpt>
      <trkpt lat="47.16866" lon="-1.66439">
        <ele>81</ele>
        <time>2022-08-20T08:15:04Z</time>
      </trkpt>
      <trkpt lat="47.16869" lon="-1.66459">
        <ele>81</ele>
        <time>2022-08-20T08:15:06Z</time>
      </trkpt>
      <trkpt lat="47.16871" lon="-1.66479">
        <ele>81</ele>
        <time>2022-08-20T08:15:08Z</time>
      </trkpt>
      <trkpt lat="47.16873" lon="-1.66498">
        <ele>81</ele>
        <time>2022-08-20T08:15:10Z</time>
      </trkpt>
      <trkpt lat="47.16875" lon="-1.66515">
        <ele>82</ele>
        <time>2022-08-20T08:15:12Z</time>
      </trkpt>
      <trkpt lat="47.16877" lon="-1.66534">
        <ele>82</ele>
        <time>2022-08-20T08:15:14Z</time>
      </trkpt>
      <trkpt lat="47.16879" lon="-1.66553">
        <ele>82</ele>
        <time>2022-08-20T08:15:16Z</time>
      </trkpt>
      <trkpt lat="47.16881" lon="-1.66573">
        <ele>81</ele>
        <time>2022-08-20T08:15:18Z</time>
      </trkpt>
      <trkpt lat="47.16883" lon="-1.66592">
        <ele>81</ele>
        <time>2022-08-20T08:15:20Z</time>
      </trkpt>
      <trkpt lat="47.16885" lon="-1.66611">
        <ele>82</ele>
        <time>2022-08-20T08:15:22Z</time>
      </trkpt>
      <trkpt lat="47.16887" lon="-1.66631">
        <ele>82</ele>
        <time>2022-08-20T08:15:24Z</time>
      </trkpt>
      <trkpt lat="47.16888" lon="-1.66651">
        <ele>82</ele>
        <time>2022-08-20T08:15:26Z</time>
      </trkpt>
      <trkpt lat="47.16888" lon="-1.6667">
        <ele>81</ele>
        <time>2022-08-20T08:15:28Z</time>
      </trkpt>
      <trkpt lat="47.16886" lon="-1.6669">
        <ele>81</ele>
        <time>2022-08-20T08:15:30Z</time>
      </trkpt>
      <trkpt lat="47.16883" lon="-1.6671">
        <ele>81</ele>
        <time>2022-08-20T08:15:32Z</time>
      </trkpt>
      <trkpt lat="47.16878" lon="-1.66729">
        <ele>81</ele>
        <time>2022-08-20T08:15:34Z</time>
      </trkpt>
      <trkpt lat="47.16871" lon="-1.66746">
        <ele>81</ele>
        <time>2022-08-20T08:15:36Z</time>
      </trkpt>
      <trkpt lat="47.16864" lon="-1.66763">
        <ele>80</ele>
        <time>2022-08-20T08:15:38Z</time>
      </trkpt>
      <trkpt lat="47.16856" lon="-1.66779">
        <ele>81</ele>
        <time>2022-08-20T08:15:40Z</time>
      </trkpt>
      <trkpt lat="47.16848" lon="-1.66796">
        <ele>81</ele>
        <time>2022-08-20T08:15:42Z</time>
      </trkpt>
      <trkpt lat="47.1684" lon="-1.66812">
        <ele>81</ele>
        <time>2022-08-20T08:15:44Z</time>
      </trkpt>
      <trkpt lat="47.16831" lon="-1.66827">
        <ele>82</ele>
        <time>2022-08-20T08:15:46Z</time>
      </trkpt>
      <trkpt lat="47.16822" lon="-1.66844">
        <ele>82</ele>
        <time>2022-08-20T08:15:48Z</time>
      </trkpt>
      <trkpt lat="47.16814" lon="-1.6686">
        <ele>82</ele>
        <time>2022-08-20T08:15:50Z</time>
      </trkpt>
      <trkpt lat="47.16806" lon="-1.66876">
        <ele>82</ele>
        <time>2022-08-20T08:15:52Z</time>
      </trkpt>
      <trkpt lat="47.16795" lon="-1.6689">
        <ele>82</ele>
        <time>2022-08-20T08:15:54Z</time>
      </trkpt>
      <trkpt lat="47.16783" lon="-1.66901">
        <ele>82</ele>
        <time>2022-08-20T08:15:56Z</time>
      </trkpt>
      <trkpt lat="47.16771" lon="-1.66911">
        <ele>83</ele>
        <time>2022-08-20T08:15:58Z</time>
      </trkpt>
      <trkpt lat="47.16758" lon="-1.66918">
        <ele>84</ele>
        <time>2022-08-20T08:16:00Z</time>
      </trkpt>
      <trkpt lat="47.16744" lon="-1.66923">
        <ele>84</ele>
        <time>2022-08-20T08:16:02Z</time>
      </trkpt>
      <trkpt lat="47.16729" lon="-1.66928">
        <ele>83</ele>
        <time>2022-08-20T08:16:04Z</time>
      </trkpt>
      <trkpt lat="47.16715" lon="-1.66932">
        <ele>83</ele>
        <time>2022-08-20T08:16:06Z</time>
      </trkpt>
      <trkpt lat="47.16703" lon="-1.66936">
        <ele>84</ele>
        <time>2022-08-20T08:16:08Z</time>
      </trkpt>
      <trkpt lat="47.16691" lon="-1.66943">
        <ele>85</ele>
        <time>2022-08-20T08:16:10Z</time>
      </trkpt>
      <trkpt lat="47.16679" lon="-1.66956">
        <ele>85</ele>
        <time>2022-08-20T08:16:12Z</time>
      </trkpt>
      <trkpt lat="47.16669" lon="-1.66972">
        <ele>85</ele>
        <time>2022-08-20T08:16:14Z</time>
      </trkpt>
      <trkpt lat="47.16664" lon="-1.6699">
        <ele>86</ele>
        <time>2022-08-20T08:16:16Z</time>
      </trkpt>
      <trkpt lat="47.16658" lon="-1.6701">
        <ele>85</ele>
        <time>2022-08-20T08:16:18Z</time>
      </trkpt>
      <trkpt lat="47.16653" lon="-1.6703">
        <ele>84</ele>
        <time>2022-08-20T08:16:20Z</time>
      </trkpt>
      <trkpt lat="47.16648" lon="-1.6705">
        <ele>83</ele>
        <time>2022-08-20T08:16:22Z</time>
      </trkpt>
      <trkpt lat="47.16644" lon="-1.6707">
        <ele>82</ele>
        <time>2022-08-20T08:16:24Z</time>
      </trkpt>
      <trkpt lat="47.1664" lon="-1.67089">
        <ele>82</ele>
        <time>2022-08-20T08:16:26Z</time>
      </trkpt>
      <trkpt lat="47.16637" lon="-1.67109">
        <ele>81</ele>
        <time>2022-08-20T08:16:28Z</time>
      </trkpt>
      <trkpt lat="47.16633" lon="-1.67129">
        <ele>80</ele>
        <time>2022-08-20T08:16:30Z</time>
      </trkpt>
      <trkpt lat="47.16629" lon="-1.67148">
        <ele>80</ele>
        <time>2022-08-20T08:16:32Z</time>
      </trkpt>
      <trkpt lat="47.16625" lon="-1.67167">
        <ele>79</ele>
        <time>2022-08-20T08:16:34Z</time>
      </trkpt>
      <trkpt lat="47.16621" lon="-1.67185">
        <ele>79</ele>
        <time>2022-08-20T08:16:36Z</time>
      </trkpt>
      <trkpt lat="47.16618" lon="-1.67203">
        <ele>79</ele>
        <time>2022-08-20T08:16:38Z</time>
      </trkpt>
      <trkpt lat="47.16614" lon="-1.67219">
        <ele>79</ele>
        <time>2022-08-20T08:16:40Z</time>
      </trkpt>
      <trkpt lat="47.16612" lon="-1.67236">
        <ele>79</ele>
        <time>2022-08-20T08:16:42Z</time>
      </trkpt>
      <trkpt lat="47.16609" lon="-1.67251">
        <ele>79</ele>
        <time>2022-08-20T08:16:44Z</time>
      </trkpt>
      <trkpt lat="47.1661" lon="-1.67264">
        <ele>79</ele>
        <time>2022-08-20T08:16:46Z</time>
      </trkpt>
      <trkpt lat="47.16621" lon="-1.67269">
        <ele>79</ele>
        <time>2022-08-20T08:16:48Z</time>
      </trkpt>
      <trkpt lat="47.16633" lon="-1.67272">
        <ele>79</ele>
        <time>2022-08-20T08:16:50Z</time>
      </trkpt>
      <trkpt lat="47.16645" lon="-1.67276">
        <ele>79</ele>
        <time>2022-08-20T08:16:52Z</time>
      </trkpt>
      <trkpt lat="47.16657" lon="-1.6728">
        <ele>79</ele>
        <time>2022-08-20T08:16:54Z</time>
      </trkpt>
      <trkpt lat="47.1667" lon="-1.67284">
        <ele>79</ele>
        <time>2022-08-20T08:16:56Z</time>
      </trkpt>
      <trkpt lat="47.16682" lon="-1.67289">
        <ele>79</ele>
        <time>2022-08-20T08:16:58Z</time>
      </trkpt>
      <trkpt lat="47.16694" lon="-1.67295">
        <ele>80</ele>
        <time>2022-08-20T08:17:00Z</time>
      </trkpt>
      <trkpt lat="47.16707" lon="-1.67302">
        <ele>80</ele>
        <time>2022-08-20T08:17:02Z</time>
      </trkpt>
      <trkpt lat="47.16719" lon="-1.67309">
        <ele>80</ele>
        <time>2022-08-20T08:17:04Z</time>
      </trkpt>
      <trkpt lat="47.16731" lon="-1.67317">
        <ele>80</ele>
        <time>2022-08-20T08:17:06Z</time>
      </trkpt>
      <trkpt lat="47.16742" lon="-1.67326">
        <ele>80</ele>
        <time>2022-08-20T08:17:08Z</time>
      </trkpt>
      <trkpt lat="47.16754" lon="-1.67335">
        <ele>80</ele>
        <time>2022-08-20T08:17:10Z</time>
      </trkpt>
      <trkpt lat="47.16765" lon="-1.67345">
        <ele>80</ele>
        <time>2022-08-20T08:17:12Z</time>
      </trkpt>
      <trkpt lat="47.16776" lon="-1.67356">
        <ele>80</ele>
        <time>2022-08-20T08:17:14Z</time>
      </trkpt>
      <trkpt lat="47.16786" lon="-1.67368">
        <ele>80</ele>
        <time>2022-08-20T08:17:16Z</time>
      </trkpt>
      <trkpt lat="47.16796" lon="-1.67379">
        <ele>80</ele>
        <time>2022-08-20T08:17:18Z</time>
      </trkpt>
      <trkpt lat="47.16807" lon="-1.67389">
        <ele>81</ele>
        <time>2022-08-20T08:17:20Z</time>
      </trkpt>
      <trkpt lat="47.16817" lon="-1.67401">
        <ele>81</ele>
        <time>2022-08-20T08:17:22Z</time>
      </trkpt>
      <trkpt lat="47.16827" lon="-1.67414">
        <ele>82</ele>
        <time>2022-08-20T08:17:24Z</time>
      </trkpt>
      <trkpt lat="47.16837" lon="-1.67427">
        <ele>82</ele>
        <time>2022-08-20T08:17:26Z</time>
      </trkpt>
      <trkpt lat="47.16849" lon="-1.67441">
        <ele>82</ele>
        <time>2022-08-20T08:17:28Z</time>
      </trkpt>
      <trkpt lat="47.16859" lon="-1.67455">
        <ele>81</ele>
        <time>2022-08-20T08:17:30Z</time>
      </trkpt>
      <trkpt lat="47.16871" lon="-1.67468">
        <ele>81</ele>
        <time>2022-08-20T08:17:32Z</time>
      </trkpt>
      <trkpt lat="47.16881" lon="-1.6748">
        <ele>81</ele>
        <time>2022-08-20T08:17:34Z</time>
      </trkpt>
      <trkpt lat="47.16892" lon="-1.67493">
        <ele>82</ele>
        <time>2022-08-20T08:17:36Z</time>
      </trkpt>
      <trkpt lat="47.16903" lon="-1.67505">
        <ele>82</ele>
        <time>2022-08-20T08:17:38Z</time>
      </trkpt>
      <trkpt lat="47.16913" lon="-1.67517">
        <ele>82</ele>
        <time>2022-08-20T08:17:40Z</time>
      </trkpt>
      <trkpt lat="47.16924" lon="-1.6753">
        <ele>82</ele>
        <time>2022-08-20T08:17:42Z</time>
      </trkpt>
      <trkpt lat="47.16935" lon="-1.67542">
        <ele>82</ele>
        <time>2022-08-20T08:17:44Z</time>
      </trkpt>
      <trkpt lat="47.16945" lon="-1.67554">
        <ele>82</ele>
        <time>2022-08-20T08:17:46Z</time>
      </trkpt>
      <trkpt lat="47.16955" lon="-1.67566">
        <ele>82</ele>
        <time>2022-08-20T08:17:48Z</time>
      </trkpt>
      <trkpt lat="47.16965" lon="-1.67578">
        <ele>82</ele>
        <time>2022-08-20T08:17:50Z</time>
      </trkpt>
      <trkpt lat="47.16975" lon="-1.67591">
        <ele>84</ele>
        <time>2022-08-20T08:17:52Z</time>
      </trkpt>
      <trkpt lat="47.16986" lon="-1.67603">
        <ele>84</ele>
        <time>2022-08-20T08:17:54Z</time>
      </trkpt>
      <trkpt lat="47.16997" lon="-1.67615">
        <ele>84</ele>
        <time>2022-08-20T08:17:56Z</time>
      </trkpt>
      <trkpt lat="47.17017" lon="-1.67642">
        <ele>82</ele>
        <time>2022-08-20T08:18:00Z</time>
      </trkpt>
      <trkpt lat="47.17029" lon="-1.67657">
        <ele>88</ele>
        <time>2022-08-20T08:18:02Z</time>
      </trkpt>
      <trkpt lat="47.1704" lon="-1.67664">
        <ele>86</ele>
        <time>2022-08-20T08:18:04Z</time>
      </trkpt>
      <trkpt lat="47.1705" lon="-1.67678">
        <ele>85</ele>
        <time>2022-08-20T08:18:06Z</time>
      </trkpt>
      <trkpt lat="47.17061" lon="-1.6769">
        <ele>83</ele>
        <time>2022-08-20T08:18:08Z</time>
      </trkpt>
      <trkpt lat="47.17072" lon="-1.67702">
        <ele>82</ele>
        <time>2022-08-20T08:18:10Z</time>
      </trkpt>
      <trkpt lat="47.17083" lon="-1.67715">
        <ele>81</ele>
        <time>2022-08-20T08:18:12Z</time>
      </trkpt>
      <trkpt lat="47.17093" lon="-1.67728">
        <ele>81</ele>
        <time>2022-08-20T08:18:14Z</time>
      </trkpt>
      <trkpt lat="47.17104" lon="-1.67739">
        <ele>81</ele>
        <time>2022-08-20T08:18:16Z</time>
      </trkpt>
      <trkpt lat="47.17114" lon="-1.67752">
        <ele>81</ele>
        <time>2022-08-20T08:18:18Z</time>
      </trkpt>
      <trkpt lat="47.17125" lon="-1.67764">
        <ele>82</ele>
        <time>2022-08-20T08:18:20Z</time>
      </trkpt>
      <trkpt lat="47.17135" lon="-1.67777">
        <ele>82</ele>
        <time>2022-08-20T08:18:22Z</time>
      </trkpt>
      <trkpt lat="47.17145" lon="-1.67789">
        <ele>83</ele>
        <time>2022-08-20T08:18:24Z</time>
      </trkpt>
      <trkpt lat="47.17156" lon="-1.67801">
        <ele>83</ele>
        <time>2022-08-20T08:18:26Z</time>
      </trkpt>
      <trkpt lat="47.17166" lon="-1.67814">
        <ele>83</ele>
        <time>2022-08-20T08:18:28Z</time>
      </trkpt>
      <trkpt lat="47.17176" lon="-1.67825">
        <ele>84</ele>
        <time>2022-08-20T08:18:30Z</time>
      </trkpt>
      <trkpt lat="47.17187" lon="-1.67838">
        <ele>83</ele>
        <time>2022-08-20T08:18:32Z</time>
      </trkpt>
      <trkpt lat="47.17198" lon="-1.6785">
        <ele>83</ele>
        <time>2022-08-20T08:18:34Z</time>
      </trkpt>
      <trkpt lat="47.17209" lon="-1.67863">
        <ele>83</ele>
        <time>2022-08-20T08:18:36Z</time>
      </trkpt>
      <trkpt lat="47.17219" lon="-1.67875">
        <ele>83</ele>
        <time>2022-08-20T08:18:38Z</time>
      </trkpt>
      <trkpt lat="47.1723" lon="-1.67887">
        <ele>83</ele>
        <time>2022-08-20T08:18:40Z</time>
      </trkpt>
      <trkpt lat="47.1724" lon="-1.679">
        <ele>83</ele>
        <time>2022-08-20T08:18:42Z</time>
      </trkpt>
      <trkpt lat="47.1725" lon="-1.67912">
        <ele>82</ele>
        <time>2022-08-20T08:18:44Z</time>
      </trkpt>
      <trkpt lat="47.17261" lon="-1.67923">
        <ele>82</ele>
        <time>2022-08-20T08:18:46Z</time>
      </trkpt>
      <trkpt lat="47.17271" lon="-1.67936">
        <ele>82</ele>
        <time>2022-08-20T08:18:48Z</time>
      </trkpt>
      <trkpt lat="47.17281" lon="-1.67948">
        <ele>82</ele>
        <time>2022-08-20T08:18:50Z</time>
      </trkpt>
      <trkpt lat="47.17291" lon="-1.67959">
        <ele>82</ele>
        <time>2022-08-20T08:18:52Z</time>
      </trkpt>
      <trkpt lat="47.173" lon="-1.6797">
        <ele>82</ele>
        <time>2022-08-20T08:18:54Z</time>
      </trkpt>
      <trkpt lat="47.17309" lon="-1.67982">
        <ele>82</ele>
        <time>2022-08-20T08:18:56Z</time>
      </trkpt>
      <trkpt lat="47.17319" lon="-1.67997">
        <ele>82</ele>
        <time>2022-08-20T08:18:58Z</time>
      </trkpt>
      <trkpt lat="47.17327" lon="-1.68012">
        <ele>83</ele>
        <time>2022-08-20T08:19:00Z</time>
      </trkpt>
      <trkpt lat="47.17333" lon="-1.68029">
        <ele>83</ele>
        <time>2022-08-20T08:19:02Z</time>
      </trkpt>
      <trkpt lat="47.17338" lon="-1.68047">
        <ele>82</ele>
        <time>2022-08-20T08:19:04Z</time>
      </trkpt>
      <trkpt lat="47.17343" lon="-1.68066">
        <ele>82</ele>
        <time>2022-08-20T08:19:06Z</time>
      </trkpt>
      <trkpt lat="47.17347" lon="-1.68085">
        <ele>82</ele>
        <time>2022-08-20T08:19:08Z</time>
      </trkpt>
      <trkpt lat="47.17351" lon="-1.68105">
        <ele>81</ele>
        <time>2022-08-20T08:19:10Z</time>
      </trkpt>
      <trkpt lat="47.17354" lon="-1.68124">
        <ele>81</ele>
        <time>2022-08-20T08:19:12Z</time>
      </trkpt>
      <trkpt lat="47.17356" lon="-1.68144">
        <ele>81</ele>
        <time>2022-08-20T08:19:14Z</time>
      </trkpt>
      <trkpt lat="47.17357" lon="-1.68164">
        <ele>81</ele>
        <time>2022-08-20T08:19:16Z</time>
      </trkpt>
      <trkpt lat="47.17356" lon="-1.68183">
        <ele>80</ele>
        <time>2022-08-20T08:19:18Z</time>
      </trkpt>
      <trkpt lat="47.17354" lon="-1.68203">
        <ele>81</ele>
        <time>2022-08-20T08:19:20Z</time>
      </trkpt>
      <trkpt lat="47.17351" lon="-1.68221">
        <ele>81</ele>
        <time>2022-08-20T08:19:22Z</time>
      </trkpt>
      <trkpt lat="47.17348" lon="-1.68239">
        <ele>81</ele>
        <time>2022-08-20T08:19:24Z</time>
      </trkpt>
      <trkpt lat="47.17344" lon="-1.68256">
        <ele>81</ele>
        <time>2022-08-20T08:19:26Z</time>
      </trkpt>
      <trkpt lat="47.1734" lon="-1.68273">
        <ele>82</ele>
        <time>2022-08-20T08:19:28Z</time>
      </trkpt>
      <trkpt lat="47.17337" lon="-1.68289">
        <ele>82</ele>
        <time>2022-08-20T08:19:30Z</time>
      </trkpt>
      <trkpt lat="47.17334" lon="-1.68304">
        <ele>82</ele>
        <time>2022-08-20T08:19:32Z</time>
      </trkpt>
      <trkpt lat="47.1733" lon="-1.6832">
        <ele>83</ele>
        <time>2022-08-20T08:19:34Z</time>
      </trkpt>
      <trkpt lat="47.17327" lon="-1.68335">
        <ele>83</ele>
        <time>2022-08-20T08:19:36Z</time>
      </trkpt>
      <trkpt lat="47.17324" lon="-1.6835">
        <ele>84</ele>
        <time>2022-08-20T08:19:38Z</time>
      </trkpt>
      <trkpt lat="47.17327" lon="-1.68363">
        <ele>84</ele>
        <time>2022-08-20T08:19:40Z</time>
      </trkpt>
      <trkpt lat="47.17333" lon="-1.68375">
        <ele>85</ele>
        <time>2022-08-20T08:19:42Z</time>
      </trkpt>
      <trkpt lat="47.17343" lon="-1.68381">
        <ele>85</ele>
        <time>2022-08-20T08:19:44Z</time>
      </trkpt>
      <trkpt lat="47.17354" lon="-1.6838">
        <ele>85</ele>
        <time>2022-08-20T08:19:46Z</time>
      </trkpt>
      <trkpt lat="47.17366" lon="-1.6838">
        <ele>86</ele>
        <time>2022-08-20T08:19:48Z</time>
      </trkpt>
      <trkpt lat="47.17377" lon="-1.68391">
        <ele>86</ele>
        <time>2022-08-20T08:19:50Z</time>
      </trkpt>
      <trkpt lat="47.17376" lon="-1.68409">
        <ele>87</ele>
        <time>2022-08-20T08:19:52Z</time>
      </trkpt>
      <trkpt lat="47.17366" lon="-1.68424">
        <ele>87</ele>
        <time>2022-08-20T08:19:54Z</time>
      </trkpt>
      <trkpt lat="47.17357" lon="-1.68436">
        <ele>87</ele>
        <time>2022-08-20T08:19:56Z</time>
      </trkpt>
      <trkpt lat="47.17357" lon="-1.68454">
        <ele>88</ele>
        <time>2022-08-20T08:19:58Z</time>
      </trkpt>
      <trkpt lat="47.17363" lon="-1.68469">
        <ele>87</ele>
        <time>2022-08-20T08:20:00Z</time>
      </trkpt>
      <trkpt lat="47.17373" lon="-1.68483">
        <ele>86</ele>
        <time>2022-08-20T08:20:02Z</time>
      </trkpt>
      <trkpt lat="47.17383" lon="-1.68498">
        <ele>86</ele>
        <time>2022-08-20T08:20:04Z</time>
      </trkpt>
      <trkpt lat="47.17394" lon="-1.68515">
        <ele>85</ele>
        <time>2022-08-20T08:20:06Z</time>
      </trkpt>
      <trkpt lat="47.17404" lon="-1.68532">
        <ele>84</ele>
        <time>2022-08-20T08:20:08Z</time>
      </trkpt>
      <trkpt lat="47.17413" lon="-1.68549">
        <ele>84</ele>
        <time>2022-08-20T08:20:10Z</time>
      </trkpt>
      <trkpt lat="47.17423" lon="-1.68567">
        <ele>84</ele>
        <time>2022-08-20T08:20:12Z</time>
      </trkpt>
      <trkpt lat="47.17433" lon="-1.68585">
        <ele>83</ele>
        <time>2022-08-20T08:20:14Z</time>
      </trkpt>
      <trkpt lat="47.17441" lon="-1.68605">
        <ele>83</ele>
        <time>2022-08-20T08:20:16Z</time>
      </trkpt>
      <trkpt lat="47.17448" lon="-1.68625">
        <ele>82</ele>
        <time>2022-08-20T08:20:18Z</time>
      </trkpt>
      <trkpt lat="47.17455" lon="-1.68644">
        <ele>82</ele>
        <time>2022-08-20T08:20:20Z</time>
      </trkpt>
      <trkpt lat="47.17461" lon="-1.68663">
        <ele>81</ele>
        <time>2022-08-20T08:20:22Z</time>
      </trkpt>
      <trkpt lat="47.17467" lon="-1.68683">
        <ele>81</ele>
        <time>2022-08-20T08:20:24Z</time>
      </trkpt>
      <trkpt lat="47.17472" lon="-1.68703">
        <ele>81</ele>
        <time>2022-08-20T08:20:26Z</time>
      </trkpt>
      <trkpt lat="47.17477" lon="-1.68723">
        <ele>80</ele>
        <time>2022-08-20T08:20:28Z</time>
      </trkpt>
      <trkpt lat="47.17481" lon="-1.68743">
        <ele>80</ele>
        <time>2022-08-20T08:20:30Z</time>
      </trkpt>
      <trkpt lat="47.17486" lon="-1.68763">
        <ele>81</ele>
        <time>2022-08-20T08:20:32Z</time>
      </trkpt>
      <trkpt lat="47.1749" lon="-1.68782">
        <ele>81</ele>
        <time>2022-08-20T08:20:34Z</time>
      </trkpt>
      <trkpt lat="47.17494" lon="-1.68802">
        <ele>81</ele>
        <time>2022-08-20T08:20:36Z</time>
      </trkpt>
      <trkpt lat="47.17498" lon="-1.68822">
        <ele>81</ele>
        <time>2022-08-20T08:20:38Z</time>
      </trkpt>
      <trkpt lat="47.17503" lon="-1.68843">
        <ele>81</ele>
        <time>2022-08-20T08:20:40Z</time>
      </trkpt>
      <trkpt lat="47.17505" lon="-1.68864">
        <ele>81</ele>
        <time>2022-08-20T08:20:42Z</time>
      </trkpt>
      <trkpt lat="47.17506" lon="-1.68885">
        <ele>81</ele>
        <time>2022-08-20T08:20:44Z</time>
      </trkpt>
      <trkpt lat="47.17504" lon="-1.68907">
        <ele>81</ele>
        <time>2022-08-20T08:20:46Z</time>
      </trkpt>
      <trkpt lat="47.17502" lon="-1.68929">
        <ele>80</ele>
        <time>2022-08-20T08:20:48Z</time>
      </trkpt>
      <trkpt lat="47.175" lon="-1.6895">
        <ele>80</ele>
        <time>2022-08-20T08:20:50Z</time>
      </trkpt>
      <trkpt lat="47.175" lon="-1.68972">
        <ele>79</ele>
        <time>2022-08-20T08:20:52Z</time>
      </trkpt>
      <trkpt lat="47.17501" lon="-1.68993">
        <ele>79</ele>
        <time>2022-08-20T08:20:54Z</time>
      </trkpt>
      <trkpt lat="47.17502" lon="-1.69014">
        <ele>79</ele>
        <time>2022-08-20T08:20:56Z</time>
      </trkpt>
      <trkpt lat="47.17503" lon="-1.69035">
        <ele>79</ele>
        <time>2022-08-20T08:20:58Z</time>
      </trkpt>
      <trkpt lat="47.17504" lon="-1.69055">
        <ele>78</ele>
        <time>2022-08-20T08:21:00Z</time>
      </trkpt>
      <trkpt lat="47.17504" lon="-1.69076">
        <ele>78</ele>
        <time>2022-08-20T08:21:02Z</time>
      </trkpt>
      <trkpt lat="47.17504" lon="-1.69096">
        <ele>78</ele>
        <time>2022-08-20T08:21:04Z</time>
      </trkpt>
      <trkpt lat="47.17504" lon="-1.69117">
        <ele>78</ele>
        <time>2022-08-20T08:21:06Z</time>
      </trkpt>
      <trkpt lat="47.17503" lon="-1.69138">
        <ele>78</ele>
        <time>2022-08-20T08:21:08Z</time>
      </trkpt>
      <trkpt lat="47.17502" lon="-1.69158">
        <ele>78</ele>
        <time>2022-08-20T08:21:10Z</time>
      </trkpt>
      <trkpt lat="47.17502" lon="-1.69178">
        <ele>78</ele>
        <time>2022-08-20T08:21:12Z</time>
      </trkpt>
      <trkpt lat="47.175" lon="-1.69199">
        <ele>78</ele>
        <time>2022-08-20T08:21:14Z</time>
      </trkpt>
      <trkpt lat="47.17499" lon="-1.6922">
        <ele>77</ele>
        <time>2022-08-20T08:21:16Z</time>
      </trkpt>
      <trkpt lat="47.17497" lon="-1.6924">
        <ele>77</ele>
        <time>2022-08-20T08:21:18Z</time>
      </trkpt>
      <trkpt lat="47.17496" lon="-1.6926">
        <ele>77</ele>
        <time>2022-08-20T08:21:20Z</time>
      </trkpt>
      <trkpt lat="47.17496" lon="-1.69281">
        <ele>77</ele>
        <time>2022-08-20T08:21:22Z</time>
      </trkpt>
      <trkpt lat="47.17495" lon="-1.69301">
        <ele>76</ele>
        <time>2022-08-20T08:21:24Z</time>
      </trkpt>
      <trkpt lat="47.17494" lon="-1.69321">
        <ele>76</ele>
        <time>2022-08-20T08:21:26Z</time>
      </trkpt>
      <trkpt lat="47.17494" lon="-1.69341">
        <ele>76</ele>
        <time>2022-08-20T08:21:28Z</time>
      </trkpt>
      <trkpt lat="47.17494" lon="-1.69361">
        <ele>76</ele>
        <time>2022-08-20T08:21:30Z</time>
      </trkpt>
      <trkpt lat="47.17493" lon="-1.69382">
        <ele>76</ele>
        <time>2022-08-20T08:21:32Z</time>
      </trkpt>
      <trkpt lat="47.17493" lon="-1.69402">
        <ele>76</ele>
        <time>2022-08-20T08:21:34Z</time>
      </trkpt>
      <trkpt lat="47.17493" lon="-1.69423">
        <ele>76</ele>
        <time>2022-08-20T08:21:36Z</time>
      </trkpt>
      <trkpt lat="47.17493" lon="-1.69443">
        <ele>76</ele>
        <time>2022-08-20T08:21:38Z</time>
      </trkpt>
      <trkpt lat="47.17494" lon="-1.69464">
        <ele>75</ele>
        <time>2022-08-20T08:21:40Z</time>
      </trkpt>
      <trkpt lat="47.17495" lon="-1.69484">
        <ele>75</ele>
        <time>2022-08-20T08:21:42Z</time>
      </trkpt>
      <trkpt lat="47.17496" lon="-1.69505">
        <ele>75</ele>
        <time>2022-08-20T08:21:44Z</time>
      </trkpt>
      <trkpt lat="47.17497" lon="-1.69525">
        <ele>75</ele>
        <time>2022-08-20T08:21:46Z</time>
      </trkpt>
      <trkpt lat="47.17497" lon="-1.69546">
        <ele>75</ele>
        <time>2022-08-20T08:21:48Z</time>
      </trkpt>
      <trkpt lat="47.17499" lon="-1.69566">
        <ele>75</ele>
        <time>2022-08-20T08:21:50Z</time>
      </trkpt>
      <trkpt lat="47.175" lon="-1.69586">
        <ele>75</ele>
        <time>2022-08-20T08:21:52Z</time>
      </trkpt>
      <trkpt lat="47.17502" lon="-1.69607">
        <ele>75</ele>
        <time>2022-08-20T08:21:54Z</time>
      </trkpt>
      <trkpt lat="47.17503" lon="-1.69628">
        <ele>75</ele>
        <time>2022-08-20T08:21:56Z</time>
      </trkpt>
      <trkpt lat="47.17505" lon="-1.69649">
        <ele>75</ele>
        <time>2022-08-20T08:21:58Z</time>
      </trkpt>
      <trkpt lat="47.17507" lon="-1.6967">
        <ele>75</ele>
        <time>2022-08-20T08:22:00Z</time>
      </trkpt>
      <trkpt lat="47.17509" lon="-1.69691">
        <ele>75</ele>
        <time>2022-08-20T08:22:02Z</time>
      </trkpt>
      <trkpt lat="47.1751" lon="-1.69711">
        <ele>75</ele>
        <time>2022-08-20T08:22:04Z</time>
      </trkpt>
      <trkpt lat="47.17512" lon="-1.69732">
        <ele>75</ele>
        <time>2022-08-20T08:22:06Z</time>
      </trkpt>
      <trkpt lat="47.17514" lon="-1.69753">
        <ele>75</ele>
        <time>2022-08-20T08:22:08Z</time>
      </trkpt>
      <trkpt lat="47.17516" lon="-1.69774">
        <ele>75</ele>
        <time>2022-08-20T08:22:10Z</time>
      </trkpt>
      <trkpt lat="47.17518" lon="-1.69794">
        <ele>75</ele>
        <time>2022-08-20T08:22:12Z</time>
      </trkpt>
      <trkpt lat="47.1752" lon="-1.69814">
        <ele>75</ele>
        <time>2022-08-20T08:22:14Z</time>
      </trkpt>
      <trkpt lat="47.17522" lon="-1.69835">
        <ele>75</ele>
        <time>2022-08-20T08:22:16Z</time>
      </trkpt>
      <trkpt lat="47.17525" lon="-1.69856">
        <ele>75</ele>
        <time>2022-08-20T08:22:18Z</time>
      </trkpt>
      <trkpt lat="47.17528" lon="-1.69876">
        <ele>76</ele>
        <time>2022-08-20T08:22:20Z</time>
      </trkpt>
      <trkpt lat="47.17531" lon="-1.69896">
        <ele>76</ele>
        <time>2022-08-20T08:22:22Z</time>
      </trkpt>
      <trkpt lat="47.17535" lon="-1.69917">
        <ele>76</ele>
        <time>2022-08-20T08:22:24Z</time>
      </trkpt>
      <trkpt lat="47.17539" lon="-1.69937">
        <ele>76</ele>
        <time>2022-08-20T08:22:26Z</time>
      </trkpt>
      <trkpt lat="47.17543" lon="-1.69958">
        <ele>76</ele>
        <time>2022-08-20T08:22:28Z</time>
      </trkpt>
      <trkpt lat="47.17547" lon="-1.69978">
        <ele>76</ele>
        <time>2022-08-20T08:22:30Z</time>
      </trkpt>
      <trkpt lat="47.17551" lon="-1.69998">
        <ele>76</ele>
        <time>2022-08-20T08:22:32Z</time>
      </trkpt>
      <trkpt lat="47.17556" lon="-1.70018">
        <ele>76</ele>
        <time>2022-08-20T08:22:34Z</time>
      </trkpt>
      <trkpt lat="47.1756" lon="-1.70039">
        <ele>76</ele>
        <time>2022-08-20T08:22:36Z</time>
      </trkpt>
      <trkpt lat="47.17564" lon="-1.70059">
        <ele>76</ele>
        <time>2022-08-20T08:22:38Z</time>
      </trkpt>
      <trkpt lat="47.17569" lon="-1.70079">
        <ele>76</ele>
        <time>2022-08-20T08:22:40Z</time>
      </trkpt>
      <trkpt lat="47.17573" lon="-1.701">
        <ele>76</ele>
        <time>2022-08-20T08:22:42Z</time>
      </trkpt>
      <trkpt lat="47.17577" lon="-1.7012">
        <ele>76</ele>
        <time>2022-08-20T08:22:44Z</time>
      </trkpt>
      <trkpt lat="47.17581" lon="-1.70141">
        <ele>76</ele>
        <time>2022-08-20T08:22:46Z</time>
      </trkpt>
      <trkpt lat="47.17584" lon="-1.70161">
        <ele>76</ele>
        <time>2022-08-20T08:22:48Z</time>
      </trkpt>
      <trkpt lat="47.17588" lon="-1.70181">
        <ele>76</ele>
        <time>2022-08-20T08:22:50Z</time>
      </trkpt>
      <trkpt lat="47.17592" lon="-1.70201">
        <ele>77</ele>
        <time>2022-08-20T08:22:52Z</time>
      </trkpt>
      <trkpt lat="47.17594" lon="-1.70222">
        <ele>76</ele>
        <time>2022-08-20T08:22:54Z</time>
      </trkpt>
      <trkpt lat="47.17595" lon="-1.70243">
        <ele>76</ele>
        <time>2022-08-20T08:22:56Z</time>
      </trkpt>
      <trkpt lat="47.17593" lon="-1.70264">
        <ele>76</ele>
        <time>2022-08-20T08:22:58Z</time>
      </trkpt>
      <trkpt lat="47.17591" lon="-1.70285">
        <ele>76</ele>
        <time>2022-08-20T08:23:00Z</time>
      </trkpt>
      <trkpt lat="47.17585" lon="-1.70304">
        <ele>76</ele>
        <time>2022-08-20T08:23:02Z</time>
      </trkpt>
      <trkpt lat="47.17578" lon="-1.70322">
        <ele>76</ele>
        <time>2022-08-20T08:23:04Z</time>
      </trkpt>
      <trkpt lat="47.17571" lon="-1.7034">
        <ele>77</ele>
        <time>2022-08-20T08:23:06Z</time>
      </trkpt>
      <trkpt lat="47.17566" lon="-1.70358">
        <ele>78</ele>
        <time>2022-08-20T08:23:08Z</time>
      </trkpt>
      <trkpt lat="47.17569" lon="-1.70375">
        <ele>78</ele>
        <time>2022-08-20T08:23:10Z</time>
      </trkpt>
      <trkpt lat="47.17579" lon="-1.70386">
        <ele>78</ele>
        <time>2022-08-20T08:23:12Z</time>
      </trkpt>
      <trkpt lat="47.17593" lon="-1.70387">
        <ele>79</ele>
        <time>2022-08-20T08:23:14Z</time>
      </trkpt>
      <trkpt lat="47.17606" lon="-1.70391">
        <ele>80</ele>
        <time>2022-08-20T08:23:16Z</time>
      </trkpt>
      <trkpt lat="47.17614" lon="-1.70407">
        <ele>80</ele>
        <time>2022-08-20T08:23:18Z</time>
      </trkpt>
      <trkpt lat="47.17614" lon="-1.70426">
        <ele>79</ele>
        <time>2022-08-20T08:23:20Z</time>
      </trkpt>
      <trkpt lat="47.1761" lon="-1.70445">
        <ele>79</ele>
        <time>2022-08-20T08:23:22Z</time>
      </trkpt>
      <trkpt lat="47.17608" lon="-1.70464">
        <ele>79</ele>
        <time>2022-08-20T08:23:24Z</time>
      </trkpt>
      <trkpt lat="47.17615" lon="-1.70483">
        <ele>79</ele>
        <time>2022-08-20T08:23:26Z</time>
      </trkpt>
      <trkpt lat="47.17625" lon="-1.705">
        <ele>78</ele>
        <time>2022-08-20T08:23:28Z</time>
      </trkpt>
      <trkpt lat="47.17638" lon="-1.70514">
        <ele>77</ele>
        <time>2022-08-20T08:23:30Z</time>
      </trkpt>
      <trkpt lat="47.17651" lon="-1.70527">
        <ele>77</ele>
        <time>2022-08-20T08:23:32Z</time>
      </trkpt>
      <trkpt lat="47.17665" lon="-1.70539">
        <ele>77</ele>
        <time>2022-08-20T08:23:34Z</time>
      </trkpt>
      <trkpt lat="47.17678" lon="-1.70552">
        <ele>77</ele>
        <time>2022-08-20T08:23:36Z</time>
      </trkpt>
      <trkpt lat="47.17691" lon="-1.70564">
        <ele>76</ele>
        <time>2022-08-20T08:23:38Z</time>
      </trkpt>
      <trkpt lat="47.17703" lon="-1.70576">
        <ele>76</ele>
        <time>2022-08-20T08:23:40Z</time>
      </trkpt>
      <trkpt lat="47.17714" lon="-1.70591">
        <ele>76</ele>
        <time>2022-08-20T08:23:42Z</time>
      </trkpt>
      <trkpt lat="47.17724" lon="-1.70608">
        <ele>76</ele>
        <time>2022-08-20T08:23:44Z</time>
      </trkpt>
      <trkpt lat="47.17732" lon="-1.70627">
        <ele>76</ele>
        <time>2022-08-20T08:23:46Z</time>
      </trkpt>
      <trkpt lat="47.17739" lon="-1.70646">
        <ele>76</ele>
        <time>2022-08-20T08:23:48Z</time>
      </trkpt>
      <trkpt lat="47.17746" lon="-1.70665">
        <ele>76</ele>
        <time>2022-08-20T08:23:50Z</time>
      </trkpt>
      <trkpt lat="47.17753" lon="-1.70684">
        <ele>76</ele>
        <time>2022-08-20T08:23:52Z</time>
      </trkpt>
      <trkpt lat="47.17759" lon="-1.70702">
        <ele>75</ele>
        <time>2022-08-20T08:23:54Z</time>
      </trkpt>
      <trkpt lat="47.17765" lon="-1.7072">
        <ele>75</ele>
        <time>2022-08-20T08:23:56Z</time>
      </trkpt>
      <trkpt lat="47.17771" lon="-1.70738">
        <ele>76</ele>
        <time>2022-08-20T08:23:58Z</time>
      </trkpt>
      <trkpt lat="47.17781" lon="-1.70765">
        <ele>76</ele>
        <time>2022-08-20T08:24:01Z</time>
      </trkpt>
      <trkpt lat="47.17786" lon="-1.70783">
        <ele>76</ele>
        <time>2022-08-20T08:24:03Z</time>
      </trkpt>
      <trkpt lat="47.17792" lon="-1.70801">
        <ele>76</ele>
        <time>2022-08-20T08:24:05Z</time>
      </trkpt>
      <trkpt lat="47.17799" lon="-1.70819">
        <ele>76</ele>
        <time>2022-08-20T08:24:07Z</time>
      </trkpt>
      <trkpt lat="47.17808" lon="-1.70846">
        <ele>76</ele>
        <time>2022-08-20T08:24:10Z</time>
      </trkpt>
      <trkpt lat="47.17814" lon="-1.70864">
        <ele>76</ele>
        <time>2022-08-20T08:24:12Z</time>
      </trkpt>
      <trkpt lat="47.1782" lon="-1.70882">
        <ele>76</ele>
        <time>2022-08-20T08:24:14Z</time>
      </trkpt>
      <trkpt lat="47.17826" lon="-1.709">
        <ele>75</ele>
        <time>2022-08-20T08:24:16Z</time>
      </trkpt>
      <trkpt lat="47.17831" lon="-1.70917">
        <ele>75</ele>
        <time>2022-08-20T08:24:18Z</time>
      </trkpt>
      <trkpt lat="47.17837" lon="-1.70934">
        <ele>75</ele>
        <time>2022-08-20T08:24:20Z</time>
      </trkpt>
      <trkpt lat="47.17843" lon="-1.70951">
        <ele>75</ele>
        <time>2022-08-20T08:24:22Z</time>
      </trkpt>
      <trkpt lat="47.17849" lon="-1.70967">
        <ele>75</ele>
        <time>2022-08-20T08:24:24Z</time>
      </trkpt>
      <trkpt lat="47.17857" lon="-1.70982">
        <ele>75</ele>
        <time>2022-08-20T08:24:26Z</time>
      </trkpt>
      <trkpt lat="47.17866" lon="-1.70996">
        <ele>75</ele>
        <time>2022-08-20T08:24:28Z</time>
      </trkpt>
      <trkpt lat="47.17874" lon="-1.71011">
        <ele>75</ele>
        <time>2022-08-20T08:24:30Z</time>
      </trkpt>
      <trkpt lat="47.1788" lon="-1.71029">
        <ele>76</ele>
        <time>2022-08-20T08:24:32Z</time>
      </trkpt>
      <trkpt lat="47.17885" lon="-1.71047">
        <ele>76</ele>
        <time>2022-08-20T08:24:34Z</time>
      </trkpt>
      <trkpt lat="47.17891" lon="-1.71064">
        <ele>76</ele>
        <time>2022-08-20T08:24:36Z</time>
      </trkpt>
      <trkpt lat="47.17896" lon="-1.71082">
        <ele>75</ele>
        <time>2022-08-20T08:24:38Z</time>
      </trkpt>
      <trkpt lat="47.17902" lon="-1.71099">
        <ele>75</ele>
        <time>2022-08-20T08:24:40Z</time>
      </trkpt>
      <trkpt lat="47.17907" lon="-1.71117">
        <ele>76</ele>
        <time>2022-08-20T08:24:42Z</time>
      </trkpt>
      <trkpt lat="47.17912" lon="-1.71135">
        <ele>76</ele>
        <time>2022-08-20T08:24:44Z</time>
      </trkpt>
      <trkpt lat="47.17917" lon="-1.71154">
        <ele>76</ele>
        <time>2022-08-20T08:24:46Z</time>
      </trkpt>
      <trkpt lat="47.1792" lon="-1.71173">
        <ele>76</ele>
        <time>2022-08-20T08:24:48Z</time>
      </trkpt>
      <trkpt lat="47.17923" lon="-1.71192">
        <ele>76</ele>
        <time>2022-08-20T08:24:50Z</time>
      </trkpt>
      <trkpt lat="47.17927" lon="-1.71211">
        <ele>76</ele>
        <time>2022-08-20T08:24:52Z</time>
      </trkpt>
      <trkpt lat="47.17933" lon="-1.7123">
        <ele>76</ele>
        <time>2022-08-20T08:24:54Z</time>
      </trkpt>
      <trkpt lat="47.17938" lon="-1.71248">
        <ele>76</ele>
        <time>2022-08-20T08:24:56Z</time>
      </trkpt>
      <trkpt lat="47.17944" lon="-1.71266">
        <ele>76</ele>
        <time>2022-08-20T08:24:58Z</time>
      </trkpt>
      <trkpt lat="47.1795" lon="-1.71284">
        <ele>76</ele>
        <time>2022-08-20T08:25:00Z</time>
      </trkpt>
      <trkpt lat="47.17955" lon="-1.71302">
        <ele>76</ele>
        <time>2022-08-20T08:25:02Z</time>
      </trkpt>
      <trkpt lat="47.17961" lon="-1.7132">
        <ele>76</ele>
        <time>2022-08-20T08:25:04Z</time>
      </trkpt>
      <trkpt lat="47.17967" lon="-1.71338">
        <ele>76</ele>
        <time>2022-08-20T08:25:06Z</time>
      </trkpt>
      <trkpt lat="47.17973" lon="-1.71357">
        <ele>76</ele>
        <time>2022-08-20T08:25:08Z</time>
      </trkpt>
      <trkpt lat="47.17979" lon="-1.71374">
        <ele>76</ele>
        <time>2022-08-20T08:25:10Z</time>
      </trkpt>
      <trkpt lat="47.17984" lon="-1.71392">
        <ele>76</ele>
        <time>2022-08-20T08:25:12Z</time>
      </trkpt>
      <trkpt lat="47.1799" lon="-1.7141">
        <ele>76</ele>
        <time>2022-08-20T08:25:14Z</time>
      </trkpt>
      <trkpt lat="47.17996" lon="-1.71428">
        <ele>76</ele>
        <time>2022-08-20T08:25:16Z</time>
      </trkpt>
      <trkpt lat="47.18002" lon="-1.71446">
        <ele>76</ele>
        <time>2022-08-20T08:25:18Z</time>
      </trkpt>
      <trkpt lat="47.18008" lon="-1.71464">
        <ele>76</ele>
        <time>2022-08-20T08:25:20Z</time>
      </trkpt>
      <trkpt lat="47.18014" lon="-1.71482">
        <ele>76</ele>
        <time>2022-08-20T08:25:22Z</time>
      </trkpt>
      <trkpt lat="47.1802" lon="-1.715">
        <ele>76</ele>
        <time>2022-08-20T08:25:24Z</time>
      </trkpt>
      <trkpt lat="47.18026" lon="-1.71518">
        <ele>76</ele>
        <time>2022-08-20T08:25:26Z</time>
      </trkpt>
      <trkpt lat="47.18031" lon="-1.71537">
        <ele>76</ele>
        <time>2022-08-20T08:25:28Z</time>
      </trkpt>
      <trkpt lat="47.18037" lon="-1.71555">
        <ele>75</ele>
        <time>2022-08-20T08:25:30Z</time>
      </trkpt>
      <trkpt lat="47.18043" lon="-1.71573">
        <ele>75</ele>
        <time>2022-08-20T08:25:32Z</time>
      </trkpt>
      <trkpt lat="47.18049" lon="-1.71591">
        <ele>76</ele>
        <time>2022-08-20T08:25:34Z</time>
      </trkpt>
      <trkpt lat="47.18055" lon="-1.7161">
        <ele>76</ele>
        <time>2022-08-20T08:25:36Z</time>
      </trkpt>
      <trkpt lat="47.18061" lon="-1.71628">
        <ele>76</ele>
        <time>2022-08-20T08:25:38Z</time>
      </trkpt>
      <trkpt lat="47.18067" lon="-1.71647">
        <ele>76</ele>
        <time>2022-08-20T08:25:40Z</time>
      </trkpt>
      <trkpt lat="47.18073" lon="-1.71666">
        <ele>76</ele>
        <time>2022-08-20T08:25:42Z</time>
      </trkpt>
      <trkpt lat="47.1808" lon="-1.71685">
        <ele>76</ele>
        <time>2022-08-20T08:25:44Z</time>
      </trkpt>
      <trkpt lat="47.18086" lon="-1.71704">
        <ele>75</ele>
        <time>2022-08-20T08:25:46Z</time>
      </trkpt>
      <trkpt lat="47.18093" lon="-1.71723">
        <ele>75</ele>
        <time>2022-08-20T08:25:48Z</time>
      </trkpt>
      <trkpt lat="47.181" lon="-1.71742">
        <ele>74</ele>
        <time>2022-08-20T08:25:50Z</time>
      </trkpt>
      <trkpt lat="47.18107" lon="-1.7176">
        <ele>74</ele>
        <time>2022-08-20T08:25:52Z</time>
      </trkpt>
      <trkpt lat="47.18114" lon="-1.71778">
        <ele>75</ele>
        <time>2022-08-20T08:25:54Z</time>
      </trkpt>
      <trkpt lat="47.1812" lon="-1.71796">
        <ele>75</ele>
        <time>2022-08-20T08:25:56Z</time>
      </trkpt>
      <trkpt lat="47.18127" lon="-1.71814">
        <ele>75</ele>
        <time>2022-08-20T08:25:58Z</time>
      </trkpt>
      <trkpt lat="47.18133" lon="-1.71832">
        <ele>75</ele>
        <time>2022-08-20T08:26:00Z</time>
      </trkpt>
      <trkpt lat="47.1814" lon="-1.71851">
        <ele>75</ele>
        <time>2022-08-20T08:26:02Z</time>
      </trkpt>
      <trkpt lat="47.18146" lon="-1.7187">
        <ele>75</ele>
        <time>2022-08-20T08:26:04Z</time>
      </trkpt>
      <trkpt lat="47.18152" lon="-1.71889">
        <ele>74</ele>
        <time>2022-08-20T08:26:06Z</time>
      </trkpt>
      <trkpt lat="47.18157" lon="-1.71908">
        <ele>74</ele>
        <time>2022-08-20T08:26:08Z</time>
      </trkpt>
      <trkpt lat="47.18163" lon="-1.71926">
        <ele>75</ele>
        <time>2022-08-20T08:26:10Z</time>
      </trkpt>
      <trkpt lat="47.18169" lon="-1.71945">
        <ele>75</ele>
        <time>2022-08-20T08:26:12Z</time>
      </trkpt>
      <trkpt lat="47.18175" lon="-1.71963">
        <ele>75</ele>
        <time>2022-08-20T08:26:14Z</time>
      </trkpt>
      <trkpt lat="47.18181" lon="-1.71983">
        <ele>74</ele>
        <time>2022-08-20T08:26:16Z</time>
      </trkpt>
      <trkpt lat="47.18187" lon="-1.72001">
        <ele>74</ele>
        <time>2022-08-20T08:26:18Z</time>
      </trkpt>
      <trkpt lat="47.18192" lon="-1.72019">
        <ele>74</ele>
        <time>2022-08-20T08:26:20Z</time>
      </trkpt>
      <trkpt lat="47.18198" lon="-1.72037">
        <ele>74</ele>
        <time>2022-08-20T08:26:22Z</time>
      </trkpt>
      <trkpt lat="47.18204" lon="-1.72055">
        <ele>74</ele>
        <time>2022-08-20T08:26:24Z</time>
      </trkpt>
      <trkpt lat="47.1821" lon="-1.72073">
        <ele>75</ele>
        <time>2022-08-20T08:26:26Z</time>
      </trkpt>
      <trkpt lat="47.18216" lon="-1.72091">
        <ele>75</ele>
        <time>2022-08-20T08:26:28Z</time>
      </trkpt>
      <trkpt lat="47.18222" lon="-1.72109">
        <ele>75</ele>
        <time>2022-08-20T08:26:30Z</time>
      </trkpt>
      <trkpt lat="47.18228" lon="-1.72127">
        <ele>75</ele>
        <time>2022-08-20T08:26:32Z</time>
      </trkpt>
      <trkpt lat="47.18234" lon="-1.72146">
        <ele>75</ele>
        <time>2022-08-20T08:26:34Z</time>
      </trkpt>
      <trkpt lat="47.1824" lon="-1.72164">
        <ele>75</ele>
        <time>2022-08-20T08:26:36Z</time>
      </trkpt>
      <trkpt lat="47.18246" lon="-1.72183">
        <ele>75</ele>
        <time>2022-08-20T08:26:38Z</time>
      </trkpt>
      <trkpt lat="47.18251" lon="-1.72202">
        <ele>75</ele>
        <time>2022-08-20T08:26:40Z</time>
      </trkpt>
      <trkpt lat="47.18255" lon="-1.72222">
        <ele>76</ele>
        <time>2022-08-20T08:26:42Z</time>
      </trkpt>
      <trkpt lat="47.18258" lon="-1.72242">
        <ele>76</ele>
        <time>2022-08-20T08:26:44Z</time>
      </trkpt>
      <trkpt lat="47.1826" lon="-1.72263">
        <ele>76</ele>
        <time>2022-08-20T08:26:46Z</time>
      </trkpt>
      <trkpt lat="47.18262" lon="-1.72284">
        <ele>75</ele>
        <time>2022-08-20T08:26:48Z</time>
      </trkpt>
      <trkpt lat="47.18264" lon="-1.72305">
        <ele>75</ele>
        <time>2022-08-20T08:26:50Z</time>
      </trkpt>
      <trkpt lat="47.18266" lon="-1.72326">
        <ele>75</ele>
        <time>2022-08-20T08:26:52Z</time>
      </trkpt>
      <trkpt lat="47.18268" lon="-1.72347">
        <ele>75</ele>
        <time>2022-08-20T08:26:54Z</time>
      </trkpt>
      <trkpt lat="47.18271" lon="-1.72368">
        <ele>76</ele>
        <time>2022-08-20T08:26:56Z</time>
      </trkpt>
      <trkpt lat="47.18272" lon="-1.72387">
        <ele>76</ele>
        <time>2022-08-20T08:26:58Z</time>
      </trkpt>
      <trkpt lat="47.18272" lon="-1.72406">
        <ele>76</ele>
        <time>2022-08-20T08:27:00Z</time>
      </trkpt>
      <trkpt lat="47.18272" lon="-1.72425">
        <ele>76</ele>
        <time>2022-08-20T08:27:02Z</time>
      </trkpt>
      <trkpt lat="47.1827" lon="-1.72443">
        <ele>77</ele>
        <time>2022-08-20T08:27:04Z</time>
      </trkpt>
      <trkpt lat="47.18268" lon="-1.7246">
        <ele>77</ele>
        <time>2022-08-20T08:27:06Z</time>
      </trkpt>
      <trkpt lat="47.18265" lon="-1.72476">
        <ele>78</ele>
        <time>2022-08-20T08:27:08Z</time>
      </trkpt>
      <trkpt lat="47.18262" lon="-1.72492">
        <ele>78</ele>
        <time>2022-08-20T08:27:10Z</time>
      </trkpt>
      <trkpt lat="47.18259" lon="-1.72508">
        <ele>79</ele>
        <time>2022-08-20T08:27:12Z</time>
      </trkpt>
      <trkpt lat="47.1826" lon="-1.72524">
        <ele>80</ele>
        <time>2022-08-20T08:27:14Z</time>
      </trkpt>
      <trkpt lat="47.18263" lon="-1.72539">
        <ele>80</ele>
        <time>2022-08-20T08:27:16Z</time>
      </trkpt>
      <trkpt lat="47.1827" lon="-1.72552">
        <ele>80</ele>
        <time>2022-08-20T08:27:18Z</time>
      </trkpt>
      <trkpt lat="47.18282" lon="-1.72552">
        <ele>80</ele>
        <time>2022-08-20T08:27:20Z</time>
      </trkpt>
      <trkpt lat="47.18294" lon="-1.7255">
        <ele>80</ele>
        <time>2022-08-20T08:27:22Z</time>
      </trkpt>
      <trkpt lat="47.18305" lon="-1.72554">
        <ele>81</ele>
        <time>2022-08-20T08:27:24Z</time>
      </trkpt>
      <trkpt lat="47.18313" lon="-1.72567">
        <ele>81</ele>
        <time>2022-08-20T08:27:26Z</time>
      </trkpt>
      <trkpt lat="47.18314" lon="-1.72585">
        <ele>81</ele>
        <time>2022-08-20T08:27:28Z</time>
      </trkpt>
      <trkpt lat="47.18311" lon="-1.72603">
        <ele>81</ele>
        <time>2022-08-20T08:27:30Z</time>
      </trkpt>
      <trkpt lat="47.1831" lon="-1.72621">
        <ele>81</ele>
        <time>2022-08-20T08:27:32Z</time>
      </trkpt>
      <trkpt lat="47.18315" lon="-1.72639">
        <ele>80</ele>
        <time>2022-08-20T08:27:34Z</time>
      </trkpt>
      <trkpt lat="47.1832" lon="-1.72658">
        <ele>79</ele>
        <time>2022-08-20T08:27:36Z</time>
      </trkpt>
      <trkpt lat="47.18326" lon="-1.72678">
        <ele>78</ele>
        <time>2022-08-20T08:27:38Z</time>
      </trkpt>
      <trkpt lat="47.18333" lon="-1.72697">
        <ele>78</ele>
        <time>2022-08-20T08:27:40Z</time>
      </trkpt>
      <trkpt lat="47.18339" lon="-1.72717">
        <ele>77</ele>
        <time>2022-08-20T08:27:42Z</time>
      </trkpt>
      <trkpt lat="47.18346" lon="-1.72736">
        <ele>77</ele>
        <time>2022-08-20T08:27:44Z</time>
      </trkpt>
      <trkpt lat="47.18353" lon="-1.72756">
        <ele>77</ele>
        <time>2022-08-20T08:27:46Z</time>
      </trkpt>
      <trkpt lat="47.1836" lon="-1.72776">
        <ele>76</ele>
        <time>2022-08-20T08:27:48Z</time>
      </trkpt>
      <trkpt lat="47.18367" lon="-1.72795">
        <ele>77</ele>
        <time>2022-08-20T08:27:50Z</time>
      </trkpt>
      <trkpt lat="47.18374" lon="-1.72814">
        <ele>76</ele>
        <time>2022-08-20T08:27:52Z</time>
      </trkpt>
      <trkpt lat="47.1838" lon="-1.72832">
        <ele>76</ele>
        <time>2022-08-20T08:27:54Z</time>
      </trkpt>
      <trkpt lat="47.18386" lon="-1.7285">
        <ele>76</ele>
        <time>2022-08-20T08:27:56Z</time>
      </trkpt>
      <trkpt lat="47.18392" lon="-1.72869">
        <ele>76</ele>
        <time>2022-08-20T08:27:58Z</time>
      </trkpt>
      <trkpt lat="47.18398" lon="-1.72887">
        <ele>76</ele>
        <time>2022-08-20T08:28:00Z</time>
      </trkpt>
      <trkpt lat="47.18404" lon="-1.72905">
        <ele>76</ele>
        <time>2022-08-20T08:28:02Z</time>
      </trkpt>
      <trkpt lat="47.18408" lon="-1.72924">
        <ele>76</ele>
        <time>2022-08-20T08:28:04Z</time>
      </trkpt>
      <trkpt lat="47.18413" lon="-1.72943">
        <ele>76</ele>
        <time>2022-08-20T08:28:06Z</time>
      </trkpt>
      <trkpt lat="47.18416" lon="-1.72962">
        <ele>76</ele>
        <time>2022-08-20T08:28:08Z</time>
      </trkpt>
      <trkpt lat="47.18419" lon="-1.72982">
        <ele>76</ele>
        <time>2022-08-20T08:28:10Z</time>
      </trkpt>
      <trkpt lat="47.18421" lon="-1.73003">
        <ele>76</ele>
        <time>2022-08-20T08:28:12Z</time>
      </trkpt>
      <trkpt lat="47.18424" lon="-1.73023">
        <ele>76</ele>
        <time>2022-08-20T08:28:14Z</time>
      </trkpt>
      <trkpt lat="47.18427" lon="-1.73043">
        <ele>76</ele>
        <time>2022-08-20T08:28:16Z</time>
      </trkpt>
      <trkpt lat="47.18429" lon="-1.73064">
        <ele>77</ele>
        <time>2022-08-20T08:28:18Z</time>
      </trkpt>
      <trkpt lat="47.18432" lon="-1.73084">
        <ele>76</ele>
        <time>2022-08-20T08:28:20Z</time>
      </trkpt>
      <trkpt lat="47.18434" lon="-1.73105">
        <ele>77</ele>
        <time>2022-08-20T08:28:22Z</time>
      </trkpt>
      <trkpt lat="47.18437" lon="-1.73125">
        <ele>77</ele>
        <time>2022-08-20T08:28:24Z</time>
      </trkpt>
      <trkpt lat="47.1844" lon="-1.73147">
        <ele>76</ele>
        <time>2022-08-20T08:28:26Z</time>
      </trkpt>
      <trkpt lat="47.18442" lon="-1.73168">
        <ele>76</ele>
        <time>2022-08-20T08:28:28Z</time>
      </trkpt>
      <trkpt lat="47.18445" lon="-1.73189">
        <ele>76</ele>
        <time>2022-08-20T08:28:30Z</time>
      </trkpt>
      <trkpt lat="47.18448" lon="-1.7321">
        <ele>76</ele>
        <time>2022-08-20T08:28:32Z</time>
      </trkpt>
      <trkpt lat="47.18451" lon="-1.73231">
        <ele>76</ele>
        <time>2022-08-20T08:28:34Z</time>
      </trkpt>
      <trkpt lat="47.18454" lon="-1.73252">
        <ele>76</ele>
        <time>2022-08-20T08:28:36Z</time>
      </trkpt>
      <trkpt lat="47.18456" lon="-1.73272">
        <ele>76</ele>
        <time>2022-08-20T08:28:38Z</time>
      </trkpt>
      <trkpt lat="47.18459" lon="-1.73293">
        <ele>76</ele>
        <time>2022-08-20T08:28:40Z</time>
      </trkpt>
      <trkpt lat="47.18461" lon="-1.73314">
        <ele>76</ele>
        <time>2022-08-20T08:28:42Z</time>
      </trkpt>
      <trkpt lat="47.18464" lon="-1.73334">
        <ele>76</ele>
        <time>2022-08-20T08:28:44Z</time>
      </trkpt>
      <trkpt lat="47.18466" lon="-1.73355">
        <ele>76</ele>
        <time>2022-08-20T08:28:46Z</time>
      </trkpt>
      <trkpt lat="47.18468" lon="-1.73375">
        <ele>76</ele>
        <time>2022-08-20T08:28:48Z</time>
      </trkpt>
      <trkpt lat="47.18469" lon="-1.73396">
        <ele>76</ele>
        <time>2022-08-20T08:28:50Z</time>
      </trkpt>
      <trkpt lat="47.18471" lon="-1.73417">
        <ele>76</ele>
        <time>2022-08-20T08:28:52Z</time>
      </trkpt>
      <trkpt lat="47.18473" lon="-1.73437">
        <ele>75</ele>
        <time>2022-08-20T08:28:54Z</time>
      </trkpt>
      <trkpt lat="47.18476" lon="-1.73457">
        <ele>75</ele>
        <time>2022-08-20T08:28:56Z</time>
      </trkpt>
      <trkpt lat="47.18477" lon="-1.73477">
        <ele>75</ele>
        <time>2022-08-20T08:28:58Z</time>
      </trkpt>
      <trkpt lat="47.18479" lon="-1.73497">
        <ele>74</ele>
        <time>2022-08-20T08:29:00Z</time>
      </trkpt>
      <trkpt lat="47.18481" lon="-1.73516">
        <ele>74</ele>
        <time>2022-08-20T08:29:02Z</time>
      </trkpt>
      <trkpt lat="47.18483" lon="-1.73534">
        <ele>74</ele>
        <time>2022-08-20T08:29:04Z</time>
      </trkpt>
      <trkpt lat="47.18485" lon="-1.73553">
        <ele>74</ele>
        <time>2022-08-20T08:29:06Z</time>
      </trkpt>
      <trkpt lat="47.18487" lon="-1.73572">
        <ele>74</ele>
        <time>2022-08-20T08:29:08Z</time>
      </trkpt>
      <trkpt lat="47.18488" lon="-1.73591">
        <ele>74</ele>
        <time>2022-08-20T08:29:10Z</time>
      </trkpt>
      <trkpt lat="47.1849" lon="-1.73611">
        <ele>73</ele>
        <time>2022-08-20T08:29:12Z</time>
      </trkpt>
      <trkpt lat="47.18492" lon="-1.73629">
        <ele>74</ele>
        <time>2022-08-20T08:29:14Z</time>
      </trkpt>
      <trkpt lat="47.18494" lon="-1.73648">
        <ele>74</ele>
        <time>2022-08-20T08:29:16Z</time>
      </trkpt>
      <trkpt lat="47.18496" lon="-1.73666">
        <ele>74</ele>
        <time>2022-08-20T08:29:18Z</time>
      </trkpt>
      <trkpt lat="47.18498" lon="-1.73685">
        <ele>74</ele>
        <time>2022-08-20T08:29:20Z</time>
      </trkpt>
      <trkpt lat="47.18499" lon="-1.73704">
        <ele>74</ele>
        <time>2022-08-20T08:29:22Z</time>
      </trkpt>
      <trkpt lat="47.18501" lon="-1.73723">
        <ele>74</ele>
        <time>2022-08-20T08:29:24Z</time>
      </trkpt>
      <trkpt lat="47.18503" lon="-1.73742">
        <ele>74</ele>
        <time>2022-08-20T08:29:26Z</time>
      </trkpt>
      <trkpt lat="47.18505" lon="-1.73761">
        <ele>73</ele>
        <time>2022-08-20T08:29:28Z</time>
      </trkpt>
      <trkpt lat="47.18507" lon="-1.7378">
        <ele>73</ele>
        <time>2022-08-20T08:29:30Z</time>
      </trkpt>
      <trkpt lat="47.18509" lon="-1.73799">
        <ele>73</ele>
        <time>2022-08-20T08:29:32Z</time>
      </trkpt>
      <trkpt lat="47.18511" lon="-1.73819">
        <ele>72</ele>
        <time>2022-08-20T08:29:34Z</time>
      </trkpt>
      <trkpt lat="47.18512" lon="-1.73838">
        <ele>72</ele>
        <time>2022-08-20T08:29:36Z</time>
      </trkpt>
      <trkpt lat="47.18514" lon="-1.73857">
        <ele>72</ele>
        <time>2022-08-20T08:29:38Z</time>
      </trkpt>
      <trkpt lat="47.18516" lon="-1.73877">
        <ele>72</ele>
        <time>2022-08-20T08:29:40Z</time>
      </trkpt>
      <trkpt lat="47.18517" lon="-1.73896">
        <ele>73</ele>
        <time>2022-08-20T08:29:42Z</time>
      </trkpt>
      <trkpt lat="47.18519" lon="-1.73915">
        <ele>72</ele>
        <time>2022-08-20T08:29:44Z</time>
      </trkpt>
      <trkpt lat="47.1852" lon="-1.73935">
        <ele>72</ele>
        <time>2022-08-20T08:29:46Z</time>
      </trkpt>
      <trkpt lat="47.18521" lon="-1.73954">
        <ele>72</ele>
        <time>2022-08-20T08:29:48Z</time>
      </trkpt>
      <trkpt lat="47.18521" lon="-1.73975">
        <ele>71</ele>
        <time>2022-08-20T08:29:50Z</time>
      </trkpt>
      <trkpt lat="47.18521" lon="-1.73995">
        <ele>71</ele>
        <time>2022-08-20T08:29:52Z</time>
      </trkpt>
      <trkpt lat="47.18521" lon="-1.74015">
        <ele>71</ele>
        <time>2022-08-20T08:29:54Z</time>
      </trkpt>
      <trkpt lat="47.18519" lon="-1.74036">
        <ele>71</ele>
        <time>2022-08-20T08:29:56Z</time>
      </trkpt>
      <trkpt lat="47.18518" lon="-1.74058">
        <ele>70</ele>
        <time>2022-08-20T08:29:58Z</time>
      </trkpt>
      <trkpt lat="47.18517" lon="-1.74079">
        <ele>70</ele>
        <time>2022-08-20T08:30:00Z</time>
      </trkpt>
      <trkpt lat="47.18516" lon="-1.74101">
        <ele>70</ele>
        <time>2022-08-20T08:30:02Z</time>
      </trkpt>
      <trkpt lat="47.18519" lon="-1.74122">
        <ele>70</ele>
        <time>2022-08-20T08:30:04Z</time>
      </trkpt>
      <trkpt lat="47.1852" lon="-1.74143">
        <ele>70</ele>
        <time>2022-08-20T08:30:06Z</time>
      </trkpt>
      <trkpt lat="47.18516" lon="-1.74163">
        <ele>70</ele>
        <time>2022-08-20T08:30:08Z</time>
      </trkpt>
      <trkpt lat="47.18515" lon="-1.74184">
        <ele>70</ele>
        <time>2022-08-20T08:30:10Z</time>
      </trkpt>
      <trkpt lat="47.18516" lon="-1.74205">
        <ele>71</ele>
        <time>2022-08-20T08:30:12Z</time>
      </trkpt>
      <trkpt lat="47.18516" lon="-1.74225">
        <ele>71</ele>
        <time>2022-08-20T08:30:14Z</time>
      </trkpt>
      <trkpt lat="47.18517" lon="-1.74245">
        <ele>72</ele>
        <time>2022-08-20T08:30:16Z</time>
      </trkpt>
      <trkpt lat="47.18519" lon="-1.74265">
        <ele>72</ele>
        <time>2022-08-20T08:30:18Z</time>
      </trkpt>
      <trkpt lat="47.18521" lon="-1.74285">
        <ele>72</ele>
        <time>2022-08-20T08:30:20Z</time>
      </trkpt>
      <trkpt lat="47.18522" lon="-1.74305">
        <ele>72</ele>
        <time>2022-08-20T08:30:22Z</time>
      </trkpt>
      <trkpt lat="47.18523" lon="-1.74325">
        <ele>72</ele>
        <time>2022-08-20T08:30:24Z</time>
      </trkpt>
      <trkpt lat="47.18524" lon="-1.74345">
        <ele>73</ele>
        <time>2022-08-20T08:30:26Z</time>
      </trkpt>
      <trkpt lat="47.18525" lon="-1.74364">
        <ele>72</ele>
        <time>2022-08-20T08:30:28Z</time>
      </trkpt>
      <trkpt lat="47.18525" lon="-1.74384">
        <ele>72</ele>
        <time>2022-08-20T08:30:30Z</time>
      </trkpt>
      <trkpt lat="47.18525" lon="-1.74405">
        <ele>72</ele>
        <time>2022-08-20T08:30:32Z</time>
      </trkpt>
      <trkpt lat="47.18525" lon="-1.74425">
        <ele>73</ele>
        <time>2022-08-20T08:30:34Z</time>
      </trkpt>
      <trkpt lat="47.18524" lon="-1.74446">
        <ele>73</ele>
        <time>2022-08-20T08:30:36Z</time>
      </trkpt>
      <trkpt lat="47.18523" lon="-1.74466">
        <ele>73</ele>
        <time>2022-08-20T08:30:38Z</time>
      </trkpt>
      <trkpt lat="47.18522" lon="-1.74486">
        <ele>73</ele>
        <time>2022-08-20T08:30:40Z</time>
      </trkpt>
      <trkpt lat="47.1852" lon="-1.74506">
        <ele>73</ele>
        <time>2022-08-20T08:30:42Z</time>
      </trkpt>
      <trkpt lat="47.18518" lon="-1.74525">
        <ele>73</ele>
        <time>2022-08-20T08:30:44Z</time>
      </trkpt>
      <trkpt lat="47.18517" lon="-1.74545">
        <ele>73</ele>
        <time>2022-08-20T08:30:46Z</time>
      </trkpt>
      <trkpt lat="47.18515" lon="-1.74565">
        <ele>73</ele>
        <time>2022-08-20T08:30:48Z</time>
      </trkpt>
      <trkpt lat="47.18513" lon="-1.74585">
        <ele>73</ele>
        <time>2022-08-20T08:30:50Z</time>
      </trkpt>
      <trkpt lat="47.18511" lon="-1.74605">
        <ele>74</ele>
        <time>2022-08-20T08:30:52Z</time>
      </trkpt>
      <trkpt lat="47.18509" lon="-1.74625">
        <ele>74</ele>
        <time>2022-08-20T08:30:54Z</time>
      </trkpt>
      <trkpt lat="47.18507" lon="-1.74644">
        <ele>74</ele>
        <time>2022-08-20T08:30:56Z</time>
      </trkpt>
      <trkpt lat="47.18504" lon="-1.74664">
        <ele>75</ele>
        <time>2022-08-20T08:30:58Z</time>
      </trkpt>
      <trkpt lat="47.18502" lon="-1.74684">
        <ele>75</ele>
        <time>2022-08-20T08:31:00Z</time>
      </trkpt>
      <trkpt lat="47.185" lon="-1.74703">
        <ele>75</ele>
        <time>2022-08-20T08:31:02Z</time>
      </trkpt>
      <trkpt lat="47.18497" lon="-1.74724">
        <ele>75</ele>
        <time>2022-08-20T08:31:04Z</time>
      </trkpt>
      <trkpt lat="47.18494" lon="-1.74743">
        <ele>75</ele>
        <time>2022-08-20T08:31:06Z</time>
      </trkpt>
      <trkpt lat="47.18492" lon="-1.74763">
        <ele>75</ele>
        <time>2022-08-20T08:31:08Z</time>
      </trkpt>
      <trkpt lat="47.18489" lon="-1.74783">
        <ele>75</ele>
        <time>2022-08-20T08:31:10Z</time>
      </trkpt>
      <trkpt lat="47.18486" lon="-1.74803">
        <ele>74</ele>
        <time>2022-08-20T08:31:12Z</time>
      </trkpt>
      <trkpt lat="47.18483" lon="-1.74823">
        <ele>74</ele>
        <time>2022-08-20T08:31:14Z</time>
      </trkpt>
      <trkpt lat="47.18479" lon="-1.74843">
        <ele>73</ele>
        <time>2022-08-20T08:31:16Z</time>
      </trkpt>
      <trkpt lat="47.18475" lon="-1.74863">
        <ele>73</ele>
        <time>2022-08-20T08:31:18Z</time>
      </trkpt>
      <trkpt lat="47.18471" lon="-1.74884">
        <ele>73</ele>
        <time>2022-08-20T08:31:20Z</time>
      </trkpt>
      <trkpt lat="47.18467" lon="-1.74906">
        <ele>72</ele>
        <time>2022-08-20T08:31:22Z</time>
      </trkpt>
      <trkpt lat="47.18463" lon="-1.74927">
        <ele>72</ele>
        <time>2022-08-20T08:31:24Z</time>
      </trkpt>
      <trkpt lat="47.18459" lon="-1.74949">
        <ele>71</ele>
        <time>2022-08-20T08:31:26Z</time>
      </trkpt>
      <trkpt lat="47.18455" lon="-1.7497">
        <ele>71</ele>
        <time>2022-08-20T08:31:28Z</time>
      </trkpt>
      <trkpt lat="47.1845" lon="-1.74992">
        <ele>71</ele>
        <time>2022-08-20T08:31:30Z</time>
      </trkpt>
      <trkpt lat="47.18446" lon="-1.75013">
        <ele>71</ele>
        <time>2022-08-20T08:31:32Z</time>
      </trkpt>
      <trkpt lat="47.18442" lon="-1.75035">
        <ele>70</ele>
        <time>2022-08-20T08:31:34Z</time>
      </trkpt>
      <trkpt lat="47.18438" lon="-1.75056">
        <ele>70</ele>
        <time>2022-08-20T08:31:36Z</time>
      </trkpt>
      <trkpt lat="47.18433" lon="-1.75077">
        <ele>69</ele>
        <time>2022-08-20T08:31:38Z</time>
      </trkpt>
      <trkpt lat="47.1843" lon="-1.75099">
        <ele>68</ele>
        <time>2022-08-20T08:31:40Z</time>
      </trkpt>
      <trkpt lat="47.18425" lon="-1.75121">
        <ele>68</ele>
        <time>2022-08-20T08:31:42Z</time>
      </trkpt>
      <trkpt lat="47.18421" lon="-1.75142">
        <ele>69</ele>
        <time>2022-08-20T08:31:44Z</time>
      </trkpt>
      <trkpt lat="47.18418" lon="-1.75163">
        <ele>68</ele>
        <time>2022-08-20T08:31:46Z</time>
      </trkpt>
      <trkpt lat="47.18414" lon="-1.75184">
        <ele>68</ele>
        <time>2022-08-20T08:31:48Z</time>
      </trkpt>
      <trkpt lat="47.1841" lon="-1.75204">
        <ele>68</ele>
        <time>2022-08-20T08:31:50Z</time>
      </trkpt>
      <trkpt lat="47.18407" lon="-1.75224">
        <ele>68</ele>
        <time>2022-08-20T08:31:52Z</time>
      </trkpt>
      <trkpt lat="47.18405" lon="-1.75245">
        <ele>68</ele>
        <time>2022-08-20T08:31:54Z</time>
      </trkpt>
      <trkpt lat="47.18402" lon="-1.75265">
        <ele>68</ele>
        <time>2022-08-20T08:31:56Z</time>
      </trkpt>
      <trkpt lat="47.18399" lon="-1.75285">
        <ele>68</ele>
        <time>2022-08-20T08:31:58Z</time>
      </trkpt>
      <trkpt lat="47.18398" lon="-1.75305">
        <ele>68</ele>
        <time>2022-08-20T08:32:00Z</time>
      </trkpt>
      <trkpt lat="47.18396" lon="-1.75325">
        <ele>68</ele>
        <time>2022-08-20T08:32:02Z</time>
      </trkpt>
      <trkpt lat="47.18396" lon="-1.75345">
        <ele>68</ele>
        <time>2022-08-20T08:32:04Z</time>
      </trkpt>
      <trkpt lat="47.18395" lon="-1.75365">
        <ele>68</ele>
        <time>2022-08-20T08:32:06Z</time>
      </trkpt>
      <trkpt lat="47.18396" lon="-1.75386">
        <ele>68</ele>
        <time>2022-08-20T08:32:08Z</time>
      </trkpt>
      <trkpt lat="47.18399" lon="-1.75406">
        <ele>67</ele>
        <time>2022-08-20T08:32:10Z</time>
      </trkpt>
      <trkpt lat="47.184" lon="-1.75427">
        <ele>67</ele>
        <time>2022-08-20T08:32:12Z</time>
      </trkpt>
      <trkpt lat="47.18397" lon="-1.75446">
        <ele>67</ele>
        <time>2022-08-20T08:32:14Z</time>
      </trkpt>
      <trkpt lat="47.18395" lon="-1.75466">
        <ele>67</ele>
        <time>2022-08-20T08:32:16Z</time>
      </trkpt>
      <trkpt lat="47.18395" lon="-1.75486">
        <ele>68</ele>
        <time>2022-08-20T08:32:18Z</time>
      </trkpt>
      <trkpt lat="47.18397" lon="-1.75505">
        <ele>68</ele>
        <time>2022-08-20T08:32:20Z</time>
      </trkpt>
      <trkpt lat="47.18398" lon="-1.75524">
        <ele>68</ele>
        <time>2022-08-20T08:32:22Z</time>
      </trkpt>
      <trkpt lat="47.18399" lon="-1.75542">
        <ele>69</ele>
        <time>2022-08-20T08:32:24Z</time>
      </trkpt>
      <trkpt lat="47.184" lon="-1.7556">
        <ele>69</ele>
        <time>2022-08-20T08:32:26Z</time>
      </trkpt>
      <trkpt lat="47.18402" lon="-1.75578">
        <ele>69</ele>
        <time>2022-08-20T08:32:28Z</time>
      </trkpt>
      <trkpt lat="47.18404" lon="-1.75596">
        <ele>70</ele>
        <time>2022-08-20T08:32:30Z</time>
      </trkpt>
      <trkpt lat="47.18405" lon="-1.75614">
        <ele>70</ele>
        <time>2022-08-20T08:32:32Z</time>
      </trkpt>
      <trkpt lat="47.18405" lon="-1.75632">
        <ele>70</ele>
        <time>2022-08-20T08:32:34Z</time>
      </trkpt>
      <trkpt lat="47.18406" lon="-1.75651">
        <ele>70</ele>
        <time>2022-08-20T08:32:36Z</time>
      </trkpt>
      <trkpt lat="47.18406" lon="-1.7567">
        <ele>70</ele>
        <time>2022-08-20T08:32:38Z</time>
      </trkpt>
      <trkpt lat="47.18407" lon="-1.75689">
        <ele>70</ele>
        <time>2022-08-20T08:32:40Z</time>
      </trkpt>
      <trkpt lat="47.18406" lon="-1.75707">
        <ele>70</ele>
        <time>2022-08-20T08:32:42Z</time>
      </trkpt>
      <trkpt lat="47.18405" lon="-1.75726">
        <ele>70</ele>
        <time>2022-08-20T08:32:44Z</time>
      </trkpt>
      <trkpt lat="47.18404" lon="-1.75744">
        <ele>70</ele>
        <time>2022-08-20T08:32:46Z</time>
      </trkpt>
      <trkpt lat="47.18403" lon="-1.75763">
        <ele>70</ele>
        <time>2022-08-20T08:32:48Z</time>
      </trkpt>
      <trkpt lat="47.18401" lon="-1.75781">
        <ele>70</ele>
        <time>2022-08-20T08:32:50Z</time>
      </trkpt>
      <trkpt lat="47.18399" lon="-1.758">
        <ele>70</ele>
        <time>2022-08-20T08:32:52Z</time>
      </trkpt>
      <trkpt lat="47.18397" lon="-1.75819">
        <ele>69</ele>
        <time>2022-08-20T08:32:54Z</time>
      </trkpt>
      <trkpt lat="47.18395" lon="-1.75838">
        <ele>69</ele>
        <time>2022-08-20T08:32:56Z</time>
      </trkpt>
      <trkpt lat="47.18393" lon="-1.75858">
        <ele>69</ele>
        <time>2022-08-20T08:32:58Z</time>
      </trkpt>
      <trkpt lat="47.18392" lon="-1.75878">
        <ele>69</ele>
        <time>2022-08-20T08:33:00Z</time>
      </trkpt>
      <trkpt lat="47.18389" lon="-1.75898">
        <ele>69</ele>
        <time>2022-08-20T08:33:02Z</time>
      </trkpt>
      <trkpt lat="47.18386" lon="-1.75918">
        <ele>68</ele>
        <time>2022-08-20T08:33:04Z</time>
      </trkpt>
      <trkpt lat="47.18384" lon="-1.75939">
        <ele>68</ele>
        <time>2022-08-20T08:33:06Z</time>
      </trkpt>
      <trkpt lat="47.18382" lon="-1.75959">
        <ele>68</ele>
        <time>2022-08-20T08:33:08Z</time>
      </trkpt>
      <trkpt lat="47.18379" lon="-1.7598">
        <ele>67</ele>
        <time>2022-08-20T08:33:10Z</time>
      </trkpt>
      <trkpt lat="47.18377" lon="-1.76001">
        <ele>67</ele>
        <time>2022-08-20T08:33:12Z</time>
      </trkpt>
      <trkpt lat="47.18374" lon="-1.76022">
        <ele>67</ele>
        <time>2022-08-20T08:33:14Z</time>
      </trkpt>
      <trkpt lat="47.18372" lon="-1.76043">
        <ele>66</ele>
        <time>2022-08-20T08:33:16Z</time>
      </trkpt>
      <trkpt lat="47.1837" lon="-1.76065">
        <ele>66</ele>
        <time>2022-08-20T08:33:18Z</time>
      </trkpt>
      <trkpt lat="47.18367" lon="-1.76087">
        <ele>65</ele>
        <time>2022-08-20T08:33:20Z</time>
      </trkpt>
      <trkpt lat="47.18365" lon="-1.76108">
        <ele>65</ele>
        <time>2022-08-20T08:33:22Z</time>
      </trkpt>
      <trkpt lat="47.18362" lon="-1.76129">
        <ele>65</ele>
        <time>2022-08-20T08:33:24Z</time>
      </trkpt>
      <trkpt lat="47.1836" lon="-1.76151">
        <ele>64</ele>
        <time>2022-08-20T08:33:26Z</time>
      </trkpt>
      <trkpt lat="47.18357" lon="-1.76174">
        <ele>64</ele>
        <time>2022-08-20T08:33:28Z</time>
      </trkpt>
      <trkpt lat="47.18354" lon="-1.76195">
        <ele>64</ele>
        <time>2022-08-20T08:33:30Z</time>
      </trkpt>
      <trkpt lat="47.18351" lon="-1.76217">
        <ele>63</ele>
        <time>2022-08-20T08:33:32Z</time>
      </trkpt>
      <trkpt lat="47.18348" lon="-1.7624">
        <ele>63</ele>
        <time>2022-08-20T08:33:34Z</time>
      </trkpt>
      <trkpt lat="47.18346" lon="-1.76263">
        <ele>62</ele>
        <time>2022-08-20T08:33:36Z</time>
      </trkpt>
      <trkpt lat="47.18345" lon="-1.76286">
        <ele>63</ele>
        <time>2022-08-20T08:33:38Z</time>
      </trkpt>
      <trkpt lat="47.18343" lon="-1.76308">
        <ele>63</ele>
        <time>2022-08-20T08:33:40Z</time>
      </trkpt>
      <trkpt lat="47.18342" lon="-1.7633">
        <ele>63</ele>
        <time>2022-08-20T08:33:42Z</time>
      </trkpt>
      <trkpt lat="47.18341" lon="-1.76351">
        <ele>63</ele>
        <time>2022-08-20T08:33:44Z</time>
      </trkpt>
      <trkpt lat="47.1834" lon="-1.76372">
        <ele>63</ele>
        <time>2022-08-20T08:33:46Z</time>
      </trkpt>
      <trkpt lat="47.18339" lon="-1.76392">
        <ele>63</ele>
        <time>2022-08-20T08:33:48Z</time>
      </trkpt>
      <trkpt lat="47.18338" lon="-1.76412">
        <ele>63</ele>
        <time>2022-08-20T08:33:50Z</time>
      </trkpt>
      <trkpt lat="47.18337" lon="-1.76432">
        <ele>63</ele>
        <time>2022-08-20T08:33:52Z</time>
      </trkpt>
      <trkpt lat="47.18336" lon="-1.76451">
        <ele>63</ele>
        <time>2022-08-20T08:33:54Z</time>
      </trkpt>
      <trkpt lat="47.18334" lon="-1.76471">
        <ele>63</ele>
        <time>2022-08-20T08:33:56Z</time>
      </trkpt>
      <trkpt lat="47.18334" lon="-1.76489">
        <ele>63</ele>
        <time>2022-08-20T08:33:58Z</time>
      </trkpt>
      <trkpt lat="47.18334" lon="-1.76508">
        <ele>63</ele>
        <time>2022-08-20T08:34:00Z</time>
      </trkpt>
      <trkpt lat="47.18334" lon="-1.76527">
        <ele>63</ele>
        <time>2022-08-20T08:34:02Z</time>
      </trkpt>
      <trkpt lat="47.18334" lon="-1.76546">
        <ele>63</ele>
        <time>2022-08-20T08:34:04Z</time>
      </trkpt>
      <trkpt lat="47.18334" lon="-1.76565">
        <ele>63</ele>
        <time>2022-08-20T08:34:06Z</time>
      </trkpt>
      <trkpt lat="47.18335" lon="-1.76583">
        <ele>63</ele>
        <time>2022-08-20T08:34:08Z</time>
      </trkpt>
      <trkpt lat="47.18336" lon="-1.76601">
        <ele>64</ele>
        <time>2022-08-20T08:34:10Z</time>
      </trkpt>
      <trkpt lat="47.18337" lon="-1.76619">
        <ele>64</ele>
        <time>2022-08-20T08:34:12Z</time>
      </trkpt>
      <trkpt lat="47.18339" lon="-1.76638">
        <ele>64</ele>
        <time>2022-08-20T08:34:14Z</time>
      </trkpt>
      <trkpt lat="47.1834" lon="-1.76655">
        <ele>64</ele>
        <time>2022-08-20T08:34:16Z</time>
      </trkpt>
      <trkpt lat="47.18342" lon="-1.76673">
        <ele>64</ele>
        <time>2022-08-20T08:34:18Z</time>
      </trkpt>
      <trkpt lat="47.18344" lon="-1.7669">
        <ele>64</ele>
        <time>2022-08-20T08:34:20Z</time>
      </trkpt>
      <trkpt lat="47.18345" lon="-1.76708">
        <ele>65</ele>
        <time>2022-08-20T08:34:22Z</time>
      </trkpt>
      <trkpt lat="47.18348" lon="-1.76725">
        <ele>65</ele>
        <time>2022-08-20T08:34:24Z</time>
      </trkpt>
      <trkpt lat="47.1835" lon="-1.76744">
        <ele>65</ele>
        <time>2022-08-20T08:34:26Z</time>
      </trkpt>
      <trkpt lat="47.18351" lon="-1.76761">
        <ele>65</ele>
        <time>2022-08-20T08:34:28Z</time>
      </trkpt>
      <trkpt lat="47.18353" lon="-1.76779">
        <ele>65</ele>
        <time>2022-08-20T08:34:30Z</time>
      </trkpt>
      <trkpt lat="47.18355" lon="-1.76797">
        <ele>65</ele>
        <time>2022-08-20T08:34:32Z</time>
      </trkpt>
      <trkpt lat="47.18357" lon="-1.76814">
        <ele>66</ele>
        <time>2022-08-20T08:34:34Z</time>
      </trkpt>
      <trkpt lat="47.18358" lon="-1.76831">
        <ele>66</ele>
        <time>2022-08-20T08:34:36Z</time>
      </trkpt>
      <trkpt lat="47.1836" lon="-1.76848">
        <ele>66</ele>
        <time>2022-08-20T08:34:38Z</time>
      </trkpt>
      <trkpt lat="47.18362" lon="-1.76866">
        <ele>66</ele>
        <time>2022-08-20T08:34:40Z</time>
      </trkpt>
      <trkpt lat="47.18364" lon="-1.76883">
        <ele>66</ele>
        <time>2022-08-20T08:34:42Z</time>
      </trkpt>
      <trkpt lat="47.18366" lon="-1.76899">
        <ele>67</ele>
        <time>2022-08-20T08:34:44Z</time>
      </trkpt>
      <trkpt lat="47.18367" lon="-1.76916">
        <ele>67</ele>
        <time>2022-08-20T08:34:46Z</time>
      </trkpt>
      <trkpt lat="47.18369" lon="-1.76933">
        <ele>67</ele>
        <time>2022-08-20T08:34:48Z</time>
      </trkpt>
      <trkpt lat="47.18371" lon="-1.7695">
        <ele>68</ele>
        <time>2022-08-20T08:34:50Z</time>
      </trkpt>
      <trkpt lat="47.18372" lon="-1.76968">
        <ele>69</ele>
        <time>2022-08-20T08:34:52Z</time>
      </trkpt>
      <trkpt lat="47.18373" lon="-1.76986">
        <ele>69</ele>
        <time>2022-08-20T08:34:54Z</time>
      </trkpt>
      <trkpt lat="47.18374" lon="-1.77004">
        <ele>69</ele>
        <time>2022-08-20T08:34:56Z</time>
      </trkpt>
      <trkpt lat="47.18374" lon="-1.77021">
        <ele>70</ele>
        <time>2022-08-20T08:34:58Z</time>
      </trkpt>
      <trkpt lat="47.18374" lon="-1.77039">
        <ele>70</ele>
        <time>2022-08-20T08:35:00Z</time>
      </trkpt>
      <trkpt lat="47.18374" lon="-1.77057">
        <ele>70</ele>
        <time>2022-08-20T08:35:02Z</time>
      </trkpt>
      <trkpt lat="47.18373" lon="-1.77075">
        <ele>71</ele>
        <time>2022-08-20T08:35:04Z</time>
      </trkpt>
      <trkpt lat="47.18372" lon="-1.77092">
        <ele>71</ele>
        <time>2022-08-20T08:35:06Z</time>
      </trkpt>
      <trkpt lat="47.1837" lon="-1.77109">
        <ele>71</ele>
        <time>2022-08-20T08:35:08Z</time>
      </trkpt>
      <trkpt lat="47.18368" lon="-1.77126">
        <ele>71</ele>
        <time>2022-08-20T08:35:10Z</time>
      </trkpt>
      <trkpt lat="47.18366" lon="-1.77143">
        <ele>72</ele>
        <time>2022-08-20T08:35:12Z</time>
      </trkpt>
      <trkpt lat="47.18364" lon="-1.7716">
        <ele>72</ele>
        <time>2022-08-20T08:35:14Z</time>
      </trkpt>
      <trkpt lat="47.18363" lon="-1.77178">
        <ele>72</ele>
        <time>2022-08-20T08:35:16Z</time>
      </trkpt>
      <trkpt lat="47.18361" lon="-1.77195">
        <ele>72</ele>
        <time>2022-08-20T08:35:18Z</time>
      </trkpt>
      <trkpt lat="47.1836" lon="-1.77214">
        <ele>72</ele>
        <time>2022-08-20T08:35:20Z</time>
      </trkpt>
      <trkpt lat="47.1836" lon="-1.77232">
        <ele>72</ele>
        <time>2022-08-20T08:35:22Z</time>
      </trkpt>
      <trkpt lat="47.1836" lon="-1.77251">
        <ele>73</ele>
        <time>2022-08-20T08:35:24Z</time>
      </trkpt>
      <trkpt lat="47.18361" lon="-1.77269">
        <ele>73</ele>
        <time>2022-08-20T08:35:26Z</time>
      </trkpt>
      <trkpt lat="47.18361" lon="-1.77288">
        <ele>73</ele>
        <time>2022-08-20T08:35:28Z</time>
      </trkpt>
      <trkpt lat="47.18362" lon="-1.77306">
        <ele>73</ele>
        <time>2022-08-20T08:35:30Z</time>
      </trkpt>
      <trkpt lat="47.18363" lon="-1.77326">
        <ele>74</ele>
        <time>2022-08-20T08:35:32Z</time>
      </trkpt>
      <trkpt lat="47.18364" lon="-1.77345">
        <ele>74</ele>
        <time>2022-08-20T08:35:34Z</time>
      </trkpt>
      <trkpt lat="47.18365" lon="-1.77365">
        <ele>74</ele>
        <time>2022-08-20T08:35:36Z</time>
      </trkpt>
      <trkpt lat="47.18366" lon="-1.77384">
        <ele>74</ele>
        <time>2022-08-20T08:35:38Z</time>
      </trkpt>
      <trkpt lat="47.18367" lon="-1.77404">
        <ele>74</ele>
        <time>2022-08-20T08:35:40Z</time>
      </trkpt>
      <trkpt lat="47.18368" lon="-1.77423">
        <ele>74</ele>
        <time>2022-08-20T08:35:42Z</time>
      </trkpt>
      <trkpt lat="47.1837" lon="-1.77443">
        <ele>74</ele>
        <time>2022-08-20T08:35:44Z</time>
      </trkpt>
      <trkpt lat="47.1837" lon="-1.77463">
        <ele>74</ele>
        <time>2022-08-20T08:35:46Z</time>
      </trkpt>
      <trkpt lat="47.18371" lon="-1.77482">
        <ele>74</ele>
        <time>2022-08-20T08:35:48Z</time>
      </trkpt>
      <trkpt lat="47.18371" lon="-1.77502">
        <ele>74</ele>
        <time>2022-08-20T08:35:50Z</time>
      </trkpt>
      <trkpt lat="47.1837" lon="-1.77521">
        <ele>74</ele>
        <time>2022-08-20T08:35:52Z</time>
      </trkpt>
      <trkpt lat="47.18368" lon="-1.7754">
        <ele>73</ele>
        <time>2022-08-20T08:35:54Z</time>
      </trkpt>
      <trkpt lat="47.18366" lon="-1.77559">
        <ele>73</ele>
        <time>2022-08-20T08:35:56Z</time>
      </trkpt>
      <trkpt lat="47.18362" lon="-1.77576">
        <ele>73</ele>
        <time>2022-08-20T08:35:58Z</time>
      </trkpt>
      <trkpt lat="47.18357" lon="-1.77595">
        <ele>73</ele>
        <time>2022-08-20T08:36:00Z</time>
      </trkpt>
      <trkpt lat="47.18352" lon="-1.77612">
        <ele>73</ele>
        <time>2022-08-20T08:36:02Z</time>
      </trkpt>
      <trkpt lat="47.18347" lon="-1.7763">
        <ele>73</ele>
        <time>2022-08-20T08:36:04Z</time>
      </trkpt>
      <trkpt lat="47.18341" lon="-1.77648">
        <ele>73</ele>
        <time>2022-08-20T08:36:06Z</time>
      </trkpt>
      <trkpt lat="47.18335" lon="-1.77665">
        <ele>73</ele>
        <time>2022-08-20T08:36:08Z</time>
      </trkpt>
      <trkpt lat="47.18329" lon="-1.77682">
        <ele>73</ele>
        <time>2022-08-20T08:36:10Z</time>
      </trkpt>
      <trkpt lat="47.18323" lon="-1.77699">
        <ele>73</ele>
        <time>2022-08-20T08:36:12Z</time>
      </trkpt>
      <trkpt lat="47.18317" lon="-1.77716">
        <ele>73</ele>
        <time>2022-08-20T08:36:14Z</time>
      </trkpt>
      <trkpt lat="47.18312" lon="-1.77734">
        <ele>73</ele>
        <time>2022-08-20T08:36:16Z</time>
      </trkpt>
      <trkpt lat="47.18306" lon="-1.77752">
        <ele>73</ele>
        <time>2022-08-20T08:36:18Z</time>
      </trkpt>
      <trkpt lat="47.183" lon="-1.7777">
        <ele>73</ele>
        <time>2022-08-20T08:36:20Z</time>
      </trkpt>
      <trkpt lat="47.18294" lon="-1.77788">
        <ele>73</ele>
        <time>2022-08-20T08:36:22Z</time>
      </trkpt>
      <trkpt lat="47.18288" lon="-1.77806">
        <ele>73</ele>
        <time>2022-08-20T08:36:24Z</time>
      </trkpt>
      <trkpt lat="47.18283" lon="-1.77823">
        <ele>73</ele>
        <time>2022-08-20T08:36:26Z</time>
      </trkpt>
      <trkpt lat="47.18278" lon="-1.77839">
        <ele>73</ele>
        <time>2022-08-20T08:36:28Z</time>
      </trkpt>
      <trkpt lat="47.18274" lon="-1.77855">
        <ele>73</ele>
        <time>2022-08-20T08:36:30Z</time>
      </trkpt>
      <trkpt lat="47.18276" lon="-1.77869">
        <ele>73</ele>
        <time>2022-08-20T08:36:32Z</time>
      </trkpt>
      <trkpt lat="47.18283" lon="-1.77879">
        <ele>74</ele>
        <time>2022-08-20T08:36:41Z</time>
      </trkpt>
      <trkpt lat="47.18292" lon="-1.77886">
        <ele>74</ele>
        <time>2022-08-20T08:36:44Z</time>
      </trkpt>
      <trkpt lat="47.183" lon="-1.77895">
        <ele>74</ele>
        <time>2022-08-20T08:36:46Z</time>
      </trkpt>
      <trkpt lat="47.18311" lon="-1.77901">
        <ele>74</ele>
        <time>2022-08-20T08:36:48Z</time>
      </trkpt>
      <trkpt lat="47.18323" lon="-1.77903">
        <ele>74</ele>
        <time>2022-08-20T08:36:50Z</time>
      </trkpt>
      <trkpt lat="47.18335" lon="-1.77903">
        <ele>74</ele>
        <time>2022-08-20T08:36:52Z</time>
      </trkpt>
      <trkpt lat="47.18346" lon="-1.77903">
        <ele>75</ele>
        <time>2022-08-20T08:36:54Z</time>
      </trkpt>
      <trkpt lat="47.18358" lon="-1.77903">
        <ele>75</ele>
        <time>2022-08-20T08:36:56Z</time>
      </trkpt>
      <trkpt lat="47.1837" lon="-1.77902">
        <ele>76</ele>
        <time>2022-08-20T08:36:58Z</time>
      </trkpt>
      <trkpt lat="47.18381" lon="-1.77902">
        <ele>77</ele>
        <time>2022-08-20T08:37:00Z</time>
      </trkpt>
      <trkpt lat="47.18393" lon="-1.77901">
        <ele>78</ele>
        <time>2022-08-20T08:37:02Z</time>
      </trkpt>
      <trkpt lat="47.18405" lon="-1.77901">
        <ele>78</ele>
        <time>2022-08-20T08:37:04Z</time>
      </trkpt>
      <trkpt lat="47.18417" lon="-1.779">
        <ele>79</ele>
        <time>2022-08-20T08:37:06Z</time>
      </trkpt>
      <trkpt lat="47.18429" lon="-1.77899">
        <ele>79</ele>
        <time>2022-08-20T08:37:08Z</time>
      </trkpt>
      <trkpt lat="47.1844" lon="-1.77899">
        <ele>80</ele>
        <time>2022-08-20T08:37:10Z</time>
      </trkpt>
      <trkpt lat="47.18452" lon="-1.77899">
        <ele>80</ele>
        <time>2022-08-20T08:37:12Z</time>
      </trkpt>
      <trkpt lat="47.18463" lon="-1.77899">
        <ele>80</ele>
        <time>2022-08-20T08:37:14Z</time>
      </trkpt>
      <trkpt lat="47.18475" lon="-1.77898">
        <ele>80</ele>
        <time>2022-08-20T08:37:16Z</time>
      </trkpt>
      <trkpt lat="47.18487" lon="-1.77896">
        <ele>79</ele>
        <time>2022-08-20T08:37:18Z</time>
      </trkpt>
      <trkpt lat="47.18498" lon="-1.77893">
        <ele>79</ele>
        <time>2022-08-20T08:37:20Z</time>
      </trkpt>
      <trkpt lat="47.18506" lon="-1.77889">
        <ele>79</ele>
        <time>2022-08-20T08:37:22Z</time>
      </trkpt>
      <trkpt lat="47.18516" lon="-1.77883">
        <ele>79</ele>
        <time>2022-08-20T08:37:24Z</time>
      </trkpt>
      <trkpt lat="47.18527" lon="-1.77881">
        <ele>79</ele>
        <time>2022-08-20T08:37:26Z</time>
      </trkpt>
      <trkpt lat="47.18537" lon="-1.77893">
        <ele>79</ele>
        <time>2022-08-20T08:37:28Z</time>
      </trkpt>
      <trkpt lat="47.18543" lon="-1.7791">
        <ele>79</ele>
        <time>2022-08-20T08:37:30Z</time>
      </trkpt>
      <trkpt lat="47.1855" lon="-1.77926">
        <ele>78</ele>
        <time>2022-08-20T08:37:32Z</time>
      </trkpt>
      <trkpt lat="47.18556" lon="-1.77943">
        <ele>78</ele>
        <time>2022-08-20T08:37:34Z</time>
      </trkpt>
      <trkpt lat="47.18556" lon="-1.77964">
        <ele>77</ele>
        <time>2022-08-20T08:37:36Z</time>
      </trkpt>
      <trkpt lat="47.1855" lon="-1.77982">
        <ele>78</ele>
        <time>2022-08-20T08:37:38Z</time>
      </trkpt>
      <trkpt lat="47.1854" lon="-1.77997">
        <ele>77</ele>
        <time>2022-08-20T08:37:40Z</time>
      </trkpt>
      <trkpt lat="47.18532" lon="-1.78015">
        <ele>77</ele>
        <time>2022-08-20T08:37:42Z</time>
      </trkpt>
      <trkpt lat="47.18528" lon="-1.78037">
        <ele>76</ele>
        <time>2022-08-20T08:37:44Z</time>
      </trkpt>
      <trkpt lat="47.18524" lon="-1.78059">
        <ele>76</ele>
        <time>2022-08-20T08:37:46Z</time>
      </trkpt>
      <trkpt lat="47.18521" lon="-1.78081">
        <ele>76</ele>
        <time>2022-08-20T08:37:48Z</time>
      </trkpt>
      <trkpt lat="47.18519" lon="-1.78103">
        <ele>75</ele>
        <time>2022-08-20T08:37:50Z</time>
      </trkpt>
      <trkpt lat="47.18516" lon="-1.78125">
        <ele>75</ele>
        <time>2022-08-20T08:37:52Z</time>
      </trkpt>
      <trkpt lat="47.18514" lon="-1.78148">
        <ele>75</ele>
        <time>2022-08-20T08:37:54Z</time>
      </trkpt>
      <trkpt lat="47.18514" lon="-1.78171">
        <ele>74</ele>
        <time>2022-08-20T08:37:56Z</time>
      </trkpt>
      <trkpt lat="47.18514" lon="-1.78193">
        <ele>74</ele>
        <time>2022-08-20T08:37:58Z</time>
      </trkpt>
      <trkpt lat="47.18514" lon="-1.78216">
        <ele>73</ele>
        <time>2022-08-20T08:38:00Z</time>
      </trkpt>
      <trkpt lat="47.18515" lon="-1.78239">
        <ele>73</ele>
        <time>2022-08-20T08:38:02Z</time>
      </trkpt>
      <trkpt lat="47.18517" lon="-1.78261">
        <ele>73</ele>
        <time>2022-08-20T08:38:04Z</time>
      </trkpt>
      <trkpt lat="47.1852" lon="-1.78284">
        <ele>72</ele>
        <time>2022-08-20T08:38:06Z</time>
      </trkpt>
      <trkpt lat="47.18523" lon="-1.78317">
        <ele>72</ele>
        <time>2022-08-20T08:38:09Z</time>
      </trkpt>
      <trkpt lat="47.18526" lon="-1.78339">
        <ele>72</ele>
        <time>2022-08-20T08:38:11Z</time>
      </trkpt>
      <trkpt lat="47.18528" lon="-1.78362">
        <ele>72</ele>
        <time>2022-08-20T08:38:13Z</time>
      </trkpt>
      <trkpt lat="47.18531" lon="-1.78384">
        <ele>71</ele>
        <time>2022-08-20T08:38:15Z</time>
      </trkpt>
      <trkpt lat="47.18534" lon="-1.78418">
        <ele>71</ele>
        <time>2022-08-20T08:38:18Z</time>
      </trkpt>
      <trkpt lat="47.18537" lon="-1.7844">
        <ele>70</ele>
        <time>2022-08-20T08:38:20Z</time>
      </trkpt>
      <trkpt lat="47.1854" lon="-1.78474">
        <ele>70</ele>
        <time>2022-08-20T08:38:23Z</time>
      </trkpt>
      <trkpt lat="47.18542" lon="-1.78496">
        <ele>70</ele>
        <time>2022-08-20T08:38:25Z</time>
      </trkpt>
      <trkpt lat="47.18545" lon="-1.78517">
        <ele>70</ele>
        <time>2022-08-20T08:38:27Z</time>
      </trkpt>
      <trkpt lat="47.18551" lon="-1.78548">
        <ele>71</ele>
        <time>2022-08-20T08:38:30Z</time>
      </trkpt>
      <trkpt lat="47.1856" lon="-1.78576">
        <ele>71</ele>
        <time>2022-08-20T08:38:33Z</time>
      </trkpt>
      <trkpt lat="47.18567" lon="-1.78594">
        <ele>71</ele>
        <time>2022-08-20T08:38:35Z</time>
      </trkpt>
      <trkpt lat="47.18574" lon="-1.78612">
        <ele>71</ele>
        <time>2022-08-20T08:38:37Z</time>
      </trkpt>
      <trkpt lat="47.1858" lon="-1.7863">
        <ele>71</ele>
        <time>2022-08-20T08:38:39Z</time>
      </trkpt>
      <trkpt lat="47.18586" lon="-1.78647">
        <ele>71</ele>
        <time>2022-08-20T08:38:41Z</time>
      </trkpt>
      <trkpt lat="47.18592" lon="-1.78665">
        <ele>71</ele>
        <time>2022-08-20T08:38:43Z</time>
      </trkpt>
      <trkpt lat="47.18597" lon="-1.78684">
        <ele>71</ele>
        <time>2022-08-20T08:38:45Z</time>
      </trkpt>
      <trkpt lat="47.18601" lon="-1.78703">
        <ele>71</ele>
        <time>2022-08-20T08:38:47Z</time>
      </trkpt>
      <trkpt lat="47.18606" lon="-1.78722">
        <ele>71</ele>
        <time>2022-08-20T08:38:49Z</time>
      </trkpt>
      <trkpt lat="47.1861" lon="-1.7874">
        <ele>71</ele>
        <time>2022-08-20T08:38:51Z</time>
      </trkpt>
      <trkpt lat="47.18615" lon="-1.78758">
        <ele>71</ele>
        <time>2022-08-20T08:38:53Z</time>
      </trkpt>
      <trkpt lat="47.18619" lon="-1.78776">
        <ele>71</ele>
        <time>2022-08-20T08:38:55Z</time>
      </trkpt>
      <trkpt lat="47.18624" lon="-1.78794">
        <ele>71</ele>
        <time>2022-08-20T08:38:57Z</time>
      </trkpt>
      <trkpt lat="47.18629" lon="-1.78812">
        <ele>71</ele>
        <time>2022-08-20T08:38:59Z</time>
      </trkpt>
      <trkpt lat="47.18636" lon="-1.78828">
        <ele>71</ele>
        <time>2022-08-20T08:39:01Z</time>
      </trkpt>
      <trkpt lat="47.18645" lon="-1.78843">
        <ele>71</ele>
        <time>2022-08-20T08:39:03Z</time>
      </trkpt>
      <trkpt lat="47.18656" lon="-1.78855">
        <ele>71</ele>
        <time>2022-08-20T08:39:05Z</time>
      </trkpt>
      <trkpt lat="47.18668" lon="-1.78864">
        <ele>72</ele>
        <time>2022-08-20T08:39:07Z</time>
      </trkpt>
      <trkpt lat="47.18681" lon="-1.78872">
        <ele>72</ele>
        <time>2022-08-20T08:39:09Z</time>
      </trkpt>
      <trkpt lat="47.18693" lon="-1.7888">
        <ele>71</ele>
        <time>2022-08-20T08:39:11Z</time>
      </trkpt>
      <trkpt lat="47.18704" lon="-1.78888">
        <ele>71</ele>
        <time>2022-08-20T08:39:13Z</time>
      </trkpt>
      <trkpt lat="47.18716" lon="-1.78887">
        <ele>71</ele>
        <time>2022-08-20T08:39:15Z</time>
      </trkpt>
      <trkpt lat="47.18723" lon="-1.78871">
        <ele>71</ele>
        <time>2022-08-20T08:39:17Z</time>
      </trkpt>
      <trkpt lat="47.18728" lon="-1.78853">
        <ele>71</ele>
        <time>2022-08-20T08:39:19Z</time>
      </trkpt>
      <trkpt lat="47.18734" lon="-1.78834">
        <ele>72</ele>
        <time>2022-08-20T08:39:21Z</time>
      </trkpt>
      <trkpt lat="47.18741" lon="-1.78816">
        <ele>72</ele>
        <time>2022-08-20T08:39:23Z</time>
      </trkpt>
      <trkpt lat="47.18747" lon="-1.78799">
        <ele>73</ele>
        <time>2022-08-20T08:39:25Z</time>
      </trkpt>
      <trkpt lat="47.18754" lon="-1.78781">
        <ele>73</ele>
        <time>2022-08-20T08:39:27Z</time>
      </trkpt>
      <trkpt lat="47.18761" lon="-1.78765">
        <ele>73</ele>
        <time>2022-08-20T08:39:29Z</time>
      </trkpt>
      <trkpt lat="47.1877" lon="-1.7875">
        <ele>74</ele>
        <time>2022-08-20T08:39:31Z</time>
      </trkpt>
      <trkpt lat="47.18779" lon="-1.78734">
        <ele>74</ele>
        <time>2022-08-20T08:39:33Z</time>
      </trkpt>
      <trkpt lat="47.1879" lon="-1.7872">
        <ele>75</ele>
        <time>2022-08-20T08:39:35Z</time>
      </trkpt>
      <trkpt lat="47.18801" lon="-1.78706">
        <ele>76</ele>
        <time>2022-08-20T08:39:37Z</time>
      </trkpt>
      <trkpt lat="47.18813" lon="-1.78694">
        <ele>77</ele>
        <time>2022-08-20T08:39:39Z</time>
      </trkpt>
      <trkpt lat="47.18825" lon="-1.78683">
        <ele>77</ele>
        <time>2022-08-20T08:39:41Z</time>
      </trkpt>
      <trkpt lat="47.18837" lon="-1.78671">
        <ele>77</ele>
        <time>2022-08-20T08:39:43Z</time>
      </trkpt>
      <trkpt lat="47.18848" lon="-1.7866">
        <ele>78</ele>
        <time>2022-08-20T08:39:45Z</time>
      </trkpt>
      <trkpt lat="47.18859" lon="-1.78663">
        <ele>79</ele>
        <time>2022-08-20T08:39:47Z</time>
      </trkpt>
      <trkpt lat="47.18866" lon="-1.78684">
        <ele>78</ele>
        <time>2022-08-20T08:39:49Z</time>
      </trkpt>
      <trkpt lat="47.18868" lon="-1.78705">
        <ele>77</ele>
        <time>2022-08-20T08:39:51Z</time>
      </trkpt>
      <trkpt lat="47.18869" lon="-1.78728">
        <ele>76</ele>
        <time>2022-08-20T08:39:53Z</time>
      </trkpt>
      <trkpt lat="47.18871" lon="-1.78749">
        <ele>75</ele>
        <time>2022-08-20T08:39:55Z</time>
      </trkpt>
      <trkpt lat="47.18873" lon="-1.7877">
        <ele>74</ele>
        <time>2022-08-20T08:39:57Z</time>
      </trkpt>
      <trkpt lat="47.18875" lon="-1.78792">
        <ele>74</ele>
        <time>2022-08-20T08:39:59Z</time>
      </trkpt>
      <trkpt lat="47.18878" lon="-1.78813">
        <ele>72</ele>
        <time>2022-08-20T08:40:01Z</time>
      </trkpt>
      <trkpt lat="47.1888" lon="-1.78835">
        <ele>72</ele>
        <time>2022-08-20T08:40:03Z</time>
      </trkpt>
      <trkpt lat="47.18882" lon="-1.78856">
        <ele>72</ele>
        <time>2022-08-20T08:40:05Z</time>
      </trkpt>
      <trkpt lat="47.18884" lon="-1.78877">
        <ele>72</ele>
        <time>2022-08-20T08:40:07Z</time>
      </trkpt>
      <trkpt lat="47.18886" lon="-1.78899">
        <ele>72</ele>
        <time>2022-08-20T08:40:09Z</time>
      </trkpt>
      <trkpt lat="47.18888" lon="-1.78919">
        <ele>71</ele>
        <time>2022-08-20T08:40:11Z</time>
      </trkpt>
      <trkpt lat="47.1889" lon="-1.7894">
        <ele>71</ele>
        <time>2022-08-20T08:40:13Z</time>
      </trkpt>
      <trkpt lat="47.18892" lon="-1.78962">
        <ele>70</ele>
        <time>2022-08-20T08:40:15Z</time>
      </trkpt>
      <trkpt lat="47.18894" lon="-1.78983">
        <ele>70</ele>
        <time>2022-08-20T08:40:17Z</time>
      </trkpt>
      <trkpt lat="47.18896" lon="-1.79005">
        <ele>69</ele>
        <time>2022-08-20T08:40:19Z</time>
      </trkpt>
      <trkpt lat="47.18898" lon="-1.79026">
        <ele>69</ele>
        <time>2022-08-20T08:40:21Z</time>
      </trkpt>
      <trkpt lat="47.189" lon="-1.79047">
        <ele>69</ele>
        <time>2022-08-20T08:40:23Z</time>
      </trkpt>
      <trkpt lat="47.18903" lon="-1.79069">
        <ele>69</ele>
        <time>2022-08-20T08:40:25Z</time>
      </trkpt>
      <trkpt lat="47.18904" lon="-1.7909">
        <ele>68</ele>
        <time>2022-08-20T08:40:27Z</time>
      </trkpt>
      <trkpt lat="47.18906" lon="-1.79111">
        <ele>68</ele>
        <time>2022-08-20T08:40:29Z</time>
      </trkpt>
      <trkpt lat="47.18909" lon="-1.79133">
        <ele>68</ele>
        <time>2022-08-20T08:40:31Z</time>
      </trkpt>
      <trkpt lat="47.18911" lon="-1.79155">
        <ele>68</ele>
        <time>2022-08-20T08:40:33Z</time>
      </trkpt>
      <trkpt lat="47.18915" lon="-1.79177">
        <ele>68</ele>
        <time>2022-08-20T08:40:35Z</time>
      </trkpt>
      <trkpt lat="47.18918" lon="-1.79198">
        <ele>68</ele>
        <time>2022-08-20T08:40:37Z</time>
      </trkpt>
      <trkpt lat="47.18923" lon="-1.79219">
        <ele>68</ele>
        <time>2022-08-20T08:40:39Z</time>
      </trkpt>
      <trkpt lat="47.18927" lon="-1.7924">
        <ele>68</ele>
        <time>2022-08-20T08:40:41Z</time>
      </trkpt>
      <trkpt lat="47.18932" lon="-1.79262">
        <ele>67</ele>
        <time>2022-08-20T08:40:43Z</time>
      </trkpt>
      <trkpt lat="47.18936" lon="-1.79282">
        <ele>67</ele>
        <time>2022-08-20T08:40:45Z</time>
      </trkpt>
      <trkpt lat="47.18939" lon="-1.79304">
        <ele>67</ele>
        <time>2022-08-20T08:40:47Z</time>
      </trkpt>
      <trkpt lat="47.18943" lon="-1.79326">
        <ele>66</ele>
        <time>2022-08-20T08:40:49Z</time>
      </trkpt>
      <trkpt lat="47.18947" lon="-1.79348">
        <ele>66</ele>
        <time>2022-08-20T08:40:51Z</time>
      </trkpt>
      <trkpt lat="47.1895" lon="-1.79369">
        <ele>67</ele>
        <time>2022-08-20T08:40:53Z</time>
      </trkpt>
      <trkpt lat="47.18954" lon="-1.79389">
        <ele>68</ele>
        <time>2022-08-20T08:40:55Z</time>
      </trkpt>
      <trkpt lat="47.18958" lon="-1.7941">
        <ele>68</ele>
        <time>2022-08-20T08:40:57Z</time>
      </trkpt>
      <trkpt lat="47.18961" lon="-1.79431">
        <ele>68</ele>
        <time>2022-08-20T08:40:59Z</time>
      </trkpt>
      <trkpt lat="47.18963" lon="-1.79452">
        <ele>67</ele>
        <time>2022-08-20T08:41:01Z</time>
      </trkpt>
      <trkpt lat="47.18966" lon="-1.79472">
        <ele>67</ele>
        <time>2022-08-20T08:41:03Z</time>
      </trkpt>
      <trkpt lat="47.1897" lon="-1.79493">
        <ele>67</ele>
        <time>2022-08-20T08:41:05Z</time>
      </trkpt>
      <trkpt lat="47.18974" lon="-1.79513">
        <ele>67</ele>
        <time>2022-08-20T08:41:07Z</time>
      </trkpt>
      <trkpt lat="47.18979" lon="-1.79534">
        <ele>67</ele>
        <time>2022-08-20T08:41:09Z</time>
      </trkpt>
      <trkpt lat="47.18983" lon="-1.79553">
        <ele>67</ele>
        <time>2022-08-20T08:41:11Z</time>
      </trkpt>
      <trkpt lat="47.18988" lon="-1.79574">
        <ele>66</ele>
        <time>2022-08-20T08:41:13Z</time>
      </trkpt>
      <trkpt lat="47.18993" lon="-1.79593">
        <ele>67</ele>
        <time>2022-08-20T08:41:15Z</time>
      </trkpt>
      <trkpt lat="47.18998" lon="-1.79612">
        <ele>67</ele>
        <time>2022-08-20T08:41:17Z</time>
      </trkpt>
      <trkpt lat="47.19003" lon="-1.79632">
        <ele>67</ele>
        <time>2022-08-20T08:41:19Z</time>
      </trkpt>
      <trkpt lat="47.19008" lon="-1.79652">
        <ele>67</ele>
        <time>2022-08-20T08:41:21Z</time>
      </trkpt>
      <trkpt lat="47.19012" lon="-1.79672">
        <ele>66</ele>
        <time>2022-08-20T08:41:23Z</time>
      </trkpt>
      <trkpt lat="47.19016" lon="-1.79691">
        <ele>66</ele>
        <time>2022-08-20T08:41:25Z</time>
      </trkpt>
      <trkpt lat="47.1902" lon="-1.7971">
        <ele>67</ele>
        <time>2022-08-20T08:41:27Z</time>
      </trkpt>
      <trkpt lat="47.19025" lon="-1.79729">
        <ele>67</ele>
        <time>2022-08-20T08:41:29Z</time>
      </trkpt>
      <trkpt lat="47.19031" lon="-1.79747">
        <ele>66</ele>
        <time>2022-08-20T08:41:31Z</time>
      </trkpt>
      <trkpt lat="47.19037" lon="-1.79764">
        <ele>66</ele>
        <time>2022-08-20T08:41:33Z</time>
      </trkpt>
      <trkpt lat="47.19044" lon="-1.7978">
        <ele>66</ele>
        <time>2022-08-20T08:41:35Z</time>
      </trkpt>
      <trkpt lat="47.19052" lon="-1.79797">
        <ele>67</ele>
        <time>2022-08-20T08:41:37Z</time>
      </trkpt>
      <trkpt lat="47.19059" lon="-1.79815">
        <ele>67</ele>
        <time>2022-08-20T08:41:39Z</time>
      </trkpt>
      <trkpt lat="47.19067" lon="-1.79832">
        <ele>67</ele>
        <time>2022-08-20T08:41:41Z</time>
      </trkpt>
      <trkpt lat="47.19074" lon="-1.7985">
        <ele>68</ele>
        <time>2022-08-20T08:41:43Z</time>
      </trkpt>
      <trkpt lat="47.19081" lon="-1.79867">
        <ele>68</ele>
        <time>2022-08-20T08:41:45Z</time>
      </trkpt>
      <trkpt lat="47.19088" lon="-1.79884">
        <ele>68</ele>
        <time>2022-08-20T08:41:47Z</time>
      </trkpt>
      <trkpt lat="47.19096" lon="-1.79901">
        <ele>68</ele>
        <time>2022-08-20T08:41:49Z</time>
      </trkpt>
      <trkpt lat="47.19103" lon="-1.79917">
        <ele>69</ele>
        <time>2022-08-20T08:41:51Z</time>
      </trkpt>
      <trkpt lat="47.19111" lon="-1.79933">
        <ele>68</ele>
        <time>2022-08-20T08:41:53Z</time>
      </trkpt>
      <trkpt lat="47.19118" lon="-1.7995">
        <ele>68</ele>
        <time>2022-08-20T08:41:55Z</time>
      </trkpt>
      <trkpt lat="47.19125" lon="-1.79966">
        <ele>68</ele>
        <time>2022-08-20T08:41:57Z</time>
      </trkpt>
      <trkpt lat="47.19132" lon="-1.79982">
        <ele>68</ele>
        <time>2022-08-20T08:41:59Z</time>
      </trkpt>
      <trkpt lat="47.19139" lon="-1.79997">
        <ele>68</ele>
        <time>2022-08-20T08:42:01Z</time>
      </trkpt>
      <trkpt lat="47.19145" lon="-1.80011">
        <ele>67</ele>
        <time>2022-08-20T08:42:03Z</time>
      </trkpt>
      <trkpt lat="47.19152" lon="-1.80026">
        <ele>66</ele>
        <time>2022-08-20T08:42:05Z</time>
      </trkpt>
      <trkpt lat="47.1916" lon="-1.80042">
        <ele>66</ele>
        <time>2022-08-20T08:42:07Z</time>
      </trkpt>
      <trkpt lat="47.19167" lon="-1.80058">
        <ele>65</ele>
        <time>2022-08-20T08:42:09Z</time>
      </trkpt>
      <trkpt lat="47.19175" lon="-1.80075">
        <ele>65</ele>
        <time>2022-08-20T08:42:11Z</time>
      </trkpt>
      <trkpt lat="47.19182" lon="-1.80091">
        <ele>65</ele>
        <time>2022-08-20T08:42:13Z</time>
      </trkpt>
      <trkpt lat="47.1919" lon="-1.80109">
        <ele>66</ele>
        <time>2022-08-20T08:42:15Z</time>
      </trkpt>
      <trkpt lat="47.19197" lon="-1.80125">
        <ele>66</ele>
        <time>2022-08-20T08:42:17Z</time>
      </trkpt>
      <trkpt lat="47.19205" lon="-1.80143">
        <ele>66</ele>
        <time>2022-08-20T08:42:19Z</time>
      </trkpt>
      <trkpt lat="47.19214" lon="-1.8016">
        <ele>65</ele>
        <time>2022-08-20T08:42:21Z</time>
      </trkpt>
      <trkpt lat="47.19221" lon="-1.80178">
        <ele>65</ele>
        <time>2022-08-20T08:42:23Z</time>
      </trkpt>
      <trkpt lat="47.19228" lon="-1.80197">
        <ele>65</ele>
        <time>2022-08-20T08:42:25Z</time>
      </trkpt>
      <trkpt lat="47.19234" lon="-1.80216">
        <ele>65</ele>
        <time>2022-08-20T08:42:27Z</time>
      </trkpt>
      <trkpt lat="47.1924" lon="-1.80235">
        <ele>65</ele>
        <time>2022-08-20T08:42:29Z</time>
      </trkpt>
      <trkpt lat="47.19246" lon="-1.80256">
        <ele>65</ele>
        <time>2022-08-20T08:42:31Z</time>
      </trkpt>
      <trkpt lat="47.19251" lon="-1.80277">
        <ele>65</ele>
        <time>2022-08-20T08:42:33Z</time>
      </trkpt>
      <trkpt lat="47.19257" lon="-1.80297">
        <ele>64</ele>
        <time>2022-08-20T08:42:35Z</time>
      </trkpt>
      <trkpt lat="47.19263" lon="-1.80317">
        <ele>65</ele>
        <time>2022-08-20T08:42:37Z</time>
      </trkpt>
      <trkpt lat="47.19269" lon="-1.80337">
        <ele>64</ele>
        <time>2022-08-20T08:42:39Z</time>
      </trkpt>
      <trkpt lat="47.19275" lon="-1.80357">
        <ele>64</ele>
        <time>2022-08-20T08:42:41Z</time>
      </trkpt>
      <trkpt lat="47.19282" lon="-1.80378">
        <ele>64</ele>
        <time>2022-08-20T08:42:43Z</time>
      </trkpt>
      <trkpt lat="47.19288" lon="-1.80398">
        <ele>63</ele>
        <time>2022-08-20T08:42:45Z</time>
      </trkpt>
      <trkpt lat="47.19295" lon="-1.80418">
        <ele>64</ele>
        <time>2022-08-20T08:42:47Z</time>
      </trkpt>
      <trkpt lat="47.19302" lon="-1.80438">
        <ele>64</ele>
        <time>2022-08-20T08:42:49Z</time>
      </trkpt>
      <trkpt lat="47.19309" lon="-1.80458">
        <ele>64</ele>
        <time>2022-08-20T08:42:51Z</time>
      </trkpt>
      <trkpt lat="47.19316" lon="-1.80478">
        <ele>63</ele>
        <time>2022-08-20T08:42:53Z</time>
      </trkpt>
      <trkpt lat="47.19323" lon="-1.80498">
        <ele>63</ele>
        <time>2022-08-20T08:42:55Z</time>
      </trkpt>
      <trkpt lat="47.19329" lon="-1.80518">
        <ele>62</ele>
        <time>2022-08-20T08:42:57Z</time>
      </trkpt>
      <trkpt lat="47.19336" lon="-1.80539">
        <ele>61</ele>
        <time>2022-08-20T08:42:59Z</time>
      </trkpt>
      <trkpt lat="47.19341" lon="-1.80561">
        <ele>61</ele>
        <time>2022-08-20T08:43:01Z</time>
      </trkpt>
      <trkpt lat="47.19345" lon="-1.80582">
        <ele>61</ele>
        <time>2022-08-20T08:43:03Z</time>
      </trkpt>
      <trkpt lat="47.19348" lon="-1.80603">
        <ele>61</ele>
        <time>2022-08-20T08:43:05Z</time>
      </trkpt>
      <trkpt lat="47.1935" lon="-1.80624">
        <ele>60</ele>
        <time>2022-08-20T08:43:07Z</time>
      </trkpt>
      <trkpt lat="47.19351" lon="-1.80645">
        <ele>60</ele>
        <time>2022-08-20T08:43:09Z</time>
      </trkpt>
      <trkpt lat="47.19352" lon="-1.80666">
        <ele>60</ele>
        <time>2022-08-20T08:43:11Z</time>
      </trkpt>
      <trkpt lat="47.19351" lon="-1.80687">
        <ele>61</ele>
        <time>2022-08-20T08:43:13Z</time>
      </trkpt>
      <trkpt lat="47.19347" lon="-1.80708">
        <ele>61</ele>
        <time>2022-08-20T08:43:15Z</time>
      </trkpt>
      <trkpt lat="47.19344" lon="-1.80727">
        <ele>61</ele>
        <time>2022-08-20T08:43:17Z</time>
      </trkpt>
      <trkpt lat="47.19344" lon="-1.80746">
        <ele>61</ele>
        <time>2022-08-20T08:43:19Z</time>
      </trkpt>
      <trkpt lat="47.19348" lon="-1.80766">
        <ele>63</ele>
        <time>2022-08-20T08:43:21Z</time>
      </trkpt>
      <trkpt lat="47.19352" lon="-1.80788">
        <ele>63</ele>
        <time>2022-08-20T08:43:23Z</time>
      </trkpt>
      <trkpt lat="47.19357" lon="-1.8081">
        <ele>63</ele>
        <time>2022-08-20T08:43:25Z</time>
      </trkpt>
      <trkpt lat="47.19361" lon="-1.80832">
        <ele>63</ele>
        <time>2022-08-20T08:43:27Z</time>
      </trkpt>
      <trkpt lat="47.19364" lon="-1.80853">
        <ele>62</ele>
        <time>2022-08-20T08:43:29Z</time>
      </trkpt>
      <trkpt lat="47.19367" lon="-1.80875">
        <ele>61</ele>
        <time>2022-08-20T08:43:31Z</time>
      </trkpt>
      <trkpt lat="47.1937" lon="-1.80896">
        <ele>60</ele>
        <time>2022-08-20T08:43:33Z</time>
      </trkpt>
      <trkpt lat="47.19373" lon="-1.80918">
        <ele>60</ele>
        <time>2022-08-20T08:43:35Z</time>
      </trkpt>
      <trkpt lat="47.19376" lon="-1.80939">
        <ele>60</ele>
        <time>2022-08-20T08:43:37Z</time>
      </trkpt>
      <trkpt lat="47.19378" lon="-1.80961">
        <ele>59</ele>
        <time>2022-08-20T08:43:39Z</time>
      </trkpt>
      <trkpt lat="47.1938" lon="-1.80982">
        <ele>60</ele>
        <time>2022-08-20T08:43:41Z</time>
      </trkpt>
      <trkpt lat="47.19382" lon="-1.81004">
        <ele>59</ele>
        <time>2022-08-20T08:43:43Z</time>
      </trkpt>
      <trkpt lat="47.19385" lon="-1.81024">
        <ele>59</ele>
        <time>2022-08-20T08:43:45Z</time>
      </trkpt>
      <trkpt lat="47.19387" lon="-1.81043">
        <ele>60</ele>
        <time>2022-08-20T08:43:47Z</time>
      </trkpt>
      <trkpt lat="47.1939" lon="-1.81062">
        <ele>60</ele>
        <time>2022-08-20T08:43:49Z</time>
      </trkpt>
      <trkpt lat="47.19392" lon="-1.81081">
        <ele>59</ele>
        <time>2022-08-20T08:43:51Z</time>
      </trkpt>
      <trkpt lat="47.19394" lon="-1.81098">
        <ele>59</ele>
        <time>2022-08-20T08:43:53Z</time>
      </trkpt>
      <trkpt lat="47.19398" lon="-1.81113">
        <ele>59</ele>
        <time>2022-08-20T08:43:55Z</time>
      </trkpt>
      <trkpt lat="47.1941" lon="-1.81122">
        <ele>58</ele>
        <time>2022-08-20T08:43:57Z</time>
      </trkpt>
      <trkpt lat="47.19424" lon="-1.81124">
        <ele>58</ele>
        <time>2022-08-20T08:43:59Z</time>
      </trkpt>
      <trkpt lat="47.19438" lon="-1.81124">
        <ele>59</ele>
        <time>2022-08-20T08:44:01Z</time>
      </trkpt>
      <trkpt lat="47.19453" lon="-1.81124">
        <ele>59</ele>
        <time>2022-08-20T08:44:03Z</time>
      </trkpt>
      <trkpt lat="47.19468" lon="-1.81124">
        <ele>59</ele>
        <time>2022-08-20T08:44:05Z</time>
      </trkpt>
      <trkpt lat="47.19482" lon="-1.81123">
        <ele>59</ele>
        <time>2022-08-20T08:44:07Z</time>
      </trkpt>
      <trkpt lat="47.19496" lon="-1.81123">
        <ele>59</ele>
        <time>2022-08-20T08:44:09Z</time>
      </trkpt>
      <trkpt lat="47.1951" lon="-1.81123">
        <ele>60</ele>
        <time>2022-08-20T08:44:11Z</time>
      </trkpt>
      <trkpt lat="47.19525" lon="-1.81122">
        <ele>60</ele>
        <time>2022-08-20T08:44:13Z</time>
      </trkpt>
      <trkpt lat="47.19541" lon="-1.81121">
        <ele>59</ele>
        <time>2022-08-20T08:44:15Z</time>
      </trkpt>
      <trkpt lat="47.19555" lon="-1.8112">
        <ele>59</ele>
        <time>2022-08-20T08:44:17Z</time>
      </trkpt>
      <trkpt lat="47.19571" lon="-1.81119">
        <ele>58</ele>
        <time>2022-08-20T08:44:19Z</time>
      </trkpt>
      <trkpt lat="47.19586" lon="-1.8112">
        <ele>58</ele>
        <time>2022-08-20T08:44:21Z</time>
      </trkpt>
      <trkpt lat="47.19601" lon="-1.81119">
        <ele>58</ele>
        <time>2022-08-20T08:44:23Z</time>
      </trkpt>
      <trkpt lat="47.19616" lon="-1.81119">
        <ele>58</ele>
        <time>2022-08-20T08:44:25Z</time>
      </trkpt>
      <trkpt lat="47.1963" lon="-1.81118">
        <ele>58</ele>
        <time>2022-08-20T08:44:27Z</time>
      </trkpt>
      <trkpt lat="47.19646" lon="-1.81119">
        <ele>58</ele>
        <time>2022-08-20T08:44:29Z</time>
      </trkpt>
      <trkpt lat="47.19661" lon="-1.81119">
        <ele>58</ele>
        <time>2022-08-20T08:44:31Z</time>
      </trkpt>
      <trkpt lat="47.19674" lon="-1.81118">
        <ele>57</ele>
        <time>2022-08-20T08:44:33Z</time>
      </trkpt>
      <trkpt lat="47.19685" lon="-1.81118">
        <ele>57</ele>
        <time>2022-08-20T08:44:35Z</time>
      </trkpt>
      <trkpt lat="47.19694" lon="-1.81118">
        <ele>57</ele>
        <time>2022-08-20T08:44:41Z</time>
      </trkpt>
      <trkpt lat="47.19701" lon="-1.81131">
        <ele>57</ele>
        <time>2022-08-20T08:44:44Z</time>
      </trkpt>
      <trkpt lat="47.19705" lon="-1.81147">
        <ele>56</ele>
        <time>2022-08-20T08:44:46Z</time>
      </trkpt>
      <trkpt lat="47.19707" lon="-1.81166">
        <ele>55</ele>
        <time>2022-08-20T08:44:48Z</time>
      </trkpt>
      <trkpt lat="47.19711" lon="-1.81184">
        <ele>54</ele>
        <time>2022-08-20T08:44:50Z</time>
      </trkpt>
      <trkpt lat="47.19717" lon="-1.81203">
        <ele>54</ele>
        <time>2022-08-20T08:44:52Z</time>
      </trkpt>
      <trkpt lat="47.19725" lon="-1.81219">
        <ele>54</ele>
        <time>2022-08-20T08:44:54Z</time>
      </trkpt>
      <trkpt lat="47.19734" lon="-1.81234">
        <ele>54</ele>
        <time>2022-08-20T08:44:56Z</time>
      </trkpt>
      <trkpt lat="47.19744" lon="-1.81248">
        <ele>55</ele>
        <time>2022-08-20T08:44:58Z</time>
      </trkpt>
      <trkpt lat="47.19753" lon="-1.81263">
        <ele>54</ele>
        <time>2022-08-20T08:45:00Z</time>
      </trkpt>
      <trkpt lat="47.19761" lon="-1.81279">
        <ele>54</ele>
        <time>2022-08-20T08:45:02Z</time>
      </trkpt>
      <trkpt lat="47.19768" lon="-1.81297">
        <ele>54</ele>
        <time>2022-08-20T08:45:04Z</time>
      </trkpt>
      <trkpt lat="47.19774" lon="-1.81315">
        <ele>54</ele>
        <time>2022-08-20T08:45:06Z</time>
      </trkpt>
      <trkpt lat="47.19779" lon="-1.81332">
        <ele>55</ele>
        <time>2022-08-20T08:45:08Z</time>
      </trkpt>
      <trkpt lat="47.19784" lon="-1.81349">
        <ele>55</ele>
        <time>2022-08-20T08:45:10Z</time>
      </trkpt>
      <trkpt lat="47.19788" lon="-1.81365">
        <ele>56</ele>
        <time>2022-08-20T08:45:12Z</time>
      </trkpt>
      <trkpt lat="47.19793" lon="-1.8138">
        <ele>56</ele>
        <time>2022-08-20T08:45:14Z</time>
      </trkpt>
      <trkpt lat="47.19798" lon="-1.81397">
        <ele>56</ele>
        <time>2022-08-20T08:45:16Z</time>
      </trkpt>
      <trkpt lat="47.19802" lon="-1.81412">
        <ele>56</ele>
        <time>2022-08-20T08:45:18Z</time>
      </trkpt>
      <trkpt lat="47.19807" lon="-1.81427">
        <ele>56</ele>
        <time>2022-08-20T08:45:20Z</time>
      </trkpt>
      <trkpt lat="47.19812" lon="-1.81442">
        <ele>57</ele>
        <time>2022-08-20T08:45:22Z</time>
      </trkpt>
      <trkpt lat="47.19817" lon="-1.81458">
        <ele>57</ele>
        <time>2022-08-20T08:45:24Z</time>
      </trkpt>
      <trkpt lat="47.19822" lon="-1.81472">
        <ele>57</ele>
        <time>2022-08-20T08:45:26Z</time>
      </trkpt>
      <trkpt lat="47.19828" lon="-1.81487">
        <ele>57</ele>
        <time>2022-08-20T08:45:28Z</time>
      </trkpt>
      <trkpt lat="47.19834" lon="-1.81502">
        <ele>57</ele>
        <time>2022-08-20T08:45:30Z</time>
      </trkpt>
      <trkpt lat="47.1984" lon="-1.81517">
        <ele>58</ele>
        <time>2022-08-20T08:45:32Z</time>
      </trkpt>
      <trkpt lat="47.19845" lon="-1.81533">
        <ele>58</ele>
        <time>2022-08-20T08:45:34Z</time>
      </trkpt>
      <trkpt lat="47.19851" lon="-1.81548">
        <ele>58</ele>
        <time>2022-08-20T08:45:36Z</time>
      </trkpt>
      <trkpt lat="47.19857" lon="-1.81566">
        <ele>57</ele>
        <time>2022-08-20T08:45:38Z</time>
      </trkpt>
      <trkpt lat="47.19862" lon="-1.81583">
        <ele>58</ele>
        <time>2022-08-20T08:45:40Z</time>
      </trkpt>
      <trkpt lat="47.19866" lon="-1.816">
        <ele>58</ele>
        <time>2022-08-20T08:45:42Z</time>
      </trkpt>
      <trkpt lat="47.1987" lon="-1.81617">
        <ele>58</ele>
        <time>2022-08-20T08:45:44Z</time>
      </trkpt>
      <trkpt lat="47.19873" lon="-1.81635">
        <ele>58</ele>
        <time>2022-08-20T08:45:46Z</time>
      </trkpt>
      <trkpt lat="47.19876" lon="-1.81653">
        <ele>58</ele>
        <time>2022-08-20T08:45:48Z</time>
      </trkpt>
      <trkpt lat="47.19879" lon="-1.81671">
        <ele>59</ele>
        <time>2022-08-20T08:45:50Z</time>
      </trkpt>
      <trkpt lat="47.19881" lon="-1.81689">
        <ele>59</ele>
        <time>2022-08-20T08:45:52Z</time>
      </trkpt>
      <trkpt lat="47.19884" lon="-1.81707">
        <ele>59</ele>
        <time>2022-08-20T08:45:54Z</time>
      </trkpt>
      <trkpt lat="47.19886" lon="-1.81725">
        <ele>59</ele>
        <time>2022-08-20T08:45:56Z</time>
      </trkpt>
      <trkpt lat="47.19889" lon="-1.81742">
        <ele>59</ele>
        <time>2022-08-20T08:45:58Z</time>
      </trkpt>
      <trkpt lat="47.19893" lon="-1.8176">
        <ele>60</ele>
        <time>2022-08-20T08:46:00Z</time>
      </trkpt>
      <trkpt lat="47.19897" lon="-1.81777">
        <ele>60</ele>
        <time>2022-08-20T08:46:02Z</time>
      </trkpt>
      <trkpt lat="47.199" lon="-1.81794">
        <ele>61</ele>
        <time>2022-08-20T08:46:04Z</time>
      </trkpt>
      <trkpt lat="47.19904" lon="-1.81809">
        <ele>61</ele>
        <time>2022-08-20T08:46:06Z</time>
      </trkpt>
      <trkpt lat="47.19908" lon="-1.81826">
        <ele>61</ele>
        <time>2022-08-20T08:46:08Z</time>
      </trkpt>
      <trkpt lat="47.19912" lon="-1.81842">
        <ele>61</ele>
        <time>2022-08-20T08:46:10Z</time>
      </trkpt>
      <trkpt lat="47.19914" lon="-1.8186">
        <ele>62</ele>
        <time>2022-08-20T08:46:12Z</time>
      </trkpt>
      <trkpt lat="47.19917" lon="-1.81878">
        <ele>62</ele>
        <time>2022-08-20T08:46:14Z</time>
      </trkpt>
      <trkpt lat="47.1992" lon="-1.81895">
        <ele>62</ele>
        <time>2022-08-20T08:46:16Z</time>
      </trkpt>
      <trkpt lat="47.19923" lon="-1.81911">
        <ele>62</ele>
        <time>2022-08-20T08:46:18Z</time>
      </trkpt>
      <trkpt lat="47.19926" lon="-1.81928">
        <ele>62</ele>
        <time>2022-08-20T08:46:20Z</time>
      </trkpt>
      <trkpt lat="47.19929" lon="-1.81945">
        <ele>62</ele>
        <time>2022-08-20T08:46:22Z</time>
      </trkpt>
      <trkpt lat="47.19933" lon="-1.81962">
        <ele>62</ele>
        <time>2022-08-20T08:46:24Z</time>
      </trkpt>
      <trkpt lat="47.19936" lon="-1.81979">
        <ele>62</ele>
        <time>2022-08-20T08:46:26Z</time>
      </trkpt>
      <trkpt lat="47.19939" lon="-1.81996">
        <ele>62</ele>
        <time>2022-08-20T08:46:28Z</time>
      </trkpt>
      <trkpt lat="47.19942" lon="-1.82013">
        <ele>62</ele>
        <time>2022-08-20T08:46:30Z</time>
      </trkpt>
      <trkpt lat="47.19945" lon="-1.8203">
        <ele>62</ele>
        <time>2022-08-20T08:46:32Z</time>
      </trkpt>
      <trkpt lat="47.19948" lon="-1.82046">
        <ele>62</ele>
        <time>2022-08-20T08:46:34Z</time>
      </trkpt>
      <trkpt lat="47.19951" lon="-1.82063">
        <ele>62</ele>
        <time>2022-08-20T08:46:36Z</time>
      </trkpt>
      <trkpt lat="47.19953" lon="-1.8208">
        <ele>63</ele>
        <time>2022-08-20T08:46:38Z</time>
      </trkpt>
      <trkpt lat="47.19955" lon="-1.82097">
        <ele>63</ele>
        <time>2022-08-20T08:46:40Z</time>
      </trkpt>
      <trkpt lat="47.19956" lon="-1.82114">
        <ele>63</ele>
        <time>2022-08-20T08:46:42Z</time>
      </trkpt>
      <trkpt lat="47.19955" lon="-1.82131">
        <ele>64</ele>
        <time>2022-08-20T08:46:44Z</time>
      </trkpt>
      <trkpt lat="47.19952" lon="-1.82148">
        <ele>64</ele>
        <time>2022-08-20T08:46:46Z</time>
      </trkpt>
      <trkpt lat="47.19947" lon="-1.82163">
        <ele>64</ele>
        <time>2022-08-20T08:46:48Z</time>
      </trkpt>
      <trkpt lat="47.19942" lon="-1.82178">
        <ele>64</ele>
        <time>2022-08-20T08:46:50Z</time>
      </trkpt>
      <trkpt lat="47.19936" lon="-1.82192">
        <ele>65</ele>
        <time>2022-08-20T08:46:52Z</time>
      </trkpt>
      <trkpt lat="47.19929" lon="-1.82207">
        <ele>65</ele>
        <time>2022-08-20T08:46:54Z</time>
      </trkpt>
      <trkpt lat="47.19923" lon="-1.82222">
        <ele>65</ele>
        <time>2022-08-20T08:46:56Z</time>
      </trkpt>
      <trkpt lat="47.19917" lon="-1.82237">
        <ele>65</ele>
        <time>2022-08-20T08:46:58Z</time>
      </trkpt>
      <trkpt lat="47.19912" lon="-1.82252">
        <ele>66</ele>
        <time>2022-08-20T08:47:00Z</time>
      </trkpt>
      <trkpt lat="47.19905" lon="-1.82267">
        <ele>67</ele>
        <time>2022-08-20T08:47:02Z</time>
      </trkpt>
      <trkpt lat="47.19899" lon="-1.82281">
        <ele>67</ele>
        <time>2022-08-20T08:47:04Z</time>
      </trkpt>
      <trkpt lat="47.19893" lon="-1.82297">
        <ele>67</ele>
        <time>2022-08-20T08:47:06Z</time>
      </trkpt>
      <trkpt lat="47.19887" lon="-1.82312">
        <ele>67</ele>
        <time>2022-08-20T08:47:08Z</time>
      </trkpt>
      <trkpt lat="47.1988" lon="-1.82328">
        <ele>68</ele>
        <time>2022-08-20T08:47:10Z</time>
      </trkpt>
      <trkpt lat="47.19873" lon="-1.82343">
        <ele>68</ele>
        <time>2022-08-20T08:47:12Z</time>
      </trkpt>
      <trkpt lat="47.19868" lon="-1.82358">
        <ele>68</ele>
        <time>2022-08-20T08:47:14Z</time>
      </trkpt>
      <trkpt lat="47.19862" lon="-1.82375">
        <ele>68</ele>
        <time>2022-08-20T08:47:16Z</time>
      </trkpt>
      <trkpt lat="47.19857" lon="-1.82391">
        <ele>68</ele>
        <time>2022-08-20T08:47:18Z</time>
      </trkpt>
      <trkpt lat="47.19851" lon="-1.82407">
        <ele>69</ele>
        <time>2022-08-20T08:47:20Z</time>
      </trkpt>
      <trkpt lat="47.19845" lon="-1.82423">
        <ele>69</ele>
        <time>2022-08-20T08:47:22Z</time>
      </trkpt>
      <trkpt lat="47.19839" lon="-1.82439">
        <ele>69</ele>
        <time>2022-08-20T08:47:24Z</time>
      </trkpt>
      <trkpt lat="47.19832" lon="-1.82454">
        <ele>68</ele>
        <time>2022-08-20T08:47:26Z</time>
      </trkpt>
      <trkpt lat="47.19825" lon="-1.82468">
        <ele>69</ele>
        <time>2022-08-20T08:47:28Z</time>
      </trkpt>
      <trkpt lat="47.19817" lon="-1.82482">
        <ele>69</ele>
        <time>2022-08-20T08:47:30Z</time>
      </trkpt>
      <trkpt lat="47.19809" lon="-1.82495">
        <ele>69</ele>
        <time>2022-08-20T08:47:32Z</time>
      </trkpt>
      <trkpt lat="47.19801" lon="-1.82507">
        <ele>70</ele>
        <time>2022-08-20T08:47:34Z</time>
      </trkpt>
      <trkpt lat="47.19792" lon="-1.8252">
        <ele>70</ele>
        <time>2022-08-20T08:47:36Z</time>
      </trkpt>
      <trkpt lat="47.19784" lon="-1.82535">
        <ele>70</ele>
        <time>2022-08-20T08:47:38Z</time>
      </trkpt>
      <trkpt lat="47.19776" lon="-1.82549">
        <ele>71</ele>
        <time>2022-08-20T08:47:40Z</time>
      </trkpt>
      <trkpt lat="47.19767" lon="-1.82563">
        <ele>71</ele>
        <time>2022-08-20T08:47:42Z</time>
      </trkpt>
      <trkpt lat="47.19757" lon="-1.82577">
        <ele>70</ele>
        <time>2022-08-20T08:47:44Z</time>
      </trkpt>
      <trkpt lat="47.19748" lon="-1.82591">
        <ele>69</ele>
        <time>2022-08-20T08:47:46Z</time>
      </trkpt>
      <trkpt lat="47.19739" lon="-1.82605">
        <ele>69</ele>
        <time>2022-08-20T08:47:48Z</time>
      </trkpt>
      <trkpt lat="47.19731" lon="-1.82621">
        <ele>69</ele>
        <time>2022-08-20T08:47:50Z</time>
      </trkpt>
      <trkpt lat="47.19725" lon="-1.82639">
        <ele>69</ele>
        <time>2022-08-20T08:47:52Z</time>
      </trkpt>
      <trkpt lat="47.19719" lon="-1.82657">
        <ele>68</ele>
        <time>2022-08-20T08:47:54Z</time>
      </trkpt>
      <trkpt lat="47.19715" lon="-1.82675">
        <ele>68</ele>
        <time>2022-08-20T08:47:56Z</time>
      </trkpt>
      <trkpt lat="47.19711" lon="-1.82694">
        <ele>69</ele>
        <time>2022-08-20T08:47:58Z</time>
      </trkpt>
      <trkpt lat="47.19707" lon="-1.82712">
        <ele>69</ele>
        <time>2022-08-20T08:48:00Z</time>
      </trkpt>
      <trkpt lat="47.19702" lon="-1.82732">
        <ele>69</ele>
        <time>2022-08-20T08:48:02Z</time>
      </trkpt>
      <trkpt lat="47.19697" lon="-1.82752">
        <ele>68</ele>
        <time>2022-08-20T08:48:04Z</time>
      </trkpt>
      <trkpt lat="47.19693" lon="-1.82771">
        <ele>69</ele>
        <time>2022-08-20T08:48:06Z</time>
      </trkpt>
      <trkpt lat="47.1969" lon="-1.82791">
        <ele>69</ele>
        <time>2022-08-20T08:48:08Z</time>
      </trkpt>
      <trkpt lat="47.19686" lon="-1.82811">
        <ele>68</ele>
        <time>2022-08-20T08:48:10Z</time>
      </trkpt>
      <trkpt lat="47.19682" lon="-1.82831">
        <ele>68</ele>
        <time>2022-08-20T08:48:12Z</time>
      </trkpt>
      <trkpt lat="47.19679" lon="-1.8285">
        <ele>68</ele>
        <time>2022-08-20T08:48:14Z</time>
      </trkpt>
      <trkpt lat="47.19675" lon="-1.82869">
        <ele>68</ele>
        <time>2022-08-20T08:48:16Z</time>
      </trkpt>
      <trkpt lat="47.19672" lon="-1.82888">
        <ele>68</ele>
        <time>2022-08-20T08:48:18Z</time>
      </trkpt>
      <trkpt lat="47.19668" lon="-1.82907">
        <ele>68</ele>
        <time>2022-08-20T08:48:20Z</time>
      </trkpt>
      <trkpt lat="47.19664" lon="-1.82927">
        <ele>68</ele>
        <time>2022-08-20T08:48:22Z</time>
      </trkpt>
      <trkpt lat="47.1966" lon="-1.82946">
        <ele>68</ele>
        <time>2022-08-20T08:48:24Z</time>
      </trkpt>
      <trkpt lat="47.19656" lon="-1.82965">
        <ele>67</ele>
        <time>2022-08-20T08:48:26Z</time>
      </trkpt>
      <trkpt lat="47.19653" lon="-1.82984">
        <ele>68</ele>
        <time>2022-08-20T08:48:28Z</time>
      </trkpt>
      <trkpt lat="47.1965" lon="-1.83003">
        <ele>67</ele>
        <time>2022-08-20T08:48:30Z</time>
      </trkpt>
      <trkpt lat="47.19646" lon="-1.83023">
        <ele>67</ele>
        <time>2022-08-20T08:48:32Z</time>
      </trkpt>
      <trkpt lat="47.19642" lon="-1.83043">
        <ele>67</ele>
        <time>2022-08-20T08:48:34Z</time>
      </trkpt>
      <trkpt lat="47.19638" lon="-1.83062">
        <ele>67</ele>
        <time>2022-08-20T08:48:36Z</time>
      </trkpt>
      <trkpt lat="47.19635" lon="-1.83081">
        <ele>67</ele>
        <time>2022-08-20T08:48:38Z</time>
      </trkpt>
      <trkpt lat="47.19631" lon="-1.831">
        <ele>67</ele>
        <time>2022-08-20T08:48:40Z</time>
      </trkpt>
      <trkpt lat="47.19627" lon="-1.8312">
        <ele>66</ele>
        <time>2022-08-20T08:48:42Z</time>
      </trkpt>
      <trkpt lat="47.19624" lon="-1.8314">
        <ele>66</ele>
        <time>2022-08-20T08:48:44Z</time>
      </trkpt>
      <trkpt lat="47.19621" lon="-1.8316">
        <ele>66</ele>
        <time>2022-08-20T08:48:46Z</time>
      </trkpt>
      <trkpt lat="47.1962" lon="-1.8318">
        <ele>66</ele>
        <time>2022-08-20T08:48:48Z</time>
      </trkpt>
      <trkpt lat="47.1962" lon="-1.83201">
        <ele>66</ele>
        <time>2022-08-20T08:48:50Z</time>
      </trkpt>
      <trkpt lat="47.1962" lon="-1.83221">
        <ele>66</ele>
        <time>2022-08-20T08:48:52Z</time>
      </trkpt>
      <trkpt lat="47.19621" lon="-1.83241">
        <ele>66</ele>
        <time>2022-08-20T08:48:54Z</time>
      </trkpt>
      <trkpt lat="47.19621" lon="-1.83262">
        <ele>66</ele>
        <time>2022-08-20T08:48:56Z</time>
      </trkpt>
      <trkpt lat="47.19622" lon="-1.83281">
        <ele>66</ele>
        <time>2022-08-20T08:48:58Z</time>
      </trkpt>
      <trkpt lat="47.19623" lon="-1.83301">
        <ele>66</ele>
        <time>2022-08-20T08:49:00Z</time>
      </trkpt>
      <trkpt lat="47.19624" lon="-1.83321">
        <ele>66</ele>
        <time>2022-08-20T08:49:02Z</time>
      </trkpt>
      <trkpt lat="47.19624" lon="-1.83342">
        <ele>66</ele>
        <time>2022-08-20T08:49:04Z</time>
      </trkpt>
      <trkpt lat="47.19625" lon="-1.83361">
        <ele>66</ele>
        <time>2022-08-20T08:49:06Z</time>
      </trkpt>
      <trkpt lat="47.19626" lon="-1.8338">
        <ele>66</ele>
        <time>2022-08-20T08:49:08Z</time>
      </trkpt>
      <trkpt lat="47.19627" lon="-1.834">
        <ele>66</ele>
        <time>2022-08-20T08:49:10Z</time>
      </trkpt>
      <trkpt lat="47.19628" lon="-1.8342">
        <ele>66</ele>
        <time>2022-08-20T08:49:12Z</time>
      </trkpt>
      <trkpt lat="47.19629" lon="-1.83439">
        <ele>65</ele>
        <time>2022-08-20T08:49:14Z</time>
      </trkpt>
      <trkpt lat="47.1963" lon="-1.83459">
        <ele>66</ele>
        <time>2022-08-20T08:49:16Z</time>
      </trkpt>
      <trkpt lat="47.19631" lon="-1.83479">
        <ele>65</ele>
        <time>2022-08-20T08:49:18Z</time>
      </trkpt>
      <trkpt lat="47.19631" lon="-1.83498">
        <ele>65</ele>
        <time>2022-08-20T08:49:20Z</time>
      </trkpt>
      <trkpt lat="47.19632" lon="-1.83517">
        <ele>65</ele>
        <time>2022-08-20T08:49:22Z</time>
      </trkpt>
      <trkpt lat="47.19633" lon="-1.83536">
        <ele>66</ele>
        <time>2022-08-20T08:49:24Z</time>
      </trkpt>
      <trkpt lat="47.19631" lon="-1.83555">
        <ele>66</ele>
        <time>2022-08-20T08:49:26Z</time>
      </trkpt>
      <trkpt lat="47.19629" lon="-1.83575">
        <ele>66</ele>
        <time>2022-08-20T08:49:28Z</time>
      </trkpt>
      <trkpt lat="47.19626" lon="-1.83593">
        <ele>66</ele>
        <time>2022-08-20T08:49:30Z</time>
      </trkpt>
      <trkpt lat="47.19621" lon="-1.83613">
        <ele>65</ele>
        <time>2022-08-20T08:49:32Z</time>
      </trkpt>
      <trkpt lat="47.19617" lon="-1.83633">
        <ele>65</ele>
        <time>2022-08-20T08:49:34Z</time>
      </trkpt>
      <trkpt lat="47.19613" lon="-1.83652">
        <ele>65</ele>
        <time>2022-08-20T08:49:36Z</time>
      </trkpt>
      <trkpt lat="47.19609" lon="-1.83671">
        <ele>64</ele>
        <time>2022-08-20T08:49:38Z</time>
      </trkpt>
      <trkpt lat="47.19609" lon="-1.83691">
        <ele>64</ele>
        <time>2022-08-20T08:49:40Z</time>
      </trkpt>
      <trkpt lat="47.1961" lon="-1.83712">
        <ele>64</ele>
        <time>2022-08-20T08:49:42Z</time>
      </trkpt>
      <trkpt lat="47.19612" lon="-1.83732">
        <ele>63</ele>
        <time>2022-08-20T08:49:44Z</time>
      </trkpt>
      <trkpt lat="47.19616" lon="-1.83752">
        <ele>63</ele>
        <time>2022-08-20T08:49:46Z</time>
      </trkpt>
      <trkpt lat="47.19619" lon="-1.83772">
        <ele>63</ele>
        <time>2022-08-20T08:49:48Z</time>
      </trkpt>
      <trkpt lat="47.19622" lon="-1.83792">
        <ele>63</ele>
        <time>2022-08-20T08:49:50Z</time>
      </trkpt>
      <trkpt lat="47.19626" lon="-1.83812">
        <ele>63</ele>
        <time>2022-08-20T08:49:52Z</time>
      </trkpt>
      <trkpt lat="47.19629" lon="-1.83832">
        <ele>63</ele>
        <time>2022-08-20T08:49:54Z</time>
      </trkpt>
      <trkpt lat="47.19633" lon="-1.83853">
        <ele>63</ele>
        <time>2022-08-20T08:49:56Z</time>
      </trkpt>
      <trkpt lat="47.19636" lon="-1.83872">
        <ele>63</ele>
        <time>2022-08-20T08:49:58Z</time>
      </trkpt>
      <trkpt lat="47.1964" lon="-1.83892">
        <ele>63</ele>
        <time>2022-08-20T08:50:00Z</time>
      </trkpt>
      <trkpt lat="47.19643" lon="-1.83911">
        <ele>63</ele>
        <time>2022-08-20T08:50:02Z</time>
      </trkpt>
      <trkpt lat="47.19646" lon="-1.83931">
        <ele>62</ele>
        <time>2022-08-20T08:50:04Z</time>
      </trkpt>
      <trkpt lat="47.1965" lon="-1.8395">
        <ele>62</ele>
        <time>2022-08-20T08:50:06Z</time>
      </trkpt>
      <trkpt lat="47.19653" lon="-1.83969">
        <ele>62</ele>
        <time>2022-08-20T08:50:08Z</time>
      </trkpt>
      <trkpt lat="47.19656" lon="-1.83987">
        <ele>62</ele>
        <time>2022-08-20T08:50:10Z</time>
      </trkpt>
      <trkpt lat="47.19659" lon="-1.84006">
        <ele>63</ele>
        <time>2022-08-20T08:50:12Z</time>
      </trkpt>
      <trkpt lat="47.19661" lon="-1.84025">
        <ele>63</ele>
        <time>2022-08-20T08:50:14Z</time>
      </trkpt>
      <trkpt lat="47.19661" lon="-1.84044">
        <ele>63</ele>
        <time>2022-08-20T08:50:16Z</time>
      </trkpt>
      <trkpt lat="47.19659" lon="-1.84063">
        <ele>63</ele>
        <time>2022-08-20T08:50:18Z</time>
      </trkpt>
      <trkpt lat="47.19656" lon="-1.84082">
        <ele>63</ele>
        <time>2022-08-20T08:50:20Z</time>
      </trkpt>
      <trkpt lat="47.19651" lon="-1.841">
        <ele>64</ele>
        <time>2022-08-20T08:50:22Z</time>
      </trkpt>
      <trkpt lat="47.19644" lon="-1.84116">
        <ele>63</ele>
        <time>2022-08-20T08:50:24Z</time>
      </trkpt>
      <trkpt lat="47.19636" lon="-1.84132">
        <ele>64</ele>
        <time>2022-08-20T08:50:26Z</time>
      </trkpt>
      <trkpt lat="47.19627" lon="-1.84147">
        <ele>64</ele>
        <time>2022-08-20T08:50:28Z</time>
      </trkpt>
      <trkpt lat="47.19619" lon="-1.84162">
        <ele>64</ele>
        <time>2022-08-20T08:50:30Z</time>
      </trkpt>
      <trkpt lat="47.19609" lon="-1.84178">
        <ele>64</ele>
        <time>2022-08-20T08:50:32Z</time>
      </trkpt>
      <trkpt lat="47.196" lon="-1.84194">
        <ele>63</ele>
        <time>2022-08-20T08:50:34Z</time>
      </trkpt>
      <trkpt lat="47.19591" lon="-1.84209">
        <ele>63</ele>
        <time>2022-08-20T08:50:36Z</time>
      </trkpt>
      <trkpt lat="47.19582" lon="-1.84225">
        <ele>63</ele>
        <time>2022-08-20T08:50:38Z</time>
      </trkpt>
      <trkpt lat="47.19573" lon="-1.84241">
        <ele>63</ele>
        <time>2022-08-20T08:50:40Z</time>
      </trkpt>
      <trkpt lat="47.19564" lon="-1.84258">
        <ele>63</ele>
        <time>2022-08-20T08:50:42Z</time>
      </trkpt>
      <trkpt lat="47.19555" lon="-1.84273">
        <ele>63</ele>
        <time>2022-08-20T08:50:44Z</time>
      </trkpt>
      <trkpt lat="47.19546" lon="-1.8429">
        <ele>63</ele>
        <time>2022-08-20T08:50:46Z</time>
      </trkpt>
      <trkpt lat="47.19537" lon="-1.84306">
        <ele>63</ele>
        <time>2022-08-20T08:50:48Z</time>
      </trkpt>
      <trkpt lat="47.19529" lon="-1.84322">
        <ele>63</ele>
        <time>2022-08-20T08:50:50Z</time>
      </trkpt>
      <trkpt lat="47.1952" lon="-1.84338">
        <ele>63</ele>
        <time>2022-08-20T08:50:52Z</time>
      </trkpt>
      <trkpt lat="47.1951" lon="-1.84355">
        <ele>63</ele>
        <time>2022-08-20T08:50:54Z</time>
      </trkpt>
      <trkpt lat="47.195" lon="-1.8437">
        <ele>63</ele>
        <time>2022-08-20T08:50:56Z</time>
      </trkpt>
      <trkpt lat="47.19491" lon="-1.84386">
        <ele>63</ele>
        <time>2022-08-20T08:50:58Z</time>
      </trkpt>
      <trkpt lat="47.19482" lon="-1.84403">
        <ele>62</ele>
        <time>2022-08-20T08:51:00Z</time>
      </trkpt>
      <trkpt lat="47.19473" lon="-1.84418">
        <ele>62</ele>
        <time>2022-08-20T08:51:02Z</time>
      </trkpt>
      <trkpt lat="47.19464" lon="-1.84434">
        <ele>62</ele>
        <time>2022-08-20T08:51:04Z</time>
      </trkpt>
      <trkpt lat="47.19454" lon="-1.8445">
        <ele>62</ele>
        <time>2022-08-20T08:51:06Z</time>
      </trkpt>
      <trkpt lat="47.19446" lon="-1.84466">
        <ele>62</ele>
        <time>2022-08-20T08:51:08Z</time>
      </trkpt>
      <trkpt lat="47.19437" lon="-1.84481">
        <ele>62</ele>
        <time>2022-08-20T08:51:10Z</time>
      </trkpt>
      <trkpt lat="47.19429" lon="-1.84496">
        <ele>62</ele>
        <time>2022-08-20T08:51:12Z</time>
      </trkpt>
      <trkpt lat="47.19421" lon="-1.84512">
        <ele>62</ele>
        <time>2022-08-20T08:51:14Z</time>
      </trkpt>
      <trkpt lat="47.19412" lon="-1.84527">
        <ele>62</ele>
        <time>2022-08-20T08:51:16Z</time>
      </trkpt>
      <trkpt lat="47.19402" lon="-1.84541">
        <ele>62</ele>
        <time>2022-08-20T08:51:18Z</time>
      </trkpt>
      <trkpt lat="47.19394" lon="-1.84553">
        <ele>62</ele>
        <time>2022-08-20T08:51:20Z</time>
      </trkpt>
      <trkpt lat="47.19384" lon="-1.84563">
        <ele>62</ele>
        <time>2022-08-20T08:51:23Z</time>
      </trkpt>
      <trkpt lat="47.19373" lon="-1.84572">
        <ele>63</ele>
        <time>2022-08-20T08:51:26Z</time>
      </trkpt>
      <trkpt lat="47.19364" lon="-1.84576">
        <ele>63</ele>
        <time>2022-08-20T08:51:28Z</time>
      </trkpt>
      <trkpt lat="47.19352" lon="-1.84576">
        <ele>63</ele>
        <time>2022-08-20T08:51:30Z</time>
      </trkpt>
      <trkpt lat="47.19341" lon="-1.84583">
        <ele>62</ele>
        <time>2022-08-20T08:51:32Z</time>
      </trkpt>
      <trkpt lat="47.19333" lon="-1.84601">
        <ele>62</ele>
        <time>2022-08-20T08:51:34Z</time>
      </trkpt>
      <trkpt lat="47.19331" lon="-1.84622">
        <ele>61</ele>
        <time>2022-08-20T08:51:36Z</time>
      </trkpt>
      <trkpt lat="47.1933" lon="-1.84644">
        <ele>60</ele>
        <time>2022-08-20T08:51:38Z</time>
      </trkpt>
      <trkpt lat="47.1933" lon="-1.84666">
        <ele>60</ele>
        <time>2022-08-20T08:51:40Z</time>
      </trkpt>
      <trkpt lat="47.19329" lon="-1.84688">
        <ele>59</ele>
        <time>2022-08-20T08:51:42Z</time>
      </trkpt>
      <trkpt lat="47.19328" lon="-1.8471">
        <ele>59</ele>
        <time>2022-08-20T08:51:44Z</time>
      </trkpt>
      <trkpt lat="47.19328" lon="-1.84732">
        <ele>58</ele>
        <time>2022-08-20T08:51:46Z</time>
      </trkpt>
      <trkpt lat="47.19326" lon="-1.84752">
        <ele>58</ele>
        <time>2022-08-20T08:51:48Z</time>
      </trkpt>
      <trkpt lat="47.19324" lon="-1.84773">
        <ele>59</ele>
        <time>2022-08-20T08:51:50Z</time>
      </trkpt>
      <trkpt lat="47.19323" lon="-1.84795">
        <ele>59</ele>
        <time>2022-08-20T08:51:52Z</time>
      </trkpt>
      <trkpt lat="47.19321" lon="-1.84817">
        <ele>59</ele>
        <time>2022-08-20T08:51:54Z</time>
      </trkpt>
      <trkpt lat="47.19318" lon="-1.84837">
        <ele>59</ele>
        <time>2022-08-20T08:51:56Z</time>
      </trkpt>
      <trkpt lat="47.19314" lon="-1.84858">
        <ele>59</ele>
        <time>2022-08-20T08:51:58Z</time>
      </trkpt>
      <trkpt lat="47.19309" lon="-1.84877">
        <ele>59</ele>
        <time>2022-08-20T08:52:00Z</time>
      </trkpt>
      <trkpt lat="47.19303" lon="-1.84896">
        <ele>59</ele>
        <time>2022-08-20T08:52:02Z</time>
      </trkpt>
      <trkpt lat="47.19297" lon="-1.84914">
        <ele>59</ele>
        <time>2022-08-20T08:52:04Z</time>
      </trkpt>
      <trkpt lat="47.19292" lon="-1.84932">
        <ele>59</ele>
        <time>2022-08-20T08:52:06Z</time>
      </trkpt>
      <trkpt lat="47.19286" lon="-1.84949">
        <ele>59</ele>
        <time>2022-08-20T08:52:08Z</time>
      </trkpt>
      <trkpt lat="47.1928" lon="-1.84968">
        <ele>59</ele>
        <time>2022-08-20T08:52:10Z</time>
      </trkpt>
      <trkpt lat="47.19274" lon="-1.84987">
        <ele>59</ele>
        <time>2022-08-20T08:52:12Z</time>
      </trkpt>
      <trkpt lat="47.1927" lon="-1.85006">
        <ele>59</ele>
        <time>2022-08-20T08:52:14Z</time>
      </trkpt>
      <trkpt lat="47.19266" lon="-1.85026">
        <ele>58</ele>
        <time>2022-08-20T08:52:16Z</time>
      </trkpt>
      <trkpt lat="47.19263" lon="-1.85045">
        <ele>59</ele>
        <time>2022-08-20T08:52:18Z</time>
      </trkpt>
      <trkpt lat="47.19262" lon="-1.85065">
        <ele>58</ele>
        <time>2022-08-20T08:52:20Z</time>
      </trkpt>
      <trkpt lat="47.19261" lon="-1.85086">
        <ele>58</ele>
        <time>2022-08-20T08:52:22Z</time>
      </trkpt>
      <trkpt lat="47.19262" lon="-1.85106">
        <ele>58</ele>
        <time>2022-08-20T08:52:24Z</time>
      </trkpt>
      <trkpt lat="47.19264" lon="-1.85125">
        <ele>57</ele>
        <time>2022-08-20T08:52:26Z</time>
      </trkpt>
      <trkpt lat="47.19266" lon="-1.85146">
        <ele>56</ele>
        <time>2022-08-20T08:52:28Z</time>
      </trkpt>
      <trkpt lat="47.19267" lon="-1.85169">
        <ele>55</ele>
        <time>2022-08-20T08:52:30Z</time>
      </trkpt>
      <trkpt lat="47.19268" lon="-1.85192">
        <ele>54</ele>
        <time>2022-08-20T08:52:32Z</time>
      </trkpt>
      <trkpt lat="47.19269" lon="-1.85213">
        <ele>53</ele>
        <time>2022-08-20T08:52:34Z</time>
      </trkpt>
      <trkpt lat="47.1927" lon="-1.85227">
        <ele>53</ele>
        <time>2022-08-20T08:52:36Z</time>
      </trkpt>
      <trkpt lat="47.19274" lon="-1.8524">
        <ele>54</ele>
        <time>2022-08-20T08:52:39Z</time>
      </trkpt>
      <trkpt lat="47.19275" lon="-1.85253">
        <ele>54</ele>
        <time>2022-08-20T08:52:41Z</time>
      </trkpt>
      <trkpt lat="47.19269" lon="-1.85271">
        <ele>54</ele>
        <time>2022-08-20T08:52:43Z</time>
      </trkpt>
      <trkpt lat="47.19263" lon="-1.85291">
        <ele>53</ele>
        <time>2022-08-20T08:52:45Z</time>
      </trkpt>
      <trkpt lat="47.19257" lon="-1.85311">
        <ele>53</ele>
        <time>2022-08-20T08:52:47Z</time>
      </trkpt>
      <trkpt lat="47.1925" lon="-1.8533">
        <ele>54</ele>
        <time>2022-08-20T08:52:49Z</time>
      </trkpt>
      <trkpt lat="47.19241" lon="-1.85347">
        <ele>53</ele>
        <time>2022-08-20T08:52:51Z</time>
      </trkpt>
      <trkpt lat="47.19233" lon="-1.85365">
        <ele>53</ele>
        <time>2022-08-20T08:52:53Z</time>
      </trkpt>
      <trkpt lat="47.19224" lon="-1.85383">
        <ele>53</ele>
        <time>2022-08-20T08:52:55Z</time>
      </trkpt>
      <trkpt lat="47.19213" lon="-1.854">
        <ele>52</ele>
        <time>2022-08-20T08:52:57Z</time>
      </trkpt>
      <trkpt lat="47.19201" lon="-1.85415">
        <ele>52</ele>
        <time>2022-08-20T08:52:59Z</time>
      </trkpt>
      <trkpt lat="47.19188" lon="-1.85429">
        <ele>52</ele>
        <time>2022-08-20T08:53:01Z</time>
      </trkpt>
      <trkpt lat="47.19177" lon="-1.85444">
        <ele>52</ele>
        <time>2022-08-20T08:53:03Z</time>
      </trkpt>
      <trkpt lat="47.19166" lon="-1.85459">
        <ele>51</ele>
        <time>2022-08-20T08:53:05Z</time>
      </trkpt>
      <trkpt lat="47.19155" lon="-1.85474">
        <ele>51</ele>
        <time>2022-08-20T08:53:07Z</time>
      </trkpt>
      <trkpt lat="47.19144" lon="-1.85489">
        <ele>52</ele>
        <time>2022-08-20T08:53:09Z</time>
      </trkpt>
      <trkpt lat="47.19134" lon="-1.85502">
        <ele>52</ele>
        <time>2022-08-20T08:53:11Z</time>
      </trkpt>
      <trkpt lat="47.19125" lon="-1.85517">
        <ele>52</ele>
        <time>2022-08-20T08:53:13Z</time>
      </trkpt>
      <trkpt lat="47.19116" lon="-1.85528">
        <ele>53</ele>
        <time>2022-08-20T08:53:15Z</time>
      </trkpt>
      <trkpt lat="47.19105" lon="-1.85539">
        <ele>53</ele>
        <time>2022-08-20T08:53:17Z</time>
      </trkpt>
      <trkpt lat="47.19095" lon="-1.8555">
        <ele>53</ele>
        <time>2022-08-20T08:53:19Z</time>
      </trkpt>
      <trkpt lat="47.19084" lon="-1.85559">
        <ele>54</ele>
        <time>2022-08-20T08:53:21Z</time>
      </trkpt>
      <trkpt lat="47.19072" lon="-1.85568">
        <ele>53</ele>
        <time>2022-08-20T08:53:23Z</time>
      </trkpt>
      <trkpt lat="47.1906" lon="-1.85578">
        <ele>53</ele>
        <time>2022-08-20T08:53:25Z</time>
      </trkpt>
      <trkpt lat="47.19049" lon="-1.85588">
        <ele>53</ele>
        <time>2022-08-20T08:53:27Z</time>
      </trkpt>
      <trkpt lat="47.19037" lon="-1.85598">
        <ele>53</ele>
        <time>2022-08-20T08:53:29Z</time>
      </trkpt>
      <trkpt lat="47.19025" lon="-1.85609">
        <ele>53</ele>
        <time>2022-08-20T08:53:31Z</time>
      </trkpt>
      <trkpt lat="47.19013" lon="-1.8562">
        <ele>53</ele>
        <time>2022-08-20T08:53:33Z</time>
      </trkpt>
      <trkpt lat="47.19001" lon="-1.85629">
        <ele>52</ele>
        <time>2022-08-20T08:53:35Z</time>
      </trkpt>
      <trkpt lat="47.18989" lon="-1.85639">
        <ele>52</ele>
        <time>2022-08-20T08:53:37Z</time>
      </trkpt>
      <trkpt lat="47.18976" lon="-1.85648">
        <ele>52</ele>
        <time>2022-08-20T08:53:39Z</time>
      </trkpt>
      <trkpt lat="47.18964" lon="-1.85657">
        <ele>52</ele>
        <time>2022-08-20T08:53:41Z</time>
      </trkpt>
      <trkpt lat="47.18952" lon="-1.85667">
        <ele>53</ele>
        <time>2022-08-20T08:53:43Z</time>
      </trkpt>
      <trkpt lat="47.18938" lon="-1.85677">
        <ele>53</ele>
        <time>2022-08-20T08:53:45Z</time>
      </trkpt>
      <trkpt lat="47.18924" lon="-1.85687">
        <ele>53</ele>
        <time>2022-08-20T08:53:47Z</time>
      </trkpt>
      <trkpt lat="47.18911" lon="-1.85697">
        <ele>52</ele>
        <time>2022-08-20T08:53:49Z</time>
      </trkpt>
      <trkpt lat="47.18897" lon="-1.85706">
        <ele>52</ele>
        <time>2022-08-20T08:53:51Z</time>
      </trkpt>
      <trkpt lat="47.18884" lon="-1.85716">
        <ele>53</ele>
        <time>2022-08-20T08:53:53Z</time>
      </trkpt>
      <trkpt lat="47.18871" lon="-1.85726">
        <ele>52</ele>
        <time>2022-08-20T08:53:55Z</time>
      </trkpt>
      <trkpt lat="47.18857" lon="-1.85736">
        <ele>52</ele>
        <time>2022-08-20T08:53:57Z</time>
      </trkpt>
      <trkpt lat="47.18844" lon="-1.85746">
        <ele>52</ele>
        <time>2022-08-20T08:53:59Z</time>
      </trkpt>
      <trkpt lat="47.18831" lon="-1.85755">
        <ele>52</ele>
        <time>2022-08-20T08:54:01Z</time>
      </trkpt>
      <trkpt lat="47.18817" lon="-1.85765">
        <ele>52</ele>
        <time>2022-08-20T08:54:03Z</time>
      </trkpt>
      <trkpt lat="47.18805" lon="-1.85774">
        <ele>52</ele>
        <time>2022-08-20T08:54:05Z</time>
      </trkpt>
      <trkpt lat="47.18792" lon="-1.85783">
        <ele>52</ele>
        <time>2022-08-20T08:54:07Z</time>
      </trkpt>
      <trkpt lat="47.18779" lon="-1.85793">
        <ele>52</ele>
        <time>2022-08-20T08:54:09Z</time>
      </trkpt>
      <trkpt lat="47.18766" lon="-1.85802">
        <ele>52</ele>
        <time>2022-08-20T08:54:11Z</time>
      </trkpt>
      <trkpt lat="47.18754" lon="-1.85811">
        <ele>52</ele>
        <time>2022-08-20T08:54:13Z</time>
      </trkpt>
      <trkpt lat="47.18735" lon="-1.85825">
        <ele>53</ele>
        <time>2022-08-20T08:54:16Z</time>
      </trkpt>
      <trkpt lat="47.18722" lon="-1.85834">
        <ele>53</ele>
        <time>2022-08-20T08:54:18Z</time>
      </trkpt>
      <trkpt lat="47.18703" lon="-1.85849">
        <ele>53</ele>
        <time>2022-08-20T08:54:21Z</time>
      </trkpt>
      <trkpt lat="47.1869" lon="-1.85858">
        <ele>53</ele>
        <time>2022-08-20T08:54:23Z</time>
      </trkpt>
      <trkpt lat="47.18673" lon="-1.8587">
        <ele>53</ele>
        <time>2022-08-20T08:54:26Z</time>
      </trkpt>
      <trkpt lat="47.18657" lon="-1.85883">
        <ele>54</ele>
        <time>2022-08-20T08:54:29Z</time>
      </trkpt>
      <trkpt lat="47.18647" lon="-1.85891">
        <ele>55</ele>
        <time>2022-08-20T08:54:31Z</time>
      </trkpt>
      <trkpt lat="47.18636" lon="-1.85899">
        <ele>55</ele>
        <time>2022-08-20T08:54:33Z</time>
      </trkpt>
      <trkpt lat="47.18629" lon="-1.85909">
        <ele>56</ele>
        <time>2022-08-20T08:54:35Z</time>
      </trkpt>
      <trkpt lat="47.18621" lon="-1.85919">
        <ele>57</ele>
        <time>2022-08-20T08:54:37Z</time>
      </trkpt>
      <trkpt lat="47.18613" lon="-1.85929">
        <ele>57</ele>
        <time>2022-08-20T08:54:39Z</time>
      </trkpt>
      <trkpt lat="47.18604" lon="-1.85938">
        <ele>58</ele>
        <time>2022-08-20T08:54:41Z</time>
      </trkpt>
      <trkpt lat="47.18596" lon="-1.85949">
        <ele>59</ele>
        <time>2022-08-20T08:54:43Z</time>
      </trkpt>
      <trkpt lat="47.18589" lon="-1.85961">
        <ele>59</ele>
        <time>2022-08-20T08:54:45Z</time>
      </trkpt>
      <trkpt lat="47.18583" lon="-1.85973">
        <ele>59</ele>
        <time>2022-08-20T08:54:47Z</time>
      </trkpt>
      <trkpt lat="47.18576" lon="-1.85987">
        <ele>59</ele>
        <time>2022-08-20T08:54:49Z</time>
      </trkpt>
      <trkpt lat="47.1857" lon="-1.86">
        <ele>60</ele>
        <time>2022-08-20T08:54:51Z</time>
      </trkpt>
      <trkpt lat="47.18562" lon="-1.86014">
        <ele>60</ele>
        <time>2022-08-20T08:54:53Z</time>
      </trkpt>
      <trkpt lat="47.18556" lon="-1.86026">
        <ele>61</ele>
        <time>2022-08-20T08:54:55Z</time>
      </trkpt>
      <trkpt lat="47.18549" lon="-1.86043">
        <ele>62</ele>
        <time>2022-08-20T08:54:58Z</time>
      </trkpt>
      <trkpt lat="47.18544" lon="-1.86055">
        <ele>62</ele>
        <time>2022-08-20T08:55:00Z</time>
      </trkpt>
      <trkpt lat="47.18538" lon="-1.86068">
        <ele>63</ele>
        <time>2022-08-20T08:55:02Z</time>
      </trkpt>
      <trkpt lat="47.18532" lon="-1.86083">
        <ele>63</ele>
        <time>2022-08-20T08:55:04Z</time>
      </trkpt>
      <trkpt lat="47.18525" lon="-1.86097">
        <ele>64</ele>
        <time>2022-08-20T08:55:06Z</time>
      </trkpt>
      <trkpt lat="47.18516" lon="-1.8611">
        <ele>64</ele>
        <time>2022-08-20T08:55:08Z</time>
      </trkpt>
      <trkpt lat="47.18508" lon="-1.86121">
        <ele>63</ele>
        <time>2022-08-20T08:55:10Z</time>
      </trkpt>
      <trkpt lat="47.18506" lon="-1.86137">
        <ele>63</ele>
        <time>2022-08-20T08:55:12Z</time>
      </trkpt>
      <trkpt lat="47.18503" lon="-1.86154">
        <ele>63</ele>
        <time>2022-08-20T08:55:14Z</time>
      </trkpt>
      <trkpt lat="47.18499" lon="-1.86171">
        <ele>63</ele>
        <time>2022-08-20T08:55:16Z</time>
      </trkpt>
      <trkpt lat="47.18493" lon="-1.86187">
        <ele>63</ele>
        <time>2022-08-20T08:55:18Z</time>
      </trkpt>
      <trkpt lat="47.18488" lon="-1.86203">
        <ele>64</ele>
        <time>2022-08-20T08:55:20Z</time>
      </trkpt>
      <trkpt lat="47.18483" lon="-1.8622">
        <ele>63</ele>
        <time>2022-08-20T08:55:22Z</time>
      </trkpt>
      <trkpt lat="47.18478" lon="-1.86237">
        <ele>63</ele>
        <time>2022-08-20T08:55:24Z</time>
      </trkpt>
      <trkpt lat="47.18474" lon="-1.86256">
        <ele>63</ele>
        <time>2022-08-20T08:55:26Z</time>
      </trkpt>
      <trkpt lat="47.18472" lon="-1.86276">
        <ele>63</ele>
        <time>2022-08-20T08:55:28Z</time>
      </trkpt>
      <trkpt lat="47.18472" lon="-1.86299">
        <ele>63</ele>
        <time>2022-08-20T08:55:30Z</time>
      </trkpt>
      <trkpt lat="47.1847" lon="-1.86326">
        <ele>61</ele>
        <time>2022-08-20T08:55:32Z</time>
      </trkpt>
      <trkpt lat="47.18468" lon="-1.86339">
        <ele>60</ele>
        <time>2022-08-20T08:55:33Z</time>
      </trkpt>
      <trkpt lat="47.18465" lon="-1.86352">
        <ele>60</ele>
        <time>2022-08-20T08:55:34Z</time>
      </trkpt>
      <trkpt lat="47.18462" lon="-1.86366">
        <ele>59</ele>
        <time>2022-08-20T08:55:35Z</time>
      </trkpt>
      <trkpt lat="47.18457" lon="-1.86379">
        <ele>58</ele>
        <time>2022-08-20T08:55:36Z</time>
      </trkpt>
      <trkpt lat="47.18452" lon="-1.86391">
        <ele>57</ele>
        <time>2022-08-20T08:55:37Z</time>
      </trkpt>
      <trkpt lat="47.18445" lon="-1.86401">
        <ele>57</ele>
        <time>2022-08-20T08:55:38Z</time>
      </trkpt>
      <trkpt lat="47.18438" lon="-1.86409">
        <ele>57</ele>
        <time>2022-08-20T08:55:39Z</time>
      </trkpt>
      <trkpt lat="47.18431" lon="-1.86417">
        <ele>57</ele>
        <time>2022-08-20T08:55:40Z</time>
      </trkpt>
      <trkpt lat="47.18416" lon="-1.86432">
        <ele>57</ele>
        <time>2022-08-20T08:55:42Z</time>
      </trkpt>
      <trkpt lat="47.18409" lon="-1.86441">
        <ele>56</ele>
        <time>2022-08-20T08:55:43Z</time>
      </trkpt>
      <trkpt lat="47.18402" lon="-1.86462">
        <ele>55</ele>
        <time>2022-08-20T08:55:45Z</time>
      </trkpt>
      <trkpt lat="47.18403" lon="-1.86484">
        <ele>55</ele>
        <time>2022-08-20T08:55:47Z</time>
      </trkpt>
      <trkpt lat="47.18407" lon="-1.86505">
        <ele>55</ele>
        <time>2022-08-20T08:55:49Z</time>
      </trkpt>
      <trkpt lat="47.1841" lon="-1.86526">
        <ele>55</ele>
        <time>2022-08-20T08:55:51Z</time>
      </trkpt>
      <trkpt lat="47.18413" lon="-1.86545">
        <ele>55</ele>
        <time>2022-08-20T08:55:53Z</time>
      </trkpt>
      <trkpt lat="47.18416" lon="-1.86564">
        <ele>55</ele>
        <time>2022-08-20T08:55:55Z</time>
      </trkpt>
      <trkpt lat="47.18418" lon="-1.86582">
        <ele>56</ele>
        <time>2022-08-20T08:55:57Z</time>
      </trkpt>
      <trkpt lat="47.1842" lon="-1.86599">
        <ele>57</ele>
        <time>2022-08-20T08:55:59Z</time>
      </trkpt>
      <trkpt lat="47.1842" lon="-1.86616">
        <ele>58</ele>
        <time>2022-08-20T08:56:01Z</time>
      </trkpt>
      <trkpt lat="47.1842" lon="-1.86633">
        <ele>58</ele>
        <time>2022-08-20T08:56:03Z</time>
      </trkpt>
      <trkpt lat="47.18419" lon="-1.8665">
        <ele>59</ele>
        <time>2022-08-20T08:56:05Z</time>
      </trkpt>
      <trkpt lat="47.18418" lon="-1.86664">
        <ele>59</ele>
        <time>2022-08-20T08:56:07Z</time>
      </trkpt>
      <trkpt lat="47.18416" lon="-1.8668">
        <ele>60</ele>
        <time>2022-08-20T08:56:09Z</time>
      </trkpt>
      <trkpt lat="47.18414" lon="-1.86696">
        <ele>61</ele>
        <time>2022-08-20T08:56:11Z</time>
      </trkpt>
      <trkpt lat="47.18412" lon="-1.8671">
        <ele>61</ele>
        <time>2022-08-20T08:56:13Z</time>
      </trkpt>
      <trkpt lat="47.1841" lon="-1.86726">
        <ele>62</ele>
        <time>2022-08-20T08:56:15Z</time>
      </trkpt>
      <trkpt lat="47.18408" lon="-1.86742">
        <ele>62</ele>
        <time>2022-08-20T08:56:17Z</time>
      </trkpt>
      <trkpt lat="47.18405" lon="-1.86758">
        <ele>63</ele>
        <time>2022-08-20T08:56:19Z</time>
      </trkpt>
      <trkpt lat="47.18401" lon="-1.86775">
        <ele>62</ele>
        <time>2022-08-20T08:56:21Z</time>
      </trkpt>
      <trkpt lat="47.18398" lon="-1.86791">
        <ele>63</ele>
        <time>2022-08-20T08:56:23Z</time>
      </trkpt>
      <trkpt lat="47.18396" lon="-1.86807">
        <ele>63</ele>
        <time>2022-08-20T08:56:25Z</time>
      </trkpt>
      <trkpt lat="47.18395" lon="-1.86823">
        <ele>64</ele>
        <time>2022-08-20T08:56:27Z</time>
      </trkpt>
      <trkpt lat="47.18395" lon="-1.86838">
        <ele>65</ele>
        <time>2022-08-20T08:56:29Z</time>
      </trkpt>
      <trkpt lat="47.18396" lon="-1.86854">
        <ele>66</ele>
        <time>2022-08-20T08:56:31Z</time>
      </trkpt>
      <trkpt lat="47.18397" lon="-1.86869">
        <ele>67</ele>
        <time>2022-08-20T08:56:33Z</time>
      </trkpt>
      <trkpt lat="47.18399" lon="-1.86885">
        <ele>68</ele>
        <time>2022-08-20T08:56:35Z</time>
      </trkpt>
      <trkpt lat="47.184" lon="-1.86902">
        <ele>69</ele>
        <time>2022-08-20T08:56:37Z</time>
      </trkpt>
      <trkpt lat="47.18401" lon="-1.8692">
        <ele>69</ele>
        <time>2022-08-20T08:56:39Z</time>
      </trkpt>
      <trkpt lat="47.18402" lon="-1.86937">
        <ele>70</ele>
        <time>2022-08-20T08:56:41Z</time>
      </trkpt>
      <trkpt lat="47.18403" lon="-1.86954">
        <ele>70</ele>
        <time>2022-08-20T08:56:43Z</time>
      </trkpt>
      <trkpt lat="47.18404" lon="-1.86969">
        <ele>70</ele>
        <time>2022-08-20T08:56:45Z</time>
      </trkpt>
      <trkpt lat="47.18405" lon="-1.86985">
        <ele>70</ele>
        <time>2022-08-20T08:56:47Z</time>
      </trkpt>
      <trkpt lat="47.18407" lon="-1.87001">
        <ele>71</ele>
        <time>2022-08-20T08:56:49Z</time>
      </trkpt>
      <trkpt lat="47.18409" lon="-1.87019">
        <ele>71</ele>
        <time>2022-08-20T08:56:51Z</time>
      </trkpt>
      <trkpt lat="47.18411" lon="-1.8704">
        <ele>71</ele>
        <time>2022-08-20T08:56:53Z</time>
      </trkpt>
      <trkpt lat="47.18415" lon="-1.87062">
        <ele>69</ele>
        <time>2022-08-20T08:56:55Z</time>
      </trkpt>
      <trkpt lat="47.1842" lon="-1.87085">
        <ele>68</ele>
        <time>2022-08-20T08:56:57Z</time>
      </trkpt>
      <trkpt lat="47.18426" lon="-1.87107">
        <ele>66</ele>
        <time>2022-08-20T08:56:59Z</time>
      </trkpt>
      <trkpt lat="47.18433" lon="-1.87132">
        <ele>65</ele>
        <time>2022-08-20T08:57:01Z</time>
      </trkpt>
      <trkpt lat="47.18437" lon="-1.87144">
        <ele>65</ele>
        <time>2022-08-20T08:57:02Z</time>
      </trkpt>
      <trkpt lat="47.18441" lon="-1.87157">
        <ele>64</ele>
        <time>2022-08-20T08:57:03Z</time>
      </trkpt>
      <trkpt lat="47.18445" lon="-1.87169">
        <ele>64</ele>
        <time>2022-08-20T08:57:04Z</time>
      </trkpt>
      <trkpt lat="47.18449" lon="-1.87182">
        <ele>63</ele>
        <time>2022-08-20T08:57:05Z</time>
      </trkpt>
      <trkpt lat="47.18452" lon="-1.87194">
        <ele>63</ele>
        <time>2022-08-20T08:57:06Z</time>
      </trkpt>
      <trkpt lat="47.18456" lon="-1.87207">
        <ele>63</ele>
        <time>2022-08-20T08:57:07Z</time>
      </trkpt>
      <trkpt lat="47.1846" lon="-1.8722">
        <ele>63</ele>
        <time>2022-08-20T08:57:08Z</time>
      </trkpt>
      <trkpt lat="47.18465" lon="-1.87243">
        <ele>63</ele>
        <time>2022-08-20T08:57:10Z</time>
      </trkpt>
      <trkpt lat="47.18469" lon="-1.87264">
        <ele>63</ele>
        <time>2022-08-20T08:57:12Z</time>
      </trkpt>
      <trkpt lat="47.18471" lon="-1.87283">
        <ele>64</ele>
        <time>2022-08-20T08:57:14Z</time>
      </trkpt>
      <trkpt lat="47.18473" lon="-1.87299">
        <ele>65</ele>
        <time>2022-08-20T08:57:16Z</time>
      </trkpt>
      <trkpt lat="47.18474" lon="-1.87315">
        <ele>65</ele>
        <time>2022-08-20T08:57:18Z</time>
      </trkpt>
      <trkpt lat="47.18477" lon="-1.87331">
        <ele>66</ele>
        <time>2022-08-20T08:57:20Z</time>
      </trkpt>
      <trkpt lat="47.18479" lon="-1.87346">
        <ele>67</ele>
        <time>2022-08-20T08:57:22Z</time>
      </trkpt>
      <trkpt lat="47.1848" lon="-1.87361">
        <ele>67</ele>
        <time>2022-08-20T08:57:24Z</time>
      </trkpt>
      <trkpt lat="47.18482" lon="-1.87377">
        <ele>67</ele>
        <time>2022-08-20T08:57:26Z</time>
      </trkpt>
      <trkpt lat="47.18485" lon="-1.87391">
        <ele>68</ele>
        <time>2022-08-20T08:57:28Z</time>
      </trkpt>
      <trkpt lat="47.18487" lon="-1.87404">
        <ele>69</ele>
        <time>2022-08-20T08:57:30Z</time>
      </trkpt>
      <trkpt lat="47.18488" lon="-1.87418">
        <ele>69</ele>
        <time>2022-08-20T08:57:32Z</time>
      </trkpt>
      <trkpt lat="47.18489" lon="-1.87431">
        <ele>70</ele>
        <time>2022-08-20T08:57:34Z</time>
      </trkpt>
      <trkpt lat="47.18487" lon="-1.87445">
        <ele>71</ele>
        <time>2022-08-20T08:57:36Z</time>
      </trkpt>
      <trkpt lat="47.1848" lon="-1.87454">
        <ele>72</ele>
        <time>2022-08-20T08:57:38Z</time>
      </trkpt>
      <trkpt lat="47.18469" lon="-1.87466">
        <ele>73</ele>
        <time>2022-08-20T08:57:41Z</time>
      </trkpt>
      <trkpt lat="47.18461" lon="-1.87473">
        <ele>74</ele>
        <time>2022-08-20T08:57:43Z</time>
      </trkpt>
      <trkpt lat="47.18453" lon="-1.87481">
        <ele>74</ele>
        <time>2022-08-20T08:57:45Z</time>
      </trkpt>
      <trkpt lat="47.18444" lon="-1.87488">
        <ele>74</ele>
        <time>2022-08-20T08:57:47Z</time>
      </trkpt>
      <trkpt lat="47.18435" lon="-1.87494">
        <ele>75</ele>
        <time>2022-08-20T08:57:49Z</time>
      </trkpt>
      <trkpt lat="47.18423" lon="-1.87501">
        <ele>75</ele>
        <time>2022-08-20T08:57:52Z</time>
      </trkpt>
      <trkpt lat="47.18414" lon="-1.87505">
        <ele>76</ele>
        <time>2022-08-20T08:57:54Z</time>
      </trkpt>
      <trkpt lat="47.18405" lon="-1.87508">
        <ele>76</ele>
        <time>2022-08-20T08:57:56Z</time>
      </trkpt>
      <trkpt lat="47.18395" lon="-1.87511">
        <ele>77</ele>
        <time>2022-08-20T08:57:58Z</time>
      </trkpt>
      <trkpt lat="47.18386" lon="-1.87514">
        <ele>77</ele>
        <time>2022-08-20T08:58:00Z</time>
      </trkpt>
      <trkpt lat="47.18376" lon="-1.87515">
        <ele>78</ele>
        <time>2022-08-20T08:58:02Z</time>
      </trkpt>
      <trkpt lat="47.18367" lon="-1.87517">
        <ele>78</ele>
        <time>2022-08-20T08:58:04Z</time>
      </trkpt>
      <trkpt lat="47.18354" lon="-1.87519">
        <ele>78</ele>
        <time>2022-08-20T08:58:07Z</time>
      </trkpt>
      <trkpt lat="47.18344" lon="-1.87521">
        <ele>78</ele>
        <time>2022-08-20T08:58:09Z</time>
      </trkpt>
      <trkpt lat="47.18335" lon="-1.87522">
        <ele>79</ele>
        <time>2022-08-20T08:58:11Z</time>
      </trkpt>
      <trkpt lat="47.18326" lon="-1.87525">
        <ele>79</ele>
        <time>2022-08-20T08:58:13Z</time>
      </trkpt>
      <trkpt lat="47.18315" lon="-1.87526">
        <ele>79</ele>
        <time>2022-08-20T08:58:15Z</time>
      </trkpt>
      <trkpt lat="47.18305" lon="-1.87528">
        <ele>79</ele>
        <time>2022-08-20T08:58:17Z</time>
      </trkpt>
      <trkpt lat="47.18295" lon="-1.87531">
        <ele>80</ele>
        <time>2022-08-20T08:58:19Z</time>
      </trkpt>
      <trkpt lat="47.18284" lon="-1.87534">
        <ele>80</ele>
        <time>2022-08-20T08:58:21Z</time>
      </trkpt>
      <trkpt lat="47.18274" lon="-1.87537">
        <ele>80</ele>
        <time>2022-08-20T08:58:23Z</time>
      </trkpt>
      <trkpt lat="47.18263" lon="-1.87543">
        <ele>81</ele>
        <time>2022-08-20T08:58:25Z</time>
      </trkpt>
      <trkpt lat="47.18253" lon="-1.87549">
        <ele>81</ele>
        <time>2022-08-20T08:58:27Z</time>
      </trkpt>
      <trkpt lat="47.18243" lon="-1.87557">
        <ele>81</ele>
        <time>2022-08-20T08:58:29Z</time>
      </trkpt>
      <trkpt lat="47.18233" lon="-1.87565">
        <ele>81</ele>
        <time>2022-08-20T08:58:31Z</time>
      </trkpt>
      <trkpt lat="47.18224" lon="-1.87575">
        <ele>81</ele>
        <time>2022-08-20T08:58:33Z</time>
      </trkpt>
      <trkpt lat="47.18214" lon="-1.87584">
        <ele>80</ele>
        <time>2022-08-20T08:58:35Z</time>
      </trkpt>
      <trkpt lat="47.18203" lon="-1.87593">
        <ele>79</ele>
        <time>2022-08-20T08:58:37Z</time>
      </trkpt>
      <trkpt lat="47.18193" lon="-1.87602">
        <ele>79</ele>
        <time>2022-08-20T08:58:39Z</time>
      </trkpt>
      <trkpt lat="47.18183" lon="-1.87611">
        <ele>80</ele>
        <time>2022-08-20T08:58:41Z</time>
      </trkpt>
      <trkpt lat="47.18173" lon="-1.8762">
        <ele>79</ele>
        <time>2022-08-20T08:58:43Z</time>
      </trkpt>
      <trkpt lat="47.18162" lon="-1.87629">
        <ele>79</ele>
        <time>2022-08-20T08:58:45Z</time>
      </trkpt>
      <trkpt lat="47.18152" lon="-1.87637">
        <ele>79</ele>
        <time>2022-08-20T08:58:47Z</time>
      </trkpt>
      <trkpt lat="47.18142" lon="-1.87645">
        <ele>79</ele>
        <time>2022-08-20T08:58:49Z</time>
      </trkpt>
      <trkpt lat="47.18131" lon="-1.87651">
        <ele>79</ele>
        <time>2022-08-20T08:58:51Z</time>
      </trkpt>
      <trkpt lat="47.18119" lon="-1.87658">
        <ele>79</ele>
        <time>2022-08-20T08:58:53Z</time>
      </trkpt>
      <trkpt lat="47.18108" lon="-1.87665">
        <ele>79</ele>
        <time>2022-08-20T08:58:55Z</time>
      </trkpt>
      <trkpt lat="47.18098" lon="-1.87671">
        <ele>79</ele>
        <time>2022-08-20T08:58:57Z</time>
      </trkpt>
      <trkpt lat="47.18088" lon="-1.87677">
        <ele>79</ele>
        <time>2022-08-20T08:58:59Z</time>
      </trkpt>
      <trkpt lat="47.18078" lon="-1.87684">
        <ele>80</ele>
        <time>2022-08-20T08:59:01Z</time>
      </trkpt>
      <trkpt lat="47.18068" lon="-1.87691">
        <ele>80</ele>
        <time>2022-08-20T08:59:03Z</time>
      </trkpt>
      <trkpt lat="47.18058" lon="-1.87699">
        <ele>80</ele>
        <time>2022-08-20T08:59:05Z</time>
      </trkpt>
      <trkpt lat="47.18049" lon="-1.87708">
        <ele>81</ele>
        <time>2022-08-20T08:59:07Z</time>
      </trkpt>
      <trkpt lat="47.18041" lon="-1.87717">
        <ele>81</ele>
        <time>2022-08-20T08:59:09Z</time>
      </trkpt>
      <trkpt lat="47.18032" lon="-1.87726">
        <ele>81</ele>
        <time>2022-08-20T08:59:11Z</time>
      </trkpt>
      <trkpt lat="47.18024" lon="-1.87734">
        <ele>81</ele>
        <time>2022-08-20T08:59:13Z</time>
      </trkpt>
      <trkpt lat="47.18016" lon="-1.87741">
        <ele>82</ele>
        <time>2022-08-20T08:59:15Z</time>
      </trkpt>
      <trkpt lat="47.18008" lon="-1.87747">
        <ele>83</ele>
        <time>2022-08-20T08:59:17Z</time>
      </trkpt>
      <trkpt lat="47.17999" lon="-1.87752">
        <ele>83</ele>
        <time>2022-08-20T08:59:19Z</time>
      </trkpt>
      <trkpt lat="47.17989" lon="-1.87758">
        <ele>83</ele>
        <time>2022-08-20T08:59:21Z</time>
      </trkpt>
      <trkpt lat="47.1798" lon="-1.87763">
        <ele>84</ele>
        <time>2022-08-20T08:59:23Z</time>
      </trkpt>
      <trkpt lat="47.1797" lon="-1.87768">
        <ele>84</ele>
        <time>2022-08-20T08:59:25Z</time>
      </trkpt>
      <trkpt lat="47.17961" lon="-1.87773">
        <ele>85</ele>
        <time>2022-08-20T08:59:27Z</time>
      </trkpt>
      <trkpt lat="47.17952" lon="-1.87777">
        <ele>85</ele>
        <time>2022-08-20T08:59:29Z</time>
      </trkpt>
      <trkpt lat="47.17943" lon="-1.87783">
        <ele>86</ele>
        <time>2022-08-20T08:59:31Z</time>
      </trkpt>
      <trkpt lat="47.17934" lon="-1.87788">
        <ele>86</ele>
        <time>2022-08-20T08:59:33Z</time>
      </trkpt>
      <trkpt lat="47.17924" lon="-1.87794">
        <ele>86</ele>
        <time>2022-08-20T08:59:35Z</time>
      </trkpt>
      <trkpt lat="47.17915" lon="-1.87799">
        <ele>87</ele>
        <time>2022-08-20T08:59:37Z</time>
      </trkpt>
      <trkpt lat="47.17906" lon="-1.87804">
        <ele>88</ele>
        <time>2022-08-20T08:59:39Z</time>
      </trkpt>
      <trkpt lat="47.17897" lon="-1.87808">
        <ele>88</ele>
        <time>2022-08-20T08:59:41Z</time>
      </trkpt>
      <trkpt lat="47.17887" lon="-1.87814">
        <ele>89</ele>
        <time>2022-08-20T08:59:43Z</time>
      </trkpt>
      <trkpt lat="47.17878" lon="-1.87819">
        <ele>89</ele>
        <time>2022-08-20T08:59:45Z</time>
      </trkpt>
      <trkpt lat="47.17869" lon="-1.87824">
        <ele>89</ele>
        <time>2022-08-20T08:59:47Z</time>
      </trkpt>
      <trkpt lat="47.1786" lon="-1.87829">
        <ele>90</ele>
        <time>2022-08-20T08:59:49Z</time>
      </trkpt>
      <trkpt lat="47.17851" lon="-1.87834">
        <ele>91</ele>
        <time>2022-08-20T08:59:51Z</time>
      </trkpt>
      <trkpt lat="47.17842" lon="-1.87839">
        <ele>91</ele>
        <time>2022-08-20T08:59:53Z</time>
      </trkpt>
      <trkpt lat="47.17833" lon="-1.87844">
        <ele>92</ele>
        <time>2022-08-20T08:59:55Z</time>
      </trkpt>
      <trkpt lat="47.17823" lon="-1.87848">
        <ele>92</ele>
        <time>2022-08-20T08:59:57Z</time>
      </trkpt>
      <trkpt lat="47.17814" lon="-1.87852">
        <ele>93</ele>
        <time>2022-08-20T08:59:59Z</time>
      </trkpt>
      <trkpt lat="47.17805" lon="-1.87857">
        <ele>93</ele>
        <time>2022-08-20T09:00:01Z</time>
      </trkpt>
      <trkpt lat="47.17795" lon="-1.87861">
        <ele>94</ele>
        <time>2022-08-20T09:00:03Z</time>
      </trkpt>
      <trkpt lat="47.17787" lon="-1.87866">
        <ele>95</ele>
        <time>2022-08-20T09:00:05Z</time>
      </trkpt>
      <trkpt lat="47.17778" lon="-1.8787">
        <ele>95</ele>
        <time>2022-08-20T09:00:07Z</time>
      </trkpt>
      <trkpt lat="47.17769" lon="-1.87874">
        <ele>96</ele>
        <time>2022-08-20T09:00:09Z</time>
      </trkpt>
      <trkpt lat="47.1776" lon="-1.8788">
        <ele>96</ele>
        <time>2022-08-20T09:00:11Z</time>
      </trkpt>
      <trkpt lat="47.17751" lon="-1.87885">
        <ele>97</ele>
        <time>2022-08-20T09:00:13Z</time>
      </trkpt>
      <trkpt lat="47.17743" lon="-1.87889">
        <ele>97</ele>
        <time>2022-08-20T09:00:15Z</time>
      </trkpt>
      <trkpt lat="47.17734" lon="-1.87895">
        <ele>97</ele>
        <time>2022-08-20T09:00:17Z</time>
      </trkpt>
      <trkpt lat="47.17725" lon="-1.87901">
        <ele>97</ele>
        <time>2022-08-20T09:00:19Z</time>
      </trkpt>
      <trkpt lat="47.17716" lon="-1.87907">
        <ele>97</ele>
        <time>2022-08-20T09:00:21Z</time>
      </trkpt>
      <trkpt lat="47.17706" lon="-1.87912">
        <ele>97</ele>
        <time>2022-08-20T09:00:23Z</time>
      </trkpt>
      <trkpt lat="47.17697" lon="-1.87917">
        <ele>97</ele>
        <time>2022-08-20T09:00:25Z</time>
      </trkpt>
      <trkpt lat="47.17687" lon="-1.8792">
        <ele>97</ele>
        <time>2022-08-20T09:00:27Z</time>
      </trkpt>
      <trkpt lat="47.17676" lon="-1.87922">
        <ele>98</ele>
        <time>2022-08-20T09:00:29Z</time>
      </trkpt>
      <trkpt lat="47.17665" lon="-1.87924">
        <ele>98</ele>
        <time>2022-08-20T09:00:31Z</time>
      </trkpt>
      <trkpt lat="47.17655" lon="-1.87927">
        <ele>99</ele>
        <time>2022-08-20T09:00:33Z</time>
      </trkpt>
      <trkpt lat="47.17645" lon="-1.8793">
        <ele>99</ele>
        <time>2022-08-20T09:00:35Z</time>
      </trkpt>
      <trkpt lat="47.17634" lon="-1.87934">
        <ele>99</ele>
        <time>2022-08-20T09:00:37Z</time>
      </trkpt>
      <trkpt lat="47.17625" lon="-1.87938">
        <ele>99</ele>
        <time>2022-08-20T09:00:39Z</time>
      </trkpt>
      <trkpt lat="47.17616" lon="-1.87943">
        <ele>100</ele>
        <time>2022-08-20T09:00:41Z</time>
      </trkpt>
      <trkpt lat="47.17607" lon="-1.87948">
        <ele>101</ele>
        <time>2022-08-20T09:00:43Z</time>
      </trkpt>
      <trkpt lat="47.17596" lon="-1.87954">
        <ele>101</ele>
        <time>2022-08-20T09:00:46Z</time>
      </trkpt>
      <trkpt lat="47.17587" lon="-1.8796">
        <ele>102</ele>
        <time>2022-08-20T09:00:48Z</time>
      </trkpt>
      <trkpt lat="47.17579" lon="-1.87965">
        <ele>102</ele>
        <time>2022-08-20T09:00:50Z</time>
      </trkpt>
      <trkpt lat="47.17571" lon="-1.87971">
        <ele>103</ele>
        <time>2022-08-20T09:00:52Z</time>
      </trkpt>
      <trkpt lat="47.17562" lon="-1.87976">
        <ele>102</ele>
        <time>2022-08-20T09:00:54Z</time>
      </trkpt>
      <trkpt lat="47.17553" lon="-1.87982">
        <ele>103</ele>
        <time>2022-08-20T09:00:56Z</time>
      </trkpt>
      <trkpt lat="47.17541" lon="-1.8799">
        <ele>103</ele>
        <time>2022-08-20T09:00:59Z</time>
      </trkpt>
      <trkpt lat="47.17533" lon="-1.87995">
        <ele>103</ele>
        <time>2022-08-20T09:01:01Z</time>
      </trkpt>
      <trkpt lat="47.17524" lon="-1.88">
        <ele>103</ele>
        <time>2022-08-20T09:01:03Z</time>
      </trkpt>
      <trkpt lat="47.17512" lon="-1.88008">
        <ele>104</ele>
        <time>2022-08-20T09:01:06Z</time>
      </trkpt>
      <trkpt lat="47.17504" lon="-1.88013">
        <ele>104</ele>
        <time>2022-08-20T09:01:08Z</time>
      </trkpt>
      <trkpt lat="47.17495" lon="-1.88019">
        <ele>104</ele>
        <time>2022-08-20T09:01:10Z</time>
      </trkpt>
      <trkpt lat="47.17486" lon="-1.88025">
        <ele>104</ele>
        <time>2022-08-20T09:01:12Z</time>
      </trkpt>
      <trkpt lat="47.17477" lon="-1.8803">
        <ele>105</ele>
        <time>2022-08-20T09:01:14Z</time>
      </trkpt>
      <trkpt lat="47.17468" lon="-1.88035">
        <ele>105</ele>
        <time>2022-08-20T09:01:16Z</time>
      </trkpt>
      <trkpt lat="47.17456" lon="-1.88043">
        <ele>105</ele>
        <time>2022-08-20T09:01:19Z</time>
      </trkpt>
      <trkpt lat="47.17448" lon="-1.88049">
        <ele>106</ele>
        <time>2022-08-20T09:01:21Z</time>
      </trkpt>
      <trkpt lat="47.17436" lon="-1.88056">
        <ele>106</ele>
        <time>2022-08-20T09:01:24Z</time>
      </trkpt>
      <trkpt lat="47.17424" lon="-1.88062">
        <ele>107</ele>
        <time>2022-08-20T09:01:27Z</time>
      </trkpt>
      <trkpt lat="47.17411" lon="-1.88066">
        <ele>107</ele>
        <time>2022-08-20T09:01:30Z</time>
      </trkpt>
      <trkpt lat="47.17402" lon="-1.8807">
        <ele>107</ele>
        <time>2022-08-20T09:01:32Z</time>
      </trkpt>
      <trkpt lat="47.17393" lon="-1.88076">
        <ele>108</ele>
        <time>2022-08-20T09:01:34Z</time>
      </trkpt>
      <trkpt lat="47.17384" lon="-1.88081">
        <ele>108</ele>
        <time>2022-08-20T09:01:36Z</time>
      </trkpt>
      <trkpt lat="47.17375" lon="-1.88087">
        <ele>108</ele>
        <time>2022-08-20T09:01:38Z</time>
      </trkpt>
      <trkpt lat="47.17366" lon="-1.88093">
        <ele>108</ele>
        <time>2022-08-20T09:01:40Z</time>
      </trkpt>
      <trkpt lat="47.17357" lon="-1.88099">
        <ele>108</ele>
        <time>2022-08-20T09:01:42Z</time>
      </trkpt>
      <trkpt lat="47.17348" lon="-1.88107">
        <ele>108</ele>
        <time>2022-08-20T09:01:44Z</time>
      </trkpt>
      <trkpt lat="47.17341" lon="-1.88119">
        <ele>107</ele>
        <time>2022-08-20T09:01:46Z</time>
      </trkpt>
      <trkpt lat="47.17338" lon="-1.88135">
        <ele>107</ele>
        <time>2022-08-20T09:01:48Z</time>
      </trkpt>
      <trkpt lat="47.1734" lon="-1.88152">
        <ele>106</ele>
        <time>2022-08-20T09:01:50Z</time>
      </trkpt>
      <trkpt lat="47.17344" lon="-1.8817">
        <ele>106</ele>
        <time>2022-08-20T09:01:52Z</time>
      </trkpt>
      <trkpt lat="47.1735" lon="-1.88187">
        <ele>105</ele>
        <time>2022-08-20T09:01:54Z</time>
      </trkpt>
      <trkpt lat="47.17355" lon="-1.88205">
        <ele>105</ele>
        <time>2022-08-20T09:01:56Z</time>
      </trkpt>
      <trkpt lat="47.17359" lon="-1.88223">
        <ele>105</ele>
        <time>2022-08-20T09:01:58Z</time>
      </trkpt>
      <trkpt lat="47.17362" lon="-1.88243">
        <ele>104</ele>
        <time>2022-08-20T09:02:00Z</time>
      </trkpt>
      <trkpt lat="47.17364" lon="-1.88263">
        <ele>104</ele>
        <time>2022-08-20T09:02:02Z</time>
      </trkpt>
      <trkpt lat="47.17365" lon="-1.88282">
        <ele>104</ele>
        <time>2022-08-20T09:02:04Z</time>
      </trkpt>
      <trkpt lat="47.17366" lon="-1.88302">
        <ele>104</ele>
        <time>2022-08-20T09:02:06Z</time>
      </trkpt>
      <trkpt lat="47.17367" lon="-1.88322">
        <ele>104</ele>
        <time>2022-08-20T09:02:08Z</time>
      </trkpt>
      <trkpt lat="47.17369" lon="-1.88343">
        <ele>104</ele>
        <time>2022-08-20T09:02:10Z</time>
      </trkpt>
      <trkpt lat="47.1737" lon="-1.88364">
        <ele>103</ele>
        <time>2022-08-20T09:02:12Z</time>
      </trkpt>
      <trkpt lat="47.17371" lon="-1.88383">
        <ele>103</ele>
        <time>2022-08-20T09:02:14Z</time>
      </trkpt>
      <trkpt lat="47.17371" lon="-1.88403">
        <ele>104</ele>
        <time>2022-08-20T09:02:16Z</time>
      </trkpt>
      <trkpt lat="47.17373" lon="-1.88423">
        <ele>104</ele>
        <time>2022-08-20T09:02:18Z</time>
      </trkpt>
      <trkpt lat="47.17374" lon="-1.88442">
        <ele>103</ele>
        <time>2022-08-20T09:02:20Z</time>
      </trkpt>
      <trkpt lat="47.17375" lon="-1.88461">
        <ele>103</ele>
        <time>2022-08-20T09:02:22Z</time>
      </trkpt>
      <trkpt lat="47.17376" lon="-1.8848">
        <ele>103</ele>
        <time>2022-08-20T09:02:24Z</time>
      </trkpt>
      <trkpt lat="47.17377" lon="-1.88499">
        <ele>103</ele>
        <time>2022-08-20T09:02:26Z</time>
      </trkpt>
      <trkpt lat="47.17378" lon="-1.88518">
        <ele>103</ele>
        <time>2022-08-20T09:02:28Z</time>
      </trkpt>
      <trkpt lat="47.17379" lon="-1.88537">
        <ele>103</ele>
        <time>2022-08-20T09:02:30Z</time>
      </trkpt>
      <trkpt lat="47.1738" lon="-1.88557">
        <ele>103</ele>
        <time>2022-08-20T09:02:32Z</time>
      </trkpt>
      <trkpt lat="47.17381" lon="-1.88575">
        <ele>103</ele>
        <time>2022-08-20T09:02:34Z</time>
      </trkpt>
      <trkpt lat="47.17382" lon="-1.88594">
        <ele>103</ele>
        <time>2022-08-20T09:02:36Z</time>
      </trkpt>
      <trkpt lat="47.17383" lon="-1.88614">
        <ele>103</ele>
        <time>2022-08-20T09:02:38Z</time>
      </trkpt>
      <trkpt lat="47.17384" lon="-1.88633">
        <ele>103</ele>
        <time>2022-08-20T09:02:40Z</time>
      </trkpt>
      <trkpt lat="47.17386" lon="-1.88652">
        <ele>103</ele>
        <time>2022-08-20T09:02:42Z</time>
      </trkpt>
      <trkpt lat="47.17386" lon="-1.88672">
        <ele>103</ele>
        <time>2022-08-20T09:02:44Z</time>
      </trkpt>
      <trkpt lat="47.17388" lon="-1.88691">
        <ele>103</ele>
        <time>2022-08-20T09:02:46Z</time>
      </trkpt>
      <trkpt lat="47.17389" lon="-1.8871">
        <ele>103</ele>
        <time>2022-08-20T09:02:48Z</time>
      </trkpt>
      <trkpt lat="47.1739" lon="-1.88729">
        <ele>103</ele>
        <time>2022-08-20T09:02:50Z</time>
      </trkpt>
      <trkpt lat="47.17391" lon="-1.88748">
        <ele>103</ele>
        <time>2022-08-20T09:02:52Z</time>
      </trkpt>
      <trkpt lat="47.17392" lon="-1.88768">
        <ele>103</ele>
        <time>2022-08-20T09:02:54Z</time>
      </trkpt>
      <trkpt lat="47.17393" lon="-1.88788">
        <ele>104</ele>
        <time>2022-08-20T09:02:56Z</time>
      </trkpt>
      <trkpt lat="47.17395" lon="-1.88807">
        <ele>103</ele>
        <time>2022-08-20T09:02:58Z</time>
      </trkpt>
      <trkpt lat="47.17398" lon="-1.88826">
        <ele>103</ele>
        <time>2022-08-20T09:03:00Z</time>
      </trkpt>
      <trkpt lat="47.17402" lon="-1.88845">
        <ele>104</ele>
        <time>2022-08-20T09:03:02Z</time>
      </trkpt>
      <trkpt lat="47.17406" lon="-1.88863">
        <ele>104</ele>
        <time>2022-08-20T09:03:04Z</time>
      </trkpt>
      <trkpt lat="47.1741" lon="-1.88883">
        <ele>103</ele>
        <time>2022-08-20T09:03:06Z</time>
      </trkpt>
      <trkpt lat="47.17415" lon="-1.88902">
        <ele>103</ele>
        <time>2022-08-20T09:03:08Z</time>
      </trkpt>
      <trkpt lat="47.17419" lon="-1.88921">
        <ele>103</ele>
        <time>2022-08-20T09:03:10Z</time>
      </trkpt>
      <trkpt lat="47.17423" lon="-1.88939">
        <ele>103</ele>
        <time>2022-08-20T09:03:12Z</time>
      </trkpt>
      <trkpt lat="47.17427" lon="-1.88957">
        <ele>104</ele>
        <time>2022-08-20T09:03:14Z</time>
      </trkpt>
      <trkpt lat="47.17431" lon="-1.88975">
        <ele>104</ele>
        <time>2022-08-20T09:03:16Z</time>
      </trkpt>
      <trkpt lat="47.17435" lon="-1.88993">
        <ele>105</ele>
        <time>2022-08-20T09:03:18Z</time>
      </trkpt>
      <trkpt lat="47.17439" lon="-1.89011">
        <ele>105</ele>
        <time>2022-08-20T09:03:20Z</time>
      </trkpt>
      <trkpt lat="47.17443" lon="-1.89029">
        <ele>105</ele>
        <time>2022-08-20T09:03:22Z</time>
      </trkpt>
      <trkpt lat="47.17446" lon="-1.89048">
        <ele>105</ele>
        <time>2022-08-20T09:03:24Z</time>
      </trkpt>
      <trkpt lat="47.1745" lon="-1.89065">
        <ele>105</ele>
        <time>2022-08-20T09:03:26Z</time>
      </trkpt>
      <trkpt lat="47.17454" lon="-1.89083">
        <ele>105</ele>
        <time>2022-08-20T09:03:28Z</time>
      </trkpt>
      <trkpt lat="47.17458" lon="-1.89101">
        <ele>105</ele>
        <time>2022-08-20T09:03:30Z</time>
      </trkpt>
      <trkpt lat="47.17462" lon="-1.89118">
        <ele>105</ele>
        <time>2022-08-20T09:03:32Z</time>
      </trkpt>
      <trkpt lat="47.17466" lon="-1.89136">
        <ele>105</ele>
        <time>2022-08-20T09:03:34Z</time>
      </trkpt>
      <trkpt lat="47.1747" lon="-1.89153">
        <ele>105</ele>
        <time>2022-08-20T09:03:36Z</time>
      </trkpt>
      <trkpt lat="47.17473" lon="-1.8917">
        <ele>105</ele>
        <time>2022-08-20T09:03:38Z</time>
      </trkpt>
      <trkpt lat="47.17475" lon="-1.89188">
        <ele>105</ele>
        <time>2022-08-20T09:03:40Z</time>
      </trkpt>
      <trkpt lat="47.17477" lon="-1.89206">
        <ele>105</ele>
        <time>2022-08-20T09:03:42Z</time>
      </trkpt>
      <trkpt lat="47.17477" lon="-1.89224">
        <ele>105</ele>
        <time>2022-08-20T09:03:44Z</time>
      </trkpt>
      <trkpt lat="47.17476" lon="-1.89242">
        <ele>105</ele>
        <time>2022-08-20T09:03:46Z</time>
      </trkpt>
      <trkpt lat="47.17475" lon="-1.8926">
        <ele>105</ele>
        <time>2022-08-20T09:03:48Z</time>
      </trkpt>
      <trkpt lat="47.17474" lon="-1.89278">
        <ele>104</ele>
        <time>2022-08-20T09:03:50Z</time>
      </trkpt>
      <trkpt lat="47.17472" lon="-1.89296">
        <ele>104</ele>
        <time>2022-08-20T09:03:52Z</time>
      </trkpt>
      <trkpt lat="47.17471" lon="-1.89315">
        <ele>104</ele>
        <time>2022-08-20T09:03:54Z</time>
      </trkpt>
      <trkpt lat="47.1747" lon="-1.89333">
        <ele>104</ele>
        <time>2022-08-20T09:03:56Z</time>
      </trkpt>
      <trkpt lat="47.1747" lon="-1.89351">
        <ele>104</ele>
        <time>2022-08-20T09:03:58Z</time>
      </trkpt>
      <trkpt lat="47.1747" lon="-1.8937">
        <ele>104</ele>
        <time>2022-08-20T09:04:00Z</time>
      </trkpt>
      <trkpt lat="47.17471" lon="-1.89388">
        <ele>105</ele>
        <time>2022-08-20T09:04:02Z</time>
      </trkpt>
      <trkpt lat="47.17472" lon="-1.89407">
        <ele>105</ele>
        <time>2022-08-20T09:04:04Z</time>
      </trkpt>
      <trkpt lat="47.17473" lon="-1.89426">
        <ele>105</ele>
        <time>2022-08-20T09:04:06Z</time>
      </trkpt>
      <trkpt lat="47.17475" lon="-1.89445">
        <ele>105</ele>
        <time>2022-08-20T09:04:08Z</time>
      </trkpt>
      <trkpt lat="47.17476" lon="-1.89464">
        <ele>105</ele>
        <time>2022-08-20T09:04:10Z</time>
      </trkpt>
      <trkpt lat="47.17478" lon="-1.89483">
        <ele>105</ele>
        <time>2022-08-20T09:04:12Z</time>
      </trkpt>
      <trkpt lat="47.1748" lon="-1.89502">
        <ele>105</ele>
        <time>2022-08-20T09:04:14Z</time>
      </trkpt>
      <trkpt lat="47.17481" lon="-1.89521">
        <ele>105</ele>
        <time>2022-08-20T09:04:16Z</time>
      </trkpt>
      <trkpt lat="47.17482" lon="-1.8954">
        <ele>105</ele>
        <time>2022-08-20T09:04:18Z</time>
      </trkpt>
      <trkpt lat="47.17483" lon="-1.89559">
        <ele>105</ele>
        <time>2022-08-20T09:04:20Z</time>
      </trkpt>
      <trkpt lat="47.17482" lon="-1.89578">
        <ele>105</ele>
        <time>2022-08-20T09:04:22Z</time>
      </trkpt>
      <trkpt lat="47.17481" lon="-1.89597">
        <ele>105</ele>
        <time>2022-08-20T09:04:24Z</time>
      </trkpt>
      <trkpt lat="47.17479" lon="-1.89616">
        <ele>105</ele>
        <time>2022-08-20T09:04:26Z</time>
      </trkpt>
      <trkpt lat="47.17476" lon="-1.89634">
        <ele>105</ele>
        <time>2022-08-20T09:04:28Z</time>
      </trkpt>
      <trkpt lat="47.17473" lon="-1.89652">
        <ele>105</ele>
        <time>2022-08-20T09:04:30Z</time>
      </trkpt>
      <trkpt lat="47.17469" lon="-1.8967">
        <ele>105</ele>
        <time>2022-08-20T09:04:32Z</time>
      </trkpt>
      <trkpt lat="47.17465" lon="-1.89687">
        <ele>105</ele>
        <time>2022-08-20T09:04:34Z</time>
      </trkpt>
      <trkpt lat="47.17461" lon="-1.89705">
        <ele>106</ele>
        <time>2022-08-20T09:04:36Z</time>
      </trkpt>
      <trkpt lat="47.17457" lon="-1.89722">
        <ele>106</ele>
        <time>2022-08-20T09:04:38Z</time>
      </trkpt>
      <trkpt lat="47.17453" lon="-1.8974">
        <ele>106</ele>
        <time>2022-08-20T09:04:40Z</time>
      </trkpt>
      <trkpt lat="47.17449" lon="-1.89758">
        <ele>106</ele>
        <time>2022-08-20T09:04:42Z</time>
      </trkpt>
      <trkpt lat="47.17445" lon="-1.89775">
        <ele>106</ele>
        <time>2022-08-20T09:04:44Z</time>
      </trkpt>
      <trkpt lat="47.17441" lon="-1.89793">
        <ele>105</ele>
        <time>2022-08-20T09:04:46Z</time>
      </trkpt>
      <trkpt lat="47.17437" lon="-1.8981">
        <ele>105</ele>
        <time>2022-08-20T09:04:48Z</time>
      </trkpt>
      <trkpt lat="47.17432" lon="-1.89827">
        <ele>105</ele>
        <time>2022-08-20T09:04:50Z</time>
      </trkpt>
      <trkpt lat="47.17429" lon="-1.89844">
        <ele>105</ele>
        <time>2022-08-20T09:04:52Z</time>
      </trkpt>
      <trkpt lat="47.17425" lon="-1.89861">
        <ele>106</ele>
        <time>2022-08-20T09:04:54Z</time>
      </trkpt>
      <trkpt lat="47.17421" lon="-1.89878">
        <ele>106</ele>
        <time>2022-08-20T09:04:56Z</time>
      </trkpt>
      <trkpt lat="47.17417" lon="-1.89895">
        <ele>106</ele>
        <time>2022-08-20T09:04:58Z</time>
      </trkpt>
      <trkpt lat="47.17413" lon="-1.89912">
        <ele>106</ele>
        <time>2022-08-20T09:05:00Z</time>
      </trkpt>
      <trkpt lat="47.1741" lon="-1.89928">
        <ele>106</ele>
        <time>2022-08-20T09:05:02Z</time>
      </trkpt>
      <trkpt lat="47.17407" lon="-1.89944">
        <ele>106</ele>
        <time>2022-08-20T09:05:04Z</time>
      </trkpt>
      <trkpt lat="47.17405" lon="-1.89958">
        <ele>106</ele>
        <time>2022-08-20T09:05:06Z</time>
      </trkpt>
      <trkpt lat="47.17401" lon="-1.89972">
        <ele>106</ele>
        <time>2022-08-20T09:05:08Z</time>
      </trkpt>
      <trkpt lat="47.17396" lon="-1.89989">
        <ele>105</ele>
        <time>2022-08-20T09:05:10Z</time>
      </trkpt>
      <trkpt lat="47.17391" lon="-1.90006">
        <ele>105</ele>
        <time>2022-08-20T09:05:12Z</time>
      </trkpt>
      <trkpt lat="47.17385" lon="-1.90023">
        <ele>105</ele>
        <time>2022-08-20T09:05:14Z</time>
      </trkpt>
      <trkpt lat="47.1738" lon="-1.9004">
        <ele>105</ele>
        <time>2022-08-20T09:05:16Z</time>
      </trkpt>
      <trkpt lat="47.17375" lon="-1.90059">
        <ele>105</ele>
        <time>2022-08-20T09:05:18Z</time>
      </trkpt>
      <trkpt lat="47.1737" lon="-1.90077">
        <ele>105</ele>
        <time>2022-08-20T09:05:20Z</time>
      </trkpt>
      <trkpt lat="47.17365" lon="-1.90096">
        <ele>105</ele>
        <time>2022-08-20T09:05:22Z</time>
      </trkpt>
      <trkpt lat="47.1736" lon="-1.90115">
        <ele>105</ele>
        <time>2022-08-20T09:05:24Z</time>
      </trkpt>
      <trkpt lat="47.17356" lon="-1.90133">
        <ele>104</ele>
        <time>2022-08-20T09:05:26Z</time>
      </trkpt>
      <trkpt lat="47.1735" lon="-1.90151">
        <ele>105</ele>
        <time>2022-08-20T09:05:28Z</time>
      </trkpt>
      <trkpt lat="47.17346" lon="-1.90168">
        <ele>105</ele>
        <time>2022-08-20T09:05:30Z</time>
      </trkpt>
      <trkpt lat="47.17341" lon="-1.90186">
        <ele>105</ele>
        <time>2022-08-20T09:05:32Z</time>
      </trkpt>
      <trkpt lat="47.17337" lon="-1.90204">
        <ele>105</ele>
        <time>2022-08-20T09:05:34Z</time>
      </trkpt>
      <trkpt lat="47.1733" lon="-1.90222">
        <ele>105</ele>
        <time>2022-08-20T09:05:36Z</time>
      </trkpt>
      <trkpt lat="47.17325" lon="-1.9024">
        <ele>105</ele>
        <time>2022-08-20T09:05:38Z</time>
      </trkpt>
      <trkpt lat="47.1732" lon="-1.90259">
        <ele>105</ele>
        <time>2022-08-20T09:05:40Z</time>
      </trkpt>
      <trkpt lat="47.17315" lon="-1.90277">
        <ele>105</ele>
        <time>2022-08-20T09:05:42Z</time>
      </trkpt>
      <trkpt lat="47.1731" lon="-1.90295">
        <ele>106</ele>
        <time>2022-08-20T09:05:44Z</time>
      </trkpt>
      <trkpt lat="47.17306" lon="-1.90312">
        <ele>106</ele>
        <time>2022-08-20T09:05:46Z</time>
      </trkpt>
      <trkpt lat="47.17301" lon="-1.90329">
        <ele>105</ele>
        <time>2022-08-20T09:05:48Z</time>
      </trkpt>
      <trkpt lat="47.17296" lon="-1.90346">
        <ele>106</ele>
        <time>2022-08-20T09:05:50Z</time>
      </trkpt>
      <trkpt lat="47.17292" lon="-1.90365">
        <ele>106</ele>
        <time>2022-08-20T09:05:52Z</time>
      </trkpt>
      <trkpt lat="47.17288" lon="-1.90384">
        <ele>106</ele>
        <time>2022-08-20T09:05:54Z</time>
      </trkpt>
      <trkpt lat="47.17285" lon="-1.90403">
        <ele>106</ele>
        <time>2022-08-20T09:05:56Z</time>
      </trkpt>
      <trkpt lat="47.17282" lon="-1.90423">
        <ele>105</ele>
        <time>2022-08-20T09:05:58Z</time>
      </trkpt>
      <trkpt lat="47.17279" lon="-1.90443">
        <ele>105</ele>
        <time>2022-08-20T09:06:00Z</time>
      </trkpt>
      <trkpt lat="47.17278" lon="-1.90463">
        <ele>105</ele>
        <time>2022-08-20T09:06:02Z</time>
      </trkpt>
      <trkpt lat="47.17277" lon="-1.90483">
        <ele>105</ele>
        <time>2022-08-20T09:06:04Z</time>
      </trkpt>
      <trkpt lat="47.17277" lon="-1.90504">
        <ele>105</ele>
        <time>2022-08-20T09:06:06Z</time>
      </trkpt>
      <trkpt lat="47.17276" lon="-1.90524">
        <ele>105</ele>
        <time>2022-08-20T09:06:08Z</time>
      </trkpt>
      <trkpt lat="47.17274" lon="-1.90544">
        <ele>105</ele>
        <time>2022-08-20T09:06:10Z</time>
      </trkpt>
      <trkpt lat="47.17273" lon="-1.90565">
        <ele>105</ele>
        <time>2022-08-20T09:06:12Z</time>
      </trkpt>
      <trkpt lat="47.17272" lon="-1.90584">
        <ele>106</ele>
        <time>2022-08-20T09:06:14Z</time>
      </trkpt>
      <trkpt lat="47.17271" lon="-1.90603">
        <ele>106</ele>
        <time>2022-08-20T09:06:16Z</time>
      </trkpt>
      <trkpt lat="47.17269" lon="-1.90623">
        <ele>106</ele>
        <time>2022-08-20T09:06:18Z</time>
      </trkpt>
      <trkpt lat="47.17267" lon="-1.90644">
        <ele>106</ele>
        <time>2022-08-20T09:06:20Z</time>
      </trkpt>
      <trkpt lat="47.17266" lon="-1.90664">
        <ele>106</ele>
        <time>2022-08-20T09:06:22Z</time>
      </trkpt>
      <trkpt lat="47.17265" lon="-1.90683">
        <ele>106</ele>
        <time>2022-08-20T09:06:24Z</time>
      </trkpt>
      <trkpt lat="47.17264" lon="-1.90703">
        <ele>106</ele>
        <time>2022-08-20T09:06:26Z</time>
      </trkpt>
      <trkpt lat="47.17263" lon="-1.90725">
        <ele>106</ele>
        <time>2022-08-20T09:06:28Z</time>
      </trkpt>
      <trkpt lat="47.17262" lon="-1.90747">
        <ele>104</ele>
        <time>2022-08-20T09:06:30Z</time>
      </trkpt>
      <trkpt lat="47.1726" lon="-1.90767">
        <ele>105</ele>
        <time>2022-08-20T09:06:32Z</time>
      </trkpt>
      <trkpt lat="47.17257" lon="-1.90788">
        <ele>105</ele>
        <time>2022-08-20T09:06:34Z</time>
      </trkpt>
      <trkpt lat="47.17254" lon="-1.90808">
        <ele>105</ele>
        <time>2022-08-20T09:06:36Z</time>
      </trkpt>
      <trkpt lat="47.17249" lon="-1.90828">
        <ele>105</ele>
        <time>2022-08-20T09:06:38Z</time>
      </trkpt>
      <trkpt lat="47.17243" lon="-1.90849">
        <ele>105</ele>
        <time>2022-08-20T09:06:40Z</time>
      </trkpt>
      <trkpt lat="47.17237" lon="-1.90869">
        <ele>104</ele>
        <time>2022-08-20T09:06:42Z</time>
      </trkpt>
      <trkpt lat="47.17232" lon="-1.90888">
        <ele>104</ele>
        <time>2022-08-20T09:06:44Z</time>
      </trkpt>
      <trkpt lat="47.17226" lon="-1.90907">
        <ele>104</ele>
        <time>2022-08-20T09:06:46Z</time>
      </trkpt>
      <trkpt lat="47.1722" lon="-1.90927">
        <ele>104</ele>
        <time>2022-08-20T09:06:48Z</time>
      </trkpt>
      <trkpt lat="47.17213" lon="-1.90946">
        <ele>104</ele>
        <time>2022-08-20T09:06:50Z</time>
      </trkpt>
      <trkpt lat="47.17204" lon="-1.90964">
        <ele>104</ele>
        <time>2022-08-20T09:06:52Z</time>
      </trkpt>
      <trkpt lat="47.17194" lon="-1.9098">
        <ele>104</ele>
        <time>2022-08-20T09:06:54Z</time>
      </trkpt>
      <trkpt lat="47.17184" lon="-1.90997">
        <ele>104</ele>
        <time>2022-08-20T09:06:56Z</time>
      </trkpt>
      <trkpt lat="47.17173" lon="-1.91012">
        <ele>103</ele>
        <time>2022-08-20T09:06:58Z</time>
      </trkpt>
      <trkpt lat="47.17162" lon="-1.91027">
        <ele>102</ele>
        <time>2022-08-20T09:07:00Z</time>
      </trkpt>
      <trkpt lat="47.17152" lon="-1.91042">
        <ele>101</ele>
        <time>2022-08-20T09:07:02Z</time>
      </trkpt>
      <trkpt lat="47.17142" lon="-1.91058">
        <ele>101</ele>
        <time>2022-08-20T09:07:04Z</time>
      </trkpt>
      <trkpt lat="47.17131" lon="-1.91073">
        <ele>100</ele>
        <time>2022-08-20T09:07:06Z</time>
      </trkpt>
      <trkpt lat="47.17121" lon="-1.91088">
        <ele>100</ele>
        <time>2022-08-20T09:07:08Z</time>
      </trkpt>
      <trkpt lat="47.17111" lon="-1.91103">
        <ele>100</ele>
        <time>2022-08-20T09:07:10Z</time>
      </trkpt>
      <trkpt lat="47.17101" lon="-1.91118">
        <ele>100</ele>
        <time>2022-08-20T09:07:12Z</time>
      </trkpt>
      <trkpt lat="47.17091" lon="-1.91135">
        <ele>101</ele>
        <time>2022-08-20T09:07:14Z</time>
      </trkpt>
      <trkpt lat="47.17081" lon="-1.9115">
        <ele>101</ele>
        <time>2022-08-20T09:07:16Z</time>
      </trkpt>
      <trkpt lat="47.17071" lon="-1.91165">
        <ele>102</ele>
        <time>2022-08-20T09:07:18Z</time>
      </trkpt>
      <trkpt lat="47.17061" lon="-1.9118">
        <ele>102</ele>
        <time>2022-08-20T09:07:20Z</time>
      </trkpt>
      <trkpt lat="47.17051" lon="-1.91196">
        <ele>102</ele>
        <time>2022-08-20T09:07:22Z</time>
      </trkpt>
      <trkpt lat="47.17041" lon="-1.91212">
        <ele>102</ele>
        <time>2022-08-20T09:07:24Z</time>
      </trkpt>
      <trkpt lat="47.17031" lon="-1.91226">
        <ele>103</ele>
        <time>2022-08-20T09:07:26Z</time>
      </trkpt>
      <trkpt lat="47.1702" lon="-1.91241">
        <ele>103</ele>
        <time>2022-08-20T09:07:28Z</time>
      </trkpt>
      <trkpt lat="47.17008" lon="-1.91254">
        <ele>103</ele>
        <time>2022-08-20T09:07:30Z</time>
      </trkpt>
      <trkpt lat="47.16995" lon="-1.91264">
        <ele>103</ele>
        <time>2022-08-20T09:07:32Z</time>
      </trkpt>
      <trkpt lat="47.16981" lon="-1.91273">
        <ele>103</ele>
        <time>2022-08-20T09:07:34Z</time>
      </trkpt>
      <trkpt lat="47.16967" lon="-1.91281">
        <ele>103</ele>
        <time>2022-08-20T09:07:36Z</time>
      </trkpt>
      <trkpt lat="47.16954" lon="-1.91289">
        <ele>103</ele>
        <time>2022-08-20T09:07:38Z</time>
      </trkpt>
      <trkpt lat="47.16941" lon="-1.91295">
        <ele>103</ele>
        <time>2022-08-20T09:07:40Z</time>
      </trkpt>
      <trkpt lat="47.16928" lon="-1.91302">
        <ele>103</ele>
        <time>2022-08-20T09:07:42Z</time>
      </trkpt>
      <trkpt lat="47.16914" lon="-1.91309">
        <ele>103</ele>
        <time>2022-08-20T09:07:44Z</time>
      </trkpt>
      <trkpt lat="47.16901" lon="-1.91317">
        <ele>102</ele>
        <time>2022-08-20T09:07:46Z</time>
      </trkpt>
      <trkpt lat="47.16888" lon="-1.91328">
        <ele>101</ele>
        <time>2022-08-20T09:07:48Z</time>
      </trkpt>
      <trkpt lat="47.16878" lon="-1.91342">
        <ele>100</ele>
        <time>2022-08-20T09:07:50Z</time>
      </trkpt>
      <trkpt lat="47.16869" lon="-1.91359">
        <ele>100</ele>
        <time>2022-08-20T09:07:52Z</time>
      </trkpt>
      <trkpt lat="47.16863" lon="-1.91377">
        <ele>99</ele>
        <time>2022-08-20T09:07:54Z</time>
      </trkpt>
      <trkpt lat="47.16857" lon="-1.91396">
        <ele>99</ele>
        <time>2022-08-20T09:07:56Z</time>
      </trkpt>
      <trkpt lat="47.16851" lon="-1.91414">
        <ele>98</ele>
        <time>2022-08-20T09:07:58Z</time>
      </trkpt>
      <trkpt lat="47.16845" lon="-1.91433">
        <ele>98</ele>
        <time>2022-08-20T09:08:00Z</time>
      </trkpt>
      <trkpt lat="47.1684" lon="-1.91451">
        <ele>99</ele>
        <time>2022-08-20T09:08:02Z</time>
      </trkpt>
      <trkpt lat="47.16834" lon="-1.91469">
        <ele>100</ele>
        <time>2022-08-20T09:08:04Z</time>
      </trkpt>
      <trkpt lat="47.16829" lon="-1.91488">
        <ele>100</ele>
        <time>2022-08-20T09:08:06Z</time>
      </trkpt>
      <trkpt lat="47.16823" lon="-1.91506">
        <ele>100</ele>
        <time>2022-08-20T09:08:08Z</time>
      </trkpt>
      <trkpt lat="47.16817" lon="-1.91524">
        <ele>100</ele>
        <time>2022-08-20T09:08:10Z</time>
      </trkpt>
      <trkpt lat="47.1681" lon="-1.91541">
        <ele>100</ele>
        <time>2022-08-20T09:08:12Z</time>
      </trkpt>
      <trkpt lat="47.16803" lon="-1.91556">
        <ele>100</ele>
        <time>2022-08-20T09:08:14Z</time>
      </trkpt>
      <trkpt lat="47.16795" lon="-1.91571">
        <ele>100</ele>
        <time>2022-08-20T09:08:16Z</time>
      </trkpt>
      <trkpt lat="47.16787" lon="-1.91586">
        <ele>100</ele>
        <time>2022-08-20T09:08:18Z</time>
      </trkpt>
      <trkpt lat="47.16778" lon="-1.916">
        <ele>100</ele>
        <time>2022-08-20T09:08:20Z</time>
      </trkpt>
      <trkpt lat="47.1677" lon="-1.91615">
        <ele>100</ele>
        <time>2022-08-20T09:08:22Z</time>
      </trkpt>
      <trkpt lat="47.16761" lon="-1.91629">
        <ele>101</ele>
        <time>2022-08-20T09:08:24Z</time>
      </trkpt>
      <trkpt lat="47.16753" lon="-1.91643">
        <ele>102</ele>
        <time>2022-08-20T09:08:26Z</time>
      </trkpt>
      <trkpt lat="47.16746" lon="-1.91657">
        <ele>102</ele>
        <time>2022-08-20T09:08:28Z</time>
      </trkpt>
      <trkpt lat="47.16738" lon="-1.91672">
        <ele>103</ele>
        <time>2022-08-20T09:08:30Z</time>
      </trkpt>
      <trkpt lat="47.16729" lon="-1.91686">
        <ele>103</ele>
        <time>2022-08-20T09:08:32Z</time>
      </trkpt>
      <trkpt lat="47.1672" lon="-1.91702">
        <ele>103</ele>
        <time>2022-08-20T09:08:34Z</time>
      </trkpt>
      <trkpt lat="47.16711" lon="-1.91719">
        <ele>104</ele>
        <time>2022-08-20T09:08:36Z</time>
      </trkpt>
      <trkpt lat="47.16701" lon="-1.91734">
        <ele>103</ele>
        <time>2022-08-20T09:08:38Z</time>
      </trkpt>
      <trkpt lat="47.16692" lon="-1.91749">
        <ele>102</ele>
        <time>2022-08-20T09:08:40Z</time>
      </trkpt>
      <trkpt lat="47.16682" lon="-1.91764">
        <ele>102</ele>
        <time>2022-08-20T09:08:42Z</time>
      </trkpt>
      <trkpt lat="47.16674" lon="-1.9178">
        <ele>102</ele>
        <time>2022-08-20T09:08:44Z</time>
      </trkpt>
      <trkpt lat="47.16666" lon="-1.91797">
        <ele>102</ele>
        <time>2022-08-20T09:08:46Z</time>
      </trkpt>
      <trkpt lat="47.16658" lon="-1.91814">
        <ele>102</ele>
        <time>2022-08-20T09:08:48Z</time>
      </trkpt>
      <trkpt lat="47.1665" lon="-1.9183">
        <ele>102</ele>
        <time>2022-08-20T09:08:50Z</time>
      </trkpt>
      <trkpt lat="47.16642" lon="-1.91846">
        <ele>102</ele>
        <time>2022-08-20T09:08:52Z</time>
      </trkpt>
      <trkpt lat="47.16635" lon="-1.91863">
        <ele>102</ele>
        <time>2022-08-20T09:08:54Z</time>
      </trkpt>
      <trkpt lat="47.16627" lon="-1.91879">
        <ele>102</ele>
        <time>2022-08-20T09:08:56Z</time>
      </trkpt>
      <trkpt lat="47.1662" lon="-1.91896">
        <ele>102</ele>
        <time>2022-08-20T09:08:58Z</time>
      </trkpt>
      <trkpt lat="47.16612" lon="-1.91913">
        <ele>102</ele>
        <time>2022-08-20T09:09:00Z</time>
      </trkpt>
      <trkpt lat="47.16604" lon="-1.91929">
        <ele>102</ele>
        <time>2022-08-20T09:09:02Z</time>
      </trkpt>
      <trkpt lat="47.16597" lon="-1.91945">
        <ele>103</ele>
        <time>2022-08-20T09:09:04Z</time>
      </trkpt>
      <trkpt lat="47.1659" lon="-1.91962">
        <ele>103</ele>
        <time>2022-08-20T09:09:06Z</time>
      </trkpt>
      <trkpt lat="47.16584" lon="-1.91979">
        <ele>103</ele>
        <time>2022-08-20T09:09:08Z</time>
      </trkpt>
      <trkpt lat="47.16576" lon="-1.91996">
        <ele>102</ele>
        <time>2022-08-20T09:09:10Z</time>
      </trkpt>
      <trkpt lat="47.16568" lon="-1.92012">
        <ele>103</ele>
        <time>2022-08-20T09:09:12Z</time>
      </trkpt>
      <trkpt lat="47.1656" lon="-1.92029">
        <ele>103</ele>
        <time>2022-08-20T09:09:14Z</time>
      </trkpt>
      <trkpt lat="47.16552" lon="-1.92047">
        <ele>102</ele>
        <time>2022-08-20T09:09:16Z</time>
      </trkpt>
      <trkpt lat="47.16545" lon="-1.92065">
        <ele>102</ele>
        <time>2022-08-20T09:09:18Z</time>
      </trkpt>
      <trkpt lat="47.16539" lon="-1.92085">
        <ele>101</ele>
        <time>2022-08-20T09:09:20Z</time>
      </trkpt>
      <trkpt lat="47.16533" lon="-1.92104">
        <ele>101</ele>
        <time>2022-08-20T09:09:22Z</time>
      </trkpt>
      <trkpt lat="47.16526" lon="-1.92123">
        <ele>101</ele>
        <time>2022-08-20T09:09:24Z</time>
      </trkpt>
      <trkpt lat="47.16521" lon="-1.92143">
        <ele>100</ele>
        <time>2022-08-20T09:09:26Z</time>
      </trkpt>
      <trkpt lat="47.16516" lon="-1.92163">
        <ele>100</ele>
        <time>2022-08-20T09:09:28Z</time>
      </trkpt>
      <trkpt lat="47.16515" lon="-1.92183">
        <ele>100</ele>
        <time>2022-08-20T09:09:30Z</time>
      </trkpt>
      <trkpt lat="47.16517" lon="-1.92203">
        <ele>101</ele>
        <time>2022-08-20T09:09:32Z</time>
      </trkpt>
      <trkpt lat="47.1652" lon="-1.92222">
        <ele>101</ele>
        <time>2022-08-20T09:09:34Z</time>
      </trkpt>
      <trkpt lat="47.16523" lon="-1.92241">
        <ele>101</ele>
        <time>2022-08-20T09:09:36Z</time>
      </trkpt>
      <trkpt lat="47.16526" lon="-1.92261">
        <ele>101</ele>
        <time>2022-08-20T09:09:38Z</time>
      </trkpt>
      <trkpt lat="47.1653" lon="-1.92281">
        <ele>101</ele>
        <time>2022-08-20T09:09:40Z</time>
      </trkpt>
      <trkpt lat="47.16534" lon="-1.923">
        <ele>101</ele>
        <time>2022-08-20T09:09:42Z</time>
      </trkpt>
      <trkpt lat="47.16537" lon="-1.9232">
        <ele>102</ele>
        <time>2022-08-20T09:09:44Z</time>
      </trkpt>
      <trkpt lat="47.16541" lon="-1.9234">
        <ele>101</ele>
        <time>2022-08-20T09:09:46Z</time>
      </trkpt>
      <trkpt lat="47.16545" lon="-1.9236">
        <ele>101</ele>
        <time>2022-08-20T09:09:48Z</time>
      </trkpt>
      <trkpt lat="47.16548" lon="-1.92381">
        <ele>101</ele>
        <time>2022-08-20T09:09:50Z</time>
      </trkpt>
      <trkpt lat="47.16552" lon="-1.92401">
        <ele>101</ele>
        <time>2022-08-20T09:09:52Z</time>
      </trkpt>
      <trkpt lat="47.16557" lon="-1.92422">
        <ele>100</ele>
        <time>2022-08-20T09:09:54Z</time>
      </trkpt>
      <trkpt lat="47.1656" lon="-1.92455">
        <ele>99</ele>
        <time>2022-08-20T09:09:57Z</time>
      </trkpt>
      <trkpt lat="47.16558" lon="-1.92476">
        <ele>99</ele>
        <time>2022-08-20T09:09:59Z</time>
      </trkpt>
      <trkpt lat="47.16554" lon="-1.92497">
        <ele>99</ele>
        <time>2022-08-20T09:10:01Z</time>
      </trkpt>
      <trkpt lat="47.16546" lon="-1.92517">
        <ele>100</ele>
        <time>2022-08-20T09:10:03Z</time>
      </trkpt>
      <trkpt lat="47.16537" lon="-1.92535">
        <ele>100</ele>
        <time>2022-08-20T09:10:05Z</time>
      </trkpt>
      <trkpt lat="47.16526" lon="-1.92552">
        <ele>100</ele>
        <time>2022-08-20T09:10:07Z</time>
      </trkpt>
      <trkpt lat="47.16513" lon="-1.92567">
        <ele>99</ele>
        <time>2022-08-20T09:10:09Z</time>
      </trkpt>
      <trkpt lat="47.16499" lon="-1.92581">
        <ele>99</ele>
        <time>2022-08-20T09:10:11Z</time>
      </trkpt>
      <trkpt lat="47.16486" lon="-1.92595">
        <ele>99</ele>
        <time>2022-08-20T09:10:13Z</time>
      </trkpt>
      <trkpt lat="47.16464" lon="-1.92615">
        <ele>99</ele>
        <time>2022-08-20T09:10:16Z</time>
      </trkpt>
      <trkpt lat="47.1645" lon="-1.92627">
        <ele>98</ele>
        <time>2022-08-20T09:10:18Z</time>
      </trkpt>
      <trkpt lat="47.16436" lon="-1.92641">
        <ele>96</ele>
        <time>2022-08-20T09:10:20Z</time>
      </trkpt>
      <trkpt lat="47.16423" lon="-1.92656">
        <ele>95</ele>
        <time>2022-08-20T09:10:22Z</time>
      </trkpt>
      <trkpt lat="47.1641" lon="-1.92672">
        <ele>94</ele>
        <time>2022-08-20T09:10:24Z</time>
      </trkpt>
      <trkpt lat="47.16398" lon="-1.92689">
        <ele>93</ele>
        <time>2022-08-20T09:10:26Z</time>
      </trkpt>
      <trkpt lat="47.16386" lon="-1.92707">
        <ele>93</ele>
        <time>2022-08-20T09:10:28Z</time>
      </trkpt>
      <trkpt lat="47.16375" lon="-1.92725">
        <ele>93</ele>
        <time>2022-08-20T09:10:30Z</time>
      </trkpt>
      <trkpt lat="47.16364" lon="-1.92742">
        <ele>92</ele>
        <time>2022-08-20T09:10:32Z</time>
      </trkpt>
      <trkpt lat="47.16353" lon="-1.92759">
        <ele>92</ele>
        <time>2022-08-20T09:10:34Z</time>
      </trkpt>
      <trkpt lat="47.16341" lon="-1.92776">
        <ele>92</ele>
        <time>2022-08-20T09:10:36Z</time>
      </trkpt>
      <trkpt lat="47.1633" lon="-1.92793">
        <ele>91</ele>
        <time>2022-08-20T09:10:38Z</time>
      </trkpt>
      <trkpt lat="47.16317" lon="-1.92809">
        <ele>91</ele>
        <time>2022-08-20T09:10:40Z</time>
      </trkpt>
      <trkpt lat="47.16305" lon="-1.92826">
        <ele>90</ele>
        <time>2022-08-20T09:10:42Z</time>
      </trkpt>
      <trkpt lat="47.16293" lon="-1.92841">
        <ele>90</ele>
        <time>2022-08-20T09:10:44Z</time>
      </trkpt>
      <trkpt lat="47.1628" lon="-1.92855">
        <ele>90</ele>
        <time>2022-08-20T09:10:46Z</time>
      </trkpt>
      <trkpt lat="47.16268" lon="-1.92868">
        <ele>91</ele>
        <time>2022-08-20T09:10:48Z</time>
      </trkpt>
      <trkpt lat="47.16256" lon="-1.92882">
        <ele>91</ele>
        <time>2022-08-20T09:10:50Z</time>
      </trkpt>
      <trkpt lat="47.16243" lon="-1.92895">
        <ele>91</ele>
        <time>2022-08-20T09:10:52Z</time>
      </trkpt>
      <trkpt lat="47.1623" lon="-1.92907">
        <ele>90</ele>
        <time>2022-08-20T09:10:54Z</time>
      </trkpt>
      <trkpt lat="47.16217" lon="-1.9292">
        <ele>90</ele>
        <time>2022-08-20T09:10:56Z</time>
      </trkpt>
      <trkpt lat="47.16204" lon="-1.92933">
        <ele>89</ele>
        <time>2022-08-20T09:10:58Z</time>
      </trkpt>
      <trkpt lat="47.1619" lon="-1.92945">
        <ele>89</ele>
        <time>2022-08-20T09:11:00Z</time>
      </trkpt>
      <trkpt lat="47.16177" lon="-1.92958">
        <ele>89</ele>
        <time>2022-08-20T09:11:02Z</time>
      </trkpt>
      <trkpt lat="47.16164" lon="-1.9297">
        <ele>89</ele>
        <time>2022-08-20T09:11:04Z</time>
      </trkpt>
      <trkpt lat="47.1615" lon="-1.92979">
        <ele>89</ele>
        <time>2022-08-20T09:11:06Z</time>
      </trkpt>
      <trkpt lat="47.16136" lon="-1.92988">
        <ele>90</ele>
        <time>2022-08-20T09:11:08Z</time>
      </trkpt>
      <trkpt lat="47.16123" lon="-1.92996">
        <ele>90</ele>
        <time>2022-08-20T09:11:10Z</time>
      </trkpt>
      <trkpt lat="47.16109" lon="-1.93004">
        <ele>90</ele>
        <time>2022-08-20T09:11:12Z</time>
      </trkpt>
      <trkpt lat="47.16096" lon="-1.93011">
        <ele>91</ele>
        <time>2022-08-20T09:11:14Z</time>
      </trkpt>
      <trkpt lat="47.16083" lon="-1.93018">
        <ele>91</ele>
        <time>2022-08-20T09:11:16Z</time>
      </trkpt>
      <trkpt lat="47.1607" lon="-1.93026">
        <ele>92</ele>
        <time>2022-08-20T09:11:18Z</time>
      </trkpt>
      <trkpt lat="47.16057" lon="-1.93034">
        <ele>93</ele>
        <time>2022-08-20T09:11:20Z</time>
      </trkpt>
      <trkpt lat="47.16043" lon="-1.93042">
        <ele>92</ele>
        <time>2022-08-20T09:11:22Z</time>
      </trkpt>
      <trkpt lat="47.1603" lon="-1.93049">
        <ele>93</ele>
        <time>2022-08-20T09:11:24Z</time>
      </trkpt>
      <trkpt lat="47.16017" lon="-1.93057">
        <ele>93</ele>
        <time>2022-08-20T09:11:26Z</time>
      </trkpt>
      <trkpt lat="47.16004" lon="-1.93066">
        <ele>93</ele>
        <time>2022-08-20T09:11:28Z</time>
      </trkpt>
      <trkpt lat="47.15994" lon="-1.93081">
        <ele>92</ele>
        <time>2022-08-20T09:11:30Z</time>
      </trkpt>
      <trkpt lat="47.15987" lon="-1.93099">
        <ele>90</ele>
        <time>2022-08-20T09:11:32Z</time>
      </trkpt>
      <trkpt lat="47.15984" lon="-1.9312">
        <ele>90</ele>
        <time>2022-08-20T09:11:34Z</time>
      </trkpt>
      <trkpt lat="47.15985" lon="-1.93139">
        <ele>89</ele>
        <time>2022-08-20T09:11:36Z</time>
      </trkpt>
      <trkpt lat="47.15987" lon="-1.93158">
        <ele>90</ele>
        <time>2022-08-20T09:11:38Z</time>
      </trkpt>
      <trkpt lat="47.15989" lon="-1.93175">
        <ele>90</ele>
        <time>2022-08-20T09:11:40Z</time>
      </trkpt>
      <trkpt lat="47.15992" lon="-1.93192">
        <ele>90</ele>
        <time>2022-08-20T09:11:42Z</time>
      </trkpt>
      <trkpt lat="47.15994" lon="-1.93208">
        <ele>90</ele>
        <time>2022-08-20T09:11:44Z</time>
      </trkpt>
      <trkpt lat="47.15996" lon="-1.93223">
        <ele>90</ele>
        <time>2022-08-20T09:11:46Z</time>
      </trkpt>
      <trkpt lat="47.15998" lon="-1.93239">
        <ele>90</ele>
        <time>2022-08-20T09:11:48Z</time>
      </trkpt>
      <trkpt lat="47.16" lon="-1.93254">
        <ele>91</ele>
        <time>2022-08-20T09:11:50Z</time>
      </trkpt>
      <trkpt lat="47.16002" lon="-1.93269">
        <ele>91</ele>
        <time>2022-08-20T09:11:52Z</time>
      </trkpt>
      <trkpt lat="47.16004" lon="-1.93286">
        <ele>91</ele>
        <time>2022-08-20T09:11:54Z</time>
      </trkpt>
      <trkpt lat="47.16006" lon="-1.93301">
        <ele>92</ele>
        <time>2022-08-20T09:11:56Z</time>
      </trkpt>
      <trkpt lat="47.16006" lon="-1.93317">
        <ele>93</ele>
        <time>2022-08-20T09:11:58Z</time>
      </trkpt>
      <trkpt lat="47.16006" lon="-1.93334">
        <ele>94</ele>
        <time>2022-08-20T09:12:00Z</time>
      </trkpt>
      <trkpt lat="47.16005" lon="-1.93349">
        <ele>94</ele>
        <time>2022-08-20T09:12:02Z</time>
      </trkpt>
      <trkpt lat="47.16004" lon="-1.93366">
        <ele>94</ele>
        <time>2022-08-20T09:12:04Z</time>
      </trkpt>
      <trkpt lat="47.16001" lon="-1.93383">
        <ele>95</ele>
        <time>2022-08-20T09:12:06Z</time>
      </trkpt>
      <trkpt lat="47.15995" lon="-1.93398">
        <ele>95</ele>
        <time>2022-08-20T09:12:08Z</time>
      </trkpt>
      <trkpt lat="47.1599" lon="-1.93413">
        <ele>96</ele>
        <time>2022-08-20T09:12:10Z</time>
      </trkpt>
      <trkpt lat="47.15984" lon="-1.93428">
        <ele>94</ele>
        <time>2022-08-20T09:12:12Z</time>
      </trkpt>
      <trkpt lat="47.15978" lon="-1.93443">
        <ele>94</ele>
        <time>2022-08-20T09:12:14Z</time>
      </trkpt>
      <trkpt lat="47.1597" lon="-1.93456">
        <ele>94</ele>
        <time>2022-08-20T09:12:16Z</time>
      </trkpt>
      <trkpt lat="47.15961" lon="-1.93467">
        <ele>95</ele>
        <time>2022-08-20T09:12:18Z</time>
      </trkpt>
      <trkpt lat="47.15952" lon="-1.93479">
        <ele>95</ele>
        <time>2022-08-20T09:12:20Z</time>
      </trkpt>
      <trkpt lat="47.15942" lon="-1.93491">
        <ele>94</ele>
        <time>2022-08-20T09:12:22Z</time>
      </trkpt>
      <trkpt lat="47.15933" lon="-1.93502">
        <ele>94</ele>
        <time>2022-08-20T09:12:24Z</time>
      </trkpt>
      <trkpt lat="47.15924" lon="-1.93513">
        <ele>94</ele>
        <time>2022-08-20T09:12:26Z</time>
      </trkpt>
      <trkpt lat="47.15914" lon="-1.93524">
        <ele>93</ele>
        <time>2022-08-20T09:12:28Z</time>
      </trkpt>
      <trkpt lat="47.15903" lon="-1.93534">
        <ele>93</ele>
        <time>2022-08-20T09:12:30Z</time>
      </trkpt>
      <trkpt lat="47.15891" lon="-1.9354">
        <ele>92</ele>
        <time>2022-08-20T09:12:32Z</time>
      </trkpt>
      <trkpt lat="47.15877" lon="-1.93545">
        <ele>91</ele>
        <time>2022-08-20T09:12:34Z</time>
      </trkpt>
      <trkpt lat="47.15864" lon="-1.9355">
        <ele>90</ele>
        <time>2022-08-20T09:12:36Z</time>
      </trkpt>
      <trkpt lat="47.15852" lon="-1.93555">
        <ele>90</ele>
        <time>2022-08-20T09:12:38Z</time>
      </trkpt>
      <trkpt lat="47.15839" lon="-1.9356">
        <ele>90</ele>
        <time>2022-08-20T09:12:40Z</time>
      </trkpt>
      <trkpt lat="47.15826" lon="-1.93567">
        <ele>89</ele>
        <time>2022-08-20T09:12:42Z</time>
      </trkpt>
      <trkpt lat="47.15813" lon="-1.93573">
        <ele>89</ele>
        <time>2022-08-20T09:12:44Z</time>
      </trkpt>
      <trkpt lat="47.158" lon="-1.9358">
        <ele>89</ele>
        <time>2022-08-20T09:12:46Z</time>
      </trkpt>
      <trkpt lat="47.15787" lon="-1.93586">
        <ele>88</ele>
        <time>2022-08-20T09:12:48Z</time>
      </trkpt>
      <trkpt lat="47.15775" lon="-1.93594">
        <ele>87</ele>
        <time>2022-08-20T09:12:50Z</time>
      </trkpt>
      <trkpt lat="47.15768" lon="-1.93609">
        <ele>86</ele>
        <time>2022-08-20T09:12:52Z</time>
      </trkpt>
      <trkpt lat="47.15768" lon="-1.93629">
        <ele>85</ele>
        <time>2022-08-20T09:12:54Z</time>
      </trkpt>
      <trkpt lat="47.15773" lon="-1.93649">
        <ele>85</ele>
        <time>2022-08-20T09:12:56Z</time>
      </trkpt>
      <trkpt lat="47.15778" lon="-1.93669">
        <ele>85</ele>
        <time>2022-08-20T09:12:58Z</time>
      </trkpt>
      <trkpt lat="47.15782" lon="-1.9369">
        <ele>85</ele>
        <time>2022-08-20T09:13:00Z</time>
      </trkpt>
      <trkpt lat="47.15786" lon="-1.93711">
        <ele>85</ele>
        <time>2022-08-20T09:13:02Z</time>
      </trkpt>
      <trkpt lat="47.1579" lon="-1.93731">
        <ele>85</ele>
        <time>2022-08-20T09:13:04Z</time>
      </trkpt>
      <trkpt lat="47.15794" lon="-1.93753">
        <ele>84</ele>
        <time>2022-08-20T09:13:06Z</time>
      </trkpt>
      <trkpt lat="47.15798" lon="-1.93774">
        <ele>83</ele>
        <time>2022-08-20T09:13:08Z</time>
      </trkpt>
      <trkpt lat="47.15801" lon="-1.93794">
        <ele>83</ele>
        <time>2022-08-20T09:13:10Z</time>
      </trkpt>
      <trkpt lat="47.15805" lon="-1.93816">
        <ele>83</ele>
        <time>2022-08-20T09:13:12Z</time>
      </trkpt>
      <trkpt lat="47.15809" lon="-1.93837">
        <ele>83</ele>
        <time>2022-08-20T09:13:14Z</time>
      </trkpt>
      <trkpt lat="47.15813" lon="-1.93858">
        <ele>84</ele>
        <time>2022-08-20T09:13:16Z</time>
      </trkpt>
      <trkpt lat="47.15817" lon="-1.93878">
        <ele>83</ele>
        <time>2022-08-20T09:13:18Z</time>
      </trkpt>
      <trkpt lat="47.1582" lon="-1.93898">
        <ele>84</ele>
        <time>2022-08-20T09:13:20Z</time>
      </trkpt>
      <trkpt lat="47.15824" lon="-1.93918">
        <ele>84</ele>
        <time>2022-08-20T09:13:22Z</time>
      </trkpt>
      <trkpt lat="47.15827" lon="-1.93937">
        <ele>83</ele>
        <time>2022-08-20T09:13:24Z</time>
      </trkpt>
      <trkpt lat="47.1583" lon="-1.93957">
        <ele>84</ele>
        <time>2022-08-20T09:13:26Z</time>
      </trkpt>
      <trkpt lat="47.15834" lon="-1.93977">
        <ele>84</ele>
        <time>2022-08-20T09:13:28Z</time>
      </trkpt>
      <trkpt lat="47.15836" lon="-1.93996">
        <ele>85</ele>
        <time>2022-08-20T09:13:30Z</time>
      </trkpt>
      <trkpt lat="47.15838" lon="-1.94014">
        <ele>85</ele>
        <time>2022-08-20T09:13:32Z</time>
      </trkpt>
      <trkpt lat="47.1584" lon="-1.94034">
        <ele>85</ele>
        <time>2022-08-20T09:13:34Z</time>
      </trkpt>
      <trkpt lat="47.15841" lon="-1.94051">
        <ele>85</ele>
        <time>2022-08-20T09:13:36Z</time>
      </trkpt>
      <trkpt lat="47.15843" lon="-1.94069">
        <ele>85</ele>
        <time>2022-08-20T09:13:38Z</time>
      </trkpt>
      <trkpt lat="47.15846" lon="-1.94086">
        <ele>86</ele>
        <time>2022-08-20T09:13:40Z</time>
      </trkpt>
      <trkpt lat="47.15848" lon="-1.94103">
        <ele>87</ele>
        <time>2022-08-20T09:13:42Z</time>
      </trkpt>
      <trkpt lat="47.1585" lon="-1.9412">
        <ele>87</ele>
        <time>2022-08-20T09:13:44Z</time>
      </trkpt>
      <trkpt lat="47.15851" lon="-1.94137">
        <ele>88</ele>
        <time>2022-08-20T09:13:46Z</time>
      </trkpt>
      <trkpt lat="47.15854" lon="-1.94153">
        <ele>88</ele>
        <time>2022-08-20T09:13:48Z</time>
      </trkpt>
      <trkpt lat="47.15855" lon="-1.94171">
        <ele>88</ele>
        <time>2022-08-20T09:13:50Z</time>
      </trkpt>
      <trkpt lat="47.15857" lon="-1.94188">
        <ele>88</ele>
        <time>2022-08-20T09:13:52Z</time>
      </trkpt>
      <trkpt lat="47.15859" lon="-1.94204">
        <ele>88</ele>
        <time>2022-08-20T09:13:54Z</time>
      </trkpt>
      <trkpt lat="47.1586" lon="-1.9422">
        <ele>88</ele>
        <time>2022-08-20T09:13:56Z</time>
      </trkpt>
      <trkpt lat="47.15863" lon="-1.94235">
        <ele>89</ele>
        <time>2022-08-20T09:13:58Z</time>
      </trkpt>
      <trkpt lat="47.15865" lon="-1.94252">
        <ele>89</ele>
        <time>2022-08-20T09:14:00Z</time>
      </trkpt>
      <trkpt lat="47.15867" lon="-1.94269">
        <ele>90</ele>
        <time>2022-08-20T09:14:02Z</time>
      </trkpt>
      <trkpt lat="47.15869" lon="-1.94286">
        <ele>91</ele>
        <time>2022-08-20T09:14:04Z</time>
      </trkpt>
      <trkpt lat="47.15871" lon="-1.94304">
        <ele>91</ele>
        <time>2022-08-20T09:14:06Z</time>
      </trkpt>
      <trkpt lat="47.15873" lon="-1.94321">
        <ele>91</ele>
        <time>2022-08-20T09:14:08Z</time>
      </trkpt>
      <trkpt lat="47.15875" lon="-1.94338">
        <ele>91</ele>
        <time>2022-08-20T09:14:10Z</time>
      </trkpt>
      <trkpt lat="47.15876" lon="-1.94354">
        <ele>90</ele>
        <time>2022-08-20T09:14:12Z</time>
      </trkpt>
      <trkpt lat="47.15878" lon="-1.94371">
        <ele>91</ele>
        <time>2022-08-20T09:14:14Z</time>
      </trkpt>
      <trkpt lat="47.15879" lon="-1.94389">
        <ele>91</ele>
        <time>2022-08-20T09:14:16Z</time>
      </trkpt>
      <trkpt lat="47.15881" lon="-1.94406">
        <ele>92</ele>
        <time>2022-08-20T09:14:18Z</time>
      </trkpt>
      <trkpt lat="47.15883" lon="-1.94423">
        <ele>92</ele>
        <time>2022-08-20T09:14:20Z</time>
      </trkpt>
      <trkpt lat="47.15885" lon="-1.94439">
        <ele>92</ele>
        <time>2022-08-20T09:14:22Z</time>
      </trkpt>
      <trkpt lat="47.15887" lon="-1.94455">
        <ele>93</ele>
        <time>2022-08-20T09:14:24Z</time>
      </trkpt>
      <trkpt lat="47.15889" lon="-1.94472">
        <ele>93</ele>
        <time>2022-08-20T09:14:26Z</time>
      </trkpt>
      <trkpt lat="47.15891" lon="-1.94488">
        <ele>93</ele>
        <time>2022-08-20T09:14:28Z</time>
      </trkpt>
      <trkpt lat="47.15893" lon="-1.94505">
        <ele>93</ele>
        <time>2022-08-20T09:14:30Z</time>
      </trkpt>
      <trkpt lat="47.15895" lon="-1.94522">
        <ele>93</ele>
        <time>2022-08-20T09:14:32Z</time>
      </trkpt>
      <trkpt lat="47.15896" lon="-1.94539">
        <ele>92</ele>
        <time>2022-08-20T09:14:34Z</time>
      </trkpt>
      <trkpt lat="47.15898" lon="-1.94555">
        <ele>93</ele>
        <time>2022-08-20T09:14:36Z</time>
      </trkpt>
      <trkpt lat="47.159" lon="-1.94571">
        <ele>93</ele>
        <time>2022-08-20T09:14:38Z</time>
      </trkpt>
      <trkpt lat="47.15902" lon="-1.94588">
        <ele>93</ele>
        <time>2022-08-20T09:14:40Z</time>
      </trkpt>
      <trkpt lat="47.15903" lon="-1.94603">
        <ele>93</ele>
        <time>2022-08-20T09:14:42Z</time>
      </trkpt>
      <trkpt lat="47.15905" lon="-1.94619">
        <ele>92</ele>
        <time>2022-08-20T09:14:44Z</time>
      </trkpt>
      <trkpt lat="47.15906" lon="-1.94632">
        <ele>92</ele>
        <time>2022-08-20T09:14:46Z</time>
      </trkpt>
      <trkpt lat="47.15907" lon="-1.94648">
        <ele>92</ele>
        <time>2022-08-20T09:14:49Z</time>
      </trkpt>
      <trkpt lat="47.15907" lon="-1.94664">
        <ele>93</ele>
        <time>2022-08-20T09:14:52Z</time>
      </trkpt>
      <trkpt lat="47.15908" lon="-1.9468">
        <ele>93</ele>
        <time>2022-08-20T09:14:54Z</time>
      </trkpt>
      <trkpt lat="47.1591" lon="-1.94698">
        <ele>93</ele>
        <time>2022-08-20T09:14:56Z</time>
      </trkpt>
      <trkpt lat="47.15912" lon="-1.94717">
        <ele>93</ele>
        <time>2022-08-20T09:14:58Z</time>
      </trkpt>
      <trkpt lat="47.15913" lon="-1.94737">
        <ele>93</ele>
        <time>2022-08-20T09:15:00Z</time>
      </trkpt>
      <trkpt lat="47.15915" lon="-1.94756">
        <ele>93</ele>
        <time>2022-08-20T09:15:02Z</time>
      </trkpt>
      <trkpt lat="47.15917" lon="-1.94775">
        <ele>93</ele>
        <time>2022-08-20T09:15:04Z</time>
      </trkpt>
      <trkpt lat="47.15918" lon="-1.94793">
        <ele>93</ele>
        <time>2022-08-20T09:15:06Z</time>
      </trkpt>
      <trkpt lat="47.1592" lon="-1.94811">
        <ele>94</ele>
        <time>2022-08-20T09:15:08Z</time>
      </trkpt>
      <trkpt lat="47.15921" lon="-1.94831">
        <ele>94</ele>
        <time>2022-08-20T09:15:10Z</time>
      </trkpt>
      <trkpt lat="47.15923" lon="-1.9485">
        <ele>94</ele>
        <time>2022-08-20T09:15:12Z</time>
      </trkpt>
      <trkpt lat="47.15924" lon="-1.94869">
        <ele>94</ele>
        <time>2022-08-20T09:15:14Z</time>
      </trkpt>
      <trkpt lat="47.15924" lon="-1.94888">
        <ele>94</ele>
        <time>2022-08-20T09:15:16Z</time>
      </trkpt>
      <trkpt lat="47.15923" lon="-1.94908">
        <ele>93</ele>
        <time>2022-08-20T09:15:18Z</time>
      </trkpt>
      <trkpt lat="47.15921" lon="-1.94927">
        <ele>93</ele>
        <time>2022-08-20T09:15:20Z</time>
      </trkpt>
      <trkpt lat="47.15919" lon="-1.94945">
        <ele>93</ele>
        <time>2022-08-20T09:15:22Z</time>
      </trkpt>
      <trkpt lat="47.15918" lon="-1.94962">
        <ele>93</ele>
        <time>2022-08-20T09:15:24Z</time>
      </trkpt>
      <trkpt lat="47.15915" lon="-1.94979">
        <ele>92</ele>
        <time>2022-08-20T09:15:27Z</time>
      </trkpt>
      <trkpt lat="47.15914" lon="-1.94996">
        <ele>92</ele>
        <time>2022-08-20T09:15:30Z</time>
      </trkpt>
      <trkpt lat="47.15912" lon="-1.95012">
        <ele>92</ele>
        <time>2022-08-20T09:15:32Z</time>
      </trkpt>
      <trkpt lat="47.15913" lon="-1.9503">
        <ele>92</ele>
        <time>2022-08-20T09:15:34Z</time>
      </trkpt>
      <trkpt lat="47.15912" lon="-1.9505">
        <ele>91</ele>
        <time>2022-08-20T09:15:36Z</time>
      </trkpt>
      <trkpt lat="47.1591" lon="-1.9507">
        <ele>91</ele>
        <time>2022-08-20T09:15:38Z</time>
      </trkpt>
      <trkpt lat="47.15909" lon="-1.9509">
        <ele>91</ele>
        <time>2022-08-20T09:15:40Z</time>
      </trkpt>
      <trkpt lat="47.15908" lon="-1.9511">
        <ele>90</ele>
        <time>2022-08-20T09:15:42Z</time>
      </trkpt>
      <trkpt lat="47.15907" lon="-1.95129">
        <ele>90</ele>
        <time>2022-08-20T09:15:44Z</time>
      </trkpt>
      <trkpt lat="47.15904" lon="-1.95149">
        <ele>90</ele>
        <time>2022-08-20T09:15:46Z</time>
      </trkpt>
      <trkpt lat="47.159" lon="-1.95169">
        <ele>89</ele>
        <time>2022-08-20T09:15:48Z</time>
      </trkpt>
      <trkpt lat="47.15896" lon="-1.95189">
        <ele>88</ele>
        <time>2022-08-20T09:15:50Z</time>
      </trkpt>
      <trkpt lat="47.15893" lon="-1.9521">
        <ele>88</ele>
        <time>2022-08-20T09:15:52Z</time>
      </trkpt>
      <trkpt lat="47.15892" lon="-1.95231">
        <ele>88</ele>
        <time>2022-08-20T09:15:54Z</time>
      </trkpt>
      <trkpt lat="47.15892" lon="-1.95252">
        <ele>87</ele>
        <time>2022-08-20T09:15:56Z</time>
      </trkpt>
      <trkpt lat="47.15892" lon="-1.95273">
        <ele>86</ele>
        <time>2022-08-20T09:15:58Z</time>
      </trkpt>
      <trkpt lat="47.15891" lon="-1.95295">
        <ele>86</ele>
        <time>2022-08-20T09:16:00Z</time>
      </trkpt>
      <trkpt lat="47.15891" lon="-1.95316">
        <ele>85</ele>
        <time>2022-08-20T09:16:02Z</time>
      </trkpt>
      <trkpt lat="47.15891" lon="-1.95337">
        <ele>86</ele>
        <time>2022-08-20T09:16:04Z</time>
      </trkpt>
      <trkpt lat="47.15891" lon="-1.95359">
        <ele>85</ele>
        <time>2022-08-20T09:16:06Z</time>
      </trkpt>
      <trkpt lat="47.15891" lon="-1.95383">
        <ele>85</ele>
        <time>2022-08-20T09:16:08Z</time>
      </trkpt>
      <trkpt lat="47.15891" lon="-1.95406">
        <ele>85</ele>
        <time>2022-08-20T09:16:10Z</time>
      </trkpt>
      <trkpt lat="47.15891" lon="-1.9543">
        <ele>85</ele>
        <time>2022-08-20T09:16:12Z</time>
      </trkpt>
      <trkpt lat="47.15891" lon="-1.95453">
        <ele>85</ele>
        <time>2022-08-20T09:16:14Z</time>
      </trkpt>
      <trkpt lat="47.15891" lon="-1.95474">
        <ele>85</ele>
        <time>2022-08-20T09:16:16Z</time>
      </trkpt>
      <trkpt lat="47.15891" lon="-1.95496">
        <ele>85</ele>
        <time>2022-08-20T09:16:18Z</time>
      </trkpt>
      <trkpt lat="47.15892" lon="-1.9552">
        <ele>85</ele>
        <time>2022-08-20T09:16:20Z</time>
      </trkpt>
      <trkpt lat="47.15892" lon="-1.95543">
        <ele>84</ele>
        <time>2022-08-20T09:16:22Z</time>
      </trkpt>
      <trkpt lat="47.15895" lon="-1.95566">
        <ele>84</ele>
        <time>2022-08-20T09:16:24Z</time>
      </trkpt>
      <trkpt lat="47.15899" lon="-1.95587">
        <ele>84</ele>
        <time>2022-08-20T09:16:26Z</time>
      </trkpt>
      <trkpt lat="47.15904" lon="-1.95608">
        <ele>84</ele>
        <time>2022-08-20T09:16:28Z</time>
      </trkpt>
      <trkpt lat="47.1591" lon="-1.95628">
        <ele>83</ele>
        <time>2022-08-20T09:16:30Z</time>
      </trkpt>
      <trkpt lat="47.15916" lon="-1.95646">
        <ele>83</ele>
        <time>2022-08-20T09:16:32Z</time>
      </trkpt>
      <trkpt lat="47.15921" lon="-1.95664">
        <ele>84</ele>
        <time>2022-08-20T09:16:34Z</time>
      </trkpt>
      <trkpt lat="47.15926" lon="-1.9568">
        <ele>84</ele>
        <time>2022-08-20T09:16:36Z</time>
      </trkpt>
      <trkpt lat="47.15931" lon="-1.95696">
        <ele>84</ele>
        <time>2022-08-20T09:16:38Z</time>
      </trkpt>
      <trkpt lat="47.15936" lon="-1.95712">
        <ele>85</ele>
        <time>2022-08-20T09:16:40Z</time>
      </trkpt>
      <trkpt lat="47.1594" lon="-1.95728">
        <ele>85</ele>
        <time>2022-08-20T09:16:42Z</time>
      </trkpt>
      <trkpt lat="47.15944" lon="-1.95743">
        <ele>86</ele>
        <time>2022-08-20T09:16:44Z</time>
      </trkpt>
      <trkpt lat="47.15948" lon="-1.95758">
        <ele>87</ele>
        <time>2022-08-20T09:16:46Z</time>
      </trkpt>
      <trkpt lat="47.15951" lon="-1.95773">
        <ele>88</ele>
        <time>2022-08-20T09:16:48Z</time>
      </trkpt>
      <trkpt lat="47.15955" lon="-1.9579">
        <ele>88</ele>
        <time>2022-08-20T09:16:50Z</time>
      </trkpt>
      <trkpt lat="47.15959" lon="-1.95808">
        <ele>89</ele>
        <time>2022-08-20T09:16:52Z</time>
      </trkpt>
      <trkpt lat="47.15963" lon="-1.95826">
        <ele>89</ele>
        <time>2022-08-20T09:16:54Z</time>
      </trkpt>
      <trkpt lat="47.15967" lon="-1.95845">
        <ele>89</ele>
        <time>2022-08-20T09:16:56Z</time>
      </trkpt>
      <trkpt lat="47.15971" lon="-1.95861">
        <ele>90</ele>
        <time>2022-08-20T09:16:58Z</time>
      </trkpt>
      <trkpt lat="47.15978" lon="-1.95877">
        <ele>89</ele>
        <time>2022-08-20T09:17:00Z</time>
      </trkpt>
      <trkpt lat="47.15986" lon="-1.95891">
        <ele>89</ele>
        <time>2022-08-20T09:17:02Z</time>
      </trkpt>
      <trkpt lat="47.15994" lon="-1.95905">
        <ele>88</ele>
        <time>2022-08-20T09:17:04Z</time>
      </trkpt>
      <trkpt lat="47.16002" lon="-1.95918">
        <ele>88</ele>
        <time>2022-08-20T09:17:06Z</time>
      </trkpt>
      <trkpt lat="47.1601" lon="-1.9593">
        <ele>87</ele>
        <time>2022-08-20T09:17:08Z</time>
      </trkpt>
      <trkpt lat="47.16018" lon="-1.95942">
        <ele>87</ele>
        <time>2022-08-20T09:17:10Z</time>
      </trkpt>
      <trkpt lat="47.16026" lon="-1.95954">
        <ele>87</ele>
        <time>2022-08-20T09:17:12Z</time>
      </trkpt>
      <trkpt lat="47.16033" lon="-1.95966">
        <ele>87</ele>
        <time>2022-08-20T09:17:15Z</time>
      </trkpt>
      <trkpt lat="47.16032" lon="-1.95984">
        <ele>87</ele>
        <time>2022-08-20T09:17:18Z</time>
      </trkpt>
      <trkpt lat="47.16026" lon="-1.95998">
        <ele>87</ele>
        <time>2022-08-20T09:17:20Z</time>
      </trkpt>
      <trkpt lat="47.16018" lon="-1.96013">
        <ele>87</ele>
        <time>2022-08-20T09:17:22Z</time>
      </trkpt>
      <trkpt lat="47.16011" lon="-1.96027">
        <ele>86</ele>
        <time>2022-08-20T09:17:24Z</time>
      </trkpt>
      <trkpt lat="47.16004" lon="-1.96042">
        <ele>86</ele>
        <time>2022-08-20T09:17:26Z</time>
      </trkpt>
      <trkpt lat="47.15997" lon="-1.96056">
        <ele>87</ele>
        <time>2022-08-20T09:17:28Z</time>
      </trkpt>
      <trkpt lat="47.15992" lon="-1.96071">
        <ele>87</ele>
        <time>2022-08-20T09:17:30Z</time>
      </trkpt>
      <trkpt lat="47.15986" lon="-1.96087">
        <ele>88</ele>
        <time>2022-08-20T09:17:32Z</time>
      </trkpt>
      <trkpt lat="47.15981" lon="-1.96102">
        <ele>88</ele>
        <time>2022-08-20T09:17:34Z</time>
      </trkpt>
      <trkpt lat="47.15975" lon="-1.96119">
        <ele>88</ele>
        <time>2022-08-20T09:17:36Z</time>
      </trkpt>
      <trkpt lat="47.15971" lon="-1.96136">
        <ele>88</ele>
        <time>2022-08-20T09:17:38Z</time>
      </trkpt>
      <trkpt lat="47.15966" lon="-1.96152">
        <ele>89</ele>
        <time>2022-08-20T09:17:40Z</time>
      </trkpt>
      <trkpt lat="47.15962" lon="-1.9617">
        <ele>89</ele>
        <time>2022-08-20T09:17:42Z</time>
      </trkpt>
      <trkpt lat="47.15957" lon="-1.96188">
        <ele>90</ele>
        <time>2022-08-20T09:17:44Z</time>
      </trkpt>
      <trkpt lat="47.15951" lon="-1.96207">
        <ele>90</ele>
        <time>2022-08-20T09:17:46Z</time>
      </trkpt>
      <trkpt lat="47.15944" lon="-1.96224">
        <ele>91</ele>
        <time>2022-08-20T09:17:48Z</time>
      </trkpt>
      <trkpt lat="47.15937" lon="-1.9624">
        <ele>91</ele>
        <time>2022-08-20T09:17:50Z</time>
      </trkpt>
      <trkpt lat="47.15928" lon="-1.96256">
        <ele>90</ele>
        <time>2022-08-20T09:17:52Z</time>
      </trkpt>
      <trkpt lat="47.15917" lon="-1.96273">
        <ele>88</ele>
        <time>2022-08-20T09:17:54Z</time>
      </trkpt>
      <trkpt lat="47.15908" lon="-1.9629">
        <ele>88</ele>
        <time>2022-08-20T09:17:56Z</time>
      </trkpt>
      <trkpt lat="47.15898" lon="-1.96306">
        <ele>88</ele>
        <time>2022-08-20T09:17:58Z</time>
      </trkpt>
      <trkpt lat="47.15889" lon="-1.96323">
        <ele>88</ele>
        <time>2022-08-20T09:18:00Z</time>
      </trkpt>
      <trkpt lat="47.1588" lon="-1.96339">
        <ele>87</ele>
        <time>2022-08-20T09:18:02Z</time>
      </trkpt>
      <trkpt lat="47.1587" lon="-1.96355">
        <ele>86</ele>
        <time>2022-08-20T09:18:04Z</time>
      </trkpt>
      <trkpt lat="47.1586" lon="-1.96372">
        <ele>86</ele>
        <time>2022-08-20T09:18:06Z</time>
      </trkpt>
      <trkpt lat="47.15851" lon="-1.96389">
        <ele>85</ele>
        <time>2022-08-20T09:18:08Z</time>
      </trkpt>
      <trkpt lat="47.15841" lon="-1.96406">
        <ele>85</ele>
        <time>2022-08-20T09:18:10Z</time>
      </trkpt>
      <trkpt lat="47.15831" lon="-1.96423">
        <ele>85</ele>
        <time>2022-08-20T09:18:12Z</time>
      </trkpt>
      <trkpt lat="47.15821" lon="-1.9644">
        <ele>84</ele>
        <time>2022-08-20T09:18:14Z</time>
      </trkpt>
      <trkpt lat="47.15812" lon="-1.96457">
        <ele>84</ele>
        <time>2022-08-20T09:18:16Z</time>
      </trkpt>
      <trkpt lat="47.15803" lon="-1.96474">
        <ele>84</ele>
        <time>2022-08-20T09:18:18Z</time>
      </trkpt>
      <trkpt lat="47.15794" lon="-1.9649">
        <ele>84</ele>
        <time>2022-08-20T09:18:20Z</time>
      </trkpt>
      <trkpt lat="47.15785" lon="-1.96507">
        <ele>84</ele>
        <time>2022-08-20T09:18:22Z</time>
      </trkpt>
      <trkpt lat="47.15775" lon="-1.96523">
        <ele>84</ele>
        <time>2022-08-20T09:18:24Z</time>
      </trkpt>
      <trkpt lat="47.15766" lon="-1.96539">
        <ele>83</ele>
        <time>2022-08-20T09:18:26Z</time>
      </trkpt>
      <trkpt lat="47.15756" lon="-1.96555">
        <ele>83</ele>
        <time>2022-08-20T09:18:28Z</time>
      </trkpt>
      <trkpt lat="47.15747" lon="-1.96571">
        <ele>83</ele>
        <time>2022-08-20T09:18:30Z</time>
      </trkpt>
      <trkpt lat="47.15738" lon="-1.96588">
        <ele>82</ele>
        <time>2022-08-20T09:18:32Z</time>
      </trkpt>
      <trkpt lat="47.1573" lon="-1.96603">
        <ele>82</ele>
        <time>2022-08-20T09:18:34Z</time>
      </trkpt>
      <trkpt lat="47.15721" lon="-1.96619">
        <ele>82</ele>
        <time>2022-08-20T09:18:36Z</time>
      </trkpt>
      <trkpt lat="47.15712" lon="-1.96635">
        <ele>82</ele>
        <time>2022-08-20T09:18:38Z</time>
      </trkpt>
      <trkpt lat="47.15703" lon="-1.9665">
        <ele>82</ele>
        <time>2022-08-20T09:18:40Z</time>
      </trkpt>
      <trkpt lat="47.15694" lon="-1.96665">
        <ele>82</ele>
        <time>2022-08-20T09:18:42Z</time>
      </trkpt>
      <trkpt lat="47.15685" lon="-1.96681">
        <ele>81</ele>
        <time>2022-08-20T09:18:44Z</time>
      </trkpt>
      <trkpt lat="47.15676" lon="-1.96697">
        <ele>81</ele>
        <time>2022-08-20T09:18:46Z</time>
      </trkpt>
      <trkpt lat="47.15667" lon="-1.96713">
        <ele>80</ele>
        <time>2022-08-20T09:18:48Z</time>
      </trkpt>
      <trkpt lat="47.15659" lon="-1.96729">
        <ele>80</ele>
        <time>2022-08-20T09:18:50Z</time>
      </trkpt>
      <trkpt lat="47.1565" lon="-1.96746">
        <ele>80</ele>
        <time>2022-08-20T09:18:52Z</time>
      </trkpt>
      <trkpt lat="47.15643" lon="-1.96763">
        <ele>80</ele>
        <time>2022-08-20T09:18:54Z</time>
      </trkpt>
      <trkpt lat="47.15637" lon="-1.96781">
        <ele>80</ele>
        <time>2022-08-20T09:18:56Z</time>
      </trkpt>
      <trkpt lat="47.15632" lon="-1.968">
        <ele>80</ele>
        <time>2022-08-20T09:18:58Z</time>
      </trkpt>
      <trkpt lat="47.15628" lon="-1.96819">
        <ele>80</ele>
        <time>2022-08-20T09:19:00Z</time>
      </trkpt>
      <trkpt lat="47.15623" lon="-1.96839">
        <ele>80</ele>
        <time>2022-08-20T09:19:02Z</time>
      </trkpt>
      <trkpt lat="47.1562" lon="-1.96858">
        <ele>80</ele>
        <time>2022-08-20T09:19:04Z</time>
      </trkpt>
      <trkpt lat="47.15617" lon="-1.96878">
        <ele>80</ele>
        <time>2022-08-20T09:19:06Z</time>
      </trkpt>
      <trkpt lat="47.15613" lon="-1.96898">
        <ele>80</ele>
        <time>2022-08-20T09:19:08Z</time>
      </trkpt>
      <trkpt lat="47.1561" lon="-1.96918">
        <ele>80</ele>
        <time>2022-08-20T09:19:10Z</time>
      </trkpt>
      <trkpt lat="47.15606" lon="-1.96937">
        <ele>80</ele>
        <time>2022-08-20T09:19:12Z</time>
      </trkpt>
      <trkpt lat="47.15603" lon="-1.96957">
        <ele>80</ele>
        <time>2022-08-20T09:19:14Z</time>
      </trkpt>
      <trkpt lat="47.156" lon="-1.96976">
        <ele>80</ele>
        <time>2022-08-20T09:19:16Z</time>
      </trkpt>
      <trkpt lat="47.15596" lon="-1.96996">
        <ele>80</ele>
        <time>2022-08-20T09:19:18Z</time>
      </trkpt>
      <trkpt lat="47.15592" lon="-1.97015">
        <ele>80</ele>
        <time>2022-08-20T09:19:20Z</time>
      </trkpt>
      <trkpt lat="47.15589" lon="-1.97034">
        <ele>81</ele>
        <time>2022-08-20T09:19:22Z</time>
      </trkpt>
      <trkpt lat="47.15585" lon="-1.97053">
        <ele>81</ele>
        <time>2022-08-20T09:19:24Z</time>
      </trkpt>
      <trkpt lat="47.15581" lon="-1.97072">
        <ele>80</ele>
        <time>2022-08-20T09:19:26Z</time>
      </trkpt>
      <trkpt lat="47.15576" lon="-1.97091">
        <ele>80</ele>
        <time>2022-08-20T09:19:28Z</time>
      </trkpt>
      <trkpt lat="47.15572" lon="-1.97111">
        <ele>80</ele>
        <time>2022-08-20T09:19:30Z</time>
      </trkpt>
      <trkpt lat="47.15568" lon="-1.9713">
        <ele>80</ele>
        <time>2022-08-20T09:19:32Z</time>
      </trkpt>
      <trkpt lat="47.15564" lon="-1.9715">
        <ele>80</ele>
        <time>2022-08-20T09:19:34Z</time>
      </trkpt>
      <trkpt lat="47.1556" lon="-1.97169">
        <ele>80</ele>
        <time>2022-08-20T09:19:36Z</time>
      </trkpt>
      <trkpt lat="47.15555" lon="-1.97189">
        <ele>80</ele>
        <time>2022-08-20T09:19:38Z</time>
      </trkpt>
      <trkpt lat="47.15551" lon="-1.97209">
        <ele>79</ele>
        <time>2022-08-20T09:19:40Z</time>
      </trkpt>
      <trkpt lat="47.15547" lon="-1.97228">
        <ele>79</ele>
        <time>2022-08-20T09:19:42Z</time>
      </trkpt>
      <trkpt lat="47.15543" lon="-1.97248">
        <ele>79</ele>
        <time>2022-08-20T09:19:44Z</time>
      </trkpt>
      <trkpt lat="47.1554" lon="-1.97269">
        <ele>79</ele>
        <time>2022-08-20T09:19:46Z</time>
      </trkpt>
      <trkpt lat="47.15536" lon="-1.97289">
        <ele>79</ele>
        <time>2022-08-20T09:19:48Z</time>
      </trkpt>
      <trkpt lat="47.15533" lon="-1.97308">
        <ele>79</ele>
        <time>2022-08-20T09:19:50Z</time>
      </trkpt>
      <trkpt lat="47.15529" lon="-1.97328">
        <ele>79</ele>
        <time>2022-08-20T09:19:52Z</time>
      </trkpt>
      <trkpt lat="47.15526" lon="-1.97348">
        <ele>79</ele>
        <time>2022-08-20T09:19:54Z</time>
      </trkpt>
      <trkpt lat="47.15522" lon="-1.97368">
        <ele>79</ele>
        <time>2022-08-20T09:19:56Z</time>
      </trkpt>
      <trkpt lat="47.15518" lon="-1.97388">
        <ele>79</ele>
        <time>2022-08-20T09:19:58Z</time>
      </trkpt>
      <trkpt lat="47.15514" lon="-1.97408">
        <ele>79</ele>
        <time>2022-08-20T09:20:00Z</time>
      </trkpt>
      <trkpt lat="47.1551" lon="-1.97428">
        <ele>78</ele>
        <time>2022-08-20T09:20:02Z</time>
      </trkpt>
      <trkpt lat="47.15507" lon="-1.97448">
        <ele>78</ele>
        <time>2022-08-20T09:20:04Z</time>
      </trkpt>
      <trkpt lat="47.15504" lon="-1.97467">
        <ele>78</ele>
        <time>2022-08-20T09:20:06Z</time>
      </trkpt>
      <trkpt lat="47.15501" lon="-1.97487">
        <ele>79</ele>
        <time>2022-08-20T09:20:08Z</time>
      </trkpt>
      <trkpt lat="47.15498" lon="-1.97506">
        <ele>79</ele>
        <time>2022-08-20T09:20:10Z</time>
      </trkpt>
      <trkpt lat="47.15494" lon="-1.97526">
        <ele>79</ele>
        <time>2022-08-20T09:20:12Z</time>
      </trkpt>
      <trkpt lat="47.15491" lon="-1.97545">
        <ele>79</ele>
        <time>2022-08-20T09:20:14Z</time>
      </trkpt>
      <trkpt lat="47.15488" lon="-1.97565">
        <ele>80</ele>
        <time>2022-08-20T09:20:16Z</time>
      </trkpt>
      <trkpt lat="47.15484" lon="-1.97584">
        <ele>80</ele>
        <time>2022-08-20T09:20:18Z</time>
      </trkpt>
      <trkpt lat="47.1548" lon="-1.97604">
        <ele>79</ele>
        <time>2022-08-20T09:20:20Z</time>
      </trkpt>
      <trkpt lat="47.15477" lon="-1.97623">
        <ele>80</ele>
        <time>2022-08-20T09:20:22Z</time>
      </trkpt>
      <trkpt lat="47.15474" lon="-1.97643">
        <ele>80</ele>
        <time>2022-08-20T09:20:24Z</time>
      </trkpt>
      <trkpt lat="47.1547" lon="-1.97661">
        <ele>80</ele>
        <time>2022-08-20T09:20:26Z</time>
      </trkpt>
      <trkpt lat="47.15467" lon="-1.97681">
        <ele>80</ele>
        <time>2022-08-20T09:20:28Z</time>
      </trkpt>
      <trkpt lat="47.15463" lon="-1.97701">
        <ele>80</ele>
        <time>2022-08-20T09:20:30Z</time>
      </trkpt>
      <trkpt lat="47.15459" lon="-1.9772">
        <ele>80</ele>
        <time>2022-08-20T09:20:32Z</time>
      </trkpt>
      <trkpt lat="47.15456" lon="-1.9774">
        <ele>80</ele>
        <time>2022-08-20T09:20:34Z</time>
      </trkpt>
      <trkpt lat="47.15453" lon="-1.97759">
        <ele>80</ele>
        <time>2022-08-20T09:20:36Z</time>
      </trkpt>
      <trkpt lat="47.15449" lon="-1.97779">
        <ele>79</ele>
        <time>2022-08-20T09:20:38Z</time>
      </trkpt>
      <trkpt lat="47.15445" lon="-1.97799">
        <ele>80</ele>
        <time>2022-08-20T09:20:40Z</time>
      </trkpt>
      <trkpt lat="47.15441" lon="-1.97819">
        <ele>80</ele>
        <time>2022-08-20T09:20:42Z</time>
      </trkpt>
      <trkpt lat="47.15438" lon="-1.97839">
        <ele>79</ele>
        <time>2022-08-20T09:20:44Z</time>
      </trkpt>
      <trkpt lat="47.15436" lon="-1.97859">
        <ele>80</ele>
        <time>2022-08-20T09:20:46Z</time>
      </trkpt>
      <trkpt lat="47.15435" lon="-1.97878">
        <ele>81</ele>
        <time>2022-08-20T09:20:48Z</time>
      </trkpt>
      <trkpt lat="47.15434" lon="-1.97898">
        <ele>82</ele>
        <time>2022-08-20T09:20:50Z</time>
      </trkpt>
      <trkpt lat="47.15434" lon="-1.97918">
        <ele>82</ele>
        <time>2022-08-20T09:20:52Z</time>
      </trkpt>
      <trkpt lat="47.15434" lon="-1.97938">
        <ele>82</ele>
        <time>2022-08-20T09:20:54Z</time>
      </trkpt>
      <trkpt lat="47.15433" lon="-1.97957">
        <ele>82</ele>
        <time>2022-08-20T09:20:56Z</time>
      </trkpt>
      <trkpt lat="47.15432" lon="-1.97977">
        <ele>81</ele>
        <time>2022-08-20T09:20:58Z</time>
      </trkpt>
      <trkpt lat="47.15431" lon="-1.97996">
        <ele>81</ele>
        <time>2022-08-20T09:21:00Z</time>
      </trkpt>
      <trkpt lat="47.15431" lon="-1.98013">
        <ele>82</ele>
        <time>2022-08-20T09:21:02Z</time>
      </trkpt>
      <trkpt lat="47.15431" lon="-1.98031">
        <ele>82</ele>
        <time>2022-08-20T09:21:04Z</time>
      </trkpt>
      <trkpt lat="47.1543" lon="-1.9805">
        <ele>82</ele>
        <time>2022-08-20T09:21:06Z</time>
      </trkpt>
      <trkpt lat="47.1543" lon="-1.98068">
        <ele>82</ele>
        <time>2022-08-20T09:21:08Z</time>
      </trkpt>
      <trkpt lat="47.15429" lon="-1.98088">
        <ele>82</ele>
        <time>2022-08-20T09:21:10Z</time>
      </trkpt>
      <trkpt lat="47.15428" lon="-1.98106">
        <ele>82</ele>
        <time>2022-08-20T09:21:12Z</time>
      </trkpt>
      <trkpt lat="47.15428" lon="-1.98125">
        <ele>82</ele>
        <time>2022-08-20T09:21:14Z</time>
      </trkpt>
      <trkpt lat="47.15427" lon="-1.98144">
        <ele>82</ele>
        <time>2022-08-20T09:21:16Z</time>
      </trkpt>
      <trkpt lat="47.15426" lon="-1.98163">
        <ele>81</ele>
        <time>2022-08-20T09:21:18Z</time>
      </trkpt>
      <trkpt lat="47.15425" lon="-1.98183">
        <ele>82</ele>
        <time>2022-08-20T09:21:20Z</time>
      </trkpt>
      <trkpt lat="47.15424" lon="-1.98202">
        <ele>82</ele>
        <time>2022-08-20T09:21:22Z</time>
      </trkpt>
      <trkpt lat="47.15423" lon="-1.98222">
        <ele>82</ele>
        <time>2022-08-20T09:21:24Z</time>
      </trkpt>
      <trkpt lat="47.15423" lon="-1.98241">
        <ele>81</ele>
        <time>2022-08-20T09:21:26Z</time>
      </trkpt>
      <trkpt lat="47.15422" lon="-1.98261">
        <ele>81</ele>
        <time>2022-08-20T09:21:28Z</time>
      </trkpt>
      <trkpt lat="47.1542" lon="-1.98281">
        <ele>81</ele>
        <time>2022-08-20T09:21:30Z</time>
      </trkpt>
      <trkpt lat="47.15418" lon="-1.98301">
        <ele>81</ele>
        <time>2022-08-20T09:21:32Z</time>
      </trkpt>
      <trkpt lat="47.15415" lon="-1.9832">
        <ele>81</ele>
        <time>2022-08-20T09:21:34Z</time>
      </trkpt>
      <trkpt lat="47.1541" lon="-1.9834">
        <ele>80</ele>
        <time>2022-08-20T09:21:36Z</time>
      </trkpt>
      <trkpt lat="47.15402" lon="-1.98359">
        <ele>79</ele>
        <time>2022-08-20T09:21:38Z</time>
      </trkpt>
      <trkpt lat="47.15392" lon="-1.98375">
        <ele>79</ele>
        <time>2022-08-20T09:21:40Z</time>
      </trkpt>
      <trkpt lat="47.15381" lon="-1.98388">
        <ele>78</ele>
        <time>2022-08-20T09:21:42Z</time>
      </trkpt>
      <trkpt lat="47.15368" lon="-1.98401">
        <ele>78</ele>
        <time>2022-08-20T09:21:44Z</time>
      </trkpt>
      <trkpt lat="47.15356" lon="-1.98413">
        <ele>77</ele>
        <time>2022-08-20T09:21:46Z</time>
      </trkpt>
      <trkpt lat="47.15344" lon="-1.98425">
        <ele>77</ele>
        <time>2022-08-20T09:21:48Z</time>
      </trkpt>
      <trkpt lat="47.15332" lon="-1.98436">
        <ele>77</ele>
        <time>2022-08-20T09:21:50Z</time>
      </trkpt>
      <trkpt lat="47.15319" lon="-1.98447">
        <ele>78</ele>
        <time>2022-08-20T09:21:52Z</time>
      </trkpt>
      <trkpt lat="47.15306" lon="-1.98455">
        <ele>78</ele>
        <time>2022-08-20T09:21:54Z</time>
      </trkpt>
      <trkpt lat="47.15292" lon="-1.98462">
        <ele>77</ele>
        <time>2022-08-20T09:21:56Z</time>
      </trkpt>
      <trkpt lat="47.15278" lon="-1.98467">
        <ele>77</ele>
        <time>2022-08-20T09:21:58Z</time>
      </trkpt>
      <trkpt lat="47.15264" lon="-1.98472">
        <ele>78</ele>
        <time>2022-08-20T09:22:00Z</time>
      </trkpt>
      <trkpt lat="47.1525" lon="-1.98478">
        <ele>79</ele>
        <time>2022-08-20T09:22:02Z</time>
      </trkpt>
      <trkpt lat="47.15237" lon="-1.98483">
        <ele>78</ele>
        <time>2022-08-20T09:22:04Z</time>
      </trkpt>
      <trkpt lat="47.15223" lon="-1.98489">
        <ele>78</ele>
        <time>2022-08-20T09:22:06Z</time>
      </trkpt>
      <trkpt lat="47.1521" lon="-1.98494">
        <ele>79</ele>
        <time>2022-08-20T09:22:08Z</time>
      </trkpt>
      <trkpt lat="47.15197" lon="-1.98498">
        <ele>79</ele>
        <time>2022-08-20T09:22:10Z</time>
      </trkpt>
      <trkpt lat="47.15184" lon="-1.98504">
        <ele>79</ele>
        <time>2022-08-20T09:22:12Z</time>
      </trkpt>
      <trkpt lat="47.15171" lon="-1.9851">
        <ele>79</ele>
        <time>2022-08-20T09:22:14Z</time>
      </trkpt>
      <trkpt lat="47.15159" lon="-1.98514">
        <ele>80</ele>
        <time>2022-08-20T09:22:16Z</time>
      </trkpt>
      <trkpt lat="47.15147" lon="-1.98518">
        <ele>81</ele>
        <time>2022-08-20T09:22:18Z</time>
      </trkpt>
      <trkpt lat="47.15136" lon="-1.98521">
        <ele>81</ele>
        <time>2022-08-20T09:22:20Z</time>
      </trkpt>
      <trkpt lat="47.15126" lon="-1.98525">
        <ele>82</ele>
        <time>2022-08-20T09:22:22Z</time>
      </trkpt>
      <trkpt lat="47.15128" lon="-1.98543">
        <ele>83</ele>
        <time>2022-08-20T09:22:24Z</time>
      </trkpt>
      <trkpt lat="47.1513" lon="-1.98562">
        <ele>82</ele>
        <time>2022-08-20T09:22:26Z</time>
      </trkpt>
      <trkpt lat="47.15131" lon="-1.98581">
        <ele>82</ele>
        <time>2022-08-20T09:22:28Z</time>
      </trkpt>
      <trkpt lat="47.1513" lon="-1.986">
        <ele>82</ele>
        <time>2022-08-20T09:22:30Z</time>
      </trkpt>
      <trkpt lat="47.15128" lon="-1.98618">
        <ele>81</ele>
        <time>2022-08-20T09:22:32Z</time>
      </trkpt>
      <trkpt lat="47.15126" lon="-1.98634">
        <ele>80</ele>
        <time>2022-08-20T09:22:34Z</time>
      </trkpt>
      <trkpt lat="47.15122" lon="-1.98648">
        <ele>81</ele>
        <time>2022-08-20T09:22:36Z</time>
      </trkpt>
      <trkpt lat="47.15108" lon="-1.98659">
        <ele>82</ele>
        <time>2022-08-20T09:22:38Z</time>
      </trkpt>
      <trkpt lat="47.15094" lon="-1.98671">
        <ele>82</ele>
        <time>2022-08-20T09:22:40Z</time>
      </trkpt>
      <trkpt lat="47.15081" lon="-1.98683">
        <ele>82</ele>
        <time>2022-08-20T09:22:42Z</time>
      </trkpt>
      <trkpt lat="47.15068" lon="-1.98697">
        <ele>82</ele>
        <time>2022-08-20T09:22:44Z</time>
      </trkpt>
      <trkpt lat="47.15055" lon="-1.9871">
        <ele>82</ele>
        <time>2022-08-20T09:22:46Z</time>
      </trkpt>
      <trkpt lat="47.15043" lon="-1.98723">
        <ele>82</ele>
        <time>2022-08-20T09:22:48Z</time>
      </trkpt>
      <trkpt lat="47.15029" lon="-1.98737">
        <ele>80</ele>
        <time>2022-08-20T09:22:50Z</time>
      </trkpt>
      <trkpt lat="47.15015" lon="-1.9875">
        <ele>79</ele>
        <time>2022-08-20T09:22:52Z</time>
      </trkpt>
      <trkpt lat="47.15" lon="-1.98764">
        <ele>77</ele>
        <time>2022-08-20T09:22:54Z</time>
      </trkpt>
      <trkpt lat="47.14986" lon="-1.98777">
        <ele>76</ele>
        <time>2022-08-20T09:22:56Z</time>
      </trkpt>
      <trkpt lat="47.14972" lon="-1.98791">
        <ele>75</ele>
        <time>2022-08-20T09:22:58Z</time>
      </trkpt>
      <trkpt lat="47.14959" lon="-1.98806">
        <ele>75</ele>
        <time>2022-08-20T09:23:00Z</time>
      </trkpt>
      <trkpt lat="47.14947" lon="-1.98823">
        <ele>74</ele>
        <time>2022-08-20T09:23:02Z</time>
      </trkpt>
      <trkpt lat="47.14935" lon="-1.98838">
        <ele>74</ele>
        <time>2022-08-20T09:23:04Z</time>
      </trkpt>
      <trkpt lat="47.14922" lon="-1.98854">
        <ele>73</ele>
        <time>2022-08-20T09:23:06Z</time>
      </trkpt>
      <trkpt lat="47.14911" lon="-1.98871">
        <ele>72</ele>
        <time>2022-08-20T09:23:08Z</time>
      </trkpt>
      <trkpt lat="47.14899" lon="-1.98887">
        <ele>71</ele>
        <time>2022-08-20T09:23:10Z</time>
      </trkpt>
      <trkpt lat="47.14887" lon="-1.98904">
        <ele>71</ele>
        <time>2022-08-20T09:23:12Z</time>
      </trkpt>
      <trkpt lat="47.14875" lon="-1.98921">
        <ele>70</ele>
        <time>2022-08-20T09:23:14Z</time>
      </trkpt>
      <trkpt lat="47.14863" lon="-1.98938">
        <ele>69</ele>
        <time>2022-08-20T09:23:16Z</time>
      </trkpt>
      <trkpt lat="47.14851" lon="-1.98953">
        <ele>69</ele>
        <time>2022-08-20T09:23:18Z</time>
      </trkpt>
      <trkpt lat="47.14839" lon="-1.98969">
        <ele>70</ele>
        <time>2022-08-20T09:23:20Z</time>
      </trkpt>
      <trkpt lat="47.14827" lon="-1.98984">
        <ele>70</ele>
        <time>2022-08-20T09:23:22Z</time>
      </trkpt>
      <trkpt lat="47.14816" lon="-1.99002">
        <ele>71</ele>
        <time>2022-08-20T09:23:24Z</time>
      </trkpt>
      <trkpt lat="47.14805" lon="-1.9902">
        <ele>72</ele>
        <time>2022-08-20T09:23:26Z</time>
      </trkpt>
      <trkpt lat="47.14793" lon="-1.99037">
        <ele>71</ele>
        <time>2022-08-20T09:23:28Z</time>
      </trkpt>
      <trkpt lat="47.14782" lon="-1.99054">
        <ele>70</ele>
        <time>2022-08-20T09:23:30Z</time>
      </trkpt>
      <trkpt lat="47.14771" lon="-1.99071">
        <ele>70</ele>
        <time>2022-08-20T09:23:32Z</time>
      </trkpt>
      <trkpt lat="47.14761" lon="-1.99088">
        <ele>70</ele>
        <time>2022-08-20T09:23:34Z</time>
      </trkpt>
      <trkpt lat="47.1475" lon="-1.99103">
        <ele>70</ele>
        <time>2022-08-20T09:23:36Z</time>
      </trkpt>
      <trkpt lat="47.1474" lon="-1.99119">
        <ele>70</ele>
        <time>2022-08-20T09:23:38Z</time>
      </trkpt>
      <trkpt lat="47.1473" lon="-1.99135">
        <ele>70</ele>
        <time>2022-08-20T09:23:40Z</time>
      </trkpt>
      <trkpt lat="47.1472" lon="-1.99152">
        <ele>70</ele>
        <time>2022-08-20T09:23:42Z</time>
      </trkpt>
      <trkpt lat="47.14711" lon="-1.99168">
        <ele>69</ele>
        <time>2022-08-20T09:23:44Z</time>
      </trkpt>
      <trkpt lat="47.14702" lon="-1.99183">
        <ele>70</ele>
        <time>2022-08-20T09:23:46Z</time>
      </trkpt>
      <trkpt lat="47.14694" lon="-1.99198">
        <ele>70</ele>
        <time>2022-08-20T09:23:48Z</time>
      </trkpt>
      <trkpt lat="47.14685" lon="-1.99213">
        <ele>70</ele>
        <time>2022-08-20T09:23:50Z</time>
      </trkpt>
      <trkpt lat="47.14677" lon="-1.99229">
        <ele>71</ele>
        <time>2022-08-20T09:23:52Z</time>
      </trkpt>
      <trkpt lat="47.14669" lon="-1.99244">
        <ele>71</ele>
        <time>2022-08-20T09:23:54Z</time>
      </trkpt>
      <trkpt lat="47.14661" lon="-1.9926">
        <ele>70</ele>
        <time>2022-08-20T09:23:56Z</time>
      </trkpt>
      <trkpt lat="47.14653" lon="-1.99275">
        <ele>70</ele>
        <time>2022-08-20T09:23:58Z</time>
      </trkpt>
      <trkpt lat="47.14645" lon="-1.9929">
        <ele>71</ele>
        <time>2022-08-20T09:24:00Z</time>
      </trkpt>
      <trkpt lat="47.14637" lon="-1.99306">
        <ele>70</ele>
        <time>2022-08-20T09:24:02Z</time>
      </trkpt>
      <trkpt lat="47.14628" lon="-1.99322">
        <ele>69</ele>
        <time>2022-08-20T09:24:04Z</time>
      </trkpt>
      <trkpt lat="47.14619" lon="-1.99337">
        <ele>69</ele>
        <time>2022-08-20T09:24:06Z</time>
      </trkpt>
      <trkpt lat="47.14611" lon="-1.99352">
        <ele>69</ele>
        <time>2022-08-20T09:24:08Z</time>
      </trkpt>
      <trkpt lat="47.14602" lon="-1.99368">
        <ele>68</ele>
        <time>2022-08-20T09:24:10Z</time>
      </trkpt>
      <trkpt lat="47.14593" lon="-1.99383">
        <ele>68</ele>
        <time>2022-08-20T09:24:12Z</time>
      </trkpt>
      <trkpt lat="47.14585" lon="-1.99399">
        <ele>67</ele>
        <time>2022-08-20T09:24:14Z</time>
      </trkpt>
      <trkpt lat="47.14576" lon="-1.99414">
        <ele>67</ele>
        <time>2022-08-20T09:24:16Z</time>
      </trkpt>
      <trkpt lat="47.14568" lon="-1.9943">
        <ele>67</ele>
        <time>2022-08-20T09:24:18Z</time>
      </trkpt>
      <trkpt lat="47.14559" lon="-1.99446">
        <ele>67</ele>
        <time>2022-08-20T09:24:20Z</time>
      </trkpt>
      <trkpt lat="47.14551" lon="-1.99462">
        <ele>67</ele>
        <time>2022-08-20T09:24:22Z</time>
      </trkpt>
      <trkpt lat="47.14542" lon="-1.99477">
        <ele>66</ele>
        <time>2022-08-20T09:24:24Z</time>
      </trkpt>
      <trkpt lat="47.14533" lon="-1.99493">
        <ele>66</ele>
        <time>2022-08-20T09:24:26Z</time>
      </trkpt>
      <trkpt lat="47.14525" lon="-1.99509">
        <ele>66</ele>
        <time>2022-08-20T09:24:28Z</time>
      </trkpt>
      <trkpt lat="47.14515" lon="-1.99526">
        <ele>66</ele>
        <time>2022-08-20T09:24:30Z</time>
      </trkpt>
      <trkpt lat="47.14506" lon="-1.99542">
        <ele>66</ele>
        <time>2022-08-20T09:24:32Z</time>
      </trkpt>
      <trkpt lat="47.14497" lon="-1.99559">
        <ele>65</ele>
        <time>2022-08-20T09:24:34Z</time>
      </trkpt>
      <trkpt lat="47.14488" lon="-1.99575">
        <ele>65</ele>
        <time>2022-08-20T09:24:36Z</time>
      </trkpt>
      <trkpt lat="47.14478" lon="-1.99592">
        <ele>65</ele>
        <time>2022-08-20T09:24:38Z</time>
      </trkpt>
      <trkpt lat="47.1447" lon="-1.99608">
        <ele>65</ele>
        <time>2022-08-20T09:24:40Z</time>
      </trkpt>
      <trkpt lat="47.14461" lon="-1.99624">
        <ele>65</ele>
        <time>2022-08-20T09:24:42Z</time>
      </trkpt>
      <trkpt lat="47.14453" lon="-1.9964">
        <ele>64</ele>
        <time>2022-08-20T09:24:44Z</time>
      </trkpt>
      <trkpt lat="47.14444" lon="-1.99657">
        <ele>64</ele>
        <time>2022-08-20T09:24:46Z</time>
      </trkpt>
      <trkpt lat="47.14434" lon="-1.99672">
        <ele>64</ele>
        <time>2022-08-20T09:24:48Z</time>
      </trkpt>
      <trkpt lat="47.14425" lon="-1.99688">
        <ele>64</ele>
        <time>2022-08-20T09:24:50Z</time>
      </trkpt>
      <trkpt lat="47.14416" lon="-1.99704">
        <ele>64</ele>
        <time>2022-08-20T09:24:52Z</time>
      </trkpt>
      <trkpt lat="47.14407" lon="-1.99721">
        <ele>64</ele>
        <time>2022-08-20T09:24:54Z</time>
      </trkpt>
      <trkpt lat="47.14393" lon="-1.99745">
        <ele>64</ele>
        <time>2022-08-20T09:24:57Z</time>
      </trkpt>
      <trkpt lat="47.14382" lon="-1.9976">
        <ele>64</ele>
        <time>2022-08-20T09:24:59Z</time>
      </trkpt>
      <trkpt lat="47.14373" lon="-1.99776">
        <ele>64</ele>
        <time>2022-08-20T09:25:01Z</time>
      </trkpt>
      <trkpt lat="47.14363" lon="-1.99793">
        <ele>64</ele>
        <time>2022-08-20T09:25:03Z</time>
      </trkpt>
      <trkpt lat="47.14354" lon="-1.99809">
        <ele>64</ele>
        <time>2022-08-20T09:25:05Z</time>
      </trkpt>
      <trkpt lat="47.14344" lon="-1.99824">
        <ele>64</ele>
        <time>2022-08-20T09:25:07Z</time>
      </trkpt>
      <trkpt lat="47.14335" lon="-1.9984">
        <ele>65</ele>
        <time>2022-08-20T09:25:09Z</time>
      </trkpt>
      <trkpt lat="47.14325" lon="-1.99856">
        <ele>65</ele>
        <time>2022-08-20T09:25:11Z</time>
      </trkpt>
      <trkpt lat="47.14315" lon="-1.99872">
        <ele>65</ele>
        <time>2022-08-20T09:25:13Z</time>
      </trkpt>
      <trkpt lat="47.14306" lon="-1.99887">
        <ele>65</ele>
        <time>2022-08-20T09:25:15Z</time>
      </trkpt>
      <trkpt lat="47.14295" lon="-1.99903">
        <ele>64</ele>
        <time>2022-08-20T09:25:17Z</time>
      </trkpt>
      <trkpt lat="47.14286" lon="-1.99918">
        <ele>64</ele>
        <time>2022-08-20T09:25:19Z</time>
      </trkpt>
      <trkpt lat="47.14276" lon="-1.99934">
        <ele>64</ele>
        <time>2022-08-20T09:25:21Z</time>
      </trkpt>
      <trkpt lat="47.14267" lon="-1.9995">
        <ele>63</ele>
        <time>2022-08-20T09:25:23Z</time>
      </trkpt>
      <trkpt lat="47.14257" lon="-1.99965">
        <ele>63</ele>
        <time>2022-08-20T09:25:25Z</time>
      </trkpt>
      <trkpt lat="47.14248" lon="-1.99981">
        <ele>63</ele>
        <time>2022-08-20T09:25:27Z</time>
      </trkpt>
      <trkpt lat="47.14238" lon="-1.99997">
        <ele>63</ele>
        <time>2022-08-20T09:25:29Z</time>
      </trkpt>
      <trkpt lat="47.14228" lon="-2.00013">
        <ele>62</ele>
        <time>2022-08-20T09:25:31Z</time>
      </trkpt>
      <trkpt lat="47.14218" lon="-2.00029">
        <ele>62</ele>
        <time>2022-08-20T09:25:33Z</time>
      </trkpt>
      <trkpt lat="47.14208" lon="-2.00045">
        <ele>62</ele>
        <time>2022-08-20T09:25:35Z</time>
      </trkpt>
      <trkpt lat="47.14198" lon="-2.00061">
        <ele>62</ele>
        <time>2022-08-20T09:25:37Z</time>
      </trkpt>
      <trkpt lat="47.14188" lon="-2.00077">
        <ele>62</ele>
        <time>2022-08-20T09:25:39Z</time>
      </trkpt>
      <trkpt lat="47.14178" lon="-2.00093">
        <ele>62</ele>
        <time>2022-08-20T09:25:41Z</time>
      </trkpt>
      <trkpt lat="47.14163" lon="-2.00118">
        <ele>61</ele>
        <time>2022-08-20T09:25:44Z</time>
      </trkpt>
      <trkpt lat="47.14148" lon="-2.00141">
        <ele>61</ele>
        <time>2022-08-20T09:25:47Z</time>
      </trkpt>
      <trkpt lat="47.14138" lon="-2.00157">
        <ele>61</ele>
        <time>2022-08-20T09:25:49Z</time>
      </trkpt>
      <trkpt lat="47.14128" lon="-2.00173">
        <ele>61</ele>
        <time>2022-08-20T09:25:51Z</time>
      </trkpt>
      <trkpt lat="47.14113" lon="-2.00197">
        <ele>61</ele>
        <time>2022-08-20T09:25:54Z</time>
      </trkpt>
      <trkpt lat="47.14104" lon="-2.00214">
        <ele>61</ele>
        <time>2022-08-20T09:25:56Z</time>
      </trkpt>
      <trkpt lat="47.14094" lon="-2.00229">
        <ele>61</ele>
        <time>2022-08-20T09:25:58Z</time>
      </trkpt>
      <trkpt lat="47.14084" lon="-2.00246">
        <ele>61</ele>
        <time>2022-08-20T09:26:00Z</time>
      </trkpt>
      <trkpt lat="47.14075" lon="-2.00263">
        <ele>60</ele>
        <time>2022-08-20T09:26:02Z</time>
      </trkpt>
      <trkpt lat="47.14067" lon="-2.0028">
        <ele>60</ele>
        <time>2022-08-20T09:26:04Z</time>
      </trkpt>
      <trkpt lat="47.14058" lon="-2.00297">
        <ele>60</ele>
        <time>2022-08-20T09:26:06Z</time>
      </trkpt>
      <trkpt lat="47.1405" lon="-2.00314">
        <ele>60</ele>
        <time>2022-08-20T09:26:08Z</time>
      </trkpt>
      <trkpt lat="47.14042" lon="-2.00331">
        <ele>60</ele>
        <time>2022-08-20T09:26:10Z</time>
      </trkpt>
      <trkpt lat="47.14034" lon="-2.00348">
        <ele>60</ele>
        <time>2022-08-20T09:26:12Z</time>
      </trkpt>
      <trkpt lat="47.14025" lon="-2.00366">
        <ele>60</ele>
        <time>2022-08-20T09:26:14Z</time>
      </trkpt>
      <trkpt lat="47.14017" lon="-2.00383">
        <ele>60</ele>
        <time>2022-08-20T09:26:16Z</time>
      </trkpt>
      <trkpt lat="47.14009" lon="-2.00401">
        <ele>60</ele>
        <time>2022-08-20T09:26:18Z</time>
      </trkpt>
      <trkpt lat="47.14001" lon="-2.00418">
        <ele>60</ele>
        <time>2022-08-20T09:26:20Z</time>
      </trkpt>
      <trkpt lat="47.13994" lon="-2.00434">
        <ele>60</ele>
        <time>2022-08-20T09:26:22Z</time>
      </trkpt>
      <trkpt lat="47.13986" lon="-2.00451">
        <ele>60</ele>
        <time>2022-08-20T09:26:24Z</time>
      </trkpt>
      <trkpt lat="47.13978" lon="-2.00468">
        <ele>60</ele>
        <time>2022-08-20T09:26:26Z</time>
      </trkpt>
      <trkpt lat="47.1397" lon="-2.00485">
        <ele>60</ele>
        <time>2022-08-20T09:26:28Z</time>
      </trkpt>
      <trkpt lat="47.13963" lon="-2.00502">
        <ele>60</ele>
        <time>2022-08-20T09:26:30Z</time>
      </trkpt>
      <trkpt lat="47.13954" lon="-2.0052">
        <ele>60</ele>
        <time>2022-08-20T09:26:32Z</time>
      </trkpt>
      <trkpt lat="47.13946" lon="-2.00537">
        <ele>60</ele>
        <time>2022-08-20T09:26:34Z</time>
      </trkpt>
      <trkpt lat="47.13937" lon="-2.00555">
        <ele>60</ele>
        <time>2022-08-20T09:26:36Z</time>
      </trkpt>
      <trkpt lat="47.13929" lon="-2.00572">
        <ele>60</ele>
        <time>2022-08-20T09:26:38Z</time>
      </trkpt>
      <trkpt lat="47.13921" lon="-2.0059">
        <ele>60</ele>
        <time>2022-08-20T09:26:40Z</time>
      </trkpt>
      <trkpt lat="47.13913" lon="-2.00608">
        <ele>60</ele>
        <time>2022-08-20T09:26:42Z</time>
      </trkpt>
      <trkpt lat="47.13905" lon="-2.00625">
        <ele>60</ele>
        <time>2022-08-20T09:26:44Z</time>
      </trkpt>
      <trkpt lat="47.13897" lon="-2.00641">
        <ele>59</ele>
        <time>2022-08-20T09:26:46Z</time>
      </trkpt>
      <trkpt lat="47.13888" lon="-2.00657">
        <ele>59</ele>
        <time>2022-08-20T09:26:48Z</time>
      </trkpt>
      <trkpt lat="47.13881" lon="-2.00674">
        <ele>60</ele>
        <time>2022-08-20T09:26:50Z</time>
      </trkpt>
      <trkpt lat="47.13873" lon="-2.00691">
        <ele>60</ele>
        <time>2022-08-20T09:26:52Z</time>
      </trkpt>
      <trkpt lat="47.13865" lon="-2.00708">
        <ele>60</ele>
        <time>2022-08-20T09:26:54Z</time>
      </trkpt>
      <trkpt lat="47.13857" lon="-2.00724">
        <ele>60</ele>
        <time>2022-08-20T09:26:56Z</time>
      </trkpt>
      <trkpt lat="47.13849" lon="-2.00741">
        <ele>60</ele>
        <time>2022-08-20T09:26:58Z</time>
      </trkpt>
      <trkpt lat="47.13841" lon="-2.00758">
        <ele>60</ele>
        <time>2022-08-20T09:27:00Z</time>
      </trkpt>
      <trkpt lat="47.13834" lon="-2.00774">
        <ele>60</ele>
        <time>2022-08-20T09:27:02Z</time>
      </trkpt>
      <trkpt lat="47.13826" lon="-2.00791">
        <ele>60</ele>
        <time>2022-08-20T09:27:04Z</time>
      </trkpt>
      <trkpt lat="47.13818" lon="-2.00807">
        <ele>60</ele>
        <time>2022-08-20T09:27:06Z</time>
      </trkpt>
      <trkpt lat="47.1381" lon="-2.00823">
        <ele>60</ele>
        <time>2022-08-20T09:27:08Z</time>
      </trkpt>
      <trkpt lat="47.13802" lon="-2.00839">
        <ele>60</ele>
        <time>2022-08-20T09:27:10Z</time>
      </trkpt>
      <trkpt lat="47.13795" lon="-2.00855">
        <ele>60</ele>
        <time>2022-08-20T09:27:12Z</time>
      </trkpt>
      <trkpt lat="47.13787" lon="-2.00872">
        <ele>61</ele>
        <time>2022-08-20T09:27:14Z</time>
      </trkpt>
      <trkpt lat="47.13779" lon="-2.00888">
        <ele>61</ele>
        <time>2022-08-20T09:27:16Z</time>
      </trkpt>
      <trkpt lat="47.13771" lon="-2.00904">
        <ele>61</ele>
        <time>2022-08-20T09:27:18Z</time>
      </trkpt>
      <trkpt lat="47.13764" lon="-2.0092">
        <ele>61</ele>
        <time>2022-08-20T09:27:20Z</time>
      </trkpt>
      <trkpt lat="47.13757" lon="-2.00936">
        <ele>61</ele>
        <time>2022-08-20T09:27:22Z</time>
      </trkpt>
      <trkpt lat="47.13749" lon="-2.00953">
        <ele>61</ele>
        <time>2022-08-20T09:27:24Z</time>
      </trkpt>
      <trkpt lat="47.13741" lon="-2.0097">
        <ele>61</ele>
        <time>2022-08-20T09:27:26Z</time>
      </trkpt>
      <trkpt lat="47.13734" lon="-2.00986">
        <ele>61</ele>
        <time>2022-08-20T09:27:28Z</time>
      </trkpt>
      <trkpt lat="47.13728" lon="-2.01003">
        <ele>61</ele>
        <time>2022-08-20T09:27:30Z</time>
      </trkpt>
      <trkpt lat="47.13722" lon="-2.01021">
        <ele>60</ele>
        <time>2022-08-20T09:27:32Z</time>
      </trkpt>
      <trkpt lat="47.13716" lon="-2.01039">
        <ele>61</ele>
        <time>2022-08-20T09:27:34Z</time>
      </trkpt>
      <trkpt lat="47.13711" lon="-2.01057">
        <ele>61</ele>
        <time>2022-08-20T09:27:36Z</time>
      </trkpt>
      <trkpt lat="47.13706" lon="-2.01075">
        <ele>61</ele>
        <time>2022-08-20T09:27:38Z</time>
      </trkpt>
      <trkpt lat="47.137" lon="-2.01093">
        <ele>61</ele>
        <time>2022-08-20T09:27:40Z</time>
      </trkpt>
      <trkpt lat="47.13695" lon="-2.0111">
        <ele>61</ele>
        <time>2022-08-20T09:27:42Z</time>
      </trkpt>
      <trkpt lat="47.13689" lon="-2.01127">
        <ele>61</ele>
        <time>2022-08-20T09:27:44Z</time>
      </trkpt>
      <trkpt lat="47.13684" lon="-2.01144">
        <ele>61</ele>
        <time>2022-08-20T09:27:46Z</time>
      </trkpt>
      <trkpt lat="47.13679" lon="-2.01161">
        <ele>61</ele>
        <time>2022-08-20T09:27:48Z</time>
      </trkpt>
      <trkpt lat="47.13674" lon="-2.01179">
        <ele>62</ele>
        <time>2022-08-20T09:27:50Z</time>
      </trkpt>
      <trkpt lat="47.13668" lon="-2.01196">
        <ele>62</ele>
        <time>2022-08-20T09:27:52Z</time>
      </trkpt>
      <trkpt lat="47.13662" lon="-2.01214">
        <ele>62</ele>
        <time>2022-08-20T09:27:54Z</time>
      </trkpt>
      <trkpt lat="47.13657" lon="-2.01232">
        <ele>62</ele>
        <time>2022-08-20T09:27:56Z</time>
      </trkpt>
      <trkpt lat="47.13652" lon="-2.0125">
        <ele>62</ele>
        <time>2022-08-20T09:27:58Z</time>
      </trkpt>
      <trkpt lat="47.13646" lon="-2.01268">
        <ele>62</ele>
        <time>2022-08-20T09:28:00Z</time>
      </trkpt>
      <trkpt lat="47.13641" lon="-2.01285">
        <ele>62</ele>
        <time>2022-08-20T09:28:02Z</time>
      </trkpt>
      <trkpt lat="47.13635" lon="-2.01303">
        <ele>62</ele>
        <time>2022-08-20T09:28:04Z</time>
      </trkpt>
      <trkpt lat="47.1363" lon="-2.01321">
        <ele>62</ele>
        <time>2022-08-20T09:28:06Z</time>
      </trkpt>
      <trkpt lat="47.13624" lon="-2.01339">
        <ele>62</ele>
        <time>2022-08-20T09:28:08Z</time>
      </trkpt>
      <trkpt lat="47.13619" lon="-2.01357">
        <ele>62</ele>
        <time>2022-08-20T09:28:10Z</time>
      </trkpt>
      <trkpt lat="47.13613" lon="-2.01375">
        <ele>61</ele>
        <time>2022-08-20T09:28:12Z</time>
      </trkpt>
      <trkpt lat="47.13608" lon="-2.01392">
        <ele>61</ele>
        <time>2022-08-20T09:28:14Z</time>
      </trkpt>
      <trkpt lat="47.13602" lon="-2.0141">
        <ele>61</ele>
        <time>2022-08-20T09:28:16Z</time>
      </trkpt>
      <trkpt lat="47.13596" lon="-2.01428">
        <ele>61</ele>
        <time>2022-08-20T09:28:18Z</time>
      </trkpt>
      <trkpt lat="47.13591" lon="-2.01447">
        <ele>61</ele>
        <time>2022-08-20T09:28:20Z</time>
      </trkpt>
      <trkpt lat="47.13585" lon="-2.01465">
        <ele>61</ele>
        <time>2022-08-20T09:28:22Z</time>
      </trkpt>
      <trkpt lat="47.13579" lon="-2.01483">
        <ele>60</ele>
        <time>2022-08-20T09:28:24Z</time>
      </trkpt>
      <trkpt lat="47.13574" lon="-2.01501">
        <ele>60</ele>
        <time>2022-08-20T09:28:26Z</time>
      </trkpt>
      <trkpt lat="47.13568" lon="-2.01519">
        <ele>60</ele>
        <time>2022-08-20T09:28:28Z</time>
      </trkpt>
      <trkpt lat="47.13563" lon="-2.01537">
        <ele>61</ele>
        <time>2022-08-20T09:28:30Z</time>
      </trkpt>
      <trkpt lat="47.13559" lon="-2.01556">
        <ele>60</ele>
        <time>2022-08-20T09:28:32Z</time>
      </trkpt>
      <trkpt lat="47.13555" lon="-2.01575">
        <ele>60</ele>
        <time>2022-08-20T09:28:34Z</time>
      </trkpt>
      <trkpt lat="47.13551" lon="-2.01595">
        <ele>60</ele>
        <time>2022-08-20T09:28:36Z</time>
      </trkpt>
      <trkpt lat="47.13549" lon="-2.01614">
        <ele>59</ele>
        <time>2022-08-20T09:28:38Z</time>
      </trkpt>
      <trkpt lat="47.13547" lon="-2.01635">
        <ele>59</ele>
        <time>2022-08-20T09:28:40Z</time>
      </trkpt>
      <trkpt lat="47.13544" lon="-2.01656">
        <ele>59</ele>
        <time>2022-08-20T09:28:42Z</time>
      </trkpt>
      <trkpt lat="47.13542" lon="-2.01677">
        <ele>59</ele>
        <time>2022-08-20T09:28:44Z</time>
      </trkpt>
      <trkpt lat="47.1354" lon="-2.01698">
        <ele>59</ele>
        <time>2022-08-20T09:28:46Z</time>
      </trkpt>
      <trkpt lat="47.13537" lon="-2.01718">
        <ele>59</ele>
        <time>2022-08-20T09:28:48Z</time>
      </trkpt>
      <trkpt lat="47.13535" lon="-2.0174">
        <ele>58</ele>
        <time>2022-08-20T09:28:50Z</time>
      </trkpt>
      <trkpt lat="47.13533" lon="-2.01761">
        <ele>58</ele>
        <time>2022-08-20T09:28:52Z</time>
      </trkpt>
      <trkpt lat="47.1353" lon="-2.01782">
        <ele>58</ele>
        <time>2022-08-20T09:28:54Z</time>
      </trkpt>
      <trkpt lat="47.13528" lon="-2.01804">
        <ele>58</ele>
        <time>2022-08-20T09:28:56Z</time>
      </trkpt>
      <trkpt lat="47.13525" lon="-2.01826">
        <ele>57</ele>
        <time>2022-08-20T09:28:58Z</time>
      </trkpt>
      <trkpt lat="47.13523" lon="-2.01847">
        <ele>57</ele>
        <time>2022-08-20T09:29:00Z</time>
      </trkpt>
      <trkpt lat="47.1352" lon="-2.01869">
        <ele>57</ele>
        <time>2022-08-20T09:29:02Z</time>
      </trkpt>
      <trkpt lat="47.13518" lon="-2.01891">
        <ele>57</ele>
        <time>2022-08-20T09:29:04Z</time>
      </trkpt>
      <trkpt lat="47.13515" lon="-2.01913">
        <ele>57</ele>
        <time>2022-08-20T09:29:06Z</time>
      </trkpt>
      <trkpt lat="47.13513" lon="-2.01934">
        <ele>56</ele>
        <time>2022-08-20T09:29:08Z</time>
      </trkpt>
      <trkpt lat="47.13511" lon="-2.01955">
        <ele>56</ele>
        <time>2022-08-20T09:29:10Z</time>
      </trkpt>
      <trkpt lat="47.13508" lon="-2.01976">
        <ele>57</ele>
        <time>2022-08-20T09:29:12Z</time>
      </trkpt>
      <trkpt lat="47.13506" lon="-2.01997">
        <ele>57</ele>
        <time>2022-08-20T09:29:14Z</time>
      </trkpt>
      <trkpt lat="47.13504" lon="-2.02018">
        <ele>57</ele>
        <time>2022-08-20T09:29:16Z</time>
      </trkpt>
      <trkpt lat="47.13501" lon="-2.02039">
        <ele>57</ele>
        <time>2022-08-20T09:29:18Z</time>
      </trkpt>
      <trkpt lat="47.13499" lon="-2.02061">
        <ele>57</ele>
        <time>2022-08-20T09:29:20Z</time>
      </trkpt>
      <trkpt lat="47.13496" lon="-2.02081">
        <ele>57</ele>
        <time>2022-08-20T09:29:22Z</time>
      </trkpt>
      <trkpt lat="47.13494" lon="-2.02101">
        <ele>57</ele>
        <time>2022-08-20T09:29:24Z</time>
      </trkpt>
      <trkpt lat="47.13492" lon="-2.02122">
        <ele>57</ele>
        <time>2022-08-20T09:29:26Z</time>
      </trkpt>
      <trkpt lat="47.13489" lon="-2.02142">
        <ele>57</ele>
        <time>2022-08-20T09:29:28Z</time>
      </trkpt>
      <trkpt lat="47.13487" lon="-2.02163">
        <ele>57</ele>
        <time>2022-08-20T09:29:30Z</time>
      </trkpt>
      <trkpt lat="47.13484" lon="-2.02184">
        <ele>57</ele>
        <time>2022-08-20T09:29:32Z</time>
      </trkpt>
      <trkpt lat="47.13481" lon="-2.02204">
        <ele>57</ele>
        <time>2022-08-20T09:29:34Z</time>
      </trkpt>
      <trkpt lat="47.13477" lon="-2.02224">
        <ele>56</ele>
        <time>2022-08-20T09:29:36Z</time>
      </trkpt>
      <trkpt lat="47.13473" lon="-2.02243">
        <ele>57</ele>
        <time>2022-08-20T09:29:38Z</time>
      </trkpt>
      <trkpt lat="47.13469" lon="-2.02262">
        <ele>56</ele>
        <time>2022-08-20T09:29:40Z</time>
      </trkpt>
      <trkpt lat="47.13464" lon="-2.02282">
        <ele>56</ele>
        <time>2022-08-20T09:29:42Z</time>
      </trkpt>
      <trkpt lat="47.13458" lon="-2.02301">
        <ele>56</ele>
        <time>2022-08-20T09:29:44Z</time>
      </trkpt>
      <trkpt lat="47.13453" lon="-2.0232">
        <ele>56</ele>
        <time>2022-08-20T09:29:46Z</time>
      </trkpt>
      <trkpt lat="47.13447" lon="-2.02338">
        <ele>56</ele>
        <time>2022-08-20T09:29:48Z</time>
      </trkpt>
      <trkpt lat="47.13441" lon="-2.02356">
        <ele>56</ele>
        <time>2022-08-20T09:29:50Z</time>
      </trkpt>
      <trkpt lat="47.13434" lon="-2.02374">
        <ele>56</ele>
        <time>2022-08-20T09:29:52Z</time>
      </trkpt>
      <trkpt lat="47.13427" lon="-2.02391">
        <ele>56</ele>
        <time>2022-08-20T09:29:54Z</time>
      </trkpt>
      <trkpt lat="47.13419" lon="-2.02408">
        <ele>56</ele>
        <time>2022-08-20T09:29:56Z</time>
      </trkpt>
      <trkpt lat="47.13412" lon="-2.02424">
        <ele>56</ele>
        <time>2022-08-20T09:29:58Z</time>
      </trkpt>
      <trkpt lat="47.13405" lon="-2.02441">
        <ele>56</ele>
        <time>2022-08-20T09:30:00Z</time>
      </trkpt>
      <trkpt lat="47.13398" lon="-2.02457">
        <ele>56</ele>
        <time>2022-08-20T09:30:02Z</time>
      </trkpt>
      <trkpt lat="47.13391" lon="-2.02473">
        <ele>56</ele>
        <time>2022-08-20T09:30:04Z</time>
      </trkpt>
      <trkpt lat="47.13384" lon="-2.02491">
        <ele>56</ele>
        <time>2022-08-20T09:30:06Z</time>
      </trkpt>
      <trkpt lat="47.13378" lon="-2.02508">
        <ele>56</ele>
        <time>2022-08-20T09:30:08Z</time>
      </trkpt>
      <trkpt lat="47.13371" lon="-2.02524">
        <ele>56</ele>
        <time>2022-08-20T09:30:10Z</time>
      </trkpt>
      <trkpt lat="47.13364" lon="-2.02542">
        <ele>56</ele>
        <time>2022-08-20T09:30:12Z</time>
      </trkpt>
      <trkpt lat="47.13356" lon="-2.02558">
        <ele>56</ele>
        <time>2022-08-20T09:30:14Z</time>
      </trkpt>
      <trkpt lat="47.13349" lon="-2.02574">
        <ele>57</ele>
        <time>2022-08-20T09:30:16Z</time>
      </trkpt>
      <trkpt lat="47.13342" lon="-2.02591">
        <ele>57</ele>
        <time>2022-08-20T09:30:18Z</time>
      </trkpt>
      <trkpt lat="47.13334" lon="-2.02607">
        <ele>57</ele>
        <time>2022-08-20T09:30:20Z</time>
      </trkpt>
      <trkpt lat="47.13327" lon="-2.02625">
        <ele>57</ele>
        <time>2022-08-20T09:30:22Z</time>
      </trkpt>
      <trkpt lat="47.13319" lon="-2.02641">
        <ele>58</ele>
        <time>2022-08-20T09:30:24Z</time>
      </trkpt>
      <trkpt lat="47.13312" lon="-2.02658">
        <ele>58</ele>
        <time>2022-08-20T09:30:26Z</time>
      </trkpt>
      <trkpt lat="47.13305" lon="-2.02675">
        <ele>58</ele>
        <time>2022-08-20T09:30:28Z</time>
      </trkpt>
      <trkpt lat="47.13297" lon="-2.02692">
        <ele>58</ele>
        <time>2022-08-20T09:30:30Z</time>
      </trkpt>
      <trkpt lat="47.1329" lon="-2.02708">
        <ele>58</ele>
        <time>2022-08-20T09:30:32Z</time>
      </trkpt>
      <trkpt lat="47.13284" lon="-2.02725">
        <ele>58</ele>
        <time>2022-08-20T09:30:34Z</time>
      </trkpt>
      <trkpt lat="47.13277" lon="-2.02742">
        <ele>58</ele>
        <time>2022-08-20T09:30:36Z</time>
      </trkpt>
      <trkpt lat="47.13271" lon="-2.0276">
        <ele>58</ele>
        <time>2022-08-20T09:30:38Z</time>
      </trkpt>
      <trkpt lat="47.13266" lon="-2.02778">
        <ele>58</ele>
        <time>2022-08-20T09:30:40Z</time>
      </trkpt>
      <trkpt lat="47.13261" lon="-2.02796">
        <ele>58</ele>
        <time>2022-08-20T09:30:42Z</time>
      </trkpt>
      <trkpt lat="47.13256" lon="-2.02815">
        <ele>58</ele>
        <time>2022-08-20T09:30:44Z</time>
      </trkpt>
      <trkpt lat="47.13252" lon="-2.02833">
        <ele>58</ele>
        <time>2022-08-20T09:30:46Z</time>
      </trkpt>
      <trkpt lat="47.13247" lon="-2.02852">
        <ele>58</ele>
        <time>2022-08-20T09:30:48Z</time>
      </trkpt>
      <trkpt lat="47.13242" lon="-2.0287">
        <ele>58</ele>
        <time>2022-08-20T09:30:50Z</time>
      </trkpt>
      <trkpt lat="47.13238" lon="-2.02888">
        <ele>57</ele>
        <time>2022-08-20T09:30:52Z</time>
      </trkpt>
      <trkpt lat="47.13233" lon="-2.02907">
        <ele>57</ele>
        <time>2022-08-20T09:30:54Z</time>
      </trkpt>
      <trkpt lat="47.13228" lon="-2.02926">
        <ele>57</ele>
        <time>2022-08-20T09:30:56Z</time>
      </trkpt>
      <trkpt lat="47.13223" lon="-2.02944">
        <ele>57</ele>
        <time>2022-08-20T09:30:58Z</time>
      </trkpt>
      <trkpt lat="47.13219" lon="-2.02963">
        <ele>57</ele>
        <time>2022-08-20T09:31:00Z</time>
      </trkpt>
      <trkpt lat="47.13214" lon="-2.02983">
        <ele>57</ele>
        <time>2022-08-20T09:31:02Z</time>
      </trkpt>
      <trkpt lat="47.13208" lon="-2.03002">
        <ele>56</ele>
        <time>2022-08-20T09:31:04Z</time>
      </trkpt>
      <trkpt lat="47.13203" lon="-2.03021">
        <ele>56</ele>
        <time>2022-08-20T09:31:06Z</time>
      </trkpt>
      <trkpt lat="47.13196" lon="-2.03041">
        <ele>56</ele>
        <time>2022-08-20T09:31:08Z</time>
      </trkpt>
      <trkpt lat="47.1319" lon="-2.03062">
        <ele>55</ele>
        <time>2022-08-20T09:31:10Z</time>
      </trkpt>
      <trkpt lat="47.13184" lon="-2.03081">
        <ele>55</ele>
        <time>2022-08-20T09:31:12Z</time>
      </trkpt>
      <trkpt lat="47.13178" lon="-2.03101">
        <ele>55</ele>
        <time>2022-08-20T09:31:14Z</time>
      </trkpt>
      <trkpt lat="47.13171" lon="-2.03121">
        <ele>55</ele>
        <time>2022-08-20T09:31:16Z</time>
      </trkpt>
      <trkpt lat="47.13165" lon="-2.03142">
        <ele>55</ele>
        <time>2022-08-20T09:31:18Z</time>
      </trkpt>
      <trkpt lat="47.13158" lon="-2.03162">
        <ele>55</ele>
        <time>2022-08-20T09:31:20Z</time>
      </trkpt>
      <trkpt lat="47.13151" lon="-2.03183">
        <ele>54</ele>
        <time>2022-08-20T09:31:22Z</time>
      </trkpt>
      <trkpt lat="47.13144" lon="-2.03203">
        <ele>55</ele>
        <time>2022-08-20T09:31:24Z</time>
      </trkpt>
      <trkpt lat="47.13137" lon="-2.03225">
        <ele>55</ele>
        <time>2022-08-20T09:31:26Z</time>
      </trkpt>
      <trkpt lat="47.13131" lon="-2.03246">
        <ele>54</ele>
        <time>2022-08-20T09:31:28Z</time>
      </trkpt>
      <trkpt lat="47.13124" lon="-2.03268">
        <ele>54</ele>
        <time>2022-08-20T09:31:30Z</time>
      </trkpt>
      <trkpt lat="47.13117" lon="-2.03289">
        <ele>54</ele>
        <time>2022-08-20T09:31:32Z</time>
      </trkpt>
      <trkpt lat="47.1311" lon="-2.03311">
        <ele>54</ele>
        <time>2022-08-20T09:31:34Z</time>
      </trkpt>
      <trkpt lat="47.13103" lon="-2.03333">
        <ele>53</ele>
        <time>2022-08-20T09:31:36Z</time>
      </trkpt>
      <trkpt lat="47.13097" lon="-2.03356">
        <ele>53</ele>
        <time>2022-08-20T09:31:38Z</time>
      </trkpt>
      <trkpt lat="47.13091" lon="-2.03378">
        <ele>53</ele>
        <time>2022-08-20T09:31:40Z</time>
      </trkpt>
      <trkpt lat="47.13086" lon="-2.03402">
        <ele>52</ele>
        <time>2022-08-20T09:31:42Z</time>
      </trkpt>
      <trkpt lat="47.13082" lon="-2.03426">
        <ele>52</ele>
        <time>2022-08-20T09:31:44Z</time>
      </trkpt>
      <trkpt lat="47.13079" lon="-2.0345">
        <ele>52</ele>
        <time>2022-08-20T09:31:46Z</time>
      </trkpt>
      <trkpt lat="47.13076" lon="-2.03474">
        <ele>52</ele>
        <time>2022-08-20T09:31:48Z</time>
      </trkpt>
      <trkpt lat="47.13072" lon="-2.03497">
        <ele>53</ele>
        <time>2022-08-20T09:31:50Z</time>
      </trkpt>
      <trkpt lat="47.1307" lon="-2.0352">
        <ele>54</ele>
        <time>2022-08-20T09:31:52Z</time>
      </trkpt>
      <trkpt lat="47.13067" lon="-2.03544">
        <ele>55</ele>
        <time>2022-08-20T09:31:54Z</time>
      </trkpt>
      <trkpt lat="47.13063" lon="-2.03567">
        <ele>54</ele>
        <time>2022-08-20T09:31:56Z</time>
      </trkpt>
      <trkpt lat="47.13057" lon="-2.03589">
        <ele>54</ele>
        <time>2022-08-20T09:31:58Z</time>
      </trkpt>
      <trkpt lat="47.13049" lon="-2.03611">
        <ele>54</ele>
        <time>2022-08-20T09:32:00Z</time>
      </trkpt>
      <trkpt lat="47.1304" lon="-2.03631">
        <ele>53</ele>
        <time>2022-08-20T09:32:02Z</time>
      </trkpt>
      <trkpt lat="47.13031" lon="-2.03651">
        <ele>53</ele>
        <time>2022-08-20T09:32:04Z</time>
      </trkpt>
      <trkpt lat="47.13024" lon="-2.03674">
        <ele>53</ele>
        <time>2022-08-20T09:32:06Z</time>
      </trkpt>
      <trkpt lat="47.13024" lon="-2.03698">
        <ele>52</ele>
        <time>2022-08-20T09:32:08Z</time>
      </trkpt>
      <trkpt lat="47.13029" lon="-2.0372">
        <ele>52</ele>
        <time>2022-08-20T09:32:10Z</time>
      </trkpt>
      <trkpt lat="47.13034" lon="-2.0374">
        <ele>52</ele>
        <time>2022-08-20T09:32:12Z</time>
      </trkpt>
      <trkpt lat="47.1304" lon="-2.03761">
        <ele>52</ele>
        <time>2022-08-20T09:32:14Z</time>
      </trkpt>
      <trkpt lat="47.13045" lon="-2.03782">
        <ele>52</ele>
        <time>2022-08-20T09:32:16Z</time>
      </trkpt>
      <trkpt lat="47.13051" lon="-2.03802">
        <ele>52</ele>
        <time>2022-08-20T09:32:18Z</time>
      </trkpt>
      <trkpt lat="47.13056" lon="-2.03823">
        <ele>52</ele>
        <time>2022-08-20T09:32:20Z</time>
      </trkpt>
      <trkpt lat="47.13061" lon="-2.03844">
        <ele>52</ele>
        <time>2022-08-20T09:32:22Z</time>
      </trkpt>
      <trkpt lat="47.13065" lon="-2.03865">
        <ele>53</ele>
        <time>2022-08-20T09:32:24Z</time>
      </trkpt>
      <trkpt lat="47.13069" lon="-2.03887">
        <ele>53</ele>
        <time>2022-08-20T09:32:26Z</time>
      </trkpt>
      <trkpt lat="47.13072" lon="-2.0391">
        <ele>53</ele>
        <time>2022-08-20T09:32:28Z</time>
      </trkpt>
      <trkpt lat="47.13074" lon="-2.03934">
        <ele>54</ele>
        <time>2022-08-20T09:32:30Z</time>
      </trkpt>
      <trkpt lat="47.13076" lon="-2.03956">
        <ele>54</ele>
        <time>2022-08-20T09:32:32Z</time>
      </trkpt>
      <trkpt lat="47.13077" lon="-2.0398">
        <ele>54</ele>
        <time>2022-08-20T09:32:34Z</time>
      </trkpt>
      <trkpt lat="47.13079" lon="-2.04002">
        <ele>55</ele>
        <time>2022-08-20T09:32:36Z</time>
      </trkpt>
      <trkpt lat="47.13081" lon="-2.04024">
        <ele>55</ele>
        <time>2022-08-20T09:32:38Z</time>
      </trkpt>
      <trkpt lat="47.13083" lon="-2.04046">
        <ele>56</ele>
        <time>2022-08-20T09:32:40Z</time>
      </trkpt>
      <trkpt lat="47.13085" lon="-2.04069">
        <ele>55</ele>
        <time>2022-08-20T09:32:42Z</time>
      </trkpt>
      <trkpt lat="47.13086" lon="-2.04091">
        <ele>55</ele>
        <time>2022-08-20T09:32:44Z</time>
      </trkpt>
      <trkpt lat="47.13087" lon="-2.04113">
        <ele>56</ele>
        <time>2022-08-20T09:32:46Z</time>
      </trkpt>
      <trkpt lat="47.13089" lon="-2.04134">
        <ele>57</ele>
        <time>2022-08-20T09:32:48Z</time>
      </trkpt>
      <trkpt lat="47.13091" lon="-2.04158">
        <ele>57</ele>
        <time>2022-08-20T09:32:50Z</time>
      </trkpt>
      <trkpt lat="47.13092" lon="-2.0418">
        <ele>57</ele>
        <time>2022-08-20T09:32:52Z</time>
      </trkpt>
      <trkpt lat="47.13094" lon="-2.04202">
        <ele>57</ele>
        <time>2022-08-20T09:32:54Z</time>
      </trkpt>
      <trkpt lat="47.13096" lon="-2.04224">
        <ele>57</ele>
        <time>2022-08-20T09:32:56Z</time>
      </trkpt>
      <trkpt lat="47.13098" lon="-2.04245">
        <ele>57</ele>
        <time>2022-08-20T09:32:58Z</time>
      </trkpt>
      <trkpt lat="47.131" lon="-2.04267">
        <ele>57</ele>
        <time>2022-08-20T09:33:00Z</time>
      </trkpt>
      <trkpt lat="47.13101" lon="-2.04289">
        <ele>57</ele>
        <time>2022-08-20T09:33:02Z</time>
      </trkpt>
      <trkpt lat="47.13102" lon="-2.0431">
        <ele>58</ele>
        <time>2022-08-20T09:33:04Z</time>
      </trkpt>
      <trkpt lat="47.13103" lon="-2.04333">
        <ele>58</ele>
        <time>2022-08-20T09:33:06Z</time>
      </trkpt>
      <trkpt lat="47.13103" lon="-2.04354">
        <ele>57</ele>
        <time>2022-08-20T09:33:08Z</time>
      </trkpt>
      <trkpt lat="47.13101" lon="-2.04375">
        <ele>57</ele>
        <time>2022-08-20T09:33:10Z</time>
      </trkpt>
      <trkpt lat="47.13097" lon="-2.04393">
        <ele>57</ele>
        <time>2022-08-20T09:33:12Z</time>
      </trkpt>
      <trkpt lat="47.1309" lon="-2.0441">
        <ele>59</ele>
        <time>2022-08-20T09:33:14Z</time>
      </trkpt>
      <trkpt lat="47.13081" lon="-2.04427">
        <ele>59</ele>
        <time>2022-08-20T09:33:16Z</time>
      </trkpt>
      <trkpt lat="47.13071" lon="-2.04443">
        <ele>60</ele>
        <time>2022-08-20T09:33:18Z</time>
      </trkpt>
      <trkpt lat="47.1306" lon="-2.04459">
        <ele>60</ele>
        <time>2022-08-20T09:33:20Z</time>
      </trkpt>
      <trkpt lat="47.1305" lon="-2.04475">
        <ele>61</ele>
        <time>2022-08-20T09:33:22Z</time>
      </trkpt>
      <trkpt lat="47.1304" lon="-2.04492">
        <ele>61</ele>
        <time>2022-08-20T09:33:24Z</time>
      </trkpt>
      <trkpt lat="47.13029" lon="-2.04507">
        <ele>61</ele>
        <time>2022-08-20T09:33:26Z</time>
      </trkpt>
      <trkpt lat="47.13019" lon="-2.04523">
        <ele>61</ele>
        <time>2022-08-20T09:33:28Z</time>
      </trkpt>
      <trkpt lat="47.13009" lon="-2.04539">
        <ele>60</ele>
        <time>2022-08-20T09:33:30Z</time>
      </trkpt>
      <trkpt lat="47.12999" lon="-2.04555">
        <ele>59</ele>
        <time>2022-08-20T09:33:32Z</time>
      </trkpt>
      <trkpt lat="47.12988" lon="-2.0457">
        <ele>58</ele>
        <time>2022-08-20T09:33:34Z</time>
      </trkpt>
      <trkpt lat="47.12978" lon="-2.04586">
        <ele>57</ele>
        <time>2022-08-20T09:33:36Z</time>
      </trkpt>
      <trkpt lat="47.12969" lon="-2.04602">
        <ele>56</ele>
        <time>2022-08-20T09:33:38Z</time>
      </trkpt>
      <trkpt lat="47.12959" lon="-2.04618">
        <ele>56</ele>
        <time>2022-08-20T09:33:40Z</time>
      </trkpt>
      <trkpt lat="47.12952" lon="-2.04636">
        <ele>55</ele>
        <time>2022-08-20T09:33:42Z</time>
      </trkpt>
      <trkpt lat="47.12947" lon="-2.04657">
        <ele>54</ele>
        <time>2022-08-20T09:33:44Z</time>
      </trkpt>
      <trkpt lat="47.12944" lon="-2.04677">
        <ele>53</ele>
        <time>2022-08-20T09:33:46Z</time>
      </trkpt>
      <trkpt lat="47.12944" lon="-2.04696">
        <ele>53</ele>
        <time>2022-08-20T09:33:48Z</time>
      </trkpt>
      <trkpt lat="47.12943" lon="-2.04714">
        <ele>53</ele>
        <time>2022-08-20T09:33:50Z</time>
      </trkpt>
      <trkpt lat="47.12943" lon="-2.04731">
        <ele>53</ele>
        <time>2022-08-20T09:33:52Z</time>
      </trkpt>
      <trkpt lat="47.12943" lon="-2.04747">
        <ele>53</ele>
        <time>2022-08-20T09:33:54Z</time>
      </trkpt>
      <trkpt lat="47.12943" lon="-2.04761">
        <ele>53</ele>
        <time>2022-08-20T09:33:56Z</time>
      </trkpt>
      <trkpt lat="47.12945" lon="-2.04776">
        <ele>54</ele>
        <time>2022-08-20T09:33:59Z</time>
      </trkpt>
      <trkpt lat="47.12949" lon="-2.04795">
        <ele>54</ele>
        <time>2022-08-20T09:34:02Z</time>
      </trkpt>
      <trkpt lat="47.12949" lon="-2.04812">
        <ele>55</ele>
        <time>2022-08-20T09:34:04Z</time>
      </trkpt>
      <trkpt lat="47.12949" lon="-2.0483">
        <ele>56</ele>
        <time>2022-08-20T09:34:06Z</time>
      </trkpt>
      <trkpt lat="47.12949" lon="-2.04848">
        <ele>56</ele>
        <time>2022-08-20T09:34:08Z</time>
      </trkpt>
      <trkpt lat="47.1295" lon="-2.04867">
        <ele>57</ele>
        <time>2022-08-20T09:34:10Z</time>
      </trkpt>
      <trkpt lat="47.1295" lon="-2.04886">
        <ele>57</ele>
        <time>2022-08-20T09:34:12Z</time>
      </trkpt>
      <trkpt lat="47.12953" lon="-2.04906">
        <ele>58</ele>
        <time>2022-08-20T09:34:14Z</time>
      </trkpt>
      <trkpt lat="47.12957" lon="-2.04926">
        <ele>58</ele>
        <time>2022-08-20T09:34:16Z</time>
      </trkpt>
      <trkpt lat="47.12964" lon="-2.04943">
        <ele>59</ele>
        <time>2022-08-20T09:34:18Z</time>
      </trkpt>
      <trkpt lat="47.12973" lon="-2.0496">
        <ele>60</ele>
        <time>2022-08-20T09:34:20Z</time>
      </trkpt>
      <trkpt lat="47.1298" lon="-2.04974">
        <ele>60</ele>
        <time>2022-08-20T09:34:22Z</time>
      </trkpt>
      <trkpt lat="47.12988" lon="-2.04988">
        <ele>60</ele>
        <time>2022-08-20T09:34:24Z</time>
      </trkpt>
      <trkpt lat="47.12996" lon="-2.05002">
        <ele>60</ele>
        <time>2022-08-20T09:34:26Z</time>
      </trkpt>
      <trkpt lat="47.13003" lon="-2.05016">
        <ele>61</ele>
        <time>2022-08-20T09:34:28Z</time>
      </trkpt>
      <trkpt lat="47.1301" lon="-2.05032">
        <ele>60</ele>
        <time>2022-08-20T09:34:30Z</time>
      </trkpt>
      <trkpt lat="47.13017" lon="-2.05048">
        <ele>60</ele>
        <time>2022-08-20T09:34:32Z</time>
      </trkpt>
      <trkpt lat="47.13024" lon="-2.05067">
        <ele>59</ele>
        <time>2022-08-20T09:34:34Z</time>
      </trkpt>
      <trkpt lat="47.13028" lon="-2.05089">
        <ele>59</ele>
        <time>2022-08-20T09:34:36Z</time>
      </trkpt>
      <trkpt lat="47.1303" lon="-2.05111">
        <ele>59</ele>
        <time>2022-08-20T09:34:38Z</time>
      </trkpt>
      <trkpt lat="47.13031" lon="-2.05135">
        <ele>58</ele>
        <time>2022-08-20T09:34:40Z</time>
      </trkpt>
      <trkpt lat="47.13032" lon="-2.05158">
        <ele>57</ele>
        <time>2022-08-20T09:34:42Z</time>
      </trkpt>
      <trkpt lat="47.13032" lon="-2.05182">
        <ele>56</ele>
        <time>2022-08-20T09:34:44Z</time>
      </trkpt>
      <trkpt lat="47.13033" lon="-2.05208">
        <ele>55</ele>
        <time>2022-08-20T09:34:46Z</time>
      </trkpt>
      <trkpt lat="47.13033" lon="-2.05233">
        <ele>54</ele>
        <time>2022-08-20T09:34:48Z</time>
      </trkpt>
      <trkpt lat="47.13035" lon="-2.05257">
        <ele>54</ele>
        <time>2022-08-20T09:34:50Z</time>
      </trkpt>
      <trkpt lat="47.13035" lon="-2.05281">
        <ele>55</ele>
        <time>2022-08-20T09:34:52Z</time>
      </trkpt>
      <trkpt lat="47.13035" lon="-2.05304">
        <ele>56</ele>
        <time>2022-08-20T09:34:54Z</time>
      </trkpt>
      <trkpt lat="47.13035" lon="-2.05327">
        <ele>56</ele>
        <time>2022-08-20T09:34:56Z</time>
      </trkpt>
      <trkpt lat="47.13035" lon="-2.05351">
        <ele>56</ele>
        <time>2022-08-20T09:34:58Z</time>
      </trkpt>
      <trkpt lat="47.13035" lon="-2.05373">
        <ele>56</ele>
        <time>2022-08-20T09:35:00Z</time>
      </trkpt>
      <trkpt lat="47.13035" lon="-2.05394">
        <ele>56</ele>
        <time>2022-08-20T09:35:02Z</time>
      </trkpt>
      <trkpt lat="47.13035" lon="-2.05413">
        <ele>56</ele>
        <time>2022-08-20T09:35:04Z</time>
      </trkpt>
      <trkpt lat="47.13034" lon="-2.05433">
        <ele>57</ele>
        <time>2022-08-20T09:35:06Z</time>
      </trkpt>
      <trkpt lat="47.13033" lon="-2.05453">
        <ele>57</ele>
        <time>2022-08-20T09:35:08Z</time>
      </trkpt>
      <trkpt lat="47.13031" lon="-2.05471">
        <ele>57</ele>
        <time>2022-08-20T09:35:10Z</time>
      </trkpt>
      <trkpt lat="47.13028" lon="-2.0549">
        <ele>57</ele>
        <time>2022-08-20T09:35:12Z</time>
      </trkpt>
      <trkpt lat="47.13022" lon="-2.05507">
        <ele>57</ele>
        <time>2022-08-20T09:35:14Z</time>
      </trkpt>
      <trkpt lat="47.13017" lon="-2.05525">
        <ele>57</ele>
        <time>2022-08-20T09:35:16Z</time>
      </trkpt>
      <trkpt lat="47.13011" lon="-2.05543">
        <ele>56</ele>
        <time>2022-08-20T09:35:18Z</time>
      </trkpt>
      <trkpt lat="47.13005" lon="-2.0556">
        <ele>56</ele>
        <time>2022-08-20T09:35:20Z</time>
      </trkpt>
      <trkpt lat="47.13" lon="-2.05578">
        <ele>56</ele>
        <time>2022-08-20T09:35:22Z</time>
      </trkpt>
      <trkpt lat="47.12993" lon="-2.05597">
        <ele>56</ele>
        <time>2022-08-20T09:35:24Z</time>
      </trkpt>
      <trkpt lat="47.12988" lon="-2.05615">
        <ele>56</ele>
        <time>2022-08-20T09:35:26Z</time>
      </trkpt>
      <trkpt lat="47.12983" lon="-2.05633">
        <ele>56</ele>
        <time>2022-08-20T09:35:28Z</time>
      </trkpt>
      <trkpt lat="47.12978" lon="-2.05651">
        <ele>56</ele>
        <time>2022-08-20T09:35:30Z</time>
      </trkpt>
      <trkpt lat="47.12974" lon="-2.0567">
        <ele>56</ele>
        <time>2022-08-20T09:35:32Z</time>
      </trkpt>
      <trkpt lat="47.12971" lon="-2.05688">
        <ele>57</ele>
        <time>2022-08-20T09:35:34Z</time>
      </trkpt>
      <trkpt lat="47.12969" lon="-2.05707">
        <ele>57</ele>
        <time>2022-08-20T09:35:36Z</time>
      </trkpt>
      <trkpt lat="47.12966" lon="-2.05726">
        <ele>58</ele>
        <time>2022-08-20T09:35:38Z</time>
      </trkpt>
      <trkpt lat="47.12964" lon="-2.05744">
        <ele>58</ele>
        <time>2022-08-20T09:35:40Z</time>
      </trkpt>
      <trkpt lat="47.12962" lon="-2.05762">
        <ele>58</ele>
        <time>2022-08-20T09:35:42Z</time>
      </trkpt>
      <trkpt lat="47.12962" lon="-2.05781">
        <ele>58</ele>
        <time>2022-08-20T09:35:44Z</time>
      </trkpt>
      <trkpt lat="47.12961" lon="-2.05799">
        <ele>58</ele>
        <time>2022-08-20T09:35:46Z</time>
      </trkpt>
      <trkpt lat="47.1296" lon="-2.05817">
        <ele>58</ele>
        <time>2022-08-20T09:35:48Z</time>
      </trkpt>
      <trkpt lat="47.12959" lon="-2.05834">
        <ele>59</ele>
        <time>2022-08-20T09:35:50Z</time>
      </trkpt>
      <trkpt lat="47.12957" lon="-2.05852">
        <ele>60</ele>
        <time>2022-08-20T09:35:52Z</time>
      </trkpt>
      <trkpt lat="47.12955" lon="-2.05869">
        <ele>60</ele>
        <time>2022-08-20T09:35:54Z</time>
      </trkpt>
      <trkpt lat="47.12952" lon="-2.05887">
        <ele>60</ele>
        <time>2022-08-20T09:35:56Z</time>
      </trkpt>
      <trkpt lat="47.12948" lon="-2.05904">
        <ele>60</ele>
        <time>2022-08-20T09:35:58Z</time>
      </trkpt>
      <trkpt lat="47.12946" lon="-2.05919">
        <ele>61</ele>
        <time>2022-08-20T09:36:00Z</time>
      </trkpt>
      <trkpt lat="47.12943" lon="-2.05936">
        <ele>61</ele>
        <time>2022-08-20T09:36:02Z</time>
      </trkpt>
      <trkpt lat="47.12939" lon="-2.05953">
        <ele>61</ele>
        <time>2022-08-20T09:36:04Z</time>
      </trkpt>
      <trkpt lat="47.12934" lon="-2.0597">
        <ele>61</ele>
        <time>2022-08-20T09:36:06Z</time>
      </trkpt>
      <trkpt lat="47.12931" lon="-2.05989">
        <ele>61</ele>
        <time>2022-08-20T09:36:08Z</time>
      </trkpt>
      <trkpt lat="47.12926" lon="-2.06009">
        <ele>61</ele>
        <time>2022-08-20T09:36:10Z</time>
      </trkpt>
      <trkpt lat="47.1292" lon="-2.06033">
        <ele>60</ele>
        <time>2022-08-20T09:36:12Z</time>
      </trkpt>
      <trkpt lat="47.12917" lon="-2.06045">
        <ele>59</ele>
        <time>2022-08-20T09:36:13Z</time>
      </trkpt>
      <trkpt lat="47.12914" lon="-2.06058">
        <ele>59</ele>
        <time>2022-08-20T09:36:14Z</time>
      </trkpt>
      <trkpt lat="47.1291" lon="-2.06071">
        <ele>58</ele>
        <time>2022-08-20T09:36:15Z</time>
      </trkpt>
      <trkpt lat="47.12906" lon="-2.06083">
        <ele>58</ele>
        <time>2022-08-20T09:36:16Z</time>
      </trkpt>
      <trkpt lat="47.129" lon="-2.06095">
        <ele>57</ele>
        <time>2022-08-20T09:36:17Z</time>
      </trkpt>
      <trkpt lat="47.12894" lon="-2.06106">
        <ele>57</ele>
        <time>2022-08-20T09:36:18Z</time>
      </trkpt>
      <trkpt lat="47.12887" lon="-2.06116">
        <ele>56</ele>
        <time>2022-08-20T09:36:19Z</time>
      </trkpt>
      <trkpt lat="47.1288" lon="-2.06127">
        <ele>56</ele>
        <time>2022-08-20T09:36:20Z</time>
      </trkpt>
      <trkpt lat="47.12872" lon="-2.06137">
        <ele>55</ele>
        <time>2022-08-20T09:36:21Z</time>
      </trkpt>
      <trkpt lat="47.12865" lon="-2.06147">
        <ele>55</ele>
        <time>2022-08-20T09:36:22Z</time>
      </trkpt>
      <trkpt lat="47.12857" lon="-2.06158">
        <ele>54</ele>
        <time>2022-08-20T09:36:23Z</time>
      </trkpt>
      <trkpt lat="47.12849" lon="-2.06168">
        <ele>54</ele>
        <time>2022-08-20T09:36:24Z</time>
      </trkpt>
      <trkpt lat="47.12841" lon="-2.06176">
        <ele>54</ele>
        <time>2022-08-20T09:36:25Z</time>
      </trkpt>
      <trkpt lat="47.12833" lon="-2.06185">
        <ele>54</ele>
        <time>2022-08-20T09:36:26Z</time>
      </trkpt>
      <trkpt lat="47.12825" lon="-2.06194">
        <ele>54</ele>
        <time>2022-08-20T09:36:27Z</time>
      </trkpt>
      <trkpt lat="47.12817" lon="-2.06201">
        <ele>54</ele>
        <time>2022-08-20T09:36:28Z</time>
      </trkpt>
      <trkpt lat="47.12808" lon="-2.06208">
        <ele>54</ele>
        <time>2022-08-20T09:36:29Z</time>
      </trkpt>
      <trkpt lat="47.128" lon="-2.06215">
        <ele>54</ele>
        <time>2022-08-20T09:36:30Z</time>
      </trkpt>
      <trkpt lat="47.12791" lon="-2.06223">
        <ele>54</ele>
        <time>2022-08-20T09:36:31Z</time>
      </trkpt>
      <trkpt lat="47.12783" lon="-2.0623">
        <ele>54</ele>
        <time>2022-08-20T09:36:32Z</time>
      </trkpt>
      <trkpt lat="47.12774" lon="-2.06238">
        <ele>54</ele>
        <time>2022-08-20T09:36:33Z</time>
      </trkpt>
      <trkpt lat="47.12767" lon="-2.06247">
        <ele>54</ele>
        <time>2022-08-20T09:36:34Z</time>
      </trkpt>
      <trkpt lat="47.12759" lon="-2.06255">
        <ele>54</ele>
        <time>2022-08-20T09:36:35Z</time>
      </trkpt>
      <trkpt lat="47.12747" lon="-2.06273">
        <ele>55</ele>
        <time>2022-08-20T09:36:37Z</time>
      </trkpt>
      <trkpt lat="47.12737" lon="-2.06293">
        <ele>55</ele>
        <time>2022-08-20T09:36:39Z</time>
      </trkpt>
      <trkpt lat="47.12729" lon="-2.06317">
        <ele>54</ele>
        <time>2022-08-20T09:36:41Z</time>
      </trkpt>
      <trkpt lat="47.12725" lon="-2.06341">
        <ele>53</ele>
        <time>2022-08-20T09:36:43Z</time>
      </trkpt>
      <trkpt lat="47.12721" lon="-2.06363">
        <ele>54</ele>
        <time>2022-08-20T09:36:45Z</time>
      </trkpt>
      <trkpt lat="47.12718" lon="-2.06384">
        <ele>54</ele>
        <time>2022-08-20T09:36:47Z</time>
      </trkpt>
      <trkpt lat="47.12715" lon="-2.06406">
        <ele>54</ele>
        <time>2022-08-20T09:36:49Z</time>
      </trkpt>
      <trkpt lat="47.1271" lon="-2.06426">
        <ele>54</ele>
        <time>2022-08-20T09:36:51Z</time>
      </trkpt>
      <trkpt lat="47.12706" lon="-2.06445">
        <ele>55</ele>
        <time>2022-08-20T09:36:53Z</time>
      </trkpt>
      <trkpt lat="47.12701" lon="-2.06465">
        <ele>55</ele>
        <time>2022-08-20T09:36:55Z</time>
      </trkpt>
      <trkpt lat="47.12693" lon="-2.06483">
        <ele>56</ele>
        <time>2022-08-20T09:36:57Z</time>
      </trkpt>
      <trkpt lat="47.12684" lon="-2.06501">
        <ele>56</ele>
        <time>2022-08-20T09:36:59Z</time>
      </trkpt>
      <trkpt lat="47.12677" lon="-2.0652">
        <ele>56</ele>
        <time>2022-08-20T09:37:01Z</time>
      </trkpt>
      <trkpt lat="47.12671" lon="-2.0654">
        <ele>56</ele>
        <time>2022-08-20T09:37:03Z</time>
      </trkpt>
      <trkpt lat="47.12666" lon="-2.0656">
        <ele>56</ele>
        <time>2022-08-20T09:37:05Z</time>
      </trkpt>
      <trkpt lat="47.12661" lon="-2.0658">
        <ele>57</ele>
        <time>2022-08-20T09:37:07Z</time>
      </trkpt>
      <trkpt lat="47.12657" lon="-2.066">
        <ele>56</ele>
        <time>2022-08-20T09:37:09Z</time>
      </trkpt>
      <trkpt lat="47.12652" lon="-2.06619">
        <ele>56</ele>
        <time>2022-08-20T09:37:11Z</time>
      </trkpt>
      <trkpt lat="47.12649" lon="-2.06639">
        <ele>56</ele>
        <time>2022-08-20T09:37:13Z</time>
      </trkpt>
      <trkpt lat="47.12646" lon="-2.06658">
        <ele>57</ele>
        <time>2022-08-20T09:37:15Z</time>
      </trkpt>
      <trkpt lat="47.12643" lon="-2.06679">
        <ele>56</ele>
        <time>2022-08-20T09:37:17Z</time>
      </trkpt>
      <trkpt lat="47.12639" lon="-2.067">
        <ele>55</ele>
        <time>2022-08-20T09:37:19Z</time>
      </trkpt>
      <trkpt lat="47.12635" lon="-2.06722">
        <ele>55</ele>
        <time>2022-08-20T09:37:21Z</time>
      </trkpt>
      <trkpt lat="47.12631" lon="-2.06742">
        <ele>56</ele>
        <time>2022-08-20T09:37:23Z</time>
      </trkpt>
      <trkpt lat="47.12627" lon="-2.06762">
        <ele>57</ele>
        <time>2022-08-20T09:37:25Z</time>
      </trkpt>
      <trkpt lat="47.12626" lon="-2.0678">
        <ele>58</ele>
        <time>2022-08-20T09:37:27Z</time>
      </trkpt>
      <trkpt lat="47.12623" lon="-2.06798">
        <ele>59</ele>
        <time>2022-08-20T09:37:29Z</time>
      </trkpt>
      <trkpt lat="47.12619" lon="-2.06816">
        <ele>59</ele>
        <time>2022-08-20T09:37:31Z</time>
      </trkpt>
      <trkpt lat="47.12615" lon="-2.06835">
        <ele>60</ele>
        <time>2022-08-20T09:37:33Z</time>
      </trkpt>
      <trkpt lat="47.12612" lon="-2.06854">
        <ele>60</ele>
        <time>2022-08-20T09:37:35Z</time>
      </trkpt>
      <trkpt lat="47.12609" lon="-2.06874">
        <ele>61</ele>
        <time>2022-08-20T09:37:37Z</time>
      </trkpt>
      <trkpt lat="47.12606" lon="-2.06892">
        <ele>61</ele>
        <time>2022-08-20T09:37:39Z</time>
      </trkpt>
      <trkpt lat="47.12603" lon="-2.0691">
        <ele>62</ele>
        <time>2022-08-20T09:37:41Z</time>
      </trkpt>
      <trkpt lat="47.126" lon="-2.06929">
        <ele>62</ele>
        <time>2022-08-20T09:37:43Z</time>
      </trkpt>
      <trkpt lat="47.12597" lon="-2.06947">
        <ele>63</ele>
        <time>2022-08-20T09:37:45Z</time>
      </trkpt>
      <trkpt lat="47.12593" lon="-2.06966">
        <ele>63</ele>
        <time>2022-08-20T09:37:47Z</time>
      </trkpt>
      <trkpt lat="47.1259" lon="-2.06984">
        <ele>63</ele>
        <time>2022-08-20T09:37:49Z</time>
      </trkpt>
      <trkpt lat="47.12587" lon="-2.07003">
        <ele>63</ele>
        <time>2022-08-20T09:37:51Z</time>
      </trkpt>
      <trkpt lat="47.12584" lon="-2.07022">
        <ele>63</ele>
        <time>2022-08-20T09:37:53Z</time>
      </trkpt>
      <trkpt lat="47.12582" lon="-2.0704">
        <ele>63</ele>
        <time>2022-08-20T09:37:55Z</time>
      </trkpt>
      <trkpt lat="47.1258" lon="-2.07059">
        <ele>62</ele>
        <time>2022-08-20T09:37:57Z</time>
      </trkpt>
      <trkpt lat="47.12581" lon="-2.07078">
        <ele>63</ele>
        <time>2022-08-20T09:37:59Z</time>
      </trkpt>
      <trkpt lat="47.12582" lon="-2.07097">
        <ele>64</ele>
        <time>2022-08-20T09:38:01Z</time>
      </trkpt>
      <trkpt lat="47.12584" lon="-2.07114">
        <ele>64</ele>
        <time>2022-08-20T09:38:03Z</time>
      </trkpt>
      <trkpt lat="47.12586" lon="-2.07132">
        <ele>65</ele>
        <time>2022-08-20T09:38:05Z</time>
      </trkpt>
      <trkpt lat="47.1259" lon="-2.0715">
        <ele>66</ele>
        <time>2022-08-20T09:38:07Z</time>
      </trkpt>
      <trkpt lat="47.12595" lon="-2.07166">
        <ele>66</ele>
        <time>2022-08-20T09:38:09Z</time>
      </trkpt>
      <trkpt lat="47.12599" lon="-2.07184">
        <ele>66</ele>
        <time>2022-08-20T09:38:11Z</time>
      </trkpt>
      <trkpt lat="47.12603" lon="-2.07203">
        <ele>66</ele>
        <time>2022-08-20T09:38:13Z</time>
      </trkpt>
      <trkpt lat="47.12607" lon="-2.07222">
        <ele>66</ele>
        <time>2022-08-20T09:38:15Z</time>
      </trkpt>
      <trkpt lat="47.12611" lon="-2.0724">
        <ele>66</ele>
        <time>2022-08-20T09:38:17Z</time>
      </trkpt>
      <trkpt lat="47.12614" lon="-2.07258">
        <ele>66</ele>
        <time>2022-08-20T09:38:19Z</time>
      </trkpt>
      <trkpt lat="47.12618" lon="-2.07277">
        <ele>66</ele>
        <time>2022-08-20T09:38:21Z</time>
      </trkpt>
      <trkpt lat="47.12621" lon="-2.07295">
        <ele>66</ele>
        <time>2022-08-20T09:38:23Z</time>
      </trkpt>
      <trkpt lat="47.12624" lon="-2.07314">
        <ele>67</ele>
        <time>2022-08-20T09:38:25Z</time>
      </trkpt>
      <trkpt lat="47.12627" lon="-2.07333">
        <ele>67</ele>
        <time>2022-08-20T09:38:27Z</time>
      </trkpt>
      <trkpt lat="47.12628" lon="-2.07353">
        <ele>67</ele>
        <time>2022-08-20T09:38:29Z</time>
      </trkpt>
      <trkpt lat="47.12628" lon="-2.07373">
        <ele>67</ele>
        <time>2022-08-20T09:38:31Z</time>
      </trkpt>
      <trkpt lat="47.12627" lon="-2.07393">
        <ele>67</ele>
        <time>2022-08-20T09:38:33Z</time>
      </trkpt>
      <trkpt lat="47.12625" lon="-2.07413">
        <ele>66</ele>
        <time>2022-08-20T09:38:35Z</time>
      </trkpt>
      <trkpt lat="47.12625" lon="-2.07432">
        <ele>66</ele>
        <time>2022-08-20T09:38:37Z</time>
      </trkpt>
      <trkpt lat="47.12623" lon="-2.07451">
        <ele>66</ele>
        <time>2022-08-20T09:38:39Z</time>
      </trkpt>
      <trkpt lat="47.12622" lon="-2.0747">
        <ele>66</ele>
        <time>2022-08-20T09:38:41Z</time>
      </trkpt>
      <trkpt lat="47.12623" lon="-2.07489">
        <ele>65</ele>
        <time>2022-08-20T09:38:43Z</time>
      </trkpt>
      <trkpt lat="47.12621" lon="-2.07508">
        <ele>65</ele>
        <time>2022-08-20T09:38:45Z</time>
      </trkpt>
      <trkpt lat="47.1262" lon="-2.07527">
        <ele>65</ele>
        <time>2022-08-20T09:38:47Z</time>
      </trkpt>
      <trkpt lat="47.12619" lon="-2.07548">
        <ele>65</ele>
        <time>2022-08-20T09:38:49Z</time>
      </trkpt>
      <trkpt lat="47.12617" lon="-2.07567">
        <ele>64</ele>
        <time>2022-08-20T09:38:51Z</time>
      </trkpt>
      <trkpt lat="47.12615" lon="-2.07588">
        <ele>63</ele>
        <time>2022-08-20T09:38:53Z</time>
      </trkpt>
      <trkpt lat="47.12612" lon="-2.07609">
        <ele>63</ele>
        <time>2022-08-20T09:38:55Z</time>
      </trkpt>
      <trkpt lat="47.12609" lon="-2.07631">
        <ele>63</ele>
        <time>2022-08-20T09:38:57Z</time>
      </trkpt>
      <trkpt lat="47.12604" lon="-2.07653">
        <ele>62</ele>
        <time>2022-08-20T09:38:59Z</time>
      </trkpt>
      <trkpt lat="47.126" lon="-2.07677">
        <ele>60</ele>
        <time>2022-08-20T09:39:01Z</time>
      </trkpt>
      <trkpt lat="47.12596" lon="-2.07701">
        <ele>60</ele>
        <time>2022-08-20T09:39:03Z</time>
      </trkpt>
      <trkpt lat="47.1259" lon="-2.07727">
        <ele>58</ele>
        <time>2022-08-20T09:39:05Z</time>
      </trkpt>
      <trkpt lat="47.12587" lon="-2.0774">
        <ele>58</ele>
        <time>2022-08-20T09:39:06Z</time>
      </trkpt>
      <trkpt lat="47.12582" lon="-2.07765">
        <ele>58</ele>
        <time>2022-08-20T09:39:08Z</time>
      </trkpt>
      <trkpt lat="47.12579" lon="-2.0779">
        <ele>58</ele>
        <time>2022-08-20T09:39:10Z</time>
      </trkpt>
      <trkpt lat="47.12574" lon="-2.07812">
        <ele>58</ele>
        <time>2022-08-20T09:39:12Z</time>
      </trkpt>
      <trkpt lat="47.12571" lon="-2.07832">
        <ele>59</ele>
        <time>2022-08-20T09:39:14Z</time>
      </trkpt>
      <trkpt lat="47.12567" lon="-2.07851">
        <ele>59</ele>
        <time>2022-08-20T09:39:16Z</time>
      </trkpt>
      <trkpt lat="47.12564" lon="-2.07869">
        <ele>59</ele>
        <time>2022-08-20T09:39:18Z</time>
      </trkpt>
      <trkpt lat="47.1256" lon="-2.07889">
        <ele>60</ele>
        <time>2022-08-20T09:39:20Z</time>
      </trkpt>
      <trkpt lat="47.12557" lon="-2.07907">
        <ele>61</ele>
        <time>2022-08-20T09:39:22Z</time>
      </trkpt>
      <trkpt lat="47.12554" lon="-2.07925">
        <ele>63</ele>
        <time>2022-08-20T09:39:24Z</time>
      </trkpt>
      <trkpt lat="47.1255" lon="-2.07945">
        <ele>63</ele>
        <time>2022-08-20T09:39:26Z</time>
      </trkpt>
      <trkpt lat="47.12546" lon="-2.07964">
        <ele>64</ele>
        <time>2022-08-20T09:39:28Z</time>
      </trkpt>
      <trkpt lat="47.12541" lon="-2.07982">
        <ele>64</ele>
        <time>2022-08-20T09:39:30Z</time>
      </trkpt>
      <trkpt lat="47.12536" lon="-2.08001">
        <ele>65</ele>
        <time>2022-08-20T09:39:32Z</time>
      </trkpt>
      <trkpt lat="47.1253" lon="-2.08021">
        <ele>65</ele>
        <time>2022-08-20T09:39:34Z</time>
      </trkpt>
      <trkpt lat="47.12524" lon="-2.08038">
        <ele>65</ele>
        <time>2022-08-20T09:39:36Z</time>
      </trkpt>
      <trkpt lat="47.12518" lon="-2.08056">
        <ele>65</ele>
        <time>2022-08-20T09:39:38Z</time>
      </trkpt>
      <trkpt lat="47.12512" lon="-2.08073">
        <ele>65</ele>
        <time>2022-08-20T09:39:40Z</time>
      </trkpt>
      <trkpt lat="47.12506" lon="-2.08091">
        <ele>65</ele>
        <time>2022-08-20T09:39:42Z</time>
      </trkpt>
      <trkpt lat="47.12499" lon="-2.08108">
        <ele>66</ele>
        <time>2022-08-20T09:39:44Z</time>
      </trkpt>
      <trkpt lat="47.12492" lon="-2.08124">
        <ele>66</ele>
        <time>2022-08-20T09:39:46Z</time>
      </trkpt>
      <trkpt lat="47.12486" lon="-2.0814">
        <ele>66</ele>
        <time>2022-08-20T09:39:48Z</time>
      </trkpt>
      <trkpt lat="47.12478" lon="-2.08156">
        <ele>66</ele>
        <time>2022-08-20T09:39:50Z</time>
      </trkpt>
      <trkpt lat="47.12471" lon="-2.08171">
        <ele>66</ele>
        <time>2022-08-20T09:39:52Z</time>
      </trkpt>
      <trkpt lat="47.12464" lon="-2.08186">
        <ele>66</ele>
        <time>2022-08-20T09:39:54Z</time>
      </trkpt>
      <trkpt lat="47.12456" lon="-2.082">
        <ele>66</ele>
        <time>2022-08-20T09:39:56Z</time>
      </trkpt>
      <trkpt lat="47.12448" lon="-2.08212">
        <ele>67</ele>
        <time>2022-08-20T09:39:58Z</time>
      </trkpt>
      <trkpt lat="47.12438" lon="-2.08223">
        <ele>67</ele>
        <time>2022-08-20T09:40:00Z</time>
      </trkpt>
      <trkpt lat="47.12427" lon="-2.08234">
        <ele>68</ele>
        <time>2022-08-20T09:40:02Z</time>
      </trkpt>
      <trkpt lat="47.12417" lon="-2.08243">
        <ele>68</ele>
        <time>2022-08-20T09:40:04Z</time>
      </trkpt>
      <trkpt lat="47.12405" lon="-2.08251">
        <ele>69</ele>
        <time>2022-08-20T09:40:06Z</time>
      </trkpt>
      <trkpt lat="47.12393" lon="-2.08259">
        <ele>69</ele>
        <time>2022-08-20T09:40:08Z</time>
      </trkpt>
      <trkpt lat="47.12381" lon="-2.08266">
        <ele>70</ele>
        <time>2022-08-20T09:40:10Z</time>
      </trkpt>
      <trkpt lat="47.12369" lon="-2.08273">
        <ele>70</ele>
        <time>2022-08-20T09:40:12Z</time>
      </trkpt>
      <trkpt lat="47.12358" lon="-2.08281">
        <ele>70</ele>
        <time>2022-08-20T09:40:14Z</time>
      </trkpt>
      <trkpt lat="47.12346" lon="-2.08288">
        <ele>70</ele>
        <time>2022-08-20T09:40:16Z</time>
      </trkpt>
      <trkpt lat="47.12334" lon="-2.08295">
        <ele>70</ele>
        <time>2022-08-20T09:40:18Z</time>
      </trkpt>
      <trkpt lat="47.12323" lon="-2.08303">
        <ele>70</ele>
        <time>2022-08-20T09:40:20Z</time>
      </trkpt>
      <trkpt lat="47.12312" lon="-2.0831">
        <ele>70</ele>
        <time>2022-08-20T09:40:22Z</time>
      </trkpt>
      <trkpt lat="47.12301" lon="-2.08318">
        <ele>71</ele>
        <time>2022-08-20T09:40:24Z</time>
      </trkpt>
      <trkpt lat="47.1229" lon="-2.08326">
        <ele>71</ele>
        <time>2022-08-20T09:40:26Z</time>
      </trkpt>
      <trkpt lat="47.1228" lon="-2.08333">
        <ele>71</ele>
        <time>2022-08-20T09:40:28Z</time>
      </trkpt>
      <trkpt lat="47.12269" lon="-2.08341">
        <ele>71</ele>
        <time>2022-08-20T09:40:30Z</time>
      </trkpt>
      <trkpt lat="47.12259" lon="-2.08349">
        <ele>72</ele>
        <time>2022-08-20T09:40:32Z</time>
      </trkpt>
      <trkpt lat="47.12248" lon="-2.08358">
        <ele>71</ele>
        <time>2022-08-20T09:40:34Z</time>
      </trkpt>
      <trkpt lat="47.12236" lon="-2.08367">
        <ele>71</ele>
        <time>2022-08-20T09:40:36Z</time>
      </trkpt>
      <trkpt lat="47.12225" lon="-2.08377">
        <ele>71</ele>
        <time>2022-08-20T09:40:38Z</time>
      </trkpt>
      <trkpt lat="47.12214" lon="-2.08389">
        <ele>71</ele>
        <time>2022-08-20T09:40:40Z</time>
      </trkpt>
      <trkpt lat="47.12205" lon="-2.08402">
        <ele>71</ele>
        <time>2022-08-20T09:40:42Z</time>
      </trkpt>
      <trkpt lat="47.12199" lon="-2.08419">
        <ele>71</ele>
        <time>2022-08-20T09:40:44Z</time>
      </trkpt>
      <trkpt lat="47.12194" lon="-2.08436">
        <ele>70</ele>
        <time>2022-08-20T09:40:46Z</time>
      </trkpt>
      <trkpt lat="47.12192" lon="-2.08453">
        <ele>71</ele>
        <time>2022-08-20T09:40:48Z</time>
      </trkpt>
      <trkpt lat="47.12189" lon="-2.08471">
        <ele>71</ele>
        <time>2022-08-20T09:40:50Z</time>
      </trkpt>
      <trkpt lat="47.12183" lon="-2.08485">
        <ele>71</ele>
        <time>2022-08-20T09:40:52Z</time>
      </trkpt>
      <trkpt lat="47.12174" lon="-2.085">
        <ele>71</ele>
        <time>2022-08-20T09:40:54Z</time>
      </trkpt>
      <trkpt lat="47.12165" lon="-2.08512">
        <ele>71</ele>
        <time>2022-08-20T09:40:56Z</time>
      </trkpt>
      <trkpt lat="47.12153" lon="-2.08519">
        <ele>71</ele>
        <time>2022-08-20T09:40:58Z</time>
      </trkpt>
      <trkpt lat="47.1214" lon="-2.08526">
        <ele>70</ele>
        <time>2022-08-20T09:41:00Z</time>
      </trkpt>
      <trkpt lat="47.1213" lon="-2.08541">
        <ele>69</ele>
        <time>2022-08-20T09:41:02Z</time>
      </trkpt>
      <trkpt lat="47.12121" lon="-2.08556">
        <ele>69</ele>
        <time>2022-08-20T09:41:04Z</time>
      </trkpt>
      <trkpt lat="47.12113" lon="-2.0857">
        <ele>70</ele>
        <time>2022-08-20T09:41:06Z</time>
      </trkpt>
      <trkpt lat="47.12105" lon="-2.08586">
        <ele>70</ele>
        <time>2022-08-20T09:41:08Z</time>
      </trkpt>
      <trkpt lat="47.12098" lon="-2.08601">
        <ele>70</ele>
        <time>2022-08-20T09:41:10Z</time>
      </trkpt>
      <trkpt lat="47.12092" lon="-2.08618">
        <ele>71</ele>
        <time>2022-08-20T09:41:12Z</time>
      </trkpt>
      <trkpt lat="47.12086" lon="-2.08634">
        <ele>71</ele>
        <time>2022-08-20T09:41:14Z</time>
      </trkpt>
      <trkpt lat="47.1208" lon="-2.0865">
        <ele>72</ele>
        <time>2022-08-20T09:41:16Z</time>
      </trkpt>
      <trkpt lat="47.12074" lon="-2.08667">
        <ele>71</ele>
        <time>2022-08-20T09:41:18Z</time>
      </trkpt>
      <trkpt lat="47.12072" lon="-2.08685">
        <ele>72</ele>
        <time>2022-08-20T09:41:20Z</time>
      </trkpt>
      <trkpt lat="47.1207" lon="-2.08702">
        <ele>72</ele>
        <time>2022-08-20T09:41:22Z</time>
      </trkpt>
      <trkpt lat="47.12069" lon="-2.08719">
        <ele>72</ele>
        <time>2022-08-20T09:41:24Z</time>
      </trkpt>
      <trkpt lat="47.12068" lon="-2.08737">
        <ele>73</ele>
        <time>2022-08-20T09:41:26Z</time>
      </trkpt>
      <trkpt lat="47.12068" lon="-2.08754">
        <ele>73</ele>
        <time>2022-08-20T09:41:28Z</time>
      </trkpt>
      <trkpt lat="47.12069" lon="-2.08773">
        <ele>73</ele>
        <time>2022-08-20T09:41:30Z</time>
      </trkpt>
      <trkpt lat="47.12069" lon="-2.08792">
        <ele>73</ele>
        <time>2022-08-20T09:41:32Z</time>
      </trkpt>
      <trkpt lat="47.12068" lon="-2.08813">
        <ele>72</ele>
        <time>2022-08-20T09:41:34Z</time>
      </trkpt>
      <trkpt lat="47.12063" lon="-2.08836">
        <ele>70</ele>
        <time>2022-08-20T09:41:36Z</time>
      </trkpt>
      <trkpt lat="47.12056" lon="-2.08855">
        <ele>67</ele>
        <time>2022-08-20T09:41:38Z</time>
      </trkpt>
      <trkpt lat="47.1205" lon="-2.08867">
        <ele>66</ele>
        <time>2022-08-20T09:41:40Z</time>
      </trkpt>
      <trkpt lat="47.12045" lon="-2.08882">
        <ele>66</ele>
        <time>2022-08-20T09:41:42Z</time>
      </trkpt>
      <trkpt lat="47.12032" lon="-2.08895">
        <ele>65</ele>
        <time>2022-08-20T09:41:44Z</time>
      </trkpt>
      <trkpt lat="47.12018" lon="-2.08909">
        <ele>65</ele>
        <time>2022-08-20T09:41:46Z</time>
      </trkpt>
      <trkpt lat="47.12006" lon="-2.08928">
        <ele>63</ele>
        <time>2022-08-20T09:41:48Z</time>
      </trkpt>
      <trkpt lat="47.11993" lon="-2.08946">
        <ele>62</ele>
        <time>2022-08-20T09:41:50Z</time>
      </trkpt>
      <trkpt lat="47.11986" lon="-2.08956">
        <ele>61</ele>
        <time>2022-08-20T09:41:51Z</time>
      </trkpt>
      <trkpt lat="47.1198" lon="-2.08967">
        <ele>60</ele>
        <time>2022-08-20T09:41:52Z</time>
      </trkpt>
      <trkpt lat="47.11974" lon="-2.08979">
        <ele>58</ele>
        <time>2022-08-20T09:41:53Z</time>
      </trkpt>
      <trkpt lat="47.11969" lon="-2.08993">
        <ele>57</ele>
        <time>2022-08-20T09:41:54Z</time>
      </trkpt>
      <trkpt lat="47.11963" lon="-2.09005">
        <ele>56</ele>
        <time>2022-08-20T09:41:55Z</time>
      </trkpt>
      <trkpt lat="47.11955" lon="-2.09027">
        <ele>55</ele>
        <time>2022-08-20T09:41:57Z</time>
      </trkpt>
      <trkpt lat="47.11948" lon="-2.09044">
        <ele>55</ele>
        <time>2022-08-20T09:41:59Z</time>
      </trkpt>
      <trkpt lat="47.11939" lon="-2.09049">
        <ele>55</ele>
        <time>2022-08-20T09:42:02Z</time>
      </trkpt>
      <trkpt lat="47.11928" lon="-2.09043">
        <ele>55</ele>
        <time>2022-08-20T09:42:06Z</time>
      </trkpt>
      <trkpt lat="47.11924" lon="-2.0906">
        <ele>55</ele>
        <time>2022-08-20T09:42:10Z</time>
      </trkpt>
      <trkpt lat="47.11919" lon="-2.09079">
        <ele>54</ele>
        <time>2022-08-20T09:42:13Z</time>
      </trkpt>
      <trkpt lat="47.11914" lon="-2.09093">
        <ele>54</ele>
        <time>2022-08-20T09:42:15Z</time>
      </trkpt>
      <trkpt lat="47.11909" lon="-2.09107">
        <ele>54</ele>
        <time>2022-08-20T09:42:17Z</time>
      </trkpt>
      <trkpt lat="47.11902" lon="-2.09142">
        <ele>51</ele>
        <time>2022-08-20T09:42:22Z</time>
      </trkpt>
      <trkpt lat="47.11897" lon="-2.09155">
        <ele>55</ele>
        <time>2022-08-20T09:42:25Z</time>
      </trkpt>
      <trkpt lat="47.11897" lon="-2.09169">
        <ele>56</ele>
        <time>2022-08-20T09:42:28Z</time>
      </trkpt>
      <trkpt lat="47.11895" lon="-2.09183">
        <ele>59</ele>
        <time>2022-08-20T09:42:32Z</time>
      </trkpt>
      <trkpt lat="47.11898" lon="-2.09197">
        <ele>62</ele>
        <time>2022-08-20T09:42:36Z</time>
      </trkpt>
      <trkpt lat="47.11902" lon="-2.09211">
        <ele>64</ele>
        <time>2022-08-20T09:42:40Z</time>
      </trkpt>
      <trkpt lat="47.11898" lon="-2.09229">
        <ele>65</ele>
        <time>2022-08-20T09:42:43Z</time>
      </trkpt>
      <trkpt lat="47.11893" lon="-2.09249">
        <ele>66</ele>
        <time>2022-08-20T09:42:47Z</time>
      </trkpt>
      <trkpt lat="47.11892" lon="-2.09265">
        <ele>67</ele>
        <time>2022-08-20T09:42:50Z</time>
      </trkpt>
      <trkpt lat="47.1189" lon="-2.09282">
        <ele>66</ele>
        <time>2022-08-20T09:42:53Z</time>
      </trkpt>
      <trkpt lat="47.11887" lon="-2.09299">
        <ele>66</ele>
        <time>2022-08-20T09:42:56Z</time>
      </trkpt>
      <trkpt lat="47.11883" lon="-2.09317">
        <ele>65</ele>
        <time>2022-08-20T09:42:59Z</time>
      </trkpt>
      <trkpt lat="47.1188" lon="-2.09334">
        <ele>65</ele>
        <time>2022-08-20T09:43:02Z</time>
      </trkpt>
      <trkpt lat="47.1187" lon="-2.0934">
        <ele>64</ele>
        <time>2022-08-20T09:43:05Z</time>
      </trkpt>
      <trkpt lat="47.11862" lon="-2.09333">
        <ele>64</ele>
        <time>2022-08-20T09:43:07Z</time>
      </trkpt>
      <trkpt lat="47.11853" lon="-2.09327">
        <ele>64</ele>
        <time>2022-08-20T09:43:09Z</time>
      </trkpt>
      <trkpt lat="47.11843" lon="-2.09321">
        <ele>64</ele>
        <time>2022-08-20T09:43:11Z</time>
      </trkpt>
      <trkpt lat="47.11833" lon="-2.09315">
        <ele>65</ele>
        <time>2022-08-20T09:43:13Z</time>
      </trkpt>
      <trkpt lat="47.11822" lon="-2.09309">
        <ele>65</ele>
        <time>2022-08-20T09:43:15Z</time>
      </trkpt>
      <trkpt lat="47.11811" lon="-2.09303">
        <ele>65</ele>
        <time>2022-08-20T09:43:17Z</time>
      </trkpt>
      <trkpt lat="47.118" lon="-2.09295">
        <ele>64</ele>
        <time>2022-08-20T09:43:19Z</time>
      </trkpt>
      <trkpt lat="47.11788" lon="-2.09287">
        <ele>63</ele>
        <time>2022-08-20T09:43:21Z</time>
      </trkpt>
      <trkpt lat="47.11777" lon="-2.09281">
        <ele>62</ele>
        <time>2022-08-20T09:43:23Z</time>
      </trkpt>
      <trkpt lat="47.11766" lon="-2.09274">
        <ele>62</ele>
        <time>2022-08-20T09:43:25Z</time>
      </trkpt>
      <trkpt lat="47.11755" lon="-2.09268">
        <ele>61</ele>
        <time>2022-08-20T09:43:27Z</time>
      </trkpt>
      <trkpt lat="47.11743" lon="-2.09262">
        <ele>60</ele>
        <time>2022-08-20T09:43:29Z</time>
      </trkpt>
      <trkpt lat="47.1173" lon="-2.09257">
        <ele>60</ele>
        <time>2022-08-20T09:43:31Z</time>
      </trkpt>
      <trkpt lat="47.11717" lon="-2.09255">
        <ele>59</ele>
        <time>2022-08-20T09:43:33Z</time>
      </trkpt>
      <trkpt lat="47.11704" lon="-2.09253">
        <ele>59</ele>
        <time>2022-08-20T09:43:35Z</time>
      </trkpt>
      <trkpt lat="47.11691" lon="-2.09251">
        <ele>58</ele>
        <time>2022-08-20T09:43:37Z</time>
      </trkpt>
      <trkpt lat="47.11677" lon="-2.09249">
        <ele>57</ele>
        <time>2022-08-20T09:43:39Z</time>
      </trkpt>
      <trkpt lat="47.11664" lon="-2.09249">
        <ele>57</ele>
        <time>2022-08-20T09:43:41Z</time>
      </trkpt>
      <trkpt lat="47.11651" lon="-2.0925">
        <ele>57</ele>
        <time>2022-08-20T09:43:43Z</time>
      </trkpt>
      <trkpt lat="47.11638" lon="-2.0925">
        <ele>57</ele>
        <time>2022-08-20T09:43:45Z</time>
      </trkpt>
      <trkpt lat="47.11625" lon="-2.09255">
        <ele>57</ele>
        <time>2022-08-20T09:43:47Z</time>
      </trkpt>
      <trkpt lat="47.11613" lon="-2.09263">
        <ele>57</ele>
        <time>2022-08-20T09:43:49Z</time>
      </trkpt>
      <trkpt lat="47.11602" lon="-2.0927">
        <ele>57</ele>
        <time>2022-08-20T09:43:51Z</time>
      </trkpt>
      <trkpt lat="47.1159" lon="-2.09277">
        <ele>56</ele>
        <time>2022-08-20T09:43:53Z</time>
      </trkpt>
      <trkpt lat="47.11579" lon="-2.09282">
        <ele>55</ele>
        <time>2022-08-20T09:43:55Z</time>
      </trkpt>
      <trkpt lat="47.11569" lon="-2.09289">
        <ele>54</ele>
        <time>2022-08-20T09:43:57Z</time>
      </trkpt>
      <trkpt lat="47.11559" lon="-2.09297">
        <ele>54</ele>
        <time>2022-08-20T09:43:59Z</time>
      </trkpt>
      <trkpt lat="47.1155" lon="-2.09304">
        <ele>53</ele>
        <time>2022-08-20T09:44:01Z</time>
      </trkpt>
      <trkpt lat="47.1154" lon="-2.09313">
        <ele>53</ele>
        <time>2022-08-20T09:44:03Z</time>
      </trkpt>
      <trkpt lat="47.11532" lon="-2.09321">
        <ele>53</ele>
        <time>2022-08-20T09:44:05Z</time>
      </trkpt>
      <trkpt lat="47.11524" lon="-2.09327">
        <ele>53</ele>
        <time>2022-08-20T09:44:07Z</time>
      </trkpt>
      <trkpt lat="47.11512" lon="-2.09337">
        <ele>53</ele>
        <time>2022-08-20T09:44:10Z</time>
      </trkpt>
      <trkpt lat="47.11504" lon="-2.09344">
        <ele>53</ele>
        <time>2022-08-20T09:44:12Z</time>
      </trkpt>
      <trkpt lat="47.11498" lon="-2.09354">
        <ele>53</ele>
        <time>2022-08-20T09:44:14Z</time>
      </trkpt>
      <trkpt lat="47.11496" lon="-2.09369">
        <ele>52</ele>
        <time>2022-08-20T09:44:16Z</time>
      </trkpt>
      <trkpt lat="47.11493" lon="-2.09384">
        <ele>52</ele>
        <time>2022-08-20T09:44:18Z</time>
      </trkpt>
      <trkpt lat="47.11486" lon="-2.09395">
        <ele>51</ele>
        <time>2022-08-20T09:44:20Z</time>
      </trkpt>
      <trkpt lat="47.11478" lon="-2.09406">
        <ele>51</ele>
        <time>2022-08-20T09:44:22Z</time>
      </trkpt>
      <trkpt lat="47.11477" lon="-2.0942">
        <ele>51</ele>
        <time>2022-08-20T09:44:24Z</time>
      </trkpt>
      <trkpt lat="47.11479" lon="-2.09434">
        <ele>51</ele>
        <time>2022-08-20T09:44:26Z</time>
      </trkpt>
      <trkpt lat="47.11483" lon="-2.09447">
        <ele>51</ele>
        <time>2022-08-20T09:44:28Z</time>
      </trkpt>
      <trkpt lat="47.11487" lon="-2.09462">
        <ele>52</ele>
        <time>2022-08-20T09:44:30Z</time>
      </trkpt>
      <trkpt lat="47.11487" lon="-2.09477">
        <ele>52</ele>
        <time>2022-08-20T09:44:32Z</time>
      </trkpt>
      <trkpt lat="47.11485" lon="-2.09493">
        <ele>52</ele>
        <time>2022-08-20T09:44:34Z</time>
      </trkpt>
      <trkpt lat="47.11484" lon="-2.0951">
        <ele>53</ele>
        <time>2022-08-20T09:44:36Z</time>
      </trkpt>
      <trkpt lat="47.11484" lon="-2.09526">
        <ele>53</ele>
        <time>2022-08-20T09:44:38Z</time>
      </trkpt>
      <trkpt lat="47.11483" lon="-2.09542">
        <ele>53</ele>
        <time>2022-08-20T09:44:40Z</time>
      </trkpt>
      <trkpt lat="47.11484" lon="-2.09559">
        <ele>54</ele>
        <time>2022-08-20T09:44:42Z</time>
      </trkpt>
      <trkpt lat="47.11484" lon="-2.09575">
        <ele>54</ele>
        <time>2022-08-20T09:44:44Z</time>
      </trkpt>
      <trkpt lat="47.11484" lon="-2.09591">
        <ele>54</ele>
        <time>2022-08-20T09:44:46Z</time>
      </trkpt>
      <trkpt lat="47.11484" lon="-2.09607">
        <ele>53</ele>
        <time>2022-08-20T09:44:48Z</time>
      </trkpt>
      <trkpt lat="47.11485" lon="-2.09623">
        <ele>53</ele>
        <time>2022-08-20T09:44:50Z</time>
      </trkpt>
      <trkpt lat="47.11484" lon="-2.09639">
        <ele>53</ele>
        <time>2022-08-20T09:44:52Z</time>
      </trkpt>
      <trkpt lat="47.11484" lon="-2.09654">
        <ele>54</ele>
        <time>2022-08-20T09:44:54Z</time>
      </trkpt>
      <trkpt lat="47.11484" lon="-2.0967">
        <ele>54</ele>
        <time>2022-08-20T09:44:56Z</time>
      </trkpt>
      <trkpt lat="47.11483" lon="-2.09686">
        <ele>54</ele>
        <time>2022-08-20T09:44:58Z</time>
      </trkpt>
      <trkpt lat="47.11483" lon="-2.09703">
        <ele>54</ele>
        <time>2022-08-20T09:45:00Z</time>
      </trkpt>
      <trkpt lat="47.11482" lon="-2.09718">
        <ele>54</ele>
        <time>2022-08-20T09:45:02Z</time>
      </trkpt>
      <trkpt lat="47.1148" lon="-2.09732">
        <ele>54</ele>
        <time>2022-08-20T09:45:04Z</time>
      </trkpt>
      <trkpt lat="47.11478" lon="-2.09745">
        <ele>54</ele>
        <time>2022-08-20T09:45:06Z</time>
      </trkpt>
      <trkpt lat="47.11478" lon="-2.09759">
        <ele>53</ele>
        <time>2022-08-20T09:45:08Z</time>
      </trkpt>
      <trkpt lat="47.11477" lon="-2.09773">
        <ele>53</ele>
        <time>2022-08-20T09:45:10Z</time>
      </trkpt>
      <trkpt lat="47.11477" lon="-2.09787">
        <ele>53</ele>
        <time>2022-08-20T09:45:12Z</time>
      </trkpt>
      <trkpt lat="47.11476" lon="-2.09801">
        <ele>53</ele>
        <time>2022-08-20T09:45:14Z</time>
      </trkpt>
      <trkpt lat="47.11473" lon="-2.09818">
        <ele>53</ele>
        <time>2022-08-20T09:45:17Z</time>
      </trkpt>
      <trkpt lat="47.11469" lon="-2.09832">
        <ele>53</ele>
        <time>2022-08-20T09:45:20Z</time>
      </trkpt>
      <trkpt lat="47.11466" lon="-2.09844">
        <ele>53</ele>
        <time>2022-08-20T09:45:26Z</time>
      </trkpt>
      <trkpt lat="47.11459" lon="-2.09863">
        <ele>53</ele>
        <time>2022-08-20T09:45:30Z</time>
      </trkpt>
      <trkpt lat="47.11452" lon="-2.09881">
        <ele>52</ele>
        <time>2022-08-20T09:45:32Z</time>
      </trkpt>
      <trkpt lat="47.11448" lon="-2.09902">
        <ele>52</ele>
        <time>2022-08-20T09:45:34Z</time>
      </trkpt>
      <trkpt lat="47.11443" lon="-2.09922">
        <ele>52</ele>
        <time>2022-08-20T09:45:36Z</time>
      </trkpt>
      <trkpt lat="47.11439" lon="-2.09942">
        <ele>51</ele>
        <time>2022-08-20T09:45:38Z</time>
      </trkpt>
      <trkpt lat="47.11435" lon="-2.09961">
        <ele>51</ele>
        <time>2022-08-20T09:45:40Z</time>
      </trkpt>
      <trkpt lat="47.11431" lon="-2.0998">
        <ele>51</ele>
        <time>2022-08-20T09:45:42Z</time>
      </trkpt>
      <trkpt lat="47.11427" lon="-2.09993">
        <ele>50</ele>
        <time>2022-08-20T09:45:44Z</time>
      </trkpt>
      <trkpt lat="47.11426" lon="-2.10007">
        <ele>50</ele>
        <time>2022-08-20T09:45:46Z</time>
      </trkpt>
      <trkpt lat="47.11424" lon="-2.10023">
        <ele>50</ele>
        <time>2022-08-20T09:45:48Z</time>
      </trkpt>
      <trkpt lat="47.11423" lon="-2.1004">
        <ele>51</ele>
        <time>2022-08-20T09:45:50Z</time>
      </trkpt>
      <trkpt lat="47.11422" lon="-2.10056">
        <ele>51</ele>
        <time>2022-08-20T09:45:52Z</time>
      </trkpt>
      <trkpt lat="47.11422" lon="-2.10071">
        <ele>51</ele>
        <time>2022-08-20T09:45:54Z</time>
      </trkpt>
      <trkpt lat="47.11422" lon="-2.10087">
        <ele>51</ele>
        <time>2022-08-20T09:45:57Z</time>
      </trkpt>
      <trkpt lat="47.11421" lon="-2.10105">
        <ele>52</ele>
        <time>2022-08-20T09:46:00Z</time>
      </trkpt>
      <trkpt lat="47.1142" lon="-2.10121">
        <ele>52</ele>
        <time>2022-08-20T09:46:02Z</time>
      </trkpt>
      <trkpt lat="47.11416" lon="-2.10139">
        <ele>52</ele>
        <time>2022-08-20T09:46:04Z</time>
      </trkpt>
      <trkpt lat="47.11412" lon="-2.10158">
        <ele>52</ele>
        <time>2022-08-20T09:46:06Z</time>
      </trkpt>
      <trkpt lat="47.11408" lon="-2.10177">
        <ele>52</ele>
        <time>2022-08-20T09:46:08Z</time>
      </trkpt>
      <trkpt lat="47.11404" lon="-2.10196">
        <ele>51</ele>
        <time>2022-08-20T09:46:10Z</time>
      </trkpt>
      <trkpt lat="47.11401" lon="-2.10211">
        <ele>51</ele>
        <time>2022-08-20T09:46:12Z</time>
      </trkpt>
      <trkpt lat="47.11396" lon="-2.10228">
        <ele>52</ele>
        <time>2022-08-20T09:46:15Z</time>
      </trkpt>
      <trkpt lat="47.11392" lon="-2.1024">
        <ele>52</ele>
        <time>2022-08-20T09:46:17Z</time>
      </trkpt>
      <trkpt lat="47.11384" lon="-2.10253">
        <ele>52</ele>
        <time>2022-08-20T09:46:20Z</time>
      </trkpt>
      <trkpt lat="47.11376" lon="-2.10264">
        <ele>52</ele>
        <time>2022-08-20T09:46:24Z</time>
      </trkpt>
      <trkpt lat="47.11368" lon="-2.10277">
        <ele>52</ele>
        <time>2022-08-20T09:46:28Z</time>
      </trkpt>
      <trkpt lat="47.11361" lon="-2.10287">
        <ele>53</ele>
        <time>2022-08-20T09:46:30Z</time>
      </trkpt>
      <trkpt lat="47.11354" lon="-2.10299">
        <ele>53</ele>
        <time>2022-08-20T09:46:32Z</time>
      </trkpt>
      <trkpt lat="47.11345" lon="-2.10312">
        <ele>53</ele>
        <time>2022-08-20T09:46:34Z</time>
      </trkpt>
      <trkpt lat="47.11336" lon="-2.10324">
        <ele>52</ele>
        <time>2022-08-20T09:46:36Z</time>
      </trkpt>
      <trkpt lat="47.11326" lon="-2.10334">
        <ele>52</ele>
        <time>2022-08-20T09:46:38Z</time>
      </trkpt>
      <trkpt lat="47.11315" lon="-2.10342">
        <ele>52</ele>
        <time>2022-08-20T09:46:40Z</time>
      </trkpt>
      <trkpt lat="47.11304" lon="-2.10351">
        <ele>52</ele>
        <time>2022-08-20T09:46:42Z</time>
      </trkpt>
      <trkpt lat="47.11294" lon="-2.1036">
        <ele>53</ele>
        <time>2022-08-20T09:46:44Z</time>
      </trkpt>
      <trkpt lat="47.11284" lon="-2.10367">
        <ele>54</ele>
        <time>2022-08-20T09:46:46Z</time>
      </trkpt>
      <trkpt lat="47.11271" lon="-2.10372">
        <ele>54</ele>
        <time>2022-08-20T09:46:48Z</time>
      </trkpt>
      <trkpt lat="47.11259" lon="-2.10377">
        <ele>56</ele>
        <time>2022-08-20T09:46:50Z</time>
      </trkpt>
      <trkpt lat="47.11247" lon="-2.10382">
        <ele>57</ele>
        <time>2022-08-20T09:46:52Z</time>
      </trkpt>
      <trkpt lat="47.11236" lon="-2.10387">
        <ele>58</ele>
        <time>2022-08-20T09:46:54Z</time>
      </trkpt>
      <trkpt lat="47.11226" lon="-2.10392">
        <ele>59</ele>
        <time>2022-08-20T09:46:56Z</time>
      </trkpt>
      <trkpt lat="47.11218" lon="-2.10405">
        <ele>58</ele>
        <time>2022-08-20T09:46:58Z</time>
      </trkpt>
      <trkpt lat="47.1121" lon="-2.10421">
        <ele>58</ele>
        <time>2022-08-20T09:47:00Z</time>
      </trkpt>
      <trkpt lat="47.11202" lon="-2.10434">
        <ele>58</ele>
        <time>2022-08-20T09:47:02Z</time>
      </trkpt>
      <trkpt lat="47.11192" lon="-2.10442">
        <ele>58</ele>
        <time>2022-08-20T09:47:04Z</time>
      </trkpt>
      <trkpt lat="47.1118" lon="-2.10446">
        <ele>58</ele>
        <time>2022-08-20T09:47:06Z</time>
      </trkpt>
      <trkpt lat="47.11169" lon="-2.1045">
        <ele>58</ele>
        <time>2022-08-20T09:47:08Z</time>
      </trkpt>
      <trkpt lat="47.11158" lon="-2.10451">
        <ele>59</ele>
        <time>2022-08-20T09:47:10Z</time>
      </trkpt>
      <trkpt lat="47.11146" lon="-2.10448">
        <ele>60</ele>
        <time>2022-08-20T09:47:12Z</time>
      </trkpt>
      <trkpt lat="47.11136" lon="-2.10438">
        <ele>61</ele>
        <time>2022-08-20T09:47:14Z</time>
      </trkpt>
      <trkpt lat="47.11127" lon="-2.10429">
        <ele>62</ele>
        <time>2022-08-20T09:47:16Z</time>
      </trkpt>
      <trkpt lat="47.11115" lon="-2.10423">
        <ele>61</ele>
        <time>2022-08-20T09:47:18Z</time>
      </trkpt>
      <trkpt lat="47.11102" lon="-2.10424">
        <ele>60</ele>
        <time>2022-08-20T09:47:20Z</time>
      </trkpt>
      <trkpt lat="47.11092" lon="-2.10435">
        <ele>59</ele>
        <time>2022-08-20T09:47:22Z</time>
      </trkpt>
      <trkpt lat="47.11085" lon="-2.10449">
        <ele>58</ele>
        <time>2022-08-20T09:47:24Z</time>
      </trkpt>
      <trkpt lat="47.11079" lon="-2.10463">
        <ele>58</ele>
        <time>2022-08-20T09:47:26Z</time>
      </trkpt>
      <trkpt lat="47.11073" lon="-2.10478">
        <ele>59</ele>
        <time>2022-08-20T09:47:28Z</time>
      </trkpt>
      <trkpt lat="47.11068" lon="-2.10492">
        <ele>59</ele>
        <time>2022-08-20T09:47:30Z</time>
      </trkpt>
      <trkpt lat="47.11062" lon="-2.10505">
        <ele>60</ele>
        <time>2022-08-20T09:47:32Z</time>
      </trkpt>
      <trkpt lat="47.11055" lon="-2.10517">
        <ele>61</ele>
        <time>2022-08-20T09:47:34Z</time>
      </trkpt>
      <trkpt lat="47.11047" lon="-2.10528">
        <ele>62</ele>
        <time>2022-08-20T09:47:36Z</time>
      </trkpt>
      <trkpt lat="47.11039" lon="-2.10538">
        <ele>62</ele>
        <time>2022-08-20T09:47:38Z</time>
      </trkpt>
      <trkpt lat="47.11031" lon="-2.10549">
        <ele>62</ele>
        <time>2022-08-20T09:47:40Z</time>
      </trkpt>
      <trkpt lat="47.1102" lon="-2.1056">
        <ele>61</ele>
        <time>2022-08-20T09:47:42Z</time>
      </trkpt>
      <trkpt lat="47.11008" lon="-2.10571">
        <ele>60</ele>
        <time>2022-08-20T09:47:44Z</time>
      </trkpt>
      <trkpt lat="47.10997" lon="-2.10585">
        <ele>59</ele>
        <time>2022-08-20T09:47:46Z</time>
      </trkpt>
      <trkpt lat="47.10989" lon="-2.10604">
        <ele>59</ele>
        <time>2022-08-20T09:47:48Z</time>
      </trkpt>
      <trkpt lat="47.10983" lon="-2.10621">
        <ele>59</ele>
        <time>2022-08-20T09:47:50Z</time>
      </trkpt>
      <trkpt lat="47.10984" lon="-2.1064">
        <ele>59</ele>
        <time>2022-08-20T09:47:52Z</time>
      </trkpt>
      <trkpt lat="47.10989" lon="-2.10659">
        <ele>58</ele>
        <time>2022-08-20T09:47:54Z</time>
      </trkpt>
      <trkpt lat="47.10987" lon="-2.10678">
        <ele>59</ele>
        <time>2022-08-20T09:47:56Z</time>
      </trkpt>
      <trkpt lat="47.10978" lon="-2.10693">
        <ele>59</ele>
        <time>2022-08-20T09:47:58Z</time>
      </trkpt>
      <trkpt lat="47.10965" lon="-2.10704">
        <ele>58</ele>
        <time>2022-08-20T09:48:00Z</time>
      </trkpt>
      <trkpt lat="47.10954" lon="-2.10718">
        <ele>57</ele>
        <time>2022-08-20T09:48:02Z</time>
      </trkpt>
      <trkpt lat="47.10945" lon="-2.10733">
        <ele>57</ele>
        <time>2022-08-20T09:48:04Z</time>
      </trkpt>
      <trkpt lat="47.10933" lon="-2.10742">
        <ele>57</ele>
        <time>2022-08-20T09:48:06Z</time>
      </trkpt>
      <trkpt lat="47.10919" lon="-2.10742">
        <ele>57</ele>
        <time>2022-08-20T09:48:08Z</time>
      </trkpt>
      <trkpt lat="47.10909" lon="-2.10732">
        <ele>57</ele>
        <time>2022-08-20T09:48:10Z</time>
      </trkpt>
      <trkpt lat="47.109" lon="-2.10721">
        <ele>58</ele>
        <time>2022-08-20T09:48:12Z</time>
      </trkpt>
      <trkpt lat="47.10889" lon="-2.10721">
        <ele>58</ele>
        <time>2022-08-20T09:48:14Z</time>
      </trkpt>
      <trkpt lat="47.10877" lon="-2.10728">
        <ele>58</ele>
        <time>2022-08-20T09:48:16Z</time>
      </trkpt>
      <trkpt lat="47.10865" lon="-2.10733">
        <ele>59</ele>
        <time>2022-08-20T09:48:18Z</time>
      </trkpt>
      <trkpt lat="47.10853" lon="-2.10736">
        <ele>59</ele>
        <time>2022-08-20T09:48:20Z</time>
      </trkpt>
      <trkpt lat="47.10842" lon="-2.10728">
        <ele>59</ele>
        <time>2022-08-20T09:48:22Z</time>
      </trkpt>
      <trkpt lat="47.10836" lon="-2.10714">
        <ele>59</ele>
        <time>2022-08-20T09:48:24Z</time>
      </trkpt>
      <trkpt lat="47.1083" lon="-2.10703">
        <ele>59</ele>
        <time>2022-08-20T09:48:26Z</time>
      </trkpt>
      <trkpt lat="47.10821" lon="-2.10693">
        <ele>59</ele>
        <time>2022-08-20T09:48:28Z</time>
      </trkpt>
      <trkpt lat="47.10811" lon="-2.10683">
        <ele>59</ele>
        <time>2022-08-20T09:48:30Z</time>
      </trkpt>
      <trkpt lat="47.10804" lon="-2.10669">
        <ele>60</ele>
        <time>2022-08-20T09:48:32Z</time>
      </trkpt>
      <trkpt lat="47.10797" lon="-2.10655">
        <ele>59</ele>
        <time>2022-08-20T09:48:34Z</time>
      </trkpt>
      <trkpt lat="47.10787" lon="-2.10645">
        <ele>59</ele>
        <time>2022-08-20T09:48:36Z</time>
      </trkpt>
      <trkpt lat="47.10778" lon="-2.10634">
        <ele>58</ele>
        <time>2022-08-20T09:48:38Z</time>
      </trkpt>
      <trkpt lat="47.10767" lon="-2.10625">
        <ele>58</ele>
        <time>2022-08-20T09:48:40Z</time>
      </trkpt>
      <trkpt lat="47.10757" lon="-2.10616">
        <ele>58</ele>
        <time>2022-08-20T09:48:42Z</time>
      </trkpt>
      <trkpt lat="47.10748" lon="-2.10605">
        <ele>59</ele>
        <time>2022-08-20T09:48:44Z</time>
      </trkpt>
      <trkpt lat="47.10741" lon="-2.10592">
        <ele>59</ele>
        <time>2022-08-20T09:48:46Z</time>
      </trkpt>
      <trkpt lat="47.10738" lon="-2.10576">
        <ele>60</ele>
        <time>2022-08-20T09:48:48Z</time>
      </trkpt>
      <trkpt lat="47.10741" lon="-2.1056">
        <ele>60</ele>
        <time>2022-08-20T09:48:50Z</time>
      </trkpt>
      <trkpt lat="47.10748" lon="-2.10545">
        <ele>61</ele>
        <time>2022-08-20T09:48:52Z</time>
      </trkpt>
      <trkpt lat="47.10755" lon="-2.10531">
        <ele>62</ele>
        <time>2022-08-20T09:48:54Z</time>
      </trkpt>
      <trkpt lat="47.10761" lon="-2.10516">
        <ele>63</ele>
        <time>2022-08-20T09:48:56Z</time>
      </trkpt>
      <trkpt lat="47.10767" lon="-2.10502">
        <ele>63</ele>
        <time>2022-08-20T09:48:58Z</time>
      </trkpt>
      <trkpt lat="47.10774" lon="-2.10488">
        <ele>65</ele>
        <time>2022-08-20T09:49:00Z</time>
      </trkpt>
      <trkpt lat="47.1078" lon="-2.10475">
        <ele>65</ele>
        <time>2022-08-20T09:49:02Z</time>
      </trkpt>
      <trkpt lat="47.10784" lon="-2.10463">
        <ele>65</ele>
        <time>2022-08-20T09:49:04Z</time>
      </trkpt>
      <trkpt lat="47.10775" lon="-2.10448">
        <ele>66</ele>
        <time>2022-08-20T09:49:07Z</time>
      </trkpt>
      <trkpt lat="47.10765" lon="-2.1044">
        <ele>66</ele>
        <time>2022-08-20T09:49:09Z</time>
      </trkpt>
      <trkpt lat="47.10756" lon="-2.10431">
        <ele>67</ele>
        <time>2022-08-20T09:49:11Z</time>
      </trkpt>
      <trkpt lat="47.10746" lon="-2.1042">
        <ele>67</ele>
        <time>2022-08-20T09:49:13Z</time>
      </trkpt>
      <trkpt lat="47.10739" lon="-2.10407">
        <ele>67</ele>
        <time>2022-08-20T09:49:15Z</time>
      </trkpt>
      <trkpt lat="47.10735" lon="-2.10393">
        <ele>66</ele>
        <time>2022-08-20T09:49:17Z</time>
      </trkpt>
      <trkpt lat="47.10736" lon="-2.10379">
        <ele>67</ele>
        <time>2022-08-20T09:49:19Z</time>
      </trkpt>
      <trkpt lat="47.10744" lon="-2.10371">
        <ele>67</ele>
        <time>2022-08-20T09:49:21Z</time>
      </trkpt>
      <trkpt lat="47.10752" lon="-2.10364">
        <ele>68</ele>
        <time>2022-08-20T09:49:23Z</time>
      </trkpt>
      <trkpt lat="47.10762" lon="-2.10357">
        <ele>68</ele>
        <time>2022-08-20T09:49:25Z</time>
      </trkpt>
      <trkpt lat="47.10772" lon="-2.10349">
        <ele>69</ele>
        <time>2022-08-20T09:49:27Z</time>
      </trkpt>
      <trkpt lat="47.10781" lon="-2.1034">
        <ele>69</ele>
        <time>2022-08-20T09:49:29Z</time>
      </trkpt>
      <trkpt lat="47.10788" lon="-2.10329">
        <ele>70</ele>
        <time>2022-08-20T09:49:31Z</time>
      </trkpt>
      <trkpt lat="47.10795" lon="-2.10317">
        <ele>70</ele>
        <time>2022-08-20T09:49:33Z</time>
      </trkpt>
      <trkpt lat="47.10802" lon="-2.10306">
        <ele>70</ele>
        <time>2022-08-20T09:49:35Z</time>
      </trkpt>
      <trkpt lat="47.10808" lon="-2.10295">
        <ele>71</ele>
        <time>2022-08-20T09:49:37Z</time>
      </trkpt>
      <trkpt lat="47.10816" lon="-2.10281">
        <ele>72</ele>
        <time>2022-08-20T09:49:40Z</time>
      </trkpt>
      <trkpt lat="47.1082" lon="-2.10269">
        <ele>72</ele>
        <time>2022-08-20T09:49:43Z</time>
      </trkpt>
      <trkpt lat="47.1082" lon="-2.1025">
        <ele>72</ele>
        <time>2022-08-20T09:49:46Z</time>
      </trkpt>
      <trkpt lat="47.10818" lon="-2.10235">
        <ele>72</ele>
        <time>2022-08-20T09:49:48Z</time>
      </trkpt>
      <trkpt lat="47.10815" lon="-2.10219">
        <ele>73</ele>
        <time>2022-08-20T09:49:50Z</time>
      </trkpt>
      <trkpt lat="47.10813" lon="-2.10205">
        <ele>72</ele>
        <time>2022-08-20T09:49:52Z</time>
      </trkpt>
      <trkpt lat="47.10811" lon="-2.10191">
        <ele>72</ele>
        <time>2022-08-20T09:49:54Z</time>
      </trkpt>
      <trkpt lat="47.10809" lon="-2.10176">
        <ele>72</ele>
        <time>2022-08-20T09:49:56Z</time>
      </trkpt>
      <trkpt lat="47.10808" lon="-2.10161">
        <ele>72</ele>
        <time>2022-08-20T09:49:58Z</time>
      </trkpt>
      <trkpt lat="47.10805" lon="-2.10146">
        <ele>72</ele>
        <time>2022-08-20T09:50:00Z</time>
      </trkpt>
      <trkpt lat="47.10802" lon="-2.1013">
        <ele>72</ele>
        <time>2022-08-20T09:50:02Z</time>
      </trkpt>
      <trkpt lat="47.108" lon="-2.10113">
        <ele>72</ele>
        <time>2022-08-20T09:50:04Z</time>
      </trkpt>
      <trkpt lat="47.10798" lon="-2.10097">
        <ele>71</ele>
        <time>2022-08-20T09:50:06Z</time>
      </trkpt>
      <trkpt lat="47.10796" lon="-2.10081">
        <ele>71</ele>
        <time>2022-08-20T09:50:08Z</time>
      </trkpt>
      <trkpt lat="47.10793" lon="-2.10065">
        <ele>71</ele>
        <time>2022-08-20T09:50:10Z</time>
      </trkpt>
      <trkpt lat="47.10791" lon="-2.10048">
        <ele>72</ele>
        <time>2022-08-20T09:50:12Z</time>
      </trkpt>
      <trkpt lat="47.10789" lon="-2.10032">
        <ele>72</ele>
        <time>2022-08-20T09:50:14Z</time>
      </trkpt>
      <trkpt lat="47.10787" lon="-2.10016">
        <ele>72</ele>
        <time>2022-08-20T09:50:16Z</time>
      </trkpt>
      <trkpt lat="47.10785" lon="-2.1">
        <ele>73</ele>
        <time>2022-08-20T09:50:18Z</time>
      </trkpt>
      <trkpt lat="47.10784" lon="-2.09984">
        <ele>72</ele>
        <time>2022-08-20T09:50:20Z</time>
      </trkpt>
      <trkpt lat="47.10784" lon="-2.09969">
        <ele>72</ele>
        <time>2022-08-20T09:50:22Z</time>
      </trkpt>
      <trkpt lat="47.10782" lon="-2.09954">
        <ele>73</ele>
        <time>2022-08-20T09:50:24Z</time>
      </trkpt>
      <trkpt lat="47.10781" lon="-2.0994">
        <ele>73</ele>
        <time>2022-08-20T09:50:26Z</time>
      </trkpt>
      <trkpt lat="47.1078" lon="-2.09924">
        <ele>73</ele>
        <time>2022-08-20T09:50:28Z</time>
      </trkpt>
      <trkpt lat="47.1078" lon="-2.09908">
        <ele>73</ele>
        <time>2022-08-20T09:50:30Z</time>
      </trkpt>
      <trkpt lat="47.10779" lon="-2.09893">
        <ele>72</ele>
        <time>2022-08-20T09:50:32Z</time>
      </trkpt>
      <trkpt lat="47.10779" lon="-2.09878">
        <ele>72</ele>
        <time>2022-08-20T09:50:34Z</time>
      </trkpt>
      <trkpt lat="47.10779" lon="-2.09863">
        <ele>72</ele>
        <time>2022-08-20T09:50:36Z</time>
      </trkpt>
      <trkpt lat="47.10778" lon="-2.09849">
        <ele>72</ele>
        <time>2022-08-20T09:50:38Z</time>
      </trkpt>
      <trkpt lat="47.10778" lon="-2.09835">
        <ele>71</ele>
        <time>2022-08-20T09:50:40Z</time>
      </trkpt>
      <trkpt lat="47.10778" lon="-2.09822">
        <ele>71</ele>
        <time>2022-08-20T09:50:42Z</time>
      </trkpt>
      <trkpt lat="47.10776" lon="-2.09807">
        <ele>71</ele>
        <time>2022-08-20T09:50:45Z</time>
      </trkpt>
      <trkpt lat="47.10776" lon="-2.09792">
        <ele>71</ele>
        <time>2022-08-20T09:50:50Z</time>
      </trkpt>
      <trkpt lat="47.10776" lon="-2.09778">
        <ele>72</ele>
        <time>2022-08-20T09:50:52Z</time>
      </trkpt>
      <trkpt lat="47.10775" lon="-2.0976">
        <ele>72</ele>
        <time>2022-08-20T09:50:54Z</time>
      </trkpt>
      <trkpt lat="47.10774" lon="-2.09742">
        <ele>72</ele>
        <time>2022-08-20T09:50:56Z</time>
      </trkpt>
      <trkpt lat="47.1077" lon="-2.09727">
        <ele>72</ele>
        <time>2022-08-20T09:50:58Z</time>
      </trkpt>
      <trkpt lat="47.10766" lon="-2.09712">
        <ele>73</ele>
        <time>2022-08-20T09:51:00Z</time>
      </trkpt>
      <trkpt lat="47.10763" lon="-2.09697">
        <ele>72</ele>
        <time>2022-08-20T09:51:02Z</time>
      </trkpt>
      <trkpt lat="47.10761" lon="-2.09682">
        <ele>72</ele>
        <time>2022-08-20T09:51:04Z</time>
      </trkpt>
      <trkpt lat="47.10759" lon="-2.09667">
        <ele>72</ele>
        <time>2022-08-20T09:51:06Z</time>
      </trkpt>
      <trkpt lat="47.10755" lon="-2.09652">
        <ele>72</ele>
        <time>2022-08-20T09:51:08Z</time>
      </trkpt>
      <trkpt lat="47.10751" lon="-2.09639">
        <ele>71</ele>
        <time>2022-08-20T09:51:10Z</time>
      </trkpt>
      <trkpt lat="47.10747" lon="-2.09625">
        <ele>71</ele>
        <time>2022-08-20T09:51:12Z</time>
      </trkpt>
      <trkpt lat="47.10745" lon="-2.09612">
        <ele>71</ele>
        <time>2022-08-20T09:51:15Z</time>
      </trkpt>
      <trkpt lat="47.10752" lon="-2.09603">
        <ele>71</ele>
        <time>2022-08-20T09:51:29Z</time>
      </trkpt>
      <trkpt lat="47.10752" lon="-2.09585">
        <ele>72</ele>
        <time>2022-08-20T09:51:33Z</time>
      </trkpt>
      <trkpt lat="47.10747" lon="-2.09572">
        <ele>71</ele>
        <time>2022-08-20T09:51:35Z</time>
      </trkpt>
      <trkpt lat="47.10741" lon="-2.09559">
        <ele>71</ele>
        <time>2022-08-20T09:51:37Z</time>
      </trkpt>
      <trkpt lat="47.10736" lon="-2.09547">
        <ele>72</ele>
        <time>2022-08-20T09:51:39Z</time>
      </trkpt>
      <trkpt lat="47.1073" lon="-2.09534">
        <ele>72</ele>
        <time>2022-08-20T09:51:41Z</time>
      </trkpt>
      <trkpt lat="47.10722" lon="-2.09523">
        <ele>73</ele>
        <time>2022-08-20T09:51:43Z</time>
      </trkpt>
      <trkpt lat="47.10712" lon="-2.09512">
        <ele>73</ele>
        <time>2022-08-20T09:51:45Z</time>
      </trkpt>
      <trkpt lat="47.10704" lon="-2.09502">
        <ele>74</ele>
        <time>2022-08-20T09:51:47Z</time>
      </trkpt>
      <trkpt lat="47.10703" lon="-2.09488">
        <ele>74</ele>
        <time>2022-08-20T09:51:49Z</time>
      </trkpt>
      <trkpt lat="47.1071" lon="-2.09476">
        <ele>75</ele>
        <time>2022-08-20T09:51:51Z</time>
      </trkpt>
      <trkpt lat="47.10721" lon="-2.09465">
        <ele>74</ele>
        <time>2022-08-20T09:51:53Z</time>
      </trkpt>
      <trkpt lat="47.10728" lon="-2.09454">
        <ele>73</ele>
        <time>2022-08-20T09:51:55Z</time>
      </trkpt>
      <trkpt lat="47.1073" lon="-2.09441">
        <ele>74</ele>
        <time>2022-08-20T09:51:57Z</time>
      </trkpt>
      <trkpt lat="47.10725" lon="-2.09428">
        <ele>73</ele>
        <time>2022-08-20T09:51:59Z</time>
      </trkpt>
      <trkpt lat="47.10719" lon="-2.09413">
        <ele>72</ele>
        <time>2022-08-20T09:52:01Z</time>
      </trkpt>
      <trkpt lat="47.10713" lon="-2.09398">
        <ele>71</ele>
        <time>2022-08-20T09:52:03Z</time>
      </trkpt>
      <trkpt lat="47.10706" lon="-2.09381">
        <ele>70</ele>
        <time>2022-08-20T09:52:05Z</time>
      </trkpt>
      <trkpt lat="47.10699" lon="-2.09363">
        <ele>69</ele>
        <time>2022-08-20T09:52:07Z</time>
      </trkpt>
      <trkpt lat="47.10693" lon="-2.09344">
        <ele>69</ele>
        <time>2022-08-20T09:52:09Z</time>
      </trkpt>
      <trkpt lat="47.1069" lon="-2.09325">
        <ele>69</ele>
        <time>2022-08-20T09:52:11Z</time>
      </trkpt>
      <trkpt lat="47.10688" lon="-2.09307">
        <ele>70</ele>
        <time>2022-08-20T09:52:13Z</time>
      </trkpt>
      <trkpt lat="47.10686" lon="-2.0929">
        <ele>70</ele>
        <time>2022-08-20T09:52:15Z</time>
      </trkpt>
      <trkpt lat="47.10684" lon="-2.09273">
        <ele>71</ele>
        <time>2022-08-20T09:52:17Z</time>
      </trkpt>
      <trkpt lat="47.10682" lon="-2.09259">
        <ele>71</ele>
        <time>2022-08-20T09:52:19Z</time>
      </trkpt>
      <trkpt lat="47.10679" lon="-2.09243">
        <ele>72</ele>
        <time>2022-08-20T09:52:21Z</time>
      </trkpt>
      <trkpt lat="47.10678" lon="-2.09228">
        <ele>72</ele>
        <time>2022-08-20T09:52:23Z</time>
      </trkpt>
      <trkpt lat="47.10675" lon="-2.09213">
        <ele>72</ele>
        <time>2022-08-20T09:52:25Z</time>
      </trkpt>
      <trkpt lat="47.10673" lon="-2.09198">
        <ele>73</ele>
        <time>2022-08-20T09:52:27Z</time>
      </trkpt>
      <trkpt lat="47.10671" lon="-2.09182">
        <ele>73</ele>
        <time>2022-08-20T09:52:29Z</time>
      </trkpt>
      <trkpt lat="47.10669" lon="-2.09168">
        <ele>73</ele>
        <time>2022-08-20T09:52:31Z</time>
      </trkpt>
      <trkpt lat="47.10667" lon="-2.09153">
        <ele>74</ele>
        <time>2022-08-20T09:52:33Z</time>
      </trkpt>
      <trkpt lat="47.10664" lon="-2.09139">
        <ele>74</ele>
        <time>2022-08-20T09:52:35Z</time>
      </trkpt>
      <trkpt lat="47.10662" lon="-2.09125">
        <ele>74</ele>
        <time>2022-08-20T09:52:37Z</time>
      </trkpt>
      <trkpt lat="47.10659" lon="-2.09112">
        <ele>74</ele>
        <time>2022-08-20T09:52:39Z</time>
      </trkpt>
      <trkpt lat="47.10663" lon="-2.09094">
        <ele>75</ele>
        <time>2022-08-20T09:52:42Z</time>
      </trkpt>
      <trkpt lat="47.10674" lon="-2.09088">
        <ele>75</ele>
        <time>2022-08-20T09:52:44Z</time>
      </trkpt>
      <trkpt lat="47.10685" lon="-2.09085">
        <ele>75</ele>
        <time>2022-08-20T09:52:46Z</time>
      </trkpt>
      <trkpt lat="47.10697" lon="-2.09083">
        <ele>75</ele>
        <time>2022-08-20T09:52:48Z</time>
      </trkpt>
      <trkpt lat="47.10709" lon="-2.0908">
        <ele>76</ele>
        <time>2022-08-20T09:52:50Z</time>
      </trkpt>
      <trkpt lat="47.10721" lon="-2.09077">
        <ele>76</ele>
        <time>2022-08-20T09:52:52Z</time>
      </trkpt>
      <trkpt lat="47.10733" lon="-2.09075">
        <ele>76</ele>
        <time>2022-08-20T09:52:54Z</time>
      </trkpt>
      <trkpt lat="47.10744" lon="-2.09073">
        <ele>76</ele>
        <time>2022-08-20T09:52:56Z</time>
      </trkpt>
      <trkpt lat="47.10753" lon="-2.09069">
        <ele>76</ele>
        <time>2022-08-20T09:52:58Z</time>
      </trkpt>
      <trkpt lat="47.10755" lon="-2.09054">
        <ele>77</ele>
        <time>2022-08-20T09:53:00Z</time>
      </trkpt>
      <trkpt lat="47.10751" lon="-2.09038">
        <ele>76</ele>
        <time>2022-08-20T09:53:02Z</time>
      </trkpt>
      <trkpt lat="47.10748" lon="-2.09023">
        <ele>75</ele>
        <time>2022-08-20T09:53:04Z</time>
      </trkpt>
      <trkpt lat="47.10745" lon="-2.09004">
        <ele>75</ele>
        <time>2022-08-20T09:53:06Z</time>
      </trkpt>
      <trkpt lat="47.1074" lon="-2.08987">
        <ele>74</ele>
        <time>2022-08-20T09:53:08Z</time>
      </trkpt>
      <trkpt lat="47.10738" lon="-2.08969">
        <ele>74</ele>
        <time>2022-08-20T09:53:10Z</time>
      </trkpt>
      <trkpt lat="47.10737" lon="-2.08951">
        <ele>74</ele>
        <time>2022-08-20T09:53:12Z</time>
      </trkpt>
      <trkpt lat="47.10739" lon="-2.08934">
        <ele>75</ele>
        <time>2022-08-20T09:53:14Z</time>
      </trkpt>
      <trkpt lat="47.10745" lon="-2.08918">
        <ele>75</ele>
        <time>2022-08-20T09:53:16Z</time>
      </trkpt>
      <trkpt lat="47.10751" lon="-2.08903">
        <ele>76</ele>
        <time>2022-08-20T09:53:18Z</time>
      </trkpt>
      <trkpt lat="47.10758" lon="-2.08889">
        <ele>76</ele>
        <time>2022-08-20T09:53:20Z</time>
      </trkpt>
      <trkpt lat="47.10763" lon="-2.08874">
        <ele>76</ele>
        <time>2022-08-20T09:53:22Z</time>
      </trkpt>
      <trkpt lat="47.10767" lon="-2.08857">
        <ele>76</ele>
        <time>2022-08-20T09:53:24Z</time>
      </trkpt>
      <trkpt lat="47.1077" lon="-2.08839">
        <ele>76</ele>
        <time>2022-08-20T09:53:26Z</time>
      </trkpt>
      <trkpt lat="47.1077" lon="-2.08822">
        <ele>76</ele>
        <time>2022-08-20T09:53:28Z</time>
      </trkpt>
      <trkpt lat="47.10765" lon="-2.08805">
        <ele>76</ele>
        <time>2022-08-20T09:53:30Z</time>
      </trkpt>
      <trkpt lat="47.1076" lon="-2.08788">
        <ele>76</ele>
        <time>2022-08-20T09:53:32Z</time>
      </trkpt>
      <trkpt lat="47.10754" lon="-2.08771">
        <ele>77</ele>
        <time>2022-08-20T09:53:34Z</time>
      </trkpt>
      <trkpt lat="47.10749" lon="-2.08753">
        <ele>77</ele>
        <time>2022-08-20T09:53:36Z</time>
      </trkpt>
      <trkpt lat="47.10744" lon="-2.08736">
        <ele>76</ele>
        <time>2022-08-20T09:53:38Z</time>
      </trkpt>
      <trkpt lat="47.1074" lon="-2.08719">
        <ele>76</ele>
        <time>2022-08-20T09:53:40Z</time>
      </trkpt>
      <trkpt lat="47.10737" lon="-2.08702">
        <ele>76</ele>
        <time>2022-08-20T09:53:42Z</time>
      </trkpt>
      <trkpt lat="47.10734" lon="-2.08685">
        <ele>76</ele>
        <time>2022-08-20T09:53:44Z</time>
      </trkpt>
      <trkpt lat="47.1073" lon="-2.08671">
        <ele>76</ele>
        <time>2022-08-20T09:53:46Z</time>
      </trkpt>
      <trkpt lat="47.10724" lon="-2.08657">
        <ele>76</ele>
        <time>2022-08-20T09:53:48Z</time>
      </trkpt>
      <trkpt lat="47.10718" lon="-2.08642">
        <ele>76</ele>
        <time>2022-08-20T09:53:50Z</time>
      </trkpt>
      <trkpt lat="47.10714" lon="-2.08623">
        <ele>76</ele>
        <time>2022-08-20T09:53:52Z</time>
      </trkpt>
      <trkpt lat="47.10711" lon="-2.08604">
        <ele>76</ele>
        <time>2022-08-20T09:53:54Z</time>
      </trkpt>
      <trkpt lat="47.10708" lon="-2.08585">
        <ele>76</ele>
        <time>2022-08-20T09:53:56Z</time>
      </trkpt>
      <trkpt lat="47.10706" lon="-2.08565">
        <ele>76</ele>
        <time>2022-08-20T09:53:58Z</time>
      </trkpt>
      <trkpt lat="47.10705" lon="-2.08543">
        <ele>75</ele>
        <time>2022-08-20T09:54:00Z</time>
      </trkpt>
      <trkpt lat="47.10704" lon="-2.08522">
        <ele>75</ele>
        <time>2022-08-20T09:54:02Z</time>
      </trkpt>
      <trkpt lat="47.10701" lon="-2.08501">
        <ele>75</ele>
        <time>2022-08-20T09:54:04Z</time>
      </trkpt>
      <trkpt lat="47.10695" lon="-2.08482">
        <ele>75</ele>
        <time>2022-08-20T09:54:06Z</time>
      </trkpt>
      <trkpt lat="47.10688" lon="-2.08464">
        <ele>74</ele>
        <time>2022-08-20T09:54:08Z</time>
      </trkpt>
      <trkpt lat="47.1068" lon="-2.08446">
        <ele>74</ele>
        <time>2022-08-20T09:54:10Z</time>
      </trkpt>
      <trkpt lat="47.10671" lon="-2.08429">
        <ele>74</ele>
        <time>2022-08-20T09:54:12Z</time>
      </trkpt>
      <trkpt lat="47.10662" lon="-2.08414">
        <ele>73</ele>
        <time>2022-08-20T09:54:14Z</time>
      </trkpt>
      <trkpt lat="47.10653" lon="-2.08399">
        <ele>74</ele>
        <time>2022-08-20T09:54:16Z</time>
      </trkpt>
      <trkpt lat="47.10645" lon="-2.08383">
        <ele>74</ele>
        <time>2022-08-20T09:54:18Z</time>
      </trkpt>
      <trkpt lat="47.10637" lon="-2.08368">
        <ele>74</ele>
        <time>2022-08-20T09:54:20Z</time>
      </trkpt>
      <trkpt lat="47.10628" lon="-2.08354">
        <ele>75</ele>
        <time>2022-08-20T09:54:22Z</time>
      </trkpt>
      <trkpt lat="47.1062" lon="-2.08339">
        <ele>75</ele>
        <time>2022-08-20T09:54:24Z</time>
      </trkpt>
      <trkpt lat="47.10612" lon="-2.08324">
        <ele>75</ele>
        <time>2022-08-20T09:54:26Z</time>
      </trkpt>
      <trkpt lat="47.10603" lon="-2.0831">
        <ele>75</ele>
        <time>2022-08-20T09:54:28Z</time>
      </trkpt>
      <trkpt lat="47.10594" lon="-2.08294">
        <ele>76</ele>
        <time>2022-08-20T09:54:30Z</time>
      </trkpt>
      <trkpt lat="47.10586" lon="-2.08279">
        <ele>76</ele>
        <time>2022-08-20T09:54:32Z</time>
      </trkpt>
      <trkpt lat="47.10577" lon="-2.08264">
        <ele>76</ele>
        <time>2022-08-20T09:54:34Z</time>
      </trkpt>
      <trkpt lat="47.10568" lon="-2.08249">
        <ele>76</ele>
        <time>2022-08-20T09:54:36Z</time>
      </trkpt>
      <trkpt lat="47.1056" lon="-2.08233">
        <ele>76</ele>
        <time>2022-08-20T09:54:38Z</time>
      </trkpt>
      <trkpt lat="47.10552" lon="-2.08216">
        <ele>75</ele>
        <time>2022-08-20T09:54:40Z</time>
      </trkpt>
      <trkpt lat="47.10545" lon="-2.08198">
        <ele>75</ele>
        <time>2022-08-20T09:54:42Z</time>
      </trkpt>
      <trkpt lat="47.10537" lon="-2.0818">
        <ele>74</ele>
        <time>2022-08-20T09:54:44Z</time>
      </trkpt>
      <trkpt lat="47.10528" lon="-2.08161">
        <ele>74</ele>
        <time>2022-08-20T09:54:46Z</time>
      </trkpt>
      <trkpt lat="47.10519" lon="-2.08143">
        <ele>73</ele>
        <time>2022-08-20T09:54:48Z</time>
      </trkpt>
      <trkpt lat="47.10511" lon="-2.08124">
        <ele>73</ele>
        <time>2022-08-20T09:54:50Z</time>
      </trkpt>
      <trkpt lat="47.10503" lon="-2.08107">
        <ele>73</ele>
        <time>2022-08-20T09:54:52Z</time>
      </trkpt>
      <trkpt lat="47.10494" lon="-2.08091">
        <ele>74</ele>
        <time>2022-08-20T09:54:54Z</time>
      </trkpt>
      <trkpt lat="47.10485" lon="-2.08075">
        <ele>74</ele>
        <time>2022-08-20T09:54:56Z</time>
      </trkpt>
      <trkpt lat="47.10477" lon="-2.08059">
        <ele>74</ele>
        <time>2022-08-20T09:54:58Z</time>
      </trkpt>
      <trkpt lat="47.10469" lon="-2.08044">
        <ele>74</ele>
        <time>2022-08-20T09:55:00Z</time>
      </trkpt>
      <trkpt lat="47.10458" lon="-2.08032">
        <ele>73</ele>
        <time>2022-08-20T09:55:02Z</time>
      </trkpt>
      <trkpt lat="47.10446" lon="-2.08021">
        <ele>73</ele>
        <time>2022-08-20T09:55:04Z</time>
      </trkpt>
      <trkpt lat="47.10436" lon="-2.08009">
        <ele>73</ele>
        <time>2022-08-20T09:55:06Z</time>
      </trkpt>
      <trkpt lat="47.10425" lon="-2.07997">
        <ele>73</ele>
        <time>2022-08-20T09:55:08Z</time>
      </trkpt>
      <trkpt lat="47.10416" lon="-2.07981">
        <ele>73</ele>
        <time>2022-08-20T09:55:10Z</time>
      </trkpt>
      <trkpt lat="47.1041" lon="-2.07963">
        <ele>73</ele>
        <time>2022-08-20T09:55:12Z</time>
      </trkpt>
      <trkpt lat="47.10404" lon="-2.07943">
        <ele>73</ele>
        <time>2022-08-20T09:55:14Z</time>
      </trkpt>
      <trkpt lat="47.10395" lon="-2.07925">
        <ele>74</ele>
        <time>2022-08-20T09:55:16Z</time>
      </trkpt>
      <trkpt lat="47.1039" lon="-2.07903">
        <ele>73</ele>
        <time>2022-08-20T09:55:18Z</time>
      </trkpt>
      <trkpt lat="47.10387" lon="-2.07882">
        <ele>73</ele>
        <time>2022-08-20T09:55:20Z</time>
      </trkpt>
      <trkpt lat="47.10385" lon="-2.07861">
        <ele>73</ele>
        <time>2022-08-20T09:55:22Z</time>
      </trkpt>
      <trkpt lat="47.10386" lon="-2.07841">
        <ele>73</ele>
        <time>2022-08-20T09:55:24Z</time>
      </trkpt>
      <trkpt lat="47.10386" lon="-2.07822">
        <ele>73</ele>
        <time>2022-08-20T09:55:26Z</time>
      </trkpt>
      <trkpt lat="47.10388" lon="-2.07802">
        <ele>72</ele>
        <time>2022-08-20T09:55:28Z</time>
      </trkpt>
      <trkpt lat="47.10391" lon="-2.07782">
        <ele>72</ele>
        <time>2022-08-20T09:55:30Z</time>
      </trkpt>
      <trkpt lat="47.10396" lon="-2.07762">
        <ele>72</ele>
        <time>2022-08-20T09:55:32Z</time>
      </trkpt>
      <trkpt lat="47.104" lon="-2.07742">
        <ele>71</ele>
        <time>2022-08-20T09:55:34Z</time>
      </trkpt>
      <trkpt lat="47.10406" lon="-2.07724">
        <ele>72</ele>
        <time>2022-08-20T09:55:36Z</time>
      </trkpt>
      <trkpt lat="47.10411" lon="-2.07705">
        <ele>71</ele>
        <time>2022-08-20T09:55:38Z</time>
      </trkpt>
      <trkpt lat="47.10411" lon="-2.07685">
        <ele>72</ele>
        <time>2022-08-20T09:55:40Z</time>
      </trkpt>
      <trkpt lat="47.10409" lon="-2.07666">
        <ele>72</ele>
        <time>2022-08-20T09:55:42Z</time>
      </trkpt>
      <trkpt lat="47.10407" lon="-2.0765">
        <ele>71</ele>
        <time>2022-08-20T09:55:44Z</time>
      </trkpt>
      <trkpt lat="47.10399" lon="-2.07634">
        <ele>71</ele>
        <time>2022-08-20T09:55:47Z</time>
      </trkpt>
      <trkpt lat="47.10394" lon="-2.07618">
        <ele>72</ele>
        <time>2022-08-20T09:55:49Z</time>
      </trkpt>
      <trkpt lat="47.1039" lon="-2.07601">
        <ele>73</ele>
        <time>2022-08-20T09:55:51Z</time>
      </trkpt>
      <trkpt lat="47.10385" lon="-2.07582">
        <ele>73</ele>
        <time>2022-08-20T09:55:53Z</time>
      </trkpt>
      <trkpt lat="47.10379" lon="-2.07563">
        <ele>73</ele>
        <time>2022-08-20T09:55:55Z</time>
      </trkpt>
      <trkpt lat="47.10373" lon="-2.07544">
        <ele>73</ele>
        <time>2022-08-20T09:55:57Z</time>
      </trkpt>
      <trkpt lat="47.1037" lon="-2.07526">
        <ele>72</ele>
        <time>2022-08-20T09:55:59Z</time>
      </trkpt>
      <trkpt lat="47.10362" lon="-2.0751">
        <ele>71</ele>
        <time>2022-08-20T09:56:01Z</time>
      </trkpt>
      <trkpt lat="47.10354" lon="-2.07494">
        <ele>71</ele>
        <time>2022-08-20T09:56:03Z</time>
      </trkpt>
      <trkpt lat="47.10349" lon="-2.07475">
        <ele>70</ele>
        <time>2022-08-20T09:56:05Z</time>
      </trkpt>
      <trkpt lat="47.10353" lon="-2.07456">
        <ele>70</ele>
        <time>2022-08-20T09:56:07Z</time>
      </trkpt>
      <trkpt lat="47.1036" lon="-2.07439">
        <ele>70</ele>
        <time>2022-08-20T09:56:09Z</time>
      </trkpt>
      <trkpt lat="47.10363" lon="-2.0742">
        <ele>70</ele>
        <time>2022-08-20T09:56:11Z</time>
      </trkpt>
      <trkpt lat="47.10366" lon="-2.07402">
        <ele>69</ele>
        <time>2022-08-20T09:56:13Z</time>
      </trkpt>
      <trkpt lat="47.1037" lon="-2.07388">
        <ele>69</ele>
        <time>2022-08-20T09:56:15Z</time>
      </trkpt>
      <trkpt lat="47.10372" lon="-2.07374">
        <ele>70</ele>
        <time>2022-08-20T09:56:17Z</time>
      </trkpt>
      <trkpt lat="47.10375" lon="-2.07359">
        <ele>70</ele>
        <time>2022-08-20T09:56:19Z</time>
      </trkpt>
      <trkpt lat="47.10377" lon="-2.07344">
        <ele>71</ele>
        <time>2022-08-20T09:56:21Z</time>
      </trkpt>
      <trkpt lat="47.1038" lon="-2.0733">
        <ele>72</ele>
        <time>2022-08-20T09:56:23Z</time>
      </trkpt>
      <trkpt lat="47.10384" lon="-2.07316">
        <ele>73</ele>
        <time>2022-08-20T09:56:25Z</time>
      </trkpt>
      <trkpt lat="47.10389" lon="-2.07302">
        <ele>74</ele>
        <time>2022-08-20T09:56:27Z</time>
      </trkpt>
      <trkpt lat="47.10395" lon="-2.07288">
        <ele>75</ele>
        <time>2022-08-20T09:56:29Z</time>
      </trkpt>
      <trkpt lat="47.10402" lon="-2.07275">
        <ele>75</ele>
        <time>2022-08-20T09:56:31Z</time>
      </trkpt>
      <trkpt lat="47.10409" lon="-2.07262">
        <ele>76</ele>
        <time>2022-08-20T09:56:33Z</time>
      </trkpt>
      <trkpt lat="47.10416" lon="-2.07248">
        <ele>77</ele>
        <time>2022-08-20T09:56:35Z</time>
      </trkpt>
      <trkpt lat="47.10421" lon="-2.07234">
        <ele>77</ele>
        <time>2022-08-20T09:56:37Z</time>
      </trkpt>
      <trkpt lat="47.10426" lon="-2.07219">
        <ele>78</ele>
        <time>2022-08-20T09:56:39Z</time>
      </trkpt>
      <trkpt lat="47.10432" lon="-2.07204">
        <ele>78</ele>
        <time>2022-08-20T09:56:41Z</time>
      </trkpt>
      <trkpt lat="47.10436" lon="-2.07188">
        <ele>78</ele>
        <time>2022-08-20T09:56:43Z</time>
      </trkpt>
      <trkpt lat="47.10438" lon="-2.07172">
        <ele>78</ele>
        <time>2022-08-20T09:56:45Z</time>
      </trkpt>
      <trkpt lat="47.10438" lon="-2.07156">
        <ele>79</ele>
        <time>2022-08-20T09:56:47Z</time>
      </trkpt>
      <trkpt lat="47.10438" lon="-2.07141">
        <ele>80</ele>
        <time>2022-08-20T09:56:49Z</time>
      </trkpt>
      <trkpt lat="47.10438" lon="-2.07125">
        <ele>80</ele>
        <time>2022-08-20T09:56:51Z</time>
      </trkpt>
      <trkpt lat="47.10439" lon="-2.07109">
        <ele>81</ele>
        <time>2022-08-20T09:56:53Z</time>
      </trkpt>
      <trkpt lat="47.10441" lon="-2.07094">
        <ele>81</ele>
        <time>2022-08-20T09:56:55Z</time>
      </trkpt>
      <trkpt lat="47.10443" lon="-2.07079">
        <ele>81</ele>
        <time>2022-08-20T09:56:57Z</time>
      </trkpt>
      <trkpt lat="47.10445" lon="-2.07064">
        <ele>82</ele>
        <time>2022-08-20T09:56:59Z</time>
      </trkpt>
      <trkpt lat="47.10449" lon="-2.07047">
        <ele>82</ele>
        <time>2022-08-20T09:57:01Z</time>
      </trkpt>
      <trkpt lat="47.10453" lon="-2.07031">
        <ele>81</ele>
        <time>2022-08-20T09:57:03Z</time>
      </trkpt>
      <trkpt lat="47.10458" lon="-2.07015">
        <ele>82</ele>
        <time>2022-08-20T09:57:05Z</time>
      </trkpt>
      <trkpt lat="47.10463" lon="-2.07">
        <ele>82</ele>
        <time>2022-08-20T09:57:07Z</time>
      </trkpt>
      <trkpt lat="47.10469" lon="-2.06984">
        <ele>82</ele>
        <time>2022-08-20T09:57:09Z</time>
      </trkpt>
      <trkpt lat="47.10473" lon="-2.0697">
        <ele>82</ele>
        <time>2022-08-20T09:57:11Z</time>
      </trkpt>
      <trkpt lat="47.10478" lon="-2.06955">
        <ele>83</ele>
        <time>2022-08-20T09:57:13Z</time>
      </trkpt>
      <trkpt lat="47.10484" lon="-2.06942">
        <ele>83</ele>
        <time>2022-08-20T09:57:15Z</time>
      </trkpt>
      <trkpt lat="47.10489" lon="-2.0693">
        <ele>82</ele>
        <time>2022-08-20T09:57:17Z</time>
      </trkpt>
      <trkpt lat="47.10494" lon="-2.06918">
        <ele>82</ele>
        <time>2022-08-20T09:57:19Z</time>
      </trkpt>
      <trkpt lat="47.10498" lon="-2.06905">
        <ele>83</ele>
        <time>2022-08-20T09:57:21Z</time>
      </trkpt>
      <trkpt lat="47.10497" lon="-2.06891">
        <ele>84</ele>
        <time>2022-08-20T09:57:23Z</time>
      </trkpt>
      <trkpt lat="47.10493" lon="-2.06876">
        <ele>84</ele>
        <time>2022-08-20T09:57:25Z</time>
      </trkpt>
      <trkpt lat="47.10489" lon="-2.0686">
        <ele>84</ele>
        <time>2022-08-20T09:57:27Z</time>
      </trkpt>
      <trkpt lat="47.10484" lon="-2.06844">
        <ele>84</ele>
        <time>2022-08-20T09:57:29Z</time>
      </trkpt>
      <trkpt lat="47.1048" lon="-2.06827">
        <ele>84</ele>
        <time>2022-08-20T09:57:31Z</time>
      </trkpt>
      <trkpt lat="47.10475" lon="-2.06811">
        <ele>84</ele>
        <time>2022-08-20T09:57:33Z</time>
      </trkpt>
      <trkpt lat="47.10471" lon="-2.06795">
        <ele>84</ele>
        <time>2022-08-20T09:57:35Z</time>
      </trkpt>
      <trkpt lat="47.10466" lon="-2.06779">
        <ele>84</ele>
        <time>2022-08-20T09:57:37Z</time>
      </trkpt>
      <trkpt lat="47.10461" lon="-2.06763">
        <ele>84</ele>
        <time>2022-08-20T09:57:39Z</time>
      </trkpt>
      <trkpt lat="47.10456" lon="-2.06747">
        <ele>84</ele>
        <time>2022-08-20T09:57:41Z</time>
      </trkpt>
      <trkpt lat="47.10451" lon="-2.0673">
        <ele>84</ele>
        <time>2022-08-20T09:57:43Z</time>
      </trkpt>
      <trkpt lat="47.10446" lon="-2.06712">
        <ele>84</ele>
        <time>2022-08-20T09:57:45Z</time>
      </trkpt>
      <trkpt lat="47.10441" lon="-2.06696">
        <ele>85</ele>
        <time>2022-08-20T09:57:47Z</time>
      </trkpt>
      <trkpt lat="47.10436" lon="-2.06679">
        <ele>85</ele>
        <time>2022-08-20T09:57:49Z</time>
      </trkpt>
      <trkpt lat="47.10432" lon="-2.06662">
        <ele>85</ele>
        <time>2022-08-20T09:57:51Z</time>
      </trkpt>
      <trkpt lat="47.10427" lon="-2.06645">
        <ele>85</ele>
        <time>2022-08-20T09:57:53Z</time>
      </trkpt>
      <trkpt lat="47.10422" lon="-2.06628">
        <ele>85</ele>
        <time>2022-08-20T09:57:55Z</time>
      </trkpt>
      <trkpt lat="47.10417" lon="-2.06612">
        <ele>85</ele>
        <time>2022-08-20T09:57:57Z</time>
      </trkpt>
      <trkpt lat="47.10412" lon="-2.06597">
        <ele>85</ele>
        <time>2022-08-20T09:57:59Z</time>
      </trkpt>
      <trkpt lat="47.1041" lon="-2.06581">
        <ele>84</ele>
        <time>2022-08-20T09:58:01Z</time>
      </trkpt>
      <trkpt lat="47.10404" lon="-2.06564">
        <ele>84</ele>
        <time>2022-08-20T09:58:03Z</time>
      </trkpt>
      <trkpt lat="47.10399" lon="-2.06547">
        <ele>85</ele>
        <time>2022-08-20T09:58:05Z</time>
      </trkpt>
      <trkpt lat="47.10394" lon="-2.0653">
        <ele>85</ele>
        <time>2022-08-20T09:58:07Z</time>
      </trkpt>
      <trkpt lat="47.10389" lon="-2.06513">
        <ele>85</ele>
        <time>2022-08-20T09:58:09Z</time>
      </trkpt>
      <trkpt lat="47.10384" lon="-2.06495">
        <ele>84</ele>
        <time>2022-08-20T09:58:11Z</time>
      </trkpt>
      <trkpt lat="47.10379" lon="-2.06478">
        <ele>84</ele>
        <time>2022-08-20T09:58:13Z</time>
      </trkpt>
      <trkpt lat="47.10374" lon="-2.0646">
        <ele>85</ele>
        <time>2022-08-20T09:58:15Z</time>
      </trkpt>
      <trkpt lat="47.1037" lon="-2.06442">
        <ele>85</ele>
        <time>2022-08-20T09:58:17Z</time>
      </trkpt>
      <trkpt lat="47.10362" lon="-2.06417">
        <ele>85</ele>
        <time>2022-08-20T09:58:20Z</time>
      </trkpt>
      <trkpt lat="47.10357" lon="-2.064">
        <ele>85</ele>
        <time>2022-08-20T09:58:22Z</time>
      </trkpt>
      <trkpt lat="47.10352" lon="-2.06383">
        <ele>85</ele>
        <time>2022-08-20T09:58:24Z</time>
      </trkpt>
      <trkpt lat="47.10346" lon="-2.06366">
        <ele>85</ele>
        <time>2022-08-20T09:58:26Z</time>
      </trkpt>
      <trkpt lat="47.10342" lon="-2.06349">
        <ele>84</ele>
        <time>2022-08-20T09:58:28Z</time>
      </trkpt>
      <trkpt lat="47.10337" lon="-2.06332">
        <ele>84</ele>
        <time>2022-08-20T09:58:30Z</time>
      </trkpt>
      <trkpt lat="47.10332" lon="-2.06315">
        <ele>85</ele>
        <time>2022-08-20T09:58:32Z</time>
      </trkpt>
      <trkpt lat="47.10327" lon="-2.06298">
        <ele>85</ele>
        <time>2022-08-20T09:58:34Z</time>
      </trkpt>
      <trkpt lat="47.10323" lon="-2.06281">
        <ele>85</ele>
        <time>2022-08-20T09:58:36Z</time>
      </trkpt>
      <trkpt lat="47.10317" lon="-2.06265">
        <ele>86</ele>
        <time>2022-08-20T09:58:38Z</time>
      </trkpt>
      <trkpt lat="47.10313" lon="-2.06248">
        <ele>86</ele>
        <time>2022-08-20T09:58:40Z</time>
      </trkpt>
      <trkpt lat="47.10308" lon="-2.06232">
        <ele>86</ele>
        <time>2022-08-20T09:58:42Z</time>
      </trkpt>
      <trkpt lat="47.10302" lon="-2.06216">
        <ele>87</ele>
        <time>2022-08-20T09:58:44Z</time>
      </trkpt>
      <trkpt lat="47.10298" lon="-2.06198">
        <ele>86</ele>
        <time>2022-08-20T09:58:46Z</time>
      </trkpt>
      <trkpt lat="47.10292" lon="-2.06181">
        <ele>86</ele>
        <time>2022-08-20T09:58:48Z</time>
      </trkpt>
      <trkpt lat="47.10287" lon="-2.06164">
        <ele>86</ele>
        <time>2022-08-20T09:58:50Z</time>
      </trkpt>
      <trkpt lat="47.10281" lon="-2.06148">
        <ele>87</ele>
        <time>2022-08-20T09:58:52Z</time>
      </trkpt>
      <trkpt lat="47.10276" lon="-2.0613">
        <ele>87</ele>
        <time>2022-08-20T09:58:54Z</time>
      </trkpt>
      <trkpt lat="47.1027" lon="-2.06114">
        <ele>87</ele>
        <time>2022-08-20T09:58:56Z</time>
      </trkpt>
      <trkpt lat="47.10266" lon="-2.06098">
        <ele>87</ele>
        <time>2022-08-20T09:58:58Z</time>
      </trkpt>
      <trkpt lat="47.10261" lon="-2.06084">
        <ele>87</ele>
        <time>2022-08-20T09:59:00Z</time>
      </trkpt>
      <trkpt lat="47.10255" lon="-2.06068">
        <ele>87</ele>
        <time>2022-08-20T09:59:02Z</time>
      </trkpt>
      <trkpt lat="47.1025" lon="-2.06051">
        <ele>87</ele>
        <time>2022-08-20T09:59:04Z</time>
      </trkpt>
      <trkpt lat="47.10245" lon="-2.06032">
        <ele>86</ele>
        <time>2022-08-20T09:59:06Z</time>
      </trkpt>
      <trkpt lat="47.10239" lon="-2.06015">
        <ele>87</ele>
        <time>2022-08-20T09:59:08Z</time>
      </trkpt>
      <trkpt lat="47.10233" lon="-2.05997">
        <ele>86</ele>
        <time>2022-08-20T09:59:10Z</time>
      </trkpt>
      <trkpt lat="47.10227" lon="-2.0598">
        <ele>86</ele>
        <time>2022-08-20T09:59:12Z</time>
      </trkpt>
      <trkpt lat="47.10222" lon="-2.05963">
        <ele>86</ele>
        <time>2022-08-20T09:59:14Z</time>
      </trkpt>
      <trkpt lat="47.10216" lon="-2.05947">
        <ele>87</ele>
        <time>2022-08-20T09:59:16Z</time>
      </trkpt>
      <trkpt lat="47.10211" lon="-2.0593">
        <ele>86</ele>
        <time>2022-08-20T09:59:18Z</time>
      </trkpt>
      <trkpt lat="47.10205" lon="-2.05913">
        <ele>86</ele>
        <time>2022-08-20T09:59:20Z</time>
      </trkpt>
      <trkpt lat="47.102" lon="-2.05896">
        <ele>86</ele>
        <time>2022-08-20T09:59:22Z</time>
      </trkpt>
      <trkpt lat="47.10194" lon="-2.05879">
        <ele>86</ele>
        <time>2022-08-20T09:59:24Z</time>
      </trkpt>
      <trkpt lat="47.10189" lon="-2.05862">
        <ele>86</ele>
        <time>2022-08-20T09:59:26Z</time>
      </trkpt>
      <trkpt lat="47.10183" lon="-2.05845">
        <ele>86</ele>
        <time>2022-08-20T09:59:28Z</time>
      </trkpt>
      <trkpt lat="47.10177" lon="-2.05828">
        <ele>87</ele>
        <time>2022-08-20T09:59:30Z</time>
      </trkpt>
      <trkpt lat="47.10172" lon="-2.0581">
        <ele>87</ele>
        <time>2022-08-20T09:59:32Z</time>
      </trkpt>
      <trkpt lat="47.10166" lon="-2.05793">
        <ele>87</ele>
        <time>2022-08-20T09:59:34Z</time>
      </trkpt>
      <trkpt lat="47.10161" lon="-2.05777">
        <ele>86</ele>
        <time>2022-08-20T09:59:36Z</time>
      </trkpt>
      <trkpt lat="47.10155" lon="-2.0576">
        <ele>86</ele>
        <time>2022-08-20T09:59:38Z</time>
      </trkpt>
      <trkpt lat="47.1015" lon="-2.05742">
        <ele>86</ele>
        <time>2022-08-20T09:59:40Z</time>
      </trkpt>
      <trkpt lat="47.10144" lon="-2.05725">
        <ele>86</ele>
        <time>2022-08-20T09:59:42Z</time>
      </trkpt>
      <trkpt lat="47.10139" lon="-2.05708">
        <ele>86</ele>
        <time>2022-08-20T09:59:44Z</time>
      </trkpt>
      <trkpt lat="47.10133" lon="-2.05693">
        <ele>87</ele>
        <time>2022-08-20T09:59:46Z</time>
      </trkpt>
      <trkpt lat="47.10127" lon="-2.05675">
        <ele>87</ele>
        <time>2022-08-20T09:59:48Z</time>
      </trkpt>
      <trkpt lat="47.10121" lon="-2.05656">
        <ele>87</ele>
        <time>2022-08-20T09:59:50Z</time>
      </trkpt>
      <trkpt lat="47.10115" lon="-2.05639">
        <ele>88</ele>
        <time>2022-08-20T09:59:52Z</time>
      </trkpt>
      <trkpt lat="47.1011" lon="-2.05621">
        <ele>88</ele>
        <time>2022-08-20T09:59:54Z</time>
      </trkpt>
      <trkpt lat="47.10103" lon="-2.05604">
        <ele>87</ele>
        <time>2022-08-20T09:59:56Z</time>
      </trkpt>
      <trkpt lat="47.10098" lon="-2.05587">
        <ele>87</ele>
        <time>2022-08-20T09:59:58Z</time>
      </trkpt>
      <trkpt lat="47.10091" lon="-2.0557">
        <ele>87</ele>
        <time>2022-08-20T10:00:00Z</time>
      </trkpt>
      <trkpt lat="47.10085" lon="-2.05552">
        <ele>87</ele>
        <time>2022-08-20T10:00:02Z</time>
      </trkpt>
      <trkpt lat="47.10079" lon="-2.05534">
        <ele>87</ele>
        <time>2022-08-20T10:00:04Z</time>
      </trkpt>
      <trkpt lat="47.10074" lon="-2.05516">
        <ele>86</ele>
        <time>2022-08-20T10:00:06Z</time>
      </trkpt>
      <trkpt lat="47.10068" lon="-2.05498">
        <ele>86</ele>
        <time>2022-08-20T10:00:08Z</time>
      </trkpt>
      <trkpt lat="47.10063" lon="-2.0548">
        <ele>86</ele>
        <time>2022-08-20T10:00:10Z</time>
      </trkpt>
      <trkpt lat="47.10057" lon="-2.05462">
        <ele>86</ele>
        <time>2022-08-20T10:00:12Z</time>
      </trkpt>
      <trkpt lat="47.1005" lon="-2.05444">
        <ele>86</ele>
        <time>2022-08-20T10:00:14Z</time>
      </trkpt>
      <trkpt lat="47.10044" lon="-2.05426">
        <ele>86</ele>
        <time>2022-08-20T10:00:16Z</time>
      </trkpt>
      <trkpt lat="47.10039" lon="-2.05408">
        <ele>86</ele>
        <time>2022-08-20T10:00:18Z</time>
      </trkpt>
      <trkpt lat="47.10032" lon="-2.0539">
        <ele>87</ele>
        <time>2022-08-20T10:00:20Z</time>
      </trkpt>
      <trkpt lat="47.10026" lon="-2.05371">
        <ele>86</ele>
        <time>2022-08-20T10:00:22Z</time>
      </trkpt>
      <trkpt lat="47.1002" lon="-2.05353">
        <ele>86</ele>
        <time>2022-08-20T10:00:24Z</time>
      </trkpt>
      <trkpt lat="47.10015" lon="-2.05335">
        <ele>85</ele>
        <time>2022-08-20T10:00:26Z</time>
      </trkpt>
      <trkpt lat="47.10009" lon="-2.05317">
        <ele>86</ele>
        <time>2022-08-20T10:00:28Z</time>
      </trkpt>
      <trkpt lat="47.10003" lon="-2.05299">
        <ele>86</ele>
        <time>2022-08-20T10:00:30Z</time>
      </trkpt>
      <trkpt lat="47.09997" lon="-2.05281">
        <ele>86</ele>
        <time>2022-08-20T10:00:32Z</time>
      </trkpt>
      <trkpt lat="47.09991" lon="-2.05262">
        <ele>85</ele>
        <time>2022-08-20T10:00:34Z</time>
      </trkpt>
      <trkpt lat="47.09985" lon="-2.05244">
        <ele>85</ele>
        <time>2022-08-20T10:00:36Z</time>
      </trkpt>
      <trkpt lat="47.09979" lon="-2.05226">
        <ele>85</ele>
        <time>2022-08-20T10:00:38Z</time>
      </trkpt>
      <trkpt lat="47.09973" lon="-2.05207">
        <ele>84</ele>
        <time>2022-08-20T10:00:40Z</time>
      </trkpt>
      <trkpt lat="47.09967" lon="-2.05189">
        <ele>84</ele>
        <time>2022-08-20T10:00:42Z</time>
      </trkpt>
      <trkpt lat="47.0996" lon="-2.05171">
        <ele>84</ele>
        <time>2022-08-20T10:00:44Z</time>
      </trkpt>
      <trkpt lat="47.09954" lon="-2.05153">
        <ele>84</ele>
        <time>2022-08-20T10:00:46Z</time>
      </trkpt>
      <trkpt lat="47.09948" lon="-2.05135">
        <ele>85</ele>
        <time>2022-08-20T10:00:48Z</time>
      </trkpt>
      <trkpt lat="47.09942" lon="-2.05116">
        <ele>85</ele>
        <time>2022-08-20T10:00:50Z</time>
      </trkpt>
      <trkpt lat="47.09936" lon="-2.05097">
        <ele>85</ele>
        <time>2022-08-20T10:00:52Z</time>
      </trkpt>
      <trkpt lat="47.0993" lon="-2.05079">
        <ele>84</ele>
        <time>2022-08-20T10:00:54Z</time>
      </trkpt>
      <trkpt lat="47.09924" lon="-2.05061">
        <ele>84</ele>
        <time>2022-08-20T10:00:56Z</time>
      </trkpt>
      <trkpt lat="47.09918" lon="-2.05042">
        <ele>84</ele>
        <time>2022-08-20T10:00:58Z</time>
      </trkpt>
      <trkpt lat="47.09912" lon="-2.05024">
        <ele>84</ele>
        <time>2022-08-20T10:01:00Z</time>
      </trkpt>
      <trkpt lat="47.09906" lon="-2.05006">
        <ele>83</ele>
        <time>2022-08-20T10:01:02Z</time>
      </trkpt>
      <trkpt lat="47.09902" lon="-2.0499">
        <ele>83</ele>
        <time>2022-08-20T10:01:04Z</time>
      </trkpt>
      <trkpt lat="47.09896" lon="-2.0498">
        <ele>83</ele>
        <time>2022-08-20T10:01:06Z</time>
      </trkpt>
      <trkpt lat="47.09891" lon="-2.04966">
        <ele>83</ele>
        <time>2022-08-20T10:01:08Z</time>
      </trkpt>
      <trkpt lat="47.0989" lon="-2.04948">
        <ele>83</ele>
        <time>2022-08-20T10:01:10Z</time>
      </trkpt>
      <trkpt lat="47.09883" lon="-2.04929">
        <ele>81</ele>
        <time>2022-08-20T10:01:12Z</time>
      </trkpt>
      <trkpt lat="47.09877" lon="-2.04912">
        <ele>82</ele>
        <time>2022-08-20T10:01:14Z</time>
      </trkpt>
      <trkpt lat="47.09872" lon="-2.04892">
        <ele>82</ele>
        <time>2022-08-20T10:01:16Z</time>
      </trkpt>
      <trkpt lat="47.09866" lon="-2.04874">
        <ele>82</ele>
        <time>2022-08-20T10:01:18Z</time>
      </trkpt>
      <trkpt lat="47.0986" lon="-2.04855">
        <ele>82</ele>
        <time>2022-08-20T10:01:20Z</time>
      </trkpt>
      <trkpt lat="47.09855" lon="-2.04835">
        <ele>82</ele>
        <time>2022-08-20T10:01:22Z</time>
      </trkpt>
      <trkpt lat="47.0985" lon="-2.04817">
        <ele>82</ele>
        <time>2022-08-20T10:01:24Z</time>
      </trkpt>
      <trkpt lat="47.09844" lon="-2.04798">
        <ele>82</ele>
        <time>2022-08-20T10:01:26Z</time>
      </trkpt>
      <trkpt lat="47.09838" lon="-2.04779">
        <ele>82</ele>
        <time>2022-08-20T10:01:28Z</time>
      </trkpt>
      <trkpt lat="47.09833" lon="-2.0476">
        <ele>81</ele>
        <time>2022-08-20T10:01:30Z</time>
      </trkpt>
      <trkpt lat="47.09828" lon="-2.04741">
        <ele>81</ele>
        <time>2022-08-20T10:01:32Z</time>
      </trkpt>
      <trkpt lat="47.09821" lon="-2.04722">
        <ele>81</ele>
        <time>2022-08-20T10:01:34Z</time>
      </trkpt>
      <trkpt lat="47.0981" lon="-2.0471">
        <ele>82</ele>
        <time>2022-08-20T10:01:36Z</time>
      </trkpt>
      <trkpt lat="47.09799" lon="-2.04698">
        <ele>82</ele>
        <time>2022-08-20T10:01:38Z</time>
      </trkpt>
      <trkpt lat="47.09787" lon="-2.04688">
        <ele>82</ele>
        <time>2022-08-20T10:01:40Z</time>
      </trkpt>
      <trkpt lat="47.09774" lon="-2.04681">
        <ele>82</ele>
        <time>2022-08-20T10:01:42Z</time>
      </trkpt>
      <trkpt lat="47.0976" lon="-2.04677">
        <ele>82</ele>
        <time>2022-08-20T10:01:44Z</time>
      </trkpt>
      <trkpt lat="47.09746" lon="-2.04674">
        <ele>81</ele>
        <time>2022-08-20T10:01:46Z</time>
      </trkpt>
      <trkpt lat="47.09731" lon="-2.0467">
        <ele>82</ele>
        <time>2022-08-20T10:01:48Z</time>
      </trkpt>
      <trkpt lat="47.09718" lon="-2.04666">
        <ele>82</ele>
        <time>2022-08-20T10:01:50Z</time>
      </trkpt>
      <trkpt lat="47.09705" lon="-2.04662">
        <ele>82</ele>
        <time>2022-08-20T10:01:52Z</time>
      </trkpt>
      <trkpt lat="47.09691" lon="-2.04658">
        <ele>81</ele>
        <time>2022-08-20T10:01:54Z</time>
      </trkpt>
      <trkpt lat="47.09678" lon="-2.04655">
        <ele>82</ele>
        <time>2022-08-20T10:01:56Z</time>
      </trkpt>
      <trkpt lat="47.09666" lon="-2.04651">
        <ele>81</ele>
        <time>2022-08-20T10:01:58Z</time>
      </trkpt>
      <trkpt lat="47.09653" lon="-2.04648">
        <ele>82</ele>
        <time>2022-08-20T10:02:00Z</time>
      </trkpt>
      <trkpt lat="47.0964" lon="-2.04645">
        <ele>82</ele>
        <time>2022-08-20T10:02:02Z</time>
      </trkpt>
      <trkpt lat="47.09629" lon="-2.04641">
        <ele>82</ele>
        <time>2022-08-20T10:02:04Z</time>
      </trkpt>
      <trkpt lat="47.09616" lon="-2.04637">
        <ele>82</ele>
        <time>2022-08-20T10:02:06Z</time>
      </trkpt>
      <trkpt lat="47.09603" lon="-2.04633">
        <ele>82</ele>
        <time>2022-08-20T10:02:08Z</time>
      </trkpt>
      <trkpt lat="47.0959" lon="-2.04629">
        <ele>82</ele>
        <time>2022-08-20T10:02:10Z</time>
      </trkpt>
      <trkpt lat="47.09578" lon="-2.04625">
        <ele>82</ele>
        <time>2022-08-20T10:02:12Z</time>
      </trkpt>
      <trkpt lat="47.09565" lon="-2.04622">
        <ele>82</ele>
        <time>2022-08-20T10:02:14Z</time>
      </trkpt>
      <trkpt lat="47.09553" lon="-2.04618">
        <ele>82</ele>
        <time>2022-08-20T10:02:16Z</time>
      </trkpt>
      <trkpt lat="47.0954" lon="-2.04615">
        <ele>82</ele>
        <time>2022-08-20T10:02:18Z</time>
      </trkpt>
      <trkpt lat="47.09527" lon="-2.04611">
        <ele>83</ele>
        <time>2022-08-20T10:02:20Z</time>
      </trkpt>
      <trkpt lat="47.09514" lon="-2.04607">
        <ele>83</ele>
        <time>2022-08-20T10:02:22Z</time>
      </trkpt>
      <trkpt lat="47.09501" lon="-2.04604">
        <ele>82</ele>
        <time>2022-08-20T10:02:24Z</time>
      </trkpt>
      <trkpt lat="47.09488" lon="-2.046">
        <ele>81</ele>
        <time>2022-08-20T10:02:26Z</time>
      </trkpt>
      <trkpt lat="47.09474" lon="-2.04596">
        <ele>80</ele>
        <time>2022-08-20T10:02:28Z</time>
      </trkpt>
      <trkpt lat="47.0946" lon="-2.04592">
        <ele>80</ele>
        <time>2022-08-20T10:02:30Z</time>
      </trkpt>
      <trkpt lat="47.09446" lon="-2.04588">
        <ele>79</ele>
        <time>2022-08-20T10:02:32Z</time>
      </trkpt>
      <trkpt lat="47.09432" lon="-2.04584">
        <ele>78</ele>
        <time>2022-08-20T10:02:34Z</time>
      </trkpt>
      <trkpt lat="47.09417" lon="-2.04582">
        <ele>78</ele>
        <time>2022-08-20T10:02:36Z</time>
      </trkpt>
      <trkpt lat="47.09401" lon="-2.04581">
        <ele>77</ele>
        <time>2022-08-20T10:02:38Z</time>
      </trkpt>
      <trkpt lat="47.09386" lon="-2.04581">
        <ele>76</ele>
        <time>2022-08-20T10:02:40Z</time>
      </trkpt>
      <trkpt lat="47.09371" lon="-2.04582">
        <ele>76</ele>
        <time>2022-08-20T10:02:42Z</time>
      </trkpt>
      <trkpt lat="47.09357" lon="-2.04584">
        <ele>77</ele>
        <time>2022-08-20T10:02:44Z</time>
      </trkpt>
      <trkpt lat="47.09343" lon="-2.04588">
        <ele>77</ele>
        <time>2022-08-20T10:02:46Z</time>
      </trkpt>
      <trkpt lat="47.09329" lon="-2.04595">
        <ele>77</ele>
        <time>2022-08-20T10:02:48Z</time>
      </trkpt>
      <trkpt lat="47.09317" lon="-2.04603">
        <ele>77</ele>
        <time>2022-08-20T10:02:50Z</time>
      </trkpt>
      <trkpt lat="47.09305" lon="-2.04612">
        <ele>77</ele>
        <time>2022-08-20T10:02:52Z</time>
      </trkpt>
      <trkpt lat="47.09294" lon="-2.04621">
        <ele>77</ele>
        <time>2022-08-20T10:02:54Z</time>
      </trkpt>
      <trkpt lat="47.09284" lon="-2.04631">
        <ele>76</ele>
        <time>2022-08-20T10:02:56Z</time>
      </trkpt>
      <trkpt lat="47.09274" lon="-2.04641">
        <ele>77</ele>
        <time>2022-08-20T10:02:58Z</time>
      </trkpt>
      <trkpt lat="47.09264" lon="-2.0465">
        <ele>76</ele>
        <time>2022-08-20T10:03:00Z</time>
      </trkpt>
      <trkpt lat="47.09254" lon="-2.04659">
        <ele>77</ele>
        <time>2022-08-20T10:03:02Z</time>
      </trkpt>
      <trkpt lat="47.09243" lon="-2.04667">
        <ele>77</ele>
        <time>2022-08-20T10:03:04Z</time>
      </trkpt>
      <trkpt lat="47.09233" lon="-2.04676">
        <ele>77</ele>
        <time>2022-08-20T10:03:06Z</time>
      </trkpt>
      <trkpt lat="47.09223" lon="-2.04684">
        <ele>77</ele>
        <time>2022-08-20T10:03:08Z</time>
      </trkpt>
      <trkpt lat="47.09213" lon="-2.04692">
        <ele>77</ele>
        <time>2022-08-20T10:03:10Z</time>
      </trkpt>
      <trkpt lat="47.09203" lon="-2.04701">
        <ele>77</ele>
        <time>2022-08-20T10:03:12Z</time>
      </trkpt>
      <trkpt lat="47.09193" lon="-2.04709">
        <ele>77</ele>
        <time>2022-08-20T10:03:14Z</time>
      </trkpt>
      <trkpt lat="47.09183" lon="-2.04717">
        <ele>78</ele>
        <time>2022-08-20T10:03:16Z</time>
      </trkpt>
      <trkpt lat="47.09173" lon="-2.04725">
        <ele>78</ele>
        <time>2022-08-20T10:03:18Z</time>
      </trkpt>
      <trkpt lat="47.09163" lon="-2.04734">
        <ele>78</ele>
        <time>2022-08-20T10:03:20Z</time>
      </trkpt>
      <trkpt lat="47.09153" lon="-2.04742">
        <ele>79</ele>
        <time>2022-08-20T10:03:22Z</time>
      </trkpt>
      <trkpt lat="47.09143" lon="-2.04751">
        <ele>79</ele>
        <time>2022-08-20T10:03:24Z</time>
      </trkpt>
      <trkpt lat="47.09134" lon="-2.04759">
        <ele>79</ele>
        <time>2022-08-20T10:03:26Z</time>
      </trkpt>
      <trkpt lat="47.09124" lon="-2.04767">
        <ele>79</ele>
        <time>2022-08-20T10:03:28Z</time>
      </trkpt>
      <trkpt lat="47.09113" lon="-2.04775">
        <ele>79</ele>
        <time>2022-08-20T10:03:30Z</time>
      </trkpt>
      <trkpt lat="47.09104" lon="-2.04784">
        <ele>79</ele>
        <time>2022-08-20T10:03:32Z</time>
      </trkpt>
      <trkpt lat="47.09093" lon="-2.04792">
        <ele>79</ele>
        <time>2022-08-20T10:03:34Z</time>
      </trkpt>
      <trkpt lat="47.09082" lon="-2.04801">
        <ele>79</ele>
        <time>2022-08-20T10:03:36Z</time>
      </trkpt>
      <trkpt lat="47.09071" lon="-2.04808">
        <ele>80</ele>
        <time>2022-08-20T10:03:38Z</time>
      </trkpt>
      <trkpt lat="47.09059" lon="-2.04815">
        <ele>80</ele>
        <time>2022-08-20T10:03:40Z</time>
      </trkpt>
      <trkpt lat="47.09046" lon="-2.04822">
        <ele>79</ele>
        <time>2022-08-20T10:03:42Z</time>
      </trkpt>
      <trkpt lat="47.09032" lon="-2.04827">
        <ele>80</ele>
        <time>2022-08-20T10:03:44Z</time>
      </trkpt>
      <trkpt lat="47.09018" lon="-2.04831">
        <ele>80</ele>
        <time>2022-08-20T10:03:46Z</time>
      </trkpt>
      <trkpt lat="47.09004" lon="-2.04832">
        <ele>79</ele>
        <time>2022-08-20T10:03:48Z</time>
      </trkpt>
      <trkpt lat="47.08989" lon="-2.04831">
        <ele>79</ele>
        <time>2022-08-20T10:03:50Z</time>
      </trkpt>
      <trkpt lat="47.08975" lon="-2.0483">
        <ele>78</ele>
        <time>2022-08-20T10:03:52Z</time>
      </trkpt>
      <trkpt lat="47.08961" lon="-2.04826">
        <ele>78</ele>
        <time>2022-08-20T10:03:54Z</time>
      </trkpt>
      <trkpt lat="47.08947" lon="-2.0482">
        <ele>77</ele>
        <time>2022-08-20T10:03:56Z</time>
      </trkpt>
      <trkpt lat="47.08933" lon="-2.04813">
        <ele>77</ele>
        <time>2022-08-20T10:03:58Z</time>
      </trkpt>
      <trkpt lat="47.0892" lon="-2.04806">
        <ele>77</ele>
        <time>2022-08-20T10:04:00Z</time>
      </trkpt>
      <trkpt lat="47.08906" lon="-2.04798">
        <ele>77</ele>
        <time>2022-08-20T10:04:02Z</time>
      </trkpt>
      <trkpt lat="47.08893" lon="-2.04789">
        <ele>77</ele>
        <time>2022-08-20T10:04:04Z</time>
      </trkpt>
      <trkpt lat="47.08882" lon="-2.04777">
        <ele>76</ele>
        <time>2022-08-20T10:04:06Z</time>
      </trkpt>
      <trkpt lat="47.0887" lon="-2.04766">
        <ele>76</ele>
        <time>2022-08-20T10:04:08Z</time>
      </trkpt>
      <trkpt lat="47.08858" lon="-2.04753">
        <ele>75</ele>
        <time>2022-08-20T10:04:10Z</time>
      </trkpt>
      <trkpt lat="47.08846" lon="-2.0474">
        <ele>75</ele>
        <time>2022-08-20T10:04:12Z</time>
      </trkpt>
      <trkpt lat="47.08835" lon="-2.04727">
        <ele>74</ele>
        <time>2022-08-20T10:04:14Z</time>
      </trkpt>
      <trkpt lat="47.08822" lon="-2.04713">
        <ele>74</ele>
        <time>2022-08-20T10:04:16Z</time>
      </trkpt>
      <trkpt lat="47.08809" lon="-2.047">
        <ele>73</ele>
        <time>2022-08-20T10:04:18Z</time>
      </trkpt>
      <trkpt lat="47.08796" lon="-2.04686">
        <ele>73</ele>
        <time>2022-08-20T10:04:20Z</time>
      </trkpt>
      <trkpt lat="47.08783" lon="-2.04673">
        <ele>73</ele>
        <time>2022-08-20T10:04:22Z</time>
      </trkpt>
      <trkpt lat="47.0877" lon="-2.04658">
        <ele>72</ele>
        <time>2022-08-20T10:04:24Z</time>
      </trkpt>
      <trkpt lat="47.08759" lon="-2.04645">
        <ele>71</ele>
        <time>2022-08-20T10:04:26Z</time>
      </trkpt>
      <trkpt lat="47.08746" lon="-2.04631">
        <ele>70</ele>
        <time>2022-08-20T10:04:28Z</time>
      </trkpt>
      <trkpt lat="47.08734" lon="-2.04618">
        <ele>69</ele>
        <time>2022-08-20T10:04:30Z</time>
      </trkpt>
      <trkpt lat="47.08722" lon="-2.04605">
        <ele>68</ele>
        <time>2022-08-20T10:04:32Z</time>
      </trkpt>
      <trkpt lat="47.0871" lon="-2.04593">
        <ele>68</ele>
        <time>2022-08-20T10:04:34Z</time>
      </trkpt>
      <trkpt lat="47.08698" lon="-2.04579">
        <ele>67</ele>
        <time>2022-08-20T10:04:36Z</time>
      </trkpt>
      <trkpt lat="47.08686" lon="-2.04566">
        <ele>67</ele>
        <time>2022-08-20T10:04:38Z</time>
      </trkpt>
      <trkpt lat="47.08673" lon="-2.04552">
        <ele>66</ele>
        <time>2022-08-20T10:04:40Z</time>
      </trkpt>
      <trkpt lat="47.08661" lon="-2.04539">
        <ele>66</ele>
        <time>2022-08-20T10:04:42Z</time>
      </trkpt>
      <trkpt lat="47.08648" lon="-2.04527">
        <ele>65</ele>
        <time>2022-08-20T10:04:44Z</time>
      </trkpt>
      <trkpt lat="47.08637" lon="-2.04514">
        <ele>65</ele>
        <time>2022-08-20T10:04:46Z</time>
      </trkpt>
      <trkpt lat="47.08626" lon="-2.04503">
        <ele>65</ele>
        <time>2022-08-20T10:04:48Z</time>
      </trkpt>
      <trkpt lat="47.08615" lon="-2.04492">
        <ele>65</ele>
        <time>2022-08-20T10:04:50Z</time>
      </trkpt>
      <trkpt lat="47.08604" lon="-2.0448">
        <ele>65</ele>
        <time>2022-08-20T10:04:52Z</time>
      </trkpt>
      <trkpt lat="47.08594" lon="-2.04468">
        <ele>66</ele>
        <time>2022-08-20T10:04:54Z</time>
      </trkpt>
      <trkpt lat="47.08583" lon="-2.04455">
        <ele>66</ele>
        <time>2022-08-20T10:04:56Z</time>
      </trkpt>
      <trkpt lat="47.08573" lon="-2.04443">
        <ele>66</ele>
        <time>2022-08-20T10:04:58Z</time>
      </trkpt>
      <trkpt lat="47.08563" lon="-2.04429">
        <ele>66</ele>
        <time>2022-08-20T10:05:00Z</time>
      </trkpt>
      <trkpt lat="47.08553" lon="-2.04415">
        <ele>66</ele>
        <time>2022-08-20T10:05:02Z</time>
      </trkpt>
      <trkpt lat="47.08543" lon="-2.044">
        <ele>66</ele>
        <time>2022-08-20T10:05:04Z</time>
      </trkpt>
      <trkpt lat="47.08534" lon="-2.04384">
        <ele>66</ele>
        <time>2022-08-20T10:05:06Z</time>
      </trkpt>
      <trkpt lat="47.08525" lon="-2.04367">
        <ele>66</ele>
        <time>2022-08-20T10:05:08Z</time>
      </trkpt>
      <trkpt lat="47.08516" lon="-2.0435">
        <ele>65</ele>
        <time>2022-08-20T10:05:10Z</time>
      </trkpt>
      <trkpt lat="47.08507" lon="-2.04333">
        <ele>65</ele>
        <time>2022-08-20T10:05:12Z</time>
      </trkpt>
      <trkpt lat="47.08498" lon="-2.04316">
        <ele>64</ele>
        <time>2022-08-20T10:05:14Z</time>
      </trkpt>
      <trkpt lat="47.08489" lon="-2.043">
        <ele>63</ele>
        <time>2022-08-20T10:05:16Z</time>
      </trkpt>
      <trkpt lat="47.0848" lon="-2.04283">
        <ele>63</ele>
        <time>2022-08-20T10:05:18Z</time>
      </trkpt>
      <trkpt lat="47.08472" lon="-2.04266">
        <ele>63</ele>
        <time>2022-08-20T10:05:20Z</time>
      </trkpt>
      <trkpt lat="47.08464" lon="-2.0425">
        <ele>63</ele>
        <time>2022-08-20T10:05:22Z</time>
      </trkpt>
      <trkpt lat="47.08456" lon="-2.04234">
        <ele>63</ele>
        <time>2022-08-20T10:05:24Z</time>
      </trkpt>
      <trkpt lat="47.08447" lon="-2.04218">
        <ele>62</ele>
        <time>2022-08-20T10:05:26Z</time>
      </trkpt>
      <trkpt lat="47.08437" lon="-2.04202">
        <ele>62</ele>
        <time>2022-08-20T10:05:28Z</time>
      </trkpt>
      <trkpt lat="47.08428" lon="-2.04187">
        <ele>62</ele>
        <time>2022-08-20T10:05:30Z</time>
      </trkpt>
      <trkpt lat="47.08419" lon="-2.04172">
        <ele>62</ele>
        <time>2022-08-20T10:05:32Z</time>
      </trkpt>
      <trkpt lat="47.0841" lon="-2.04157">
        <ele>61</ele>
        <time>2022-08-20T10:05:34Z</time>
      </trkpt>
      <trkpt lat="47.084" lon="-2.04142">
        <ele>61</ele>
        <time>2022-08-20T10:05:36Z</time>
      </trkpt>
      <trkpt lat="47.08388" lon="-2.04129">
        <ele>61</ele>
        <time>2022-08-20T10:05:38Z</time>
      </trkpt>
      <trkpt lat="47.08376" lon="-2.04116">
        <ele>61</ele>
        <time>2022-08-20T10:05:40Z</time>
      </trkpt>
      <trkpt lat="47.08364" lon="-2.04104">
        <ele>61</ele>
        <time>2022-08-20T10:05:42Z</time>
      </trkpt>
      <trkpt lat="47.08352" lon="-2.04093">
        <ele>60</ele>
        <time>2022-08-20T10:05:44Z</time>
      </trkpt>
      <trkpt lat="47.0834" lon="-2.0408">
        <ele>60</ele>
        <time>2022-08-20T10:05:46Z</time>
      </trkpt>
      <trkpt lat="47.08329" lon="-2.04069">
        <ele>59</ele>
        <time>2022-08-20T10:05:48Z</time>
      </trkpt>
      <trkpt lat="47.08317" lon="-2.04057">
        <ele>59</ele>
        <time>2022-08-20T10:05:50Z</time>
      </trkpt>
      <trkpt lat="47.08305" lon="-2.04045">
        <ele>60</ele>
        <time>2022-08-20T10:05:52Z</time>
      </trkpt>
      <trkpt lat="47.08295" lon="-2.04033">
        <ele>59</ele>
        <time>2022-08-20T10:05:54Z</time>
      </trkpt>
      <trkpt lat="47.08285" lon="-2.04022">
        <ele>58</ele>
        <time>2022-08-20T10:05:56Z</time>
      </trkpt>
      <trkpt lat="47.08275" lon="-2.04012">
        <ele>59</ele>
        <time>2022-08-20T10:05:58Z</time>
      </trkpt>
      <trkpt lat="47.08264" lon="-2.04002">
        <ele>59</ele>
        <time>2022-08-20T10:06:00Z</time>
      </trkpt>
      <trkpt lat="47.08255" lon="-2.03992">
        <ele>59</ele>
        <time>2022-08-20T10:06:02Z</time>
      </trkpt>
      <trkpt lat="47.08247" lon="-2.03983">
        <ele>58</ele>
        <time>2022-08-20T10:06:04Z</time>
      </trkpt>
      <trkpt lat="47.0824" lon="-2.03975">
        <ele>58</ele>
        <time>2022-08-20T10:06:06Z</time>
      </trkpt>
      <trkpt lat="47.0823" lon="-2.03964">
        <ele>59</ele>
        <time>2022-08-20T10:06:09Z</time>
      </trkpt>
      <trkpt lat="47.08219" lon="-2.03954">
        <ele>60</ele>
        <time>2022-08-20T10:06:12Z</time>
      </trkpt>
      <trkpt lat="47.08209" lon="-2.03943">
        <ele>59</ele>
        <time>2022-08-20T10:06:15Z</time>
      </trkpt>
      <trkpt lat="47.08199" lon="-2.03931">
        <ele>59</ele>
        <time>2022-08-20T10:06:18Z</time>
      </trkpt>
      <trkpt lat="47.08191" lon="-2.03923">
        <ele>59</ele>
        <time>2022-08-20T10:06:20Z</time>
      </trkpt>
      <trkpt lat="47.08184" lon="-2.03913">
        <ele>60</ele>
        <time>2022-08-20T10:06:22Z</time>
      </trkpt>
      <trkpt lat="47.08175" lon="-2.03902">
        <ele>59</ele>
        <time>2022-08-20T10:06:24Z</time>
      </trkpt>
      <trkpt lat="47.08164" lon="-2.03891">
        <ele>59</ele>
        <time>2022-08-20T10:06:26Z</time>
      </trkpt>
      <trkpt lat="47.08154" lon="-2.03879">
        <ele>59</ele>
        <time>2022-08-20T10:06:28Z</time>
      </trkpt>
      <trkpt lat="47.08143" lon="-2.03868">
        <ele>59</ele>
        <time>2022-08-20T10:06:30Z</time>
      </trkpt>
      <trkpt lat="47.08131" lon="-2.03856">
        <ele>58</ele>
        <time>2022-08-20T10:06:32Z</time>
      </trkpt>
      <trkpt lat="47.08119" lon="-2.0384">
        <ele>58</ele>
        <time>2022-08-20T10:06:34Z</time>
      </trkpt>
      <trkpt lat="47.08107" lon="-2.03827">
        <ele>57</ele>
        <time>2022-08-20T10:06:36Z</time>
      </trkpt>
      <trkpt lat="47.08095" lon="-2.03813">
        <ele>56</ele>
        <time>2022-08-20T10:06:38Z</time>
      </trkpt>
      <trkpt lat="47.08083" lon="-2.038">
        <ele>56</ele>
        <time>2022-08-20T10:06:40Z</time>
      </trkpt>
      <trkpt lat="47.08072" lon="-2.03789">
        <ele>55</ele>
        <time>2022-08-20T10:06:42Z</time>
      </trkpt>
      <trkpt lat="47.08062" lon="-2.03778">
        <ele>55</ele>
        <time>2022-08-20T10:06:44Z</time>
      </trkpt>
      <trkpt lat="47.08051" lon="-2.03766">
        <ele>55</ele>
        <time>2022-08-20T10:06:46Z</time>
      </trkpt>
      <trkpt lat="47.08042" lon="-2.03756">
        <ele>55</ele>
        <time>2022-08-20T10:06:48Z</time>
      </trkpt>
      <trkpt lat="47.08034" lon="-2.03747">
        <ele>56</ele>
        <time>2022-08-20T10:06:50Z</time>
      </trkpt>
      <trkpt lat="47.08026" lon="-2.03739">
        <ele>56</ele>
        <time>2022-08-20T10:06:52Z</time>
      </trkpt>
      <trkpt lat="47.08016" lon="-2.03729">
        <ele>56</ele>
        <time>2022-08-20T10:06:54Z</time>
      </trkpt>
      <trkpt lat="47.08007" lon="-2.03716">
        <ele>56</ele>
        <time>2022-08-20T10:06:56Z</time>
      </trkpt>
      <trkpt lat="47.07998" lon="-2.03703">
        <ele>55</ele>
        <time>2022-08-20T10:06:58Z</time>
      </trkpt>
      <trkpt lat="47.0799" lon="-2.03692">
        <ele>55</ele>
        <time>2022-08-20T10:07:00Z</time>
      </trkpt>
      <trkpt lat="47.07982" lon="-2.03681">
        <ele>55</ele>
        <time>2022-08-20T10:07:03Z</time>
      </trkpt>
      <trkpt lat="47.07974" lon="-2.03669">
        <ele>54</ele>
        <time>2022-08-20T10:07:08Z</time>
      </trkpt>
      <trkpt lat="47.07965" lon="-2.03656">
        <ele>54</ele>
        <time>2022-08-20T10:07:11Z</time>
      </trkpt>
      <trkpt lat="47.07958" lon="-2.03647">
        <ele>54</ele>
        <time>2022-08-20T10:07:14Z</time>
      </trkpt>
      <trkpt lat="47.07951" lon="-2.03639">
        <ele>54</ele>
        <time>2022-08-20T10:07:17Z</time>
      </trkpt>
      <trkpt lat="47.07942" lon="-2.03626">
        <ele>54</ele>
        <time>2022-08-20T10:07:20Z</time>
      </trkpt>
      <trkpt lat="47.07933" lon="-2.03616">
        <ele>54</ele>
        <time>2022-08-20T10:07:22Z</time>
      </trkpt>
      <trkpt lat="47.07924" lon="-2.03603">
        <ele>54</ele>
        <time>2022-08-20T10:07:24Z</time>
      </trkpt>
      <trkpt lat="47.07913" lon="-2.03589">
        <ele>54</ele>
        <time>2022-08-20T10:07:26Z</time>
      </trkpt>
      <trkpt lat="47.07902" lon="-2.03577">
        <ele>55</ele>
        <time>2022-08-20T10:07:28Z</time>
      </trkpt>
      <trkpt lat="47.0789" lon="-2.03563">
        <ele>55</ele>
        <time>2022-08-20T10:07:30Z</time>
      </trkpt>
      <trkpt lat="47.07879" lon="-2.03547">
        <ele>55</ele>
        <time>2022-08-20T10:07:32Z</time>
      </trkpt>
      <trkpt lat="47.07868" lon="-2.03532">
        <ele>55</ele>
        <time>2022-08-20T10:07:34Z</time>
      </trkpt>
      <trkpt lat="47.07856" lon="-2.03517">
        <ele>54</ele>
        <time>2022-08-20T10:07:36Z</time>
      </trkpt>
      <trkpt lat="47.07845" lon="-2.03502">
        <ele>54</ele>
        <time>2022-08-20T10:07:38Z</time>
      </trkpt>
      <trkpt lat="47.07834" lon="-2.03485">
        <ele>54</ele>
        <time>2022-08-20T10:07:40Z</time>
      </trkpt>
      <trkpt lat="47.07824" lon="-2.03468">
        <ele>54</ele>
        <time>2022-08-20T10:07:42Z</time>
      </trkpt>
      <trkpt lat="47.07813" lon="-2.03451">
        <ele>54</ele>
        <time>2022-08-20T10:07:44Z</time>
      </trkpt>
      <trkpt lat="47.07803" lon="-2.03434">
        <ele>54</ele>
        <time>2022-08-20T10:07:46Z</time>
      </trkpt>
      <trkpt lat="47.07795" lon="-2.03415">
        <ele>54</ele>
        <time>2022-08-20T10:07:48Z</time>
      </trkpt>
      <trkpt lat="47.07786" lon="-2.03396">
        <ele>53</ele>
        <time>2022-08-20T10:07:50Z</time>
      </trkpt>
      <trkpt lat="47.07777" lon="-2.03377">
        <ele>54</ele>
        <time>2022-08-20T10:07:52Z</time>
      </trkpt>
      <trkpt lat="47.0777" lon="-2.03357">
        <ele>53</ele>
        <time>2022-08-20T10:07:54Z</time>
      </trkpt>
      <trkpt lat="47.07763" lon="-2.03337">
        <ele>53</ele>
        <time>2022-08-20T10:07:56Z</time>
      </trkpt>
      <trkpt lat="47.07755" lon="-2.03317">
        <ele>53</ele>
        <time>2022-08-20T10:07:58Z</time>
      </trkpt>
      <trkpt lat="47.07747" lon="-2.03297">
        <ele>53</ele>
        <time>2022-08-20T10:08:00Z</time>
      </trkpt>
      <trkpt lat="47.07738" lon="-2.03278">
        <ele>53</ele>
        <time>2022-08-20T10:08:02Z</time>
      </trkpt>
      <trkpt lat="47.07731" lon="-2.03258">
        <ele>53</ele>
        <time>2022-08-20T10:08:04Z</time>
      </trkpt>
      <trkpt lat="47.07723" lon="-2.03238">
        <ele>52</ele>
        <time>2022-08-20T10:08:06Z</time>
      </trkpt>
      <trkpt lat="47.07715" lon="-2.03219">
        <ele>52</ele>
        <time>2022-08-20T10:08:08Z</time>
      </trkpt>
      <trkpt lat="47.07706" lon="-2.03199">
        <ele>53</ele>
        <time>2022-08-20T10:08:10Z</time>
      </trkpt>
      <trkpt lat="47.07699" lon="-2.03179">
        <ele>52</ele>
        <time>2022-08-20T10:08:12Z</time>
      </trkpt>
      <trkpt lat="47.07691" lon="-2.03159">
        <ele>53</ele>
        <time>2022-08-20T10:08:14Z</time>
      </trkpt>
      <trkpt lat="47.07683" lon="-2.03139">
        <ele>53</ele>
        <time>2022-08-20T10:08:16Z</time>
      </trkpt>
      <trkpt lat="47.07676" lon="-2.0312">
        <ele>52</ele>
        <time>2022-08-20T10:08:18Z</time>
      </trkpt>
      <trkpt lat="47.07668" lon="-2.03102">
        <ele>52</ele>
        <time>2022-08-20T10:08:20Z</time>
      </trkpt>
      <trkpt lat="47.0766" lon="-2.03083">
        <ele>53</ele>
        <time>2022-08-20T10:08:22Z</time>
      </trkpt>
      <trkpt lat="47.07653" lon="-2.03065">
        <ele>52</ele>
        <time>2022-08-20T10:08:24Z</time>
      </trkpt>
      <trkpt lat="47.07646" lon="-2.03048">
        <ele>53</ele>
        <time>2022-08-20T10:08:26Z</time>
      </trkpt>
      <trkpt lat="47.07638" lon="-2.0303">
        <ele>53</ele>
        <time>2022-08-20T10:08:28Z</time>
      </trkpt>
      <trkpt lat="47.07631" lon="-2.03012">
        <ele>52</ele>
        <time>2022-08-20T10:08:30Z</time>
      </trkpt>
      <trkpt lat="47.07624" lon="-2.02994">
        <ele>52</ele>
        <time>2022-08-20T10:08:32Z</time>
      </trkpt>
      <trkpt lat="47.07616" lon="-2.02975">
        <ele>52</ele>
        <time>2022-08-20T10:08:34Z</time>
      </trkpt>
      <trkpt lat="47.07608" lon="-2.02957">
        <ele>52</ele>
        <time>2022-08-20T10:08:36Z</time>
      </trkpt>
      <trkpt lat="47.07601" lon="-2.02938">
        <ele>52</ele>
        <time>2022-08-20T10:08:38Z</time>
      </trkpt>
      <trkpt lat="47.07594" lon="-2.0292">
        <ele>52</ele>
        <time>2022-08-20T10:08:40Z</time>
      </trkpt>
      <trkpt lat="47.07587" lon="-2.02902">
        <ele>52</ele>
        <time>2022-08-20T10:08:42Z</time>
      </trkpt>
      <trkpt lat="47.07579" lon="-2.02883">
        <ele>52</ele>
        <time>2022-08-20T10:08:44Z</time>
      </trkpt>
      <trkpt lat="47.07572" lon="-2.02865">
        <ele>52</ele>
        <time>2022-08-20T10:08:46Z</time>
      </trkpt>
      <trkpt lat="47.07564" lon="-2.02847">
        <ele>51</ele>
        <time>2022-08-20T10:08:48Z</time>
      </trkpt>
      <trkpt lat="47.07557" lon="-2.02828">
        <ele>51</ele>
        <time>2022-08-20T10:08:50Z</time>
      </trkpt>
      <trkpt lat="47.07549" lon="-2.02809">
        <ele>51</ele>
        <time>2022-08-20T10:08:52Z</time>
      </trkpt>
      <trkpt lat="47.07541" lon="-2.0279">
        <ele>51</ele>
        <time>2022-08-20T10:08:54Z</time>
      </trkpt>
      <trkpt lat="47.07533" lon="-2.02771">
        <ele>51</ele>
        <time>2022-08-20T10:08:56Z</time>
      </trkpt>
      <trkpt lat="47.07526" lon="-2.02753">
        <ele>51</ele>
        <time>2022-08-20T10:08:58Z</time>
      </trkpt>
      <trkpt lat="47.07518" lon="-2.02734">
        <ele>52</ele>
        <time>2022-08-20T10:09:00Z</time>
      </trkpt>
      <trkpt lat="47.07511" lon="-2.02715">
        <ele>52</ele>
        <time>2022-08-20T10:09:02Z</time>
      </trkpt>
      <trkpt lat="47.07503" lon="-2.02697">
        <ele>52</ele>
        <time>2022-08-20T10:09:04Z</time>
      </trkpt>
      <trkpt lat="47.07495" lon="-2.02678">
        <ele>52</ele>
        <time>2022-08-20T10:09:06Z</time>
      </trkpt>
      <trkpt lat="47.07487" lon="-2.02659">
        <ele>52</ele>
        <time>2022-08-20T10:09:08Z</time>
      </trkpt>
      <trkpt lat="47.0748" lon="-2.02641">
        <ele>52</ele>
        <time>2022-08-20T10:09:10Z</time>
      </trkpt>
      <trkpt lat="47.07473" lon="-2.02623">
        <ele>52</ele>
        <time>2022-08-20T10:09:12Z</time>
      </trkpt>
      <trkpt lat="47.07465" lon="-2.02605">
        <ele>52</ele>
        <time>2022-08-20T10:09:14Z</time>
      </trkpt>
      <trkpt lat="47.07458" lon="-2.02589">
        <ele>52</ele>
        <time>2022-08-20T10:09:16Z</time>
      </trkpt>
      <trkpt lat="47.07452" lon="-2.02572">
        <ele>53</ele>
        <time>2022-08-20T10:09:18Z</time>
      </trkpt>
      <trkpt lat="47.07445" lon="-2.02556">
        <ele>53</ele>
        <time>2022-08-20T10:09:20Z</time>
      </trkpt>
      <trkpt lat="47.07439" lon="-2.02539">
        <ele>53</ele>
        <time>2022-08-20T10:09:22Z</time>
      </trkpt>
      <trkpt lat="47.07432" lon="-2.02522">
        <ele>54</ele>
        <time>2022-08-20T10:09:24Z</time>
      </trkpt>
      <trkpt lat="47.07425" lon="-2.02506">
        <ele>54</ele>
        <time>2022-08-20T10:09:26Z</time>
      </trkpt>
      <trkpt lat="47.07419" lon="-2.0249">
        <ele>54</ele>
        <time>2022-08-20T10:09:28Z</time>
      </trkpt>
      <trkpt lat="47.07412" lon="-2.02473">
        <ele>54</ele>
        <time>2022-08-20T10:09:30Z</time>
      </trkpt>
      <trkpt lat="47.07405" lon="-2.02456">
        <ele>54</ele>
        <time>2022-08-20T10:09:32Z</time>
      </trkpt>
      <trkpt lat="47.07398" lon="-2.02439">
        <ele>54</ele>
        <time>2022-08-20T10:09:34Z</time>
      </trkpt>
      <trkpt lat="47.07391" lon="-2.02423">
        <ele>54</ele>
        <time>2022-08-20T10:09:36Z</time>
      </trkpt>
      <trkpt lat="47.07384" lon="-2.02406">
        <ele>55</ele>
        <time>2022-08-20T10:09:38Z</time>
      </trkpt>
      <trkpt lat="47.07377" lon="-2.0239">
        <ele>55</ele>
        <time>2022-08-20T10:09:40Z</time>
      </trkpt>
      <trkpt lat="47.0737" lon="-2.02373">
        <ele>55</ele>
        <time>2022-08-20T10:09:42Z</time>
      </trkpt>
      <trkpt lat="47.07363" lon="-2.02357">
        <ele>55</ele>
        <time>2022-08-20T10:09:44Z</time>
      </trkpt>
      <trkpt lat="47.07357" lon="-2.0234">
        <ele>55</ele>
        <time>2022-08-20T10:09:46Z</time>
      </trkpt>
      <trkpt lat="47.0735" lon="-2.02324">
        <ele>55</ele>
        <time>2022-08-20T10:09:48Z</time>
      </trkpt>
      <trkpt lat="47.07344" lon="-2.02307">
        <ele>56</ele>
        <time>2022-08-20T10:09:50Z</time>
      </trkpt>
      <trkpt lat="47.07337" lon="-2.0229">
        <ele>56</ele>
        <time>2022-08-20T10:09:52Z</time>
      </trkpt>
      <trkpt lat="47.0733" lon="-2.02273">
        <ele>56</ele>
        <time>2022-08-20T10:09:54Z</time>
      </trkpt>
      <trkpt lat="47.07324" lon="-2.02257">
        <ele>56</ele>
        <time>2022-08-20T10:09:56Z</time>
      </trkpt>
      <trkpt lat="47.07317" lon="-2.02239">
        <ele>56</ele>
        <time>2022-08-20T10:09:58Z</time>
      </trkpt>
      <trkpt lat="47.0731" lon="-2.02222">
        <ele>56</ele>
        <time>2022-08-20T10:10:00Z</time>
      </trkpt>
      <trkpt lat="47.07303" lon="-2.02206">
        <ele>56</ele>
        <time>2022-08-20T10:10:02Z</time>
      </trkpt>
      <trkpt lat="47.07295" lon="-2.02189">
        <ele>56</ele>
        <time>2022-08-20T10:10:04Z</time>
      </trkpt>
      <trkpt lat="47.07287" lon="-2.02173">
        <ele>56</ele>
        <time>2022-08-20T10:10:06Z</time>
      </trkpt>
      <trkpt lat="47.07279" lon="-2.02157">
        <ele>56</ele>
        <time>2022-08-20T10:10:08Z</time>
      </trkpt>
      <trkpt lat="47.07272" lon="-2.0214">
        <ele>57</ele>
        <time>2022-08-20T10:10:10Z</time>
      </trkpt>
      <trkpt lat="47.07264" lon="-2.02124">
        <ele>57</ele>
        <time>2022-08-20T10:10:12Z</time>
      </trkpt>
      <trkpt lat="47.07256" lon="-2.02107">
        <ele>56</ele>
        <time>2022-08-20T10:10:14Z</time>
      </trkpt>
      <trkpt lat="47.07249" lon="-2.0209">
        <ele>56</ele>
        <time>2022-08-20T10:10:16Z</time>
      </trkpt>
      <trkpt lat="47.07242" lon="-2.02074">
        <ele>56</ele>
        <time>2022-08-20T10:10:18Z</time>
      </trkpt>
      <trkpt lat="47.07234" lon="-2.02058">
        <ele>56</ele>
        <time>2022-08-20T10:10:20Z</time>
      </trkpt>
      <trkpt lat="47.07227" lon="-2.02042">
        <ele>56</ele>
        <time>2022-08-20T10:10:22Z</time>
      </trkpt>
      <trkpt lat="47.0722" lon="-2.02025">
        <ele>56</ele>
        <time>2022-08-20T10:10:24Z</time>
      </trkpt>
      <trkpt lat="47.07212" lon="-2.02009">
        <ele>56</ele>
        <time>2022-08-20T10:10:26Z</time>
      </trkpt>
      <trkpt lat="47.07205" lon="-2.01993">
        <ele>56</ele>
        <time>2022-08-20T10:10:28Z</time>
      </trkpt>
      <trkpt lat="47.07197" lon="-2.01977">
        <ele>56</ele>
        <time>2022-08-20T10:10:30Z</time>
      </trkpt>
      <trkpt lat="47.0719" lon="-2.0196">
        <ele>57</ele>
        <time>2022-08-20T10:10:32Z</time>
      </trkpt>
      <trkpt lat="47.07182" lon="-2.01944">
        <ele>57</ele>
        <time>2022-08-20T10:10:34Z</time>
      </trkpt>
      <trkpt lat="47.07175" lon="-2.01928">
        <ele>57</ele>
        <time>2022-08-20T10:10:36Z</time>
      </trkpt>
      <trkpt lat="47.07169" lon="-2.0191">
        <ele>57</ele>
        <time>2022-08-20T10:10:38Z</time>
      </trkpt>
      <trkpt lat="47.0716" lon="-2.01894">
        <ele>56</ele>
        <time>2022-08-20T10:10:40Z</time>
      </trkpt>
      <trkpt lat="47.07152" lon="-2.01878">
        <ele>56</ele>
        <time>2022-08-20T10:10:42Z</time>
      </trkpt>
      <trkpt lat="47.07144" lon="-2.01862">
        <ele>56</ele>
        <time>2022-08-20T10:10:44Z</time>
      </trkpt>
      <trkpt lat="47.07136" lon="-2.01844">
        <ele>56</ele>
        <time>2022-08-20T10:10:46Z</time>
      </trkpt>
      <trkpt lat="47.07129" lon="-2.01828">
        <ele>56</ele>
        <time>2022-08-20T10:10:48Z</time>
      </trkpt>
      <trkpt lat="47.07121" lon="-2.01811">
        <ele>57</ele>
        <time>2022-08-20T10:10:50Z</time>
      </trkpt>
      <trkpt lat="47.07114" lon="-2.01795">
        <ele>57</ele>
        <time>2022-08-20T10:10:52Z</time>
      </trkpt>
      <trkpt lat="47.07107" lon="-2.01778">
        <ele>57</ele>
        <time>2022-08-20T10:10:54Z</time>
      </trkpt>
      <trkpt lat="47.07099" lon="-2.01762">
        <ele>57</ele>
        <time>2022-08-20T10:10:56Z</time>
      </trkpt>
      <trkpt lat="47.07091" lon="-2.01745">
        <ele>57</ele>
        <time>2022-08-20T10:10:58Z</time>
      </trkpt>
      <trkpt lat="47.07084" lon="-2.01729">
        <ele>57</ele>
        <time>2022-08-20T10:11:00Z</time>
      </trkpt>
      <trkpt lat="47.07076" lon="-2.01713">
        <ele>57</ele>
        <time>2022-08-20T10:11:02Z</time>
      </trkpt>
      <trkpt lat="47.07069" lon="-2.01697">
        <ele>58</ele>
        <time>2022-08-20T10:11:04Z</time>
      </trkpt>
      <trkpt lat="47.07062" lon="-2.01681">
        <ele>58</ele>
        <time>2022-08-20T10:11:06Z</time>
      </trkpt>
      <trkpt lat="47.07054" lon="-2.01665">
        <ele>58</ele>
        <time>2022-08-20T10:11:08Z</time>
      </trkpt>
      <trkpt lat="47.07046" lon="-2.01649">
        <ele>57</ele>
        <time>2022-08-20T10:11:10Z</time>
      </trkpt>
      <trkpt lat="47.07039" lon="-2.01632">
        <ele>58</ele>
        <time>2022-08-20T10:11:12Z</time>
      </trkpt>
      <trkpt lat="47.07032" lon="-2.01616">
        <ele>58</ele>
        <time>2022-08-20T10:11:14Z</time>
      </trkpt>
      <trkpt lat="47.07024" lon="-2.01599">
        <ele>58</ele>
        <time>2022-08-20T10:11:16Z</time>
      </trkpt>
      <trkpt lat="47.07016" lon="-2.01582">
        <ele>58</ele>
        <time>2022-08-20T10:11:18Z</time>
      </trkpt>
      <trkpt lat="47.07009" lon="-2.01566">
        <ele>59</ele>
        <time>2022-08-20T10:11:20Z</time>
      </trkpt>
      <trkpt lat="47.07001" lon="-2.0155">
        <ele>59</ele>
        <time>2022-08-20T10:11:22Z</time>
      </trkpt>
      <trkpt lat="47.06994" lon="-2.01535">
        <ele>59</ele>
        <time>2022-08-20T10:11:24Z</time>
      </trkpt>
      <trkpt lat="47.06987" lon="-2.01519">
        <ele>59</ele>
        <time>2022-08-20T10:11:26Z</time>
      </trkpt>
      <trkpt lat="47.0698" lon="-2.01503">
        <ele>59</ele>
        <time>2022-08-20T10:11:28Z</time>
      </trkpt>
      <trkpt lat="47.06972" lon="-2.01486">
        <ele>59</ele>
        <time>2022-08-20T10:11:30Z</time>
      </trkpt>
      <trkpt lat="47.06965" lon="-2.0147">
        <ele>59</ele>
        <time>2022-08-20T10:11:32Z</time>
      </trkpt>
      <trkpt lat="47.06957" lon="-2.01453">
        <ele>59</ele>
        <time>2022-08-20T10:11:34Z</time>
      </trkpt>
      <trkpt lat="47.06949" lon="-2.01437">
        <ele>59</ele>
        <time>2022-08-20T10:11:36Z</time>
      </trkpt>
      <trkpt lat="47.06942" lon="-2.01421">
        <ele>59</ele>
        <time>2022-08-20T10:11:38Z</time>
      </trkpt>
      <trkpt lat="47.06935" lon="-2.01405">
        <ele>59</ele>
        <time>2022-08-20T10:11:40Z</time>
      </trkpt>
      <trkpt lat="47.06927" lon="-2.01388">
        <ele>59</ele>
        <time>2022-08-20T10:11:42Z</time>
      </trkpt>
      <trkpt lat="47.06919" lon="-2.01372">
        <ele>59</ele>
        <time>2022-08-20T10:11:44Z</time>
      </trkpt>
      <trkpt lat="47.06912" lon="-2.01355">
        <ele>59</ele>
        <time>2022-08-20T10:11:46Z</time>
      </trkpt>
      <trkpt lat="47.06904" lon="-2.01339">
        <ele>59</ele>
        <time>2022-08-20T10:11:48Z</time>
      </trkpt>
      <trkpt lat="47.06897" lon="-2.01322">
        <ele>58</ele>
        <time>2022-08-20T10:11:50Z</time>
      </trkpt>
      <trkpt lat="47.06889" lon="-2.01304">
        <ele>58</ele>
        <time>2022-08-20T10:11:52Z</time>
      </trkpt>
      <trkpt lat="47.06882" lon="-2.01288">
        <ele>57</ele>
        <time>2022-08-20T10:11:54Z</time>
      </trkpt>
      <trkpt lat="47.06874" lon="-2.01271">
        <ele>57</ele>
        <time>2022-08-20T10:11:56Z</time>
      </trkpt>
      <trkpt lat="47.06866" lon="-2.01255">
        <ele>57</ele>
        <time>2022-08-20T10:11:58Z</time>
      </trkpt>
      <trkpt lat="47.06858" lon="-2.01238">
        <ele>57</ele>
        <time>2022-08-20T10:12:00Z</time>
      </trkpt>
      <trkpt lat="47.06849" lon="-2.01221">
        <ele>57</ele>
        <time>2022-08-20T10:12:02Z</time>
      </trkpt>
      <trkpt lat="47.06842" lon="-2.01204">
        <ele>57</ele>
        <time>2022-08-20T10:12:04Z</time>
      </trkpt>
      <trkpt lat="47.06835" lon="-2.01185">
        <ele>56</ele>
        <time>2022-08-20T10:12:06Z</time>
      </trkpt>
      <trkpt lat="47.06827" lon="-2.01168">
        <ele>56</ele>
        <time>2022-08-20T10:12:08Z</time>
      </trkpt>
      <trkpt lat="47.06818" lon="-2.01151">
        <ele>56</ele>
        <time>2022-08-20T10:12:10Z</time>
      </trkpt>
      <trkpt lat="47.06809" lon="-2.01133">
        <ele>56</ele>
        <time>2022-08-20T10:12:12Z</time>
      </trkpt>
      <trkpt lat="47.06801" lon="-2.01114">
        <ele>56</ele>
        <time>2022-08-20T10:12:14Z</time>
      </trkpt>
      <trkpt lat="47.06793" lon="-2.01097">
        <ele>56</ele>
        <time>2022-08-20T10:12:16Z</time>
      </trkpt>
      <trkpt lat="47.06784" lon="-2.01079">
        <ele>56</ele>
        <time>2022-08-20T10:12:18Z</time>
      </trkpt>
      <trkpt lat="47.06776" lon="-2.01062">
        <ele>55</ele>
        <time>2022-08-20T10:12:20Z</time>
      </trkpt>
      <trkpt lat="47.06767" lon="-2.01043">
        <ele>55</ele>
        <time>2022-08-20T10:12:22Z</time>
      </trkpt>
      <trkpt lat="47.06758" lon="-2.01024">
        <ele>55</ele>
        <time>2022-08-20T10:12:24Z</time>
      </trkpt>
      <trkpt lat="47.0675" lon="-2.01005">
        <ele>55</ele>
        <time>2022-08-20T10:12:26Z</time>
      </trkpt>
      <trkpt lat="47.06742" lon="-2.00986">
        <ele>54</ele>
        <time>2022-08-20T10:12:28Z</time>
      </trkpt>
      <trkpt lat="47.06734" lon="-2.00967">
        <ele>53</ele>
        <time>2022-08-20T10:12:30Z</time>
      </trkpt>
      <trkpt lat="47.06726" lon="-2.00948">
        <ele>53</ele>
        <time>2022-08-20T10:12:32Z</time>
      </trkpt>
      <trkpt lat="47.06717" lon="-2.0093">
        <ele>52</ele>
        <time>2022-08-20T10:12:34Z</time>
      </trkpt>
      <trkpt lat="47.06708" lon="-2.00912">
        <ele>52</ele>
        <time>2022-08-20T10:12:36Z</time>
      </trkpt>
      <trkpt lat="47.06699" lon="-2.00893">
        <ele>52</ele>
        <time>2022-08-20T10:12:38Z</time>
      </trkpt>
      <trkpt lat="47.0669" lon="-2.00874">
        <ele>51</ele>
        <time>2022-08-20T10:12:40Z</time>
      </trkpt>
      <trkpt lat="47.06682" lon="-2.00856">
        <ele>51</ele>
        <time>2022-08-20T10:12:42Z</time>
      </trkpt>
      <trkpt lat="47.06673" lon="-2.00838">
        <ele>52</ele>
        <time>2022-08-20T10:12:44Z</time>
      </trkpt>
      <trkpt lat="47.06664" lon="-2.00821">
        <ele>52</ele>
        <time>2022-08-20T10:12:46Z</time>
      </trkpt>
      <trkpt lat="47.06655" lon="-2.00804">
        <ele>52</ele>
        <time>2022-08-20T10:12:48Z</time>
      </trkpt>
      <trkpt lat="47.06647" lon="-2.00786">
        <ele>53</ele>
        <time>2022-08-20T10:12:50Z</time>
      </trkpt>
      <trkpt lat="47.06639" lon="-2.00769">
        <ele>53</ele>
        <time>2022-08-20T10:12:52Z</time>
      </trkpt>
      <trkpt lat="47.06631" lon="-2.00752">
        <ele>53</ele>
        <time>2022-08-20T10:12:54Z</time>
      </trkpt>
      <trkpt lat="47.06623" lon="-2.00736">
        <ele>53</ele>
        <time>2022-08-20T10:12:56Z</time>
      </trkpt>
      <trkpt lat="47.06617" lon="-2.00719">
        <ele>53</ele>
        <time>2022-08-20T10:12:58Z</time>
      </trkpt>
      <trkpt lat="47.06609" lon="-2.00702">
        <ele>54</ele>
        <time>2022-08-20T10:13:00Z</time>
      </trkpt>
      <trkpt lat="47.06602" lon="-2.00686">
        <ele>54</ele>
        <time>2022-08-20T10:13:02Z</time>
      </trkpt>
      <trkpt lat="47.06594" lon="-2.00669">
        <ele>54</ele>
        <time>2022-08-20T10:13:04Z</time>
      </trkpt>
      <trkpt lat="47.06587" lon="-2.00652">
        <ele>55</ele>
        <time>2022-08-20T10:13:06Z</time>
      </trkpt>
      <trkpt lat="47.0658" lon="-2.00636">
        <ele>55</ele>
        <time>2022-08-20T10:13:08Z</time>
      </trkpt>
      <trkpt lat="47.06572" lon="-2.0062">
        <ele>55</ele>
        <time>2022-08-20T10:13:10Z</time>
      </trkpt>
      <trkpt lat="47.06565" lon="-2.00604">
        <ele>55</ele>
        <time>2022-08-20T10:13:12Z</time>
      </trkpt>
      <trkpt lat="47.06557" lon="-2.00587">
        <ele>55</ele>
        <time>2022-08-20T10:13:14Z</time>
      </trkpt>
      <trkpt lat="47.0655" lon="-2.00571">
        <ele>56</ele>
        <time>2022-08-20T10:13:16Z</time>
      </trkpt>
      <trkpt lat="47.06542" lon="-2.00554">
        <ele>56</ele>
        <time>2022-08-20T10:13:18Z</time>
      </trkpt>
      <trkpt lat="47.06535" lon="-2.00539">
        <ele>56</ele>
        <time>2022-08-20T10:13:20Z</time>
      </trkpt>
      <trkpt lat="47.06528" lon="-2.00522">
        <ele>56</ele>
        <time>2022-08-20T10:13:22Z</time>
      </trkpt>
      <trkpt lat="47.0652" lon="-2.00506">
        <ele>55</ele>
        <time>2022-08-20T10:13:24Z</time>
      </trkpt>
      <trkpt lat="47.06513" lon="-2.0049">
        <ele>55</ele>
        <time>2022-08-20T10:13:26Z</time>
      </trkpt>
      <trkpt lat="47.06506" lon="-2.00474">
        <ele>55</ele>
        <time>2022-08-20T10:13:28Z</time>
      </trkpt>
      <trkpt lat="47.06498" lon="-2.00458">
        <ele>55</ele>
        <time>2022-08-20T10:13:30Z</time>
      </trkpt>
      <trkpt lat="47.0649" lon="-2.00442">
        <ele>55</ele>
        <time>2022-08-20T10:13:32Z</time>
      </trkpt>
      <trkpt lat="47.06484" lon="-2.00425">
        <ele>55</ele>
        <time>2022-08-20T10:13:34Z</time>
      </trkpt>
      <trkpt lat="47.06477" lon="-2.0041">
        <ele>54</ele>
        <time>2022-08-20T10:13:36Z</time>
      </trkpt>
      <trkpt lat="47.06465" lon="-2.00385">
        <ele>54</ele>
        <time>2022-08-20T10:13:39Z</time>
      </trkpt>
      <trkpt lat="47.06457" lon="-2.00368">
        <ele>54</ele>
        <time>2022-08-20T10:13:41Z</time>
      </trkpt>
      <trkpt lat="47.06449" lon="-2.00351">
        <ele>53</ele>
        <time>2022-08-20T10:13:43Z</time>
      </trkpt>
      <trkpt lat="47.06441" lon="-2.00333">
        <ele>53</ele>
        <time>2022-08-20T10:13:45Z</time>
      </trkpt>
      <trkpt lat="47.06432" lon="-2.00316">
        <ele>52</ele>
        <time>2022-08-20T10:13:47Z</time>
      </trkpt>
      <trkpt lat="47.06424" lon="-2.00299">
        <ele>52</ele>
        <time>2022-08-20T10:13:49Z</time>
      </trkpt>
      <trkpt lat="47.06415" lon="-2.00283">
        <ele>51</ele>
        <time>2022-08-20T10:13:51Z</time>
      </trkpt>
      <trkpt lat="47.06406" lon="-2.00266">
        <ele>51</ele>
        <time>2022-08-20T10:13:53Z</time>
      </trkpt>
      <trkpt lat="47.06398" lon="-2.00251">
        <ele>51</ele>
        <time>2022-08-20T10:13:55Z</time>
      </trkpt>
      <trkpt lat="47.06391" lon="-2.00234">
        <ele>51</ele>
        <time>2022-08-20T10:13:57Z</time>
      </trkpt>
      <trkpt lat="47.06384" lon="-2.00216">
        <ele>51</ele>
        <time>2022-08-20T10:13:59Z</time>
      </trkpt>
      <trkpt lat="47.06376" lon="-2.00189">
        <ele>51</ele>
        <time>2022-08-20T10:14:02Z</time>
      </trkpt>
      <trkpt lat="47.0637" lon="-2.00172">
        <ele>51</ele>
        <time>2022-08-20T10:14:04Z</time>
      </trkpt>
      <trkpt lat="47.06364" lon="-2.00156">
        <ele>51</ele>
        <time>2022-08-20T10:14:06Z</time>
      </trkpt>
      <trkpt lat="47.06358" lon="-2.00139">
        <ele>51</ele>
        <time>2022-08-20T10:14:08Z</time>
      </trkpt>
      <trkpt lat="47.06353" lon="-2.00113">
        <ele>51</ele>
        <time>2022-08-20T10:14:11Z</time>
      </trkpt>
      <trkpt lat="47.06352" lon="-2.00096">
        <ele>51</ele>
        <time>2022-08-20T10:14:13Z</time>
      </trkpt>
      <trkpt lat="47.0635" lon="-2.0008">
        <ele>51</ele>
        <time>2022-08-20T10:14:15Z</time>
      </trkpt>
      <trkpt lat="47.0635" lon="-2.00065">
        <ele>52</ele>
        <time>2022-08-20T10:14:17Z</time>
      </trkpt>
      <trkpt lat="47.0635" lon="-2.00051">
        <ele>52</ele>
        <time>2022-08-20T10:14:20Z</time>
      </trkpt>
      <trkpt lat="47.06351" lon="-2.00038">
        <ele>52</ele>
        <time>2022-08-20T10:14:23Z</time>
      </trkpt>
      <trkpt lat="47.06351" lon="-2.00017">
        <ele>53</ele>
        <time>2022-08-20T10:14:26Z</time>
      </trkpt>
      <trkpt lat="47.0635" lon="-2.00001">
        <ele>53</ele>
        <time>2022-08-20T10:14:28Z</time>
      </trkpt>
      <trkpt lat="47.06351" lon="-1.99982">
        <ele>53</ele>
        <time>2022-08-20T10:14:30Z</time>
      </trkpt>
      <trkpt lat="47.06351" lon="-1.99963">
        <ele>53</ele>
        <time>2022-08-20T10:14:32Z</time>
      </trkpt>
      <trkpt lat="47.06353" lon="-1.99944">
        <ele>54</ele>
        <time>2022-08-20T10:14:34Z</time>
      </trkpt>
      <trkpt lat="47.06356" lon="-1.99924">
        <ele>53</ele>
        <time>2022-08-20T10:14:36Z</time>
      </trkpt>
      <trkpt lat="47.06359" lon="-1.99905">
        <ele>53</ele>
        <time>2022-08-20T10:14:38Z</time>
      </trkpt>
      <trkpt lat="47.06363" lon="-1.99886">
        <ele>53</ele>
        <time>2022-08-20T10:14:40Z</time>
      </trkpt>
      <trkpt lat="47.06366" lon="-1.99869">
        <ele>53</ele>
        <time>2022-08-20T10:14:42Z</time>
      </trkpt>
      <trkpt lat="47.06371" lon="-1.99851">
        <ele>53</ele>
        <time>2022-08-20T10:14:44Z</time>
      </trkpt>
      <trkpt lat="47.06375" lon="-1.99835">
        <ele>53</ele>
        <time>2022-08-20T10:14:46Z</time>
      </trkpt>
      <trkpt lat="47.06378" lon="-1.99816">
        <ele>53</ele>
        <time>2022-08-20T10:14:48Z</time>
      </trkpt>
      <trkpt lat="47.0638" lon="-1.99797">
        <ele>54</ele>
        <time>2022-08-20T10:14:50Z</time>
      </trkpt>
      <trkpt lat="47.06384" lon="-1.99778">
        <ele>54</ele>
        <time>2022-08-20T10:14:52Z</time>
      </trkpt>
      <trkpt lat="47.06386" lon="-1.99758">
        <ele>54</ele>
        <time>2022-08-20T10:14:54Z</time>
      </trkpt>
      <trkpt lat="47.06387" lon="-1.9974">
        <ele>54</ele>
        <time>2022-08-20T10:14:56Z</time>
      </trkpt>
      <trkpt lat="47.06387" lon="-1.99721">
        <ele>54</ele>
        <time>2022-08-20T10:14:58Z</time>
      </trkpt>
      <trkpt lat="47.06387" lon="-1.99702">
        <ele>54</ele>
        <time>2022-08-20T10:15:00Z</time>
      </trkpt>
      <trkpt lat="47.06386" lon="-1.99682">
        <ele>54</ele>
        <time>2022-08-20T10:15:02Z</time>
      </trkpt>
      <trkpt lat="47.06386" lon="-1.99662">
        <ele>54</ele>
        <time>2022-08-20T10:15:04Z</time>
      </trkpt>
      <trkpt lat="47.06384" lon="-1.99642">
        <ele>54</ele>
        <time>2022-08-20T10:15:06Z</time>
      </trkpt>
      <trkpt lat="47.06384" lon="-1.9962">
        <ele>53</ele>
        <time>2022-08-20T10:15:08Z</time>
      </trkpt>
      <trkpt lat="47.06383" lon="-1.99599">
        <ele>53</ele>
        <time>2022-08-20T10:15:10Z</time>
      </trkpt>
      <trkpt lat="47.06383" lon="-1.99578">
        <ele>54</ele>
        <time>2022-08-20T10:15:12Z</time>
      </trkpt>
      <trkpt lat="47.06382" lon="-1.99557">
        <ele>53</ele>
        <time>2022-08-20T10:15:14Z</time>
      </trkpt>
      <trkpt lat="47.06381" lon="-1.99535">
        <ele>54</ele>
        <time>2022-08-20T10:15:16Z</time>
      </trkpt>
      <trkpt lat="47.0638" lon="-1.99514">
        <ele>54</ele>
        <time>2022-08-20T10:15:18Z</time>
      </trkpt>
      <trkpt lat="47.06379" lon="-1.99494">
        <ele>53</ele>
        <time>2022-08-20T10:15:20Z</time>
      </trkpt>
      <trkpt lat="47.06378" lon="-1.99474">
        <ele>53</ele>
        <time>2022-08-20T10:15:22Z</time>
      </trkpt>
      <trkpt lat="47.06378" lon="-1.99454">
        <ele>53</ele>
        <time>2022-08-20T10:15:24Z</time>
      </trkpt>
      <trkpt lat="47.06377" lon="-1.99434">
        <ele>53</ele>
        <time>2022-08-20T10:15:26Z</time>
      </trkpt>
      <trkpt lat="47.06376" lon="-1.99413">
        <ele>53</ele>
        <time>2022-08-20T10:15:28Z</time>
      </trkpt>
      <trkpt lat="47.06373" lon="-1.99393">
        <ele>53</ele>
        <time>2022-08-20T10:15:30Z</time>
      </trkpt>
      <trkpt lat="47.06371" lon="-1.99372">
        <ele>53</ele>
        <time>2022-08-20T10:15:32Z</time>
      </trkpt>
      <trkpt lat="47.06371" lon="-1.99351">
        <ele>53</ele>
        <time>2022-08-20T10:15:34Z</time>
      </trkpt>
      <trkpt lat="47.0637" lon="-1.9933">
        <ele>53</ele>
        <time>2022-08-20T10:15:36Z</time>
      </trkpt>
      <trkpt lat="47.06371" lon="-1.99308">
        <ele>52</ele>
        <time>2022-08-20T10:15:38Z</time>
      </trkpt>
      <trkpt lat="47.06373" lon="-1.99287">
        <ele>52</ele>
        <time>2022-08-20T10:15:40Z</time>
      </trkpt>
      <trkpt lat="47.06374" lon="-1.99266">
        <ele>52</ele>
        <time>2022-08-20T10:15:42Z</time>
      </trkpt>
      <trkpt lat="47.06374" lon="-1.99245">
        <ele>52</ele>
        <time>2022-08-20T10:15:44Z</time>
      </trkpt>
      <trkpt lat="47.06373" lon="-1.99224">
        <ele>52</ele>
        <time>2022-08-20T10:15:46Z</time>
      </trkpt>
      <trkpt lat="47.06376" lon="-1.99203">
        <ele>52</ele>
        <time>2022-08-20T10:15:48Z</time>
      </trkpt>
      <trkpt lat="47.0638" lon="-1.99182">
        <ele>52</ele>
        <time>2022-08-20T10:15:50Z</time>
      </trkpt>
      <trkpt lat="47.06384" lon="-1.99161">
        <ele>52</ele>
        <time>2022-08-20T10:15:52Z</time>
      </trkpt>
      <trkpt lat="47.06383" lon="-1.99139">
        <ele>53</ele>
        <time>2022-08-20T10:15:54Z</time>
      </trkpt>
      <trkpt lat="47.06381" lon="-1.99118">
        <ele>53</ele>
        <time>2022-08-20T10:15:56Z</time>
      </trkpt>
      <trkpt lat="47.06377" lon="-1.99096">
        <ele>53</ele>
        <time>2022-08-20T10:15:58Z</time>
      </trkpt>
      <trkpt lat="47.06374" lon="-1.99074">
        <ele>53</ele>
        <time>2022-08-20T10:16:00Z</time>
      </trkpt>
      <trkpt lat="47.06371" lon="-1.99052">
        <ele>53</ele>
        <time>2022-08-20T10:16:02Z</time>
      </trkpt>
      <trkpt lat="47.06368" lon="-1.99031">
        <ele>53</ele>
        <time>2022-08-20T10:16:04Z</time>
      </trkpt>
      <trkpt lat="47.06365" lon="-1.99008">
        <ele>53</ele>
        <time>2022-08-20T10:16:06Z</time>
      </trkpt>
      <trkpt lat="47.06364" lon="-1.98985">
        <ele>53</ele>
        <time>2022-08-20T10:16:08Z</time>
      </trkpt>
      <trkpt lat="47.06363" lon="-1.98962">
        <ele>53</ele>
        <time>2022-08-20T10:16:10Z</time>
      </trkpt>
      <trkpt lat="47.06365" lon="-1.9894">
        <ele>53</ele>
        <time>2022-08-20T10:16:12Z</time>
      </trkpt>
      <trkpt lat="47.06368" lon="-1.98918">
        <ele>53</ele>
        <time>2022-08-20T10:16:14Z</time>
      </trkpt>
      <trkpt lat="47.06371" lon="-1.98896">
        <ele>52</ele>
        <time>2022-08-20T10:16:16Z</time>
      </trkpt>
      <trkpt lat="47.06374" lon="-1.98876">
        <ele>52</ele>
        <time>2022-08-20T10:16:18Z</time>
      </trkpt>
      <trkpt lat="47.06378" lon="-1.98854">
        <ele>52</ele>
        <time>2022-08-20T10:16:20Z</time>
      </trkpt>
      <trkpt lat="47.06382" lon="-1.98834">
        <ele>52</ele>
        <time>2022-08-20T10:16:22Z</time>
      </trkpt>
      <trkpt lat="47.06386" lon="-1.98813">
        <ele>52</ele>
        <time>2022-08-20T10:16:24Z</time>
      </trkpt>
      <trkpt lat="47.0639" lon="-1.98793">
        <ele>52</ele>
        <time>2022-08-20T10:16:26Z</time>
      </trkpt>
      <trkpt lat="47.06394" lon="-1.98773">
        <ele>53</ele>
        <time>2022-08-20T10:16:28Z</time>
      </trkpt>
      <trkpt lat="47.06398" lon="-1.98752">
        <ele>53</ele>
        <time>2022-08-20T10:16:30Z</time>
      </trkpt>
      <trkpt lat="47.06401" lon="-1.98733">
        <ele>54</ele>
        <time>2022-08-20T10:16:32Z</time>
      </trkpt>
      <trkpt lat="47.06405" lon="-1.98714">
        <ele>54</ele>
        <time>2022-08-20T10:16:34Z</time>
      </trkpt>
      <trkpt lat="47.06409" lon="-1.98696">
        <ele>54</ele>
        <time>2022-08-20T10:16:36Z</time>
      </trkpt>
      <trkpt lat="47.06412" lon="-1.98678">
        <ele>54</ele>
        <time>2022-08-20T10:16:38Z</time>
      </trkpt>
      <trkpt lat="47.06416" lon="-1.98661">
        <ele>55</ele>
        <time>2022-08-20T10:16:40Z</time>
      </trkpt>
      <trkpt lat="47.0642" lon="-1.98644">
        <ele>56</ele>
        <time>2022-08-20T10:16:42Z</time>
      </trkpt>
      <trkpt lat="47.06427" lon="-1.98629">
        <ele>57</ele>
        <time>2022-08-20T10:16:44Z</time>
      </trkpt>
      <trkpt lat="47.06434" lon="-1.98615">
        <ele>57</ele>
        <time>2022-08-20T10:16:46Z</time>
      </trkpt>
      <trkpt lat="47.06442" lon="-1.98601">
        <ele>57</ele>
        <time>2022-08-20T10:16:48Z</time>
      </trkpt>
      <trkpt lat="47.0645" lon="-1.98587">
        <ele>57</ele>
        <time>2022-08-20T10:16:50Z</time>
      </trkpt>
      <trkpt lat="47.06458" lon="-1.98573">
        <ele>57</ele>
        <time>2022-08-20T10:16:52Z</time>
      </trkpt>
      <trkpt lat="47.06464" lon="-1.98558">
        <ele>58</ele>
        <time>2022-08-20T10:16:54Z</time>
      </trkpt>
      <trkpt lat="47.06469" lon="-1.98543">
        <ele>58</ele>
        <time>2022-08-20T10:16:56Z</time>
      </trkpt>
      <trkpt lat="47.06475" lon="-1.98528">
        <ele>58</ele>
        <time>2022-08-20T10:16:58Z</time>
      </trkpt>
      <trkpt lat="47.06481" lon="-1.98511">
        <ele>57</ele>
        <time>2022-08-20T10:17:00Z</time>
      </trkpt>
      <trkpt lat="47.06485" lon="-1.9849">
        <ele>56</ele>
        <time>2022-08-20T10:17:02Z</time>
      </trkpt>
      <trkpt lat="47.06487" lon="-1.98467">
        <ele>56</ele>
        <time>2022-08-20T10:17:04Z</time>
      </trkpt>
      <trkpt lat="47.0649" lon="-1.98443">
        <ele>55</ele>
        <time>2022-08-20T10:17:06Z</time>
      </trkpt>
      <trkpt lat="47.06493" lon="-1.98419">
        <ele>54</ele>
        <time>2022-08-20T10:17:08Z</time>
      </trkpt>
      <trkpt lat="47.06496" lon="-1.98396">
        <ele>54</ele>
        <time>2022-08-20T10:17:10Z</time>
      </trkpt>
      <trkpt lat="47.06499" lon="-1.98373">
        <ele>54</ele>
        <time>2022-08-20T10:17:12Z</time>
      </trkpt>
      <trkpt lat="47.06501" lon="-1.98353">
        <ele>54</ele>
        <time>2022-08-20T10:17:14Z</time>
      </trkpt>
      <trkpt lat="47.06503" lon="-1.98333">
        <ele>54</ele>
        <time>2022-08-20T10:17:16Z</time>
      </trkpt>
      <trkpt lat="47.06506" lon="-1.98315">
        <ele>54</ele>
        <time>2022-08-20T10:17:18Z</time>
      </trkpt>
      <trkpt lat="47.0651" lon="-1.98297">
        <ele>55</ele>
        <time>2022-08-20T10:17:20Z</time>
      </trkpt>
      <trkpt lat="47.06514" lon="-1.98281">
        <ele>55</ele>
        <time>2022-08-20T10:17:22Z</time>
      </trkpt>
      <trkpt lat="47.06519" lon="-1.98266">
        <ele>56</ele>
        <time>2022-08-20T10:17:24Z</time>
      </trkpt>
      <trkpt lat="47.06524" lon="-1.98253">
        <ele>56</ele>
        <time>2022-08-20T10:17:26Z</time>
      </trkpt>
      <trkpt lat="47.06522" lon="-1.98238">
        <ele>56</ele>
        <time>2022-08-20T10:17:29Z</time>
      </trkpt>
      <trkpt lat="47.06517" lon="-1.98223">
        <ele>56</ele>
        <time>2022-08-20T10:17:31Z</time>
      </trkpt>
      <trkpt lat="47.06515" lon="-1.98204">
        <ele>55</ele>
        <time>2022-08-20T10:17:33Z</time>
      </trkpt>
      <trkpt lat="47.06512" lon="-1.98185">
        <ele>55</ele>
        <time>2022-08-20T10:17:35Z</time>
      </trkpt>
      <trkpt lat="47.0651" lon="-1.98164">
        <ele>54</ele>
        <time>2022-08-20T10:17:37Z</time>
      </trkpt>
      <trkpt lat="47.06507" lon="-1.98142">
        <ele>53</ele>
        <time>2022-08-20T10:17:39Z</time>
      </trkpt>
      <trkpt lat="47.06504" lon="-1.98119">
        <ele>52</ele>
        <time>2022-08-20T10:17:41Z</time>
      </trkpt>
      <trkpt lat="47.06505" lon="-1.98095">
        <ele>52</ele>
        <time>2022-08-20T10:17:43Z</time>
      </trkpt>
      <trkpt lat="47.06509" lon="-1.98072">
        <ele>51</ele>
        <time>2022-08-20T10:17:45Z</time>
      </trkpt>
      <trkpt lat="47.06512" lon="-1.98049">
        <ele>52</ele>
        <time>2022-08-20T10:17:47Z</time>
      </trkpt>
      <trkpt lat="47.0651" lon="-1.98026">
        <ele>53</ele>
        <time>2022-08-20T10:17:49Z</time>
      </trkpt>
      <trkpt lat="47.06505" lon="-1.98007">
        <ele>54</ele>
        <time>2022-08-20T10:17:51Z</time>
      </trkpt>
      <trkpt lat="47.06499" lon="-1.97988">
        <ele>54</ele>
        <time>2022-08-20T10:17:53Z</time>
      </trkpt>
      <trkpt lat="47.06494" lon="-1.97971">
        <ele>54</ele>
        <time>2022-08-20T10:17:55Z</time>
      </trkpt>
      <trkpt lat="47.06489" lon="-1.97954">
        <ele>54</ele>
        <time>2022-08-20T10:17:57Z</time>
      </trkpt>
      <trkpt lat="47.06485" lon="-1.97938">
        <ele>55</ele>
        <time>2022-08-20T10:17:59Z</time>
      </trkpt>
      <trkpt lat="47.06482" lon="-1.97919">
        <ele>55</ele>
        <time>2022-08-20T10:18:01Z</time>
      </trkpt>
      <trkpt lat="47.06481" lon="-1.97901">
        <ele>55</ele>
        <time>2022-08-20T10:18:03Z</time>
      </trkpt>
      <trkpt lat="47.06478" lon="-1.97885">
        <ele>55</ele>
        <time>2022-08-20T10:18:05Z</time>
      </trkpt>
      <trkpt lat="47.06477" lon="-1.97868">
        <ele>55</ele>
        <time>2022-08-20T10:18:07Z</time>
      </trkpt>
      <trkpt lat="47.06475" lon="-1.97854">
        <ele>55</ele>
        <time>2022-08-20T10:18:09Z</time>
      </trkpt>
      <trkpt lat="47.06472" lon="-1.97836">
        <ele>56</ele>
        <time>2022-08-20T10:18:12Z</time>
      </trkpt>
      <trkpt lat="47.0647" lon="-1.97821">
        <ele>56</ele>
        <time>2022-08-20T10:18:14Z</time>
      </trkpt>
      <trkpt lat="47.06468" lon="-1.97806">
        <ele>57</ele>
        <time>2022-08-20T10:18:16Z</time>
      </trkpt>
      <trkpt lat="47.06467" lon="-1.97789">
        <ele>57</ele>
        <time>2022-08-20T10:18:18Z</time>
      </trkpt>
      <trkpt lat="47.06466" lon="-1.97768">
        <ele>59</ele>
        <time>2022-08-20T10:18:20Z</time>
      </trkpt>
      <trkpt lat="47.06466" lon="-1.97748">
        <ele>60</ele>
        <time>2022-08-20T10:18:22Z</time>
      </trkpt>
      <trkpt lat="47.06466" lon="-1.97728">
        <ele>61</ele>
        <time>2022-08-20T10:18:24Z</time>
      </trkpt>
      <trkpt lat="47.06467" lon="-1.97709">
        <ele>61</ele>
        <time>2022-08-20T10:18:26Z</time>
      </trkpt>
      <trkpt lat="47.06467" lon="-1.97691">
        <ele>61</ele>
        <time>2022-08-20T10:18:28Z</time>
      </trkpt>
      <trkpt lat="47.06468" lon="-1.97674">
        <ele>62</ele>
        <time>2022-08-20T10:18:30Z</time>
      </trkpt>
      <trkpt lat="47.06472" lon="-1.97657">
        <ele>62</ele>
        <time>2022-08-20T10:18:32Z</time>
      </trkpt>
      <trkpt lat="47.06477" lon="-1.97642">
        <ele>63</ele>
        <time>2022-08-20T10:18:34Z</time>
      </trkpt>
      <trkpt lat="47.06487" lon="-1.97631">
        <ele>64</ele>
        <time>2022-08-20T10:18:36Z</time>
      </trkpt>
      <trkpt lat="47.06498" lon="-1.97622">
        <ele>64</ele>
        <time>2022-08-20T10:18:38Z</time>
      </trkpt>
      <trkpt lat="47.06506" lon="-1.97611">
        <ele>65</ele>
        <time>2022-08-20T10:18:40Z</time>
      </trkpt>
      <trkpt lat="47.06512" lon="-1.97596">
        <ele>65</ele>
        <time>2022-08-20T10:18:42Z</time>
      </trkpt>
      <trkpt lat="47.06513" lon="-1.97579">
        <ele>65</ele>
        <time>2022-08-20T10:18:44Z</time>
      </trkpt>
      <trkpt lat="47.06511" lon="-1.97563">
        <ele>65</ele>
        <time>2022-08-20T10:18:46Z</time>
      </trkpt>
      <trkpt lat="47.06508" lon="-1.97546">
        <ele>65</ele>
        <time>2022-08-20T10:18:48Z</time>
      </trkpt>
      <trkpt lat="47.06506" lon="-1.9753">
        <ele>65</ele>
        <time>2022-08-20T10:18:50Z</time>
      </trkpt>
      <trkpt lat="47.06502" lon="-1.97513">
        <ele>65</ele>
        <time>2022-08-20T10:18:52Z</time>
      </trkpt>
      <trkpt lat="47.06498" lon="-1.97497">
        <ele>64</ele>
        <time>2022-08-20T10:18:54Z</time>
      </trkpt>
      <trkpt lat="47.06494" lon="-1.97481">
        <ele>64</ele>
        <time>2022-08-20T10:18:56Z</time>
      </trkpt>
      <trkpt lat="47.0649" lon="-1.97465">
        <ele>64</ele>
        <time>2022-08-20T10:18:58Z</time>
      </trkpt>
      <trkpt lat="47.06486" lon="-1.97449">
        <ele>64</ele>
        <time>2022-08-20T10:19:00Z</time>
      </trkpt>
      <trkpt lat="47.06483" lon="-1.97434">
        <ele>64</ele>
        <time>2022-08-20T10:19:02Z</time>
      </trkpt>
      <trkpt lat="47.0648" lon="-1.97418">
        <ele>64</ele>
        <time>2022-08-20T10:19:04Z</time>
      </trkpt>
      <trkpt lat="47.06477" lon="-1.974">
        <ele>64</ele>
        <time>2022-08-20T10:19:06Z</time>
      </trkpt>
      <trkpt lat="47.06475" lon="-1.97383">
        <ele>64</ele>
        <time>2022-08-20T10:19:08Z</time>
      </trkpt>
      <trkpt lat="47.06473" lon="-1.97366">
        <ele>65</ele>
        <time>2022-08-20T10:19:10Z</time>
      </trkpt>
      <trkpt lat="47.06471" lon="-1.97349">
        <ele>66</ele>
        <time>2022-08-20T10:19:12Z</time>
      </trkpt>
      <trkpt lat="47.0647" lon="-1.97332">
        <ele>66</ele>
        <time>2022-08-20T10:19:14Z</time>
      </trkpt>
      <trkpt lat="47.0647" lon="-1.97314">
        <ele>66</ele>
        <time>2022-08-20T10:19:16Z</time>
      </trkpt>
      <trkpt lat="47.06472" lon="-1.97297">
        <ele>66</ele>
        <time>2022-08-20T10:19:18Z</time>
      </trkpt>
      <trkpt lat="47.06477" lon="-1.97281">
        <ele>66</ele>
        <time>2022-08-20T10:19:20Z</time>
      </trkpt>
      <trkpt lat="47.06486" lon="-1.97269">
        <ele>66</ele>
        <time>2022-08-20T10:19:22Z</time>
      </trkpt>
      <trkpt lat="47.06497" lon="-1.97262">
        <ele>67</ele>
        <time>2022-08-20T10:19:24Z</time>
      </trkpt>
      <trkpt lat="47.06509" lon="-1.97256">
        <ele>67</ele>
        <time>2022-08-20T10:19:26Z</time>
      </trkpt>
      <trkpt lat="47.06521" lon="-1.97252">
        <ele>67</ele>
        <time>2022-08-20T10:19:28Z</time>
      </trkpt>
      <trkpt lat="47.06533" lon="-1.97248">
        <ele>67</ele>
        <time>2022-08-20T10:19:30Z</time>
      </trkpt>
      <trkpt lat="47.06545" lon="-1.97244">
        <ele>68</ele>
        <time>2022-08-20T10:19:32Z</time>
      </trkpt>
      <trkpt lat="47.06557" lon="-1.97242">
        <ele>68</ele>
        <time>2022-08-20T10:19:34Z</time>
      </trkpt>
      <trkpt lat="47.06569" lon="-1.97239">
        <ele>68</ele>
        <time>2022-08-20T10:19:36Z</time>
      </trkpt>
      <trkpt lat="47.06581" lon="-1.97237">
        <ele>68</ele>
        <time>2022-08-20T10:19:38Z</time>
      </trkpt>
      <trkpt lat="47.06594" lon="-1.97235">
        <ele>69</ele>
        <time>2022-08-20T10:19:40Z</time>
      </trkpt>
      <trkpt lat="47.06606" lon="-1.97232">
        <ele>69</ele>
        <time>2022-08-20T10:19:42Z</time>
      </trkpt>
      <trkpt lat="47.06619" lon="-1.9723">
        <ele>69</ele>
        <time>2022-08-20T10:19:44Z</time>
      </trkpt>
      <trkpt lat="47.06632" lon="-1.97226">
        <ele>69</ele>
        <time>2022-08-20T10:19:46Z</time>
      </trkpt>
      <trkpt lat="47.06644" lon="-1.9722">
        <ele>69</ele>
        <time>2022-08-20T10:19:48Z</time>
      </trkpt>
      <trkpt lat="47.06657" lon="-1.97213">
        <ele>69</ele>
        <time>2022-08-20T10:19:50Z</time>
      </trkpt>
      <trkpt lat="47.06669" lon="-1.97203">
        <ele>69</ele>
        <time>2022-08-20T10:19:52Z</time>
      </trkpt>
      <trkpt lat="47.06681" lon="-1.97195">
        <ele>69</ele>
        <time>2022-08-20T10:19:54Z</time>
      </trkpt>
      <trkpt lat="47.06695" lon="-1.97187">
        <ele>69</ele>
        <time>2022-08-20T10:19:56Z</time>
      </trkpt>
      <trkpt lat="47.06709" lon="-1.9718">
        <ele>69</ele>
        <time>2022-08-20T10:19:58Z</time>
      </trkpt>
      <trkpt lat="47.06723" lon="-1.97174">
        <ele>70</ele>
        <time>2022-08-20T10:20:00Z</time>
      </trkpt>
      <trkpt lat="47.06738" lon="-1.9717">
        <ele>70</ele>
        <time>2022-08-20T10:20:02Z</time>
      </trkpt>
      <trkpt lat="47.06753" lon="-1.97166">
        <ele>70</ele>
        <time>2022-08-20T10:20:04Z</time>
      </trkpt>
      <trkpt lat="47.06769" lon="-1.97163">
        <ele>71</ele>
        <time>2022-08-20T10:20:06Z</time>
      </trkpt>
      <trkpt lat="47.06785" lon="-1.97159">
        <ele>70</ele>
        <time>2022-08-20T10:20:08Z</time>
      </trkpt>
      <trkpt lat="47.068" lon="-1.97152">
        <ele>69</ele>
        <time>2022-08-20T10:20:10Z</time>
      </trkpt>
      <trkpt lat="47.06812" lon="-1.97139">
        <ele>69</ele>
        <time>2022-08-20T10:20:12Z</time>
      </trkpt>
      <trkpt lat="47.06822" lon="-1.97123">
        <ele>69</ele>
        <time>2022-08-20T10:20:14Z</time>
      </trkpt>
      <trkpt lat="47.06828" lon="-1.97103">
        <ele>68</ele>
        <time>2022-08-20T10:20:16Z</time>
      </trkpt>
      <trkpt lat="47.06833" lon="-1.97083">
        <ele>68</ele>
        <time>2022-08-20T10:20:18Z</time>
      </trkpt>
      <trkpt lat="47.06838" lon="-1.97064">
        <ele>68</ele>
        <time>2022-08-20T10:20:20Z</time>
      </trkpt>
      <trkpt lat="47.06844" lon="-1.97045">
        <ele>68</ele>
        <time>2022-08-20T10:20:22Z</time>
      </trkpt>
      <trkpt lat="47.0685" lon="-1.97027">
        <ele>68</ele>
        <time>2022-08-20T10:20:24Z</time>
      </trkpt>
      <trkpt lat="47.06856" lon="-1.97009">
        <ele>69</ele>
        <time>2022-08-20T10:20:26Z</time>
      </trkpt>
      <trkpt lat="47.06863" lon="-1.96991">
        <ele>69</ele>
        <time>2022-08-20T10:20:28Z</time>
      </trkpt>
      <trkpt lat="47.0687" lon="-1.96973">
        <ele>69</ele>
        <time>2022-08-20T10:20:30Z</time>
      </trkpt>
      <trkpt lat="47.06875" lon="-1.96954">
        <ele>69</ele>
        <time>2022-08-20T10:20:32Z</time>
      </trkpt>
      <trkpt lat="47.06879" lon="-1.96934">
        <ele>69</ele>
        <time>2022-08-20T10:20:34Z</time>
      </trkpt>
      <trkpt lat="47.06883" lon="-1.96914">
        <ele>69</ele>
        <time>2022-08-20T10:20:36Z</time>
      </trkpt>
      <trkpt lat="47.06887" lon="-1.96895">
        <ele>69</ele>
        <time>2022-08-20T10:20:38Z</time>
      </trkpt>
      <trkpt lat="47.06894" lon="-1.96877">
        <ele>68</ele>
        <time>2022-08-20T10:20:40Z</time>
      </trkpt>
      <trkpt lat="47.06902" lon="-1.9686">
        <ele>68</ele>
        <time>2022-08-20T10:20:42Z</time>
      </trkpt>
      <trkpt lat="47.06911" lon="-1.96844">
        <ele>69</ele>
        <time>2022-08-20T10:20:44Z</time>
      </trkpt>
      <trkpt lat="47.0692" lon="-1.96827">
        <ele>69</ele>
        <time>2022-08-20T10:20:46Z</time>
      </trkpt>
      <trkpt lat="47.06928" lon="-1.96811">
        <ele>69</ele>
        <time>2022-08-20T10:20:48Z</time>
      </trkpt>
      <trkpt lat="47.06937" lon="-1.96794">
        <ele>70</ele>
        <time>2022-08-20T10:20:50Z</time>
      </trkpt>
      <trkpt lat="47.06944" lon="-1.96778">
        <ele>70</ele>
        <time>2022-08-20T10:20:52Z</time>
      </trkpt>
      <trkpt lat="47.06951" lon="-1.96763">
        <ele>70</ele>
        <time>2022-08-20T10:20:54Z</time>
      </trkpt>
      <trkpt lat="47.06957" lon="-1.96746">
        <ele>70</ele>
        <time>2022-08-20T10:20:56Z</time>
      </trkpt>
      <trkpt lat="47.06962" lon="-1.96732">
        <ele>70</ele>
        <time>2022-08-20T10:20:58Z</time>
      </trkpt>
      <trkpt lat="47.06966" lon="-1.96715">
        <ele>71</ele>
        <time>2022-08-20T10:21:00Z</time>
      </trkpt>
      <trkpt lat="47.06972" lon="-1.96696">
        <ele>71</ele>
        <time>2022-08-20T10:21:02Z</time>
      </trkpt>
      <trkpt lat="47.06978" lon="-1.96676">
        <ele>72</ele>
        <time>2022-08-20T10:21:04Z</time>
      </trkpt>
      <trkpt lat="47.06984" lon="-1.96659">
        <ele>73</ele>
        <time>2022-08-20T10:21:06Z</time>
      </trkpt>
      <trkpt lat="47.06992" lon="-1.96643">
        <ele>73</ele>
        <time>2022-08-20T10:21:08Z</time>
      </trkpt>
      <trkpt lat="47.07" lon="-1.96627">
        <ele>73</ele>
        <time>2022-08-20T10:21:10Z</time>
      </trkpt>
      <trkpt lat="47.07008" lon="-1.96612">
        <ele>73</ele>
        <time>2022-08-20T10:21:12Z</time>
      </trkpt>
      <trkpt lat="47.07018" lon="-1.96601">
        <ele>73</ele>
        <time>2022-08-20T10:21:14Z</time>
      </trkpt>
      <trkpt lat="47.07029" lon="-1.96593">
        <ele>73</ele>
        <time>2022-08-20T10:21:16Z</time>
      </trkpt>
      <trkpt lat="47.07041" lon="-1.96584">
        <ele>73</ele>
        <time>2022-08-20T10:21:18Z</time>
      </trkpt>
      <trkpt lat="47.07053" lon="-1.96574">
        <ele>73</ele>
        <time>2022-08-20T10:21:20Z</time>
      </trkpt>
      <trkpt lat="47.07064" lon="-1.96563">
        <ele>73</ele>
        <time>2022-08-20T10:21:22Z</time>
      </trkpt>
      <trkpt lat="47.07077" lon="-1.96555">
        <ele>73</ele>
        <time>2022-08-20T10:21:24Z</time>
      </trkpt>
      <trkpt lat="47.0709" lon="-1.96547">
        <ele>73</ele>
        <time>2022-08-20T10:21:26Z</time>
      </trkpt>
      <trkpt lat="47.07104" lon="-1.96539">
        <ele>73</ele>
        <time>2022-08-20T10:21:28Z</time>
      </trkpt>
      <trkpt lat="47.07118" lon="-1.96532">
        <ele>73</ele>
        <time>2022-08-20T10:21:30Z</time>
      </trkpt>
      <trkpt lat="47.07133" lon="-1.96524">
        <ele>72</ele>
        <time>2022-08-20T10:21:32Z</time>
      </trkpt>
      <trkpt lat="47.07148" lon="-1.96517">
        <ele>71</ele>
        <time>2022-08-20T10:21:34Z</time>
      </trkpt>
      <trkpt lat="47.07162" lon="-1.96509">
        <ele>71</ele>
        <time>2022-08-20T10:21:36Z</time>
      </trkpt>
      <trkpt lat="47.07176" lon="-1.96501">
        <ele>71</ele>
        <time>2022-08-20T10:21:38Z</time>
      </trkpt>
      <trkpt lat="47.0719" lon="-1.96494">
        <ele>71</ele>
        <time>2022-08-20T10:21:40Z</time>
      </trkpt>
      <trkpt lat="47.07205" lon="-1.96487">
        <ele>71</ele>
        <time>2022-08-20T10:21:42Z</time>
      </trkpt>
      <trkpt lat="47.07219" lon="-1.96481">
        <ele>71</ele>
        <time>2022-08-20T10:21:44Z</time>
      </trkpt>
      <trkpt lat="47.07232" lon="-1.96475">
        <ele>71</ele>
        <time>2022-08-20T10:21:46Z</time>
      </trkpt>
      <trkpt lat="47.07247" lon="-1.9647">
        <ele>71</ele>
        <time>2022-08-20T10:21:48Z</time>
      </trkpt>
      <trkpt lat="47.0726" lon="-1.96465">
        <ele>71</ele>
        <time>2022-08-20T10:21:50Z</time>
      </trkpt>
      <trkpt lat="47.07274" lon="-1.96459">
        <ele>71</ele>
        <time>2022-08-20T10:21:52Z</time>
      </trkpt>
      <trkpt lat="47.07288" lon="-1.96454">
        <ele>71</ele>
        <time>2022-08-20T10:21:54Z</time>
      </trkpt>
      <trkpt lat="47.07302" lon="-1.96449">
        <ele>70</ele>
        <time>2022-08-20T10:21:56Z</time>
      </trkpt>
      <trkpt lat="47.07316" lon="-1.96444">
        <ele>70</ele>
        <time>2022-08-20T10:21:58Z</time>
      </trkpt>
      <trkpt lat="47.0733" lon="-1.96439">
        <ele>70</ele>
        <time>2022-08-20T10:22:00Z</time>
      </trkpt>
      <trkpt lat="47.07344" lon="-1.96434">
        <ele>69</ele>
        <time>2022-08-20T10:22:02Z</time>
      </trkpt>
      <trkpt lat="47.07359" lon="-1.96428">
        <ele>69</ele>
        <time>2022-08-20T10:22:04Z</time>
      </trkpt>
      <trkpt lat="47.07373" lon="-1.96422">
        <ele>69</ele>
        <time>2022-08-20T10:22:06Z</time>
      </trkpt>
      <trkpt lat="47.07388" lon="-1.96416">
        <ele>68</ele>
        <time>2022-08-20T10:22:08Z</time>
      </trkpt>
      <trkpt lat="47.07403" lon="-1.96411">
        <ele>68</ele>
        <time>2022-08-20T10:22:10Z</time>
      </trkpt>
      <trkpt lat="47.07418" lon="-1.96406">
        <ele>67</ele>
        <time>2022-08-20T10:22:12Z</time>
      </trkpt>
      <trkpt lat="47.07433" lon="-1.964">
        <ele>67</ele>
        <time>2022-08-20T10:22:14Z</time>
      </trkpt>
      <trkpt lat="47.07448" lon="-1.96395">
        <ele>66</ele>
        <time>2022-08-20T10:22:16Z</time>
      </trkpt>
      <trkpt lat="47.07462" lon="-1.9639">
        <ele>66</ele>
        <time>2022-08-20T10:22:18Z</time>
      </trkpt>
      <trkpt lat="47.07477" lon="-1.96392">
        <ele>66</ele>
        <time>2022-08-20T10:22:20Z</time>
      </trkpt>
      <trkpt lat="47.07492" lon="-1.96399">
        <ele>65</ele>
        <time>2022-08-20T10:22:22Z</time>
      </trkpt>
      <trkpt lat="47.07508" lon="-1.96406">
        <ele>64</ele>
        <time>2022-08-20T10:22:24Z</time>
      </trkpt>
      <trkpt lat="47.07525" lon="-1.96413">
        <ele>62</ele>
        <time>2022-08-20T10:22:26Z</time>
      </trkpt>
      <trkpt lat="47.07534" lon="-1.96417">
        <ele>62</ele>
        <time>2022-08-20T10:22:27Z</time>
      </trkpt>
      <trkpt lat="47.07543" lon="-1.96421">
        <ele>61</ele>
        <time>2022-08-20T10:22:28Z</time>
      </trkpt>
      <trkpt lat="47.07552" lon="-1.96425">
        <ele>61</ele>
        <time>2022-08-20T10:22:29Z</time>
      </trkpt>
      <trkpt lat="47.07562" lon="-1.96428">
        <ele>60</ele>
        <time>2022-08-20T10:22:30Z</time>
      </trkpt>
      <trkpt lat="47.07571" lon="-1.96432">
        <ele>60</ele>
        <time>2022-08-20T10:22:31Z</time>
      </trkpt>
      <trkpt lat="47.0758" lon="-1.96436">
        <ele>59</ele>
        <time>2022-08-20T10:22:32Z</time>
      </trkpt>
      <trkpt lat="47.07589" lon="-1.9644">
        <ele>59</ele>
        <time>2022-08-20T10:22:33Z</time>
      </trkpt>
      <trkpt lat="47.07597" lon="-1.96444">
        <ele>59</ele>
        <time>2022-08-20T10:22:34Z</time>
      </trkpt>
      <trkpt lat="47.07606" lon="-1.96448">
        <ele>58</ele>
        <time>2022-08-20T10:22:35Z</time>
      </trkpt>
      <trkpt lat="47.07615" lon="-1.96452">
        <ele>58</ele>
        <time>2022-08-20T10:22:36Z</time>
      </trkpt>
      <trkpt lat="47.07632" lon="-1.96459">
        <ele>57</ele>
        <time>2022-08-20T10:22:38Z</time>
      </trkpt>
      <trkpt lat="47.07641" lon="-1.96462">
        <ele>57</ele>
        <time>2022-08-20T10:22:39Z</time>
      </trkpt>
      <trkpt lat="47.07658" lon="-1.9647">
        <ele>57</ele>
        <time>2022-08-20T10:22:41Z</time>
      </trkpt>
      <trkpt lat="47.07673" lon="-1.96477">
        <ele>56</ele>
        <time>2022-08-20T10:22:43Z</time>
      </trkpt>
      <trkpt lat="47.07687" lon="-1.96489">
        <ele>56</ele>
        <time>2022-08-20T10:22:45Z</time>
      </trkpt>
      <trkpt lat="47.07698" lon="-1.96505">
        <ele>56</ele>
        <time>2022-08-20T10:22:47Z</time>
      </trkpt>
      <trkpt lat="47.07707" lon="-1.96522">
        <ele>56</ele>
        <time>2022-08-20T10:22:49Z</time>
      </trkpt>
      <trkpt lat="47.07716" lon="-1.96539">
        <ele>56</ele>
        <time>2022-08-20T10:22:51Z</time>
      </trkpt>
      <trkpt lat="47.07725" lon="-1.96555">
        <ele>56</ele>
        <time>2022-08-20T10:22:53Z</time>
      </trkpt>
      <trkpt lat="47.07733" lon="-1.96571">
        <ele>56</ele>
        <time>2022-08-20T10:22:55Z</time>
      </trkpt>
      <trkpt lat="47.07741" lon="-1.96588">
        <ele>56</ele>
        <time>2022-08-20T10:22:57Z</time>
      </trkpt>
      <trkpt lat="47.0775" lon="-1.96603">
        <ele>56</ele>
        <time>2022-08-20T10:22:59Z</time>
      </trkpt>
      <trkpt lat="47.07758" lon="-1.96619">
        <ele>56</ele>
        <time>2022-08-20T10:23:01Z</time>
      </trkpt>
      <trkpt lat="47.07765" lon="-1.96633">
        <ele>56</ele>
        <time>2022-08-20T10:23:03Z</time>
      </trkpt>
      <trkpt lat="47.07774" lon="-1.96648">
        <ele>56</ele>
        <time>2022-08-20T10:23:05Z</time>
      </trkpt>
      <trkpt lat="47.07782" lon="-1.96662">
        <ele>56</ele>
        <time>2022-08-20T10:23:07Z</time>
      </trkpt>
      <trkpt lat="47.07789" lon="-1.96676">
        <ele>57</ele>
        <time>2022-08-20T10:23:09Z</time>
      </trkpt>
      <trkpt lat="47.07794" lon="-1.9669">
        <ele>58</ele>
        <time>2022-08-20T10:23:11Z</time>
      </trkpt>
      <trkpt lat="47.07799" lon="-1.96702">
        <ele>58</ele>
        <time>2022-08-20T10:23:13Z</time>
      </trkpt>
      <trkpt lat="47.07804" lon="-1.96714">
        <ele>58</ele>
        <time>2022-08-20T10:23:15Z</time>
      </trkpt>
      <trkpt lat="47.07809" lon="-1.96725">
        <ele>59</ele>
        <time>2022-08-20T10:23:17Z</time>
      </trkpt>
      <trkpt lat="47.07815" lon="-1.96736">
        <ele>60</ele>
        <time>2022-08-20T10:23:19Z</time>
      </trkpt>
      <trkpt lat="47.07822" lon="-1.96747">
        <ele>61</ele>
        <time>2022-08-20T10:23:21Z</time>
      </trkpt>
      <trkpt lat="47.07829" lon="-1.9676">
        <ele>61</ele>
        <time>2022-08-20T10:23:23Z</time>
      </trkpt>
      <trkpt lat="47.07836" lon="-1.96771">
        <ele>61</ele>
        <time>2022-08-20T10:23:25Z</time>
      </trkpt>
      <trkpt lat="47.07844" lon="-1.96783">
        <ele>62</ele>
        <time>2022-08-20T10:23:27Z</time>
      </trkpt>
      <trkpt lat="47.0785" lon="-1.96794">
        <ele>62</ele>
        <time>2022-08-20T10:23:29Z</time>
      </trkpt>
      <trkpt lat="47.07857" lon="-1.96804">
        <ele>64</ele>
        <time>2022-08-20T10:23:31Z</time>
      </trkpt>
      <trkpt lat="47.07865" lon="-1.96815">
        <ele>64</ele>
        <time>2022-08-20T10:23:33Z</time>
      </trkpt>
      <trkpt lat="47.07872" lon="-1.96827">
        <ele>65</ele>
        <time>2022-08-20T10:23:35Z</time>
      </trkpt>
      <trkpt lat="47.07879" lon="-1.96838">
        <ele>65</ele>
        <time>2022-08-20T10:23:37Z</time>
      </trkpt>
      <trkpt lat="47.07885" lon="-1.96849">
        <ele>65</ele>
        <time>2022-08-20T10:23:39Z</time>
      </trkpt>
      <trkpt lat="47.07892" lon="-1.96859">
        <ele>66</ele>
        <time>2022-08-20T10:23:41Z</time>
      </trkpt>
      <trkpt lat="47.07899" lon="-1.9687">
        <ele>66</ele>
        <time>2022-08-20T10:23:43Z</time>
      </trkpt>
      <trkpt lat="47.07906" lon="-1.96881">
        <ele>66</ele>
        <time>2022-08-20T10:23:45Z</time>
      </trkpt>
      <trkpt lat="47.07912" lon="-1.96893">
        <ele>67</ele>
        <time>2022-08-20T10:23:47Z</time>
      </trkpt>
      <trkpt lat="47.07919" lon="-1.96904">
        <ele>67</ele>
        <time>2022-08-20T10:23:49Z</time>
      </trkpt>
      <trkpt lat="47.07926" lon="-1.96915">
        <ele>67</ele>
        <time>2022-08-20T10:23:51Z</time>
      </trkpt>
      <trkpt lat="47.07934" lon="-1.96926">
        <ele>67</ele>
        <time>2022-08-20T10:23:53Z</time>
      </trkpt>
      <trkpt lat="47.07941" lon="-1.96937">
        <ele>67</ele>
        <time>2022-08-20T10:23:55Z</time>
      </trkpt>
      <trkpt lat="47.07948" lon="-1.96949">
        <ele>67</ele>
        <time>2022-08-20T10:23:57Z</time>
      </trkpt>
      <trkpt lat="47.07955" lon="-1.9696">
        <ele>67</ele>
        <time>2022-08-20T10:23:59Z</time>
      </trkpt>
      <trkpt lat="47.07963" lon="-1.96971">
        <ele>67</ele>
        <time>2022-08-20T10:24:01Z</time>
      </trkpt>
      <trkpt lat="47.0797" lon="-1.96982">
        <ele>67</ele>
        <time>2022-08-20T10:24:03Z</time>
      </trkpt>
      <trkpt lat="47.07977" lon="-1.96993">
        <ele>68</ele>
        <time>2022-08-20T10:24:05Z</time>
      </trkpt>
      <trkpt lat="47.07984" lon="-1.97005">
        <ele>68</ele>
        <time>2022-08-20T10:24:07Z</time>
      </trkpt>
      <trkpt lat="47.07992" lon="-1.97017">
        <ele>68</ele>
        <time>2022-08-20T10:24:09Z</time>
      </trkpt>
      <trkpt lat="47.07999" lon="-1.97029">
        <ele>69</ele>
        <time>2022-08-20T10:24:11Z</time>
      </trkpt>
      <trkpt lat="47.08005" lon="-1.97039">
        <ele>69</ele>
        <time>2022-08-20T10:24:13Z</time>
      </trkpt>
      <trkpt lat="47.08012" lon="-1.97051">
        <ele>69</ele>
        <time>2022-08-20T10:24:15Z</time>
      </trkpt>
      <trkpt lat="47.08019" lon="-1.97063">
        <ele>70</ele>
        <time>2022-08-20T10:24:17Z</time>
      </trkpt>
      <trkpt lat="47.08027" lon="-1.97075">
        <ele>70</ele>
        <time>2022-08-20T10:24:19Z</time>
      </trkpt>
      <trkpt lat="47.08034" lon="-1.97086">
        <ele>70</ele>
        <time>2022-08-20T10:24:21Z</time>
      </trkpt>
      <trkpt lat="47.08043" lon="-1.97096">
        <ele>70</ele>
        <time>2022-08-20T10:24:23Z</time>
      </trkpt>
      <trkpt lat="47.08051" lon="-1.97104">
        <ele>70</ele>
        <time>2022-08-20T10:24:25Z</time>
      </trkpt>
      <trkpt lat="47.0806" lon="-1.97111">
        <ele>70</ele>
        <time>2022-08-20T10:24:27Z</time>
      </trkpt>
      <trkpt lat="47.08067" lon="-1.97121">
        <ele>70</ele>
        <time>2022-08-20T10:24:29Z</time>
      </trkpt>
      <trkpt lat="47.08069" lon="-1.97136">
        <ele>70</ele>
        <time>2022-08-20T10:24:31Z</time>
      </trkpt>
      <trkpt lat="47.08069" lon="-1.97152">
        <ele>70</ele>
        <time>2022-08-20T10:24:33Z</time>
      </trkpt>
      <trkpt lat="47.08071" lon="-1.97168">
        <ele>69</ele>
        <time>2022-08-20T10:24:35Z</time>
      </trkpt>
      <trkpt lat="47.08079" lon="-1.97179">
        <ele>69</ele>
        <time>2022-08-20T10:24:37Z</time>
      </trkpt>
      <trkpt lat="47.08089" lon="-1.97187">
        <ele>69</ele>
        <time>2022-08-20T10:24:39Z</time>
      </trkpt>
      <trkpt lat="47.081" lon="-1.97194">
        <ele>70</ele>
        <time>2022-08-20T10:24:41Z</time>
      </trkpt>
      <trkpt lat="47.0811" lon="-1.97201">
        <ele>71</ele>
        <time>2022-08-20T10:24:43Z</time>
      </trkpt>
      <trkpt lat="47.0812" lon="-1.97209">
        <ele>71</ele>
        <time>2022-08-20T10:24:45Z</time>
      </trkpt>
      <trkpt lat="47.0813" lon="-1.97217">
        <ele>72</ele>
        <time>2022-08-20T10:24:47Z</time>
      </trkpt>
      <trkpt lat="47.08139" lon="-1.97226">
        <ele>72</ele>
        <time>2022-08-20T10:24:49Z</time>
      </trkpt>
      <trkpt lat="47.0815" lon="-1.97235">
        <ele>73</ele>
        <time>2022-08-20T10:24:51Z</time>
      </trkpt>
      <trkpt lat="47.0816" lon="-1.97243">
        <ele>73</ele>
        <time>2022-08-20T10:24:53Z</time>
      </trkpt>
      <trkpt lat="47.08171" lon="-1.97251">
        <ele>73</ele>
        <time>2022-08-20T10:24:55Z</time>
      </trkpt>
      <trkpt lat="47.08181" lon="-1.97259">
        <ele>73</ele>
        <time>2022-08-20T10:24:57Z</time>
      </trkpt>
      <trkpt lat="47.08191" lon="-1.97266">
        <ele>73</ele>
        <time>2022-08-20T10:24:59Z</time>
      </trkpt>
      <trkpt lat="47.082" lon="-1.97274">
        <ele>73</ele>
        <time>2022-08-20T10:25:01Z</time>
      </trkpt>
      <trkpt lat="47.08208" lon="-1.97281">
        <ele>73</ele>
        <time>2022-08-20T10:25:03Z</time>
      </trkpt>
      <trkpt lat="47.08216" lon="-1.97288">
        <ele>73</ele>
        <time>2022-08-20T10:25:05Z</time>
      </trkpt>
      <trkpt lat="47.08224" lon="-1.97294">
        <ele>73</ele>
        <time>2022-08-20T10:25:07Z</time>
      </trkpt>
      <trkpt lat="47.08235" lon="-1.97291">
        <ele>73</ele>
        <time>2022-08-20T10:25:09Z</time>
      </trkpt>
      <trkpt lat="47.08245" lon="-1.97283">
        <ele>73</ele>
        <time>2022-08-20T10:25:11Z</time>
      </trkpt>
      <trkpt lat="47.08256" lon="-1.97275">
        <ele>73</ele>
        <time>2022-08-20T10:25:13Z</time>
      </trkpt>
      <trkpt lat="47.08267" lon="-1.97265">
        <ele>73</ele>
        <time>2022-08-20T10:25:15Z</time>
      </trkpt>
      <trkpt lat="47.08278" lon="-1.97255">
        <ele>72</ele>
        <time>2022-08-20T10:25:17Z</time>
      </trkpt>
      <trkpt lat="47.08289" lon="-1.97245">
        <ele>72</ele>
        <time>2022-08-20T10:25:19Z</time>
      </trkpt>
      <trkpt lat="47.08301" lon="-1.97235">
        <ele>72</ele>
        <time>2022-08-20T10:25:21Z</time>
      </trkpt>
      <trkpt lat="47.08312" lon="-1.97225">
        <ele>72</ele>
        <time>2022-08-20T10:25:23Z</time>
      </trkpt>
      <trkpt lat="47.08325" lon="-1.97215">
        <ele>71</ele>
        <time>2022-08-20T10:25:25Z</time>
      </trkpt>
      <trkpt lat="47.08336" lon="-1.97203">
        <ele>71</ele>
        <time>2022-08-20T10:25:27Z</time>
      </trkpt>
      <trkpt lat="47.08349" lon="-1.97192">
        <ele>70</ele>
        <time>2022-08-20T10:25:29Z</time>
      </trkpt>
      <trkpt lat="47.08362" lon="-1.97181">
        <ele>70</ele>
        <time>2022-08-20T10:25:31Z</time>
      </trkpt>
      <trkpt lat="47.08375" lon="-1.9717">
        <ele>70</ele>
        <time>2022-08-20T10:25:33Z</time>
      </trkpt>
      <trkpt lat="47.08389" lon="-1.97159">
        <ele>70</ele>
        <time>2022-08-20T10:25:35Z</time>
      </trkpt>
      <trkpt lat="47.08402" lon="-1.97147">
        <ele>71</ele>
        <time>2022-08-20T10:25:37Z</time>
      </trkpt>
      <trkpt lat="47.08414" lon="-1.97136">
        <ele>71</ele>
        <time>2022-08-20T10:25:39Z</time>
      </trkpt>
      <trkpt lat="47.08426" lon="-1.97125">
        <ele>71</ele>
        <time>2022-08-20T10:25:41Z</time>
      </trkpt>
      <trkpt lat="47.08439" lon="-1.97114">
        <ele>72</ele>
        <time>2022-08-20T10:25:43Z</time>
      </trkpt>
      <trkpt lat="47.08451" lon="-1.97105">
        <ele>72</ele>
        <time>2022-08-20T10:25:45Z</time>
      </trkpt>
      <trkpt lat="47.08464" lon="-1.97095">
        <ele>72</ele>
        <time>2022-08-20T10:25:47Z</time>
      </trkpt>
      <trkpt lat="47.08477" lon="-1.97086">
        <ele>72</ele>
        <time>2022-08-20T10:25:49Z</time>
      </trkpt>
      <trkpt lat="47.08489" lon="-1.97076">
        <ele>71</ele>
        <time>2022-08-20T10:25:51Z</time>
      </trkpt>
      <trkpt lat="47.08502" lon="-1.97067">
        <ele>72</ele>
        <time>2022-08-20T10:25:53Z</time>
      </trkpt>
      <trkpt lat="47.08514" lon="-1.97058">
        <ele>72</ele>
        <time>2022-08-20T10:25:55Z</time>
      </trkpt>
      <trkpt lat="47.08526" lon="-1.97049">
        <ele>72</ele>
        <time>2022-08-20T10:25:57Z</time>
      </trkpt>
      <trkpt lat="47.08538" lon="-1.97039">
        <ele>71</ele>
        <time>2022-08-20T10:25:59Z</time>
      </trkpt>
      <trkpt lat="47.0855" lon="-1.9703">
        <ele>71</ele>
        <time>2022-08-20T10:26:01Z</time>
      </trkpt>
      <trkpt lat="47.08562" lon="-1.9702">
        <ele>71</ele>
        <time>2022-08-20T10:26:03Z</time>
      </trkpt>
      <trkpt lat="47.08574" lon="-1.9701">
        <ele>71</ele>
        <time>2022-08-20T10:26:05Z</time>
      </trkpt>
      <trkpt lat="47.08585" lon="-1.96997">
        <ele>71</ele>
        <time>2022-08-20T10:26:07Z</time>
      </trkpt>
      <trkpt lat="47.08596" lon="-1.96984">
        <ele>71</ele>
        <time>2022-08-20T10:26:09Z</time>
      </trkpt>
      <trkpt lat="47.08606" lon="-1.9697">
        <ele>71</ele>
        <time>2022-08-20T10:26:11Z</time>
      </trkpt>
      <trkpt lat="47.08617" lon="-1.96956">
        <ele>71</ele>
        <time>2022-08-20T10:26:13Z</time>
      </trkpt>
      <trkpt lat="47.08626" lon="-1.96942">
        <ele>71</ele>
        <time>2022-08-20T10:26:15Z</time>
      </trkpt>
      <trkpt lat="47.08636" lon="-1.96928">
        <ele>72</ele>
        <time>2022-08-20T10:26:17Z</time>
      </trkpt>
      <trkpt lat="47.08646" lon="-1.96914">
        <ele>72</ele>
        <time>2022-08-20T10:26:19Z</time>
      </trkpt>
      <trkpt lat="47.08657" lon="-1.969">
        <ele>72</ele>
        <time>2022-08-20T10:26:21Z</time>
      </trkpt>
      <trkpt lat="47.08667" lon="-1.96887">
        <ele>71</ele>
        <time>2022-08-20T10:26:23Z</time>
      </trkpt>
      <trkpt lat="47.08677" lon="-1.96873">
        <ele>71</ele>
        <time>2022-08-20T10:26:25Z</time>
      </trkpt>
      <trkpt lat="47.08687" lon="-1.96861">
        <ele>71</ele>
        <time>2022-08-20T10:26:27Z</time>
      </trkpt>
      <trkpt lat="47.08698" lon="-1.96848">
        <ele>71</ele>
        <time>2022-08-20T10:26:29Z</time>
      </trkpt>
      <trkpt lat="47.08711" lon="-1.96836">
        <ele>71</ele>
        <time>2022-08-20T10:26:31Z</time>
      </trkpt>
      <trkpt lat="47.08723" lon="-1.96824">
        <ele>70</ele>
        <time>2022-08-20T10:26:33Z</time>
      </trkpt>
      <trkpt lat="47.08734" lon="-1.96812">
        <ele>70</ele>
        <time>2022-08-20T10:26:35Z</time>
      </trkpt>
      <trkpt lat="47.08746" lon="-1.968">
        <ele>70</ele>
        <time>2022-08-20T10:26:37Z</time>
      </trkpt>
      <trkpt lat="47.08757" lon="-1.96788">
        <ele>71</ele>
        <time>2022-08-20T10:26:39Z</time>
      </trkpt>
      <trkpt lat="47.08769" lon="-1.96777">
        <ele>71</ele>
        <time>2022-08-20T10:26:41Z</time>
      </trkpt>
      <trkpt lat="47.08781" lon="-1.96765">
        <ele>71</ele>
        <time>2022-08-20T10:26:43Z</time>
      </trkpt>
      <trkpt lat="47.08792" lon="-1.96753">
        <ele>71</ele>
        <time>2022-08-20T10:26:45Z</time>
      </trkpt>
      <trkpt lat="47.08805" lon="-1.96742">
        <ele>70</ele>
        <time>2022-08-20T10:26:47Z</time>
      </trkpt>
      <trkpt lat="47.08816" lon="-1.9673">
        <ele>70</ele>
        <time>2022-08-20T10:26:49Z</time>
      </trkpt>
      <trkpt lat="47.08828" lon="-1.96718">
        <ele>70</ele>
        <time>2022-08-20T10:26:51Z</time>
      </trkpt>
      <trkpt lat="47.08839" lon="-1.96706">
        <ele>71</ele>
        <time>2022-08-20T10:26:53Z</time>
      </trkpt>
      <trkpt lat="47.0885" lon="-1.96695">
        <ele>71</ele>
        <time>2022-08-20T10:26:55Z</time>
      </trkpt>
      <trkpt lat="47.08861" lon="-1.96683">
        <ele>71</ele>
        <time>2022-08-20T10:26:57Z</time>
      </trkpt>
      <trkpt lat="47.08873" lon="-1.96671">
        <ele>71</ele>
        <time>2022-08-20T10:26:59Z</time>
      </trkpt>
      <trkpt lat="47.08884" lon="-1.96659">
        <ele>70</ele>
        <time>2022-08-20T10:27:01Z</time>
      </trkpt>
      <trkpt lat="47.08896" lon="-1.96647">
        <ele>70</ele>
        <time>2022-08-20T10:27:03Z</time>
      </trkpt>
      <trkpt lat="47.08907" lon="-1.96636">
        <ele>70</ele>
        <time>2022-08-20T10:27:05Z</time>
      </trkpt>
      <trkpt lat="47.08919" lon="-1.96624">
        <ele>70</ele>
        <time>2022-08-20T10:27:07Z</time>
      </trkpt>
      <trkpt lat="47.0893" lon="-1.96612">
        <ele>70</ele>
        <time>2022-08-20T10:27:09Z</time>
      </trkpt>
      <trkpt lat="47.08942" lon="-1.96601">
        <ele>69</ele>
        <time>2022-08-20T10:27:11Z</time>
      </trkpt>
      <trkpt lat="47.08954" lon="-1.96589">
        <ele>69</ele>
        <time>2022-08-20T10:27:13Z</time>
      </trkpt>
      <trkpt lat="47.08966" lon="-1.96578">
        <ele>69</ele>
        <time>2022-08-20T10:27:15Z</time>
      </trkpt>
      <trkpt lat="47.08977" lon="-1.96566">
        <ele>69</ele>
        <time>2022-08-20T10:27:17Z</time>
      </trkpt>
      <trkpt lat="47.08989" lon="-1.96554">
        <ele>68</ele>
        <time>2022-08-20T10:27:19Z</time>
      </trkpt>
      <trkpt lat="47.09001" lon="-1.96542">
        <ele>68</ele>
        <time>2022-08-20T10:27:21Z</time>
      </trkpt>
      <trkpt lat="47.09013" lon="-1.9653">
        <ele>68</ele>
        <time>2022-08-20T10:27:23Z</time>
      </trkpt>
      <trkpt lat="47.09024" lon="-1.96518">
        <ele>68</ele>
        <time>2022-08-20T10:27:25Z</time>
      </trkpt>
      <trkpt lat="47.09036" lon="-1.96507">
        <ele>67</ele>
        <time>2022-08-20T10:27:27Z</time>
      </trkpt>
      <trkpt lat="47.09048" lon="-1.96495">
        <ele>67</ele>
        <time>2022-08-20T10:27:29Z</time>
      </trkpt>
      <trkpt lat="47.09059" lon="-1.96483">
        <ele>67</ele>
        <time>2022-08-20T10:27:31Z</time>
      </trkpt>
      <trkpt lat="47.0907" lon="-1.96472">
        <ele>67</ele>
        <time>2022-08-20T10:27:33Z</time>
      </trkpt>
      <trkpt lat="47.09082" lon="-1.96461">
        <ele>67</ele>
        <time>2022-08-20T10:27:35Z</time>
      </trkpt>
      <trkpt lat="47.09093" lon="-1.96449">
        <ele>67</ele>
        <time>2022-08-20T10:27:37Z</time>
      </trkpt>
      <trkpt lat="47.09105" lon="-1.96438">
        <ele>67</ele>
        <time>2022-08-20T10:27:39Z</time>
      </trkpt>
      <trkpt lat="47.09116" lon="-1.96426">
        <ele>66</ele>
        <time>2022-08-20T10:27:41Z</time>
      </trkpt>
      <trkpt lat="47.09128" lon="-1.96414">
        <ele>66</ele>
        <time>2022-08-20T10:27:43Z</time>
      </trkpt>
      <trkpt lat="47.0914" lon="-1.96402">
        <ele>65</ele>
        <time>2022-08-20T10:27:45Z</time>
      </trkpt>
      <trkpt lat="47.09152" lon="-1.9639">
        <ele>65</ele>
        <time>2022-08-20T10:27:47Z</time>
      </trkpt>
      <trkpt lat="47.09164" lon="-1.96377">
        <ele>64</ele>
        <time>2022-08-20T10:27:49Z</time>
      </trkpt>
      <trkpt lat="47.09176" lon="-1.96365">
        <ele>64</ele>
        <time>2022-08-20T10:27:51Z</time>
      </trkpt>
      <trkpt lat="47.09188" lon="-1.96352">
        <ele>64</ele>
        <time>2022-08-20T10:27:53Z</time>
      </trkpt>
      <trkpt lat="47.09201" lon="-1.9634">
        <ele>64</ele>
        <time>2022-08-20T10:27:55Z</time>
      </trkpt>
      <trkpt lat="47.09213" lon="-1.96328">
        <ele>63</ele>
        <time>2022-08-20T10:27:57Z</time>
      </trkpt>
      <trkpt lat="47.09225" lon="-1.96316">
        <ele>64</ele>
        <time>2022-08-20T10:27:59Z</time>
      </trkpt>
      <trkpt lat="47.09237" lon="-1.96304">
        <ele>65</ele>
        <time>2022-08-20T10:28:01Z</time>
      </trkpt>
      <trkpt lat="47.0925" lon="-1.96293">
        <ele>65</ele>
        <time>2022-08-20T10:28:03Z</time>
      </trkpt>
      <trkpt lat="47.09263" lon="-1.96283">
        <ele>65</ele>
        <time>2022-08-20T10:28:05Z</time>
      </trkpt>
      <trkpt lat="47.09275" lon="-1.96274">
        <ele>65</ele>
        <time>2022-08-20T10:28:07Z</time>
      </trkpt>
      <trkpt lat="47.09288" lon="-1.96265">
        <ele>65</ele>
        <time>2022-08-20T10:28:09Z</time>
      </trkpt>
      <trkpt lat="47.09302" lon="-1.96258">
        <ele>65</ele>
        <time>2022-08-20T10:28:11Z</time>
      </trkpt>
      <trkpt lat="47.09315" lon="-1.96251">
        <ele>64</ele>
        <time>2022-08-20T10:28:13Z</time>
      </trkpt>
      <trkpt lat="47.09327" lon="-1.96245">
        <ele>65</ele>
        <time>2022-08-20T10:28:15Z</time>
      </trkpt>
      <trkpt lat="47.0934" lon="-1.96239">
        <ele>66</ele>
        <time>2022-08-20T10:28:17Z</time>
      </trkpt>
      <trkpt lat="47.09353" lon="-1.96235">
        <ele>67</ele>
        <time>2022-08-20T10:28:19Z</time>
      </trkpt>
      <trkpt lat="47.09366" lon="-1.96231">
        <ele>67</ele>
        <time>2022-08-20T10:28:21Z</time>
      </trkpt>
      <trkpt lat="47.09379" lon="-1.96228">
        <ele>67</ele>
        <time>2022-08-20T10:28:23Z</time>
      </trkpt>
      <trkpt lat="47.09393" lon="-1.96225">
        <ele>67</ele>
        <time>2022-08-20T10:28:25Z</time>
      </trkpt>
      <trkpt lat="47.09407" lon="-1.96222">
        <ele>67</ele>
        <time>2022-08-20T10:28:27Z</time>
      </trkpt>
      <trkpt lat="47.09421" lon="-1.96222">
        <ele>67</ele>
        <time>2022-08-20T10:28:29Z</time>
      </trkpt>
      <trkpt lat="47.09435" lon="-1.96222">
        <ele>67</ele>
        <time>2022-08-20T10:28:31Z</time>
      </trkpt>
      <trkpt lat="47.09449" lon="-1.96222">
        <ele>66</ele>
        <time>2022-08-20T10:28:33Z</time>
      </trkpt>
      <trkpt lat="47.09463" lon="-1.96223">
        <ele>67</ele>
        <time>2022-08-20T10:28:35Z</time>
      </trkpt>
      <trkpt lat="47.09477" lon="-1.96223">
        <ele>67</ele>
        <time>2022-08-20T10:28:37Z</time>
      </trkpt>
      <trkpt lat="47.09491" lon="-1.96223">
        <ele>67</ele>
        <time>2022-08-20T10:28:39Z</time>
      </trkpt>
      <trkpt lat="47.09505" lon="-1.96223">
        <ele>67</ele>
        <time>2022-08-20T10:28:41Z</time>
      </trkpt>
      <trkpt lat="47.09518" lon="-1.96223">
        <ele>67</ele>
        <time>2022-08-20T10:28:43Z</time>
      </trkpt>
      <trkpt lat="47.09532" lon="-1.96221">
        <ele>67</ele>
        <time>2022-08-20T10:28:45Z</time>
      </trkpt>
      <trkpt lat="47.09545" lon="-1.96219">
        <ele>67</ele>
        <time>2022-08-20T10:28:47Z</time>
      </trkpt>
      <trkpt lat="47.09558" lon="-1.96214">
        <ele>68</ele>
        <time>2022-08-20T10:28:49Z</time>
      </trkpt>
      <trkpt lat="47.09571" lon="-1.96208">
        <ele>68</ele>
        <time>2022-08-20T10:28:51Z</time>
      </trkpt>
      <trkpt lat="47.09583" lon="-1.96202">
        <ele>68</ele>
        <time>2022-08-20T10:28:53Z</time>
      </trkpt>
      <trkpt lat="47.09595" lon="-1.96195">
        <ele>68</ele>
        <time>2022-08-20T10:28:55Z</time>
      </trkpt>
      <trkpt lat="47.09607" lon="-1.96189">
        <ele>69</ele>
        <time>2022-08-20T10:28:57Z</time>
      </trkpt>
      <trkpt lat="47.09619" lon="-1.96183">
        <ele>69</ele>
        <time>2022-08-20T10:28:59Z</time>
      </trkpt>
      <trkpt lat="47.09632" lon="-1.96178">
        <ele>69</ele>
        <time>2022-08-20T10:29:01Z</time>
      </trkpt>
      <trkpt lat="47.09644" lon="-1.96172">
        <ele>69</ele>
        <time>2022-08-20T10:29:03Z</time>
      </trkpt>
      <trkpt lat="47.09656" lon="-1.96166">
        <ele>69</ele>
        <time>2022-08-20T10:29:05Z</time>
      </trkpt>
      <trkpt lat="47.09669" lon="-1.96159">
        <ele>68</ele>
        <time>2022-08-20T10:29:07Z</time>
      </trkpt>
      <trkpt lat="47.09681" lon="-1.96154">
        <ele>69</ele>
        <time>2022-08-20T10:29:09Z</time>
      </trkpt>
      <trkpt lat="47.09694" lon="-1.96148">
        <ele>69</ele>
        <time>2022-08-20T10:29:11Z</time>
      </trkpt>
      <trkpt lat="47.09707" lon="-1.96142">
        <ele>68</ele>
        <time>2022-08-20T10:29:13Z</time>
      </trkpt>
      <trkpt lat="47.09719" lon="-1.96136">
        <ele>68</ele>
        <time>2022-08-20T10:29:15Z</time>
      </trkpt>
      <trkpt lat="47.09732" lon="-1.96129">
        <ele>68</ele>
        <time>2022-08-20T10:29:17Z</time>
      </trkpt>
      <trkpt lat="47.09744" lon="-1.96123">
        <ele>68</ele>
        <time>2022-08-20T10:29:19Z</time>
      </trkpt>
      <trkpt lat="47.09756" lon="-1.96115">
        <ele>68</ele>
        <time>2022-08-20T10:29:21Z</time>
      </trkpt>
      <trkpt lat="47.09768" lon="-1.96107">
        <ele>68</ele>
        <time>2022-08-20T10:29:23Z</time>
      </trkpt>
      <trkpt lat="47.0978" lon="-1.96099">
        <ele>68</ele>
        <time>2022-08-20T10:29:25Z</time>
      </trkpt>
      <trkpt lat="47.09792" lon="-1.96091">
        <ele>68</ele>
        <time>2022-08-20T10:29:27Z</time>
      </trkpt>
      <trkpt lat="47.09805" lon="-1.96082">
        <ele>67</ele>
        <time>2022-08-20T10:29:29Z</time>
      </trkpt>
      <trkpt lat="47.09817" lon="-1.96073">
        <ele>67</ele>
        <time>2022-08-20T10:29:31Z</time>
      </trkpt>
      <trkpt lat="47.0983" lon="-1.96065">
        <ele>66</ele>
        <time>2022-08-20T10:29:33Z</time>
      </trkpt>
      <trkpt lat="47.09843" lon="-1.96056">
        <ele>66</ele>
        <time>2022-08-20T10:29:35Z</time>
      </trkpt>
      <trkpt lat="47.09856" lon="-1.96047">
        <ele>66</ele>
        <time>2022-08-20T10:29:37Z</time>
      </trkpt>
      <trkpt lat="47.09869" lon="-1.96038">
        <ele>66</ele>
        <time>2022-08-20T10:29:39Z</time>
      </trkpt>
      <trkpt lat="47.09882" lon="-1.96029">
        <ele>66</ele>
        <time>2022-08-20T10:29:41Z</time>
      </trkpt>
      <trkpt lat="47.09895" lon="-1.96019">
        <ele>66</ele>
        <time>2022-08-20T10:29:43Z</time>
      </trkpt>
      <trkpt lat="47.09909" lon="-1.9601">
        <ele>66</ele>
        <time>2022-08-20T10:29:45Z</time>
      </trkpt>
      <trkpt lat="47.09923" lon="-1.96001">
        <ele>66</ele>
        <time>2022-08-20T10:29:47Z</time>
      </trkpt>
      <trkpt lat="47.09935" lon="-1.95991">
        <ele>66</ele>
        <time>2022-08-20T10:29:49Z</time>
      </trkpt>
      <trkpt lat="47.09949" lon="-1.95982">
        <ele>66</ele>
        <time>2022-08-20T10:29:51Z</time>
      </trkpt>
      <trkpt lat="47.09963" lon="-1.95973">
        <ele>66</ele>
        <time>2022-08-20T10:29:53Z</time>
      </trkpt>
      <trkpt lat="47.09977" lon="-1.95964">
        <ele>66</ele>
        <time>2022-08-20T10:29:55Z</time>
      </trkpt>
      <trkpt lat="47.09992" lon="-1.95953">
        <ele>65</ele>
        <time>2022-08-20T10:29:57Z</time>
      </trkpt>
      <trkpt lat="47.10006" lon="-1.95944">
        <ele>65</ele>
        <time>2022-08-20T10:29:59Z</time>
      </trkpt>
      <trkpt lat="47.10025" lon="-1.9593">
        <ele>65</ele>
        <time>2022-08-20T10:30:02Z</time>
      </trkpt>
      <trkpt lat="47.10045" lon="-1.95916">
        <ele>65</ele>
        <time>2022-08-20T10:30:05Z</time>
      </trkpt>
      <trkpt lat="47.10057" lon="-1.95906">
        <ele>65</ele>
        <time>2022-08-20T10:30:07Z</time>
      </trkpt>
      <trkpt lat="47.1007" lon="-1.95896">
        <ele>66</ele>
        <time>2022-08-20T10:30:09Z</time>
      </trkpt>
      <trkpt lat="47.10082" lon="-1.95886">
        <ele>65</ele>
        <time>2022-08-20T10:30:11Z</time>
      </trkpt>
      <trkpt lat="47.10095" lon="-1.95877">
        <ele>66</ele>
        <time>2022-08-20T10:30:13Z</time>
      </trkpt>
      <trkpt lat="47.10108" lon="-1.95867">
        <ele>66</ele>
        <time>2022-08-20T10:30:15Z</time>
      </trkpt>
      <trkpt lat="47.1012" lon="-1.95857">
        <ele>65</ele>
        <time>2022-08-20T10:30:17Z</time>
      </trkpt>
      <trkpt lat="47.1014" lon="-1.95843">
        <ele>66</ele>
        <time>2022-08-20T10:30:20Z</time>
      </trkpt>
      <trkpt lat="47.10152" lon="-1.95833">
        <ele>66</ele>
        <time>2022-08-20T10:30:22Z</time>
      </trkpt>
      <trkpt lat="47.10164" lon="-1.95824">
        <ele>66</ele>
        <time>2022-08-20T10:30:24Z</time>
      </trkpt>
      <trkpt lat="47.10177" lon="-1.95814">
        <ele>66</ele>
        <time>2022-08-20T10:30:26Z</time>
      </trkpt>
      <trkpt lat="47.10189" lon="-1.95805">
        <ele>66</ele>
        <time>2022-08-20T10:30:28Z</time>
      </trkpt>
      <trkpt lat="47.10202" lon="-1.95796">
        <ele>66</ele>
        <time>2022-08-20T10:30:30Z</time>
      </trkpt>
      <trkpt lat="47.10215" lon="-1.95788">
        <ele>66</ele>
        <time>2022-08-20T10:30:32Z</time>
      </trkpt>
      <trkpt lat="47.10227" lon="-1.9578">
        <ele>66</ele>
        <time>2022-08-20T10:30:34Z</time>
      </trkpt>
      <trkpt lat="47.10241" lon="-1.95772">
        <ele>66</ele>
        <time>2022-08-20T10:30:36Z</time>
      </trkpt>
      <trkpt lat="47.10254" lon="-1.95765">
        <ele>66</ele>
        <time>2022-08-20T10:30:38Z</time>
      </trkpt>
      <trkpt lat="47.10267" lon="-1.95759">
        <ele>67</ele>
        <time>2022-08-20T10:30:40Z</time>
      </trkpt>
      <trkpt lat="47.1028" lon="-1.95752">
        <ele>67</ele>
        <time>2022-08-20T10:30:42Z</time>
      </trkpt>
      <trkpt lat="47.10293" lon="-1.95746">
        <ele>68</ele>
        <time>2022-08-20T10:30:44Z</time>
      </trkpt>
      <trkpt lat="47.10306" lon="-1.9574">
        <ele>68</ele>
        <time>2022-08-20T10:30:46Z</time>
      </trkpt>
      <trkpt lat="47.1032" lon="-1.95734">
        <ele>68</ele>
        <time>2022-08-20T10:30:48Z</time>
      </trkpt>
      <trkpt lat="47.10333" lon="-1.95727">
        <ele>67</ele>
        <time>2022-08-20T10:30:50Z</time>
      </trkpt>
      <trkpt lat="47.10346" lon="-1.95721">
        <ele>67</ele>
        <time>2022-08-20T10:30:52Z</time>
      </trkpt>
      <trkpt lat="47.1036" lon="-1.95714">
        <ele>67</ele>
        <time>2022-08-20T10:30:54Z</time>
      </trkpt>
      <trkpt lat="47.10373" lon="-1.95707">
        <ele>68</ele>
        <time>2022-08-20T10:30:56Z</time>
      </trkpt>
      <trkpt lat="47.10386" lon="-1.95701">
        <ele>68</ele>
        <time>2022-08-20T10:30:58Z</time>
      </trkpt>
      <trkpt lat="47.10399" lon="-1.95694">
        <ele>68</ele>
        <time>2022-08-20T10:31:00Z</time>
      </trkpt>
      <trkpt lat="47.10413" lon="-1.95688">
        <ele>68</ele>
        <time>2022-08-20T10:31:02Z</time>
      </trkpt>
      <trkpt lat="47.10426" lon="-1.95682">
        <ele>68</ele>
        <time>2022-08-20T10:31:04Z</time>
      </trkpt>
      <trkpt lat="47.1044" lon="-1.95675">
        <ele>68</ele>
        <time>2022-08-20T10:31:06Z</time>
      </trkpt>
      <trkpt lat="47.10454" lon="-1.95669">
        <ele>68</ele>
        <time>2022-08-20T10:31:08Z</time>
      </trkpt>
      <trkpt lat="47.10467" lon="-1.95663">
        <ele>67</ele>
        <time>2022-08-20T10:31:10Z</time>
      </trkpt>
      <trkpt lat="47.1048" lon="-1.95656">
        <ele>67</ele>
        <time>2022-08-20T10:31:12Z</time>
      </trkpt>
      <trkpt lat="47.10493" lon="-1.9565">
        <ele>66</ele>
        <time>2022-08-20T10:31:14Z</time>
      </trkpt>
      <trkpt lat="47.10506" lon="-1.95644">
        <ele>66</ele>
        <time>2022-08-20T10:31:16Z</time>
      </trkpt>
      <trkpt lat="47.10519" lon="-1.95638">
        <ele>66</ele>
        <time>2022-08-20T10:31:18Z</time>
      </trkpt>
      <trkpt lat="47.10532" lon="-1.95632">
        <ele>66</ele>
        <time>2022-08-20T10:31:20Z</time>
      </trkpt>
      <trkpt lat="47.10544" lon="-1.95626">
        <ele>66</ele>
        <time>2022-08-20T10:31:22Z</time>
      </trkpt>
      <trkpt lat="47.10557" lon="-1.9562">
        <ele>66</ele>
        <time>2022-08-20T10:31:24Z</time>
      </trkpt>
      <trkpt lat="47.1057" lon="-1.95613">
        <ele>66</ele>
        <time>2022-08-20T10:31:26Z</time>
      </trkpt>
      <trkpt lat="47.10583" lon="-1.95607">
        <ele>66</ele>
        <time>2022-08-20T10:31:28Z</time>
      </trkpt>
      <trkpt lat="47.10597" lon="-1.95599">
        <ele>66</ele>
        <time>2022-08-20T10:31:30Z</time>
      </trkpt>
      <trkpt lat="47.10609" lon="-1.95592">
        <ele>66</ele>
        <time>2022-08-20T10:31:32Z</time>
      </trkpt>
      <trkpt lat="47.10621" lon="-1.9559">
        <ele>66</ele>
        <time>2022-08-20T10:31:34Z</time>
      </trkpt>
      <trkpt lat="47.10633" lon="-1.95598">
        <ele>67</ele>
        <time>2022-08-20T10:31:36Z</time>
      </trkpt>
      <trkpt lat="47.10644" lon="-1.95607">
        <ele>67</ele>
        <time>2022-08-20T10:31:38Z</time>
      </trkpt>
      <trkpt lat="47.10656" lon="-1.95616">
        <ele>67</ele>
        <time>2022-08-20T10:31:40Z</time>
      </trkpt>
      <trkpt lat="47.10669" lon="-1.95624">
        <ele>67</ele>
        <time>2022-08-20T10:31:42Z</time>
      </trkpt>
      <trkpt lat="47.10681" lon="-1.95632">
        <ele>67</ele>
        <time>2022-08-20T10:31:44Z</time>
      </trkpt>
      <trkpt lat="47.10694" lon="-1.9564">
        <ele>66</ele>
        <time>2022-08-20T10:31:46Z</time>
      </trkpt>
      <trkpt lat="47.10707" lon="-1.95649">
        <ele>66</ele>
        <time>2022-08-20T10:31:48Z</time>
      </trkpt>
      <trkpt lat="47.1072" lon="-1.95659">
        <ele>65</ele>
        <time>2022-08-20T10:31:50Z</time>
      </trkpt>
      <trkpt lat="47.10732" lon="-1.95673">
        <ele>65</ele>
        <time>2022-08-20T10:31:52Z</time>
      </trkpt>
      <trkpt lat="47.10742" lon="-1.9569">
        <ele>64</ele>
        <time>2022-08-20T10:31:54Z</time>
      </trkpt>
      <trkpt lat="47.10752" lon="-1.95707">
        <ele>63</ele>
        <time>2022-08-20T10:31:56Z</time>
      </trkpt>
      <trkpt lat="47.10762" lon="-1.95724">
        <ele>63</ele>
        <time>2022-08-20T10:31:58Z</time>
      </trkpt>
      <trkpt lat="47.10772" lon="-1.95741">
        <ele>63</ele>
        <time>2022-08-20T10:32:00Z</time>
      </trkpt>
      <trkpt lat="47.10782" lon="-1.95758">
        <ele>62</ele>
        <time>2022-08-20T10:32:02Z</time>
      </trkpt>
      <trkpt lat="47.10793" lon="-1.95775">
        <ele>62</ele>
        <time>2022-08-20T10:32:04Z</time>
      </trkpt>
      <trkpt lat="47.10804" lon="-1.9579">
        <ele>62</ele>
        <time>2022-08-20T10:32:06Z</time>
      </trkpt>
      <trkpt lat="47.10815" lon="-1.95806">
        <ele>62</ele>
        <time>2022-08-20T10:32:08Z</time>
      </trkpt>
      <trkpt lat="47.10827" lon="-1.9582">
        <ele>62</ele>
        <time>2022-08-20T10:32:10Z</time>
      </trkpt>
      <trkpt lat="47.10838" lon="-1.95834">
        <ele>61</ele>
        <time>2022-08-20T10:32:12Z</time>
      </trkpt>
      <trkpt lat="47.10851" lon="-1.95848">
        <ele>61</ele>
        <time>2022-08-20T10:32:14Z</time>
      </trkpt>
      <trkpt lat="47.10863" lon="-1.95861">
        <ele>61</ele>
        <time>2022-08-20T10:32:16Z</time>
      </trkpt>
      <trkpt lat="47.10875" lon="-1.95874">
        <ele>61</ele>
        <time>2022-08-20T10:32:18Z</time>
      </trkpt>
      <trkpt lat="47.10887" lon="-1.95886">
        <ele>60</ele>
        <time>2022-08-20T10:32:20Z</time>
      </trkpt>
      <trkpt lat="47.109" lon="-1.95899">
        <ele>60</ele>
        <time>2022-08-20T10:32:22Z</time>
      </trkpt>
      <trkpt lat="47.10913" lon="-1.9591">
        <ele>60</ele>
        <time>2022-08-20T10:32:24Z</time>
      </trkpt>
      <trkpt lat="47.10928" lon="-1.95915">
        <ele>60</ele>
        <time>2022-08-20T10:32:26Z</time>
      </trkpt>
      <trkpt lat="47.10943" lon="-1.95917">
        <ele>60</ele>
        <time>2022-08-20T10:32:28Z</time>
      </trkpt>
      <trkpt lat="47.10957" lon="-1.95916">
        <ele>60</ele>
        <time>2022-08-20T10:32:30Z</time>
      </trkpt>
      <trkpt lat="47.10972" lon="-1.95915">
        <ele>60</ele>
        <time>2022-08-20T10:32:32Z</time>
      </trkpt>
      <trkpt lat="47.10986" lon="-1.95914">
        <ele>60</ele>
        <time>2022-08-20T10:32:34Z</time>
      </trkpt>
      <trkpt lat="47.11001" lon="-1.95915">
        <ele>61</ele>
        <time>2022-08-20T10:32:36Z</time>
      </trkpt>
      <trkpt lat="47.11015" lon="-1.95916">
        <ele>61</ele>
        <time>2022-08-20T10:32:38Z</time>
      </trkpt>
      <trkpt lat="47.11029" lon="-1.95919">
        <ele>61</ele>
        <time>2022-08-20T10:32:40Z</time>
      </trkpt>
      <trkpt lat="47.11043" lon="-1.95923">
        <ele>61</ele>
        <time>2022-08-20T10:32:42Z</time>
      </trkpt>
      <trkpt lat="47.11056" lon="-1.95926">
        <ele>61</ele>
        <time>2022-08-20T10:32:44Z</time>
      </trkpt>
      <trkpt lat="47.11069" lon="-1.95929">
        <ele>61</ele>
        <time>2022-08-20T10:32:46Z</time>
      </trkpt>
      <trkpt lat="47.11083" lon="-1.95933">
        <ele>60</ele>
        <time>2022-08-20T10:32:48Z</time>
      </trkpt>
      <trkpt lat="47.11097" lon="-1.95937">
        <ele>60</ele>
        <time>2022-08-20T10:32:50Z</time>
      </trkpt>
      <trkpt lat="47.1111" lon="-1.95942">
        <ele>61</ele>
        <time>2022-08-20T10:32:52Z</time>
      </trkpt>
      <trkpt lat="47.11124" lon="-1.95946">
        <ele>61</ele>
        <time>2022-08-20T10:32:54Z</time>
      </trkpt>
      <trkpt lat="47.11137" lon="-1.95951">
        <ele>61</ele>
        <time>2022-08-20T10:32:56Z</time>
      </trkpt>
      <trkpt lat="47.1115" lon="-1.95957">
        <ele>61</ele>
        <time>2022-08-20T10:32:58Z</time>
      </trkpt>
      <trkpt lat="47.11163" lon="-1.95963">
        <ele>62</ele>
        <time>2022-08-20T10:33:00Z</time>
      </trkpt>
      <trkpt lat="47.11176" lon="-1.95969">
        <ele>62</ele>
        <time>2022-08-20T10:33:02Z</time>
      </trkpt>
      <trkpt lat="47.11189" lon="-1.95974">
        <ele>62</ele>
        <time>2022-08-20T10:33:04Z</time>
      </trkpt>
      <trkpt lat="47.11202" lon="-1.9598">
        <ele>62</ele>
        <time>2022-08-20T10:33:06Z</time>
      </trkpt>
      <trkpt lat="47.11215" lon="-1.95986">
        <ele>62</ele>
        <time>2022-08-20T10:33:08Z</time>
      </trkpt>
      <trkpt lat="47.11228" lon="-1.9599">
        <ele>62</ele>
        <time>2022-08-20T10:33:10Z</time>
      </trkpt>
      <trkpt lat="47.11241" lon="-1.95994">
        <ele>62</ele>
        <time>2022-08-20T10:33:12Z</time>
      </trkpt>
      <trkpt lat="47.11254" lon="-1.95997">
        <ele>61</ele>
        <time>2022-08-20T10:33:14Z</time>
      </trkpt>
      <trkpt lat="47.11267" lon="-1.95999">
        <ele>61</ele>
        <time>2022-08-20T10:33:16Z</time>
      </trkpt>
      <trkpt lat="47.11279" lon="-1.96003">
        <ele>62</ele>
        <time>2022-08-20T10:33:18Z</time>
      </trkpt>
      <trkpt lat="47.11289" lon="-1.96016">
        <ele>62</ele>
        <time>2022-08-20T10:33:20Z</time>
      </trkpt>
      <trkpt lat="47.11295" lon="-1.96034">
        <ele>61</ele>
        <time>2022-08-20T10:33:22Z</time>
      </trkpt>
      <trkpt lat="47.11299" lon="-1.96052">
        <ele>61</ele>
        <time>2022-08-20T10:33:24Z</time>
      </trkpt>
      <trkpt lat="47.11303" lon="-1.96071">
        <ele>60</ele>
        <time>2022-08-20T10:33:26Z</time>
      </trkpt>
      <trkpt lat="47.11306" lon="-1.96089">
        <ele>60</ele>
        <time>2022-08-20T10:33:28Z</time>
      </trkpt>
      <trkpt lat="47.11308" lon="-1.96105">
        <ele>60</ele>
        <time>2022-08-20T10:33:30Z</time>
      </trkpt>
      <trkpt lat="47.11312" lon="-1.96121">
        <ele>60</ele>
        <time>2022-08-20T10:33:32Z</time>
      </trkpt>
      <trkpt lat="47.11316" lon="-1.96135">
        <ele>60</ele>
        <time>2022-08-20T10:33:34Z</time>
      </trkpt>
      <trkpt lat="47.11321" lon="-1.96147">
        <ele>60</ele>
        <time>2022-08-20T10:33:36Z</time>
      </trkpt>
      <trkpt lat="47.11327" lon="-1.96159">
        <ele>60</ele>
        <time>2022-08-20T10:33:38Z</time>
      </trkpt>
      <trkpt lat="47.11332" lon="-1.96166">
        <ele>59</ele>
        <time>2022-08-20T10:35:39Z</time>
      </trkpt>
      <trkpt lat="47.11334" lon="-1.96183">
        <ele>57</ele>
        <time>2022-08-20T10:37:11Z</time>
      </trkpt>
      <trkpt lat="47.11343" lon="-1.96194">
        <ele>58</ele>
        <time>2022-08-20T10:37:14Z</time>
      </trkpt>
      <trkpt lat="47.11352" lon="-1.9619">
        <ele>57</ele>
        <time>2022-08-20T10:37:19Z</time>
      </trkpt>
      <trkpt lat="47.11358" lon="-1.96178">
        <ele>58</ele>
        <time>2022-08-20T10:37:22Z</time>
      </trkpt>
      <trkpt lat="47.11362" lon="-1.96163">
        <ele>60</ele>
        <time>2022-08-20T10:37:24Z</time>
      </trkpt>
      <trkpt lat="47.11366" lon="-1.96146">
        <ele>60</ele>
        <time>2022-08-20T10:37:26Z</time>
      </trkpt>
      <trkpt lat="47.11369" lon="-1.96129">
        <ele>59</ele>
        <time>2022-08-20T10:37:28Z</time>
      </trkpt>
      <trkpt lat="47.11373" lon="-1.96111">
        <ele>59</ele>
        <time>2022-08-20T10:37:30Z</time>
      </trkpt>
      <trkpt lat="47.11376" lon="-1.96093">
        <ele>59</ele>
        <time>2022-08-20T10:37:32Z</time>
      </trkpt>
      <trkpt lat="47.1138" lon="-1.96075">
        <ele>59</ele>
        <time>2022-08-20T10:37:34Z</time>
      </trkpt>
      <trkpt lat="47.11384" lon="-1.96056">
        <ele>59</ele>
        <time>2022-08-20T10:37:36Z</time>
      </trkpt>
      <trkpt lat="47.11388" lon="-1.96037">
        <ele>59</ele>
        <time>2022-08-20T10:37:38Z</time>
      </trkpt>
      <trkpt lat="47.11392" lon="-1.96017">
        <ele>59</ele>
        <time>2022-08-20T10:37:40Z</time>
      </trkpt>
      <trkpt lat="47.11396" lon="-1.95997">
        <ele>58</ele>
        <time>2022-08-20T10:37:42Z</time>
      </trkpt>
      <trkpt lat="47.114" lon="-1.95977">
        <ele>58</ele>
        <time>2022-08-20T10:37:44Z</time>
      </trkpt>
      <trkpt lat="47.11404" lon="-1.95957">
        <ele>58</ele>
        <time>2022-08-20T10:37:46Z</time>
      </trkpt>
      <trkpt lat="47.11408" lon="-1.95937">
        <ele>58</ele>
        <time>2022-08-20T10:37:48Z</time>
      </trkpt>
      <trkpt lat="47.11412" lon="-1.95917">
        <ele>58</ele>
        <time>2022-08-20T10:37:50Z</time>
      </trkpt>
      <trkpt lat="47.11416" lon="-1.95897">
        <ele>58</ele>
        <time>2022-08-20T10:37:52Z</time>
      </trkpt>
      <trkpt lat="47.11421" lon="-1.95877">
        <ele>57</ele>
        <time>2022-08-20T10:37:54Z</time>
      </trkpt>
      <trkpt lat="47.11425" lon="-1.95857">
        <ele>57</ele>
        <time>2022-08-20T10:37:56Z</time>
      </trkpt>
      <trkpt lat="47.11429" lon="-1.95837">
        <ele>57</ele>
        <time>2022-08-20T10:37:58Z</time>
      </trkpt>
      <trkpt lat="47.11433" lon="-1.95817">
        <ele>56</ele>
        <time>2022-08-20T10:38:00Z</time>
      </trkpt>
      <trkpt lat="47.11437" lon="-1.95797">
        <ele>56</ele>
        <time>2022-08-20T10:38:02Z</time>
      </trkpt>
      <trkpt lat="47.11441" lon="-1.95775">
        <ele>56</ele>
        <time>2022-08-20T10:38:04Z</time>
      </trkpt>
      <trkpt lat="47.11445" lon="-1.95755">
        <ele>56</ele>
        <time>2022-08-20T10:38:06Z</time>
      </trkpt>
      <trkpt lat="47.1145" lon="-1.95734">
        <ele>56</ele>
        <time>2022-08-20T10:38:08Z</time>
      </trkpt>
      <trkpt lat="47.11453" lon="-1.95713">
        <ele>56</ele>
        <time>2022-08-20T10:38:10Z</time>
      </trkpt>
      <trkpt lat="47.11458" lon="-1.95692">
        <ele>56</ele>
        <time>2022-08-20T10:38:12Z</time>
      </trkpt>
      <trkpt lat="47.11462" lon="-1.95672">
        <ele>55</ele>
        <time>2022-08-20T10:38:14Z</time>
      </trkpt>
      <trkpt lat="47.11467" lon="-1.95651">
        <ele>55</ele>
        <time>2022-08-20T10:38:16Z</time>
      </trkpt>
      <trkpt lat="47.11471" lon="-1.95629">
        <ele>55</ele>
        <time>2022-08-20T10:38:18Z</time>
      </trkpt>
      <trkpt lat="47.11475" lon="-1.95609">
        <ele>55</ele>
        <time>2022-08-20T10:38:20Z</time>
      </trkpt>
      <trkpt lat="47.11479" lon="-1.95588">
        <ele>55</ele>
        <time>2022-08-20T10:38:22Z</time>
      </trkpt>
      <trkpt lat="47.11483" lon="-1.95568">
        <ele>55</ele>
        <time>2022-08-20T10:38:24Z</time>
      </trkpt>
      <trkpt lat="47.11487" lon="-1.95547">
        <ele>55</ele>
        <time>2022-08-20T10:38:26Z</time>
      </trkpt>
      <trkpt lat="47.11491" lon="-1.95527">
        <ele>55</ele>
        <time>2022-08-20T10:38:28Z</time>
      </trkpt>
      <trkpt lat="47.11495" lon="-1.95507">
        <ele>56</ele>
        <time>2022-08-20T10:38:30Z</time>
      </trkpt>
      <trkpt lat="47.11498" lon="-1.95487">
        <ele>55</ele>
        <time>2022-08-20T10:38:32Z</time>
      </trkpt>
      <trkpt lat="47.11503" lon="-1.95467">
        <ele>55</ele>
        <time>2022-08-20T10:38:34Z</time>
      </trkpt>
      <trkpt lat="47.11507" lon="-1.95446">
        <ele>55</ele>
        <time>2022-08-20T10:38:36Z</time>
      </trkpt>
      <trkpt lat="47.11511" lon="-1.95425">
        <ele>55</ele>
        <time>2022-08-20T10:38:38Z</time>
      </trkpt>
      <trkpt lat="47.11516" lon="-1.95404">
        <ele>55</ele>
        <time>2022-08-20T10:38:40Z</time>
      </trkpt>
      <trkpt lat="47.1152" lon="-1.95384">
        <ele>55</ele>
        <time>2022-08-20T10:38:42Z</time>
      </trkpt>
      <trkpt lat="47.11525" lon="-1.95363">
        <ele>55</ele>
        <time>2022-08-20T10:38:44Z</time>
      </trkpt>
      <trkpt lat="47.11529" lon="-1.95343">
        <ele>55</ele>
        <time>2022-08-20T10:38:46Z</time>
      </trkpt>
      <trkpt lat="47.11534" lon="-1.95322">
        <ele>55</ele>
        <time>2022-08-20T10:38:48Z</time>
      </trkpt>
      <trkpt lat="47.11538" lon="-1.95302">
        <ele>55</ele>
        <time>2022-08-20T10:38:50Z</time>
      </trkpt>
      <trkpt lat="47.11543" lon="-1.95283">
        <ele>55</ele>
        <time>2022-08-20T10:38:52Z</time>
      </trkpt>
      <trkpt lat="47.11548" lon="-1.95262">
        <ele>54</ele>
        <time>2022-08-20T10:38:54Z</time>
      </trkpt>
      <trkpt lat="47.11553" lon="-1.95242">
        <ele>54</ele>
        <time>2022-08-20T10:38:56Z</time>
      </trkpt>
      <trkpt lat="47.11556" lon="-1.95221">
        <ele>54</ele>
        <time>2022-08-20T10:38:58Z</time>
      </trkpt>
      <trkpt lat="47.11559" lon="-1.952">
        <ele>53</ele>
        <time>2022-08-20T10:39:00Z</time>
      </trkpt>
      <trkpt lat="47.1156" lon="-1.95179">
        <ele>53</ele>
        <time>2022-08-20T10:39:02Z</time>
      </trkpt>
      <trkpt lat="47.11559" lon="-1.95158">
        <ele>54</ele>
        <time>2022-08-20T10:39:04Z</time>
      </trkpt>
      <trkpt lat="47.11558" lon="-1.95138">
        <ele>54</ele>
        <time>2022-08-20T10:39:06Z</time>
      </trkpt>
      <trkpt lat="47.11557" lon="-1.95117">
        <ele>54</ele>
        <time>2022-08-20T10:39:08Z</time>
      </trkpt>
      <trkpt lat="47.11556" lon="-1.95097">
        <ele>54</ele>
        <time>2022-08-20T10:39:10Z</time>
      </trkpt>
      <trkpt lat="47.11555" lon="-1.95077">
        <ele>54</ele>
        <time>2022-08-20T10:39:12Z</time>
      </trkpt>
      <trkpt lat="47.11553" lon="-1.95057">
        <ele>54</ele>
        <time>2022-08-20T10:39:14Z</time>
      </trkpt>
      <trkpt lat="47.11552" lon="-1.95038">
        <ele>54</ele>
        <time>2022-08-20T10:39:16Z</time>
      </trkpt>
      <trkpt lat="47.11552" lon="-1.95018">
        <ele>54</ele>
        <time>2022-08-20T10:39:18Z</time>
      </trkpt>
      <trkpt lat="47.11551" lon="-1.94999">
        <ele>55</ele>
        <time>2022-08-20T10:39:20Z</time>
      </trkpt>
      <trkpt lat="47.1155" lon="-1.94981">
        <ele>55</ele>
        <time>2022-08-20T10:39:22Z</time>
      </trkpt>
      <trkpt lat="47.11547" lon="-1.94966">
        <ele>55</ele>
        <time>2022-08-20T10:39:24Z</time>
      </trkpt>
      <trkpt lat="47.11542" lon="-1.94952">
        <ele>55</ele>
        <time>2022-08-20T10:39:26Z</time>
      </trkpt>
      <trkpt lat="47.11538" lon="-1.94936">
        <ele>56</ele>
        <time>2022-08-20T10:39:28Z</time>
      </trkpt>
      <trkpt lat="47.11539" lon="-1.94916">
        <ele>56</ele>
        <time>2022-08-20T10:39:30Z</time>
      </trkpt>
      <trkpt lat="47.1154" lon="-1.94896">
        <ele>55</ele>
        <time>2022-08-20T10:39:32Z</time>
      </trkpt>
      <trkpt lat="47.11545" lon="-1.94877">
        <ele>55</ele>
        <time>2022-08-20T10:39:34Z</time>
      </trkpt>
      <trkpt lat="47.11556" lon="-1.94864">
        <ele>55</ele>
        <time>2022-08-20T10:39:36Z</time>
      </trkpt>
      <trkpt lat="47.11569" lon="-1.94855">
        <ele>55</ele>
        <time>2022-08-20T10:39:38Z</time>
      </trkpt>
      <trkpt lat="47.11582" lon="-1.94848">
        <ele>55</ele>
        <time>2022-08-20T10:39:40Z</time>
      </trkpt>
      <trkpt lat="47.11596" lon="-1.94841">
        <ele>56</ele>
        <time>2022-08-20T10:39:42Z</time>
      </trkpt>
      <trkpt lat="47.11609" lon="-1.94831">
        <ele>56</ele>
        <time>2022-08-20T10:39:44Z</time>
      </trkpt>
      <trkpt lat="47.1162" lon="-1.94818">
        <ele>56</ele>
        <time>2022-08-20T10:39:46Z</time>
      </trkpt>
      <trkpt lat="47.1163" lon="-1.94804">
        <ele>56</ele>
        <time>2022-08-20T10:39:48Z</time>
      </trkpt>
      <trkpt lat="47.11638" lon="-1.94787">
        <ele>55</ele>
        <time>2022-08-20T10:39:50Z</time>
      </trkpt>
      <trkpt lat="47.11645" lon="-1.94768">
        <ele>55</ele>
        <time>2022-08-20T10:39:52Z</time>
      </trkpt>
      <trkpt lat="47.11649" lon="-1.94749">
        <ele>55</ele>
        <time>2022-08-20T10:39:54Z</time>
      </trkpt>
      <trkpt lat="47.11652" lon="-1.9473">
        <ele>55</ele>
        <time>2022-08-20T10:39:56Z</time>
      </trkpt>
      <trkpt lat="47.11654" lon="-1.9471">
        <ele>55</ele>
        <time>2022-08-20T10:39:58Z</time>
      </trkpt>
      <trkpt lat="47.11658" lon="-1.9469">
        <ele>54</ele>
        <time>2022-08-20T10:40:00Z</time>
      </trkpt>
      <trkpt lat="47.11661" lon="-1.9467">
        <ele>54</ele>
        <time>2022-08-20T10:40:02Z</time>
      </trkpt>
      <trkpt lat="47.11666" lon="-1.94651">
        <ele>54</ele>
        <time>2022-08-20T10:40:04Z</time>
      </trkpt>
      <trkpt lat="47.1167" lon="-1.94632">
        <ele>54</ele>
        <time>2022-08-20T10:40:06Z</time>
      </trkpt>
      <trkpt lat="47.11675" lon="-1.94613">
        <ele>54</ele>
        <time>2022-08-20T10:40:08Z</time>
      </trkpt>
      <trkpt lat="47.1168" lon="-1.94594">
        <ele>54</ele>
        <time>2022-08-20T10:40:10Z</time>
      </trkpt>
      <trkpt lat="47.11684" lon="-1.94574">
        <ele>54</ele>
        <time>2022-08-20T10:40:12Z</time>
      </trkpt>
      <trkpt lat="47.11687" lon="-1.94554">
        <ele>54</ele>
        <time>2022-08-20T10:40:14Z</time>
      </trkpt>
      <trkpt lat="47.11688" lon="-1.94533">
        <ele>53</ele>
        <time>2022-08-20T10:40:16Z</time>
      </trkpt>
      <trkpt lat="47.11687" lon="-1.94514">
        <ele>53</ele>
        <time>2022-08-20T10:40:18Z</time>
      </trkpt>
      <trkpt lat="47.11686" lon="-1.94493">
        <ele>53</ele>
        <time>2022-08-20T10:40:20Z</time>
      </trkpt>
      <trkpt lat="47.11684" lon="-1.94474">
        <ele>53</ele>
        <time>2022-08-20T10:40:22Z</time>
      </trkpt>
      <trkpt lat="47.11682" lon="-1.94453">
        <ele>53</ele>
        <time>2022-08-20T10:40:24Z</time>
      </trkpt>
      <trkpt lat="47.1168" lon="-1.94434">
        <ele>53</ele>
        <time>2022-08-20T10:40:26Z</time>
      </trkpt>
      <trkpt lat="47.11677" lon="-1.94415">
        <ele>53</ele>
        <time>2022-08-20T10:40:28Z</time>
      </trkpt>
      <trkpt lat="47.11673" lon="-1.94397">
        <ele>53</ele>
        <time>2022-08-20T10:40:30Z</time>
      </trkpt>
      <trkpt lat="47.11669" lon="-1.94379">
        <ele>53</ele>
        <time>2022-08-20T10:40:32Z</time>
      </trkpt>
      <trkpt lat="47.11664" lon="-1.94362">
        <ele>52</ele>
        <time>2022-08-20T10:40:34Z</time>
      </trkpt>
      <trkpt lat="47.11658" lon="-1.94344">
        <ele>52</ele>
        <time>2022-08-20T10:40:36Z</time>
      </trkpt>
      <trkpt lat="47.11654" lon="-1.94326">
        <ele>52</ele>
        <time>2022-08-20T10:40:38Z</time>
      </trkpt>
      <trkpt lat="47.1165" lon="-1.94308">
        <ele>52</ele>
        <time>2022-08-20T10:40:40Z</time>
      </trkpt>
      <trkpt lat="47.11646" lon="-1.9429">
        <ele>53</ele>
        <time>2022-08-20T10:40:42Z</time>
      </trkpt>
      <trkpt lat="47.11641" lon="-1.94272">
        <ele>53</ele>
        <time>2022-08-20T10:40:44Z</time>
      </trkpt>
      <trkpt lat="47.11635" lon="-1.94255">
        <ele>53</ele>
        <time>2022-08-20T10:40:46Z</time>
      </trkpt>
      <trkpt lat="47.11629" lon="-1.94239">
        <ele>53</ele>
        <time>2022-08-20T10:40:48Z</time>
      </trkpt>
      <trkpt lat="47.11623" lon="-1.94222">
        <ele>53</ele>
        <time>2022-08-20T10:40:50Z</time>
      </trkpt>
      <trkpt lat="47.11616" lon="-1.94207">
        <ele>53</ele>
        <time>2022-08-20T10:40:52Z</time>
      </trkpt>
      <trkpt lat="47.11609" lon="-1.94191">
        <ele>54</ele>
        <time>2022-08-20T10:40:54Z</time>
      </trkpt>
      <trkpt lat="47.11603" lon="-1.94175">
        <ele>54</ele>
        <time>2022-08-20T10:40:56Z</time>
      </trkpt>
      <trkpt lat="47.11597" lon="-1.94159">
        <ele>54</ele>
        <time>2022-08-20T10:40:58Z</time>
      </trkpt>
      <trkpt lat="47.1159" lon="-1.94143">
        <ele>55</ele>
        <time>2022-08-20T10:41:00Z</time>
      </trkpt>
      <trkpt lat="47.11583" lon="-1.94127">
        <ele>56</ele>
        <time>2022-08-20T10:41:02Z</time>
      </trkpt>
      <trkpt lat="47.11577" lon="-1.94112">
        <ele>56</ele>
        <time>2022-08-20T10:41:04Z</time>
      </trkpt>
      <trkpt lat="47.1157" lon="-1.94096">
        <ele>56</ele>
        <time>2022-08-20T10:41:06Z</time>
      </trkpt>
      <trkpt lat="47.11562" lon="-1.94083">
        <ele>56</ele>
        <time>2022-08-20T10:41:08Z</time>
      </trkpt>
      <trkpt lat="47.11554" lon="-1.9407">
        <ele>56</ele>
        <time>2022-08-20T10:41:10Z</time>
      </trkpt>
      <trkpt lat="47.11546" lon="-1.94056">
        <ele>56</ele>
        <time>2022-08-20T10:41:12Z</time>
      </trkpt>
      <trkpt lat="47.11539" lon="-1.94041">
        <ele>56</ele>
        <time>2022-08-20T10:41:14Z</time>
      </trkpt>
      <trkpt lat="47.11532" lon="-1.94025">
        <ele>57</ele>
        <time>2022-08-20T10:41:16Z</time>
      </trkpt>
      <trkpt lat="47.11524" lon="-1.94011">
        <ele>57</ele>
        <time>2022-08-20T10:41:18Z</time>
      </trkpt>
      <trkpt lat="47.11515" lon="-1.93998">
        <ele>57</ele>
        <time>2022-08-20T10:41:20Z</time>
      </trkpt>
      <trkpt lat="47.11506" lon="-1.93986">
        <ele>57</ele>
        <time>2022-08-20T10:41:22Z</time>
      </trkpt>
      <trkpt lat="47.11497" lon="-1.93973">
        <ele>56</ele>
        <time>2022-08-20T10:41:24Z</time>
      </trkpt>
      <trkpt lat="47.11488" lon="-1.93962">
        <ele>56</ele>
        <time>2022-08-20T10:41:26Z</time>
      </trkpt>
      <trkpt lat="47.11478" lon="-1.93949">
        <ele>57</ele>
        <time>2022-08-20T10:41:28Z</time>
      </trkpt>
      <trkpt lat="47.11469" lon="-1.93935">
        <ele>57</ele>
        <time>2022-08-20T10:41:30Z</time>
      </trkpt>
      <trkpt lat="47.11461" lon="-1.9392">
        <ele>57</ele>
        <time>2022-08-20T10:41:32Z</time>
      </trkpt>
      <trkpt lat="47.11451" lon="-1.93906">
        <ele>57</ele>
        <time>2022-08-20T10:41:34Z</time>
      </trkpt>
      <trkpt lat="47.11442" lon="-1.93892">
        <ele>57</ele>
        <time>2022-08-20T10:41:36Z</time>
      </trkpt>
      <trkpt lat="47.11432" lon="-1.93878">
        <ele>57</ele>
        <time>2022-08-20T10:41:38Z</time>
      </trkpt>
      <trkpt lat="47.11423" lon="-1.93864">
        <ele>57</ele>
        <time>2022-08-20T10:41:40Z</time>
      </trkpt>
      <trkpt lat="47.11414" lon="-1.9385">
        <ele>57</ele>
        <time>2022-08-20T10:41:42Z</time>
      </trkpt>
      <trkpt lat="47.11406" lon="-1.93836">
        <ele>57</ele>
        <time>2022-08-20T10:41:44Z</time>
      </trkpt>
      <trkpt lat="47.11399" lon="-1.93821">
        <ele>57</ele>
        <time>2022-08-20T10:41:46Z</time>
      </trkpt>
      <trkpt lat="47.11391" lon="-1.93807">
        <ele>57</ele>
        <time>2022-08-20T10:41:48Z</time>
      </trkpt>
      <trkpt lat="47.11385" lon="-1.93796">
        <ele>57</ele>
        <time>2022-08-20T10:41:50Z</time>
      </trkpt>
      <trkpt lat="47.11379" lon="-1.93785">
        <ele>58</ele>
        <time>2022-08-20T10:41:52Z</time>
      </trkpt>
      <trkpt lat="47.1138" lon="-1.93769">
        <ele>60</ele>
        <time>2022-08-20T10:41:54Z</time>
      </trkpt>
      <trkpt lat="47.11394" lon="-1.93761">
        <ele>59</ele>
        <time>2022-08-20T10:41:56Z</time>
      </trkpt>
      <trkpt lat="47.11408" lon="-1.93756">
        <ele>59</ele>
        <time>2022-08-20T10:41:58Z</time>
      </trkpt>
      <trkpt lat="47.11421" lon="-1.93752">
        <ele>59</ele>
        <time>2022-08-20T10:42:00Z</time>
      </trkpt>
      <trkpt lat="47.11435" lon="-1.93751">
        <ele>59</ele>
        <time>2022-08-20T10:42:02Z</time>
      </trkpt>
      <trkpt lat="47.1145" lon="-1.93751">
        <ele>60</ele>
        <time>2022-08-20T10:42:04Z</time>
      </trkpt>
      <trkpt lat="47.11463" lon="-1.93744">
        <ele>60</ele>
        <time>2022-08-20T10:42:06Z</time>
      </trkpt>
      <trkpt lat="47.11476" lon="-1.93737">
        <ele>61</ele>
        <time>2022-08-20T10:42:08Z</time>
      </trkpt>
      <trkpt lat="47.11489" lon="-1.93728">
        <ele>60</ele>
        <time>2022-08-20T10:42:10Z</time>
      </trkpt>
      <trkpt lat="47.11498" lon="-1.93713">
        <ele>60</ele>
        <time>2022-08-20T10:42:12Z</time>
      </trkpt>
      <trkpt lat="47.11506" lon="-1.93696">
        <ele>60</ele>
        <time>2022-08-20T10:42:14Z</time>
      </trkpt>
      <trkpt lat="47.11513" lon="-1.93679">
        <ele>60</ele>
        <time>2022-08-20T10:42:16Z</time>
      </trkpt>
      <trkpt lat="47.1152" lon="-1.93662">
        <ele>60</ele>
        <time>2022-08-20T10:42:18Z</time>
      </trkpt>
      <trkpt lat="47.11528" lon="-1.93646">
        <ele>60</ele>
        <time>2022-08-20T10:42:20Z</time>
      </trkpt>
      <trkpt lat="47.11536" lon="-1.9363">
        <ele>60</ele>
        <time>2022-08-20T10:42:22Z</time>
      </trkpt>
      <trkpt lat="47.11543" lon="-1.93613">
        <ele>60</ele>
        <time>2022-08-20T10:42:24Z</time>
      </trkpt>
      <trkpt lat="47.11549" lon="-1.93595">
        <ele>60</ele>
        <time>2022-08-20T10:42:26Z</time>
      </trkpt>
      <trkpt lat="47.11555" lon="-1.93578">
        <ele>60</ele>
        <time>2022-08-20T10:42:28Z</time>
      </trkpt>
      <trkpt lat="47.1156" lon="-1.93561">
        <ele>61</ele>
        <time>2022-08-20T10:42:30Z</time>
      </trkpt>
      <trkpt lat="47.11566" lon="-1.93542">
        <ele>61</ele>
        <time>2022-08-20T10:42:32Z</time>
      </trkpt>
      <trkpt lat="47.11572" lon="-1.93524">
        <ele>62</ele>
        <time>2022-08-20T10:42:34Z</time>
      </trkpt>
      <trkpt lat="47.11577" lon="-1.93506">
        <ele>62</ele>
        <time>2022-08-20T10:42:36Z</time>
      </trkpt>
      <trkpt lat="47.11582" lon="-1.93488">
        <ele>62</ele>
        <time>2022-08-20T10:42:38Z</time>
      </trkpt>
      <trkpt lat="47.11588" lon="-1.9347">
        <ele>62</ele>
        <time>2022-08-20T10:42:40Z</time>
      </trkpt>
      <trkpt lat="47.11594" lon="-1.93452">
        <ele>61</ele>
        <time>2022-08-20T10:42:42Z</time>
      </trkpt>
      <trkpt lat="47.11599" lon="-1.93434">
        <ele>61</ele>
        <time>2022-08-20T10:42:44Z</time>
      </trkpt>
      <trkpt lat="47.11604" lon="-1.93416">
        <ele>61</ele>
        <time>2022-08-20T10:42:46Z</time>
      </trkpt>
      <trkpt lat="47.1161" lon="-1.93397">
        <ele>60</ele>
        <time>2022-08-20T10:42:48Z</time>
      </trkpt>
      <trkpt lat="47.11616" lon="-1.93378">
        <ele>61</ele>
        <time>2022-08-20T10:42:50Z</time>
      </trkpt>
      <trkpt lat="47.11621" lon="-1.9336">
        <ele>60</ele>
        <time>2022-08-20T10:42:52Z</time>
      </trkpt>
      <trkpt lat="47.11627" lon="-1.93342">
        <ele>60</ele>
        <time>2022-08-20T10:42:54Z</time>
      </trkpt>
      <trkpt lat="47.11633" lon="-1.93323">
        <ele>60</ele>
        <time>2022-08-20T10:42:56Z</time>
      </trkpt>
      <trkpt lat="47.11638" lon="-1.93305">
        <ele>59</ele>
        <time>2022-08-20T10:42:58Z</time>
      </trkpt>
      <trkpt lat="47.11644" lon="-1.93286">
        <ele>59</ele>
        <time>2022-08-20T10:43:00Z</time>
      </trkpt>
      <trkpt lat="47.1165" lon="-1.93267">
        <ele>59</ele>
        <time>2022-08-20T10:43:02Z</time>
      </trkpt>
      <trkpt lat="47.11656" lon="-1.93248">
        <ele>59</ele>
        <time>2022-08-20T10:43:04Z</time>
      </trkpt>
      <trkpt lat="47.11662" lon="-1.93229">
        <ele>58</ele>
        <time>2022-08-20T10:43:06Z</time>
      </trkpt>
      <trkpt lat="47.11668" lon="-1.9321">
        <ele>58</ele>
        <time>2022-08-20T10:43:08Z</time>
      </trkpt>
      <trkpt lat="47.11673" lon="-1.93191">
        <ele>58</ele>
        <time>2022-08-20T10:43:10Z</time>
      </trkpt>
      <trkpt lat="47.11679" lon="-1.93172">
        <ele>58</ele>
        <time>2022-08-20T10:43:12Z</time>
      </trkpt>
      <trkpt lat="47.11685" lon="-1.93154">
        <ele>58</ele>
        <time>2022-08-20T10:43:14Z</time>
      </trkpt>
      <trkpt lat="47.11691" lon="-1.93135">
        <ele>58</ele>
        <time>2022-08-20T10:43:16Z</time>
      </trkpt>
      <trkpt lat="47.11697" lon="-1.93117">
        <ele>58</ele>
        <time>2022-08-20T10:43:18Z</time>
      </trkpt>
      <trkpt lat="47.11703" lon="-1.93099">
        <ele>58</ele>
        <time>2022-08-20T10:43:20Z</time>
      </trkpt>
      <trkpt lat="47.11708" lon="-1.9308">
        <ele>58</ele>
        <time>2022-08-20T10:43:22Z</time>
      </trkpt>
      <trkpt lat="47.11713" lon="-1.93061">
        <ele>57</ele>
        <time>2022-08-20T10:43:24Z</time>
      </trkpt>
      <trkpt lat="47.11718" lon="-1.93043">
        <ele>58</ele>
        <time>2022-08-20T10:43:26Z</time>
      </trkpt>
      <trkpt lat="47.11723" lon="-1.93024">
        <ele>57</ele>
        <time>2022-08-20T10:43:28Z</time>
      </trkpt>
      <trkpt lat="47.11728" lon="-1.93006">
        <ele>57</ele>
        <time>2022-08-20T10:43:30Z</time>
      </trkpt>
      <trkpt lat="47.11733" lon="-1.92987">
        <ele>57</ele>
        <time>2022-08-20T10:43:32Z</time>
      </trkpt>
      <trkpt lat="47.11738" lon="-1.92969">
        <ele>57</ele>
        <time>2022-08-20T10:43:34Z</time>
      </trkpt>
      <trkpt lat="47.11741" lon="-1.9295">
        <ele>57</ele>
        <time>2022-08-20T10:43:36Z</time>
      </trkpt>
      <trkpt lat="47.11749" lon="-1.92935">
        <ele>58</ele>
        <time>2022-08-20T10:43:38Z</time>
      </trkpt>
      <trkpt lat="47.11757" lon="-1.92921">
        <ele>58</ele>
        <time>2022-08-20T10:43:40Z</time>
      </trkpt>
      <trkpt lat="47.11763" lon="-1.92901">
        <ele>58</ele>
        <time>2022-08-20T10:43:42Z</time>
      </trkpt>
      <trkpt lat="47.11769" lon="-1.92883">
        <ele>58</ele>
        <time>2022-08-20T10:43:44Z</time>
      </trkpt>
      <trkpt lat="47.11774" lon="-1.92865">
        <ele>58</ele>
        <time>2022-08-20T10:43:46Z</time>
      </trkpt>
      <trkpt lat="47.1178" lon="-1.92846">
        <ele>58</ele>
        <time>2022-08-20T10:43:48Z</time>
      </trkpt>
      <trkpt lat="47.11786" lon="-1.92827">
        <ele>58</ele>
        <time>2022-08-20T10:43:50Z</time>
      </trkpt>
      <trkpt lat="47.11794" lon="-1.928">
        <ele>57</ele>
        <time>2022-08-20T10:43:53Z</time>
      </trkpt>
      <trkpt lat="47.118" lon="-1.92781">
        <ele>58</ele>
        <time>2022-08-20T10:43:55Z</time>
      </trkpt>
      <trkpt lat="47.11805" lon="-1.92762">
        <ele>58</ele>
        <time>2022-08-20T10:43:57Z</time>
      </trkpt>
      <trkpt lat="47.11811" lon="-1.92743">
        <ele>57</ele>
        <time>2022-08-20T10:43:59Z</time>
      </trkpt>
      <trkpt lat="47.11817" lon="-1.92724">
        <ele>57</ele>
        <time>2022-08-20T10:44:01Z</time>
      </trkpt>
      <trkpt lat="47.11823" lon="-1.92705">
        <ele>57</ele>
        <time>2022-08-20T10:44:03Z</time>
      </trkpt>
      <trkpt lat="47.11829" lon="-1.92686">
        <ele>57</ele>
        <time>2022-08-20T10:44:05Z</time>
      </trkpt>
      <trkpt lat="47.11835" lon="-1.92667">
        <ele>57</ele>
        <time>2022-08-20T10:44:07Z</time>
      </trkpt>
      <trkpt lat="47.11841" lon="-1.92648">
        <ele>57</ele>
        <time>2022-08-20T10:44:09Z</time>
      </trkpt>
      <trkpt lat="47.11846" lon="-1.9263">
        <ele>57</ele>
        <time>2022-08-20T10:44:11Z</time>
      </trkpt>
      <trkpt lat="47.11853" lon="-1.92611">
        <ele>57</ele>
        <time>2022-08-20T10:44:13Z</time>
      </trkpt>
      <trkpt lat="47.11858" lon="-1.92592">
        <ele>57</ele>
        <time>2022-08-20T10:44:15Z</time>
      </trkpt>
      <trkpt lat="47.11864" lon="-1.92572">
        <ele>57</ele>
        <time>2022-08-20T10:44:17Z</time>
      </trkpt>
      <trkpt lat="47.1187" lon="-1.92553">
        <ele>57</ele>
        <time>2022-08-20T10:44:19Z</time>
      </trkpt>
      <trkpt lat="47.11876" lon="-1.92534">
        <ele>57</ele>
        <time>2022-08-20T10:44:21Z</time>
      </trkpt>
      <trkpt lat="47.11881" lon="-1.92515">
        <ele>57</ele>
        <time>2022-08-20T10:44:23Z</time>
      </trkpt>
      <trkpt lat="47.11887" lon="-1.92497">
        <ele>57</ele>
        <time>2022-08-20T10:44:25Z</time>
      </trkpt>
      <trkpt lat="47.11893" lon="-1.92479">
        <ele>57</ele>
        <time>2022-08-20T10:44:27Z</time>
      </trkpt>
      <trkpt lat="47.11898" lon="-1.92461">
        <ele>57</ele>
        <time>2022-08-20T10:44:29Z</time>
      </trkpt>
      <trkpt lat="47.11904" lon="-1.92443">
        <ele>57</ele>
        <time>2022-08-20T10:44:31Z</time>
      </trkpt>
      <trkpt lat="47.11909" lon="-1.92426">
        <ele>57</ele>
        <time>2022-08-20T10:44:33Z</time>
      </trkpt>
      <trkpt lat="47.11915" lon="-1.92408">
        <ele>57</ele>
        <time>2022-08-20T10:44:35Z</time>
      </trkpt>
      <trkpt lat="47.1192" lon="-1.9239">
        <ele>57</ele>
        <time>2022-08-20T10:44:37Z</time>
      </trkpt>
      <trkpt lat="47.11926" lon="-1.92372">
        <ele>58</ele>
        <time>2022-08-20T10:44:39Z</time>
      </trkpt>
      <trkpt lat="47.11931" lon="-1.92355">
        <ele>58</ele>
        <time>2022-08-20T10:44:41Z</time>
      </trkpt>
      <trkpt lat="47.11937" lon="-1.92337">
        <ele>58</ele>
        <time>2022-08-20T10:44:43Z</time>
      </trkpt>
      <trkpt lat="47.11942" lon="-1.9232">
        <ele>58</ele>
        <time>2022-08-20T10:44:45Z</time>
      </trkpt>
      <trkpt lat="47.11947" lon="-1.92303">
        <ele>58</ele>
        <time>2022-08-20T10:44:47Z</time>
      </trkpt>
      <trkpt lat="47.11953" lon="-1.92285">
        <ele>58</ele>
        <time>2022-08-20T10:44:49Z</time>
      </trkpt>
      <trkpt lat="47.11958" lon="-1.92268">
        <ele>58</ele>
        <time>2022-08-20T10:44:51Z</time>
      </trkpt>
      <trkpt lat="47.11963" lon="-1.92251">
        <ele>58</ele>
        <time>2022-08-20T10:44:53Z</time>
      </trkpt>
      <trkpt lat="47.11968" lon="-1.92234">
        <ele>58</ele>
        <time>2022-08-20T10:44:55Z</time>
      </trkpt>
      <trkpt lat="47.11973" lon="-1.92216">
        <ele>58</ele>
        <time>2022-08-20T10:44:57Z</time>
      </trkpt>
      <trkpt lat="47.11979" lon="-1.922">
        <ele>59</ele>
        <time>2022-08-20T10:44:59Z</time>
      </trkpt>
      <trkpt lat="47.11982" lon="-1.92182">
        <ele>59</ele>
        <time>2022-08-20T10:45:01Z</time>
      </trkpt>
      <trkpt lat="47.11989" lon="-1.92165">
        <ele>59</ele>
        <time>2022-08-20T10:45:03Z</time>
      </trkpt>
      <trkpt lat="47.11995" lon="-1.92149">
        <ele>59</ele>
        <time>2022-08-20T10:45:05Z</time>
      </trkpt>
      <trkpt lat="47.11999" lon="-1.92131">
        <ele>59</ele>
        <time>2022-08-20T10:45:07Z</time>
      </trkpt>
      <trkpt lat="47.12005" lon="-1.92114">
        <ele>59</ele>
        <time>2022-08-20T10:45:09Z</time>
      </trkpt>
      <trkpt lat="47.1201" lon="-1.92097">
        <ele>60</ele>
        <time>2022-08-20T10:45:11Z</time>
      </trkpt>
      <trkpt lat="47.12015" lon="-1.92079">
        <ele>60</ele>
        <time>2022-08-20T10:45:13Z</time>
      </trkpt>
      <trkpt lat="47.1202" lon="-1.92063">
        <ele>60</ele>
        <time>2022-08-20T10:45:15Z</time>
      </trkpt>
      <trkpt lat="47.12025" lon="-1.92046">
        <ele>60</ele>
        <time>2022-08-20T10:45:17Z</time>
      </trkpt>
      <trkpt lat="47.12031" lon="-1.9203">
        <ele>60</ele>
        <time>2022-08-20T10:45:19Z</time>
      </trkpt>
      <trkpt lat="47.12036" lon="-1.92014">
        <ele>60</ele>
        <time>2022-08-20T10:45:21Z</time>
      </trkpt>
      <trkpt lat="47.12042" lon="-1.91998">
        <ele>60</ele>
        <time>2022-08-20T10:45:23Z</time>
      </trkpt>
      <trkpt lat="47.12048" lon="-1.91982">
        <ele>60</ele>
        <time>2022-08-20T10:45:25Z</time>
      </trkpt>
      <trkpt lat="47.12054" lon="-1.91965">
        <ele>60</ele>
        <time>2022-08-20T10:45:27Z</time>
      </trkpt>
      <trkpt lat="47.1206" lon="-1.91949">
        <ele>60</ele>
        <time>2022-08-20T10:45:29Z</time>
      </trkpt>
      <trkpt lat="47.12065" lon="-1.91932">
        <ele>60</ele>
        <time>2022-08-20T10:45:31Z</time>
      </trkpt>
      <trkpt lat="47.12072" lon="-1.91916">
        <ele>59</ele>
        <time>2022-08-20T10:45:33Z</time>
      </trkpt>
      <trkpt lat="47.12077" lon="-1.91899">
        <ele>59</ele>
        <time>2022-08-20T10:45:35Z</time>
      </trkpt>
      <trkpt lat="47.12084" lon="-1.91882">
        <ele>59</ele>
        <time>2022-08-20T10:45:37Z</time>
      </trkpt>
      <trkpt lat="47.1209" lon="-1.91865">
        <ele>59</ele>
        <time>2022-08-20T10:45:39Z</time>
      </trkpt>
      <trkpt lat="47.12096" lon="-1.91848">
        <ele>58</ele>
        <time>2022-08-20T10:45:41Z</time>
      </trkpt>
      <trkpt lat="47.12103" lon="-1.91831">
        <ele>58</ele>
        <time>2022-08-20T10:45:43Z</time>
      </trkpt>
      <trkpt lat="47.12109" lon="-1.91813">
        <ele>58</ele>
        <time>2022-08-20T10:45:45Z</time>
      </trkpt>
      <trkpt lat="47.12116" lon="-1.91795">
        <ele>58</ele>
        <time>2022-08-20T10:45:47Z</time>
      </trkpt>
      <trkpt lat="47.12122" lon="-1.91777">
        <ele>58</ele>
        <time>2022-08-20T10:45:49Z</time>
      </trkpt>
      <trkpt lat="47.12128" lon="-1.91759">
        <ele>58</ele>
        <time>2022-08-20T10:45:51Z</time>
      </trkpt>
      <trkpt lat="47.12135" lon="-1.91742">
        <ele>58</ele>
        <time>2022-08-20T10:45:53Z</time>
      </trkpt>
      <trkpt lat="47.12141" lon="-1.91723">
        <ele>58</ele>
        <time>2022-08-20T10:45:55Z</time>
      </trkpt>
      <trkpt lat="47.12147" lon="-1.91705">
        <ele>58</ele>
        <time>2022-08-20T10:45:57Z</time>
      </trkpt>
      <trkpt lat="47.12154" lon="-1.91687">
        <ele>58</ele>
        <time>2022-08-20T10:45:59Z</time>
      </trkpt>
      <trkpt lat="47.12161" lon="-1.91669">
        <ele>57</ele>
        <time>2022-08-20T10:46:01Z</time>
      </trkpt>
      <trkpt lat="47.12167" lon="-1.9165">
        <ele>57</ele>
        <time>2022-08-20T10:46:03Z</time>
      </trkpt>
      <trkpt lat="47.12173" lon="-1.9163">
        <ele>57</ele>
        <time>2022-08-20T10:46:05Z</time>
      </trkpt>
      <trkpt lat="47.12179" lon="-1.91612">
        <ele>57</ele>
        <time>2022-08-20T10:46:07Z</time>
      </trkpt>
      <trkpt lat="47.12186" lon="-1.91595">
        <ele>57</ele>
        <time>2022-08-20T10:46:09Z</time>
      </trkpt>
      <trkpt lat="47.12194" lon="-1.91578">
        <ele>57</ele>
        <time>2022-08-20T10:46:11Z</time>
      </trkpt>
      <trkpt lat="47.12201" lon="-1.91561">
        <ele>56</ele>
        <time>2022-08-20T10:46:13Z</time>
      </trkpt>
      <trkpt lat="47.12208" lon="-1.91543">
        <ele>56</ele>
        <time>2022-08-20T10:46:15Z</time>
      </trkpt>
      <trkpt lat="47.12213" lon="-1.91525">
        <ele>56</ele>
        <time>2022-08-20T10:46:17Z</time>
      </trkpt>
      <trkpt lat="47.12218" lon="-1.91508">
        <ele>56</ele>
        <time>2022-08-20T10:46:19Z</time>
      </trkpt>
      <trkpt lat="47.12222" lon="-1.9149">
        <ele>55</ele>
        <time>2022-08-20T10:46:21Z</time>
      </trkpt>
      <trkpt lat="47.12222" lon="-1.9147">
        <ele>55</ele>
        <time>2022-08-20T10:46:23Z</time>
      </trkpt>
      <trkpt lat="47.12221" lon="-1.91451">
        <ele>54</ele>
        <time>2022-08-20T10:46:25Z</time>
      </trkpt>
      <trkpt lat="47.12224" lon="-1.91432">
        <ele>54</ele>
        <time>2022-08-20T10:46:27Z</time>
      </trkpt>
      <trkpt lat="47.12226" lon="-1.91415">
        <ele>54</ele>
        <time>2022-08-20T10:46:29Z</time>
      </trkpt>
      <trkpt lat="47.12221" lon="-1.91399">
        <ele>54</ele>
        <time>2022-08-20T10:46:31Z</time>
      </trkpt>
      <trkpt lat="47.12208" lon="-1.91388">
        <ele>55</ele>
        <time>2022-08-20T10:46:33Z</time>
      </trkpt>
      <trkpt lat="47.12196" lon="-1.91376">
        <ele>54</ele>
        <time>2022-08-20T10:46:35Z</time>
      </trkpt>
      <trkpt lat="47.12185" lon="-1.91363">
        <ele>54</ele>
        <time>2022-08-20T10:46:37Z</time>
      </trkpt>
      <trkpt lat="47.12175" lon="-1.91351">
        <ele>54</ele>
        <time>2022-08-20T10:46:39Z</time>
      </trkpt>
      <trkpt lat="47.12165" lon="-1.91338">
        <ele>54</ele>
        <time>2022-08-20T10:46:41Z</time>
      </trkpt>
      <trkpt lat="47.12155" lon="-1.91325">
        <ele>54</ele>
        <time>2022-08-20T10:46:43Z</time>
      </trkpt>
      <trkpt lat="47.12144" lon="-1.91313">
        <ele>54</ele>
        <time>2022-08-20T10:46:45Z</time>
      </trkpt>
      <trkpt lat="47.12134" lon="-1.913">
        <ele>54</ele>
        <time>2022-08-20T10:46:47Z</time>
      </trkpt>
      <trkpt lat="47.12124" lon="-1.91287">
        <ele>55</ele>
        <time>2022-08-20T10:46:49Z</time>
      </trkpt>
      <trkpt lat="47.12114" lon="-1.91274">
        <ele>55</ele>
        <time>2022-08-20T10:46:51Z</time>
      </trkpt>
      <trkpt lat="47.12104" lon="-1.91262">
        <ele>55</ele>
        <time>2022-08-20T10:46:53Z</time>
      </trkpt>
      <trkpt lat="47.12094" lon="-1.91249">
        <ele>55</ele>
        <time>2022-08-20T10:46:55Z</time>
      </trkpt>
      <trkpt lat="47.12083" lon="-1.91238">
        <ele>55</ele>
        <time>2022-08-20T10:46:57Z</time>
      </trkpt>
      <trkpt lat="47.12072" lon="-1.91228">
        <ele>55</ele>
        <time>2022-08-20T10:46:59Z</time>
      </trkpt>
      <trkpt lat="47.1206" lon="-1.91218">
        <ele>55</ele>
        <time>2022-08-20T10:47:01Z</time>
      </trkpt>
      <trkpt lat="47.12048" lon="-1.91208">
        <ele>55</ele>
        <time>2022-08-20T10:47:03Z</time>
      </trkpt>
      <trkpt lat="47.12037" lon="-1.91196">
        <ele>54</ele>
        <time>2022-08-20T10:47:05Z</time>
      </trkpt>
      <trkpt lat="47.12026" lon="-1.91183">
        <ele>54</ele>
        <time>2022-08-20T10:47:07Z</time>
      </trkpt>
      <trkpt lat="47.12016" lon="-1.91169">
        <ele>54</ele>
        <time>2022-08-20T10:47:09Z</time>
      </trkpt>
      <trkpt lat="47.12008" lon="-1.91153">
        <ele>54</ele>
        <time>2022-08-20T10:47:11Z</time>
      </trkpt>
      <trkpt lat="47.11999" lon="-1.91138">
        <ele>54</ele>
        <time>2022-08-20T10:47:13Z</time>
      </trkpt>
      <trkpt lat="47.11991" lon="-1.91123">
        <ele>54</ele>
        <time>2022-08-20T10:47:15Z</time>
      </trkpt>
      <trkpt lat="47.11983" lon="-1.91108">
        <ele>53</ele>
        <time>2022-08-20T10:47:17Z</time>
      </trkpt>
      <trkpt lat="47.11975" lon="-1.91092">
        <ele>53</ele>
        <time>2022-08-20T10:47:19Z</time>
      </trkpt>
      <trkpt lat="47.11967" lon="-1.91077">
        <ele>54</ele>
        <time>2022-08-20T10:47:21Z</time>
      </trkpt>
      <trkpt lat="47.11958" lon="-1.91061">
        <ele>54</ele>
        <time>2022-08-20T10:47:23Z</time>
      </trkpt>
      <trkpt lat="47.1195" lon="-1.91046">
        <ele>54</ele>
        <time>2022-08-20T10:47:25Z</time>
      </trkpt>
      <trkpt lat="47.11942" lon="-1.9103">
        <ele>53</ele>
        <time>2022-08-20T10:47:27Z</time>
      </trkpt>
      <trkpt lat="47.11934" lon="-1.91015">
        <ele>53</ele>
        <time>2022-08-20T10:47:29Z</time>
      </trkpt>
      <trkpt lat="47.11927" lon="-1.90999">
        <ele>53</ele>
        <time>2022-08-20T10:47:31Z</time>
      </trkpt>
      <trkpt lat="47.11919" lon="-1.90983">
        <ele>53</ele>
        <time>2022-08-20T10:47:33Z</time>
      </trkpt>
      <trkpt lat="47.11911" lon="-1.90967">
        <ele>54</ele>
        <time>2022-08-20T10:47:35Z</time>
      </trkpt>
      <trkpt lat="47.11903" lon="-1.90952">
        <ele>54</ele>
        <time>2022-08-20T10:47:37Z</time>
      </trkpt>
      <trkpt lat="47.11894" lon="-1.90936">
        <ele>54</ele>
        <time>2022-08-20T10:47:39Z</time>
      </trkpt>
      <trkpt lat="47.11886" lon="-1.90921">
        <ele>54</ele>
        <time>2022-08-20T10:47:41Z</time>
      </trkpt>
      <trkpt lat="47.11878" lon="-1.90904">
        <ele>53</ele>
        <time>2022-08-20T10:47:43Z</time>
      </trkpt>
      <trkpt lat="47.11869" lon="-1.90889">
        <ele>53</ele>
        <time>2022-08-20T10:47:45Z</time>
      </trkpt>
      <trkpt lat="47.11861" lon="-1.90873">
        <ele>53</ele>
        <time>2022-08-20T10:47:47Z</time>
      </trkpt>
      <trkpt lat="47.11853" lon="-1.90858">
        <ele>53</ele>
        <time>2022-08-20T10:47:49Z</time>
      </trkpt>
      <trkpt lat="47.11845" lon="-1.90842">
        <ele>53</ele>
        <time>2022-08-20T10:47:51Z</time>
      </trkpt>
      <trkpt lat="47.11837" lon="-1.90826">
        <ele>53</ele>
        <time>2022-08-20T10:47:53Z</time>
      </trkpt>
      <trkpt lat="47.11829" lon="-1.90811">
        <ele>53</ele>
        <time>2022-08-20T10:47:55Z</time>
      </trkpt>
      <trkpt lat="47.1182" lon="-1.90795">
        <ele>53</ele>
        <time>2022-08-20T10:47:57Z</time>
      </trkpt>
      <trkpt lat="47.11812" lon="-1.90779">
        <ele>53</ele>
        <time>2022-08-20T10:47:59Z</time>
      </trkpt>
      <trkpt lat="47.11804" lon="-1.90763">
        <ele>53</ele>
        <time>2022-08-20T10:48:01Z</time>
      </trkpt>
      <trkpt lat="47.11796" lon="-1.90748">
        <ele>53</ele>
        <time>2022-08-20T10:48:03Z</time>
      </trkpt>
      <trkpt lat="47.11788" lon="-1.90733">
        <ele>52</ele>
        <time>2022-08-20T10:48:05Z</time>
      </trkpt>
      <trkpt lat="47.11779" lon="-1.90717">
        <ele>52</ele>
        <time>2022-08-20T10:48:07Z</time>
      </trkpt>
      <trkpt lat="47.11771" lon="-1.90701">
        <ele>52</ele>
        <time>2022-08-20T10:48:09Z</time>
      </trkpt>
      <trkpt lat="47.11763" lon="-1.90686">
        <ele>52</ele>
        <time>2022-08-20T10:48:11Z</time>
      </trkpt>
      <trkpt lat="47.11755" lon="-1.90671">
        <ele>53</ele>
        <time>2022-08-20T10:48:13Z</time>
      </trkpt>
      <trkpt lat="47.11747" lon="-1.90655">
        <ele>53</ele>
        <time>2022-08-20T10:48:15Z</time>
      </trkpt>
      <trkpt lat="47.11739" lon="-1.9064">
        <ele>53</ele>
        <time>2022-08-20T10:48:17Z</time>
      </trkpt>
      <trkpt lat="47.11732" lon="-1.90625">
        <ele>53</ele>
        <time>2022-08-20T10:48:19Z</time>
      </trkpt>
      <trkpt lat="47.11724" lon="-1.9061">
        <ele>53</ele>
        <time>2022-08-20T10:48:21Z</time>
      </trkpt>
      <trkpt lat="47.11717" lon="-1.90596">
        <ele>54</ele>
        <time>2022-08-20T10:48:23Z</time>
      </trkpt>
      <trkpt lat="47.1171" lon="-1.9058">
        <ele>54</ele>
        <time>2022-08-20T10:48:25Z</time>
      </trkpt>
      <trkpt lat="47.11703" lon="-1.90564">
        <ele>54</ele>
        <time>2022-08-20T10:48:27Z</time>
      </trkpt>
      <trkpt lat="47.11696" lon="-1.90547">
        <ele>55</ele>
        <time>2022-08-20T10:48:29Z</time>
      </trkpt>
      <trkpt lat="47.1169" lon="-1.90528">
        <ele>54</ele>
        <time>2022-08-20T10:48:31Z</time>
      </trkpt>
      <trkpt lat="47.11684" lon="-1.90511">
        <ele>54</ele>
        <time>2022-08-20T10:48:33Z</time>
      </trkpt>
      <trkpt lat="47.11679" lon="-1.90494">
        <ele>54</ele>
        <time>2022-08-20T10:48:35Z</time>
      </trkpt>
      <trkpt lat="47.11673" lon="-1.90476">
        <ele>55</ele>
        <time>2022-08-20T10:48:37Z</time>
      </trkpt>
      <trkpt lat="47.11668" lon="-1.90458">
        <ele>54</ele>
        <time>2022-08-20T10:48:39Z</time>
      </trkpt>
      <trkpt lat="47.11662" lon="-1.9044">
        <ele>54</ele>
        <time>2022-08-20T10:48:41Z</time>
      </trkpt>
      <trkpt lat="47.11656" lon="-1.90423">
        <ele>54</ele>
        <time>2022-08-20T10:48:43Z</time>
      </trkpt>
      <trkpt lat="47.11651" lon="-1.90405">
        <ele>54</ele>
        <time>2022-08-20T10:48:45Z</time>
      </trkpt>
      <trkpt lat="47.11646" lon="-1.90386">
        <ele>53</ele>
        <time>2022-08-20T10:48:47Z</time>
      </trkpt>
      <trkpt lat="47.11641" lon="-1.9037">
        <ele>53</ele>
        <time>2022-08-20T10:48:49Z</time>
      </trkpt>
      <trkpt lat="47.11636" lon="-1.90352">
        <ele>54</ele>
        <time>2022-08-20T10:48:51Z</time>
      </trkpt>
      <trkpt lat="47.1163" lon="-1.90334">
        <ele>54</ele>
        <time>2022-08-20T10:48:53Z</time>
      </trkpt>
      <trkpt lat="47.11625" lon="-1.90316">
        <ele>54</ele>
        <time>2022-08-20T10:48:55Z</time>
      </trkpt>
      <trkpt lat="47.11619" lon="-1.90297">
        <ele>54</ele>
        <time>2022-08-20T10:48:57Z</time>
      </trkpt>
      <trkpt lat="47.11613" lon="-1.90279">
        <ele>54</ele>
        <time>2022-08-20T10:48:59Z</time>
      </trkpt>
      <trkpt lat="47.11608" lon="-1.90261">
        <ele>54</ele>
        <time>2022-08-20T10:49:01Z</time>
      </trkpt>
      <trkpt lat="47.11602" lon="-1.90243">
        <ele>53</ele>
        <time>2022-08-20T10:49:03Z</time>
      </trkpt>
      <trkpt lat="47.11596" lon="-1.90225">
        <ele>53</ele>
        <time>2022-08-20T10:49:05Z</time>
      </trkpt>
      <trkpt lat="47.1159" lon="-1.90206">
        <ele>53</ele>
        <time>2022-08-20T10:49:07Z</time>
      </trkpt>
      <trkpt lat="47.11584" lon="-1.90189">
        <ele>53</ele>
        <time>2022-08-20T10:49:09Z</time>
      </trkpt>
      <trkpt lat="47.11579" lon="-1.9017">
        <ele>52</ele>
        <time>2022-08-20T10:49:11Z</time>
      </trkpt>
      <trkpt lat="47.11574" lon="-1.90152">
        <ele>52</ele>
        <time>2022-08-20T10:49:13Z</time>
      </trkpt>
      <trkpt lat="47.11568" lon="-1.90134">
        <ele>52</ele>
        <time>2022-08-20T10:49:15Z</time>
      </trkpt>
      <trkpt lat="47.11562" lon="-1.90116">
        <ele>52</ele>
        <time>2022-08-20T10:49:17Z</time>
      </trkpt>
      <trkpt lat="47.11556" lon="-1.90098">
        <ele>52</ele>
        <time>2022-08-20T10:49:19Z</time>
      </trkpt>
      <trkpt lat="47.11551" lon="-1.9008">
        <ele>52</ele>
        <time>2022-08-20T10:49:21Z</time>
      </trkpt>
      <trkpt lat="47.11545" lon="-1.90063">
        <ele>52</ele>
        <time>2022-08-20T10:49:23Z</time>
      </trkpt>
      <trkpt lat="47.1154" lon="-1.90046">
        <ele>53</ele>
        <time>2022-08-20T10:49:25Z</time>
      </trkpt>
      <trkpt lat="47.11535" lon="-1.90028">
        <ele>54</ele>
        <time>2022-08-20T10:49:27Z</time>
      </trkpt>
      <trkpt lat="47.11529" lon="-1.9001">
        <ele>54</ele>
        <time>2022-08-20T10:49:29Z</time>
      </trkpt>
      <trkpt lat="47.11523" lon="-1.89993">
        <ele>54</ele>
        <time>2022-08-20T10:49:31Z</time>
      </trkpt>
      <trkpt lat="47.11517" lon="-1.89975">
        <ele>55</ele>
        <time>2022-08-20T10:49:33Z</time>
      </trkpt>
      <trkpt lat="47.1151" lon="-1.89958">
        <ele>55</ele>
        <time>2022-08-20T10:49:35Z</time>
      </trkpt>
      <trkpt lat="47.11501" lon="-1.8994">
        <ele>54</ele>
        <time>2022-08-20T10:49:37Z</time>
      </trkpt>
      <trkpt lat="47.11493" lon="-1.89924">
        <ele>53</ele>
        <time>2022-08-20T10:49:39Z</time>
      </trkpt>
      <trkpt lat="47.11484" lon="-1.8991">
        <ele>53</ele>
        <time>2022-08-20T10:49:41Z</time>
      </trkpt>
      <trkpt lat="47.11474" lon="-1.89897">
        <ele>53</ele>
        <time>2022-08-20T10:49:43Z</time>
      </trkpt>
      <trkpt lat="47.11464" lon="-1.89885">
        <ele>54</ele>
        <time>2022-08-20T10:49:45Z</time>
      </trkpt>
      <trkpt lat="47.11455" lon="-1.89873">
        <ele>54</ele>
        <time>2022-08-20T10:49:47Z</time>
      </trkpt>
      <trkpt lat="47.11446" lon="-1.89861">
        <ele>55</ele>
        <time>2022-08-20T10:49:49Z</time>
      </trkpt>
      <trkpt lat="47.11438" lon="-1.8985">
        <ele>55</ele>
        <time>2022-08-20T10:49:51Z</time>
      </trkpt>
      <trkpt lat="47.11429" lon="-1.89839">
        <ele>55</ele>
        <time>2022-08-20T10:49:53Z</time>
      </trkpt>
      <trkpt lat="47.1142" lon="-1.89827">
        <ele>56</ele>
        <time>2022-08-20T10:49:55Z</time>
      </trkpt>
      <trkpt lat="47.11411" lon="-1.89816">
        <ele>56</ele>
        <time>2022-08-20T10:49:57Z</time>
      </trkpt>
      <trkpt lat="47.11401" lon="-1.89804">
        <ele>56</ele>
        <time>2022-08-20T10:49:59Z</time>
      </trkpt>
      <trkpt lat="47.11392" lon="-1.89793">
        <ele>57</ele>
        <time>2022-08-20T10:50:01Z</time>
      </trkpt>
      <trkpt lat="47.11383" lon="-1.8978">
        <ele>57</ele>
        <time>2022-08-20T10:50:03Z</time>
      </trkpt>
      <trkpt lat="47.11374" lon="-1.89769">
        <ele>57</ele>
        <time>2022-08-20T10:50:05Z</time>
      </trkpt>
      <trkpt lat="47.11365" lon="-1.89757">
        <ele>57</ele>
        <time>2022-08-20T10:50:07Z</time>
      </trkpt>
      <trkpt lat="47.11356" lon="-1.89745">
        <ele>57</ele>
        <time>2022-08-20T10:50:09Z</time>
      </trkpt>
      <trkpt lat="47.11347" lon="-1.89734">
        <ele>57</ele>
        <time>2022-08-20T10:50:11Z</time>
      </trkpt>
      <trkpt lat="47.11338" lon="-1.89722">
        <ele>58</ele>
        <time>2022-08-20T10:50:13Z</time>
      </trkpt>
      <trkpt lat="47.11329" lon="-1.8971">
        <ele>58</ele>
        <time>2022-08-20T10:50:15Z</time>
      </trkpt>
      <trkpt lat="47.1132" lon="-1.89698">
        <ele>58</ele>
        <time>2022-08-20T10:50:17Z</time>
      </trkpt>
      <trkpt lat="47.11311" lon="-1.89687">
        <ele>58</ele>
        <time>2022-08-20T10:50:19Z</time>
      </trkpt>
      <trkpt lat="47.11302" lon="-1.89675">
        <ele>58</ele>
        <time>2022-08-20T10:50:21Z</time>
      </trkpt>
      <trkpt lat="47.11293" lon="-1.89663">
        <ele>58</ele>
        <time>2022-08-20T10:50:23Z</time>
      </trkpt>
      <trkpt lat="47.11284" lon="-1.89651">
        <ele>58</ele>
        <time>2022-08-20T10:50:25Z</time>
      </trkpt>
      <trkpt lat="47.11275" lon="-1.89639">
        <ele>57</ele>
        <time>2022-08-20T10:50:27Z</time>
      </trkpt>
      <trkpt lat="47.11266" lon="-1.89628">
        <ele>58</ele>
        <time>2022-08-20T10:50:29Z</time>
      </trkpt>
      <trkpt lat="47.11257" lon="-1.89617">
        <ele>58</ele>
        <time>2022-08-20T10:50:31Z</time>
      </trkpt>
      <trkpt lat="47.11248" lon="-1.89605">
        <ele>59</ele>
        <time>2022-08-20T10:50:33Z</time>
      </trkpt>
      <trkpt lat="47.11239" lon="-1.89594">
        <ele>59</ele>
        <time>2022-08-20T10:50:35Z</time>
      </trkpt>
      <trkpt lat="47.11229" lon="-1.89582">
        <ele>59</ele>
        <time>2022-08-20T10:50:37Z</time>
      </trkpt>
      <trkpt lat="47.1122" lon="-1.8957">
        <ele>59</ele>
        <time>2022-08-20T10:50:39Z</time>
      </trkpt>
      <trkpt lat="47.11211" lon="-1.89558">
        <ele>59</ele>
        <time>2022-08-20T10:50:41Z</time>
      </trkpt>
      <trkpt lat="47.11202" lon="-1.89546">
        <ele>59</ele>
        <time>2022-08-20T10:50:43Z</time>
      </trkpt>
      <trkpt lat="47.11193" lon="-1.89534">
        <ele>59</ele>
        <time>2022-08-20T10:50:45Z</time>
      </trkpt>
      <trkpt lat="47.11183" lon="-1.89522">
        <ele>60</ele>
        <time>2022-08-20T10:50:47Z</time>
      </trkpt>
      <trkpt lat="47.11174" lon="-1.8951">
        <ele>60</ele>
        <time>2022-08-20T10:50:49Z</time>
      </trkpt>
      <trkpt lat="47.11164" lon="-1.89498">
        <ele>59</ele>
        <time>2022-08-20T10:50:51Z</time>
      </trkpt>
      <trkpt lat="47.11155" lon="-1.89486">
        <ele>59</ele>
        <time>2022-08-20T10:50:53Z</time>
      </trkpt>
      <trkpt lat="47.11146" lon="-1.89474">
        <ele>60</ele>
        <time>2022-08-20T10:50:55Z</time>
      </trkpt>
      <trkpt lat="47.11138" lon="-1.89462">
        <ele>60</ele>
        <time>2022-08-20T10:50:57Z</time>
      </trkpt>
      <trkpt lat="47.11128" lon="-1.8945">
        <ele>60</ele>
        <time>2022-08-20T10:50:59Z</time>
      </trkpt>
      <trkpt lat="47.11119" lon="-1.89437">
        <ele>60</ele>
        <time>2022-08-20T10:51:01Z</time>
      </trkpt>
      <trkpt lat="47.11111" lon="-1.89425">
        <ele>60</ele>
        <time>2022-08-20T10:51:03Z</time>
      </trkpt>
      <trkpt lat="47.11102" lon="-1.89414">
        <ele>60</ele>
        <time>2022-08-20T10:51:05Z</time>
      </trkpt>
      <trkpt lat="47.11094" lon="-1.894">
        <ele>60</ele>
        <time>2022-08-20T10:51:07Z</time>
      </trkpt>
      <trkpt lat="47.11086" lon="-1.89387">
        <ele>61</ele>
        <time>2022-08-20T10:51:09Z</time>
      </trkpt>
      <trkpt lat="47.11078" lon="-1.89374">
        <ele>61</ele>
        <time>2022-08-20T10:51:11Z</time>
      </trkpt>
      <trkpt lat="47.11071" lon="-1.89359">
        <ele>61</ele>
        <time>2022-08-20T10:51:13Z</time>
      </trkpt>
      <trkpt lat="47.11065" lon="-1.89344">
        <ele>61</ele>
        <time>2022-08-20T10:51:15Z</time>
      </trkpt>
      <trkpt lat="47.11059" lon="-1.89327">
        <ele>61</ele>
        <time>2022-08-20T10:51:17Z</time>
      </trkpt>
      <trkpt lat="47.11054" lon="-1.89311">
        <ele>61</ele>
        <time>2022-08-20T10:51:19Z</time>
      </trkpt>
      <trkpt lat="47.11049" lon="-1.89295">
        <ele>61</ele>
        <time>2022-08-20T10:51:21Z</time>
      </trkpt>
      <trkpt lat="47.11044" lon="-1.89279">
        <ele>61</ele>
        <time>2022-08-20T10:51:23Z</time>
      </trkpt>
      <trkpt lat="47.11039" lon="-1.89262">
        <ele>61</ele>
        <time>2022-08-20T10:51:25Z</time>
      </trkpt>
      <trkpt lat="47.11035" lon="-1.89246">
        <ele>61</ele>
        <time>2022-08-20T10:51:27Z</time>
      </trkpt>
      <trkpt lat="47.1103" lon="-1.8923">
        <ele>61</ele>
        <time>2022-08-20T10:51:29Z</time>
      </trkpt>
      <trkpt lat="47.11025" lon="-1.89214">
        <ele>61</ele>
        <time>2022-08-20T10:51:31Z</time>
      </trkpt>
      <trkpt lat="47.11021" lon="-1.89198">
        <ele>61</ele>
        <time>2022-08-20T10:51:33Z</time>
      </trkpt>
      <trkpt lat="47.11016" lon="-1.89181">
        <ele>61</ele>
        <time>2022-08-20T10:51:35Z</time>
      </trkpt>
      <trkpt lat="47.11011" lon="-1.89165">
        <ele>61</ele>
        <time>2022-08-20T10:51:37Z</time>
      </trkpt>
      <trkpt lat="47.11006" lon="-1.89148">
        <ele>61</ele>
        <time>2022-08-20T10:51:39Z</time>
      </trkpt>
      <trkpt lat="47.11001" lon="-1.89132">
        <ele>60</ele>
        <time>2022-08-20T10:51:41Z</time>
      </trkpt>
      <trkpt lat="47.10996" lon="-1.89114">
        <ele>60</ele>
        <time>2022-08-20T10:51:43Z</time>
      </trkpt>
      <trkpt lat="47.10991" lon="-1.89097">
        <ele>60</ele>
        <time>2022-08-20T10:51:45Z</time>
      </trkpt>
      <trkpt lat="47.10986" lon="-1.8908">
        <ele>60</ele>
        <time>2022-08-20T10:51:47Z</time>
      </trkpt>
      <trkpt lat="47.1098" lon="-1.89061">
        <ele>60</ele>
        <time>2022-08-20T10:51:49Z</time>
      </trkpt>
      <trkpt lat="47.10975" lon="-1.89042">
        <ele>60</ele>
        <time>2022-08-20T10:51:51Z</time>
      </trkpt>
      <trkpt lat="47.10969" lon="-1.89023">
        <ele>59</ele>
        <time>2022-08-20T10:51:53Z</time>
      </trkpt>
      <trkpt lat="47.10963" lon="-1.89004">
        <ele>59</ele>
        <time>2022-08-20T10:51:55Z</time>
      </trkpt>
      <trkpt lat="47.10958" lon="-1.88986">
        <ele>59</ele>
        <time>2022-08-20T10:51:57Z</time>
      </trkpt>
      <trkpt lat="47.10952" lon="-1.88966">
        <ele>59</ele>
        <time>2022-08-20T10:51:59Z</time>
      </trkpt>
      <trkpt lat="47.10946" lon="-1.88947">
        <ele>58</ele>
        <time>2022-08-20T10:52:01Z</time>
      </trkpt>
      <trkpt lat="47.10941" lon="-1.88928">
        <ele>58</ele>
        <time>2022-08-20T10:52:03Z</time>
      </trkpt>
      <trkpt lat="47.10935" lon="-1.88909">
        <ele>58</ele>
        <time>2022-08-20T10:52:05Z</time>
      </trkpt>
      <trkpt lat="47.10929" lon="-1.8889">
        <ele>57</ele>
        <time>2022-08-20T10:52:07Z</time>
      </trkpt>
      <trkpt lat="47.10923" lon="-1.88871">
        <ele>57</ele>
        <time>2022-08-20T10:52:09Z</time>
      </trkpt>
      <trkpt lat="47.10917" lon="-1.88852">
        <ele>57</ele>
        <time>2022-08-20T10:52:11Z</time>
      </trkpt>
      <trkpt lat="47.1091" lon="-1.88833">
        <ele>57</ele>
        <time>2022-08-20T10:52:13Z</time>
      </trkpt>
      <trkpt lat="47.10903" lon="-1.88814">
        <ele>56</ele>
        <time>2022-08-20T10:52:15Z</time>
      </trkpt>
      <trkpt lat="47.10895" lon="-1.88796">
        <ele>56</ele>
        <time>2022-08-20T10:52:17Z</time>
      </trkpt>
      <trkpt lat="47.10888" lon="-1.88778">
        <ele>56</ele>
        <time>2022-08-20T10:52:19Z</time>
      </trkpt>
      <trkpt lat="47.1088" lon="-1.88759">
        <ele>56</ele>
        <time>2022-08-20T10:52:21Z</time>
      </trkpt>
      <trkpt lat="47.10872" lon="-1.88741">
        <ele>55</ele>
        <time>2022-08-20T10:52:23Z</time>
      </trkpt>
      <trkpt lat="47.10864" lon="-1.88722">
        <ele>55</ele>
        <time>2022-08-20T10:52:25Z</time>
      </trkpt>
      <trkpt lat="47.10856" lon="-1.88704">
        <ele>55</ele>
        <time>2022-08-20T10:52:27Z</time>
      </trkpt>
      <trkpt lat="47.10849" lon="-1.88685">
        <ele>55</ele>
        <time>2022-08-20T10:52:29Z</time>
      </trkpt>
      <trkpt lat="47.10841" lon="-1.88667">
        <ele>54</ele>
        <time>2022-08-20T10:52:31Z</time>
      </trkpt>
      <trkpt lat="47.10833" lon="-1.88649">
        <ele>54</ele>
        <time>2022-08-20T10:52:33Z</time>
      </trkpt>
      <trkpt lat="47.10825" lon="-1.88631">
        <ele>54</ele>
        <time>2022-08-20T10:52:35Z</time>
      </trkpt>
      <trkpt lat="47.10818" lon="-1.88613">
        <ele>54</ele>
        <time>2022-08-20T10:52:37Z</time>
      </trkpt>
      <trkpt lat="47.10811" lon="-1.88595">
        <ele>54</ele>
        <time>2022-08-20T10:52:39Z</time>
      </trkpt>
      <trkpt lat="47.10803" lon="-1.88578">
        <ele>54</ele>
        <time>2022-08-20T10:52:41Z</time>
      </trkpt>
      <trkpt lat="47.10796" lon="-1.8856">
        <ele>54</ele>
        <time>2022-08-20T10:52:43Z</time>
      </trkpt>
      <trkpt lat="47.10789" lon="-1.88543">
        <ele>54</ele>
        <time>2022-08-20T10:52:45Z</time>
      </trkpt>
      <trkpt lat="47.10782" lon="-1.88525">
        <ele>54</ele>
        <time>2022-08-20T10:52:47Z</time>
      </trkpt>
      <trkpt lat="47.10775" lon="-1.88507">
        <ele>54</ele>
        <time>2022-08-20T10:52:49Z</time>
      </trkpt>
      <trkpt lat="47.10768" lon="-1.88489">
        <ele>54</ele>
        <time>2022-08-20T10:52:51Z</time>
      </trkpt>
      <trkpt lat="47.10762" lon="-1.88471">
        <ele>54</ele>
        <time>2022-08-20T10:52:53Z</time>
      </trkpt>
      <trkpt lat="47.10756" lon="-1.88452">
        <ele>54</ele>
        <time>2022-08-20T10:52:55Z</time>
      </trkpt>
      <trkpt lat="47.10751" lon="-1.88434">
        <ele>54</ele>
        <time>2022-08-20T10:52:57Z</time>
      </trkpt>
      <trkpt lat="47.10746" lon="-1.88416">
        <ele>54</ele>
        <time>2022-08-20T10:52:59Z</time>
      </trkpt>
      <trkpt lat="47.10741" lon="-1.88397">
        <ele>54</ele>
        <time>2022-08-20T10:53:01Z</time>
      </trkpt>
      <trkpt lat="47.10737" lon="-1.88378">
        <ele>54</ele>
        <time>2022-08-20T10:53:03Z</time>
      </trkpt>
      <trkpt lat="47.10734" lon="-1.88359">
        <ele>54</ele>
        <time>2022-08-20T10:53:05Z</time>
      </trkpt>
      <trkpt lat="47.1073" lon="-1.8834">
        <ele>54</ele>
        <time>2022-08-20T10:53:07Z</time>
      </trkpt>
      <trkpt lat="47.10728" lon="-1.8832">
        <ele>55</ele>
        <time>2022-08-20T10:53:09Z</time>
      </trkpt>
      <trkpt lat="47.10725" lon="-1.88301">
        <ele>55</ele>
        <time>2022-08-20T10:53:11Z</time>
      </trkpt>
      <trkpt lat="47.10723" lon="-1.88282">
        <ele>55</ele>
        <time>2022-08-20T10:53:13Z</time>
      </trkpt>
      <trkpt lat="47.10722" lon="-1.88262">
        <ele>55</ele>
        <time>2022-08-20T10:53:15Z</time>
      </trkpt>
      <trkpt lat="47.10719" lon="-1.88243">
        <ele>55</ele>
        <time>2022-08-20T10:53:17Z</time>
      </trkpt>
      <trkpt lat="47.10718" lon="-1.88223">
        <ele>54</ele>
        <time>2022-08-20T10:53:19Z</time>
      </trkpt>
      <trkpt lat="47.10716" lon="-1.88203">
        <ele>55</ele>
        <time>2022-08-20T10:53:21Z</time>
      </trkpt>
      <trkpt lat="47.10715" lon="-1.88183">
        <ele>55</ele>
        <time>2022-08-20T10:53:23Z</time>
      </trkpt>
      <trkpt lat="47.10713" lon="-1.88163">
        <ele>55</ele>
        <time>2022-08-20T10:53:25Z</time>
      </trkpt>
      <trkpt lat="47.1071" lon="-1.88143">
        <ele>55</ele>
        <time>2022-08-20T10:53:27Z</time>
      </trkpt>
      <trkpt lat="47.10709" lon="-1.88123">
        <ele>55</ele>
        <time>2022-08-20T10:53:29Z</time>
      </trkpt>
      <trkpt lat="47.10706" lon="-1.88103">
        <ele>55</ele>
        <time>2022-08-20T10:53:31Z</time>
      </trkpt>
      <trkpt lat="47.10705" lon="-1.88083">
        <ele>54</ele>
        <time>2022-08-20T10:53:33Z</time>
      </trkpt>
      <trkpt lat="47.10703" lon="-1.88063">
        <ele>54</ele>
        <time>2022-08-20T10:53:35Z</time>
      </trkpt>
      <trkpt lat="47.107" lon="-1.88043">
        <ele>54</ele>
        <time>2022-08-20T10:53:37Z</time>
      </trkpt>
      <trkpt lat="47.10699" lon="-1.88022">
        <ele>54</ele>
        <time>2022-08-20T10:53:39Z</time>
      </trkpt>
      <trkpt lat="47.10697" lon="-1.88001">
        <ele>54</ele>
        <time>2022-08-20T10:53:41Z</time>
      </trkpt>
      <trkpt lat="47.10695" lon="-1.87982">
        <ele>54</ele>
        <time>2022-08-20T10:53:43Z</time>
      </trkpt>
      <trkpt lat="47.10691" lon="-1.87963">
        <ele>54</ele>
        <time>2022-08-20T10:53:45Z</time>
      </trkpt>
      <trkpt lat="47.10687" lon="-1.87943">
        <ele>54</ele>
        <time>2022-08-20T10:53:47Z</time>
      </trkpt>
      <trkpt lat="47.10682" lon="-1.87925">
        <ele>54</ele>
        <time>2022-08-20T10:53:49Z</time>
      </trkpt>
      <trkpt lat="47.10676" lon="-1.87907">
        <ele>54</ele>
        <time>2022-08-20T10:53:51Z</time>
      </trkpt>
      <trkpt lat="47.10671" lon="-1.8789">
        <ele>55</ele>
        <time>2022-08-20T10:53:53Z</time>
      </trkpt>
      <trkpt lat="47.10664" lon="-1.87874">
        <ele>55</ele>
        <time>2022-08-20T10:53:55Z</time>
      </trkpt>
      <trkpt lat="47.10658" lon="-1.87857">
        <ele>55</ele>
        <time>2022-08-20T10:53:57Z</time>
      </trkpt>
      <trkpt lat="47.10653" lon="-1.87841">
        <ele>56</ele>
        <time>2022-08-20T10:53:59Z</time>
      </trkpt>
      <trkpt lat="47.10647" lon="-1.87825">
        <ele>56</ele>
        <time>2022-08-20T10:54:01Z</time>
      </trkpt>
      <trkpt lat="47.10641" lon="-1.87809">
        <ele>57</ele>
        <time>2022-08-20T10:54:03Z</time>
      </trkpt>
      <trkpt lat="47.10635" lon="-1.87792">
        <ele>57</ele>
        <time>2022-08-20T10:54:05Z</time>
      </trkpt>
      <trkpt lat="47.10629" lon="-1.87775">
        <ele>57</ele>
        <time>2022-08-20T10:54:07Z</time>
      </trkpt>
      <trkpt lat="47.10623" lon="-1.87759">
        <ele>57</ele>
        <time>2022-08-20T10:54:09Z</time>
      </trkpt>
      <trkpt lat="47.10618" lon="-1.87742">
        <ele>57</ele>
        <time>2022-08-20T10:54:11Z</time>
      </trkpt>
      <trkpt lat="47.10612" lon="-1.87726">
        <ele>57</ele>
        <time>2022-08-20T10:54:13Z</time>
      </trkpt>
      <trkpt lat="47.10606" lon="-1.8771">
        <ele>57</ele>
        <time>2022-08-20T10:54:15Z</time>
      </trkpt>
      <trkpt lat="47.106" lon="-1.87694">
        <ele>57</ele>
        <time>2022-08-20T10:54:17Z</time>
      </trkpt>
      <trkpt lat="47.10595" lon="-1.87678">
        <ele>57</ele>
        <time>2022-08-20T10:54:19Z</time>
      </trkpt>
      <trkpt lat="47.10589" lon="-1.87662">
        <ele>57</ele>
        <time>2022-08-20T10:54:21Z</time>
      </trkpt>
      <trkpt lat="47.10584" lon="-1.87645">
        <ele>58</ele>
        <time>2022-08-20T10:54:23Z</time>
      </trkpt>
      <trkpt lat="47.10579" lon="-1.87628">
        <ele>58</ele>
        <time>2022-08-20T10:54:25Z</time>
      </trkpt>
      <trkpt lat="47.10575" lon="-1.87611">
        <ele>58</ele>
        <time>2022-08-20T10:54:27Z</time>
      </trkpt>
      <trkpt lat="47.10571" lon="-1.87594">
        <ele>59</ele>
        <time>2022-08-20T10:54:29Z</time>
      </trkpt>
      <trkpt lat="47.10567" lon="-1.87577">
        <ele>60</ele>
        <time>2022-08-20T10:54:31Z</time>
      </trkpt>
      <trkpt lat="47.10564" lon="-1.87558">
        <ele>59</ele>
        <time>2022-08-20T10:54:33Z</time>
      </trkpt>
      <trkpt lat="47.1056" lon="-1.87539">
        <ele>59</ele>
        <time>2022-08-20T10:54:35Z</time>
      </trkpt>
      <trkpt lat="47.10556" lon="-1.87521">
        <ele>59</ele>
        <time>2022-08-20T10:54:37Z</time>
      </trkpt>
      <trkpt lat="47.10552" lon="-1.87502">
        <ele>59</ele>
        <time>2022-08-20T10:54:39Z</time>
      </trkpt>
      <trkpt lat="47.10549" lon="-1.87483">
        <ele>59</ele>
        <time>2022-08-20T10:54:41Z</time>
      </trkpt>
      <trkpt lat="47.10545" lon="-1.87464">
        <ele>59</ele>
        <time>2022-08-20T10:54:43Z</time>
      </trkpt>
      <trkpt lat="47.10542" lon="-1.87446">
        <ele>59</ele>
        <time>2022-08-20T10:54:45Z</time>
      </trkpt>
      <trkpt lat="47.10538" lon="-1.87427">
        <ele>59</ele>
        <time>2022-08-20T10:54:47Z</time>
      </trkpt>
      <trkpt lat="47.10535" lon="-1.87409">
        <ele>59</ele>
        <time>2022-08-20T10:54:49Z</time>
      </trkpt>
      <trkpt lat="47.10532" lon="-1.8739">
        <ele>59</ele>
        <time>2022-08-20T10:54:51Z</time>
      </trkpt>
      <trkpt lat="47.10528" lon="-1.87372">
        <ele>59</ele>
        <time>2022-08-20T10:54:53Z</time>
      </trkpt>
      <trkpt lat="47.10523" lon="-1.87354">
        <ele>58</ele>
        <time>2022-08-20T10:54:55Z</time>
      </trkpt>
      <trkpt lat="47.1052" lon="-1.87336">
        <ele>58</ele>
        <time>2022-08-20T10:54:57Z</time>
      </trkpt>
      <trkpt lat="47.10516" lon="-1.87318">
        <ele>58</ele>
        <time>2022-08-20T10:54:59Z</time>
      </trkpt>
      <trkpt lat="47.10512" lon="-1.87301">
        <ele>58</ele>
        <time>2022-08-20T10:55:01Z</time>
      </trkpt>
      <trkpt lat="47.10508" lon="-1.87283">
        <ele>58</ele>
        <time>2022-08-20T10:55:03Z</time>
      </trkpt>
      <trkpt lat="47.10503" lon="-1.87266">
        <ele>59</ele>
        <time>2022-08-20T10:55:05Z</time>
      </trkpt>
      <trkpt lat="47.10496" lon="-1.87249">
        <ele>59</ele>
        <time>2022-08-20T10:55:07Z</time>
      </trkpt>
      <trkpt lat="47.10489" lon="-1.87236">
        <ele>59</ele>
        <time>2022-08-20T10:55:09Z</time>
      </trkpt>
      <trkpt lat="47.10483" lon="-1.8722">
        <ele>60</ele>
        <time>2022-08-20T10:55:11Z</time>
      </trkpt>
      <trkpt lat="47.10481" lon="-1.87201">
        <ele>60</ele>
        <time>2022-08-20T10:55:13Z</time>
      </trkpt>
      <trkpt lat="47.10478" lon="-1.87182">
        <ele>60</ele>
        <time>2022-08-20T10:55:15Z</time>
      </trkpt>
      <trkpt lat="47.10473" lon="-1.87164">
        <ele>60</ele>
        <time>2022-08-20T10:55:17Z</time>
      </trkpt>
      <trkpt lat="47.10468" lon="-1.87146">
        <ele>61</ele>
        <time>2022-08-20T10:55:19Z</time>
      </trkpt>
      <trkpt lat="47.10464" lon="-1.87128">
        <ele>60</ele>
        <time>2022-08-20T10:55:21Z</time>
      </trkpt>
      <trkpt lat="47.1046" lon="-1.8711">
        <ele>61</ele>
        <time>2022-08-20T10:55:23Z</time>
      </trkpt>
      <trkpt lat="47.10456" lon="-1.87092">
        <ele>61</ele>
        <time>2022-08-20T10:55:25Z</time>
      </trkpt>
      <trkpt lat="47.10453" lon="-1.87073">
        <ele>62</ele>
        <time>2022-08-20T10:55:27Z</time>
      </trkpt>
      <trkpt lat="47.10449" lon="-1.87055">
        <ele>62</ele>
        <time>2022-08-20T10:55:29Z</time>
      </trkpt>
      <trkpt lat="47.10446" lon="-1.87037">
        <ele>62</ele>
        <time>2022-08-20T10:55:31Z</time>
      </trkpt>
      <trkpt lat="47.10442" lon="-1.87019">
        <ele>62</ele>
        <time>2022-08-20T10:55:33Z</time>
      </trkpt>
      <trkpt lat="47.10439" lon="-1.87002">
        <ele>63</ele>
        <time>2022-08-20T10:55:35Z</time>
      </trkpt>
      <trkpt lat="47.10435" lon="-1.86984">
        <ele>63</ele>
        <time>2022-08-20T10:55:37Z</time>
      </trkpt>
      <trkpt lat="47.10431" lon="-1.86967">
        <ele>63</ele>
        <time>2022-08-20T10:55:39Z</time>
      </trkpt>
      <trkpt lat="47.10428" lon="-1.86949">
        <ele>62</ele>
        <time>2022-08-20T10:55:41Z</time>
      </trkpt>
      <trkpt lat="47.10424" lon="-1.8693">
        <ele>63</ele>
        <time>2022-08-20T10:55:43Z</time>
      </trkpt>
      <trkpt lat="47.10421" lon="-1.86911">
        <ele>62</ele>
        <time>2022-08-20T10:55:45Z</time>
      </trkpt>
      <trkpt lat="47.10417" lon="-1.86892">
        <ele>62</ele>
        <time>2022-08-20T10:55:47Z</time>
      </trkpt>
      <trkpt lat="47.10413" lon="-1.86874">
        <ele>62</ele>
        <time>2022-08-20T10:55:49Z</time>
      </trkpt>
      <trkpt lat="47.10409" lon="-1.86855">
        <ele>62</ele>
        <time>2022-08-20T10:55:51Z</time>
      </trkpt>
      <trkpt lat="47.10406" lon="-1.86836">
        <ele>62</ele>
        <time>2022-08-20T10:55:53Z</time>
      </trkpt>
      <trkpt lat="47.10402" lon="-1.86817">
        <ele>61</ele>
        <time>2022-08-20T10:55:55Z</time>
      </trkpt>
      <trkpt lat="47.10398" lon="-1.86799">
        <ele>61</ele>
        <time>2022-08-20T10:55:57Z</time>
      </trkpt>
      <trkpt lat="47.10395" lon="-1.86779">
        <ele>61</ele>
        <time>2022-08-20T10:55:59Z</time>
      </trkpt>
      <trkpt lat="47.10391" lon="-1.8676">
        <ele>61</ele>
        <time>2022-08-20T10:56:01Z</time>
      </trkpt>
      <trkpt lat="47.10388" lon="-1.86741">
        <ele>61</ele>
        <time>2022-08-20T10:56:03Z</time>
      </trkpt>
      <trkpt lat="47.10384" lon="-1.86722">
        <ele>61</ele>
        <time>2022-08-20T10:56:05Z</time>
      </trkpt>
      <trkpt lat="47.10381" lon="-1.86703">
        <ele>61</ele>
        <time>2022-08-20T10:56:07Z</time>
      </trkpt>
      <trkpt lat="47.10377" lon="-1.86683">
        <ele>61</ele>
        <time>2022-08-20T10:56:09Z</time>
      </trkpt>
      <trkpt lat="47.10373" lon="-1.86663">
        <ele>61</ele>
        <time>2022-08-20T10:56:11Z</time>
      </trkpt>
      <trkpt lat="47.1037" lon="-1.86643">
        <ele>61</ele>
        <time>2022-08-20T10:56:13Z</time>
      </trkpt>
      <trkpt lat="47.10369" lon="-1.86623">
        <ele>62</ele>
        <time>2022-08-20T10:56:15Z</time>
      </trkpt>
      <trkpt lat="47.1037" lon="-1.86604">
        <ele>62</ele>
        <time>2022-08-20T10:56:17Z</time>
      </trkpt>
      <trkpt lat="47.10368" lon="-1.86584">
        <ele>62</ele>
        <time>2022-08-20T10:56:19Z</time>
      </trkpt>
      <trkpt lat="47.10366" lon="-1.86563">
        <ele>61</ele>
        <time>2022-08-20T10:56:21Z</time>
      </trkpt>
      <trkpt lat="47.1036" lon="-1.86544">
        <ele>61</ele>
        <time>2022-08-20T10:56:23Z</time>
      </trkpt>
      <trkpt lat="47.10354" lon="-1.86525">
        <ele>61</ele>
        <time>2022-08-20T10:56:25Z</time>
      </trkpt>
      <trkpt lat="47.10346" lon="-1.86505">
        <ele>61</ele>
        <time>2022-08-20T10:56:27Z</time>
      </trkpt>
      <trkpt lat="47.10338" lon="-1.86487">
        <ele>61</ele>
        <time>2022-08-20T10:56:29Z</time>
      </trkpt>
      <trkpt lat="47.10329" lon="-1.86469">
        <ele>60</ele>
        <time>2022-08-20T10:56:31Z</time>
      </trkpt>
      <trkpt lat="47.1032" lon="-1.86449">
        <ele>60</ele>
        <time>2022-08-20T10:56:33Z</time>
      </trkpt>
      <trkpt lat="47.10312" lon="-1.86431">
        <ele>59</ele>
        <time>2022-08-20T10:56:35Z</time>
      </trkpt>
      <trkpt lat="47.10308" lon="-1.8641">
        <ele>59</ele>
        <time>2022-08-20T10:56:37Z</time>
      </trkpt>
      <trkpt lat="47.10306" lon="-1.86389">
        <ele>59</ele>
        <time>2022-08-20T10:56:39Z</time>
      </trkpt>
      <trkpt lat="47.10303" lon="-1.86368">
        <ele>59</ele>
        <time>2022-08-20T10:56:41Z</time>
      </trkpt>
      <trkpt lat="47.103" lon="-1.86347">
        <ele>58</ele>
        <time>2022-08-20T10:56:43Z</time>
      </trkpt>
      <trkpt lat="47.10296" lon="-1.86327">
        <ele>58</ele>
        <time>2022-08-20T10:56:45Z</time>
      </trkpt>
      <trkpt lat="47.10291" lon="-1.86307">
        <ele>58</ele>
        <time>2022-08-20T10:56:47Z</time>
      </trkpt>
      <trkpt lat="47.10286" lon="-1.86288">
        <ele>57</ele>
        <time>2022-08-20T10:56:49Z</time>
      </trkpt>
      <trkpt lat="47.1028" lon="-1.86269">
        <ele>57</ele>
        <time>2022-08-20T10:56:51Z</time>
      </trkpt>
      <trkpt lat="47.10274" lon="-1.86252">
        <ele>58</ele>
        <time>2022-08-20T10:56:53Z</time>
      </trkpt>
      <trkpt lat="47.10266" lon="-1.86236">
        <ele>59</ele>
        <time>2022-08-20T10:56:55Z</time>
      </trkpt>
      <trkpt lat="47.10259" lon="-1.86219">
        <ele>59</ele>
        <time>2022-08-20T10:56:57Z</time>
      </trkpt>
      <trkpt lat="47.10253" lon="-1.86203">
        <ele>59</ele>
        <time>2022-08-20T10:56:59Z</time>
      </trkpt>
      <trkpt lat="47.10246" lon="-1.86188">
        <ele>60</ele>
        <time>2022-08-20T10:57:01Z</time>
      </trkpt>
      <trkpt lat="47.1024" lon="-1.86172">
        <ele>60</ele>
        <time>2022-08-20T10:57:03Z</time>
      </trkpt>
      <trkpt lat="47.10234" lon="-1.86155">
        <ele>60</ele>
        <time>2022-08-20T10:57:05Z</time>
      </trkpt>
      <trkpt lat="47.10228" lon="-1.86138">
        <ele>60</ele>
        <time>2022-08-20T10:57:07Z</time>
      </trkpt>
      <trkpt lat="47.10221" lon="-1.86121">
        <ele>60</ele>
        <time>2022-08-20T10:57:09Z</time>
      </trkpt>
      <trkpt lat="47.10214" lon="-1.86103">
        <ele>60</ele>
        <time>2022-08-20T10:57:11Z</time>
      </trkpt>
      <trkpt lat="47.10208" lon="-1.86086">
        <ele>60</ele>
        <time>2022-08-20T10:57:13Z</time>
      </trkpt>
      <trkpt lat="47.10202" lon="-1.86069">
        <ele>60</ele>
        <time>2022-08-20T10:57:15Z</time>
      </trkpt>
      <trkpt lat="47.10196" lon="-1.86054">
        <ele>61</ele>
        <time>2022-08-20T10:57:17Z</time>
      </trkpt>
      <trkpt lat="47.1019" lon="-1.86038">
        <ele>61</ele>
        <time>2022-08-20T10:57:19Z</time>
      </trkpt>
      <trkpt lat="47.10184" lon="-1.86024">
        <ele>61</ele>
        <time>2022-08-20T10:57:21Z</time>
      </trkpt>
      <trkpt lat="47.1018" lon="-1.86008">
        <ele>62</ele>
        <time>2022-08-20T10:57:23Z</time>
      </trkpt>
      <trkpt lat="47.10174" lon="-1.85994">
        <ele>62</ele>
        <time>2022-08-20T10:57:25Z</time>
      </trkpt>
      <trkpt lat="47.10169" lon="-1.85978">
        <ele>62</ele>
        <time>2022-08-20T10:57:27Z</time>
      </trkpt>
      <trkpt lat="47.10162" lon="-1.85963">
        <ele>63</ele>
        <time>2022-08-20T10:57:29Z</time>
      </trkpt>
      <trkpt lat="47.10156" lon="-1.85948">
        <ele>64</ele>
        <time>2022-08-20T10:57:31Z</time>
      </trkpt>
      <trkpt lat="47.1015" lon="-1.85933">
        <ele>64</ele>
        <time>2022-08-20T10:57:33Z</time>
      </trkpt>
      <trkpt lat="47.10143" lon="-1.85919">
        <ele>64</ele>
        <time>2022-08-20T10:57:35Z</time>
      </trkpt>
      <trkpt lat="47.10137" lon="-1.85906">
        <ele>64</ele>
        <time>2022-08-20T10:57:37Z</time>
      </trkpt>
      <trkpt lat="47.1013" lon="-1.85892">
        <ele>64</ele>
        <time>2022-08-20T10:57:39Z</time>
      </trkpt>
      <trkpt lat="47.10124" lon="-1.85879">
        <ele>64</ele>
        <time>2022-08-20T10:57:41Z</time>
      </trkpt>
      <trkpt lat="47.10118" lon="-1.85865">
        <ele>64</ele>
        <time>2022-08-20T10:57:43Z</time>
      </trkpt>
      <trkpt lat="47.1011" lon="-1.85854">
        <ele>65</ele>
        <time>2022-08-20T10:57:45Z</time>
      </trkpt>
      <trkpt lat="47.101" lon="-1.85847">
        <ele>65</ele>
        <time>2022-08-20T10:57:47Z</time>
      </trkpt>
      <trkpt lat="47.10093" lon="-1.85828">
        <ele>65</ele>
        <time>2022-08-20T10:57:50Z</time>
      </trkpt>
      <trkpt lat="47.10098" lon="-1.8581">
        <ele>64</ele>
        <time>2022-08-20T10:57:52Z</time>
      </trkpt>
      <trkpt lat="47.10097" lon="-1.85791">
        <ele>63</ele>
        <time>2022-08-20T10:57:54Z</time>
      </trkpt>
      <trkpt lat="47.10094" lon="-1.85772">
        <ele>63</ele>
        <time>2022-08-20T10:57:56Z</time>
      </trkpt>
      <trkpt lat="47.10092" lon="-1.85753">
        <ele>63</ele>
        <time>2022-08-20T10:57:58Z</time>
      </trkpt>
      <trkpt lat="47.1009" lon="-1.85735">
        <ele>63</ele>
        <time>2022-08-20T10:58:00Z</time>
      </trkpt>
      <trkpt lat="47.10088" lon="-1.85716">
        <ele>62</ele>
        <time>2022-08-20T10:58:02Z</time>
      </trkpt>
      <trkpt lat="47.10087" lon="-1.85697">
        <ele>62</ele>
        <time>2022-08-20T10:58:04Z</time>
      </trkpt>
      <trkpt lat="47.10085" lon="-1.85677">
        <ele>62</ele>
        <time>2022-08-20T10:58:06Z</time>
      </trkpt>
      <trkpt lat="47.10083" lon="-1.85657">
        <ele>62</ele>
        <time>2022-08-20T10:58:08Z</time>
      </trkpt>
      <trkpt lat="47.10081" lon="-1.85637">
        <ele>62</ele>
        <time>2022-08-20T10:58:10Z</time>
      </trkpt>
      <trkpt lat="47.1008" lon="-1.85617">
        <ele>61</ele>
        <time>2022-08-20T10:58:12Z</time>
      </trkpt>
      <trkpt lat="47.10077" lon="-1.85596">
        <ele>61</ele>
        <time>2022-08-20T10:58:14Z</time>
      </trkpt>
      <trkpt lat="47.10071" lon="-1.85565">
        <ele>60</ele>
        <time>2022-08-20T10:58:17Z</time>
      </trkpt>
      <trkpt lat="47.10063" lon="-1.85546">
        <ele>59</ele>
        <time>2022-08-20T10:58:19Z</time>
      </trkpt>
      <trkpt lat="47.10054" lon="-1.85528">
        <ele>58</ele>
        <time>2022-08-20T10:58:21Z</time>
      </trkpt>
      <trkpt lat="47.10042" lon="-1.85511">
        <ele>58</ele>
        <time>2022-08-20T10:58:23Z</time>
      </trkpt>
      <trkpt lat="47.1003" lon="-1.85494">
        <ele>57</ele>
        <time>2022-08-20T10:58:25Z</time>
      </trkpt>
      <trkpt lat="47.10017" lon="-1.85477">
        <ele>57</ele>
        <time>2022-08-20T10:58:27Z</time>
      </trkpt>
      <trkpt lat="47.10005" lon="-1.8546">
        <ele>56</ele>
        <time>2022-08-20T10:58:29Z</time>
      </trkpt>
      <trkpt lat="47.09993" lon="-1.85444">
        <ele>57</ele>
        <time>2022-08-20T10:58:31Z</time>
      </trkpt>
      <trkpt lat="47.09981" lon="-1.85429">
        <ele>57</ele>
        <time>2022-08-20T10:58:33Z</time>
      </trkpt>
      <trkpt lat="47.09965" lon="-1.85406">
        <ele>58</ele>
        <time>2022-08-20T10:58:36Z</time>
      </trkpt>
      <trkpt lat="47.09955" lon="-1.85391">
        <ele>58</ele>
        <time>2022-08-20T10:58:38Z</time>
      </trkpt>
      <trkpt lat="47.09947" lon="-1.85375">
        <ele>58</ele>
        <time>2022-08-20T10:58:40Z</time>
      </trkpt>
      <trkpt lat="47.09938" lon="-1.85347">
        <ele>58</ele>
        <time>2022-08-20T10:58:43Z</time>
      </trkpt>
      <trkpt lat="47.09935" lon="-1.85328">
        <ele>59</ele>
        <time>2022-08-20T10:58:45Z</time>
      </trkpt>
      <trkpt lat="47.09933" lon="-1.85299">
        <ele>59</ele>
        <time>2022-08-20T10:58:48Z</time>
      </trkpt>
      <trkpt lat="47.09932" lon="-1.8528">
        <ele>59</ele>
        <time>2022-08-20T10:58:50Z</time>
      </trkpt>
      <trkpt lat="47.09932" lon="-1.85263">
        <ele>59</ele>
        <time>2022-08-20T10:58:52Z</time>
      </trkpt>
      <trkpt lat="47.0993" lon="-1.85245">
        <ele>59</ele>
        <time>2022-08-20T10:58:54Z</time>
      </trkpt>
      <trkpt lat="47.09928" lon="-1.85228">
        <ele>59</ele>
        <time>2022-08-20T10:58:56Z</time>
      </trkpt>
      <trkpt lat="47.09926" lon="-1.8521">
        <ele>60</ele>
        <time>2022-08-20T10:58:58Z</time>
      </trkpt>
      <trkpt lat="47.09924" lon="-1.85193">
        <ele>60</ele>
        <time>2022-08-20T10:59:00Z</time>
      </trkpt>
      <trkpt lat="47.09923" lon="-1.85177">
        <ele>60</ele>
        <time>2022-08-20T10:59:02Z</time>
      </trkpt>
      <trkpt lat="47.0992" lon="-1.85159">
        <ele>60</ele>
        <time>2022-08-20T10:59:04Z</time>
      </trkpt>
      <trkpt lat="47.09919" lon="-1.85141">
        <ele>60</ele>
        <time>2022-08-20T10:59:06Z</time>
      </trkpt>
      <trkpt lat="47.09918" lon="-1.85123">
        <ele>60</ele>
        <time>2022-08-20T10:59:08Z</time>
      </trkpt>
      <trkpt lat="47.09918" lon="-1.85106">
        <ele>60</ele>
        <time>2022-08-20T10:59:10Z</time>
      </trkpt>
      <trkpt lat="47.09918" lon="-1.85088">
        <ele>60</ele>
        <time>2022-08-20T10:59:12Z</time>
      </trkpt>
      <trkpt lat="47.09919" lon="-1.85069">
        <ele>60</ele>
        <time>2022-08-20T10:59:14Z</time>
      </trkpt>
      <trkpt lat="47.0992" lon="-1.85051">
        <ele>60</ele>
        <time>2022-08-20T10:59:16Z</time>
      </trkpt>
      <trkpt lat="47.0992" lon="-1.85033">
        <ele>60</ele>
        <time>2022-08-20T10:59:18Z</time>
      </trkpt>
      <trkpt lat="47.09921" lon="-1.85014">
        <ele>59</ele>
        <time>2022-08-20T10:59:20Z</time>
      </trkpt>
      <trkpt lat="47.09922" lon="-1.84996">
        <ele>60</ele>
        <time>2022-08-20T10:59:22Z</time>
      </trkpt>
      <trkpt lat="47.09922" lon="-1.84977">
        <ele>60</ele>
        <time>2022-08-20T10:59:24Z</time>
      </trkpt>
      <trkpt lat="47.09922" lon="-1.84958">
        <ele>60</ele>
        <time>2022-08-20T10:59:26Z</time>
      </trkpt>
      <trkpt lat="47.09922" lon="-1.8494">
        <ele>60</ele>
        <time>2022-08-20T10:59:28Z</time>
      </trkpt>
      <trkpt lat="47.09921" lon="-1.8492">
        <ele>60</ele>
        <time>2022-08-20T10:59:30Z</time>
      </trkpt>
      <trkpt lat="47.0992" lon="-1.84901">
        <ele>60</ele>
        <time>2022-08-20T10:59:32Z</time>
      </trkpt>
      <trkpt lat="47.09919" lon="-1.84882">
        <ele>60</ele>
        <time>2022-08-20T10:59:34Z</time>
      </trkpt>
      <trkpt lat="47.09918" lon="-1.84864">
        <ele>61</ele>
        <time>2022-08-20T10:59:36Z</time>
      </trkpt>
      <trkpt lat="47.09917" lon="-1.84846">
        <ele>61</ele>
        <time>2022-08-20T10:59:38Z</time>
      </trkpt>
      <trkpt lat="47.09916" lon="-1.84827">
        <ele>61</ele>
        <time>2022-08-20T10:59:40Z</time>
      </trkpt>
      <trkpt lat="47.09914" lon="-1.84808">
        <ele>62</ele>
        <time>2022-08-20T10:59:42Z</time>
      </trkpt>
      <trkpt lat="47.09914" lon="-1.8479">
        <ele>62</ele>
        <time>2022-08-20T10:59:44Z</time>
      </trkpt>
      <trkpt lat="47.09913" lon="-1.84772">
        <ele>62</ele>
        <time>2022-08-20T10:59:46Z</time>
      </trkpt>
      <trkpt lat="47.09912" lon="-1.84754">
        <ele>63</ele>
        <time>2022-08-20T10:59:48Z</time>
      </trkpt>
      <trkpt lat="47.09911" lon="-1.84736">
        <ele>63</ele>
        <time>2022-08-20T10:59:50Z</time>
      </trkpt>
      <trkpt lat="47.0991" lon="-1.84718">
        <ele>63</ele>
        <time>2022-08-20T10:59:52Z</time>
      </trkpt>
      <trkpt lat="47.09909" lon="-1.84701">
        <ele>64</ele>
        <time>2022-08-20T10:59:54Z</time>
      </trkpt>
      <trkpt lat="47.09908" lon="-1.84684">
        <ele>65</ele>
        <time>2022-08-20T10:59:56Z</time>
      </trkpt>
      <trkpt lat="47.09908" lon="-1.84667">
        <ele>65</ele>
        <time>2022-08-20T10:59:58Z</time>
      </trkpt>
      <trkpt lat="47.09907" lon="-1.8465">
        <ele>65</ele>
        <time>2022-08-20T11:00:00Z</time>
      </trkpt>
      <trkpt lat="47.09906" lon="-1.84632">
        <ele>65</ele>
        <time>2022-08-20T11:00:02Z</time>
      </trkpt>
      <trkpt lat="47.09905" lon="-1.84614">
        <ele>65</ele>
        <time>2022-08-20T11:00:04Z</time>
      </trkpt>
      <trkpt lat="47.09904" lon="-1.84595">
        <ele>66</ele>
        <time>2022-08-20T11:00:06Z</time>
      </trkpt>
      <trkpt lat="47.09903" lon="-1.84578">
        <ele>66</ele>
        <time>2022-08-20T11:00:08Z</time>
      </trkpt>
      <trkpt lat="47.09902" lon="-1.84561">
        <ele>66</ele>
        <time>2022-08-20T11:00:10Z</time>
      </trkpt>
      <trkpt lat="47.099" lon="-1.84543">
        <ele>67</ele>
        <time>2022-08-20T11:00:12Z</time>
      </trkpt>
      <trkpt lat="47.09898" lon="-1.84525">
        <ele>67</ele>
        <time>2022-08-20T11:00:14Z</time>
      </trkpt>
      <trkpt lat="47.09896" lon="-1.84507">
        <ele>67</ele>
        <time>2022-08-20T11:00:16Z</time>
      </trkpt>
      <trkpt lat="47.09893" lon="-1.8449">
        <ele>67</ele>
        <time>2022-08-20T11:00:18Z</time>
      </trkpt>
      <trkpt lat="47.09891" lon="-1.84472">
        <ele>66</ele>
        <time>2022-08-20T11:00:20Z</time>
      </trkpt>
      <trkpt lat="47.09889" lon="-1.84454">
        <ele>66</ele>
        <time>2022-08-20T11:00:22Z</time>
      </trkpt>
      <trkpt lat="47.09889" lon="-1.84436">
        <ele>65</ele>
        <time>2022-08-20T11:00:24Z</time>
      </trkpt>
      <trkpt lat="47.09888" lon="-1.84417">
        <ele>64</ele>
        <time>2022-08-20T11:00:26Z</time>
      </trkpt>
      <trkpt lat="47.09888" lon="-1.84398">
        <ele>64</ele>
        <time>2022-08-20T11:00:28Z</time>
      </trkpt>
      <trkpt lat="47.09889" lon="-1.8438">
        <ele>64</ele>
        <time>2022-08-20T11:00:30Z</time>
      </trkpt>
      <trkpt lat="47.09889" lon="-1.84361">
        <ele>65</ele>
        <time>2022-08-20T11:00:32Z</time>
      </trkpt>
      <trkpt lat="47.0989" lon="-1.84343">
        <ele>64</ele>
        <time>2022-08-20T11:00:34Z</time>
      </trkpt>
      <trkpt lat="47.0989" lon="-1.84323">
        <ele>64</ele>
        <time>2022-08-20T11:00:36Z</time>
      </trkpt>
      <trkpt lat="47.0989" lon="-1.84303">
        <ele>63</ele>
        <time>2022-08-20T11:00:38Z</time>
      </trkpt>
      <trkpt lat="47.0989" lon="-1.84283">
        <ele>63</ele>
        <time>2022-08-20T11:00:40Z</time>
      </trkpt>
      <trkpt lat="47.09889" lon="-1.84264">
        <ele>63</ele>
        <time>2022-08-20T11:00:42Z</time>
      </trkpt>
      <trkpt lat="47.09887" lon="-1.84244">
        <ele>63</ele>
        <time>2022-08-20T11:00:44Z</time>
      </trkpt>
      <trkpt lat="47.09886" lon="-1.84224">
        <ele>62</ele>
        <time>2022-08-20T11:00:46Z</time>
      </trkpt>
      <trkpt lat="47.09884" lon="-1.84203">
        <ele>62</ele>
        <time>2022-08-20T11:00:48Z</time>
      </trkpt>
      <trkpt lat="47.09881" lon="-1.84183">
        <ele>62</ele>
        <time>2022-08-20T11:00:50Z</time>
      </trkpt>
      <trkpt lat="47.09878" lon="-1.84163">
        <ele>61</ele>
        <time>2022-08-20T11:00:52Z</time>
      </trkpt>
      <trkpt lat="47.09874" lon="-1.84143">
        <ele>61</ele>
        <time>2022-08-20T11:00:54Z</time>
      </trkpt>
      <trkpt lat="47.09871" lon="-1.84122">
        <ele>61</ele>
        <time>2022-08-20T11:00:56Z</time>
      </trkpt>
      <trkpt lat="47.09868" lon="-1.84101">
        <ele>60</ele>
        <time>2022-08-20T11:00:58Z</time>
      </trkpt>
      <trkpt lat="47.09864" lon="-1.8408">
        <ele>60</ele>
        <time>2022-08-20T11:01:00Z</time>
      </trkpt>
      <trkpt lat="47.09861" lon="-1.84059">
        <ele>59</ele>
        <time>2022-08-20T11:01:02Z</time>
      </trkpt>
      <trkpt lat="47.09858" lon="-1.84039">
        <ele>59</ele>
        <time>2022-08-20T11:01:04Z</time>
      </trkpt>
      <trkpt lat="47.09855" lon="-1.84017">
        <ele>59</ele>
        <time>2022-08-20T11:01:06Z</time>
      </trkpt>
      <trkpt lat="47.09853" lon="-1.83996">
        <ele>59</ele>
        <time>2022-08-20T11:01:08Z</time>
      </trkpt>
      <trkpt lat="47.09851" lon="-1.83974">
        <ele>59</ele>
        <time>2022-08-20T11:01:10Z</time>
      </trkpt>
      <trkpt lat="47.09851" lon="-1.83952">
        <ele>59</ele>
        <time>2022-08-20T11:01:12Z</time>
      </trkpt>
      <trkpt lat="47.09851" lon="-1.8393">
        <ele>58</ele>
        <time>2022-08-20T11:01:14Z</time>
      </trkpt>
      <trkpt lat="47.09853" lon="-1.83908">
        <ele>58</ele>
        <time>2022-08-20T11:01:16Z</time>
      </trkpt>
      <trkpt lat="47.09855" lon="-1.83886">
        <ele>58</ele>
        <time>2022-08-20T11:01:18Z</time>
      </trkpt>
      <trkpt lat="47.09857" lon="-1.83863">
        <ele>57</ele>
        <time>2022-08-20T11:01:20Z</time>
      </trkpt>
      <trkpt lat="47.09859" lon="-1.83841">
        <ele>57</ele>
        <time>2022-08-20T11:01:22Z</time>
      </trkpt>
      <trkpt lat="47.09859" lon="-1.83819">
        <ele>57</ele>
        <time>2022-08-20T11:01:24Z</time>
      </trkpt>
      <trkpt lat="47.0986" lon="-1.83797">
        <ele>57</ele>
        <time>2022-08-20T11:01:26Z</time>
      </trkpt>
      <trkpt lat="47.0986" lon="-1.83775">
        <ele>57</ele>
        <time>2022-08-20T11:01:28Z</time>
      </trkpt>
      <trkpt lat="47.0986" lon="-1.83754">
        <ele>57</ele>
        <time>2022-08-20T11:01:30Z</time>
      </trkpt>
      <trkpt lat="47.09861" lon="-1.83732">
        <ele>58</ele>
        <time>2022-08-20T11:01:32Z</time>
      </trkpt>
      <trkpt lat="47.09862" lon="-1.83711">
        <ele>58</ele>
        <time>2022-08-20T11:01:34Z</time>
      </trkpt>
      <trkpt lat="47.09862" lon="-1.8369">
        <ele>58</ele>
        <time>2022-08-20T11:01:36Z</time>
      </trkpt>
      <trkpt lat="47.09863" lon="-1.83668">
        <ele>58</ele>
        <time>2022-08-20T11:01:38Z</time>
      </trkpt>
      <trkpt lat="47.09863" lon="-1.83646">
        <ele>57</ele>
        <time>2022-08-20T11:01:40Z</time>
      </trkpt>
      <trkpt lat="47.09863" lon="-1.83625">
        <ele>58</ele>
        <time>2022-08-20T11:01:42Z</time>
      </trkpt>
      <trkpt lat="47.09862" lon="-1.83604">
        <ele>58</ele>
        <time>2022-08-20T11:01:44Z</time>
      </trkpt>
      <trkpt lat="47.0986" lon="-1.83583">
        <ele>57</ele>
        <time>2022-08-20T11:01:46Z</time>
      </trkpt>
      <trkpt lat="47.09859" lon="-1.83563">
        <ele>57</ele>
        <time>2022-08-20T11:01:48Z</time>
      </trkpt>
      <trkpt lat="47.09857" lon="-1.83544">
        <ele>58</ele>
        <time>2022-08-20T11:01:50Z</time>
      </trkpt>
      <trkpt lat="47.09855" lon="-1.83524">
        <ele>58</ele>
        <time>2022-08-20T11:01:52Z</time>
      </trkpt>
      <trkpt lat="47.09854" lon="-1.83505">
        <ele>58</ele>
        <time>2022-08-20T11:01:54Z</time>
      </trkpt>
      <trkpt lat="47.09853" lon="-1.83485">
        <ele>57</ele>
        <time>2022-08-20T11:01:56Z</time>
      </trkpt>
      <trkpt lat="47.09854" lon="-1.83464">
        <ele>57</ele>
        <time>2022-08-20T11:01:58Z</time>
      </trkpt>
      <trkpt lat="47.09855" lon="-1.83444">
        <ele>57</ele>
        <time>2022-08-20T11:02:00Z</time>
      </trkpt>
      <trkpt lat="47.09858" lon="-1.83425">
        <ele>57</ele>
        <time>2022-08-20T11:02:02Z</time>
      </trkpt>
      <trkpt lat="47.09861" lon="-1.83406">
        <ele>57</ele>
        <time>2022-08-20T11:02:04Z</time>
      </trkpt>
      <trkpt lat="47.09864" lon="-1.83388">
        <ele>58</ele>
        <time>2022-08-20T11:02:06Z</time>
      </trkpt>
      <trkpt lat="47.09869" lon="-1.8337">
        <ele>58</ele>
        <time>2022-08-20T11:02:08Z</time>
      </trkpt>
      <trkpt lat="47.09873" lon="-1.83351">
        <ele>58</ele>
        <time>2022-08-20T11:02:10Z</time>
      </trkpt>
      <trkpt lat="47.09877" lon="-1.83332">
        <ele>58</ele>
        <time>2022-08-20T11:02:12Z</time>
      </trkpt>
      <trkpt lat="47.0988" lon="-1.83314">
        <ele>59</ele>
        <time>2022-08-20T11:02:14Z</time>
      </trkpt>
      <trkpt lat="47.09883" lon="-1.83296">
        <ele>59</ele>
        <time>2022-08-20T11:02:16Z</time>
      </trkpt>
      <trkpt lat="47.09884" lon="-1.83277">
        <ele>59</ele>
        <time>2022-08-20T11:02:18Z</time>
      </trkpt>
      <trkpt lat="47.09885" lon="-1.83258">
        <ele>59</ele>
        <time>2022-08-20T11:02:20Z</time>
      </trkpt>
      <trkpt lat="47.09884" lon="-1.83239">
        <ele>59</ele>
        <time>2022-08-20T11:02:22Z</time>
      </trkpt>
      <trkpt lat="47.09883" lon="-1.8322">
        <ele>60</ele>
        <time>2022-08-20T11:02:24Z</time>
      </trkpt>
      <trkpt lat="47.09882" lon="-1.83204">
        <ele>60</ele>
        <time>2022-08-20T11:02:26Z</time>
      </trkpt>
      <trkpt lat="47.0988" lon="-1.83188">
        <ele>60</ele>
        <time>2022-08-20T11:02:28Z</time>
      </trkpt>
      <trkpt lat="47.09878" lon="-1.83171">
        <ele>61</ele>
        <time>2022-08-20T11:02:30Z</time>
      </trkpt>
      <trkpt lat="47.09877" lon="-1.83153">
        <ele>62</ele>
        <time>2022-08-20T11:02:32Z</time>
      </trkpt>
      <trkpt lat="47.09875" lon="-1.83135">
        <ele>62</ele>
        <time>2022-08-20T11:02:34Z</time>
      </trkpt>
      <trkpt lat="47.09874" lon="-1.83118">
        <ele>63</ele>
        <time>2022-08-20T11:02:36Z</time>
      </trkpt>
      <trkpt lat="47.09872" lon="-1.83101">
        <ele>63</ele>
        <time>2022-08-20T11:02:38Z</time>
      </trkpt>
      <trkpt lat="47.0987" lon="-1.83083">
        <ele>63</ele>
        <time>2022-08-20T11:02:40Z</time>
      </trkpt>
      <trkpt lat="47.09869" lon="-1.83066">
        <ele>63</ele>
        <time>2022-08-20T11:02:42Z</time>
      </trkpt>
      <trkpt lat="47.09867" lon="-1.83049">
        <ele>63</ele>
        <time>2022-08-20T11:02:44Z</time>
      </trkpt>
      <trkpt lat="47.09865" lon="-1.83032">
        <ele>63</ele>
        <time>2022-08-20T11:02:46Z</time>
      </trkpt>
      <trkpt lat="47.09863" lon="-1.83014">
        <ele>63</ele>
        <time>2022-08-20T11:02:48Z</time>
      </trkpt>
      <trkpt lat="47.09862" lon="-1.82997">
        <ele>63</ele>
        <time>2022-08-20T11:02:50Z</time>
      </trkpt>
      <trkpt lat="47.0986" lon="-1.8298">
        <ele>63</ele>
        <time>2022-08-20T11:02:52Z</time>
      </trkpt>
      <trkpt lat="47.09859" lon="-1.82963">
        <ele>63</ele>
        <time>2022-08-20T11:02:54Z</time>
      </trkpt>
      <trkpt lat="47.09857" lon="-1.82946">
        <ele>63</ele>
        <time>2022-08-20T11:02:56Z</time>
      </trkpt>
      <trkpt lat="47.09855" lon="-1.82929">
        <ele>63</ele>
        <time>2022-08-20T11:02:58Z</time>
      </trkpt>
      <trkpt lat="47.09854" lon="-1.82912">
        <ele>63</ele>
        <time>2022-08-20T11:03:00Z</time>
      </trkpt>
      <trkpt lat="47.09852" lon="-1.82895">
        <ele>63</ele>
        <time>2022-08-20T11:03:02Z</time>
      </trkpt>
      <trkpt lat="47.09851" lon="-1.82877">
        <ele>63</ele>
        <time>2022-08-20T11:03:04Z</time>
      </trkpt>
      <trkpt lat="47.0985" lon="-1.82859">
        <ele>63</ele>
        <time>2022-08-20T11:03:06Z</time>
      </trkpt>
      <trkpt lat="47.0985" lon="-1.82842">
        <ele>63</ele>
        <time>2022-08-20T11:03:08Z</time>
      </trkpt>
      <trkpt lat="47.0985" lon="-1.82824">
        <ele>63</ele>
        <time>2022-08-20T11:03:10Z</time>
      </trkpt>
      <trkpt lat="47.09851" lon="-1.82806">
        <ele>63</ele>
        <time>2022-08-20T11:03:12Z</time>
      </trkpt>
      <trkpt lat="47.09851" lon="-1.82788">
        <ele>63</ele>
        <time>2022-08-20T11:03:14Z</time>
      </trkpt>
      <trkpt lat="47.0985" lon="-1.8277">
        <ele>64</ele>
        <time>2022-08-20T11:03:16Z</time>
      </trkpt>
      <trkpt lat="47.09848" lon="-1.82753">
        <ele>64</ele>
        <time>2022-08-20T11:03:18Z</time>
      </trkpt>
      <trkpt lat="47.09845" lon="-1.82737">
        <ele>64</ele>
        <time>2022-08-20T11:03:20Z</time>
      </trkpt>
      <trkpt lat="47.0984" lon="-1.82719">
        <ele>64</ele>
        <time>2022-08-20T11:03:22Z</time>
      </trkpt>
      <trkpt lat="47.09836" lon="-1.82702">
        <ele>65</ele>
        <time>2022-08-20T11:03:24Z</time>
      </trkpt>
      <trkpt lat="47.09832" lon="-1.82685">
        <ele>65</ele>
        <time>2022-08-20T11:03:26Z</time>
      </trkpt>
      <trkpt lat="47.09829" lon="-1.82667">
        <ele>65</ele>
        <time>2022-08-20T11:03:28Z</time>
      </trkpt>
      <trkpt lat="47.09825" lon="-1.8265">
        <ele>65</ele>
        <time>2022-08-20T11:03:30Z</time>
      </trkpt>
      <trkpt lat="47.09821" lon="-1.82633">
        <ele>65</ele>
        <time>2022-08-20T11:03:32Z</time>
      </trkpt>
      <trkpt lat="47.09818" lon="-1.82615">
        <ele>66</ele>
        <time>2022-08-20T11:03:34Z</time>
      </trkpt>
      <trkpt lat="47.09815" lon="-1.82598">
        <ele>66</ele>
        <time>2022-08-20T11:03:36Z</time>
      </trkpt>
      <trkpt lat="47.09812" lon="-1.82581">
        <ele>66</ele>
        <time>2022-08-20T11:03:38Z</time>
      </trkpt>
      <trkpt lat="47.09809" lon="-1.82562">
        <ele>66</ele>
        <time>2022-08-20T11:03:40Z</time>
      </trkpt>
      <trkpt lat="47.09807" lon="-1.82544">
        <ele>66</ele>
        <time>2022-08-20T11:03:42Z</time>
      </trkpt>
      <trkpt lat="47.09804" lon="-1.82525">
        <ele>66</ele>
        <time>2022-08-20T11:03:44Z</time>
      </trkpt>
      <trkpt lat="47.09802" lon="-1.82506">
        <ele>65</ele>
        <time>2022-08-20T11:03:46Z</time>
      </trkpt>
      <trkpt lat="47.09801" lon="-1.82487">
        <ele>65</ele>
        <time>2022-08-20T11:03:48Z</time>
      </trkpt>
      <trkpt lat="47.09799" lon="-1.82468">
        <ele>65</ele>
        <time>2022-08-20T11:03:50Z</time>
      </trkpt>
      <trkpt lat="47.09797" lon="-1.82448">
        <ele>65</ele>
        <time>2022-08-20T11:03:52Z</time>
      </trkpt>
      <trkpt lat="47.09794" lon="-1.82429">
        <ele>64</ele>
        <time>2022-08-20T11:03:54Z</time>
      </trkpt>
      <trkpt lat="47.09791" lon="-1.82409">
        <ele>64</ele>
        <time>2022-08-20T11:03:56Z</time>
      </trkpt>
      <trkpt lat="47.09788" lon="-1.8239">
        <ele>64</ele>
        <time>2022-08-20T11:03:58Z</time>
      </trkpt>
      <trkpt lat="47.09783" lon="-1.82371">
        <ele>64</ele>
        <time>2022-08-20T11:04:00Z</time>
      </trkpt>
      <trkpt lat="47.09777" lon="-1.82353">
        <ele>64</ele>
        <time>2022-08-20T11:04:02Z</time>
      </trkpt>
      <trkpt lat="47.09771" lon="-1.82336">
        <ele>65</ele>
        <time>2022-08-20T11:04:04Z</time>
      </trkpt>
      <trkpt lat="47.09765" lon="-1.82319">
        <ele>65</ele>
        <time>2022-08-20T11:04:06Z</time>
      </trkpt>
      <trkpt lat="47.09758" lon="-1.82303">
        <ele>65</ele>
        <time>2022-08-20T11:04:08Z</time>
      </trkpt>
      <trkpt lat="47.09752" lon="-1.82287">
        <ele>65</ele>
        <time>2022-08-20T11:04:10Z</time>
      </trkpt>
      <trkpt lat="47.09745" lon="-1.82271">
        <ele>65</ele>
        <time>2022-08-20T11:04:12Z</time>
      </trkpt>
      <trkpt lat="47.09738" lon="-1.82255">
        <ele>65</ele>
        <time>2022-08-20T11:04:14Z</time>
      </trkpt>
      <trkpt lat="47.09731" lon="-1.8224">
        <ele>65</ele>
        <time>2022-08-20T11:04:16Z</time>
      </trkpt>
      <trkpt lat="47.09724" lon="-1.82225">
        <ele>65</ele>
        <time>2022-08-20T11:04:18Z</time>
      </trkpt>
      <trkpt lat="47.09717" lon="-1.8221">
        <ele>66</ele>
        <time>2022-08-20T11:04:20Z</time>
      </trkpt>
      <trkpt lat="47.0971" lon="-1.82195">
        <ele>66</ele>
        <time>2022-08-20T11:04:22Z</time>
      </trkpt>
      <trkpt lat="47.09704" lon="-1.82181">
        <ele>66</ele>
        <time>2022-08-20T11:04:24Z</time>
      </trkpt>
      <trkpt lat="47.09698" lon="-1.82169">
        <ele>65</ele>
        <time>2022-08-20T11:04:26Z</time>
      </trkpt>
      <trkpt lat="47.09693" lon="-1.82156">
        <ele>66</ele>
        <time>2022-08-20T11:04:28Z</time>
      </trkpt>
      <trkpt lat="47.09694" lon="-1.8214">
        <ele>66</ele>
        <time>2022-08-20T11:04:30Z</time>
      </trkpt>
      <trkpt lat="47.097" lon="-1.82121">
        <ele>65</ele>
        <time>2022-08-20T11:04:32Z</time>
      </trkpt>
      <trkpt lat="47.09705" lon="-1.82103">
        <ele>64</ele>
        <time>2022-08-20T11:04:34Z</time>
      </trkpt>
      <trkpt lat="47.09711" lon="-1.82085">
        <ele>64</ele>
        <time>2022-08-20T11:04:36Z</time>
      </trkpt>
      <trkpt lat="47.09716" lon="-1.82067">
        <ele>64</ele>
        <time>2022-08-20T11:04:38Z</time>
      </trkpt>
      <trkpt lat="47.09722" lon="-1.82048">
        <ele>64</ele>
        <time>2022-08-20T11:04:40Z</time>
      </trkpt>
      <trkpt lat="47.09728" lon="-1.8203">
        <ele>64</ele>
        <time>2022-08-20T11:04:42Z</time>
      </trkpt>
      <trkpt lat="47.09734" lon="-1.82012">
        <ele>64</ele>
        <time>2022-08-20T11:04:44Z</time>
      </trkpt>
      <trkpt lat="47.09739" lon="-1.81994">
        <ele>64</ele>
        <time>2022-08-20T11:04:46Z</time>
      </trkpt>
      <trkpt lat="47.09745" lon="-1.81975">
        <ele>64</ele>
        <time>2022-08-20T11:04:48Z</time>
      </trkpt>
      <trkpt lat="47.09751" lon="-1.81957">
        <ele>64</ele>
        <time>2022-08-20T11:04:50Z</time>
      </trkpt>
      <trkpt lat="47.09757" lon="-1.81939">
        <ele>64</ele>
        <time>2022-08-20T11:04:52Z</time>
      </trkpt>
      <trkpt lat="47.09763" lon="-1.81922">
        <ele>64</ele>
        <time>2022-08-20T11:04:54Z</time>
      </trkpt>
      <trkpt lat="47.09771" lon="-1.81904">
        <ele>64</ele>
        <time>2022-08-20T11:04:56Z</time>
      </trkpt>
      <trkpt lat="47.09778" lon="-1.81887">
        <ele>64</ele>
        <time>2022-08-20T11:04:58Z</time>
      </trkpt>
      <trkpt lat="47.09785" lon="-1.8187">
        <ele>64</ele>
        <time>2022-08-20T11:05:00Z</time>
      </trkpt>
      <trkpt lat="47.09793" lon="-1.81853">
        <ele>64</ele>
        <time>2022-08-20T11:05:02Z</time>
      </trkpt>
      <trkpt lat="47.09799" lon="-1.81836">
        <ele>64</ele>
        <time>2022-08-20T11:05:04Z</time>
      </trkpt>
      <trkpt lat="47.09805" lon="-1.81819">
        <ele>63</ele>
        <time>2022-08-20T11:05:06Z</time>
      </trkpt>
      <trkpt lat="47.09807" lon="-1.81799">
        <ele>62</ele>
        <time>2022-08-20T11:05:08Z</time>
      </trkpt>
      <trkpt lat="47.09815" lon="-1.81782">
        <ele>62</ele>
        <time>2022-08-20T11:05:10Z</time>
      </trkpt>
      <trkpt lat="47.09826" lon="-1.81768">
        <ele>62</ele>
        <time>2022-08-20T11:05:12Z</time>
      </trkpt>
      <trkpt lat="47.09836" lon="-1.81753">
        <ele>61</ele>
        <time>2022-08-20T11:05:14Z</time>
      </trkpt>
      <trkpt lat="47.09844" lon="-1.81735">
        <ele>61</ele>
        <time>2022-08-20T11:05:16Z</time>
      </trkpt>
      <trkpt lat="47.09852" lon="-1.81716">
        <ele>60</ele>
        <time>2022-08-20T11:05:18Z</time>
      </trkpt>
      <trkpt lat="47.0986" lon="-1.81698">
        <ele>60</ele>
        <time>2022-08-20T11:05:20Z</time>
      </trkpt>
      <trkpt lat="47.09868" lon="-1.8168">
        <ele>59</ele>
        <time>2022-08-20T11:05:22Z</time>
      </trkpt>
      <trkpt lat="47.09874" lon="-1.81661">
        <ele>59</ele>
        <time>2022-08-20T11:05:24Z</time>
      </trkpt>
      <trkpt lat="47.09881" lon="-1.81642">
        <ele>60</ele>
        <time>2022-08-20T11:05:26Z</time>
      </trkpt>
      <trkpt lat="47.09888" lon="-1.81623">
        <ele>60</ele>
        <time>2022-08-20T11:05:28Z</time>
      </trkpt>
      <trkpt lat="47.09896" lon="-1.81605">
        <ele>60</ele>
        <time>2022-08-20T11:05:30Z</time>
      </trkpt>
      <trkpt lat="47.09904" lon="-1.81586">
        <ele>60</ele>
        <time>2022-08-20T11:05:32Z</time>
      </trkpt>
      <trkpt lat="47.09911" lon="-1.81567">
        <ele>60</ele>
        <time>2022-08-20T11:05:34Z</time>
      </trkpt>
      <trkpt lat="47.09919" lon="-1.81548">
        <ele>59</ele>
        <time>2022-08-20T11:05:36Z</time>
      </trkpt>
      <trkpt lat="47.09927" lon="-1.8153">
        <ele>59</ele>
        <time>2022-08-20T11:05:38Z</time>
      </trkpt>
      <trkpt lat="47.09937" lon="-1.81511">
        <ele>58</ele>
        <time>2022-08-20T11:05:40Z</time>
      </trkpt>
      <trkpt lat="47.09948" lon="-1.81494">
        <ele>58</ele>
        <time>2022-08-20T11:05:42Z</time>
      </trkpt>
      <trkpt lat="47.09959" lon="-1.81478">
        <ele>58</ele>
        <time>2022-08-20T11:05:44Z</time>
      </trkpt>
      <trkpt lat="47.0997" lon="-1.81461">
        <ele>58</ele>
        <time>2022-08-20T11:05:46Z</time>
      </trkpt>
      <trkpt lat="47.09982" lon="-1.81444">
        <ele>57</ele>
        <time>2022-08-20T11:05:48Z</time>
      </trkpt>
      <trkpt lat="47.09993" lon="-1.81426">
        <ele>57</ele>
        <time>2022-08-20T11:05:50Z</time>
      </trkpt>
      <trkpt lat="47.10005" lon="-1.8141">
        <ele>57</ele>
        <time>2022-08-20T11:05:52Z</time>
      </trkpt>
      <trkpt lat="47.10018" lon="-1.81393">
        <ele>57</ele>
        <time>2022-08-20T11:05:54Z</time>
      </trkpt>
      <trkpt lat="47.10029" lon="-1.81377">
        <ele>58</ele>
        <time>2022-08-20T11:05:56Z</time>
      </trkpt>
      <trkpt lat="47.1004" lon="-1.81361">
        <ele>58</ele>
        <time>2022-08-20T11:05:58Z</time>
      </trkpt>
      <trkpt lat="47.10052" lon="-1.81345">
        <ele>58</ele>
        <time>2022-08-20T11:06:00Z</time>
      </trkpt>
      <trkpt lat="47.10063" lon="-1.8133">
        <ele>58</ele>
        <time>2022-08-20T11:06:02Z</time>
      </trkpt>
      <trkpt lat="47.10075" lon="-1.81315">
        <ele>58</ele>
        <time>2022-08-20T11:06:04Z</time>
      </trkpt>
      <trkpt lat="47.10087" lon="-1.81299">
        <ele>58</ele>
        <time>2022-08-20T11:06:06Z</time>
      </trkpt>
      <trkpt lat="47.10099" lon="-1.81284">
        <ele>57</ele>
        <time>2022-08-20T11:06:08Z</time>
      </trkpt>
      <trkpt lat="47.10111" lon="-1.81268">
        <ele>57</ele>
        <time>2022-08-20T11:06:10Z</time>
      </trkpt>
      <trkpt lat="47.10124" lon="-1.81256">
        <ele>57</ele>
        <time>2022-08-20T11:06:12Z</time>
      </trkpt>
      <trkpt lat="47.10138" lon="-1.81245">
        <ele>56</ele>
        <time>2022-08-20T11:06:14Z</time>
      </trkpt>
      <trkpt lat="47.10153" lon="-1.81235">
        <ele>56</ele>
        <time>2022-08-20T11:06:16Z</time>
      </trkpt>
      <trkpt lat="47.10168" lon="-1.81224">
        <ele>56</ele>
        <time>2022-08-20T11:06:18Z</time>
      </trkpt>
      <trkpt lat="47.10181" lon="-1.81214">
        <ele>55</ele>
        <time>2022-08-20T11:06:20Z</time>
      </trkpt>
      <trkpt lat="47.10195" lon="-1.81204">
        <ele>56</ele>
        <time>2022-08-20T11:06:22Z</time>
      </trkpt>
      <trkpt lat="47.10207" lon="-1.81195">
        <ele>56</ele>
        <time>2022-08-20T11:06:24Z</time>
      </trkpt>
      <trkpt lat="47.10218" lon="-1.81185">
        <ele>57</ele>
        <time>2022-08-20T11:06:26Z</time>
      </trkpt>
      <trkpt lat="47.10229" lon="-1.81174">
        <ele>58</ele>
        <time>2022-08-20T11:06:28Z</time>
      </trkpt>
      <trkpt lat="47.10239" lon="-1.81164">
        <ele>59</ele>
        <time>2022-08-20T11:06:30Z</time>
      </trkpt>
      <trkpt lat="47.1025" lon="-1.81154">
        <ele>60</ele>
        <time>2022-08-20T11:06:32Z</time>
      </trkpt>
      <trkpt lat="47.1026" lon="-1.81145">
        <ele>61</ele>
        <time>2022-08-20T11:06:34Z</time>
      </trkpt>
      <trkpt lat="47.10271" lon="-1.81135">
        <ele>62</ele>
        <time>2022-08-20T11:06:36Z</time>
      </trkpt>
      <trkpt lat="47.10282" lon="-1.81124">
        <ele>63</ele>
        <time>2022-08-20T11:06:38Z</time>
      </trkpt>
      <trkpt lat="47.10293" lon="-1.81114">
        <ele>63</ele>
        <time>2022-08-20T11:06:40Z</time>
      </trkpt>
      <trkpt lat="47.10304" lon="-1.81104">
        <ele>63</ele>
        <time>2022-08-20T11:06:42Z</time>
      </trkpt>
      <trkpt lat="47.10315" lon="-1.81093">
        <ele>63</ele>
        <time>2022-08-20T11:06:44Z</time>
      </trkpt>
      <trkpt lat="47.10325" lon="-1.81082">
        <ele>64</ele>
        <time>2022-08-20T11:06:46Z</time>
      </trkpt>
      <trkpt lat="47.10336" lon="-1.81072">
        <ele>64</ele>
        <time>2022-08-20T11:06:48Z</time>
      </trkpt>
      <trkpt lat="47.10346" lon="-1.81062">
        <ele>65</ele>
        <time>2022-08-20T11:06:50Z</time>
      </trkpt>
      <trkpt lat="47.10356" lon="-1.81048">
        <ele>65</ele>
        <time>2022-08-20T11:06:52Z</time>
      </trkpt>
      <trkpt lat="47.10363" lon="-1.81033">
        <ele>64</ele>
        <time>2022-08-20T11:06:54Z</time>
      </trkpt>
      <trkpt lat="47.10369" lon="-1.81016">
        <ele>62</ele>
        <time>2022-08-20T11:06:56Z</time>
      </trkpt>
      <trkpt lat="47.10373" lon="-1.80998">
        <ele>62</ele>
        <time>2022-08-20T11:06:58Z</time>
      </trkpt>
      <trkpt lat="47.10375" lon="-1.80978">
        <ele>60</ele>
        <time>2022-08-20T11:07:00Z</time>
      </trkpt>
      <trkpt lat="47.10372" lon="-1.80959">
        <ele>59</ele>
        <time>2022-08-20T11:07:02Z</time>
      </trkpt>
      <trkpt lat="47.10367" lon="-1.80939">
        <ele>59</ele>
        <time>2022-08-20T11:07:04Z</time>
      </trkpt>
      <trkpt lat="47.10362" lon="-1.80918">
        <ele>59</ele>
        <time>2022-08-20T11:07:06Z</time>
      </trkpt>
      <trkpt lat="47.10358" lon="-1.80898">
        <ele>58</ele>
        <time>2022-08-20T11:07:08Z</time>
      </trkpt>
      <trkpt lat="47.10357" lon="-1.80875">
        <ele>58</ele>
        <time>2022-08-20T11:07:10Z</time>
      </trkpt>
      <trkpt lat="47.10357" lon="-1.80854">
        <ele>57</ele>
        <time>2022-08-20T11:07:12Z</time>
      </trkpt>
      <trkpt lat="47.10357" lon="-1.80832">
        <ele>57</ele>
        <time>2022-08-20T11:07:14Z</time>
      </trkpt>
      <trkpt lat="47.10356" lon="-1.80812">
        <ele>58</ele>
        <time>2022-08-20T11:07:16Z</time>
      </trkpt>
      <trkpt lat="47.10355" lon="-1.80792">
        <ele>59</ele>
        <time>2022-08-20T11:07:18Z</time>
      </trkpt>
      <trkpt lat="47.10354" lon="-1.80773">
        <ele>59</ele>
        <time>2022-08-20T11:07:20Z</time>
      </trkpt>
      <trkpt lat="47.10353" lon="-1.80756">
        <ele>60</ele>
        <time>2022-08-20T11:07:22Z</time>
      </trkpt>
      <trkpt lat="47.10353" lon="-1.8074">
        <ele>60</ele>
        <time>2022-08-20T11:07:24Z</time>
      </trkpt>
      <trkpt lat="47.10353" lon="-1.80723">
        <ele>60</ele>
        <time>2022-08-20T11:07:26Z</time>
      </trkpt>
      <trkpt lat="47.10353" lon="-1.80706">
        <ele>61</ele>
        <time>2022-08-20T11:07:28Z</time>
      </trkpt>
      <trkpt lat="47.10353" lon="-1.8069">
        <ele>61</ele>
        <time>2022-08-20T11:07:30Z</time>
      </trkpt>
      <trkpt lat="47.10352" lon="-1.80673">
        <ele>61</ele>
        <time>2022-08-20T11:07:32Z</time>
      </trkpt>
      <trkpt lat="47.10353" lon="-1.80656">
        <ele>61</ele>
        <time>2022-08-20T11:07:34Z</time>
      </trkpt>
      <trkpt lat="47.10353" lon="-1.80638">
        <ele>62</ele>
        <time>2022-08-20T11:07:36Z</time>
      </trkpt>
      <trkpt lat="47.10352" lon="-1.80621">
        <ele>62</ele>
        <time>2022-08-20T11:07:38Z</time>
      </trkpt>
      <trkpt lat="47.10352" lon="-1.80604">
        <ele>63</ele>
        <time>2022-08-20T11:07:40Z</time>
      </trkpt>
      <trkpt lat="47.10352" lon="-1.80587">
        <ele>63</ele>
        <time>2022-08-20T11:07:42Z</time>
      </trkpt>
      <trkpt lat="47.10351" lon="-1.80571">
        <ele>63</ele>
        <time>2022-08-20T11:07:44Z</time>
      </trkpt>
      <trkpt lat="47.1035" lon="-1.80554">
        <ele>63</ele>
        <time>2022-08-20T11:07:46Z</time>
      </trkpt>
      <trkpt lat="47.10349" lon="-1.80537">
        <ele>63</ele>
        <time>2022-08-20T11:07:48Z</time>
      </trkpt>
      <trkpt lat="47.10346" lon="-1.80521">
        <ele>64</ele>
        <time>2022-08-20T11:07:50Z</time>
      </trkpt>
      <trkpt lat="47.10344" lon="-1.80504">
        <ele>64</ele>
        <time>2022-08-20T11:07:52Z</time>
      </trkpt>
      <trkpt lat="47.10342" lon="-1.80487">
        <ele>64</ele>
        <time>2022-08-20T11:07:54Z</time>
      </trkpt>
      <trkpt lat="47.1034" lon="-1.80471">
        <ele>64</ele>
        <time>2022-08-20T11:07:56Z</time>
      </trkpt>
      <trkpt lat="47.10338" lon="-1.80455">
        <ele>65</ele>
        <time>2022-08-20T11:07:58Z</time>
      </trkpt>
      <trkpt lat="47.10336" lon="-1.80438">
        <ele>65</ele>
        <time>2022-08-20T11:08:00Z</time>
      </trkpt>
      <trkpt lat="47.10334" lon="-1.80422">
        <ele>65</ele>
        <time>2022-08-20T11:08:02Z</time>
      </trkpt>
      <trkpt lat="47.10332" lon="-1.80405">
        <ele>65</ele>
        <time>2022-08-20T11:08:04Z</time>
      </trkpt>
      <trkpt lat="47.1033" lon="-1.80388">
        <ele>66</ele>
        <time>2022-08-20T11:08:06Z</time>
      </trkpt>
      <trkpt lat="47.10327" lon="-1.80372">
        <ele>66</ele>
        <time>2022-08-20T11:08:08Z</time>
      </trkpt>
      <trkpt lat="47.10323" lon="-1.80357">
        <ele>66</ele>
        <time>2022-08-20T11:08:10Z</time>
      </trkpt>
      <trkpt lat="47.10321" lon="-1.80341">
        <ele>66</ele>
        <time>2022-08-20T11:08:12Z</time>
      </trkpt>
      <trkpt lat="47.10323" lon="-1.80324">
        <ele>66</ele>
        <time>2022-08-20T11:08:14Z</time>
      </trkpt>
      <trkpt lat="47.10323" lon="-1.80307">
        <ele>65</ele>
        <time>2022-08-20T11:08:16Z</time>
      </trkpt>
      <trkpt lat="47.10323" lon="-1.80289">
        <ele>65</ele>
        <time>2022-08-20T11:08:18Z</time>
      </trkpt>
      <trkpt lat="47.10323" lon="-1.80271">
        <ele>66</ele>
        <time>2022-08-20T11:08:20Z</time>
      </trkpt>
      <trkpt lat="47.10323" lon="-1.80254">
        <ele>66</ele>
        <time>2022-08-20T11:08:22Z</time>
      </trkpt>
      <trkpt lat="47.10322" lon="-1.80236">
        <ele>66</ele>
        <time>2022-08-20T11:08:24Z</time>
      </trkpt>
      <trkpt lat="47.10321" lon="-1.80218">
        <ele>66</ele>
        <time>2022-08-20T11:08:26Z</time>
      </trkpt>
      <trkpt lat="47.10321" lon="-1.802">
        <ele>66</ele>
        <time>2022-08-20T11:08:28Z</time>
      </trkpt>
      <trkpt lat="47.1032" lon="-1.80181">
        <ele>66</ele>
        <time>2022-08-20T11:08:30Z</time>
      </trkpt>
      <trkpt lat="47.10319" lon="-1.80163">
        <ele>66</ele>
        <time>2022-08-20T11:08:32Z</time>
      </trkpt>
      <trkpt lat="47.10318" lon="-1.80146">
        <ele>67</ele>
        <time>2022-08-20T11:08:34Z</time>
      </trkpt>
      <trkpt lat="47.10316" lon="-1.80127">
        <ele>67</ele>
        <time>2022-08-20T11:08:36Z</time>
      </trkpt>
      <trkpt lat="47.10314" lon="-1.80109">
        <ele>67</ele>
        <time>2022-08-20T11:08:38Z</time>
      </trkpt>
      <trkpt lat="47.10312" lon="-1.80091">
        <ele>67</ele>
        <time>2022-08-20T11:08:40Z</time>
      </trkpt>
      <trkpt lat="47.1031" lon="-1.80072">
        <ele>66</ele>
        <time>2022-08-20T11:08:42Z</time>
      </trkpt>
      <trkpt lat="47.10311" lon="-1.80051">
        <ele>66</ele>
        <time>2022-08-20T11:08:44Z</time>
      </trkpt>
      <trkpt lat="47.10311" lon="-1.8003">
        <ele>66</ele>
        <time>2022-08-20T11:08:46Z</time>
      </trkpt>
      <trkpt lat="47.10312" lon="-1.8001">
        <ele>66</ele>
        <time>2022-08-20T11:08:48Z</time>
      </trkpt>
      <trkpt lat="47.10313" lon="-1.79989">
        <ele>66</ele>
        <time>2022-08-20T11:08:50Z</time>
      </trkpt>
      <trkpt lat="47.10316" lon="-1.79968">
        <ele>66</ele>
        <time>2022-08-20T11:08:52Z</time>
      </trkpt>
      <trkpt lat="47.10319" lon="-1.79947">
        <ele>65</ele>
        <time>2022-08-20T11:08:54Z</time>
      </trkpt>
      <trkpt lat="47.10323" lon="-1.79927">
        <ele>65</ele>
        <time>2022-08-20T11:08:56Z</time>
      </trkpt>
      <trkpt lat="47.10327" lon="-1.79907">
        <ele>65</ele>
        <time>2022-08-20T11:08:58Z</time>
      </trkpt>
      <trkpt lat="47.10331" lon="-1.79887">
        <ele>65</ele>
        <time>2022-08-20T11:09:00Z</time>
      </trkpt>
      <trkpt lat="47.10335" lon="-1.79867">
        <ele>65</ele>
        <time>2022-08-20T11:09:02Z</time>
      </trkpt>
      <trkpt lat="47.10339" lon="-1.79847">
        <ele>65</ele>
        <time>2022-08-20T11:09:04Z</time>
      </trkpt>
      <trkpt lat="47.10343" lon="-1.79828">
        <ele>64</ele>
        <time>2022-08-20T11:09:06Z</time>
      </trkpt>
      <trkpt lat="47.10347" lon="-1.79807">
        <ele>64</ele>
        <time>2022-08-20T11:09:08Z</time>
      </trkpt>
      <trkpt lat="47.1035" lon="-1.79787">
        <ele>64</ele>
        <time>2022-08-20T11:09:10Z</time>
      </trkpt>
      <trkpt lat="47.10354" lon="-1.79766">
        <ele>63</ele>
        <time>2022-08-20T11:09:12Z</time>
      </trkpt>
      <trkpt lat="47.10357" lon="-1.79746">
        <ele>63</ele>
        <time>2022-08-20T11:09:14Z</time>
      </trkpt>
      <trkpt lat="47.10361" lon="-1.79727">
        <ele>63</ele>
        <time>2022-08-20T11:09:16Z</time>
      </trkpt>
      <trkpt lat="47.10365" lon="-1.79707">
        <ele>63</ele>
        <time>2022-08-20T11:09:18Z</time>
      </trkpt>
      <trkpt lat="47.10369" lon="-1.79687">
        <ele>63</ele>
        <time>2022-08-20T11:09:20Z</time>
      </trkpt>
      <trkpt lat="47.10371" lon="-1.79667">
        <ele>63</ele>
        <time>2022-08-20T11:09:22Z</time>
      </trkpt>
      <trkpt lat="47.10373" lon="-1.79646">
        <ele>63</ele>
        <time>2022-08-20T11:09:24Z</time>
      </trkpt>
      <trkpt lat="47.10375" lon="-1.79625">
        <ele>62</ele>
        <time>2022-08-20T11:09:26Z</time>
      </trkpt>
      <trkpt lat="47.10377" lon="-1.79605">
        <ele>62</ele>
        <time>2022-08-20T11:09:28Z</time>
      </trkpt>
      <trkpt lat="47.10378" lon="-1.79584">
        <ele>62</ele>
        <time>2022-08-20T11:09:30Z</time>
      </trkpt>
      <trkpt lat="47.10379" lon="-1.79564">
        <ele>62</ele>
        <time>2022-08-20T11:09:32Z</time>
      </trkpt>
      <trkpt lat="47.10381" lon="-1.79544">
        <ele>62</ele>
        <time>2022-08-20T11:09:34Z</time>
      </trkpt>
      <trkpt lat="47.10382" lon="-1.79523">
        <ele>62</ele>
        <time>2022-08-20T11:09:36Z</time>
      </trkpt>
      <trkpt lat="47.10385" lon="-1.79503">
        <ele>62</ele>
        <time>2022-08-20T11:09:38Z</time>
      </trkpt>
      <trkpt lat="47.10388" lon="-1.79483">
        <ele>62</ele>
        <time>2022-08-20T11:09:40Z</time>
      </trkpt>
      <trkpt lat="47.10392" lon="-1.79463">
        <ele>61</ele>
        <time>2022-08-20T11:09:42Z</time>
      </trkpt>
      <trkpt lat="47.10397" lon="-1.79443">
        <ele>61</ele>
        <time>2022-08-20T11:09:44Z</time>
      </trkpt>
      <trkpt lat="47.10402" lon="-1.79423">
        <ele>61</ele>
        <time>2022-08-20T11:09:46Z</time>
      </trkpt>
      <trkpt lat="47.10408" lon="-1.79403">
        <ele>61</ele>
        <time>2022-08-20T11:09:48Z</time>
      </trkpt>
      <trkpt lat="47.10416" lon="-1.79382">
        <ele>60</ele>
        <time>2022-08-20T11:09:50Z</time>
      </trkpt>
      <trkpt lat="47.10423" lon="-1.79363">
        <ele>59</ele>
        <time>2022-08-20T11:09:52Z</time>
      </trkpt>
      <trkpt lat="47.10431" lon="-1.79342">
        <ele>59</ele>
        <time>2022-08-20T11:09:54Z</time>
      </trkpt>
      <trkpt lat="47.10439" lon="-1.79322">
        <ele>58</ele>
        <time>2022-08-20T11:09:56Z</time>
      </trkpt>
      <trkpt lat="47.10445" lon="-1.79302">
        <ele>58</ele>
        <time>2022-08-20T11:09:58Z</time>
      </trkpt>
      <trkpt lat="47.10445" lon="-1.7928">
        <ele>58</ele>
        <time>2022-08-20T11:10:00Z</time>
      </trkpt>
      <trkpt lat="47.10435" lon="-1.79265">
        <ele>58</ele>
        <time>2022-08-20T11:10:02Z</time>
      </trkpt>
      <trkpt lat="47.10424" lon="-1.79251">
        <ele>58</ele>
        <time>2022-08-20T11:10:04Z</time>
      </trkpt>
      <trkpt lat="47.10414" lon="-1.79238">
        <ele>59</ele>
        <time>2022-08-20T11:10:06Z</time>
      </trkpt>
      <trkpt lat="47.10404" lon="-1.79227">
        <ele>60</ele>
        <time>2022-08-20T11:10:08Z</time>
      </trkpt>
      <trkpt lat="47.10393" lon="-1.79214">
        <ele>60</ele>
        <time>2022-08-20T11:10:10Z</time>
      </trkpt>
      <trkpt lat="47.10384" lon="-1.79201">
        <ele>61</ele>
        <time>2022-08-20T11:10:12Z</time>
      </trkpt>
      <trkpt lat="47.10375" lon="-1.79189">
        <ele>62</ele>
        <time>2022-08-20T11:10:14Z</time>
      </trkpt>
      <trkpt lat="47.10365" lon="-1.79175">
        <ele>63</ele>
        <time>2022-08-20T11:10:16Z</time>
      </trkpt>
      <trkpt lat="47.10356" lon="-1.79163">
        <ele>63</ele>
        <time>2022-08-20T11:10:18Z</time>
      </trkpt>
      <trkpt lat="47.10347" lon="-1.79152">
        <ele>63</ele>
        <time>2022-08-20T11:10:20Z</time>
      </trkpt>
      <trkpt lat="47.10341" lon="-1.7914">
        <ele>63</ele>
        <time>2022-08-20T11:10:22Z</time>
      </trkpt>
      <trkpt lat="47.10333" lon="-1.79127">
        <ele>63</ele>
        <time>2022-08-20T11:10:25Z</time>
      </trkpt>
      <trkpt lat="47.10334" lon="-1.79111">
        <ele>63</ele>
        <time>2022-08-20T11:10:27Z</time>
      </trkpt>
      <trkpt lat="47.1033" lon="-1.79095">
        <ele>63</ele>
        <time>2022-08-20T11:10:29Z</time>
      </trkpt>
      <trkpt lat="47.10319" lon="-1.79081">
        <ele>63</ele>
        <time>2022-08-20T11:10:31Z</time>
      </trkpt>
      <trkpt lat="47.10308" lon="-1.79068">
        <ele>63</ele>
        <time>2022-08-20T11:10:33Z</time>
      </trkpt>
      <trkpt lat="47.10298" lon="-1.79055">
        <ele>64</ele>
        <time>2022-08-20T11:10:35Z</time>
      </trkpt>
      <trkpt lat="47.10287" lon="-1.79041">
        <ele>65</ele>
        <time>2022-08-20T11:10:37Z</time>
      </trkpt>
      <trkpt lat="47.10277" lon="-1.79027">
        <ele>65</ele>
        <time>2022-08-20T11:10:39Z</time>
      </trkpt>
      <trkpt lat="47.10267" lon="-1.79014">
        <ele>65</ele>
        <time>2022-08-20T11:10:41Z</time>
      </trkpt>
      <trkpt lat="47.10258" lon="-1.79001">
        <ele>65</ele>
        <time>2022-08-20T11:10:43Z</time>
      </trkpt>
      <trkpt lat="47.10249" lon="-1.78986">
        <ele>65</ele>
        <time>2022-08-20T11:10:45Z</time>
      </trkpt>
      <trkpt lat="47.10243" lon="-1.78969">
        <ele>65</ele>
        <time>2022-08-20T11:10:47Z</time>
      </trkpt>
      <trkpt lat="47.1024" lon="-1.7895">
        <ele>65</ele>
        <time>2022-08-20T11:10:49Z</time>
      </trkpt>
      <trkpt lat="47.1024" lon="-1.7893">
        <ele>65</ele>
        <time>2022-08-20T11:10:51Z</time>
      </trkpt>
      <trkpt lat="47.10242" lon="-1.7891">
        <ele>65</ele>
        <time>2022-08-20T11:10:53Z</time>
      </trkpt>
      <trkpt lat="47.10247" lon="-1.78892">
        <ele>65</ele>
        <time>2022-08-20T11:10:55Z</time>
      </trkpt>
      <trkpt lat="47.10254" lon="-1.78875">
        <ele>66</ele>
        <time>2022-08-20T11:10:57Z</time>
      </trkpt>
      <trkpt lat="47.10261" lon="-1.78858">
        <ele>66</ele>
        <time>2022-08-20T11:10:59Z</time>
      </trkpt>
      <trkpt lat="47.10268" lon="-1.78842">
        <ele>66</ele>
        <time>2022-08-20T11:11:01Z</time>
      </trkpt>
      <trkpt lat="47.10274" lon="-1.78825">
        <ele>65</ele>
        <time>2022-08-20T11:11:03Z</time>
      </trkpt>
      <trkpt lat="47.10281" lon="-1.78808">
        <ele>65</ele>
        <time>2022-08-20T11:11:05Z</time>
      </trkpt>
      <trkpt lat="47.10288" lon="-1.78788">
        <ele>64</ele>
        <time>2022-08-20T11:11:07Z</time>
      </trkpt>
      <trkpt lat="47.10294" lon="-1.78768">
        <ele>64</ele>
        <time>2022-08-20T11:11:09Z</time>
      </trkpt>
      <trkpt lat="47.10299" lon="-1.78746">
        <ele>64</ele>
        <time>2022-08-20T11:11:11Z</time>
      </trkpt>
      <trkpt lat="47.10302" lon="-1.78721">
        <ele>62</ele>
        <time>2022-08-20T11:11:13Z</time>
      </trkpt>
      <trkpt lat="47.10304" lon="-1.78695">
        <ele>60</ele>
        <time>2022-08-20T11:11:15Z</time>
      </trkpt>
      <trkpt lat="47.10304" lon="-1.78682">
        <ele>59</ele>
        <time>2022-08-20T11:11:16Z</time>
      </trkpt>
      <trkpt lat="47.10304" lon="-1.78668">
        <ele>58</ele>
        <time>2022-08-20T11:11:17Z</time>
      </trkpt>
      <trkpt lat="47.10305" lon="-1.78654">
        <ele>57</ele>
        <time>2022-08-20T11:11:18Z</time>
      </trkpt>
      <trkpt lat="47.10306" lon="-1.7864">
        <ele>57</ele>
        <time>2022-08-20T11:11:19Z</time>
      </trkpt>
      <trkpt lat="47.10307" lon="-1.78626">
        <ele>56</ele>
        <time>2022-08-20T11:11:20Z</time>
      </trkpt>
      <trkpt lat="47.10307" lon="-1.78613">
        <ele>55</ele>
        <time>2022-08-20T11:11:21Z</time>
      </trkpt>
      <trkpt lat="47.10308" lon="-1.78599">
        <ele>54</ele>
        <time>2022-08-20T11:11:22Z</time>
      </trkpt>
      <trkpt lat="47.10308" lon="-1.78586">
        <ele>54</ele>
        <time>2022-08-20T11:11:23Z</time>
      </trkpt>
      <trkpt lat="47.10309" lon="-1.78573">
        <ele>54</ele>
        <time>2022-08-20T11:11:24Z</time>
      </trkpt>
      <trkpt lat="47.1031" lon="-1.78547">
        <ele>53</ele>
        <time>2022-08-20T11:11:26Z</time>
      </trkpt>
      <trkpt lat="47.10311" lon="-1.78523">
        <ele>53</ele>
        <time>2022-08-20T11:11:28Z</time>
      </trkpt>
      <trkpt lat="47.10312" lon="-1.785">
        <ele>53</ele>
        <time>2022-08-20T11:11:30Z</time>
      </trkpt>
      <trkpt lat="47.10315" lon="-1.78479">
        <ele>53</ele>
        <time>2022-08-20T11:11:32Z</time>
      </trkpt>
      <trkpt lat="47.10318" lon="-1.78458">
        <ele>53</ele>
        <time>2022-08-20T11:11:34Z</time>
      </trkpt>
      <trkpt lat="47.10321" lon="-1.78438">
        <ele>53</ele>
        <time>2022-08-20T11:11:36Z</time>
      </trkpt>
      <trkpt lat="47.10324" lon="-1.78419">
        <ele>53</ele>
        <time>2022-08-20T11:11:38Z</time>
      </trkpt>
      <trkpt lat="47.10327" lon="-1.78402">
        <ele>54</ele>
        <time>2022-08-20T11:11:40Z</time>
      </trkpt>
      <trkpt lat="47.10329" lon="-1.78386">
        <ele>54</ele>
        <time>2022-08-20T11:11:42Z</time>
      </trkpt>
      <trkpt lat="47.10332" lon="-1.7837">
        <ele>55</ele>
        <time>2022-08-20T11:11:44Z</time>
      </trkpt>
      <trkpt lat="47.10335" lon="-1.78355">
        <ele>56</ele>
        <time>2022-08-20T11:11:46Z</time>
      </trkpt>
      <trkpt lat="47.10337" lon="-1.78339">
        <ele>58</ele>
        <time>2022-08-20T11:11:48Z</time>
      </trkpt>
      <trkpt lat="47.10338" lon="-1.78323">
        <ele>58</ele>
        <time>2022-08-20T11:11:50Z</time>
      </trkpt>
      <trkpt lat="47.10339" lon="-1.78308">
        <ele>59</ele>
        <time>2022-08-20T11:11:52Z</time>
      </trkpt>
      <trkpt lat="47.10338" lon="-1.78292">
        <ele>59</ele>
        <time>2022-08-20T11:11:54Z</time>
      </trkpt>
      <trkpt lat="47.10337" lon="-1.78277">
        <ele>60</ele>
        <time>2022-08-20T11:11:56Z</time>
      </trkpt>
      <trkpt lat="47.10336" lon="-1.78262">
        <ele>61</ele>
        <time>2022-08-20T11:11:58Z</time>
      </trkpt>
      <trkpt lat="47.10335" lon="-1.78245">
        <ele>62</ele>
        <time>2022-08-20T11:12:00Z</time>
      </trkpt>
      <trkpt lat="47.10335" lon="-1.78227">
        <ele>63</ele>
        <time>2022-08-20T11:12:02Z</time>
      </trkpt>
      <trkpt lat="47.10336" lon="-1.7821">
        <ele>63</ele>
        <time>2022-08-20T11:12:04Z</time>
      </trkpt>
      <trkpt lat="47.10339" lon="-1.78187">
        <ele>63</ele>
        <time>2022-08-20T11:12:07Z</time>
      </trkpt>
      <trkpt lat="47.10341" lon="-1.78171">
        <ele>63</ele>
        <time>2022-08-20T11:12:09Z</time>
      </trkpt>
      <trkpt lat="47.10342" lon="-1.78156">
        <ele>63</ele>
        <time>2022-08-20T11:12:11Z</time>
      </trkpt>
      <trkpt lat="47.10344" lon="-1.78139">
        <ele>62</ele>
        <time>2022-08-20T11:12:13Z</time>
      </trkpt>
      <trkpt lat="47.10346" lon="-1.78123">
        <ele>62</ele>
        <time>2022-08-20T11:12:15Z</time>
      </trkpt>
      <trkpt lat="47.10348" lon="-1.78097">
        <ele>61</ele>
        <time>2022-08-20T11:12:18Z</time>
      </trkpt>
      <trkpt lat="47.10349" lon="-1.78079">
        <ele>60</ele>
        <time>2022-08-20T11:12:20Z</time>
      </trkpt>
      <trkpt lat="47.10351" lon="-1.78061">
        <ele>60</ele>
        <time>2022-08-20T11:12:22Z</time>
      </trkpt>
      <trkpt lat="47.10353" lon="-1.78043">
        <ele>60</ele>
        <time>2022-08-20T11:12:24Z</time>
      </trkpt>
      <trkpt lat="47.10357" lon="-1.78024">
        <ele>60</ele>
        <time>2022-08-20T11:12:26Z</time>
      </trkpt>
      <trkpt lat="47.10365" lon="-1.77994">
        <ele>58</ele>
        <time>2022-08-20T11:12:29Z</time>
      </trkpt>
      <trkpt lat="47.10371" lon="-1.77975">
        <ele>58</ele>
        <time>2022-08-20T11:12:31Z</time>
      </trkpt>
      <trkpt lat="47.10377" lon="-1.77955">
        <ele>57</ele>
        <time>2022-08-20T11:12:33Z</time>
      </trkpt>
      <trkpt lat="47.10383" lon="-1.77934">
        <ele>56</ele>
        <time>2022-08-20T11:12:35Z</time>
      </trkpt>
      <trkpt lat="47.10388" lon="-1.77914">
        <ele>56</ele>
        <time>2022-08-20T11:12:37Z</time>
      </trkpt>
      <trkpt lat="47.10392" lon="-1.77893">
        <ele>56</ele>
        <time>2022-08-20T11:12:39Z</time>
      </trkpt>
      <trkpt lat="47.10395" lon="-1.77872">
        <ele>56</ele>
        <time>2022-08-20T11:12:41Z</time>
      </trkpt>
      <trkpt lat="47.10398" lon="-1.7785">
        <ele>56</ele>
        <time>2022-08-20T11:12:43Z</time>
      </trkpt>
      <trkpt lat="47.10399" lon="-1.77828">
        <ele>55</ele>
        <time>2022-08-20T11:12:45Z</time>
      </trkpt>
      <trkpt lat="47.104" lon="-1.77806">
        <ele>55</ele>
        <time>2022-08-20T11:12:47Z</time>
      </trkpt>
      <trkpt lat="47.104" lon="-1.77783">
        <ele>55</ele>
        <time>2022-08-20T11:12:49Z</time>
      </trkpt>
      <trkpt lat="47.104" lon="-1.77761">
        <ele>55</ele>
        <time>2022-08-20T11:12:51Z</time>
      </trkpt>
      <trkpt lat="47.10399" lon="-1.77738">
        <ele>54</ele>
        <time>2022-08-20T11:12:53Z</time>
      </trkpt>
      <trkpt lat="47.10399" lon="-1.77716">
        <ele>53</ele>
        <time>2022-08-20T11:12:55Z</time>
      </trkpt>
      <trkpt lat="47.10398" lon="-1.77693">
        <ele>53</ele>
        <time>2022-08-20T11:12:57Z</time>
      </trkpt>
      <trkpt lat="47.10397" lon="-1.77671">
        <ele>53</ele>
        <time>2022-08-20T11:12:59Z</time>
      </trkpt>
      <trkpt lat="47.10396" lon="-1.77649">
        <ele>52</ele>
        <time>2022-08-20T11:13:01Z</time>
      </trkpt>
      <trkpt lat="47.10394" lon="-1.77627">
        <ele>52</ele>
        <time>2022-08-20T11:13:03Z</time>
      </trkpt>
      <trkpt lat="47.10393" lon="-1.77605">
        <ele>53</ele>
        <time>2022-08-20T11:13:05Z</time>
      </trkpt>
      <trkpt lat="47.10391" lon="-1.77584">
        <ele>53</ele>
        <time>2022-08-20T11:13:07Z</time>
      </trkpt>
      <trkpt lat="47.1039" lon="-1.77563">
        <ele>53</ele>
        <time>2022-08-20T11:13:09Z</time>
      </trkpt>
      <trkpt lat="47.10388" lon="-1.77541">
        <ele>53</ele>
        <time>2022-08-20T11:13:11Z</time>
      </trkpt>
      <trkpt lat="47.10387" lon="-1.77521">
        <ele>53</ele>
        <time>2022-08-20T11:13:13Z</time>
      </trkpt>
      <trkpt lat="47.10385" lon="-1.775">
        <ele>53</ele>
        <time>2022-08-20T11:13:15Z</time>
      </trkpt>
      <trkpt lat="47.10383" lon="-1.77481">
        <ele>54</ele>
        <time>2022-08-20T11:13:17Z</time>
      </trkpt>
      <trkpt lat="47.10381" lon="-1.77463">
        <ele>54</ele>
        <time>2022-08-20T11:13:19Z</time>
      </trkpt>
      <trkpt lat="47.10382" lon="-1.77446">
        <ele>54</ele>
        <time>2022-08-20T11:13:21Z</time>
      </trkpt>
      <trkpt lat="47.1039" lon="-1.77434">
        <ele>54</ele>
        <time>2022-08-20T11:13:23Z</time>
      </trkpt>
      <trkpt lat="47.104" lon="-1.77426">
        <ele>54</ele>
        <time>2022-08-20T11:13:25Z</time>
      </trkpt>
      <trkpt lat="47.1041" lon="-1.77414">
        <ele>54</ele>
        <time>2022-08-20T11:13:27Z</time>
      </trkpt>
      <trkpt lat="47.10418" lon="-1.774">
        <ele>53</ele>
        <time>2022-08-20T11:13:29Z</time>
      </trkpt>
      <trkpt lat="47.10423" lon="-1.77383">
        <ele>53</ele>
        <time>2022-08-20T11:13:31Z</time>
      </trkpt>
      <trkpt lat="47.10426" lon="-1.77364">
        <ele>53</ele>
        <time>2022-08-20T11:13:33Z</time>
      </trkpt>
      <trkpt lat="47.10429" lon="-1.77343">
        <ele>52</ele>
        <time>2022-08-20T11:13:35Z</time>
      </trkpt>
      <trkpt lat="47.10432" lon="-1.77323">
        <ele>52</ele>
        <time>2022-08-20T11:13:37Z</time>
      </trkpt>
      <trkpt lat="47.10435" lon="-1.77302">
        <ele>52</ele>
        <time>2022-08-20T11:13:39Z</time>
      </trkpt>
      <trkpt lat="47.10439" lon="-1.77282">
        <ele>52</ele>
        <time>2022-08-20T11:13:41Z</time>
      </trkpt>
      <trkpt lat="47.10442" lon="-1.77261">
        <ele>52</ele>
        <time>2022-08-20T11:13:43Z</time>
      </trkpt>
      <trkpt lat="47.10444" lon="-1.77241">
        <ele>52</ele>
        <time>2022-08-20T11:13:45Z</time>
      </trkpt>
      <trkpt lat="47.10448" lon="-1.77221">
        <ele>52</ele>
        <time>2022-08-20T11:13:47Z</time>
      </trkpt>
      <trkpt lat="47.10452" lon="-1.77202">
        <ele>52</ele>
        <time>2022-08-20T11:13:49Z</time>
      </trkpt>
      <trkpt lat="47.10458" lon="-1.77184">
        <ele>51</ele>
        <time>2022-08-20T11:13:51Z</time>
      </trkpt>
      <trkpt lat="47.10465" lon="-1.77165">
        <ele>51</ele>
        <time>2022-08-20T11:13:53Z</time>
      </trkpt>
      <trkpt lat="47.10473" lon="-1.77147">
        <ele>51</ele>
        <time>2022-08-20T11:13:55Z</time>
      </trkpt>
      <trkpt lat="47.10481" lon="-1.7713">
        <ele>51</ele>
        <time>2022-08-20T11:13:57Z</time>
      </trkpt>
      <trkpt lat="47.10489" lon="-1.77112">
        <ele>51</ele>
        <time>2022-08-20T11:13:59Z</time>
      </trkpt>
      <trkpt lat="47.10497" lon="-1.77094">
        <ele>51</ele>
        <time>2022-08-20T11:14:01Z</time>
      </trkpt>
      <trkpt lat="47.10505" lon="-1.77076">
        <ele>51</ele>
        <time>2022-08-20T11:14:03Z</time>
      </trkpt>
      <trkpt lat="47.10513" lon="-1.77058">
        <ele>51</ele>
        <time>2022-08-20T11:14:05Z</time>
      </trkpt>
      <trkpt lat="47.10521" lon="-1.7704">
        <ele>51</ele>
        <time>2022-08-20T11:14:07Z</time>
      </trkpt>
      <trkpt lat="47.10529" lon="-1.77021">
        <ele>52</ele>
        <time>2022-08-20T11:14:09Z</time>
      </trkpt>
      <trkpt lat="47.10538" lon="-1.77002">
        <ele>52</ele>
        <time>2022-08-20T11:14:11Z</time>
      </trkpt>
      <trkpt lat="47.10546" lon="-1.76984">
        <ele>52</ele>
        <time>2022-08-20T11:14:13Z</time>
      </trkpt>
      <trkpt lat="47.10554" lon="-1.76965">
        <ele>51</ele>
        <time>2022-08-20T11:14:15Z</time>
      </trkpt>
      <trkpt lat="47.10564" lon="-1.76948">
        <ele>51</ele>
        <time>2022-08-20T11:14:17Z</time>
      </trkpt>
      <trkpt lat="47.10574" lon="-1.76931">
        <ele>52</ele>
        <time>2022-08-20T11:14:19Z</time>
      </trkpt>
      <trkpt lat="47.10585" lon="-1.76917">
        <ele>51</ele>
        <time>2022-08-20T11:14:21Z</time>
      </trkpt>
      <trkpt lat="47.10597" lon="-1.76905">
        <ele>52</ele>
        <time>2022-08-20T11:14:23Z</time>
      </trkpt>
      <trkpt lat="47.10609" lon="-1.76894">
        <ele>51</ele>
        <time>2022-08-20T11:14:25Z</time>
      </trkpt>
      <trkpt lat="47.10621" lon="-1.76882">
        <ele>52</ele>
        <time>2022-08-20T11:14:27Z</time>
      </trkpt>
      <trkpt lat="47.10632" lon="-1.76869">
        <ele>52</ele>
        <time>2022-08-20T11:14:29Z</time>
      </trkpt>
      <trkpt lat="47.10643" lon="-1.76854">
        <ele>52</ele>
        <time>2022-08-20T11:14:31Z</time>
      </trkpt>
      <trkpt lat="47.10652" lon="-1.76839">
        <ele>52</ele>
        <time>2022-08-20T11:14:33Z</time>
      </trkpt>
      <trkpt lat="47.1066" lon="-1.76821">
        <ele>53</ele>
        <time>2022-08-20T11:14:35Z</time>
      </trkpt>
      <trkpt lat="47.10666" lon="-1.76803">
        <ele>53</ele>
        <time>2022-08-20T11:14:37Z</time>
      </trkpt>
      <trkpt lat="47.10672" lon="-1.76785">
        <ele>53</ele>
        <time>2022-08-20T11:14:39Z</time>
      </trkpt>
      <trkpt lat="47.10677" lon="-1.76768">
        <ele>53</ele>
        <time>2022-08-20T11:14:41Z</time>
      </trkpt>
      <trkpt lat="47.10682" lon="-1.76751">
        <ele>53</ele>
        <time>2022-08-20T11:14:43Z</time>
      </trkpt>
      <trkpt lat="47.10687" lon="-1.76734">
        <ele>53</ele>
        <time>2022-08-20T11:14:45Z</time>
      </trkpt>
      <trkpt lat="47.10693" lon="-1.76717">
        <ele>54</ele>
        <time>2022-08-20T11:14:47Z</time>
      </trkpt>
      <trkpt lat="47.10699" lon="-1.76701">
        <ele>54</ele>
        <time>2022-08-20T11:14:49Z</time>
      </trkpt>
      <trkpt lat="47.10704" lon="-1.76685">
        <ele>54</ele>
        <time>2022-08-20T11:14:51Z</time>
      </trkpt>
      <trkpt lat="47.1071" lon="-1.76669">
        <ele>53</ele>
        <time>2022-08-20T11:14:53Z</time>
      </trkpt>
      <trkpt lat="47.10716" lon="-1.76655">
        <ele>53</ele>
        <time>2022-08-20T11:14:55Z</time>
      </trkpt>
      <trkpt lat="47.10721" lon="-1.76641">
        <ele>53</ele>
        <time>2022-08-20T11:14:57Z</time>
      </trkpt>
      <trkpt lat="47.10726" lon="-1.76627">
        <ele>54</ele>
        <time>2022-08-20T11:14:59Z</time>
      </trkpt>
      <trkpt lat="47.10731" lon="-1.76613">
        <ele>54</ele>
        <time>2022-08-20T11:15:01Z</time>
      </trkpt>
      <trkpt lat="47.10736" lon="-1.76599">
        <ele>54</ele>
        <time>2022-08-20T11:15:03Z</time>
      </trkpt>
      <trkpt lat="47.10741" lon="-1.76585">
        <ele>54</ele>
        <time>2022-08-20T11:15:05Z</time>
      </trkpt>
      <trkpt lat="47.10746" lon="-1.7657">
        <ele>54</ele>
        <time>2022-08-20T11:15:07Z</time>
      </trkpt>
      <trkpt lat="47.1075" lon="-1.76555">
        <ele>55</ele>
        <time>2022-08-20T11:15:09Z</time>
      </trkpt>
      <trkpt lat="47.10754" lon="-1.76539">
        <ele>55</ele>
        <time>2022-08-20T11:15:11Z</time>
      </trkpt>
      <trkpt lat="47.10757" lon="-1.76523">
        <ele>55</ele>
        <time>2022-08-20T11:15:13Z</time>
      </trkpt>
      <trkpt lat="47.10759" lon="-1.76508">
        <ele>55</ele>
        <time>2022-08-20T11:15:15Z</time>
      </trkpt>
      <trkpt lat="47.10761" lon="-1.76492">
        <ele>55</ele>
        <time>2022-08-20T11:15:17Z</time>
      </trkpt>
      <trkpt lat="47.10763" lon="-1.76475">
        <ele>55</ele>
        <time>2022-08-20T11:15:19Z</time>
      </trkpt>
      <trkpt lat="47.10767" lon="-1.76459">
        <ele>55</ele>
        <time>2022-08-20T11:15:21Z</time>
      </trkpt>
      <trkpt lat="47.10769" lon="-1.76442">
        <ele>55</ele>
        <time>2022-08-20T11:15:23Z</time>
      </trkpt>
      <trkpt lat="47.10772" lon="-1.76426">
        <ele>55</ele>
        <time>2022-08-20T11:15:25Z</time>
      </trkpt>
      <trkpt lat="47.10775" lon="-1.7641">
        <ele>55</ele>
        <time>2022-08-20T11:15:27Z</time>
      </trkpt>
      <trkpt lat="47.10778" lon="-1.76393">
        <ele>55</ele>
        <time>2022-08-20T11:15:29Z</time>
      </trkpt>
      <trkpt lat="47.10782" lon="-1.76375">
        <ele>55</ele>
        <time>2022-08-20T11:15:31Z</time>
      </trkpt>
      <trkpt lat="47.10785" lon="-1.76358">
        <ele>56</ele>
        <time>2022-08-20T11:15:33Z</time>
      </trkpt>
      <trkpt lat="47.10788" lon="-1.7634">
        <ele>56</ele>
        <time>2022-08-20T11:15:35Z</time>
      </trkpt>
      <trkpt lat="47.10792" lon="-1.76324">
        <ele>56</ele>
        <time>2022-08-20T11:15:37Z</time>
      </trkpt>
      <trkpt lat="47.10796" lon="-1.76307">
        <ele>55</ele>
        <time>2022-08-20T11:15:39Z</time>
      </trkpt>
      <trkpt lat="47.10799" lon="-1.7629">
        <ele>55</ele>
        <time>2022-08-20T11:15:41Z</time>
      </trkpt>
      <trkpt lat="47.10803" lon="-1.76273">
        <ele>55</ele>
        <time>2022-08-20T11:15:43Z</time>
      </trkpt>
      <trkpt lat="47.10806" lon="-1.76255">
        <ele>56</ele>
        <time>2022-08-20T11:15:45Z</time>
      </trkpt>
      <trkpt lat="47.10809" lon="-1.76238">
        <ele>56</ele>
        <time>2022-08-20T11:15:47Z</time>
      </trkpt>
      <trkpt lat="47.10812" lon="-1.76221">
        <ele>56</ele>
        <time>2022-08-20T11:15:49Z</time>
      </trkpt>
      <trkpt lat="47.10816" lon="-1.76204">
        <ele>56</ele>
        <time>2022-08-20T11:15:51Z</time>
      </trkpt>
      <trkpt lat="47.1082" lon="-1.76188">
        <ele>56</ele>
        <time>2022-08-20T11:15:53Z</time>
      </trkpt>
      <trkpt lat="47.10823" lon="-1.76171">
        <ele>56</ele>
        <time>2022-08-20T11:15:55Z</time>
      </trkpt>
      <trkpt lat="47.10827" lon="-1.76154">
        <ele>56</ele>
        <time>2022-08-20T11:15:57Z</time>
      </trkpt>
      <trkpt lat="47.10829" lon="-1.76136">
        <ele>56</ele>
        <time>2022-08-20T11:15:59Z</time>
      </trkpt>
      <trkpt lat="47.10832" lon="-1.76117">
        <ele>55</ele>
        <time>2022-08-20T11:16:01Z</time>
      </trkpt>
      <trkpt lat="47.10835" lon="-1.76099">
        <ele>55</ele>
        <time>2022-08-20T11:16:03Z</time>
      </trkpt>
      <trkpt lat="47.10838" lon="-1.76079">
        <ele>55</ele>
        <time>2022-08-20T11:16:05Z</time>
      </trkpt>
      <trkpt lat="47.10841" lon="-1.7606">
        <ele>55</ele>
        <time>2022-08-20T11:16:07Z</time>
      </trkpt>
      <trkpt lat="47.10844" lon="-1.76041">
        <ele>55</ele>
        <time>2022-08-20T11:16:09Z</time>
      </trkpt>
      <trkpt lat="47.10847" lon="-1.76021">
        <ele>54</ele>
        <time>2022-08-20T11:16:11Z</time>
      </trkpt>
      <trkpt lat="47.10849" lon="-1.76">
        <ele>54</ele>
        <time>2022-08-20T11:16:13Z</time>
      </trkpt>
      <trkpt lat="47.10852" lon="-1.75979">
        <ele>54</ele>
        <time>2022-08-20T11:16:15Z</time>
      </trkpt>
      <trkpt lat="47.10856" lon="-1.75959">
        <ele>54</ele>
        <time>2022-08-20T11:16:17Z</time>
      </trkpt>
      <trkpt lat="47.10861" lon="-1.75939">
        <ele>54</ele>
        <time>2022-08-20T11:16:19Z</time>
      </trkpt>
      <trkpt lat="47.10867" lon="-1.7592">
        <ele>55</ele>
        <time>2022-08-20T11:16:21Z</time>
      </trkpt>
      <trkpt lat="47.10873" lon="-1.75902">
        <ele>55</ele>
        <time>2022-08-20T11:16:23Z</time>
      </trkpt>
      <trkpt lat="47.10881" lon="-1.75885">
        <ele>56</ele>
        <time>2022-08-20T11:16:25Z</time>
      </trkpt>
      <trkpt lat="47.1089" lon="-1.75871">
        <ele>56</ele>
        <time>2022-08-20T11:16:27Z</time>
      </trkpt>
      <trkpt lat="47.10901" lon="-1.75861">
        <ele>57</ele>
        <time>2022-08-20T11:16:29Z</time>
      </trkpt>
      <trkpt lat="47.10915" lon="-1.75855">
        <ele>57</ele>
        <time>2022-08-20T11:16:31Z</time>
      </trkpt>
      <trkpt lat="47.10929" lon="-1.75852">
        <ele>57</ele>
        <time>2022-08-20T11:16:33Z</time>
      </trkpt>
      <trkpt lat="47.10943" lon="-1.7585">
        <ele>57</ele>
        <time>2022-08-20T11:16:35Z</time>
      </trkpt>
      <trkpt lat="47.10956" lon="-1.75848">
        <ele>57</ele>
        <time>2022-08-20T11:16:37Z</time>
      </trkpt>
      <trkpt lat="47.10971" lon="-1.75846">
        <ele>56</ele>
        <time>2022-08-20T11:16:39Z</time>
      </trkpt>
      <trkpt lat="47.10985" lon="-1.75842">
        <ele>56</ele>
        <time>2022-08-20T11:16:41Z</time>
      </trkpt>
      <trkpt lat="47.10998" lon="-1.75835">
        <ele>56</ele>
        <time>2022-08-20T11:16:43Z</time>
      </trkpt>
      <trkpt lat="47.1101" lon="-1.75826">
        <ele>55</ele>
        <time>2022-08-20T11:16:45Z</time>
      </trkpt>
      <trkpt lat="47.11021" lon="-1.75814">
        <ele>55</ele>
        <time>2022-08-20T11:16:47Z</time>
      </trkpt>
      <trkpt lat="47.11031" lon="-1.75801">
        <ele>54</ele>
        <time>2022-08-20T11:16:49Z</time>
      </trkpt>
      <trkpt lat="47.11041" lon="-1.75788">
        <ele>55</ele>
        <time>2022-08-20T11:16:51Z</time>
      </trkpt>
      <trkpt lat="47.11051" lon="-1.75774">
        <ele>54</ele>
        <time>2022-08-20T11:16:53Z</time>
      </trkpt>
      <trkpt lat="47.11062" lon="-1.7576">
        <ele>54</ele>
        <time>2022-08-20T11:16:55Z</time>
      </trkpt>
      <trkpt lat="47.11072" lon="-1.75746">
        <ele>54</ele>
        <time>2022-08-20T11:16:57Z</time>
      </trkpt>
      <trkpt lat="47.11082" lon="-1.75731">
        <ele>54</ele>
        <time>2022-08-20T11:16:59Z</time>
      </trkpt>
      <trkpt lat="47.11091" lon="-1.75714">
        <ele>54</ele>
        <time>2022-08-20T11:17:01Z</time>
      </trkpt>
      <trkpt lat="47.11097" lon="-1.75695">
        <ele>53</ele>
        <time>2022-08-20T11:17:03Z</time>
      </trkpt>
      <trkpt lat="47.11102" lon="-1.75675">
        <ele>53</ele>
        <time>2022-08-20T11:17:05Z</time>
      </trkpt>
      <trkpt lat="47.11106" lon="-1.75654">
        <ele>53</ele>
        <time>2022-08-20T11:17:07Z</time>
      </trkpt>
      <trkpt lat="47.11112" lon="-1.75632">
        <ele>52</ele>
        <time>2022-08-20T11:17:09Z</time>
      </trkpt>
      <trkpt lat="47.11117" lon="-1.75611">
        <ele>51</ele>
        <time>2022-08-20T11:17:11Z</time>
      </trkpt>
      <trkpt lat="47.11123" lon="-1.7559">
        <ele>51</ele>
        <time>2022-08-20T11:17:13Z</time>
      </trkpt>
      <trkpt lat="47.1113" lon="-1.7557">
        <ele>50</ele>
        <time>2022-08-20T11:17:15Z</time>
      </trkpt>
      <trkpt lat="47.11138" lon="-1.75552">
        <ele>50</ele>
        <time>2022-08-20T11:17:17Z</time>
      </trkpt>
      <trkpt lat="47.11149" lon="-1.75538">
        <ele>50</ele>
        <time>2022-08-20T11:17:19Z</time>
      </trkpt>
      <trkpt lat="47.11163" lon="-1.75529">
        <ele>50</ele>
        <time>2022-08-20T11:17:21Z</time>
      </trkpt>
      <trkpt lat="47.11177" lon="-1.75524">
        <ele>51</ele>
        <time>2022-08-20T11:17:23Z</time>
      </trkpt>
      <trkpt lat="47.1119" lon="-1.75517">
        <ele>51</ele>
        <time>2022-08-20T11:17:25Z</time>
      </trkpt>
      <trkpt lat="47.11203" lon="-1.75507">
        <ele>51</ele>
        <time>2022-08-20T11:17:27Z</time>
      </trkpt>
      <trkpt lat="47.11214" lon="-1.75495">
        <ele>52</ele>
        <time>2022-08-20T11:17:29Z</time>
      </trkpt>
      <trkpt lat="47.11224" lon="-1.7548">
        <ele>51</ele>
        <time>2022-08-20T11:17:31Z</time>
      </trkpt>
      <trkpt lat="47.11232" lon="-1.75464">
        <ele>52</ele>
        <time>2022-08-20T11:17:33Z</time>
      </trkpt>
      <trkpt lat="47.1124" lon="-1.75447">
        <ele>52</ele>
        <time>2022-08-20T11:17:35Z</time>
      </trkpt>
      <trkpt lat="47.11249" lon="-1.7543">
        <ele>53</ele>
        <time>2022-08-20T11:17:37Z</time>
      </trkpt>
      <trkpt lat="47.11258" lon="-1.75413">
        <ele>53</ele>
        <time>2022-08-20T11:17:39Z</time>
      </trkpt>
      <trkpt lat="47.11266" lon="-1.75396">
        <ele>54</ele>
        <time>2022-08-20T11:17:41Z</time>
      </trkpt>
      <trkpt lat="47.11274" lon="-1.75379">
        <ele>55</ele>
        <time>2022-08-20T11:17:43Z</time>
      </trkpt>
      <trkpt lat="47.11282" lon="-1.75364">
        <ele>56</ele>
        <time>2022-08-20T11:17:45Z</time>
      </trkpt>
      <trkpt lat="47.11289" lon="-1.75348">
        <ele>56</ele>
        <time>2022-08-20T11:17:47Z</time>
      </trkpt>
      <trkpt lat="47.11297" lon="-1.75333">
        <ele>56</ele>
        <time>2022-08-20T11:17:49Z</time>
      </trkpt>
      <trkpt lat="47.11302" lon="-1.75316">
        <ele>57</ele>
        <time>2022-08-20T11:17:51Z</time>
      </trkpt>
      <trkpt lat="47.11309" lon="-1.75299">
        <ele>57</ele>
        <time>2022-08-20T11:17:53Z</time>
      </trkpt>
      <trkpt lat="47.11312" lon="-1.75281">
        <ele>57</ele>
        <time>2022-08-20T11:17:55Z</time>
      </trkpt>
      <trkpt lat="47.11316" lon="-1.75263">
        <ele>57</ele>
        <time>2022-08-20T11:17:57Z</time>
      </trkpt>
      <trkpt lat="47.11319" lon="-1.75245">
        <ele>57</ele>
        <time>2022-08-20T11:17:59Z</time>
      </trkpt>
      <trkpt lat="47.11321" lon="-1.75226">
        <ele>56</ele>
        <time>2022-08-20T11:18:01Z</time>
      </trkpt>
      <trkpt lat="47.11325" lon="-1.75207">
        <ele>56</ele>
        <time>2022-08-20T11:18:03Z</time>
      </trkpt>
      <trkpt lat="47.11328" lon="-1.75189">
        <ele>56</ele>
        <time>2022-08-20T11:18:05Z</time>
      </trkpt>
      <trkpt lat="47.11332" lon="-1.75171">
        <ele>55</ele>
        <time>2022-08-20T11:18:07Z</time>
      </trkpt>
      <trkpt lat="47.11336" lon="-1.75153">
        <ele>55</ele>
        <time>2022-08-20T11:18:09Z</time>
      </trkpt>
      <trkpt lat="47.1134" lon="-1.75135">
        <ele>55</ele>
        <time>2022-08-20T11:18:11Z</time>
      </trkpt>
      <trkpt lat="47.11345" lon="-1.75117">
        <ele>55</ele>
        <time>2022-08-20T11:18:13Z</time>
      </trkpt>
      <trkpt lat="47.1135" lon="-1.751">
        <ele>55</ele>
        <time>2022-08-20T11:18:15Z</time>
      </trkpt>
      <trkpt lat="47.11356" lon="-1.75082">
        <ele>54</ele>
        <time>2022-08-20T11:18:17Z</time>
      </trkpt>
      <trkpt lat="47.11361" lon="-1.75064">
        <ele>54</ele>
        <time>2022-08-20T11:18:19Z</time>
      </trkpt>
      <trkpt lat="47.11366" lon="-1.75046">
        <ele>54</ele>
        <time>2022-08-20T11:18:21Z</time>
      </trkpt>
      <trkpt lat="47.1137" lon="-1.75026">
        <ele>54</ele>
        <time>2022-08-20T11:18:23Z</time>
      </trkpt>
      <trkpt lat="47.11372" lon="-1.75005">
        <ele>54</ele>
        <time>2022-08-20T11:18:25Z</time>
      </trkpt>
      <trkpt lat="47.11372" lon="-1.74984">
        <ele>53</ele>
        <time>2022-08-20T11:18:27Z</time>
      </trkpt>
      <trkpt lat="47.1137" lon="-1.74963">
        <ele>52</ele>
        <time>2022-08-20T11:18:29Z</time>
      </trkpt>
      <trkpt lat="47.11367" lon="-1.74942">
        <ele>52</ele>
        <time>2022-08-20T11:18:31Z</time>
      </trkpt>
      <trkpt lat="47.11365" lon="-1.74921">
        <ele>51</ele>
        <time>2022-08-20T11:18:33Z</time>
      </trkpt>
      <trkpt lat="47.11362" lon="-1.74899">
        <ele>51</ele>
        <time>2022-08-20T11:18:35Z</time>
      </trkpt>
      <trkpt lat="47.11361" lon="-1.74878">
        <ele>51</ele>
        <time>2022-08-20T11:18:37Z</time>
      </trkpt>
      <trkpt lat="47.1136" lon="-1.74857">
        <ele>51</ele>
        <time>2022-08-20T11:18:39Z</time>
      </trkpt>
      <trkpt lat="47.1136" lon="-1.74836">
        <ele>50</ele>
        <time>2022-08-20T11:18:41Z</time>
      </trkpt>
      <trkpt lat="47.11362" lon="-1.74816">
        <ele>51</ele>
        <time>2022-08-20T11:18:43Z</time>
      </trkpt>
      <trkpt lat="47.11365" lon="-1.74796">
        <ele>51</ele>
        <time>2022-08-20T11:18:45Z</time>
      </trkpt>
      <trkpt lat="47.1137" lon="-1.74776">
        <ele>51</ele>
        <time>2022-08-20T11:18:47Z</time>
      </trkpt>
      <trkpt lat="47.11373" lon="-1.74756">
        <ele>51</ele>
        <time>2022-08-20T11:18:49Z</time>
      </trkpt>
      <trkpt lat="47.11376" lon="-1.74735">
        <ele>51</ele>
        <time>2022-08-20T11:18:51Z</time>
      </trkpt>
      <trkpt lat="47.11379" lon="-1.74714">
        <ele>50</ele>
        <time>2022-08-20T11:18:53Z</time>
      </trkpt>
      <trkpt lat="47.1138" lon="-1.74694">
        <ele>51</ele>
        <time>2022-08-20T11:18:55Z</time>
      </trkpt>
      <trkpt lat="47.1138" lon="-1.74673">
        <ele>51</ele>
        <time>2022-08-20T11:18:57Z</time>
      </trkpt>
      <trkpt lat="47.1138" lon="-1.74652">
        <ele>52</ele>
        <time>2022-08-20T11:18:59Z</time>
      </trkpt>
      <trkpt lat="47.11381" lon="-1.74632">
        <ele>52</ele>
        <time>2022-08-20T11:19:01Z</time>
      </trkpt>
      <trkpt lat="47.11382" lon="-1.74612">
        <ele>52</ele>
        <time>2022-08-20T11:19:03Z</time>
      </trkpt>
      <trkpt lat="47.11383" lon="-1.74593">
        <ele>52</ele>
        <time>2022-08-20T11:19:05Z</time>
      </trkpt>
      <trkpt lat="47.11384" lon="-1.74573">
        <ele>52</ele>
        <time>2022-08-20T11:19:07Z</time>
      </trkpt>
      <trkpt lat="47.11386" lon="-1.74553">
        <ele>52</ele>
        <time>2022-08-20T11:19:09Z</time>
      </trkpt>
      <trkpt lat="47.1139" lon="-1.74533">
        <ele>53</ele>
        <time>2022-08-20T11:19:11Z</time>
      </trkpt>
      <trkpt lat="47.11394" lon="-1.74515">
        <ele>52</ele>
        <time>2022-08-20T11:19:13Z</time>
      </trkpt>
      <trkpt lat="47.11399" lon="-1.74496">
        <ele>52</ele>
        <time>2022-08-20T11:19:15Z</time>
      </trkpt>
      <trkpt lat="47.11403" lon="-1.74477">
        <ele>52</ele>
        <time>2022-08-20T11:19:17Z</time>
      </trkpt>
      <trkpt lat="47.11407" lon="-1.74458">
        <ele>51</ele>
        <time>2022-08-20T11:19:19Z</time>
      </trkpt>
      <trkpt lat="47.1141" lon="-1.74438">
        <ele>51</ele>
        <time>2022-08-20T11:19:21Z</time>
      </trkpt>
      <trkpt lat="47.11413" lon="-1.74419">
        <ele>51</ele>
        <time>2022-08-20T11:19:23Z</time>
      </trkpt>
      <trkpt lat="47.11416" lon="-1.74399">
        <ele>51</ele>
        <time>2022-08-20T11:19:25Z</time>
      </trkpt>
      <trkpt lat="47.1142" lon="-1.7438">
        <ele>51</ele>
        <time>2022-08-20T11:19:27Z</time>
      </trkpt>
      <trkpt lat="47.11426" lon="-1.74362">
        <ele>52</ele>
        <time>2022-08-20T11:19:29Z</time>
      </trkpt>
      <trkpt lat="47.11432" lon="-1.74345">
        <ele>51</ele>
        <time>2022-08-20T11:19:31Z</time>
      </trkpt>
      <trkpt lat="47.11436" lon="-1.74328">
        <ele>51</ele>
        <time>2022-08-20T11:19:33Z</time>
      </trkpt>
      <trkpt lat="47.11437" lon="-1.7431">
        <ele>51</ele>
        <time>2022-08-20T11:19:35Z</time>
      </trkpt>
      <trkpt lat="47.11434" lon="-1.74292">
        <ele>50</ele>
        <time>2022-08-20T11:19:37Z</time>
      </trkpt>
      <trkpt lat="47.11432" lon="-1.74272">
        <ele>50</ele>
        <time>2022-08-20T11:19:39Z</time>
      </trkpt>
      <trkpt lat="47.11429" lon="-1.74251">
        <ele>50</ele>
        <time>2022-08-20T11:19:41Z</time>
      </trkpt>
      <trkpt lat="47.11429" lon="-1.74232">
        <ele>50</ele>
        <time>2022-08-20T11:19:43Z</time>
      </trkpt>
      <trkpt lat="47.1143" lon="-1.74215">
        <ele>50</ele>
        <time>2022-08-20T11:19:45Z</time>
      </trkpt>
      <trkpt lat="47.11432" lon="-1.74196">
        <ele>50</ele>
        <time>2022-08-20T11:19:47Z</time>
      </trkpt>
      <trkpt lat="47.11435" lon="-1.74175">
        <ele>49</ele>
        <time>2022-08-20T11:19:49Z</time>
      </trkpt>
      <trkpt lat="47.11438" lon="-1.74155">
        <ele>49</ele>
        <time>2022-08-20T11:19:51Z</time>
      </trkpt>
      <trkpt lat="47.11442" lon="-1.74135">
        <ele>50</ele>
        <time>2022-08-20T11:19:53Z</time>
      </trkpt>
      <trkpt lat="47.11448" lon="-1.74117">
        <ele>50</ele>
        <time>2022-08-20T11:19:55Z</time>
      </trkpt>
      <trkpt lat="47.11457" lon="-1.741">
        <ele>50</ele>
        <time>2022-08-20T11:19:57Z</time>
      </trkpt>
      <trkpt lat="47.11466" lon="-1.74085">
        <ele>49</ele>
        <time>2022-08-20T11:19:59Z</time>
      </trkpt>
      <trkpt lat="47.11477" lon="-1.7407">
        <ele>49</ele>
        <time>2022-08-20T11:20:01Z</time>
      </trkpt>
      <trkpt lat="47.11487" lon="-1.74056">
        <ele>48</ele>
        <time>2022-08-20T11:20:03Z</time>
      </trkpt>
      <trkpt lat="47.11496" lon="-1.74042">
        <ele>47</ele>
        <time>2022-08-20T11:20:05Z</time>
      </trkpt>
      <trkpt lat="47.11504" lon="-1.74028">
        <ele>48</ele>
        <time>2022-08-20T11:20:07Z</time>
      </trkpt>
      <trkpt lat="47.11508" lon="-1.74014">
        <ele>48</ele>
        <time>2022-08-20T11:20:09Z</time>
      </trkpt>
      <trkpt lat="47.11506" lon="-1.74001">
        <ele>48</ele>
        <time>2022-08-20T11:20:11Z</time>
      </trkpt>
      <trkpt lat="47.11495" lon="-1.73995">
        <ele>50</ele>
        <time>2022-08-20T11:20:13Z</time>
      </trkpt>
      <trkpt lat="47.11485" lon="-1.73991">
        <ele>51</ele>
        <time>2022-08-20T11:20:15Z</time>
      </trkpt>
      <trkpt lat="47.11474" lon="-1.73986">
        <ele>52</ele>
        <time>2022-08-20T11:20:17Z</time>
      </trkpt>
      <trkpt lat="47.11464" lon="-1.73979">
        <ele>53</ele>
        <time>2022-08-20T11:20:19Z</time>
      </trkpt>
      <trkpt lat="47.11455" lon="-1.73968">
        <ele>54</ele>
        <time>2022-08-20T11:20:21Z</time>
      </trkpt>
      <trkpt lat="47.11447" lon="-1.73956">
        <ele>54</ele>
        <time>2022-08-20T11:20:23Z</time>
      </trkpt>
      <trkpt lat="47.1144" lon="-1.73941">
        <ele>55</ele>
        <time>2022-08-20T11:20:25Z</time>
      </trkpt>
      <trkpt lat="47.11435" lon="-1.73925">
        <ele>55</ele>
        <time>2022-08-20T11:20:27Z</time>
      </trkpt>
      <trkpt lat="47.1143" lon="-1.7391">
        <ele>55</ele>
        <time>2022-08-20T11:20:29Z</time>
      </trkpt>
      <trkpt lat="47.11426" lon="-1.73896">
        <ele>55</ele>
        <time>2022-08-20T11:20:31Z</time>
      </trkpt>
      <trkpt lat="47.11422" lon="-1.73881">
        <ele>54</ele>
        <time>2022-08-20T11:20:33Z</time>
      </trkpt>
      <trkpt lat="47.11416" lon="-1.73866">
        <ele>54</ele>
        <time>2022-08-20T11:20:35Z</time>
      </trkpt>
      <trkpt lat="47.1141" lon="-1.73851">
        <ele>53</ele>
        <time>2022-08-20T11:20:37Z</time>
      </trkpt>
      <trkpt lat="47.11405" lon="-1.73835">
        <ele>53</ele>
        <time>2022-08-20T11:20:39Z</time>
      </trkpt>
      <trkpt lat="47.114" lon="-1.73819">
        <ele>53</ele>
        <time>2022-08-20T11:20:41Z</time>
      </trkpt>
      <trkpt lat="47.11395" lon="-1.73803">
        <ele>54</ele>
        <time>2022-08-20T11:20:43Z</time>
      </trkpt>
      <trkpt lat="47.1139" lon="-1.73787">
        <ele>53</ele>
        <time>2022-08-20T11:20:45Z</time>
      </trkpt>
      <trkpt lat="47.11385" lon="-1.73772">
        <ele>53</ele>
        <time>2022-08-20T11:20:47Z</time>
      </trkpt>
      <trkpt lat="47.1138" lon="-1.73756">
        <ele>54</ele>
        <time>2022-08-20T11:20:49Z</time>
      </trkpt>
      <trkpt lat="47.11374" lon="-1.7374">
        <ele>54</ele>
        <time>2022-08-20T11:20:51Z</time>
      </trkpt>
      <trkpt lat="47.11369" lon="-1.73725">
        <ele>54</ele>
        <time>2022-08-20T11:20:53Z</time>
      </trkpt>
      <trkpt lat="47.11362" lon="-1.73711">
        <ele>55</ele>
        <time>2022-08-20T11:20:55Z</time>
      </trkpt>
      <trkpt lat="47.11355" lon="-1.73698">
        <ele>55</ele>
        <time>2022-08-20T11:20:57Z</time>
      </trkpt>
      <trkpt lat="47.11348" lon="-1.73683">
        <ele>55</ele>
        <time>2022-08-20T11:20:59Z</time>
      </trkpt>
      <trkpt lat="47.11342" lon="-1.7367">
        <ele>56</ele>
        <time>2022-08-20T11:21:01Z</time>
      </trkpt>
      <trkpt lat="47.11334" lon="-1.73656">
        <ele>56</ele>
        <time>2022-08-20T11:21:03Z</time>
      </trkpt>
      <trkpt lat="47.11327" lon="-1.73642">
        <ele>56</ele>
        <time>2022-08-20T11:21:05Z</time>
      </trkpt>
      <trkpt lat="47.1132" lon="-1.73628">
        <ele>56</ele>
        <time>2022-08-20T11:21:07Z</time>
      </trkpt>
      <trkpt lat="47.11313" lon="-1.73613">
        <ele>57</ele>
        <time>2022-08-20T11:21:09Z</time>
      </trkpt>
      <trkpt lat="47.11306" lon="-1.73599">
        <ele>57</ele>
        <time>2022-08-20T11:21:11Z</time>
      </trkpt>
      <trkpt lat="47.113" lon="-1.73586">
        <ele>57</ele>
        <time>2022-08-20T11:21:13Z</time>
      </trkpt>
      <trkpt lat="47.11293" lon="-1.73572">
        <ele>57</ele>
        <time>2022-08-20T11:21:15Z</time>
      </trkpt>
      <trkpt lat="47.11287" lon="-1.73561">
        <ele>57</ele>
        <time>2022-08-20T11:21:17Z</time>
      </trkpt>
      <trkpt lat="47.11279" lon="-1.73554">
        <ele>57</ele>
        <time>2022-08-20T11:21:19Z</time>
      </trkpt>
      <trkpt lat="47.11272" lon="-1.73543">
        <ele>58</ele>
        <time>2022-08-20T11:21:21Z</time>
      </trkpt>
      <trkpt lat="47.11269" lon="-1.73526">
        <ele>58</ele>
        <time>2022-08-20T11:21:23Z</time>
      </trkpt>
      <trkpt lat="47.11268" lon="-1.73511">
        <ele>57</ele>
        <time>2022-08-20T11:21:25Z</time>
      </trkpt>
      <trkpt lat="47.11266" lon="-1.73493">
        <ele>57</ele>
        <time>2022-08-20T11:21:27Z</time>
      </trkpt>
      <trkpt lat="47.11266" lon="-1.73475">
        <ele>58</ele>
        <time>2022-08-20T11:21:29Z</time>
      </trkpt>
      <trkpt lat="47.11265" lon="-1.73458">
        <ele>58</ele>
        <time>2022-08-20T11:21:31Z</time>
      </trkpt>
      <trkpt lat="47.11263" lon="-1.73441">
        <ele>58</ele>
        <time>2022-08-20T11:21:33Z</time>
      </trkpt>
      <trkpt lat="47.11263" lon="-1.73424">
        <ele>59</ele>
        <time>2022-08-20T11:21:35Z</time>
      </trkpt>
      <trkpt lat="47.11261" lon="-1.73407">
        <ele>58</ele>
        <time>2022-08-20T11:21:37Z</time>
      </trkpt>
      <trkpt lat="47.1126" lon="-1.73392">
        <ele>57</ele>
        <time>2022-08-20T11:21:39Z</time>
      </trkpt>
      <trkpt lat="47.11259" lon="-1.73377">
        <ele>56</ele>
        <time>2022-08-20T11:21:41Z</time>
      </trkpt>
      <trkpt lat="47.11258" lon="-1.73362">
        <ele>56</ele>
        <time>2022-08-20T11:21:43Z</time>
      </trkpt>
      <trkpt lat="47.11257" lon="-1.73346">
        <ele>56</ele>
        <time>2022-08-20T11:21:45Z</time>
      </trkpt>
      <trkpt lat="47.11257" lon="-1.73331">
        <ele>56</ele>
        <time>2022-08-20T11:21:47Z</time>
      </trkpt>
      <trkpt lat="47.11255" lon="-1.73316">
        <ele>57</ele>
        <time>2022-08-20T11:21:49Z</time>
      </trkpt>
      <trkpt lat="47.11253" lon="-1.73299">
        <ele>57</ele>
        <time>2022-08-20T11:21:51Z</time>
      </trkpt>
      <trkpt lat="47.11251" lon="-1.73282">
        <ele>57</ele>
        <time>2022-08-20T11:21:53Z</time>
      </trkpt>
      <trkpt lat="47.11248" lon="-1.73266">
        <ele>57</ele>
        <time>2022-08-20T11:21:55Z</time>
      </trkpt>
      <trkpt lat="47.11245" lon="-1.73251">
        <ele>58</ele>
        <time>2022-08-20T11:21:57Z</time>
      </trkpt>
      <trkpt lat="47.11241" lon="-1.73235">
        <ele>58</ele>
        <time>2022-08-20T11:21:59Z</time>
      </trkpt>
      <trkpt lat="47.11238" lon="-1.73218">
        <ele>58</ele>
        <time>2022-08-20T11:22:01Z</time>
      </trkpt>
      <trkpt lat="47.11234" lon="-1.73202">
        <ele>59</ele>
        <time>2022-08-20T11:22:03Z</time>
      </trkpt>
      <trkpt lat="47.1123" lon="-1.73185">
        <ele>59</ele>
        <time>2022-08-20T11:22:05Z</time>
      </trkpt>
      <trkpt lat="47.11226" lon="-1.73167">
        <ele>59</ele>
        <time>2022-08-20T11:22:07Z</time>
      </trkpt>
      <trkpt lat="47.11222" lon="-1.73151">
        <ele>60</ele>
        <time>2022-08-20T11:22:09Z</time>
      </trkpt>
      <trkpt lat="47.11219" lon="-1.73135">
        <ele>60</ele>
        <time>2022-08-20T11:22:11Z</time>
      </trkpt>
      <trkpt lat="47.11215" lon="-1.73119">
        <ele>60</ele>
        <time>2022-08-20T11:22:13Z</time>
      </trkpt>
      <trkpt lat="47.11211" lon="-1.73103">
        <ele>60</ele>
        <time>2022-08-20T11:22:15Z</time>
      </trkpt>
      <trkpt lat="47.11207" lon="-1.73086">
        <ele>60</ele>
        <time>2022-08-20T11:22:17Z</time>
      </trkpt>
      <trkpt lat="47.11203" lon="-1.7307">
        <ele>60</ele>
        <time>2022-08-20T11:22:19Z</time>
      </trkpt>
      <trkpt lat="47.112" lon="-1.73054">
        <ele>60</ele>
        <time>2022-08-20T11:22:21Z</time>
      </trkpt>
      <trkpt lat="47.11196" lon="-1.73038">
        <ele>60</ele>
        <time>2022-08-20T11:22:23Z</time>
      </trkpt>
      <trkpt lat="47.11191" lon="-1.7302">
        <ele>60</ele>
        <time>2022-08-20T11:22:25Z</time>
      </trkpt>
      <trkpt lat="47.11188" lon="-1.73003">
        <ele>59</ele>
        <time>2022-08-20T11:22:27Z</time>
      </trkpt>
      <trkpt lat="47.11184" lon="-1.72986">
        <ele>59</ele>
        <time>2022-08-20T11:22:29Z</time>
      </trkpt>
      <trkpt lat="47.1118" lon="-1.72969">
        <ele>58</ele>
        <time>2022-08-20T11:22:31Z</time>
      </trkpt>
      <trkpt lat="47.11176" lon="-1.72952">
        <ele>58</ele>
        <time>2022-08-20T11:22:33Z</time>
      </trkpt>
      <trkpt lat="47.11172" lon="-1.72935">
        <ele>58</ele>
        <time>2022-08-20T11:22:35Z</time>
      </trkpt>
      <trkpt lat="47.11168" lon="-1.72917">
        <ele>57</ele>
        <time>2022-08-20T11:22:37Z</time>
      </trkpt>
      <trkpt lat="47.11163" lon="-1.729">
        <ele>58</ele>
        <time>2022-08-20T11:22:39Z</time>
      </trkpt>
      <trkpt lat="47.11159" lon="-1.72883">
        <ele>58</ele>
        <time>2022-08-20T11:22:41Z</time>
      </trkpt>
      <trkpt lat="47.11155" lon="-1.72866">
        <ele>57</ele>
        <time>2022-08-20T11:22:43Z</time>
      </trkpt>
      <trkpt lat="47.11151" lon="-1.72849">
        <ele>57</ele>
        <time>2022-08-20T11:22:45Z</time>
      </trkpt>
      <trkpt lat="47.11146" lon="-1.72831">
        <ele>56</ele>
        <time>2022-08-20T11:22:47Z</time>
      </trkpt>
      <trkpt lat="47.11142" lon="-1.72815">
        <ele>57</ele>
        <time>2022-08-20T11:22:49Z</time>
      </trkpt>
      <trkpt lat="47.11138" lon="-1.72798">
        <ele>57</ele>
        <time>2022-08-20T11:22:51Z</time>
      </trkpt>
      <trkpt lat="47.11134" lon="-1.7278">
        <ele>57</ele>
        <time>2022-08-20T11:22:53Z</time>
      </trkpt>
      <trkpt lat="47.1113" lon="-1.72764">
        <ele>57</ele>
        <time>2022-08-20T11:22:55Z</time>
      </trkpt>
      <trkpt lat="47.11126" lon="-1.72747">
        <ele>57</ele>
        <time>2022-08-20T11:22:57Z</time>
      </trkpt>
      <trkpt lat="47.11122" lon="-1.72729">
        <ele>57</ele>
        <time>2022-08-20T11:22:59Z</time>
      </trkpt>
      <trkpt lat="47.11117" lon="-1.72712">
        <ele>57</ele>
        <time>2022-08-20T11:23:01Z</time>
      </trkpt>
      <trkpt lat="47.11114" lon="-1.72694">
        <ele>57</ele>
        <time>2022-08-20T11:23:03Z</time>
      </trkpt>
      <trkpt lat="47.1111" lon="-1.72677">
        <ele>57</ele>
        <time>2022-08-20T11:23:05Z</time>
      </trkpt>
      <trkpt lat="47.11106" lon="-1.72659">
        <ele>57</ele>
        <time>2022-08-20T11:23:07Z</time>
      </trkpt>
      <trkpt lat="47.11102" lon="-1.72642">
        <ele>57</ele>
        <time>2022-08-20T11:23:09Z</time>
      </trkpt>
      <trkpt lat="47.11098" lon="-1.72624">
        <ele>58</ele>
        <time>2022-08-20T11:23:11Z</time>
      </trkpt>
      <trkpt lat="47.11094" lon="-1.72607">
        <ele>58</ele>
        <time>2022-08-20T11:23:13Z</time>
      </trkpt>
      <trkpt lat="47.11091" lon="-1.72589">
        <ele>59</ele>
        <time>2022-08-20T11:23:15Z</time>
      </trkpt>
      <trkpt lat="47.11087" lon="-1.72572">
        <ele>59</ele>
        <time>2022-08-20T11:23:17Z</time>
      </trkpt>
      <trkpt lat="47.11084" lon="-1.72554">
        <ele>59</ele>
        <time>2022-08-20T11:23:19Z</time>
      </trkpt>
      <trkpt lat="47.11084" lon="-1.72536">
        <ele>59</ele>
        <time>2022-08-20T11:23:21Z</time>
      </trkpt>
      <trkpt lat="47.11084" lon="-1.72518">
        <ele>59</ele>
        <time>2022-08-20T11:23:23Z</time>
      </trkpt>
      <trkpt lat="47.11087" lon="-1.72499">
        <ele>58</ele>
        <time>2022-08-20T11:23:25Z</time>
      </trkpt>
      <trkpt lat="47.1109" lon="-1.7248">
        <ele>57</ele>
        <time>2022-08-20T11:23:27Z</time>
      </trkpt>
      <trkpt lat="47.11095" lon="-1.72461">
        <ele>57</ele>
        <time>2022-08-20T11:23:29Z</time>
      </trkpt>
      <trkpt lat="47.11099" lon="-1.72441">
        <ele>56</ele>
        <time>2022-08-20T11:23:31Z</time>
      </trkpt>
      <trkpt lat="47.11103" lon="-1.72422">
        <ele>55</ele>
        <time>2022-08-20T11:23:33Z</time>
      </trkpt>
      <trkpt lat="47.11108" lon="-1.72402">
        <ele>54</ele>
        <time>2022-08-20T11:23:35Z</time>
      </trkpt>
      <trkpt lat="47.11113" lon="-1.72383">
        <ele>54</ele>
        <time>2022-08-20T11:23:37Z</time>
      </trkpt>
      <trkpt lat="47.11117" lon="-1.72363">
        <ele>53</ele>
        <time>2022-08-20T11:23:39Z</time>
      </trkpt>
      <trkpt lat="47.11122" lon="-1.72344">
        <ele>53</ele>
        <time>2022-08-20T11:23:41Z</time>
      </trkpt>
      <trkpt lat="47.11127" lon="-1.72324">
        <ele>53</ele>
        <time>2022-08-20T11:23:43Z</time>
      </trkpt>
      <trkpt lat="47.11132" lon="-1.72306">
        <ele>54</ele>
        <time>2022-08-20T11:23:45Z</time>
      </trkpt>
      <trkpt lat="47.11137" lon="-1.72287">
        <ele>54</ele>
        <time>2022-08-20T11:23:47Z</time>
      </trkpt>
      <trkpt lat="47.11142" lon="-1.72268">
        <ele>54</ele>
        <time>2022-08-20T11:23:49Z</time>
      </trkpt>
      <trkpt lat="47.11146" lon="-1.72249">
        <ele>55</ele>
        <time>2022-08-20T11:23:51Z</time>
      </trkpt>
      <trkpt lat="47.11151" lon="-1.72231">
        <ele>55</ele>
        <time>2022-08-20T11:23:53Z</time>
      </trkpt>
      <trkpt lat="47.11155" lon="-1.72212">
        <ele>55</ele>
        <time>2022-08-20T11:23:55Z</time>
      </trkpt>
      <trkpt lat="47.1116" lon="-1.72193">
        <ele>56</ele>
        <time>2022-08-20T11:23:57Z</time>
      </trkpt>
      <trkpt lat="47.11164" lon="-1.72175">
        <ele>56</ele>
        <time>2022-08-20T11:23:59Z</time>
      </trkpt>
      <trkpt lat="47.11168" lon="-1.72156">
        <ele>56</ele>
        <time>2022-08-20T11:24:01Z</time>
      </trkpt>
      <trkpt lat="47.11173" lon="-1.72137">
        <ele>56</ele>
        <time>2022-08-20T11:24:03Z</time>
      </trkpt>
      <trkpt lat="47.11177" lon="-1.72118">
        <ele>56</ele>
        <time>2022-08-20T11:24:05Z</time>
      </trkpt>
      <trkpt lat="47.11182" lon="-1.72099">
        <ele>56</ele>
        <time>2022-08-20T11:24:07Z</time>
      </trkpt>
      <trkpt lat="47.11186" lon="-1.7208">
        <ele>56</ele>
        <time>2022-08-20T11:24:09Z</time>
      </trkpt>
      <trkpt lat="47.11191" lon="-1.72061">
        <ele>55</ele>
        <time>2022-08-20T11:24:11Z</time>
      </trkpt>
      <trkpt lat="47.11196" lon="-1.72042">
        <ele>55</ele>
        <time>2022-08-20T11:24:13Z</time>
      </trkpt>
      <trkpt lat="47.112" lon="-1.72022">
        <ele>55</ele>
        <time>2022-08-20T11:24:15Z</time>
      </trkpt>
      <trkpt lat="47.11205" lon="-1.72003">
        <ele>55</ele>
        <time>2022-08-20T11:24:17Z</time>
      </trkpt>
      <trkpt lat="47.11209" lon="-1.71984">
        <ele>54</ele>
        <time>2022-08-20T11:24:19Z</time>
      </trkpt>
      <trkpt lat="47.11214" lon="-1.71965">
        <ele>54</ele>
        <time>2022-08-20T11:24:21Z</time>
      </trkpt>
      <trkpt lat="47.11218" lon="-1.71945">
        <ele>53</ele>
        <time>2022-08-20T11:24:23Z</time>
      </trkpt>
      <trkpt lat="47.11223" lon="-1.71925">
        <ele>52</ele>
        <time>2022-08-20T11:24:25Z</time>
      </trkpt>
      <trkpt lat="47.11228" lon="-1.71904">
        <ele>51</ele>
        <time>2022-08-20T11:24:27Z</time>
      </trkpt>
      <trkpt lat="47.11233" lon="-1.71883">
        <ele>50</ele>
        <time>2022-08-20T11:24:29Z</time>
      </trkpt>
      <trkpt lat="47.11239" lon="-1.71863">
        <ele>50</ele>
        <time>2022-08-20T11:24:31Z</time>
      </trkpt>
      <trkpt lat="47.11245" lon="-1.71843">
        <ele>49</ele>
        <time>2022-08-20T11:24:33Z</time>
      </trkpt>
      <trkpt lat="47.11252" lon="-1.71823">
        <ele>49</ele>
        <time>2022-08-20T11:24:35Z</time>
      </trkpt>
      <trkpt lat="47.11259" lon="-1.71803">
        <ele>48</ele>
        <time>2022-08-20T11:24:37Z</time>
      </trkpt>
      <trkpt lat="47.11268" lon="-1.71784">
        <ele>47</ele>
        <time>2022-08-20T11:24:39Z</time>
      </trkpt>
      <trkpt lat="47.11277" lon="-1.71765">
        <ele>47</ele>
        <time>2022-08-20T11:24:41Z</time>
      </trkpt>
      <trkpt lat="47.11287" lon="-1.71746">
        <ele>46</ele>
        <time>2022-08-20T11:24:43Z</time>
      </trkpt>
      <trkpt lat="47.11296" lon="-1.71727">
        <ele>46</ele>
        <time>2022-08-20T11:24:45Z</time>
      </trkpt>
      <trkpt lat="47.11306" lon="-1.71709">
        <ele>46</ele>
        <time>2022-08-20T11:24:47Z</time>
      </trkpt>
      <trkpt lat="47.11315" lon="-1.71692">
        <ele>46</ele>
        <time>2022-08-20T11:24:49Z</time>
      </trkpt>
      <trkpt lat="47.11325" lon="-1.71674">
        <ele>46</ele>
        <time>2022-08-20T11:24:51Z</time>
      </trkpt>
      <trkpt lat="47.11334" lon="-1.71657">
        <ele>46</ele>
        <time>2022-08-20T11:24:53Z</time>
      </trkpt>
      <trkpt lat="47.11342" lon="-1.71641">
        <ele>46</ele>
        <time>2022-08-20T11:24:55Z</time>
      </trkpt>
      <trkpt lat="47.11351" lon="-1.71625">
        <ele>46</ele>
        <time>2022-08-20T11:24:57Z</time>
      </trkpt>
      <trkpt lat="47.11359" lon="-1.71608">
        <ele>46</ele>
        <time>2022-08-20T11:24:59Z</time>
      </trkpt>
      <trkpt lat="47.11368" lon="-1.71592">
        <ele>46</ele>
        <time>2022-08-20T11:25:01Z</time>
      </trkpt>
      <trkpt lat="47.11376" lon="-1.71575">
        <ele>46</ele>
        <time>2022-08-20T11:25:03Z</time>
      </trkpt>
      <trkpt lat="47.11384" lon="-1.71558">
        <ele>46</ele>
        <time>2022-08-20T11:25:05Z</time>
      </trkpt>
      <trkpt lat="47.11393" lon="-1.71542">
        <ele>46</ele>
        <time>2022-08-20T11:25:07Z</time>
      </trkpt>
      <trkpt lat="47.11401" lon="-1.71525">
        <ele>46</ele>
        <time>2022-08-20T11:25:09Z</time>
      </trkpt>
      <trkpt lat="47.1141" lon="-1.71509">
        <ele>46</ele>
        <time>2022-08-20T11:25:11Z</time>
      </trkpt>
      <trkpt lat="47.11418" lon="-1.71492">
        <ele>46</ele>
        <time>2022-08-20T11:25:13Z</time>
      </trkpt>
      <trkpt lat="47.11426" lon="-1.71477">
        <ele>46</ele>
        <time>2022-08-20T11:25:15Z</time>
      </trkpt>
      <trkpt lat="47.11435" lon="-1.71461">
        <ele>47</ele>
        <time>2022-08-20T11:25:17Z</time>
      </trkpt>
      <trkpt lat="47.11443" lon="-1.71445">
        <ele>47</ele>
        <time>2022-08-20T11:25:19Z</time>
      </trkpt>
      <trkpt lat="47.1145" lon="-1.71429">
        <ele>46</ele>
        <time>2022-08-20T11:25:21Z</time>
      </trkpt>
      <trkpt lat="47.11458" lon="-1.71413">
        <ele>47</ele>
        <time>2022-08-20T11:25:23Z</time>
      </trkpt>
      <trkpt lat="47.11466" lon="-1.71398">
        <ele>47</ele>
        <time>2022-08-20T11:25:25Z</time>
      </trkpt>
      <trkpt lat="47.11473" lon="-1.71382">
        <ele>47</ele>
        <time>2022-08-20T11:25:27Z</time>
      </trkpt>
      <trkpt lat="47.11481" lon="-1.71367">
        <ele>48</ele>
        <time>2022-08-20T11:25:29Z</time>
      </trkpt>
      <trkpt lat="47.11489" lon="-1.71351">
        <ele>47</ele>
        <time>2022-08-20T11:25:31Z</time>
      </trkpt>
      <trkpt lat="47.11496" lon="-1.71335">
        <ele>47</ele>
        <time>2022-08-20T11:25:33Z</time>
      </trkpt>
      <trkpt lat="47.11503" lon="-1.7132">
        <ele>47</ele>
        <time>2022-08-20T11:25:35Z</time>
      </trkpt>
      <trkpt lat="47.11511" lon="-1.71305">
        <ele>47</ele>
        <time>2022-08-20T11:25:37Z</time>
      </trkpt>
      <trkpt lat="47.11519" lon="-1.7129">
        <ele>47</ele>
        <time>2022-08-20T11:25:39Z</time>
      </trkpt>
      <trkpt lat="47.11526" lon="-1.71275">
        <ele>47</ele>
        <time>2022-08-20T11:25:41Z</time>
      </trkpt>
      <trkpt lat="47.11534" lon="-1.7126">
        <ele>48</ele>
        <time>2022-08-20T11:25:43Z</time>
      </trkpt>
      <trkpt lat="47.11542" lon="-1.71246">
        <ele>48</ele>
        <time>2022-08-20T11:25:45Z</time>
      </trkpt>
      <trkpt lat="47.11551" lon="-1.71231">
        <ele>48</ele>
        <time>2022-08-20T11:25:47Z</time>
      </trkpt>
      <trkpt lat="47.1156" lon="-1.71217">
        <ele>48</ele>
        <time>2022-08-20T11:25:49Z</time>
      </trkpt>
      <trkpt lat="47.11569" lon="-1.71204">
        <ele>48</ele>
        <time>2022-08-20T11:25:51Z</time>
      </trkpt>
      <trkpt lat="47.11579" lon="-1.71192">
        <ele>48</ele>
        <time>2022-08-20T11:25:53Z</time>
      </trkpt>
      <trkpt lat="47.11588" lon="-1.71179">
        <ele>48</ele>
        <time>2022-08-20T11:25:55Z</time>
      </trkpt>
      <trkpt lat="47.11597" lon="-1.71168">
        <ele>48</ele>
        <time>2022-08-20T11:25:57Z</time>
      </trkpt>
      <trkpt lat="47.11607" lon="-1.71157">
        <ele>48</ele>
        <time>2022-08-20T11:25:59Z</time>
      </trkpt>
      <trkpt lat="47.11618" lon="-1.71146">
        <ele>49</ele>
        <time>2022-08-20T11:26:01Z</time>
      </trkpt>
      <trkpt lat="47.11629" lon="-1.71135">
        <ele>48</ele>
        <time>2022-08-20T11:26:03Z</time>
      </trkpt>
      <trkpt lat="47.1164" lon="-1.71124">
        <ele>49</ele>
        <time>2022-08-20T11:26:05Z</time>
      </trkpt>
      <trkpt lat="47.11652" lon="-1.71115">
        <ele>49</ele>
        <time>2022-08-20T11:26:07Z</time>
      </trkpt>
      <trkpt lat="47.11663" lon="-1.71107">
        <ele>49</ele>
        <time>2022-08-20T11:26:09Z</time>
      </trkpt>
      <trkpt lat="47.11674" lon="-1.71099">
        <ele>49</ele>
        <time>2022-08-20T11:26:11Z</time>
      </trkpt>
      <trkpt lat="47.11685" lon="-1.71092">
        <ele>49</ele>
        <time>2022-08-20T11:26:13Z</time>
      </trkpt>
      <trkpt lat="47.11697" lon="-1.71084">
        <ele>49</ele>
        <time>2022-08-20T11:26:15Z</time>
      </trkpt>
      <trkpt lat="47.11708" lon="-1.71077">
        <ele>49</ele>
        <time>2022-08-20T11:26:17Z</time>
      </trkpt>
      <trkpt lat="47.11719" lon="-1.7107">
        <ele>49</ele>
        <time>2022-08-20T11:26:19Z</time>
      </trkpt>
      <trkpt lat="47.11731" lon="-1.71063">
        <ele>48</ele>
        <time>2022-08-20T11:26:21Z</time>
      </trkpt>
      <trkpt lat="47.11743" lon="-1.71055">
        <ele>48</ele>
        <time>2022-08-20T11:26:23Z</time>
      </trkpt>
      <trkpt lat="47.11755" lon="-1.71048">
        <ele>48</ele>
        <time>2022-08-20T11:26:25Z</time>
      </trkpt>
      <trkpt lat="47.11767" lon="-1.71039">
        <ele>47</ele>
        <time>2022-08-20T11:26:27Z</time>
      </trkpt>
      <trkpt lat="47.1178" lon="-1.71032">
        <ele>47</ele>
        <time>2022-08-20T11:26:29Z</time>
      </trkpt>
      <trkpt lat="47.11793" lon="-1.71023">
        <ele>47</ele>
        <time>2022-08-20T11:26:31Z</time>
      </trkpt>
      <trkpt lat="47.11812" lon="-1.7101">
        <ele>48</ele>
        <time>2022-08-20T11:26:34Z</time>
      </trkpt>
      <trkpt lat="47.11825" lon="-1.71001">
        <ele>48</ele>
        <time>2022-08-20T11:26:36Z</time>
      </trkpt>
      <trkpt lat="47.11837" lon="-1.70993">
        <ele>48</ele>
        <time>2022-08-20T11:26:38Z</time>
      </trkpt>
      <trkpt lat="47.1185" lon="-1.70984">
        <ele>48</ele>
        <time>2022-08-20T11:26:40Z</time>
      </trkpt>
      <trkpt lat="47.11862" lon="-1.70976">
        <ele>48</ele>
        <time>2022-08-20T11:26:42Z</time>
      </trkpt>
      <trkpt lat="47.11875" lon="-1.70967">
        <ele>48</ele>
        <time>2022-08-20T11:26:44Z</time>
      </trkpt>
      <trkpt lat="47.11887" lon="-1.7096">
        <ele>49</ele>
        <time>2022-08-20T11:26:46Z</time>
      </trkpt>
      <trkpt lat="47.11899" lon="-1.70952">
        <ele>49</ele>
        <time>2022-08-20T11:26:48Z</time>
      </trkpt>
      <trkpt lat="47.11911" lon="-1.70945">
        <ele>49</ele>
        <time>2022-08-20T11:26:50Z</time>
      </trkpt>
      <trkpt lat="47.11922" lon="-1.70937">
        <ele>49</ele>
        <time>2022-08-20T11:26:52Z</time>
      </trkpt>
      <trkpt lat="47.11934" lon="-1.70929">
        <ele>49</ele>
        <time>2022-08-20T11:26:54Z</time>
      </trkpt>
      <trkpt lat="47.11945" lon="-1.70922">
        <ele>49</ele>
        <time>2022-08-20T11:26:56Z</time>
      </trkpt>
      <trkpt lat="47.11955" lon="-1.70916">
        <ele>49</ele>
        <time>2022-08-20T11:26:58Z</time>
      </trkpt>
      <trkpt lat="47.11965" lon="-1.7091">
        <ele>49</ele>
        <time>2022-08-20T11:27:00Z</time>
      </trkpt>
      <trkpt lat="47.11976" lon="-1.70903">
        <ele>49</ele>
        <time>2022-08-20T11:27:02Z</time>
      </trkpt>
      <trkpt lat="47.11986" lon="-1.70896">
        <ele>49</ele>
        <time>2022-08-20T11:27:04Z</time>
      </trkpt>
      <trkpt lat="47.11996" lon="-1.70889">
        <ele>49</ele>
        <time>2022-08-20T11:27:06Z</time>
      </trkpt>
      <trkpt lat="47.12007" lon="-1.70882">
        <ele>50</ele>
        <time>2022-08-20T11:27:08Z</time>
      </trkpt>
      <trkpt lat="47.12018" lon="-1.70875">
        <ele>50</ele>
        <time>2022-08-20T11:27:10Z</time>
      </trkpt>
      <trkpt lat="47.12028" lon="-1.70869">
        <ele>50</ele>
        <time>2022-08-20T11:27:12Z</time>
      </trkpt>
      <trkpt lat="47.12039" lon="-1.70862">
        <ele>50</ele>
        <time>2022-08-20T11:27:14Z</time>
      </trkpt>
      <trkpt lat="47.1205" lon="-1.70855">
        <ele>50</ele>
        <time>2022-08-20T11:27:16Z</time>
      </trkpt>
      <trkpt lat="47.12061" lon="-1.70847">
        <ele>50</ele>
        <time>2022-08-20T11:27:18Z</time>
      </trkpt>
      <trkpt lat="47.12072" lon="-1.7084">
        <ele>50</ele>
        <time>2022-08-20T11:27:20Z</time>
      </trkpt>
      <trkpt lat="47.12083" lon="-1.70833">
        <ele>50</ele>
        <time>2022-08-20T11:27:22Z</time>
      </trkpt>
      <trkpt lat="47.12094" lon="-1.70826">
        <ele>50</ele>
        <time>2022-08-20T11:27:24Z</time>
      </trkpt>
      <trkpt lat="47.12106" lon="-1.70819">
        <ele>50</ele>
        <time>2022-08-20T11:27:26Z</time>
      </trkpt>
      <trkpt lat="47.12117" lon="-1.70811">
        <ele>49</ele>
        <time>2022-08-20T11:27:28Z</time>
      </trkpt>
      <trkpt lat="47.12128" lon="-1.70803">
        <ele>49</ele>
        <time>2022-08-20T11:27:30Z</time>
      </trkpt>
      <trkpt lat="47.1214" lon="-1.70795">
        <ele>49</ele>
        <time>2022-08-20T11:27:32Z</time>
      </trkpt>
      <trkpt lat="47.12152" lon="-1.70787">
        <ele>50</ele>
        <time>2022-08-20T11:27:34Z</time>
      </trkpt>
      <trkpt lat="47.12165" lon="-1.70778">
        <ele>49</ele>
        <time>2022-08-20T11:27:36Z</time>
      </trkpt>
      <trkpt lat="47.12178" lon="-1.7077">
        <ele>49</ele>
        <time>2022-08-20T11:27:38Z</time>
      </trkpt>
      <trkpt lat="47.12191" lon="-1.70761">
        <ele>49</ele>
        <time>2022-08-20T11:27:40Z</time>
      </trkpt>
      <trkpt lat="47.12203" lon="-1.70752">
        <ele>49</ele>
        <time>2022-08-20T11:27:42Z</time>
      </trkpt>
      <trkpt lat="47.12215" lon="-1.70741">
        <ele>48</ele>
        <time>2022-08-20T11:27:44Z</time>
      </trkpt>
      <trkpt lat="47.12227" lon="-1.7073">
        <ele>48</ele>
        <time>2022-08-20T11:27:46Z</time>
      </trkpt>
      <trkpt lat="47.12239" lon="-1.70717">
        <ele>48</ele>
        <time>2022-08-20T11:27:48Z</time>
      </trkpt>
      <trkpt lat="47.1225" lon="-1.70705">
        <ele>48</ele>
        <time>2022-08-20T11:27:50Z</time>
      </trkpt>
      <trkpt lat="47.1226" lon="-1.70691">
        <ele>48</ele>
        <time>2022-08-20T11:27:52Z</time>
      </trkpt>
      <trkpt lat="47.12271" lon="-1.70678">
        <ele>48</ele>
        <time>2022-08-20T11:27:54Z</time>
      </trkpt>
      <trkpt lat="47.1228" lon="-1.70664">
        <ele>48</ele>
        <time>2022-08-20T11:27:56Z</time>
      </trkpt>
      <trkpt lat="47.12289" lon="-1.70651">
        <ele>48</ele>
        <time>2022-08-20T11:27:58Z</time>
      </trkpt>
      <trkpt lat="47.12298" lon="-1.70636">
        <ele>47</ele>
        <time>2022-08-20T11:28:00Z</time>
      </trkpt>
      <trkpt lat="47.12308" lon="-1.70622">
        <ele>47</ele>
        <time>2022-08-20T11:28:02Z</time>
      </trkpt>
      <trkpt lat="47.12317" lon="-1.70607">
        <ele>46</ele>
        <time>2022-08-20T11:28:04Z</time>
      </trkpt>
      <trkpt lat="47.12327" lon="-1.70592">
        <ele>46</ele>
        <time>2022-08-20T11:28:06Z</time>
      </trkpt>
      <trkpt lat="47.12337" lon="-1.70577">
        <ele>46</ele>
        <time>2022-08-20T11:28:08Z</time>
      </trkpt>
      <trkpt lat="47.12346" lon="-1.70563">
        <ele>46</ele>
        <time>2022-08-20T11:28:10Z</time>
      </trkpt>
      <trkpt lat="47.12356" lon="-1.70548">
        <ele>46</ele>
        <time>2022-08-20T11:28:12Z</time>
      </trkpt>
      <trkpt lat="47.12364" lon="-1.70532">
        <ele>45</ele>
        <time>2022-08-20T11:28:14Z</time>
      </trkpt>
      <trkpt lat="47.12372" lon="-1.70515">
        <ele>45</ele>
        <time>2022-08-20T11:28:16Z</time>
      </trkpt>
      <trkpt lat="47.12378" lon="-1.70497">
        <ele>45</ele>
        <time>2022-08-20T11:28:18Z</time>
      </trkpt>
      <trkpt lat="47.12384" lon="-1.70479">
        <ele>45</ele>
        <time>2022-08-20T11:28:20Z</time>
      </trkpt>
      <trkpt lat="47.1239" lon="-1.7046">
        <ele>45</ele>
        <time>2022-08-20T11:28:22Z</time>
      </trkpt>
      <trkpt lat="47.12395" lon="-1.70442">
        <ele>45</ele>
        <time>2022-08-20T11:28:24Z</time>
      </trkpt>
      <trkpt lat="47.12399" lon="-1.70423">
        <ele>45</ele>
        <time>2022-08-20T11:28:26Z</time>
      </trkpt>
      <trkpt lat="47.12403" lon="-1.70404">
        <ele>45</ele>
        <time>2022-08-20T11:28:28Z</time>
      </trkpt>
      <trkpt lat="47.12407" lon="-1.70385">
        <ele>46</ele>
        <time>2022-08-20T11:28:30Z</time>
      </trkpt>
      <trkpt lat="47.12411" lon="-1.70366">
        <ele>46</ele>
        <time>2022-08-20T11:28:32Z</time>
      </trkpt>
      <trkpt lat="47.12415" lon="-1.70348">
        <ele>46</ele>
        <time>2022-08-20T11:28:34Z</time>
      </trkpt>
      <trkpt lat="47.12419" lon="-1.7033">
        <ele>47</ele>
        <time>2022-08-20T11:28:36Z</time>
      </trkpt>
      <trkpt lat="47.12425" lon="-1.70313">
        <ele>47</ele>
        <time>2022-08-20T11:28:38Z</time>
      </trkpt>
      <trkpt lat="47.12432" lon="-1.70296">
        <ele>48</ele>
        <time>2022-08-20T11:28:40Z</time>
      </trkpt>
      <trkpt lat="47.12441" lon="-1.70281">
        <ele>49</ele>
        <time>2022-08-20T11:28:42Z</time>
      </trkpt>
      <trkpt lat="47.12452" lon="-1.7027">
        <ele>49</ele>
        <time>2022-08-20T11:28:44Z</time>
      </trkpt>
      <trkpt lat="47.12464" lon="-1.7026">
        <ele>49</ele>
        <time>2022-08-20T11:28:46Z</time>
      </trkpt>
      <trkpt lat="47.12477" lon="-1.70253">
        <ele>50</ele>
        <time>2022-08-20T11:28:48Z</time>
      </trkpt>
      <trkpt lat="47.12489" lon="-1.70245">
        <ele>49</ele>
        <time>2022-08-20T11:28:50Z</time>
      </trkpt>
      <trkpt lat="47.12502" lon="-1.70238">
        <ele>48</ele>
        <time>2022-08-20T11:28:52Z</time>
      </trkpt>
      <trkpt lat="47.12514" lon="-1.70232">
        <ele>48</ele>
        <time>2022-08-20T11:28:54Z</time>
      </trkpt>
      <trkpt lat="47.12526" lon="-1.70225">
        <ele>47</ele>
        <time>2022-08-20T11:28:56Z</time>
      </trkpt>
      <trkpt lat="47.12538" lon="-1.70218">
        <ele>47</ele>
        <time>2022-08-20T11:28:58Z</time>
      </trkpt>
      <trkpt lat="47.12551" lon="-1.70211">
        <ele>48</ele>
        <time>2022-08-20T11:29:00Z</time>
      </trkpt>
      <trkpt lat="47.12564" lon="-1.70205">
        <ele>48</ele>
        <time>2022-08-20T11:29:02Z</time>
      </trkpt>
      <trkpt lat="47.12577" lon="-1.70199">
        <ele>47</ele>
        <time>2022-08-20T11:29:04Z</time>
      </trkpt>
      <trkpt lat="47.1259" lon="-1.70192">
        <ele>48</ele>
        <time>2022-08-20T11:29:06Z</time>
      </trkpt>
      <trkpt lat="47.12603" lon="-1.70187">
        <ele>47</ele>
        <time>2022-08-20T11:29:08Z</time>
      </trkpt>
      <trkpt lat="47.12617" lon="-1.70181">
        <ele>47</ele>
        <time>2022-08-20T11:29:10Z</time>
      </trkpt>
      <trkpt lat="47.1263" lon="-1.70174">
        <ele>46</ele>
        <time>2022-08-20T11:29:12Z</time>
      </trkpt>
      <trkpt lat="47.12643" lon="-1.70167">
        <ele>46</ele>
        <time>2022-08-20T11:29:14Z</time>
      </trkpt>
      <trkpt lat="47.12656" lon="-1.70159">
        <ele>45</ele>
        <time>2022-08-20T11:29:16Z</time>
      </trkpt>
      <trkpt lat="47.12669" lon="-1.70153">
        <ele>45</ele>
        <time>2022-08-20T11:29:18Z</time>
      </trkpt>
      <trkpt lat="47.12681" lon="-1.70146">
        <ele>45</ele>
        <time>2022-08-20T11:29:20Z</time>
      </trkpt>
      <trkpt lat="47.12694" lon="-1.70139">
        <ele>45</ele>
        <time>2022-08-20T11:29:22Z</time>
      </trkpt>
      <trkpt lat="47.12707" lon="-1.70133">
        <ele>45</ele>
        <time>2022-08-20T11:29:24Z</time>
      </trkpt>
      <trkpt lat="47.1272" lon="-1.70127">
        <ele>45</ele>
        <time>2022-08-20T11:29:26Z</time>
      </trkpt>
      <trkpt lat="47.12733" lon="-1.7012">
        <ele>45</ele>
        <time>2022-08-20T11:29:28Z</time>
      </trkpt>
      <trkpt lat="47.12745" lon="-1.70113">
        <ele>46</ele>
        <time>2022-08-20T11:29:30Z</time>
      </trkpt>
      <trkpt lat="47.12758" lon="-1.70107">
        <ele>46</ele>
        <time>2022-08-20T11:29:32Z</time>
      </trkpt>
      <trkpt lat="47.12771" lon="-1.701">
        <ele>46</ele>
        <time>2022-08-20T11:29:34Z</time>
      </trkpt>
      <trkpt lat="47.12784" lon="-1.70093">
        <ele>46</ele>
        <time>2022-08-20T11:29:36Z</time>
      </trkpt>
      <trkpt lat="47.12797" lon="-1.70086">
        <ele>47</ele>
        <time>2022-08-20T11:29:38Z</time>
      </trkpt>
      <trkpt lat="47.12809" lon="-1.70079">
        <ele>47</ele>
        <time>2022-08-20T11:29:40Z</time>
      </trkpt>
      <trkpt lat="47.12822" lon="-1.70072">
        <ele>47</ele>
        <time>2022-08-20T11:29:42Z</time>
      </trkpt>
      <trkpt lat="47.12834" lon="-1.70066">
        <ele>47</ele>
        <time>2022-08-20T11:29:44Z</time>
      </trkpt>
      <trkpt lat="47.12847" lon="-1.70058">
        <ele>46</ele>
        <time>2022-08-20T11:29:46Z</time>
      </trkpt>
      <trkpt lat="47.12861" lon="-1.70052">
        <ele>46</ele>
        <time>2022-08-20T11:29:48Z</time>
      </trkpt>
      <trkpt lat="47.12874" lon="-1.70045">
        <ele>46</ele>
        <time>2022-08-20T11:29:50Z</time>
      </trkpt>
      <trkpt lat="47.12886" lon="-1.70038">
        <ele>45</ele>
        <time>2022-08-20T11:29:52Z</time>
      </trkpt>
      <trkpt lat="47.12899" lon="-1.70032">
        <ele>45</ele>
        <time>2022-08-20T11:29:54Z</time>
      </trkpt>
      <trkpt lat="47.12912" lon="-1.70025">
        <ele>46</ele>
        <time>2022-08-20T11:29:56Z</time>
      </trkpt>
      <trkpt lat="47.12925" lon="-1.70019">
        <ele>46</ele>
        <time>2022-08-20T11:29:58Z</time>
      </trkpt>
      <trkpt lat="47.12938" lon="-1.70012">
        <ele>46</ele>
        <time>2022-08-20T11:30:00Z</time>
      </trkpt>
      <trkpt lat="47.1295" lon="-1.70005">
        <ele>46</ele>
        <time>2022-08-20T11:30:02Z</time>
      </trkpt>
      <trkpt lat="47.12963" lon="-1.69999">
        <ele>46</ele>
        <time>2022-08-20T11:30:04Z</time>
      </trkpt>
      <trkpt lat="47.12975" lon="-1.69992">
        <ele>45</ele>
        <time>2022-08-20T11:30:06Z</time>
      </trkpt>
      <trkpt lat="47.12988" lon="-1.69986">
        <ele>46</ele>
        <time>2022-08-20T11:30:08Z</time>
      </trkpt>
      <trkpt lat="47.13" lon="-1.69979">
        <ele>46</ele>
        <time>2022-08-20T11:30:10Z</time>
      </trkpt>
      <trkpt lat="47.13012" lon="-1.69973">
        <ele>46</ele>
        <time>2022-08-20T11:30:12Z</time>
      </trkpt>
      <trkpt lat="47.13025" lon="-1.69966">
        <ele>46</ele>
        <time>2022-08-20T11:30:14Z</time>
      </trkpt>
      <trkpt lat="47.13038" lon="-1.6996">
        <ele>46</ele>
        <time>2022-08-20T11:30:16Z</time>
      </trkpt>
      <trkpt lat="47.13051" lon="-1.69953">
        <ele>45</ele>
        <time>2022-08-20T11:30:18Z</time>
      </trkpt>
      <trkpt lat="47.13065" lon="-1.69947">
        <ele>45</ele>
        <time>2022-08-20T11:30:20Z</time>
      </trkpt>
      <trkpt lat="47.13077" lon="-1.6994">
        <ele>45</ele>
        <time>2022-08-20T11:30:22Z</time>
      </trkpt>
      <trkpt lat="47.1309" lon="-1.69933">
        <ele>45</ele>
        <time>2022-08-20T11:30:24Z</time>
      </trkpt>
      <trkpt lat="47.13103" lon="-1.69927">
        <ele>45</ele>
        <time>2022-08-20T11:30:26Z</time>
      </trkpt>
      <trkpt lat="47.13115" lon="-1.6992">
        <ele>45</ele>
        <time>2022-08-20T11:30:28Z</time>
      </trkpt>
      <trkpt lat="47.13128" lon="-1.69914">
        <ele>45</ele>
        <time>2022-08-20T11:30:30Z</time>
      </trkpt>
      <trkpt lat="47.1314" lon="-1.69907">
        <ele>46</ele>
        <time>2022-08-20T11:30:32Z</time>
      </trkpt>
      <trkpt lat="47.13152" lon="-1.69901">
        <ele>47</ele>
        <time>2022-08-20T11:30:34Z</time>
      </trkpt>
      <trkpt lat="47.13164" lon="-1.69894">
        <ele>47</ele>
        <time>2022-08-20T11:30:36Z</time>
      </trkpt>
      <trkpt lat="47.13176" lon="-1.69888">
        <ele>47</ele>
        <time>2022-08-20T11:30:38Z</time>
      </trkpt>
      <trkpt lat="47.13188" lon="-1.69882">
        <ele>47</ele>
        <time>2022-08-20T11:30:40Z</time>
      </trkpt>
      <trkpt lat="47.13199" lon="-1.69876">
        <ele>48</ele>
        <time>2022-08-20T11:30:42Z</time>
      </trkpt>
      <trkpt lat="47.13209" lon="-1.6987">
        <ele>48</ele>
        <time>2022-08-20T11:30:44Z</time>
      </trkpt>
      <trkpt lat="47.1322" lon="-1.69865">
        <ele>48</ele>
        <time>2022-08-20T11:30:46Z</time>
      </trkpt>
      <trkpt lat="47.1323" lon="-1.6986">
        <ele>48</ele>
        <time>2022-08-20T11:30:48Z</time>
      </trkpt>
      <trkpt lat="47.1324" lon="-1.69855">
        <ele>48</ele>
        <time>2022-08-20T11:30:50Z</time>
      </trkpt>
      <trkpt lat="47.1325" lon="-1.6985">
        <ele>48</ele>
        <time>2022-08-20T11:30:52Z</time>
      </trkpt>
      <trkpt lat="47.13261" lon="-1.69845">
        <ele>49</ele>
        <time>2022-08-20T11:30:54Z</time>
      </trkpt>
      <trkpt lat="47.13272" lon="-1.69839">
        <ele>48</ele>
        <time>2022-08-20T11:30:56Z</time>
      </trkpt>
      <trkpt lat="47.13284" lon="-1.69832">
        <ele>47</ele>
        <time>2022-08-20T11:30:58Z</time>
      </trkpt>
      <trkpt lat="47.13296" lon="-1.69825">
        <ele>47</ele>
        <time>2022-08-20T11:31:00Z</time>
      </trkpt>
      <trkpt lat="47.13309" lon="-1.69819">
        <ele>47</ele>
        <time>2022-08-20T11:31:02Z</time>
      </trkpt>
      <trkpt lat="47.13322" lon="-1.69813">
        <ele>48</ele>
        <time>2022-08-20T11:31:04Z</time>
      </trkpt>
      <trkpt lat="47.13335" lon="-1.69806">
        <ele>47</ele>
        <time>2022-08-20T11:31:06Z</time>
      </trkpt>
      <trkpt lat="47.13348" lon="-1.69799">
        <ele>47</ele>
        <time>2022-08-20T11:31:08Z</time>
      </trkpt>
      <trkpt lat="47.13361" lon="-1.69792">
        <ele>47</ele>
        <time>2022-08-20T11:31:10Z</time>
      </trkpt>
      <trkpt lat="47.13374" lon="-1.69784">
        <ele>47</ele>
        <time>2022-08-20T11:31:12Z</time>
      </trkpt>
      <trkpt lat="47.13387" lon="-1.69777">
        <ele>47</ele>
        <time>2022-08-20T11:31:14Z</time>
      </trkpt>
      <trkpt lat="47.134" lon="-1.6977">
        <ele>47</ele>
        <time>2022-08-20T11:31:16Z</time>
      </trkpt>
      <trkpt lat="47.13412" lon="-1.69764">
        <ele>48</ele>
        <time>2022-08-20T11:31:18Z</time>
      </trkpt>
      <trkpt lat="47.13425" lon="-1.69757">
        <ele>49</ele>
        <time>2022-08-20T11:31:20Z</time>
      </trkpt>
      <trkpt lat="47.13439" lon="-1.69751">
        <ele>49</ele>
        <time>2022-08-20T11:31:22Z</time>
      </trkpt>
      <trkpt lat="47.13452" lon="-1.69745">
        <ele>49</ele>
        <time>2022-08-20T11:31:24Z</time>
      </trkpt>
      <trkpt lat="47.13465" lon="-1.6974">
        <ele>50</ele>
        <time>2022-08-20T11:31:26Z</time>
      </trkpt>
      <trkpt lat="47.13479" lon="-1.69736">
        <ele>50</ele>
        <time>2022-08-20T11:31:28Z</time>
      </trkpt>
      <trkpt lat="47.13492" lon="-1.69734">
        <ele>50</ele>
        <time>2022-08-20T11:31:30Z</time>
      </trkpt>
      <trkpt lat="47.13505" lon="-1.69733">
        <ele>50</ele>
        <time>2022-08-20T11:31:32Z</time>
      </trkpt>
      <trkpt lat="47.13519" lon="-1.69734">
        <ele>49</ele>
        <time>2022-08-20T11:31:34Z</time>
      </trkpt>
      <trkpt lat="47.13532" lon="-1.69734">
        <ele>49</ele>
        <time>2022-08-20T11:31:36Z</time>
      </trkpt>
      <trkpt lat="47.13545" lon="-1.69733">
        <ele>48</ele>
        <time>2022-08-20T11:31:38Z</time>
      </trkpt>
      <trkpt lat="47.13558" lon="-1.69733">
        <ele>48</ele>
        <time>2022-08-20T11:31:40Z</time>
      </trkpt>
      <trkpt lat="47.13571" lon="-1.69734">
        <ele>48</ele>
        <time>2022-08-20T11:31:42Z</time>
      </trkpt>
      <trkpt lat="47.13584" lon="-1.69734">
        <ele>47</ele>
        <time>2022-08-20T11:31:44Z</time>
      </trkpt>
      <trkpt lat="47.13597" lon="-1.69734">
        <ele>47</ele>
        <time>2022-08-20T11:31:46Z</time>
      </trkpt>
      <trkpt lat="47.1361" lon="-1.69735">
        <ele>47</ele>
        <time>2022-08-20T11:31:48Z</time>
      </trkpt>
      <trkpt lat="47.13622" lon="-1.69735">
        <ele>47</ele>
        <time>2022-08-20T11:31:50Z</time>
      </trkpt>
      <trkpt lat="47.13634" lon="-1.69734">
        <ele>47</ele>
        <time>2022-08-20T11:31:52Z</time>
      </trkpt>
      <trkpt lat="47.13646" lon="-1.69735">
        <ele>47</ele>
        <time>2022-08-20T11:31:54Z</time>
      </trkpt>
      <trkpt lat="47.13659" lon="-1.69735">
        <ele>48</ele>
        <time>2022-08-20T11:31:56Z</time>
      </trkpt>
      <trkpt lat="47.13671" lon="-1.69735">
        <ele>48</ele>
        <time>2022-08-20T11:31:58Z</time>
      </trkpt>
      <trkpt lat="47.13684" lon="-1.69735">
        <ele>48</ele>
        <time>2022-08-20T11:32:00Z</time>
      </trkpt>
      <trkpt lat="47.13697" lon="-1.69735">
        <ele>47</ele>
        <time>2022-08-20T11:32:02Z</time>
      </trkpt>
      <trkpt lat="47.13711" lon="-1.69734">
        <ele>47</ele>
        <time>2022-08-20T11:32:04Z</time>
      </trkpt>
      <trkpt lat="47.13723" lon="-1.69733">
        <ele>47</ele>
        <time>2022-08-20T11:32:06Z</time>
      </trkpt>
      <trkpt lat="47.13736" lon="-1.6973">
        <ele>47</ele>
        <time>2022-08-20T11:32:08Z</time>
      </trkpt>
      <trkpt lat="47.13748" lon="-1.69727">
        <ele>47</ele>
        <time>2022-08-20T11:32:10Z</time>
      </trkpt>
      <trkpt lat="47.13761" lon="-1.69725">
        <ele>47</ele>
        <time>2022-08-20T11:32:12Z</time>
      </trkpt>
      <trkpt lat="47.13773" lon="-1.69723">
        <ele>47</ele>
        <time>2022-08-20T11:32:14Z</time>
      </trkpt>
      <trkpt lat="47.13786" lon="-1.69723">
        <ele>47</ele>
        <time>2022-08-20T11:32:16Z</time>
      </trkpt>
      <trkpt lat="47.13796" lon="-1.69723">
        <ele>47</ele>
        <time>2022-08-20T11:32:18Z</time>
      </trkpt>
      <trkpt lat="47.13807" lon="-1.69724">
        <ele>47</ele>
        <time>2022-08-20T11:32:20Z</time>
      </trkpt>
      <trkpt lat="47.13816" lon="-1.69723">
        <ele>47</ele>
        <time>2022-08-20T11:32:22Z</time>
      </trkpt>
      <trkpt lat="47.13825" lon="-1.69723">
        <ele>47</ele>
        <time>2022-08-20T11:32:24Z</time>
      </trkpt>
      <trkpt lat="47.13838" lon="-1.69724">
        <ele>47</ele>
        <time>2022-08-20T11:32:27Z</time>
      </trkpt>
      <trkpt lat="47.13849" lon="-1.69723">
        <ele>48</ele>
        <time>2022-08-20T11:32:30Z</time>
      </trkpt>
      <trkpt lat="47.13858" lon="-1.69722">
        <ele>48</ele>
        <time>2022-08-20T11:32:33Z</time>
      </trkpt>
      <trkpt lat="47.13869" lon="-1.69721">
        <ele>48</ele>
        <time>2022-08-20T11:32:37Z</time>
      </trkpt>
      <trkpt lat="47.13879" lon="-1.69719">
        <ele>48</ele>
        <time>2022-08-20T11:32:41Z</time>
      </trkpt>
      <trkpt lat="47.13889" lon="-1.69716">
        <ele>48</ele>
        <time>2022-08-20T11:32:46Z</time>
      </trkpt>
      <trkpt lat="47.13899" lon="-1.69716">
        <ele>47</ele>
        <time>2022-08-20T11:32:51Z</time>
      </trkpt>
      <trkpt lat="47.13909" lon="-1.69714">
        <ele>48</ele>
        <time>2022-08-20T11:32:57Z</time>
      </trkpt>
      <trkpt lat="47.13922" lon="-1.69712">
        <ele>48</ele>
        <time>2022-08-20T11:33:00Z</time>
      </trkpt>
      <trkpt lat="47.13935" lon="-1.69711">
        <ele>48</ele>
        <time>2022-08-20T11:33:02Z</time>
      </trkpt>
      <trkpt lat="47.13949" lon="-1.69712">
        <ele>49</ele>
        <time>2022-08-20T11:33:04Z</time>
      </trkpt>
      <trkpt lat="47.13964" lon="-1.69713">
        <ele>49</ele>
        <time>2022-08-20T11:33:06Z</time>
      </trkpt>
      <trkpt lat="47.13979" lon="-1.69714">
        <ele>50</ele>
        <time>2022-08-20T11:33:08Z</time>
      </trkpt>
      <trkpt lat="47.13994" lon="-1.69716">
        <ele>50</ele>
        <time>2022-08-20T11:33:10Z</time>
      </trkpt>
      <trkpt lat="47.14008" lon="-1.69718">
        <ele>50</ele>
        <time>2022-08-20T11:33:12Z</time>
      </trkpt>
      <trkpt lat="47.14023" lon="-1.69719">
        <ele>51</ele>
        <time>2022-08-20T11:33:14Z</time>
      </trkpt>
      <trkpt lat="47.14037" lon="-1.69721">
        <ele>51</ele>
        <time>2022-08-20T11:33:16Z</time>
      </trkpt>
      <trkpt lat="47.14051" lon="-1.69723">
        <ele>51</ele>
        <time>2022-08-20T11:33:18Z</time>
      </trkpt>
      <trkpt lat="47.14065" lon="-1.69724">
        <ele>51</ele>
        <time>2022-08-20T11:33:20Z</time>
      </trkpt>
      <trkpt lat="47.14079" lon="-1.69726">
        <ele>50</ele>
        <time>2022-08-20T11:33:22Z</time>
      </trkpt>
      <trkpt lat="47.14094" lon="-1.69725">
        <ele>51</ele>
        <time>2022-08-20T11:33:24Z</time>
      </trkpt>
      <trkpt lat="47.14109" lon="-1.69724">
        <ele>51</ele>
        <time>2022-08-20T11:33:26Z</time>
      </trkpt>
      <trkpt lat="47.14123" lon="-1.69722">
        <ele>51</ele>
        <time>2022-08-20T11:33:28Z</time>
      </trkpt>
      <trkpt lat="47.14137" lon="-1.6972">
        <ele>51</ele>
        <time>2022-08-20T11:33:30Z</time>
      </trkpt>
      <trkpt lat="47.14151" lon="-1.69718">
        <ele>51</ele>
        <time>2022-08-20T11:33:32Z</time>
      </trkpt>
      <trkpt lat="47.14165" lon="-1.69716">
        <ele>50</ele>
        <time>2022-08-20T11:33:34Z</time>
      </trkpt>
      <trkpt lat="47.14179" lon="-1.69713">
        <ele>50</ele>
        <time>2022-08-20T11:33:36Z</time>
      </trkpt>
      <trkpt lat="47.14192" lon="-1.69711">
        <ele>50</ele>
        <time>2022-08-20T11:33:38Z</time>
      </trkpt>
      <trkpt lat="47.14206" lon="-1.69708">
        <ele>50</ele>
        <time>2022-08-20T11:33:40Z</time>
      </trkpt>
      <trkpt lat="47.1422" lon="-1.69707">
        <ele>49</ele>
        <time>2022-08-20T11:33:42Z</time>
      </trkpt>
      <trkpt lat="47.14233" lon="-1.69705">
        <ele>49</ele>
        <time>2022-08-20T11:33:44Z</time>
      </trkpt>
      <trkpt lat="47.14246" lon="-1.69703">
        <ele>50</ele>
        <time>2022-08-20T11:33:46Z</time>
      </trkpt>
      <trkpt lat="47.14259" lon="-1.69701">
        <ele>50</ele>
        <time>2022-08-20T11:33:48Z</time>
      </trkpt>
      <trkpt lat="47.1427" lon="-1.69699">
        <ele>50</ele>
        <time>2022-08-20T11:33:50Z</time>
      </trkpt>
      <trkpt lat="47.14283" lon="-1.697">
        <ele>50</ele>
        <time>2022-08-20T11:33:52Z</time>
      </trkpt>
      <trkpt lat="47.14295" lon="-1.69702">
        <ele>51</ele>
        <time>2022-08-20T11:33:54Z</time>
      </trkpt>
      <trkpt lat="47.14307" lon="-1.69704">
        <ele>51</ele>
        <time>2022-08-20T11:33:56Z</time>
      </trkpt>
      <trkpt lat="47.14318" lon="-1.69704">
        <ele>51</ele>
        <time>2022-08-20T11:33:58Z</time>
      </trkpt>
      <trkpt lat="47.14327" lon="-1.697">
        <ele>51</ele>
        <time>2022-08-20T11:34:00Z</time>
      </trkpt>
      <trkpt lat="47.14333" lon="-1.69687">
        <ele>52</ele>
        <time>2022-08-20T11:34:02Z</time>
      </trkpt>
      <trkpt lat="47.14336" lon="-1.69671">
        <ele>52</ele>
        <time>2022-08-20T11:34:04Z</time>
      </trkpt>
      <trkpt lat="47.1434" lon="-1.69655">
        <ele>53</ele>
        <time>2022-08-20T11:34:06Z</time>
      </trkpt>
      <trkpt lat="47.14343" lon="-1.6964">
        <ele>53</ele>
        <time>2022-08-20T11:34:08Z</time>
      </trkpt>
      <trkpt lat="47.14348" lon="-1.69625">
        <ele>53</ele>
        <time>2022-08-20T11:34:10Z</time>
      </trkpt>
      <trkpt lat="47.14352" lon="-1.6961">
        <ele>54</ele>
        <time>2022-08-20T11:34:12Z</time>
      </trkpt>
      <trkpt lat="47.14357" lon="-1.69595">
        <ele>54</ele>
        <time>2022-08-20T11:34:14Z</time>
      </trkpt>
      <trkpt lat="47.14362" lon="-1.6958">
        <ele>54</ele>
        <time>2022-08-20T11:34:16Z</time>
      </trkpt>
      <trkpt lat="47.14368" lon="-1.69565">
        <ele>54</ele>
        <time>2022-08-20T11:34:18Z</time>
      </trkpt>
      <trkpt lat="47.14372" lon="-1.6955">
        <ele>55</ele>
        <time>2022-08-20T11:34:20Z</time>
      </trkpt>
      <trkpt lat="47.14375" lon="-1.69535">
        <ele>56</ele>
        <time>2022-08-20T11:34:22Z</time>
      </trkpt>
      <trkpt lat="47.14378" lon="-1.69519">
        <ele>56</ele>
        <time>2022-08-20T11:34:24Z</time>
      </trkpt>
      <trkpt lat="47.1438" lon="-1.69503">
        <ele>57</ele>
        <time>2022-08-20T11:34:26Z</time>
      </trkpt>
      <trkpt lat="47.14381" lon="-1.69486">
        <ele>57</ele>
        <time>2022-08-20T11:34:28Z</time>
      </trkpt>
      <trkpt lat="47.14382" lon="-1.6947">
        <ele>58</ele>
        <time>2022-08-20T11:34:30Z</time>
      </trkpt>
      <trkpt lat="47.14382" lon="-1.69453">
        <ele>59</ele>
        <time>2022-08-20T11:34:32Z</time>
      </trkpt>
      <trkpt lat="47.14382" lon="-1.69437">
        <ele>59</ele>
        <time>2022-08-20T11:34:34Z</time>
      </trkpt>
      <trkpt lat="47.14383" lon="-1.69422">
        <ele>59</ele>
        <time>2022-08-20T11:34:36Z</time>
      </trkpt>
      <trkpt lat="47.14384" lon="-1.69403">
        <ele>59</ele>
        <time>2022-08-20T11:34:39Z</time>
      </trkpt>
      <trkpt lat="47.14386" lon="-1.69388">
        <ele>60</ele>
        <time>2022-08-20T11:34:42Z</time>
      </trkpt>
      <trkpt lat="47.14388" lon="-1.69376">
        <ele>61</ele>
        <time>2022-08-20T11:34:46Z</time>
      </trkpt>
      <trkpt lat="47.1439" lon="-1.69359">
        <ele>63</ele>
        <time>2022-08-20T11:35:23Z</time>
      </trkpt>
      <trkpt lat="47.14394" lon="-1.69343">
        <ele>63</ele>
        <time>2022-08-20T11:35:25Z</time>
      </trkpt>
      <trkpt lat="47.14395" lon="-1.69325">
        <ele>63</ele>
        <time>2022-08-20T11:35:27Z</time>
      </trkpt>
      <trkpt lat="47.14395" lon="-1.69304">
        <ele>63</ele>
        <time>2022-08-20T11:35:29Z</time>
      </trkpt>
      <trkpt lat="47.14395" lon="-1.69284">
        <ele>63</ele>
        <time>2022-08-20T11:35:31Z</time>
      </trkpt>
      <trkpt lat="47.14395" lon="-1.69265">
        <ele>62</ele>
        <time>2022-08-20T11:35:33Z</time>
      </trkpt>
      <trkpt lat="47.14396" lon="-1.69246">
        <ele>62</ele>
        <time>2022-08-20T11:35:35Z</time>
      </trkpt>
      <trkpt lat="47.14396" lon="-1.69226">
        <ele>62</ele>
        <time>2022-08-20T11:35:37Z</time>
      </trkpt>
      <trkpt lat="47.14396" lon="-1.69207">
        <ele>61</ele>
        <time>2022-08-20T11:35:39Z</time>
      </trkpt>
      <trkpt lat="47.14397" lon="-1.69187">
        <ele>61</ele>
        <time>2022-08-20T11:35:41Z</time>
      </trkpt>
      <trkpt lat="47.14397" lon="-1.69167">
        <ele>62</ele>
        <time>2022-08-20T11:35:43Z</time>
      </trkpt>
      <trkpt lat="47.14397" lon="-1.69146">
        <ele>63</ele>
        <time>2022-08-20T11:35:45Z</time>
      </trkpt>
      <trkpt lat="47.14397" lon="-1.69126">
        <ele>63</ele>
        <time>2022-08-20T11:35:47Z</time>
      </trkpt>
      <trkpt lat="47.14398" lon="-1.69106">
        <ele>64</ele>
        <time>2022-08-20T11:35:49Z</time>
      </trkpt>
      <trkpt lat="47.14398" lon="-1.69086">
        <ele>65</ele>
        <time>2022-08-20T11:35:51Z</time>
      </trkpt>
      <trkpt lat="47.14398" lon="-1.69066">
        <ele>65</ele>
        <time>2022-08-20T11:35:53Z</time>
      </trkpt>
      <trkpt lat="47.14398" lon="-1.69046">
        <ele>65</ele>
        <time>2022-08-20T11:35:55Z</time>
      </trkpt>
      <trkpt lat="47.14398" lon="-1.69025">
        <ele>65</ele>
        <time>2022-08-20T11:35:57Z</time>
      </trkpt>
      <trkpt lat="47.14398" lon="-1.69003">
        <ele>66</ele>
        <time>2022-08-20T11:35:59Z</time>
      </trkpt>
      <trkpt lat="47.14399" lon="-1.68982">
        <ele>66</ele>
        <time>2022-08-20T11:36:01Z</time>
      </trkpt>
      <trkpt lat="47.144" lon="-1.6896">
        <ele>66</ele>
        <time>2022-08-20T11:36:03Z</time>
      </trkpt>
      <trkpt lat="47.144" lon="-1.68939">
        <ele>65</ele>
        <time>2022-08-20T11:36:05Z</time>
      </trkpt>
      <trkpt lat="47.144" lon="-1.68918">
        <ele>65</ele>
        <time>2022-08-20T11:36:07Z</time>
      </trkpt>
      <trkpt lat="47.14401" lon="-1.68896">
        <ele>64</ele>
        <time>2022-08-20T11:36:09Z</time>
      </trkpt>
      <trkpt lat="47.14403" lon="-1.68874">
        <ele>64</ele>
        <time>2022-08-20T11:36:11Z</time>
      </trkpt>
      <trkpt lat="47.14406" lon="-1.68853">
        <ele>64</ele>
        <time>2022-08-20T11:36:13Z</time>
      </trkpt>
      <trkpt lat="47.14408" lon="-1.68831">
        <ele>63</ele>
        <time>2022-08-20T11:36:15Z</time>
      </trkpt>
      <trkpt lat="47.1441" lon="-1.68809">
        <ele>62</ele>
        <time>2022-08-20T11:36:17Z</time>
      </trkpt>
      <trkpt lat="47.14413" lon="-1.68788">
        <ele>61</ele>
        <time>2022-08-20T11:36:19Z</time>
      </trkpt>
      <trkpt lat="47.14415" lon="-1.68766">
        <ele>61</ele>
        <time>2022-08-20T11:36:21Z</time>
      </trkpt>
      <trkpt lat="47.14415" lon="-1.68744">
        <ele>61</ele>
        <time>2022-08-20T11:36:23Z</time>
      </trkpt>
      <trkpt lat="47.14416" lon="-1.68722">
        <ele>60</ele>
        <time>2022-08-20T11:36:25Z</time>
      </trkpt>
      <trkpt lat="47.14417" lon="-1.68701">
        <ele>60</ele>
        <time>2022-08-20T11:36:27Z</time>
      </trkpt>
      <trkpt lat="47.14416" lon="-1.68679">
        <ele>59</ele>
        <time>2022-08-20T11:36:29Z</time>
      </trkpt>
      <trkpt lat="47.14413" lon="-1.68658">
        <ele>59</ele>
        <time>2022-08-20T11:36:31Z</time>
      </trkpt>
      <trkpt lat="47.14407" lon="-1.68638">
        <ele>59</ele>
        <time>2022-08-20T11:36:33Z</time>
      </trkpt>
      <trkpt lat="47.14402" lon="-1.68618">
        <ele>59</ele>
        <time>2022-08-20T11:36:35Z</time>
      </trkpt>
      <trkpt lat="47.14398" lon="-1.68599">
        <ele>59</ele>
        <time>2022-08-20T11:36:37Z</time>
      </trkpt>
      <trkpt lat="47.14393" lon="-1.68579">
        <ele>59</ele>
        <time>2022-08-20T11:36:39Z</time>
      </trkpt>
      <trkpt lat="47.14392" lon="-1.68559">
        <ele>59</ele>
        <time>2022-08-20T11:36:41Z</time>
      </trkpt>
      <trkpt lat="47.14392" lon="-1.68538">
        <ele>59</ele>
        <time>2022-08-20T11:36:43Z</time>
      </trkpt>
      <trkpt lat="47.14393" lon="-1.68517">
        <ele>59</ele>
        <time>2022-08-20T11:36:45Z</time>
      </trkpt>
      <trkpt lat="47.14395" lon="-1.68497">
        <ele>58</ele>
        <time>2022-08-20T11:36:47Z</time>
      </trkpt>
      <trkpt lat="47.14396" lon="-1.68477">
        <ele>59</ele>
        <time>2022-08-20T11:36:49Z</time>
      </trkpt>
      <trkpt lat="47.14397" lon="-1.68456">
        <ele>59</ele>
        <time>2022-08-20T11:36:51Z</time>
      </trkpt>
      <trkpt lat="47.14399" lon="-1.68434">
        <ele>58</ele>
        <time>2022-08-20T11:36:53Z</time>
      </trkpt>
      <trkpt lat="47.144" lon="-1.68412">
        <ele>58</ele>
        <time>2022-08-20T11:36:55Z</time>
      </trkpt>
      <trkpt lat="47.14401" lon="-1.68391">
        <ele>58</ele>
        <time>2022-08-20T11:36:57Z</time>
      </trkpt>
      <trkpt lat="47.14399" lon="-1.68369">
        <ele>58</ele>
        <time>2022-08-20T11:36:59Z</time>
      </trkpt>
      <trkpt lat="47.14396" lon="-1.68349">
        <ele>57</ele>
        <time>2022-08-20T11:37:01Z</time>
      </trkpt>
      <trkpt lat="47.14393" lon="-1.68328">
        <ele>57</ele>
        <time>2022-08-20T11:37:03Z</time>
      </trkpt>
      <trkpt lat="47.14389" lon="-1.68308">
        <ele>57</ele>
        <time>2022-08-20T11:37:05Z</time>
      </trkpt>
      <trkpt lat="47.14384" lon="-1.68289">
        <ele>57</ele>
        <time>2022-08-20T11:37:07Z</time>
      </trkpt>
      <trkpt lat="47.14378" lon="-1.68272">
        <ele>58</ele>
        <time>2022-08-20T11:37:09Z</time>
      </trkpt>
      <trkpt lat="47.14374" lon="-1.68254">
        <ele>58</ele>
        <time>2022-08-20T11:37:11Z</time>
      </trkpt>
      <trkpt lat="47.14373" lon="-1.68235">
        <ele>58</ele>
        <time>2022-08-20T11:37:13Z</time>
      </trkpt>
      <trkpt lat="47.14374" lon="-1.68217">
        <ele>59</ele>
        <time>2022-08-20T11:37:15Z</time>
      </trkpt>
      <trkpt lat="47.14376" lon="-1.68198">
        <ele>59</ele>
        <time>2022-08-20T11:37:17Z</time>
      </trkpt>
      <trkpt lat="47.14375" lon="-1.6818">
        <ele>59</ele>
        <time>2022-08-20T11:37:19Z</time>
      </trkpt>
      <trkpt lat="47.14373" lon="-1.68162">
        <ele>59</ele>
        <time>2022-08-20T11:37:21Z</time>
      </trkpt>
      <trkpt lat="47.14372" lon="-1.68144">
        <ele>60</ele>
        <time>2022-08-20T11:37:23Z</time>
      </trkpt>
      <trkpt lat="47.14373" lon="-1.68126">
        <ele>59</ele>
        <time>2022-08-20T11:37:25Z</time>
      </trkpt>
      <trkpt lat="47.14372" lon="-1.68109">
        <ele>59</ele>
        <time>2022-08-20T11:37:27Z</time>
      </trkpt>
      <trkpt lat="47.14371" lon="-1.68091">
        <ele>59</ele>
        <time>2022-08-20T11:37:29Z</time>
      </trkpt>
      <trkpt lat="47.1437" lon="-1.68072">
        <ele>59</ele>
        <time>2022-08-20T11:37:31Z</time>
      </trkpt>
      <trkpt lat="47.14369" lon="-1.68053">
        <ele>59</ele>
        <time>2022-08-20T11:37:33Z</time>
      </trkpt>
      <trkpt lat="47.14369" lon="-1.68034">
        <ele>59</ele>
        <time>2022-08-20T11:37:35Z</time>
      </trkpt>
      <trkpt lat="47.14368" lon="-1.68016">
        <ele>59</ele>
        <time>2022-08-20T11:37:37Z</time>
      </trkpt>
      <trkpt lat="47.14367" lon="-1.67997">
        <ele>59</ele>
        <time>2022-08-20T11:37:39Z</time>
      </trkpt>
      <trkpt lat="47.14366" lon="-1.6798">
        <ele>59</ele>
        <time>2022-08-20T11:37:41Z</time>
      </trkpt>
      <trkpt lat="47.14365" lon="-1.67962">
        <ele>59</ele>
        <time>2022-08-20T11:37:43Z</time>
      </trkpt>
      <trkpt lat="47.14363" lon="-1.67944">
        <ele>59</ele>
        <time>2022-08-20T11:37:45Z</time>
      </trkpt>
      <trkpt lat="47.14361" lon="-1.67927">
        <ele>60</ele>
        <time>2022-08-20T11:37:47Z</time>
      </trkpt>
      <trkpt lat="47.14358" lon="-1.67909">
        <ele>60</ele>
        <time>2022-08-20T11:37:49Z</time>
      </trkpt>
      <trkpt lat="47.14349" lon="-1.67894">
        <ele>61</ele>
        <time>2022-08-20T11:37:51Z</time>
      </trkpt>
      <trkpt lat="47.14344" lon="-1.67877">
        <ele>61</ele>
        <time>2022-08-20T11:37:53Z</time>
      </trkpt>
      <trkpt lat="47.14343" lon="-1.67858">
        <ele>61</ele>
        <time>2022-08-20T11:37:55Z</time>
      </trkpt>
      <trkpt lat="47.14346" lon="-1.6784">
        <ele>60</ele>
        <time>2022-08-20T11:37:57Z</time>
      </trkpt>
      <trkpt lat="47.14348" lon="-1.67822">
        <ele>60</ele>
        <time>2022-08-20T11:37:59Z</time>
      </trkpt>
      <trkpt lat="47.14346" lon="-1.67802">
        <ele>59</ele>
        <time>2022-08-20T11:38:01Z</time>
      </trkpt>
      <trkpt lat="47.14344" lon="-1.67783">
        <ele>60</ele>
        <time>2022-08-20T11:38:03Z</time>
      </trkpt>
      <trkpt lat="47.1434" lon="-1.67765">
        <ele>60</ele>
        <time>2022-08-20T11:38:05Z</time>
      </trkpt>
      <trkpt lat="47.14335" lon="-1.67747">
        <ele>60</ele>
        <time>2022-08-20T11:38:07Z</time>
      </trkpt>
      <trkpt lat="47.1433" lon="-1.67729">
        <ele>61</ele>
        <time>2022-08-20T11:38:09Z</time>
      </trkpt>
      <trkpt lat="47.14325" lon="-1.67711">
        <ele>61</ele>
        <time>2022-08-20T11:38:11Z</time>
      </trkpt>
      <trkpt lat="47.1432" lon="-1.67694">
        <ele>61</ele>
        <time>2022-08-20T11:38:13Z</time>
      </trkpt>
      <trkpt lat="47.14316" lon="-1.67675">
        <ele>61</ele>
        <time>2022-08-20T11:38:15Z</time>
      </trkpt>
      <trkpt lat="47.14313" lon="-1.67656">
        <ele>61</ele>
        <time>2022-08-20T11:38:17Z</time>
      </trkpt>
      <trkpt lat="47.14311" lon="-1.67636">
        <ele>61</ele>
        <time>2022-08-20T11:38:19Z</time>
      </trkpt>
      <trkpt lat="47.1431" lon="-1.67616">
        <ele>60</ele>
        <time>2022-08-20T11:38:21Z</time>
      </trkpt>
      <trkpt lat="47.14308" lon="-1.67596">
        <ele>60</ele>
        <time>2022-08-20T11:38:23Z</time>
      </trkpt>
      <trkpt lat="47.14307" lon="-1.67575">
        <ele>60</ele>
        <time>2022-08-20T11:38:25Z</time>
      </trkpt>
      <trkpt lat="47.14305" lon="-1.67555">
        <ele>60</ele>
        <time>2022-08-20T11:38:27Z</time>
      </trkpt>
      <trkpt lat="47.14303" lon="-1.67535">
        <ele>60</ele>
        <time>2022-08-20T11:38:29Z</time>
      </trkpt>
      <trkpt lat="47.143" lon="-1.67516">
        <ele>60</ele>
        <time>2022-08-20T11:38:31Z</time>
      </trkpt>
      <trkpt lat="47.14296" lon="-1.67497">
        <ele>60</ele>
        <time>2022-08-20T11:38:33Z</time>
      </trkpt>
      <trkpt lat="47.14292" lon="-1.67478">
        <ele>60</ele>
        <time>2022-08-20T11:38:35Z</time>
      </trkpt>
      <trkpt lat="47.14287" lon="-1.6746">
        <ele>60</ele>
        <time>2022-08-20T11:38:37Z</time>
      </trkpt>
      <trkpt lat="47.14281" lon="-1.67443">
        <ele>61</ele>
        <time>2022-08-20T11:38:39Z</time>
      </trkpt>
      <trkpt lat="47.14275" lon="-1.67425">
        <ele>61</ele>
        <time>2022-08-20T11:38:41Z</time>
      </trkpt>
      <trkpt lat="47.14268" lon="-1.67409">
        <ele>61</ele>
        <time>2022-08-20T11:38:43Z</time>
      </trkpt>
      <trkpt lat="47.14262" lon="-1.67393">
        <ele>62</ele>
        <time>2022-08-20T11:38:45Z</time>
      </trkpt>
      <trkpt lat="47.14255" lon="-1.67378">
        <ele>61</ele>
        <time>2022-08-20T11:38:47Z</time>
      </trkpt>
      <trkpt lat="47.14249" lon="-1.67364">
        <ele>62</ele>
        <time>2022-08-20T11:38:49Z</time>
      </trkpt>
      <trkpt lat="47.14243" lon="-1.6735">
        <ele>62</ele>
        <time>2022-08-20T11:38:51Z</time>
      </trkpt>
      <trkpt lat="47.14238" lon="-1.67336">
        <ele>62</ele>
        <time>2022-08-20T11:38:53Z</time>
      </trkpt>
      <trkpt lat="47.14232" lon="-1.67323">
        <ele>62</ele>
        <time>2022-08-20T11:38:55Z</time>
      </trkpt>
      <trkpt lat="47.14227" lon="-1.67309">
        <ele>62</ele>
        <time>2022-08-20T11:38:57Z</time>
      </trkpt>
      <trkpt lat="47.14221" lon="-1.67297">
        <ele>63</ele>
        <time>2022-08-20T11:38:59Z</time>
      </trkpt>
      <trkpt lat="47.14216" lon="-1.67284">
        <ele>63</ele>
        <time>2022-08-20T11:39:02Z</time>
      </trkpt>
      <trkpt lat="47.1421" lon="-1.6727">
        <ele>65</ele>
        <time>2022-08-20T11:39:20Z</time>
      </trkpt>
      <trkpt lat="47.14205" lon="-1.67256">
        <ele>66</ele>
        <time>2022-08-20T11:39:22Z</time>
      </trkpt>
      <trkpt lat="47.142" lon="-1.67238">
        <ele>66</ele>
        <time>2022-08-20T11:39:24Z</time>
      </trkpt>
      <trkpt lat="47.14197" lon="-1.6722">
        <ele>66</ele>
        <time>2022-08-20T11:39:26Z</time>
      </trkpt>
      <trkpt lat="47.14194" lon="-1.67204">
        <ele>67</ele>
        <time>2022-08-20T11:39:28Z</time>
      </trkpt>
      <trkpt lat="47.14191" lon="-1.67187">
        <ele>66</ele>
        <time>2022-08-20T11:39:30Z</time>
      </trkpt>
      <trkpt lat="47.14188" lon="-1.6717">
        <ele>65</ele>
        <time>2022-08-20T11:39:32Z</time>
      </trkpt>
      <trkpt lat="47.14184" lon="-1.67154">
        <ele>64</ele>
        <time>2022-08-20T11:39:34Z</time>
      </trkpt>
      <trkpt lat="47.1418" lon="-1.67137">
        <ele>63</ele>
        <time>2022-08-20T11:39:36Z</time>
      </trkpt>
      <trkpt lat="47.14177" lon="-1.67119">
        <ele>62</ele>
        <time>2022-08-20T11:39:38Z</time>
      </trkpt>
      <trkpt lat="47.14174" lon="-1.67101">
        <ele>62</ele>
        <time>2022-08-20T11:39:40Z</time>
      </trkpt>
      <trkpt lat="47.14172" lon="-1.67082">
        <ele>62</ele>
        <time>2022-08-20T11:39:42Z</time>
      </trkpt>
      <trkpt lat="47.14171" lon="-1.67064">
        <ele>62</ele>
        <time>2022-08-20T11:39:44Z</time>
      </trkpt>
      <trkpt lat="47.14169" lon="-1.67045">
        <ele>61</ele>
        <time>2022-08-20T11:39:46Z</time>
      </trkpt>
      <trkpt lat="47.14168" lon="-1.67025">
        <ele>60</ele>
        <time>2022-08-20T11:39:48Z</time>
      </trkpt>
      <trkpt lat="47.14167" lon="-1.67006">
        <ele>61</ele>
        <time>2022-08-20T11:39:50Z</time>
      </trkpt>
      <trkpt lat="47.14166" lon="-1.66986">
        <ele>60</ele>
        <time>2022-08-20T11:39:52Z</time>
      </trkpt>
      <trkpt lat="47.14165" lon="-1.66965">
        <ele>59</ele>
        <time>2022-08-20T11:39:54Z</time>
      </trkpt>
      <trkpt lat="47.14165" lon="-1.66944">
        <ele>59</ele>
        <time>2022-08-20T11:39:56Z</time>
      </trkpt>
      <trkpt lat="47.14167" lon="-1.66924">
        <ele>59</ele>
        <time>2022-08-20T11:39:58Z</time>
      </trkpt>
      <trkpt lat="47.14171" lon="-1.66905">
        <ele>59</ele>
        <time>2022-08-20T11:40:00Z</time>
      </trkpt>
      <trkpt lat="47.14176" lon="-1.66887">
        <ele>59</ele>
        <time>2022-08-20T11:40:02Z</time>
      </trkpt>
      <trkpt lat="47.14182" lon="-1.66869">
        <ele>58</ele>
        <time>2022-08-20T11:40:04Z</time>
      </trkpt>
      <trkpt lat="47.14187" lon="-1.66851">
        <ele>58</ele>
        <time>2022-08-20T11:40:06Z</time>
      </trkpt>
      <trkpt lat="47.14193" lon="-1.66832">
        <ele>58</ele>
        <time>2022-08-20T11:40:08Z</time>
      </trkpt>
      <trkpt lat="47.14199" lon="-1.66813">
        <ele>57</ele>
        <time>2022-08-20T11:40:10Z</time>
      </trkpt>
      <trkpt lat="47.14205" lon="-1.66795">
        <ele>57</ele>
        <time>2022-08-20T11:40:12Z</time>
      </trkpt>
      <trkpt lat="47.14211" lon="-1.66776">
        <ele>56</ele>
        <time>2022-08-20T11:40:14Z</time>
      </trkpt>
      <trkpt lat="47.14217" lon="-1.66758">
        <ele>55</ele>
        <time>2022-08-20T11:40:16Z</time>
      </trkpt>
      <trkpt lat="47.14223" lon="-1.6674">
        <ele>55</ele>
        <time>2022-08-20T11:40:18Z</time>
      </trkpt>
      <trkpt lat="47.14229" lon="-1.66723">
        <ele>55</ele>
        <time>2022-08-20T11:40:20Z</time>
      </trkpt>
      <trkpt lat="47.14235" lon="-1.66705">
        <ele>55</ele>
        <time>2022-08-20T11:40:22Z</time>
      </trkpt>
      <trkpt lat="47.14241" lon="-1.66688">
        <ele>55</ele>
        <time>2022-08-20T11:40:24Z</time>
      </trkpt>
      <trkpt lat="47.14247" lon="-1.66671">
        <ele>55</ele>
        <time>2022-08-20T11:40:26Z</time>
      </trkpt>
      <trkpt lat="47.14252" lon="-1.66653">
        <ele>55</ele>
        <time>2022-08-20T11:40:28Z</time>
      </trkpt>
      <trkpt lat="47.14258" lon="-1.66636">
        <ele>55</ele>
        <time>2022-08-20T11:40:30Z</time>
      </trkpt>
      <trkpt lat="47.14264" lon="-1.66619">
        <ele>56</ele>
        <time>2022-08-20T11:40:32Z</time>
      </trkpt>
      <trkpt lat="47.14269" lon="-1.66602">
        <ele>56</ele>
        <time>2022-08-20T11:40:34Z</time>
      </trkpt>
      <trkpt lat="47.14274" lon="-1.66585">
        <ele>56</ele>
        <time>2022-08-20T11:40:36Z</time>
      </trkpt>
      <trkpt lat="47.14279" lon="-1.66568">
        <ele>56</ele>
        <time>2022-08-20T11:40:38Z</time>
      </trkpt>
      <trkpt lat="47.14283" lon="-1.66552">
        <ele>57</ele>
        <time>2022-08-20T11:40:40Z</time>
      </trkpt>
      <trkpt lat="47.14287" lon="-1.66536">
        <ele>57</ele>
        <time>2022-08-20T11:40:42Z</time>
      </trkpt>
      <trkpt lat="47.14291" lon="-1.66519">
        <ele>57</ele>
        <time>2022-08-20T11:40:44Z</time>
      </trkpt>
      <trkpt lat="47.14296" lon="-1.66503">
        <ele>57</ele>
        <time>2022-08-20T11:40:46Z</time>
      </trkpt>
      <trkpt lat="47.143" lon="-1.66485">
        <ele>56</ele>
        <time>2022-08-20T11:40:48Z</time>
      </trkpt>
      <trkpt lat="47.14307" lon="-1.66458">
        <ele>56</ele>
        <time>2022-08-20T11:40:51Z</time>
      </trkpt>
      <trkpt lat="47.14311" lon="-1.66441">
        <ele>56</ele>
        <time>2022-08-20T11:40:53Z</time>
      </trkpt>
      <trkpt lat="47.14315" lon="-1.66424">
        <ele>56</ele>
        <time>2022-08-20T11:40:55Z</time>
      </trkpt>
      <trkpt lat="47.14319" lon="-1.66407">
        <ele>56</ele>
        <time>2022-08-20T11:40:57Z</time>
      </trkpt>
      <trkpt lat="47.14323" lon="-1.66391">
        <ele>57</ele>
        <time>2022-08-20T11:40:59Z</time>
      </trkpt>
      <trkpt lat="47.14328" lon="-1.66374">
        <ele>57</ele>
        <time>2022-08-20T11:41:01Z</time>
      </trkpt>
      <trkpt lat="47.14332" lon="-1.66357">
        <ele>57</ele>
        <time>2022-08-20T11:41:03Z</time>
      </trkpt>
      <trkpt lat="47.14336" lon="-1.6634">
        <ele>57</ele>
        <time>2022-08-20T11:41:05Z</time>
      </trkpt>
      <trkpt lat="47.1434" lon="-1.66323">
        <ele>57</ele>
        <time>2022-08-20T11:41:07Z</time>
      </trkpt>
      <trkpt lat="47.14344" lon="-1.66306">
        <ele>57</ele>
        <time>2022-08-20T11:41:09Z</time>
      </trkpt>
      <trkpt lat="47.14348" lon="-1.66289">
        <ele>57</ele>
        <time>2022-08-20T11:41:11Z</time>
      </trkpt>
      <trkpt lat="47.14352" lon="-1.66272">
        <ele>57</ele>
        <time>2022-08-20T11:41:13Z</time>
      </trkpt>
      <trkpt lat="47.14356" lon="-1.66254">
        <ele>57</ele>
        <time>2022-08-20T11:41:15Z</time>
      </trkpt>
      <trkpt lat="47.14359" lon="-1.66237">
        <ele>57</ele>
        <time>2022-08-20T11:41:17Z</time>
      </trkpt>
      <trkpt lat="47.14363" lon="-1.6622">
        <ele>57</ele>
        <time>2022-08-20T11:41:19Z</time>
      </trkpt>
      <trkpt lat="47.14366" lon="-1.66204">
        <ele>57</ele>
        <time>2022-08-20T11:41:21Z</time>
      </trkpt>
      <trkpt lat="47.14366" lon="-1.66189">
        <ele>58</ele>
        <time>2022-08-20T11:41:23Z</time>
      </trkpt>
      <trkpt lat="47.14366" lon="-1.66175">
        <ele>58</ele>
        <time>2022-08-20T11:41:25Z</time>
      </trkpt>
      <trkpt lat="47.14374" lon="-1.6616">
        <ele>58</ele>
        <time>2022-08-20T11:41:28Z</time>
      </trkpt>
      <trkpt lat="47.14377" lon="-1.66146">
        <ele>58</ele>
        <time>2022-08-20T11:41:30Z</time>
      </trkpt>
      <trkpt lat="47.1438" lon="-1.6613">
        <ele>58</ele>
        <time>2022-08-20T11:41:32Z</time>
      </trkpt>
      <trkpt lat="47.14382" lon="-1.66112">
        <ele>58</ele>
        <time>2022-08-20T11:41:34Z</time>
      </trkpt>
      <trkpt lat="47.14384" lon="-1.66095">
        <ele>58</ele>
        <time>2022-08-20T11:41:36Z</time>
      </trkpt>
      <trkpt lat="47.14386" lon="-1.66077">
        <ele>58</ele>
        <time>2022-08-20T11:41:38Z</time>
      </trkpt>
      <trkpt lat="47.14387" lon="-1.6606">
        <ele>58</ele>
        <time>2022-08-20T11:41:40Z</time>
      </trkpt>
      <trkpt lat="47.14389" lon="-1.66042">
        <ele>58</ele>
        <time>2022-08-20T11:41:42Z</time>
      </trkpt>
      <trkpt lat="47.14391" lon="-1.66024">
        <ele>58</ele>
        <time>2022-08-20T11:41:44Z</time>
      </trkpt>
      <trkpt lat="47.14392" lon="-1.66006">
        <ele>58</ele>
        <time>2022-08-20T11:41:46Z</time>
      </trkpt>
      <trkpt lat="47.14394" lon="-1.65988">
        <ele>57</ele>
        <time>2022-08-20T11:41:48Z</time>
      </trkpt>
      <trkpt lat="47.14395" lon="-1.6597">
        <ele>58</ele>
        <time>2022-08-20T11:41:50Z</time>
      </trkpt>
      <trkpt lat="47.14396" lon="-1.65951">
        <ele>58</ele>
        <time>2022-08-20T11:41:52Z</time>
      </trkpt>
      <trkpt lat="47.14397" lon="-1.65932">
        <ele>58</ele>
        <time>2022-08-20T11:41:54Z</time>
      </trkpt>
      <trkpt lat="47.14398" lon="-1.65913">
        <ele>58</ele>
        <time>2022-08-20T11:41:56Z</time>
      </trkpt>
      <trkpt lat="47.14398" lon="-1.65894">
        <ele>58</ele>
        <time>2022-08-20T11:41:58Z</time>
      </trkpt>
      <trkpt lat="47.144" lon="-1.65875">
        <ele>58</ele>
        <time>2022-08-20T11:42:00Z</time>
      </trkpt>
      <trkpt lat="47.14401" lon="-1.65856">
        <ele>59</ele>
        <time>2022-08-20T11:42:02Z</time>
      </trkpt>
      <trkpt lat="47.14402" lon="-1.65837">
        <ele>59</ele>
        <time>2022-08-20T11:42:04Z</time>
      </trkpt>
      <trkpt lat="47.14404" lon="-1.65817">
        <ele>59</ele>
        <time>2022-08-20T11:42:06Z</time>
      </trkpt>
      <trkpt lat="47.14406" lon="-1.65797">
        <ele>58</ele>
        <time>2022-08-20T11:42:08Z</time>
      </trkpt>
      <trkpt lat="47.14409" lon="-1.65778">
        <ele>58</ele>
        <time>2022-08-20T11:42:10Z</time>
      </trkpt>
      <trkpt lat="47.14411" lon="-1.65758">
        <ele>58</ele>
        <time>2022-08-20T11:42:12Z</time>
      </trkpt>
      <trkpt lat="47.14414" lon="-1.65739">
        <ele>57</ele>
        <time>2022-08-20T11:42:14Z</time>
      </trkpt>
      <trkpt lat="47.14418" lon="-1.6572">
        <ele>57</ele>
        <time>2022-08-20T11:42:16Z</time>
      </trkpt>
      <trkpt lat="47.14422" lon="-1.65702">
        <ele>57</ele>
        <time>2022-08-20T11:42:18Z</time>
      </trkpt>
      <trkpt lat="47.14427" lon="-1.65684">
        <ele>57</ele>
        <time>2022-08-20T11:42:20Z</time>
      </trkpt>
      <trkpt lat="47.14432" lon="-1.65666">
        <ele>57</ele>
        <time>2022-08-20T11:42:22Z</time>
      </trkpt>
      <trkpt lat="47.14437" lon="-1.65648">
        <ele>57</ele>
        <time>2022-08-20T11:42:24Z</time>
      </trkpt>
      <trkpt lat="47.14443" lon="-1.65632">
        <ele>57</ele>
        <time>2022-08-20T11:42:26Z</time>
      </trkpt>
      <trkpt lat="47.14449" lon="-1.65615">
        <ele>57</ele>
        <time>2022-08-20T11:42:28Z</time>
      </trkpt>
      <trkpt lat="47.14455" lon="-1.65598">
        <ele>57</ele>
        <time>2022-08-20T11:42:30Z</time>
      </trkpt>
      <trkpt lat="47.14462" lon="-1.65581">
        <ele>57</ele>
        <time>2022-08-20T11:42:32Z</time>
      </trkpt>
      <trkpt lat="47.14468" lon="-1.65565">
        <ele>57</ele>
        <time>2022-08-20T11:42:34Z</time>
      </trkpt>
      <trkpt lat="47.14474" lon="-1.6555">
        <ele>57</ele>
        <time>2022-08-20T11:42:36Z</time>
      </trkpt>
      <trkpt lat="47.14481" lon="-1.65534">
        <ele>58</ele>
        <time>2022-08-20T11:42:38Z</time>
      </trkpt>
      <trkpt lat="47.14487" lon="-1.65518">
        <ele>58</ele>
        <time>2022-08-20T11:42:40Z</time>
      </trkpt>
      <trkpt lat="47.14494" lon="-1.65502">
        <ele>58</ele>
        <time>2022-08-20T11:42:42Z</time>
      </trkpt>
      <trkpt lat="47.14501" lon="-1.65487">
        <ele>58</ele>
        <time>2022-08-20T11:42:44Z</time>
      </trkpt>
      <trkpt lat="47.14507" lon="-1.65471">
        <ele>58</ele>
        <time>2022-08-20T11:42:46Z</time>
      </trkpt>
      <trkpt lat="47.14513" lon="-1.65455">
        <ele>58</ele>
        <time>2022-08-20T11:42:48Z</time>
      </trkpt>
      <trkpt lat="47.1452" lon="-1.65439">
        <ele>58</ele>
        <time>2022-08-20T11:42:50Z</time>
      </trkpt>
      <trkpt lat="47.14525" lon="-1.65421">
        <ele>58</ele>
        <time>2022-08-20T11:42:52Z</time>
      </trkpt>
      <trkpt lat="47.14529" lon="-1.65404">
        <ele>58</ele>
        <time>2022-08-20T11:42:54Z</time>
      </trkpt>
      <trkpt lat="47.14529" lon="-1.65385">
        <ele>57</ele>
        <time>2022-08-20T11:42:56Z</time>
      </trkpt>
      <trkpt lat="47.14532" lon="-1.65367">
        <ele>57</ele>
        <time>2022-08-20T11:42:58Z</time>
      </trkpt>
      <trkpt lat="47.14537" lon="-1.6535">
        <ele>57</ele>
        <time>2022-08-20T11:43:00Z</time>
      </trkpt>
      <trkpt lat="47.14541" lon="-1.65333">
        <ele>57</ele>
        <time>2022-08-20T11:43:02Z</time>
      </trkpt>
      <trkpt lat="47.14546" lon="-1.65315">
        <ele>57</ele>
        <time>2022-08-20T11:43:04Z</time>
      </trkpt>
      <trkpt lat="47.14553" lon="-1.653">
        <ele>57</ele>
        <time>2022-08-20T11:43:06Z</time>
      </trkpt>
      <trkpt lat="47.14558" lon="-1.65285">
        <ele>57</ele>
        <time>2022-08-20T11:43:08Z</time>
      </trkpt>
      <trkpt lat="47.14561" lon="-1.65268">
        <ele>58</ele>
        <time>2022-08-20T11:43:10Z</time>
      </trkpt>
      <trkpt lat="47.14564" lon="-1.65251">
        <ele>58</ele>
        <time>2022-08-20T11:43:12Z</time>
      </trkpt>
      <trkpt lat="47.14568" lon="-1.65233">
        <ele>58</ele>
        <time>2022-08-20T11:43:14Z</time>
      </trkpt>
      <trkpt lat="47.14572" lon="-1.65217">
        <ele>58</ele>
        <time>2022-08-20T11:43:16Z</time>
      </trkpt>
      <trkpt lat="47.14576" lon="-1.65201">
        <ele>58</ele>
        <time>2022-08-20T11:43:18Z</time>
      </trkpt>
      <trkpt lat="47.14581" lon="-1.65184">
        <ele>58</ele>
        <time>2022-08-20T11:43:20Z</time>
      </trkpt>
      <trkpt lat="47.14586" lon="-1.65168">
        <ele>58</ele>
        <time>2022-08-20T11:43:22Z</time>
      </trkpt>
      <trkpt lat="47.1459" lon="-1.65152">
        <ele>58</ele>
        <time>2022-08-20T11:43:24Z</time>
      </trkpt>
      <trkpt lat="47.14596" lon="-1.65136">
        <ele>59</ele>
        <time>2022-08-20T11:43:26Z</time>
      </trkpt>
      <trkpt lat="47.14602" lon="-1.6512">
        <ele>59</ele>
        <time>2022-08-20T11:43:28Z</time>
      </trkpt>
      <trkpt lat="47.14607" lon="-1.65103">
        <ele>60</ele>
        <time>2022-08-20T11:43:30Z</time>
      </trkpt>
      <trkpt lat="47.14613" lon="-1.65087">
        <ele>60</ele>
        <time>2022-08-20T11:43:32Z</time>
      </trkpt>
      <trkpt lat="47.1462" lon="-1.65071">
        <ele>60</ele>
        <time>2022-08-20T11:43:34Z</time>
      </trkpt>
      <trkpt lat="47.14626" lon="-1.65055">
        <ele>61</ele>
        <time>2022-08-20T11:43:36Z</time>
      </trkpt>
      <trkpt lat="47.14632" lon="-1.65039">
        <ele>61</ele>
        <time>2022-08-20T11:43:38Z</time>
      </trkpt>
      <trkpt lat="47.14639" lon="-1.65023">
        <ele>62</ele>
        <time>2022-08-20T11:43:40Z</time>
      </trkpt>
      <trkpt lat="47.14645" lon="-1.65007">
        <ele>62</ele>
        <time>2022-08-20T11:43:42Z</time>
      </trkpt>
      <trkpt lat="47.14651" lon="-1.64991">
        <ele>62</ele>
        <time>2022-08-20T11:43:44Z</time>
      </trkpt>
      <trkpt lat="47.14657" lon="-1.64975">
        <ele>62</ele>
        <time>2022-08-20T11:43:46Z</time>
      </trkpt>
      <trkpt lat="47.14663" lon="-1.6496">
        <ele>62</ele>
        <time>2022-08-20T11:43:48Z</time>
      </trkpt>
      <trkpt lat="47.14668" lon="-1.64944">
        <ele>62</ele>
        <time>2022-08-20T11:43:50Z</time>
      </trkpt>
      <trkpt lat="47.14674" lon="-1.64927">
        <ele>62</ele>
        <time>2022-08-20T11:43:52Z</time>
      </trkpt>
      <trkpt lat="47.14679" lon="-1.64911">
        <ele>63</ele>
        <time>2022-08-20T11:43:54Z</time>
      </trkpt>
      <trkpt lat="47.14684" lon="-1.64894">
        <ele>63</ele>
        <time>2022-08-20T11:43:56Z</time>
      </trkpt>
      <trkpt lat="47.14689" lon="-1.64878">
        <ele>63</ele>
        <time>2022-08-20T11:43:58Z</time>
      </trkpt>
      <trkpt lat="47.14694" lon="-1.64861">
        <ele>63</ele>
        <time>2022-08-20T11:44:00Z</time>
      </trkpt>
      <trkpt lat="47.14699" lon="-1.64844">
        <ele>63</ele>
        <time>2022-08-20T11:44:02Z</time>
      </trkpt>
      <trkpt lat="47.14703" lon="-1.64827">
        <ele>64</ele>
        <time>2022-08-20T11:44:04Z</time>
      </trkpt>
      <trkpt lat="47.14708" lon="-1.64809">
        <ele>64</ele>
        <time>2022-08-20T11:44:06Z</time>
      </trkpt>
      <trkpt lat="47.14712" lon="-1.64793">
        <ele>64</ele>
        <time>2022-08-20T11:44:08Z</time>
      </trkpt>
      <trkpt lat="47.14716" lon="-1.64777">
        <ele>64</ele>
        <time>2022-08-20T11:44:10Z</time>
      </trkpt>
      <trkpt lat="47.1472" lon="-1.6476">
        <ele>64</ele>
        <time>2022-08-20T11:44:12Z</time>
      </trkpt>
      <trkpt lat="47.14725" lon="-1.64745">
        <ele>64</ele>
        <time>2022-08-20T11:44:14Z</time>
      </trkpt>
      <trkpt lat="47.14729" lon="-1.64728">
        <ele>65</ele>
        <time>2022-08-20T11:44:16Z</time>
      </trkpt>
      <trkpt lat="47.14732" lon="-1.64711">
        <ele>66</ele>
        <time>2022-08-20T11:44:18Z</time>
      </trkpt>
      <trkpt lat="47.14735" lon="-1.64695">
        <ele>66</ele>
        <time>2022-08-20T11:44:20Z</time>
      </trkpt>
      <trkpt lat="47.14738" lon="-1.64678">
        <ele>66</ele>
        <time>2022-08-20T11:44:22Z</time>
      </trkpt>
      <trkpt lat="47.1474" lon="-1.64661">
        <ele>67</ele>
        <time>2022-08-20T11:44:24Z</time>
      </trkpt>
      <trkpt lat="47.14743" lon="-1.64645">
        <ele>67</ele>
        <time>2022-08-20T11:44:26Z</time>
      </trkpt>
      <trkpt lat="47.14746" lon="-1.64628">
        <ele>67</ele>
        <time>2022-08-20T11:44:28Z</time>
      </trkpt>
      <trkpt lat="47.14748" lon="-1.64612">
        <ele>67</ele>
        <time>2022-08-20T11:44:30Z</time>
      </trkpt>
      <trkpt lat="47.1475" lon="-1.64596">
        <ele>68</ele>
        <time>2022-08-20T11:44:32Z</time>
      </trkpt>
      <trkpt lat="47.14753" lon="-1.6458">
        <ele>68</ele>
        <time>2022-08-20T11:44:34Z</time>
      </trkpt>
      <trkpt lat="47.14755" lon="-1.64564">
        <ele>68</ele>
        <time>2022-08-20T11:44:36Z</time>
      </trkpt>
      <trkpt lat="47.14758" lon="-1.64548">
        <ele>69</ele>
        <time>2022-08-20T11:44:38Z</time>
      </trkpt>
      <trkpt lat="47.14761" lon="-1.64531">
        <ele>69</ele>
        <time>2022-08-20T11:44:40Z</time>
      </trkpt>
      <trkpt lat="47.14764" lon="-1.64514">
        <ele>69</ele>
        <time>2022-08-20T11:44:42Z</time>
      </trkpt>
      <trkpt lat="47.14766" lon="-1.64496">
        <ele>69</ele>
        <time>2022-08-20T11:44:44Z</time>
      </trkpt>
      <trkpt lat="47.14769" lon="-1.64478">
        <ele>69</ele>
        <time>2022-08-20T11:44:46Z</time>
      </trkpt>
      <trkpt lat="47.14772" lon="-1.6446">
        <ele>68</ele>
        <time>2022-08-20T11:44:48Z</time>
      </trkpt>
      <trkpt lat="47.14775" lon="-1.64443">
        <ele>68</ele>
        <time>2022-08-20T11:44:50Z</time>
      </trkpt>
      <trkpt lat="47.14779" lon="-1.64424">
        <ele>68</ele>
        <time>2022-08-20T11:44:52Z</time>
      </trkpt>
      <trkpt lat="47.14783" lon="-1.64406">
        <ele>68</ele>
        <time>2022-08-20T11:44:54Z</time>
      </trkpt>
      <trkpt lat="47.14787" lon="-1.64388">
        <ele>69</ele>
        <time>2022-08-20T11:44:56Z</time>
      </trkpt>
      <trkpt lat="47.14791" lon="-1.6437">
        <ele>69</ele>
        <time>2022-08-20T11:44:58Z</time>
      </trkpt>
      <trkpt lat="47.14796" lon="-1.64352">
        <ele>69</ele>
        <time>2022-08-20T11:45:00Z</time>
      </trkpt>
      <trkpt lat="47.148" lon="-1.64333">
        <ele>68</ele>
        <time>2022-08-20T11:45:02Z</time>
      </trkpt>
      <trkpt lat="47.14805" lon="-1.64315">
        <ele>68</ele>
        <time>2022-08-20T11:45:04Z</time>
      </trkpt>
      <trkpt lat="47.1481" lon="-1.64297">
        <ele>68</ele>
        <time>2022-08-20T11:45:06Z</time>
      </trkpt>
      <trkpt lat="47.14816" lon="-1.64279">
        <ele>68</ele>
        <time>2022-08-20T11:45:08Z</time>
      </trkpt>
      <trkpt lat="47.14821" lon="-1.64261">
        <ele>67</ele>
        <time>2022-08-20T11:45:10Z</time>
      </trkpt>
      <trkpt lat="47.14826" lon="-1.64243">
        <ele>67</ele>
        <time>2022-08-20T11:45:12Z</time>
      </trkpt>
      <trkpt lat="47.14832" lon="-1.64224">
        <ele>67</ele>
        <time>2022-08-20T11:45:14Z</time>
      </trkpt>
      <trkpt lat="47.14838" lon="-1.64205">
        <ele>67</ele>
        <time>2022-08-20T11:45:16Z</time>
      </trkpt>
      <trkpt lat="47.14843" lon="-1.64187">
        <ele>67</ele>
        <time>2022-08-20T11:45:18Z</time>
      </trkpt>
      <trkpt lat="47.14849" lon="-1.64169">
        <ele>67</ele>
        <time>2022-08-20T11:45:20Z</time>
      </trkpt>
      <trkpt lat="47.14855" lon="-1.6415">
        <ele>66</ele>
        <time>2022-08-20T11:45:22Z</time>
      </trkpt>
      <trkpt lat="47.14861" lon="-1.64133">
        <ele>66</ele>
        <time>2022-08-20T11:45:24Z</time>
      </trkpt>
      <trkpt lat="47.14868" lon="-1.64114">
        <ele>66</ele>
        <time>2022-08-20T11:45:26Z</time>
      </trkpt>
      <trkpt lat="47.14874" lon="-1.64096">
        <ele>66</ele>
        <time>2022-08-20T11:45:28Z</time>
      </trkpt>
      <trkpt lat="47.14881" lon="-1.64078">
        <ele>66</ele>
        <time>2022-08-20T11:45:30Z</time>
      </trkpt>
      <trkpt lat="47.14885" lon="-1.6406">
        <ele>66</ele>
        <time>2022-08-20T11:45:32Z</time>
      </trkpt>
      <trkpt lat="47.14887" lon="-1.64042">
        <ele>66</ele>
        <time>2022-08-20T11:45:34Z</time>
      </trkpt>
      <trkpt lat="47.14892" lon="-1.64026">
        <ele>66</ele>
        <time>2022-08-20T11:45:36Z</time>
      </trkpt>
      <trkpt lat="47.14902" lon="-1.64017">
        <ele>66</ele>
        <time>2022-08-20T11:45:38Z</time>
      </trkpt>
      <trkpt lat="47.14913" lon="-1.64011">
        <ele>65</ele>
        <time>2022-08-20T11:45:40Z</time>
      </trkpt>
      <trkpt lat="47.1492" lon="-1.63993">
        <ele>66</ele>
        <time>2022-08-20T11:45:42Z</time>
      </trkpt>
      <trkpt lat="47.14927" lon="-1.63977">
        <ele>66</ele>
        <time>2022-08-20T11:45:44Z</time>
      </trkpt>
      <trkpt lat="47.14935" lon="-1.63962">
        <ele>66</ele>
        <time>2022-08-20T11:45:46Z</time>
      </trkpt>
      <trkpt lat="47.14943" lon="-1.63947">
        <ele>66</ele>
        <time>2022-08-20T11:45:48Z</time>
      </trkpt>
      <trkpt lat="47.14953" lon="-1.63934">
        <ele>66</ele>
        <time>2022-08-20T11:45:50Z</time>
      </trkpt>
      <trkpt lat="47.14963" lon="-1.63921">
        <ele>66</ele>
        <time>2022-08-20T11:45:52Z</time>
      </trkpt>
      <trkpt lat="47.14973" lon="-1.63907">
        <ele>66</ele>
        <time>2022-08-20T11:45:54Z</time>
      </trkpt>
      <trkpt lat="47.14983" lon="-1.63893">
        <ele>66</ele>
        <time>2022-08-20T11:45:56Z</time>
      </trkpt>
      <trkpt lat="47.14992" lon="-1.6388">
        <ele>66</ele>
        <time>2022-08-20T11:45:58Z</time>
      </trkpt>
      <trkpt lat="47.15003" lon="-1.63868">
        <ele>65</ele>
        <time>2022-08-20T11:46:00Z</time>
      </trkpt>
      <trkpt lat="47.15014" lon="-1.63853">
        <ele>64</ele>
        <time>2022-08-20T11:46:02Z</time>
      </trkpt>
      <trkpt lat="47.15024" lon="-1.63836">
        <ele>64</ele>
        <time>2022-08-20T11:46:04Z</time>
      </trkpt>
      <trkpt lat="47.15036" lon="-1.6382">
        <ele>64</ele>
        <time>2022-08-20T11:46:06Z</time>
      </trkpt>
      <trkpt lat="47.15048" lon="-1.63804">
        <ele>64</ele>
        <time>2022-08-20T11:46:08Z</time>
      </trkpt>
      <trkpt lat="47.15059" lon="-1.63789">
        <ele>64</ele>
        <time>2022-08-20T11:46:10Z</time>
      </trkpt>
      <trkpt lat="47.15071" lon="-1.63774">
        <ele>64</ele>
        <time>2022-08-20T11:46:12Z</time>
      </trkpt>
      <trkpt lat="47.15083" lon="-1.6376">
        <ele>64</ele>
        <time>2022-08-20T11:46:14Z</time>
      </trkpt>
      <trkpt lat="47.15095" lon="-1.63746">
        <ele>65</ele>
        <time>2022-08-20T11:46:16Z</time>
      </trkpt>
      <trkpt lat="47.15106" lon="-1.63733">
        <ele>65</ele>
        <time>2022-08-20T11:46:18Z</time>
      </trkpt>
      <trkpt lat="47.15118" lon="-1.63719">
        <ele>65</ele>
        <time>2022-08-20T11:46:20Z</time>
      </trkpt>
      <trkpt lat="47.1513" lon="-1.63706">
        <ele>65</ele>
        <time>2022-08-20T11:46:22Z</time>
      </trkpt>
      <trkpt lat="47.15143" lon="-1.63694">
        <ele>65</ele>
        <time>2022-08-20T11:46:24Z</time>
      </trkpt>
      <trkpt lat="47.15155" lon="-1.63681">
        <ele>66</ele>
        <time>2022-08-20T11:46:26Z</time>
      </trkpt>
      <trkpt lat="47.15168" lon="-1.6367">
        <ele>66</ele>
        <time>2022-08-20T11:46:28Z</time>
      </trkpt>
      <trkpt lat="47.1518" lon="-1.63659">
        <ele>66</ele>
        <time>2022-08-20T11:46:30Z</time>
      </trkpt>
      <trkpt lat="47.15193" lon="-1.63649">
        <ele>66</ele>
        <time>2022-08-20T11:46:32Z</time>
      </trkpt>
      <trkpt lat="47.15205" lon="-1.63638">
        <ele>66</ele>
        <time>2022-08-20T11:46:34Z</time>
      </trkpt>
      <trkpt lat="47.15217" lon="-1.63627">
        <ele>66</ele>
        <time>2022-08-20T11:46:36Z</time>
      </trkpt>
      <trkpt lat="47.15228" lon="-1.63616">
        <ele>66</ele>
        <time>2022-08-20T11:46:38Z</time>
      </trkpt>
      <trkpt lat="47.1524" lon="-1.63605">
        <ele>66</ele>
        <time>2022-08-20T11:46:40Z</time>
      </trkpt>
      <trkpt lat="47.15252" lon="-1.63594">
        <ele>66</ele>
        <time>2022-08-20T11:46:42Z</time>
      </trkpt>
      <trkpt lat="47.15264" lon="-1.63584">
        <ele>65</ele>
        <time>2022-08-20T11:46:44Z</time>
      </trkpt>
      <trkpt lat="47.15276" lon="-1.63573">
        <ele>66</ele>
        <time>2022-08-20T11:46:46Z</time>
      </trkpt>
      <trkpt lat="47.15288" lon="-1.63562">
        <ele>65</ele>
        <time>2022-08-20T11:46:48Z</time>
      </trkpt>
      <trkpt lat="47.153" lon="-1.63552">
        <ele>65</ele>
        <time>2022-08-20T11:46:50Z</time>
      </trkpt>
      <trkpt lat="47.15312" lon="-1.63541">
        <ele>65</ele>
        <time>2022-08-20T11:46:52Z</time>
      </trkpt>
      <trkpt lat="47.15324" lon="-1.6353">
        <ele>65</ele>
        <time>2022-08-20T11:46:54Z</time>
      </trkpt>
      <trkpt lat="47.15336" lon="-1.63519">
        <ele>66</ele>
        <time>2022-08-20T11:46:56Z</time>
      </trkpt>
      <trkpt lat="47.15349" lon="-1.63508">
        <ele>66</ele>
        <time>2022-08-20T11:46:58Z</time>
      </trkpt>
      <trkpt lat="47.15361" lon="-1.63497">
        <ele>66</ele>
        <time>2022-08-20T11:47:00Z</time>
      </trkpt>
      <trkpt lat="47.15372" lon="-1.63486">
        <ele>66</ele>
        <time>2022-08-20T11:47:02Z</time>
      </trkpt>
      <trkpt lat="47.15383" lon="-1.63476">
        <ele>66</ele>
        <time>2022-08-20T11:47:04Z</time>
      </trkpt>
      <trkpt lat="47.15394" lon="-1.63465">
        <ele>66</ele>
        <time>2022-08-20T11:47:06Z</time>
      </trkpt>
      <trkpt lat="47.15406" lon="-1.63455">
        <ele>66</ele>
        <time>2022-08-20T11:47:08Z</time>
      </trkpt>
      <trkpt lat="47.15417" lon="-1.63446">
        <ele>66</ele>
        <time>2022-08-20T11:47:10Z</time>
      </trkpt>
      <trkpt lat="47.15429" lon="-1.63436">
        <ele>66</ele>
        <time>2022-08-20T11:47:12Z</time>
      </trkpt>
      <trkpt lat="47.1544" lon="-1.63425">
        <ele>66</ele>
        <time>2022-08-20T11:47:14Z</time>
      </trkpt>
      <trkpt lat="47.15451" lon="-1.63413">
        <ele>66</ele>
        <time>2022-08-20T11:47:16Z</time>
      </trkpt>
      <trkpt lat="47.15463" lon="-1.63402">
        <ele>65</ele>
        <time>2022-08-20T11:47:18Z</time>
      </trkpt>
      <trkpt lat="47.15476" lon="-1.63393">
        <ele>65</ele>
        <time>2022-08-20T11:47:20Z</time>
      </trkpt>
      <trkpt lat="47.15489" lon="-1.63384">
        <ele>65</ele>
        <time>2022-08-20T11:47:22Z</time>
      </trkpt>
      <trkpt lat="47.15502" lon="-1.63374">
        <ele>64</ele>
        <time>2022-08-20T11:47:24Z</time>
      </trkpt>
      <trkpt lat="47.15515" lon="-1.63363">
        <ele>64</ele>
        <time>2022-08-20T11:47:26Z</time>
      </trkpt>
      <trkpt lat="47.15528" lon="-1.63352">
        <ele>63</ele>
        <time>2022-08-20T11:47:28Z</time>
      </trkpt>
      <trkpt lat="47.15541" lon="-1.63341">
        <ele>63</ele>
        <time>2022-08-20T11:47:30Z</time>
      </trkpt>
      <trkpt lat="47.15553" lon="-1.63329">
        <ele>62</ele>
        <time>2022-08-20T11:47:32Z</time>
      </trkpt>
      <trkpt lat="47.15567" lon="-1.63317">
        <ele>62</ele>
        <time>2022-08-20T11:47:34Z</time>
      </trkpt>
      <trkpt lat="47.1558" lon="-1.63305">
        <ele>61</ele>
        <time>2022-08-20T11:47:36Z</time>
      </trkpt>
      <trkpt lat="47.15595" lon="-1.63293">
        <ele>62</ele>
        <time>2022-08-20T11:47:38Z</time>
      </trkpt>
      <trkpt lat="47.15609" lon="-1.6328">
        <ele>62</ele>
        <time>2022-08-20T11:47:40Z</time>
      </trkpt>
      <trkpt lat="47.15623" lon="-1.63268">
        <ele>62</ele>
        <time>2022-08-20T11:47:42Z</time>
      </trkpt>
      <trkpt lat="47.15636" lon="-1.63256">
        <ele>62</ele>
        <time>2022-08-20T11:47:44Z</time>
      </trkpt>
      <trkpt lat="47.1565" lon="-1.63244">
        <ele>62</ele>
        <time>2022-08-20T11:47:46Z</time>
      </trkpt>
      <trkpt lat="47.15662" lon="-1.63232">
        <ele>61</ele>
        <time>2022-08-20T11:47:48Z</time>
      </trkpt>
      <trkpt lat="47.15675" lon="-1.63221">
        <ele>61</ele>
        <time>2022-08-20T11:47:50Z</time>
      </trkpt>
      <trkpt lat="47.15688" lon="-1.63209">
        <ele>61</ele>
        <time>2022-08-20T11:47:52Z</time>
      </trkpt>
      <trkpt lat="47.15701" lon="-1.63199">
        <ele>62</ele>
        <time>2022-08-20T11:47:54Z</time>
      </trkpt>
      <trkpt lat="47.15713" lon="-1.63188">
        <ele>61</ele>
        <time>2022-08-20T11:47:56Z</time>
      </trkpt>
      <trkpt lat="47.15724" lon="-1.63178">
        <ele>61</ele>
        <time>2022-08-20T11:47:58Z</time>
      </trkpt>
      <trkpt lat="47.15736" lon="-1.63167">
        <ele>61</ele>
        <time>2022-08-20T11:48:00Z</time>
      </trkpt>
      <trkpt lat="47.15747" lon="-1.63156">
        <ele>60</ele>
        <time>2022-08-20T11:48:02Z</time>
      </trkpt>
      <trkpt lat="47.15757" lon="-1.63144">
        <ele>60</ele>
        <time>2022-08-20T11:48:04Z</time>
      </trkpt>
      <trkpt lat="47.15769" lon="-1.6314">
        <ele>59</ele>
        <time>2022-08-20T11:48:06Z</time>
      </trkpt>
      <trkpt lat="47.1578" lon="-1.63131">
        <ele>58</ele>
        <time>2022-08-20T11:48:08Z</time>
      </trkpt>
      <trkpt lat="47.15792" lon="-1.6312">
        <ele>57</ele>
        <time>2022-08-20T11:48:10Z</time>
      </trkpt>
      <trkpt lat="47.15804" lon="-1.63109">
        <ele>56</ele>
        <time>2022-08-20T11:48:12Z</time>
      </trkpt>
      <trkpt lat="47.15817" lon="-1.63098">
        <ele>55</ele>
        <time>2022-08-20T11:48:14Z</time>
      </trkpt>
      <trkpt lat="47.1583" lon="-1.63086">
        <ele>55</ele>
        <time>2022-08-20T11:48:16Z</time>
      </trkpt>
      <trkpt lat="47.15844" lon="-1.63074">
        <ele>54</ele>
        <time>2022-08-20T11:48:18Z</time>
      </trkpt>
      <trkpt lat="47.15856" lon="-1.63062">
        <ele>54</ele>
        <time>2022-08-20T11:48:20Z</time>
      </trkpt>
      <trkpt lat="47.1587" lon="-1.63049">
        <ele>54</ele>
        <time>2022-08-20T11:48:22Z</time>
      </trkpt>
      <trkpt lat="47.15884" lon="-1.63037">
        <ele>54</ele>
        <time>2022-08-20T11:48:24Z</time>
      </trkpt>
      <trkpt lat="47.15897" lon="-1.63025">
        <ele>54</ele>
        <time>2022-08-20T11:48:26Z</time>
      </trkpt>
      <trkpt lat="47.15911" lon="-1.63013">
        <ele>54</ele>
        <time>2022-08-20T11:48:28Z</time>
      </trkpt>
      <trkpt lat="47.15923" lon="-1.63002">
        <ele>55</ele>
        <time>2022-08-20T11:48:30Z</time>
      </trkpt>
      <trkpt lat="47.15936" lon="-1.62991">
        <ele>55</ele>
        <time>2022-08-20T11:48:32Z</time>
      </trkpt>
      <trkpt lat="47.15947" lon="-1.6298">
        <ele>56</ele>
        <time>2022-08-20T11:48:34Z</time>
      </trkpt>
      <trkpt lat="47.15959" lon="-1.6297">
        <ele>57</ele>
        <time>2022-08-20T11:48:36Z</time>
      </trkpt>
      <trkpt lat="47.1597" lon="-1.6296">
        <ele>58</ele>
        <time>2022-08-20T11:48:38Z</time>
      </trkpt>
      <trkpt lat="47.15981" lon="-1.6295">
        <ele>58</ele>
        <time>2022-08-20T11:48:40Z</time>
      </trkpt>
      <trkpt lat="47.15992" lon="-1.6294">
        <ele>59</ele>
        <time>2022-08-20T11:48:42Z</time>
      </trkpt>
      <trkpt lat="47.16004" lon="-1.6293">
        <ele>60</ele>
        <time>2022-08-20T11:48:44Z</time>
      </trkpt>
      <trkpt lat="47.16015" lon="-1.6292">
        <ele>61</ele>
        <time>2022-08-20T11:48:46Z</time>
      </trkpt>
      <trkpt lat="47.16026" lon="-1.6291">
        <ele>61</ele>
        <time>2022-08-20T11:48:48Z</time>
      </trkpt>
      <trkpt lat="47.16037" lon="-1.629">
        <ele>62</ele>
        <time>2022-08-20T11:48:50Z</time>
      </trkpt>
      <trkpt lat="47.16049" lon="-1.6289">
        <ele>63</ele>
        <time>2022-08-20T11:48:52Z</time>
      </trkpt>
      <trkpt lat="47.1606" lon="-1.6288">
        <ele>63</ele>
        <time>2022-08-20T11:48:54Z</time>
      </trkpt>
      <trkpt lat="47.16072" lon="-1.6287">
        <ele>64</ele>
        <time>2022-08-20T11:48:56Z</time>
      </trkpt>
      <trkpt lat="47.16084" lon="-1.62859">
        <ele>64</ele>
        <time>2022-08-20T11:48:58Z</time>
      </trkpt>
      <trkpt lat="47.16095" lon="-1.62849">
        <ele>64</ele>
        <time>2022-08-20T11:49:00Z</time>
      </trkpt>
      <trkpt lat="47.16107" lon="-1.62839">
        <ele>64</ele>
        <time>2022-08-20T11:49:02Z</time>
      </trkpt>
      <trkpt lat="47.16119" lon="-1.62829">
        <ele>65</ele>
        <time>2022-08-20T11:49:04Z</time>
      </trkpt>
      <trkpt lat="47.1613" lon="-1.62819">
        <ele>65</ele>
        <time>2022-08-20T11:49:06Z</time>
      </trkpt>
      <trkpt lat="47.16141" lon="-1.6281">
        <ele>65</ele>
        <time>2022-08-20T11:49:08Z</time>
      </trkpt>
      <trkpt lat="47.16152" lon="-1.62801">
        <ele>66</ele>
        <time>2022-08-20T11:49:10Z</time>
      </trkpt>
      <trkpt lat="47.16162" lon="-1.62791">
        <ele>66</ele>
        <time>2022-08-20T11:49:12Z</time>
      </trkpt>
      <trkpt lat="47.16172" lon="-1.62781">
        <ele>66</ele>
        <time>2022-08-20T11:49:14Z</time>
      </trkpt>
      <trkpt lat="47.16182" lon="-1.62771">
        <ele>66</ele>
        <time>2022-08-20T11:49:16Z</time>
      </trkpt>
      <trkpt lat="47.16191" lon="-1.62762">
        <ele>66</ele>
        <time>2022-08-20T11:49:18Z</time>
      </trkpt>
      <trkpt lat="47.16201" lon="-1.62753">
        <ele>66</ele>
        <time>2022-08-20T11:49:20Z</time>
      </trkpt>
      <trkpt lat="47.16211" lon="-1.62744">
        <ele>66</ele>
        <time>2022-08-20T11:49:22Z</time>
      </trkpt>
      <trkpt lat="47.1622" lon="-1.62736">
        <ele>66</ele>
        <time>2022-08-20T11:49:24Z</time>
      </trkpt>
      <trkpt lat="47.1623" lon="-1.62728">
        <ele>67</ele>
        <time>2022-08-20T11:49:26Z</time>
      </trkpt>
      <trkpt lat="47.1624" lon="-1.6272">
        <ele>67</ele>
        <time>2022-08-20T11:49:28Z</time>
      </trkpt>
      <trkpt lat="47.1625" lon="-1.62711">
        <ele>67</ele>
        <time>2022-08-20T11:49:30Z</time>
      </trkpt>
      <trkpt lat="47.1626" lon="-1.62703">
        <ele>68</ele>
        <time>2022-08-20T11:49:32Z</time>
      </trkpt>
      <trkpt lat="47.1627" lon="-1.62695">
        <ele>68</ele>
        <time>2022-08-20T11:49:34Z</time>
      </trkpt>
      <trkpt lat="47.16279" lon="-1.62687">
        <ele>69</ele>
        <time>2022-08-20T11:49:36Z</time>
      </trkpt>
      <trkpt lat="47.16281" lon="-1.62672">
        <ele>69</ele>
        <time>2022-08-20T11:49:38Z</time>
      </trkpt>
      <trkpt lat="47.16281" lon="-1.62655">
        <ele>69</ele>
        <time>2022-08-20T11:49:40Z</time>
      </trkpt>
      <trkpt lat="47.16282" lon="-1.62639">
        <ele>70</ele>
        <time>2022-08-20T11:49:42Z</time>
      </trkpt>
      <trkpt lat="47.16285" lon="-1.62623">
        <ele>70</ele>
        <time>2022-08-20T11:49:44Z</time>
      </trkpt>
      <trkpt lat="47.16289" lon="-1.62606">
        <ele>70</ele>
        <time>2022-08-20T11:49:46Z</time>
      </trkpt>
      <trkpt lat="47.16293" lon="-1.62591">
        <ele>71</ele>
        <time>2022-08-20T11:49:48Z</time>
      </trkpt>
      <trkpt lat="47.16301" lon="-1.62578">
        <ele>71</ele>
        <time>2022-08-20T11:49:50Z</time>
      </trkpt>
      <trkpt lat="47.1631" lon="-1.62569">
        <ele>71</ele>
        <time>2022-08-20T11:49:52Z</time>
      </trkpt>
      <trkpt lat="47.16322" lon="-1.62567">
        <ele>71</ele>
        <time>2022-08-20T11:49:54Z</time>
      </trkpt>
      <trkpt lat="47.16333" lon="-1.62569">
        <ele>70</ele>
        <time>2022-08-20T11:49:56Z</time>
      </trkpt>
      <trkpt lat="47.16345" lon="-1.62575">
        <ele>70</ele>
        <time>2022-08-20T11:49:58Z</time>
      </trkpt>
      <trkpt lat="47.16357" lon="-1.62579">
        <ele>69</ele>
        <time>2022-08-20T11:50:00Z</time>
      </trkpt>
      <trkpt lat="47.16369" lon="-1.62581">
        <ele>69</ele>
        <time>2022-08-20T11:50:02Z</time>
      </trkpt>
      <trkpt lat="47.16381" lon="-1.62581">
        <ele>70</ele>
        <time>2022-08-20T11:50:04Z</time>
      </trkpt>
      <trkpt lat="47.16392" lon="-1.62577">
        <ele>70</ele>
        <time>2022-08-20T11:50:06Z</time>
      </trkpt>
      <trkpt lat="47.16403" lon="-1.6257">
        <ele>70</ele>
        <time>2022-08-20T11:50:08Z</time>
      </trkpt>
      <trkpt lat="47.16414" lon="-1.6256">
        <ele>70</ele>
        <time>2022-08-20T11:50:10Z</time>
      </trkpt>
      <trkpt lat="47.16424" lon="-1.6255">
        <ele>71</ele>
        <time>2022-08-20T11:50:12Z</time>
      </trkpt>
      <trkpt lat="47.16434" lon="-1.62541">
        <ele>70</ele>
        <time>2022-08-20T11:50:14Z</time>
      </trkpt>
      <trkpt lat="47.16446" lon="-1.62537">
        <ele>71</ele>
        <time>2022-08-20T11:50:16Z</time>
      </trkpt>
      <trkpt lat="47.16456" lon="-1.62541">
        <ele>70</ele>
        <time>2022-08-20T11:50:18Z</time>
      </trkpt>
      <trkpt lat="47.16467" lon="-1.62544">
        <ele>70</ele>
        <time>2022-08-20T11:50:20Z</time>
      </trkpt>
      <trkpt lat="47.16478" lon="-1.62548">
        <ele>70</ele>
        <time>2022-08-20T11:50:22Z</time>
      </trkpt>
      <trkpt lat="47.1649" lon="-1.62552">
        <ele>70</ele>
        <time>2022-08-20T11:50:24Z</time>
      </trkpt>
      <trkpt lat="47.16501" lon="-1.62556">
        <ele>70</ele>
        <time>2022-08-20T11:50:26Z</time>
      </trkpt>
      <trkpt lat="47.16514" lon="-1.6256">
        <ele>70</ele>
        <time>2022-08-20T11:50:28Z</time>
      </trkpt>
      <trkpt lat="47.16527" lon="-1.62564">
        <ele>70</ele>
        <time>2022-08-20T11:50:30Z</time>
      </trkpt>
      <trkpt lat="47.16539" lon="-1.62562">
        <ele>70</ele>
        <time>2022-08-20T11:50:32Z</time>
      </trkpt>
      <trkpt lat="47.1655" lon="-1.62552">
        <ele>71</ele>
        <time>2022-08-20T11:50:34Z</time>
      </trkpt>
      <trkpt lat="47.16559" lon="-1.62538">
        <ele>70</ele>
        <time>2022-08-20T11:50:36Z</time>
      </trkpt>
      <trkpt lat="47.16568" lon="-1.62523">
        <ele>70</ele>
        <time>2022-08-20T11:50:38Z</time>
      </trkpt>
      <trkpt lat="47.16576" lon="-1.62506">
        <ele>69</ele>
        <time>2022-08-20T11:50:40Z</time>
      </trkpt>
      <trkpt lat="47.16582" lon="-1.62489">
        <ele>69</ele>
        <time>2022-08-20T11:50:42Z</time>
      </trkpt>
      <trkpt lat="47.1659" lon="-1.62471">
        <ele>68</ele>
        <time>2022-08-20T11:50:44Z</time>
      </trkpt>
      <trkpt lat="47.16597" lon="-1.62454">
        <ele>68</ele>
        <time>2022-08-20T11:50:46Z</time>
      </trkpt>
      <trkpt lat="47.16605" lon="-1.62436">
        <ele>67</ele>
        <time>2022-08-20T11:50:48Z</time>
      </trkpt>
      <trkpt lat="47.16613" lon="-1.62418">
        <ele>67</ele>
        <time>2022-08-20T11:50:50Z</time>
      </trkpt>
      <trkpt lat="47.16622" lon="-1.62402">
        <ele>67</ele>
        <time>2022-08-20T11:50:52Z</time>
      </trkpt>
      <trkpt lat="47.16632" lon="-1.62387">
        <ele>67</ele>
        <time>2022-08-20T11:50:54Z</time>
      </trkpt>
      <trkpt lat="47.16643" lon="-1.62374">
        <ele>66</ele>
        <time>2022-08-20T11:50:56Z</time>
      </trkpt>
      <trkpt lat="47.16655" lon="-1.62363">
        <ele>66</ele>
        <time>2022-08-20T11:50:58Z</time>
      </trkpt>
      <trkpt lat="47.16668" lon="-1.62354">
        <ele>66</ele>
        <time>2022-08-20T11:51:00Z</time>
      </trkpt>
      <trkpt lat="47.16681" lon="-1.62353">
        <ele>67</ele>
        <time>2022-08-20T11:51:02Z</time>
      </trkpt>
      <trkpt lat="47.16695" lon="-1.6236">
        <ele>66</ele>
        <time>2022-08-20T11:51:04Z</time>
      </trkpt>
      <trkpt lat="47.16707" lon="-1.62372">
        <ele>65</ele>
        <time>2022-08-20T11:51:06Z</time>
      </trkpt>
      <trkpt lat="47.16716" lon="-1.62387">
        <ele>66</ele>
        <time>2022-08-20T11:51:08Z</time>
      </trkpt>
      <trkpt lat="47.16724" lon="-1.62401">
        <ele>66</ele>
        <time>2022-08-20T11:51:10Z</time>
      </trkpt>
      <trkpt lat="47.16732" lon="-1.62412">
        <ele>66</ele>
        <time>2022-08-20T11:51:12Z</time>
      </trkpt>
      <trkpt lat="47.16732" lon="-1.62428">
        <ele>66</ele>
        <time>2022-08-20T11:51:14Z</time>
      </trkpt>
      <trkpt lat="47.16729" lon="-1.62445">
        <ele>67</ele>
        <time>2022-08-20T11:51:16Z</time>
      </trkpt>
      <trkpt lat="47.16724" lon="-1.62463">
        <ele>67</ele>
        <time>2022-08-20T11:51:18Z</time>
      </trkpt>
      <trkpt lat="47.1672" lon="-1.6248">
        <ele>68</ele>
        <time>2022-08-20T11:51:20Z</time>
      </trkpt>
      <trkpt lat="47.16723" lon="-1.62495">
        <ele>68</ele>
        <time>2022-08-20T11:51:22Z</time>
      </trkpt>
      <trkpt lat="47.16734" lon="-1.62499">
        <ele>67</ele>
        <time>2022-08-20T11:51:24Z</time>
      </trkpt>
      <trkpt lat="47.16744" lon="-1.62504">
        <ele>67</ele>
        <time>2022-08-20T11:51:26Z</time>
      </trkpt>
      <trkpt lat="47.16755" lon="-1.6251">
        <ele>68</ele>
        <time>2022-08-20T11:51:28Z</time>
      </trkpt>
      <trkpt lat="47.16766" lon="-1.62516">
        <ele>68</ele>
        <time>2022-08-20T11:51:30Z</time>
      </trkpt>
      <trkpt lat="47.16777" lon="-1.62521">
        <ele>68</ele>
        <time>2022-08-20T11:51:32Z</time>
      </trkpt>
      <trkpt lat="47.16787" lon="-1.62528">
        <ele>68</ele>
        <time>2022-08-20T11:51:34Z</time>
      </trkpt>
      <trkpt lat="47.16797" lon="-1.62534">
        <ele>68</ele>
        <time>2022-08-20T11:51:36Z</time>
      </trkpt>
      <trkpt lat="47.16807" lon="-1.62542">
        <ele>67</ele>
        <time>2022-08-20T11:51:38Z</time>
      </trkpt>
      <trkpt lat="47.16817" lon="-1.62549">
        <ele>67</ele>
        <time>2022-08-20T11:51:40Z</time>
      </trkpt>
      <trkpt lat="47.16826" lon="-1.62559">
        <ele>67</ele>
        <time>2022-08-20T11:51:42Z</time>
      </trkpt>
      <trkpt lat="47.16833" lon="-1.62571">
        <ele>67</ele>
        <time>2022-08-20T11:51:44Z</time>
      </trkpt>
      <trkpt lat="47.16833" lon="-1.62585">
        <ele>68</ele>
        <time>2022-08-20T11:51:46Z</time>
      </trkpt>
      <trkpt lat="47.16827" lon="-1.62597">
        <ele>69</ele>
        <time>2022-08-20T11:51:48Z</time>
      </trkpt>
      <trkpt lat="47.16819" lon="-1.62608">
        <ele>70</ele>
        <time>2022-08-20T11:51:50Z</time>
      </trkpt>
      <trkpt lat="47.16812" lon="-1.6262">
        <ele>71</ele>
        <time>2022-08-20T11:51:52Z</time>
      </trkpt>
      <trkpt lat="47.16805" lon="-1.62633">
        <ele>71</ele>
        <time>2022-08-20T11:51:54Z</time>
      </trkpt>
      <trkpt lat="47.16799" lon="-1.62643">
        <ele>72</ele>
        <time>2022-08-20T11:51:56Z</time>
      </trkpt>
      <trkpt lat="47.16792" lon="-1.62656">
        <ele>72</ele>
        <time>2022-08-20T11:51:59Z</time>
      </trkpt>
      <trkpt lat="47.16783" lon="-1.62655">
        <ele>73</ele>
        <time>2022-08-20T11:52:04Z</time>
      </trkpt>
    </trkseg>
  </trk>
</gpx>